<?xml version='1.0' encoding='UTF-8'?><gpx version="1.1" creator="JPX - https://github.com/jenetics/jpx" xmlns="http://www.topografix.com/GPX/1/1"><trk><trkseg><trkpt lat="45.48638462187918" lon="9.244187338323579"><ele>124.00000000000001</ele><time>2026-04-11T07:53:30Z</time></trkpt><trkpt lat="45.48638933160999" lon="9.244287055805525"><ele>124.0</ele><time>2026-04-11T07:53:31Z</time></trkpt><trkpt lat="45.48637925269227" lon="9.244391712979192"><ele>124.0</ele><time>2026-04-11T07:57:29Z</time></trkpt><trkpt lat="45.48645333753616" lon="9.244470504817421"><ele>124.0</ele><time>2026-04-11T07:57:36Z</time></trkpt><trkpt lat="45.48649057737935" lon="9.244651783067757"><ele>124.00000000000001</ele><time>2026-04-11T07:57:38Z</time></trkpt><trkpt lat="45.48649487337433" lon="9.244752199270001"><ele>124.0</ele><time>2026-04-11T07:57:39Z</time></trkpt><trkpt lat="45.48650106943741" lon="9.244849270393555"><ele>124.0</ele><time>2026-04-11T07:57:40Z</time></trkpt><trkpt lat="45.48651229788809" lon="9.244964189594333"><ele>124.0</ele><time>2026-04-11T07:57:41Z</time></trkpt><trkpt lat="45.486522590022005" lon="9.245102594924004"><ele>124.0</ele><time>2026-04-11T07:57:42Z</time></trkpt><trkpt lat="45.48653581810503" lon="9.245249220913255"><ele>124.0</ele><time>2026-04-11T07:57:43Z</time></trkpt><trkpt lat="45.486548179675026" lon="9.245404484515712"><ele>124.0</ele><time>2026-04-11T07:57:44Z</time></trkpt><trkpt lat="45.48656389883586" lon="9.245570846649821"><ele>123.75</ele><time>2026-04-11T07:57:45Z</time></trkpt><trkpt lat="45.486583309706766" lon="9.245727500166558"><ele>123.5</ele><time>2026-04-11T07:57:46Z</time></trkpt><trkpt lat="45.48660991039254" lon="9.245899568337135"><ele>123.25</ele><time>2026-04-11T07:57:47Z</time></trkpt><trkpt lat="45.48662926750989" lon="9.24608321870455"><ele>123.0</ele><time>2026-04-11T07:57:48Z</time></trkpt><trkpt lat="45.48664453323879" lon="9.246274313717839"><ele>122.75</ele><time>2026-04-11T07:57:49Z</time></trkpt><trkpt lat="45.486661628294904" lon="9.246463525405998"><ele>122.5</ele><time>2026-04-11T07:57:50Z</time></trkpt><trkpt lat="45.48667117589421" lon="9.24665072241564"><ele>122.25</ele><time>2026-04-11T07:57:51Z</time></trkpt><trkpt lat="45.48666363826248" lon="9.246845471298396"><ele>122.0</ele><time>2026-04-11T07:57:52Z</time></trkpt><trkpt lat="45.48667215619867" lon="9.247020873602617"><ele>122.0</ele><time>2026-04-11T07:57:52.999Z</time></trkpt><trkpt lat="45.48668957892766" lon="9.247212228361693"><ele>122.0</ele><time>2026-04-11T07:57:53.999Z</time></trkpt><trkpt lat="45.48670548936133" lon="9.247411678547687"><ele>122.0</ele><time>2026-04-11T07:57:54.999Z</time></trkpt><trkpt lat="45.48672473758268" lon="9.247619555016495"><ele>122.0</ele><time>2026-04-11T07:57:55.999Z</time></trkpt><trkpt lat="45.48674353846066" lon="9.247830841728426"><ele>121.5</ele><time>2026-04-11T07:57:56.999Z</time></trkpt><trkpt lat="45.48676392871462" lon="9.248050034101585"><ele>121.0</ele><time>2026-04-11T07:57:57.999Z</time></trkpt><trkpt lat="45.48679113812915" lon="9.248285170597118"><ele>120.5</ele><time>2026-04-11T07:57:58.999Z</time></trkpt><trkpt lat="45.486796168755845" lon="9.248390515514467"><ele>120.0</ele><time>2026-04-11T07:57:59.999Z</time></trkpt><trkpt lat="45.486816385963806" lon="9.24857979879973"><ele>119.75</ele><time>2026-04-11T07:58:00.999Z</time></trkpt><trkpt lat="45.48683691341199" lon="9.24876852571431"><ele>119.5</ele><time>2026-04-11T07:58:01.999Z</time></trkpt><trkpt lat="45.4868556759257" lon="9.248958571604637"><ele>119.25</ele><time>2026-04-11T07:58:02.999Z</time></trkpt><trkpt lat="45.486876476466364" lon="9.249153405050485"><ele>119.0</ele><time>2026-04-11T07:58:03.999Z</time></trkpt><trkpt lat="45.4868948119082" lon="9.249370183527693"><ele>118.33333333333333</ele><time>2026-04-11T07:58:04.999Z</time></trkpt><trkpt lat="45.48690173969013" lon="9.24959295678244"><ele>117.66666666666666</ele><time>2026-04-11T07:58:05.999Z</time></trkpt><trkpt lat="45.486918705877656" lon="9.24982293058621"><ele>117.0</ele><time>2026-04-11T07:58:06.999Z</time></trkpt><trkpt lat="45.48693931231469" lon="9.250039924888348"><ele>117.0</ele><time>2026-04-11T07:58:07.999Z</time></trkpt><trkpt lat="45.486951593636626" lon="9.250245096795853"><ele>117.0</ele><time>2026-04-11T07:58:08.999Z</time></trkpt><trkpt lat="45.48693003165397" lon="9.250437304758512"><ele>117.0</ele><time>2026-04-11T07:58:09.999Z</time></trkpt><trkpt lat="45.48686368137191" lon="9.2506392260197"><ele>117.0</ele><time>2026-04-11T07:58:10.999Z</time></trkpt><trkpt lat="45.48675088998886" lon="9.25079612031984"><ele>116.75</ele><time>2026-04-11T07:58:11.999Z</time></trkpt><trkpt lat="45.4866357473875" lon="9.250907298178506"><ele>116.5</ele><time>2026-04-11T07:58:12.999Z</time></trkpt><trkpt lat="45.48650210399734" lon="9.251003899848811"><ele>116.25</ele><time>2026-04-11T07:58:13.999Z</time></trkpt><trkpt lat="45.486347638466746" lon="9.251025124883645"><ele>116.0</ele><time>2026-04-11T07:58:14.999Z</time></trkpt><trkpt lat="45.48618511287264" lon="9.250995435797128"><ele>116.66666666666666</ele><time>2026-04-11T07:58:15.999Z</time></trkpt><trkpt lat="45.48601197494813" lon="9.250985038476154"><ele>117.33333333333334</ele><time>2026-04-11T07:58:16.999Z</time></trkpt><trkpt lat="45.48583706871926" lon="9.250944165748255"><ele>118.0</ele><time>2026-04-11T07:58:17.999Z</time></trkpt><trkpt lat="45.485653532849426" lon="9.250903763212005"><ele>118.0</ele><time>2026-04-11T07:58:18.999Z</time></trkpt><trkpt lat="45.48546590872433" lon="9.250851349982552"><ele>118.0</ele><time>2026-04-11T07:58:19.999Z</time></trkpt><trkpt lat="45.48527768120913" lon="9.250825855469497"><ele>118.0</ele><time>2026-04-11T07:58:20.999Z</time></trkpt><trkpt lat="45.4850962638418" lon="9.25076595365101"><ele>118.0</ele><time>2026-04-11T07:58:21.999Z</time></trkpt><trkpt lat="45.484961462226075" lon="9.25076092659809"><ele>118.00000000000001</ele><time>2026-04-11T07:58:22.999Z</time></trkpt><trkpt lat="45.4848702258267" lon="9.250755510194562"><ele>118.00000000000001</ele><time>2026-04-11T07:58:23.999Z</time></trkpt><trkpt lat="45.48479925767501" lon="9.250748649444715"><ele>118.0</ele><time>2026-04-11T07:58:24.999Z</time></trkpt><trkpt lat="45.484684396999725" lon="9.250728242986195"><ele>118.0</ele><time>2026-04-11T07:58:26.999Z</time></trkpt><trkpt lat="45.4845439295979" lon="9.250718483264736"><ele>118.4</ele><time>2026-04-11T07:58:28.999Z</time></trkpt><trkpt lat="45.48445038438914" lon="9.250714380977772"><ele>118.80000000000001</ele><time>2026-04-11T07:58:29.999Z</time></trkpt><trkpt lat="45.484348314147695" lon="9.250707574541982"><ele>119.2</ele><time>2026-04-11T07:58:30.999Z</time></trkpt><trkpt lat="45.484232018210434" lon="9.250708614224802"><ele>119.6</ele><time>2026-04-11T07:58:31.999Z</time></trkpt><trkpt lat="45.48409660443742" lon="9.250739649383071"><ele>120.0</ele><time>2026-04-11T07:58:32.999Z</time></trkpt><trkpt lat="45.4839496592377" lon="9.250774038034503"><ele>120.0</ele><time>2026-04-11T07:58:33.999Z</time></trkpt><trkpt lat="45.483788596651905" lon="9.250815974550378"><ele>120.0</ele><time>2026-04-11T07:58:34.999Z</time></trkpt><trkpt lat="45.48361509598527" lon="9.250885143184991"><ele>120.0</ele><time>2026-04-11T07:58:35.999Z</time></trkpt><trkpt lat="45.483439467020965" lon="9.250889906035894"><ele>120.0</ele><time>2026-04-11T07:58:36.999Z</time></trkpt><trkpt lat="45.48326596562956" lon="9.250931727829569"><ele>120.0</ele><time>2026-04-11T07:58:37.999Z</time></trkpt><trkpt lat="45.48307342154316" lon="9.25098972933765"><ele>120.0</ele><time>2026-04-11T07:58:38.999Z</time></trkpt><trkpt lat="45.48287759906623" lon="9.25104449147169"><ele>120.0</ele><time>2026-04-11T07:58:39.998Z</time></trkpt><trkpt lat="45.48267483506799" lon="9.251106200750245"><ele>120.0</ele><time>2026-04-11T07:58:40.998Z</time></trkpt><trkpt lat="45.48248281845878" lon="9.251167739903257"><ele>120.0</ele><time>2026-04-11T07:58:41.998Z</time></trkpt><trkpt lat="45.482308374103134" lon="9.251232531495836"><ele>120.0</ele><time>2026-04-11T07:58:42.998Z</time></trkpt><trkpt lat="45.482136543367076" lon="9.251301847456768"><ele>120.0</ele><time>2026-04-11T07:58:43.998Z</time></trkpt><trkpt lat="45.48197706752579" lon="9.251366724457952"><ele>120.0</ele><time>2026-04-11T07:58:44.998Z</time></trkpt><trkpt lat="45.48181847103896" lon="9.251431226950414"><ele>120.33333333333334</ele><time>2026-04-11T07:58:45.998Z</time></trkpt><trkpt lat="45.48165853711384" lon="9.251499145273756"><ele>120.66666666666667</ele><time>2026-04-11T07:58:46.998Z</time></trkpt><trkpt lat="45.48149640027129" lon="9.251571173350467"><ele>121.0</ele><time>2026-04-11T07:58:47.998Z</time></trkpt><trkpt lat="45.48133369990156" lon="9.251643117014934"><ele>121.0</ele><time>2026-04-11T07:58:48.998Z</time></trkpt><trkpt lat="45.48117210823667" lon="9.251718545363182"><ele>121.0</ele><time>2026-04-11T07:58:49.998Z</time></trkpt><trkpt lat="45.481005081740136" lon="9.25179770064282"><ele>121.0</ele><time>2026-04-11T07:58:50.998Z</time></trkpt><trkpt lat="45.480835667827776" lon="9.251874992269277"><ele>121.0</ele><time>2026-04-11T07:58:51.998Z</time></trkpt><trkpt lat="45.480662712256375" lon="9.251955037473568"><ele>121.0</ele><time>2026-04-11T07:58:52.998Z</time></trkpt><trkpt lat="45.48048047409449" lon="9.252036139830217"><ele>121.0</ele><time>2026-04-11T07:58:53.998Z</time></trkpt><trkpt lat="45.48030611465293" lon="9.252118362251709"><ele>119.66666666666667</ele><time>2026-04-11T07:58:54.998Z</time></trkpt><trkpt lat="45.480127421006486" lon="9.252202593650717"><ele>118.33333333333334</ele><time>2026-04-11T07:58:55.998Z</time></trkpt><trkpt lat="45.4799506267948" lon="9.252283331727014"><ele>117.0</ele><time>2026-04-11T07:58:56.998Z</time></trkpt><trkpt lat="45.47976600018354" lon="9.252363609787732"><ele>117.66666666666666</ele><time>2026-04-11T07:58:57.998Z</time></trkpt><trkpt lat="45.47959024064448" lon="9.252446259328394"><ele>118.33333333333333</ele><time>2026-04-11T07:58:58.998Z</time></trkpt><trkpt lat="45.47941654473742" lon="9.252529502120952"><ele>119.0</ele><time>2026-04-11T07:58:59.998Z</time></trkpt><trkpt lat="45.47924250863836" lon="9.252610555301645"><ele>119.0</ele><time>2026-04-11T07:59:00.998Z</time></trkpt><trkpt lat="45.47906868580656" lon="9.25268901783656"><ele>119.0</ele><time>2026-04-11T07:59:01.998Z</time></trkpt><trkpt lat="45.4788907167835" lon="9.25276739769729"><ele>119.0</ele><time>2026-04-11T07:59:02.998Z</time></trkpt><trkpt lat="45.47871527669055" lon="9.25284609796261"><ele>118.0</ele><time>2026-04-11T07:59:03.998Z</time></trkpt><trkpt lat="45.47853556676836" lon="9.25292660322266"><ele>117.0</ele><time>2026-04-11T07:59:04.998Z</time></trkpt><trkpt lat="45.47835392569587" lon="9.253009066503674"><ele>116.0</ele><time>2026-04-11T07:59:05.998Z</time></trkpt><trkpt lat="45.47817218263609" lon="9.253088431777302"><ele>116.33333333333333</ele><time>2026-04-11T07:59:06.998Z</time></trkpt><trkpt lat="45.47798826161373" lon="9.253164182952949"><ele>116.66666666666666</ele><time>2026-04-11T07:59:07.998Z</time></trkpt><trkpt lat="45.477802360771655" lon="9.2532403993703"><ele>117.0</ele><time>2026-04-11T07:59:08.998Z</time></trkpt><trkpt lat="45.47761042386535" lon="9.253306151624509"><ele>117.0</ele><time>2026-04-11T07:59:09.998Z</time></trkpt><trkpt lat="45.477416592009305" lon="9.253361058109265"><ele>117.0</ele><time>2026-04-11T07:59:10.998Z</time></trkpt><trkpt lat="45.47722195987414" lon="9.253399166271697"><ele>117.0</ele><time>2026-04-11T07:59:11.998Z</time></trkpt><trkpt lat="45.477026905851524" lon="9.253430816805844"><ele>117.0</ele><time>2026-04-11T07:59:12.998Z</time></trkpt><trkpt lat="45.47682600489446" lon="9.25345353400323"><ele>117.0</ele><time>2026-04-11T07:59:13.998Z</time></trkpt><trkpt lat="45.4766278576642" lon="9.253467895675293"><ele>117.0</ele><time>2026-04-11T07:59:14.998Z</time></trkpt><trkpt lat="45.476437209615156" lon="9.253469312452832"><ele>117.0</ele><time>2026-04-11T07:59:15.998Z</time></trkpt><trkpt lat="45.47624079906816" lon="9.253461948329468"><ele>117.0</ele><time>2026-04-11T07:59:16.998Z</time></trkpt><trkpt lat="45.476042562862595" lon="9.253444737550257"><ele>117.0</ele><time>2026-04-11T07:59:17.998Z</time></trkpt><trkpt lat="45.47584401406306" lon="9.25341483959175"><ele>117.0</ele><time>2026-04-11T07:59:18.998Z</time></trkpt><trkpt lat="45.47565104900119" lon="9.253378671175513"><ele>117.0</ele><time>2026-04-11T07:59:19.998Z</time></trkpt><trkpt lat="45.475458497011935" lon="9.25333542215257"><ele>117.0</ele><time>2026-04-11T07:59:20.998Z</time></trkpt><trkpt lat="45.475270251074576" lon="9.253282332220264"><ele>117.66666666666666</ele><time>2026-04-11T07:59:21.998Z</time></trkpt><trkpt lat="45.47508200948632" lon="9.253223586606193"><ele>118.33333333333333</ele><time>2026-04-11T07:59:22.998Z</time></trkpt><trkpt lat="45.47490791722553" lon="9.25316472952664"><ele>119.0</ele><time>2026-04-11T07:59:23.998Z</time></trkpt><trkpt lat="45.4747360506133" lon="9.253107212910601"><ele>118.33333333333333</ele><time>2026-04-11T07:59:24.998Z</time></trkpt><trkpt lat="45.47456103789346" lon="9.2530487714063"><ele>117.66666666666666</ele><time>2026-04-11T07:59:25.997Z</time></trkpt><trkpt lat="45.47438639574513" lon="9.252989637534604"><ele>117.0</ele><time>2026-04-11T07:59:26.999Z</time></trkpt><trkpt lat="45.474214415594304" lon="9.252932474320426"><ele>117.0</ele><time>2026-04-11T07:59:27.999Z</time></trkpt><trkpt lat="45.47404489545532" lon="9.25287908681575"><ele>117.0</ele><time>2026-04-11T07:59:28.999Z</time></trkpt><trkpt lat="45.47388171920088" lon="9.252825178314138"><ele>117.0</ele><time>2026-04-11T07:59:29.999Z</time></trkpt><trkpt lat="45.47371966033438" lon="9.252769436244726"><ele>117.66666666666666</ele><time>2026-04-11T07:59:30.999Z</time></trkpt><trkpt lat="45.473562428159354" lon="9.252714900659027"><ele>118.33333333333333</ele><time>2026-04-11T07:59:31.999Z</time></trkpt><trkpt lat="45.4734033392931" lon="9.252660153775143"><ele>119.0</ele><time>2026-04-11T07:59:32.999Z</time></trkpt><trkpt lat="45.473241066072106" lon="9.252606154173314"><ele>119.0</ele><time>2026-04-11T07:59:33.999Z</time></trkpt><trkpt lat="45.47307549954034" lon="9.252551932793997"><ele>119.0</ele><time>2026-04-11T07:59:34.999Z</time></trkpt><trkpt lat="45.472901923339094" lon="9.252494983177947"><ele>119.0</ele><time>2026-04-11T07:59:35.999Z</time></trkpt><trkpt lat="45.47272213358659" lon="9.252441991675276"><ele>119.66666666666666</ele><time>2026-04-11T07:59:36.999Z</time></trkpt><trkpt lat="45.4725462202836" lon="9.25239473709096"><ele>120.33333333333334</ele><time>2026-04-11T07:59:37.999Z</time></trkpt><trkpt lat="45.47236506942134" lon="9.252349378359973"><ele>121.0</ele><time>2026-04-11T07:59:38.999Z</time></trkpt><trkpt lat="45.47218672884544" lon="9.252303782726003"><ele>118.66666666666667</ele><time>2026-04-11T07:59:39.999Z</time></trkpt><trkpt lat="45.47200419322649" lon="9.252258077628394"><ele>116.33333333333334</ele><time>2026-04-11T07:59:40.999Z</time></trkpt><trkpt lat="45.47182052042687" lon="9.252218007995012"><ele>114.0</ele><time>2026-04-11T07:59:41.999Z</time></trkpt><trkpt lat="45.47162911652935" lon="9.252180453332546"><ele>114.0</ele><time>2026-04-11T07:59:42.999Z</time></trkpt><trkpt lat="45.47143788468943" lon="9.252142215739275"><ele>114.0</ele><time>2026-04-11T07:59:43.999Z</time></trkpt><trkpt lat="45.47124698196519" lon="9.25210530268008"><ele>114.0</ele><time>2026-04-11T07:59:44.999Z</time></trkpt><trkpt lat="45.47105393986986" lon="9.252075958759157"><ele>113.66666666666666</ele><time>2026-04-11T07:59:45.999Z</time></trkpt><trkpt lat="45.47086222693339" lon="9.252048872104677"><ele>113.33333333333333</ele><time>2026-04-11T07:59:46.999Z</time></trkpt><trkpt lat="45.47066584992828" lon="9.252021835348764"><ele>113.0</ele><time>2026-04-11T07:59:47.999Z</time></trkpt><trkpt lat="45.47046908231335" lon="9.251998139972796"><ele>113.33333333333333</ele><time>2026-04-11T07:59:48.999Z</time></trkpt><trkpt lat="45.47027077534614" lon="9.251977502856585"><ele>113.66666666666666</ele><time>2026-04-11T07:59:49.999Z</time></trkpt><trkpt lat="45.470073501469216" lon="9.251956601581876"><ele>114.0</ele><time>2026-04-11T07:59:50.999Z</time></trkpt><trkpt lat="45.469877406888536" lon="9.251940644845766"><ele>114.0</ele><time>2026-04-11T07:59:51.999Z</time></trkpt><trkpt lat="45.46967813828319" lon="9.251929617258229"><ele>114.0</ele><time>2026-04-11T07:59:52.999Z</time></trkpt><trkpt lat="45.46947937154538" lon="9.251917993693448"><ele>114.0</ele><time>2026-04-11T07:59:53.999Z</time></trkpt><trkpt lat="45.46927440447988" lon="9.251915103616682"><ele>114.33333333333334</ele><time>2026-04-11T07:59:54.999Z</time></trkpt><trkpt lat="45.469067880115205" lon="9.25190883510609"><ele>114.66666666666667</ele><time>2026-04-11T07:59:55.999Z</time></trkpt><trkpt lat="45.46885773900808" lon="9.251908874604462"><ele>115.0</ele><time>2026-04-11T07:59:56.999Z</time></trkpt><trkpt lat="45.46864354465129" lon="9.251915977168172"><ele>115.0</ele><time>2026-04-11T07:59:57.999Z</time></trkpt><trkpt lat="45.46842881388185" lon="9.251921762261647"><ele>115.0</ele><time>2026-04-11T07:59:58.999Z</time></trkpt><trkpt lat="45.46821718170451" lon="9.25192815613218"><ele>115.0</ele><time>2026-04-11T07:59:59.999Z</time></trkpt><trkpt lat="45.468005382916864" lon="9.25193427919498"><ele>115.0</ele><time>2026-04-11T08:00:00.999Z</time></trkpt><trkpt lat="45.46779211374413" lon="9.251939581119158"><ele>115.0</ele><time>2026-04-11T08:00:01.999Z</time></trkpt><trkpt lat="45.46758160637196" lon="9.251938211596206"><ele>115.0</ele><time>2026-04-11T08:00:02.999Z</time></trkpt><trkpt lat="45.4673726140424" lon="9.251930362821069"><ele>115.0</ele><time>2026-04-11T08:00:03.999Z</time></trkpt><trkpt lat="45.46716400664748" lon="9.251918047777016"><ele>115.0</ele><time>2026-04-11T08:00:04.999Z</time></trkpt><trkpt lat="45.46696554942994" lon="9.251897352326083"><ele>115.0</ele><time>2026-04-11T08:00:05.999Z</time></trkpt><trkpt lat="45.46676677353693" lon="9.25185943621029"><ele>115.0</ele><time>2026-04-11T08:00:06.999Z</time></trkpt><trkpt lat="45.46656907988277" lon="9.251812871194971"><ele>115.0</ele><time>2026-04-11T08:00:07.999Z</time></trkpt><trkpt lat="45.46636801309332" lon="9.251757252211345"><ele>115.0</ele><time>2026-04-11T08:00:08.999Z</time></trkpt><trkpt lat="45.466174114245256" lon="9.251701833504333"><ele>114.66666666666667</ele><time>2026-04-11T08:00:09.999Z</time></trkpt><trkpt lat="45.46597775107573" lon="9.251642390686786"><ele>114.33333333333334</ele><time>2026-04-11T08:00:10.999Z</time></trkpt><trkpt lat="45.46577930169293" lon="9.251568269682496"><ele>114.0</ele><time>2026-04-11T08:00:11.999Z</time></trkpt><trkpt lat="45.46558284276037" lon="9.251487344481545"><ele>113.66666666666666</ele><time>2026-04-11T08:00:12.999Z</time></trkpt><trkpt lat="45.46538437114005" lon="9.251392493072071"><ele>113.33333333333333</ele><time>2026-04-11T08:00:13.999Z</time></trkpt><trkpt lat="45.46518937057386" lon="9.251294336994496"><ele>113.0</ele><time>2026-04-11T08:00:14.999Z</time></trkpt><trkpt lat="45.46499116300437" lon="9.251197993480595"><ele>113.0</ele><time>2026-04-11T08:00:15.999Z</time></trkpt><trkpt lat="45.464797167549726" lon="9.251119254072425"><ele>113.0</ele><time>2026-04-11T08:00:16.999Z</time></trkpt><trkpt lat="45.46459857068409" lon="9.251062696923368"><ele>113.0</ele><time>2026-04-11T08:00:17.999Z</time></trkpt><trkpt lat="45.46439812899804" lon="9.251018780713851"><ele>113.66666666666666</ele><time>2026-04-11T08:00:18.999Z</time></trkpt><trkpt lat="45.4641995156201" lon="9.250981914329477"><ele>114.33333333333334</ele><time>2026-04-11T08:00:19.999Z</time></trkpt><trkpt lat="45.46401176655844" lon="9.250952828558926"><ele>115.0</ele><time>2026-04-11T08:00:20.999Z</time></trkpt><trkpt lat="45.46381055997156" lon="9.25093415304686"><ele>115.0</ele><time>2026-04-11T08:00:21.999Z</time></trkpt><trkpt lat="45.46360954069902" lon="9.250937219936754"><ele>115.0</ele><time>2026-04-11T08:00:22.999Z</time></trkpt><trkpt lat="45.46340720081718" lon="9.250940846079542"><ele>115.0</ele><time>2026-04-11T08:00:23.999Z</time></trkpt><trkpt lat="45.46319521487653" lon="9.250937644361619"><ele>115.0</ele><time>2026-04-11T08:00:24.999Z</time></trkpt><trkpt lat="45.46298081028186" lon="9.250941892494826"><ele>115.0</ele><time>2026-04-11T08:00:25.999Z</time></trkpt><trkpt lat="45.46276253503027" lon="9.250963209515264"><ele>115.0</ele><time>2026-04-11T08:00:26.999Z</time></trkpt><trkpt lat="45.46254348083271" lon="9.250985510470612"><ele>115.33333333333334</ele><time>2026-04-11T08:00:27.999Z</time></trkpt><trkpt lat="45.46232359526953" lon="9.25100597148518"><ele>115.66666666666666</ele><time>2026-04-11T08:00:28.999Z</time></trkpt><trkpt lat="45.46209981823067" lon="9.251024969703018"><ele>116.0</ele><time>2026-04-11T08:00:29.999Z</time></trkpt><trkpt lat="45.46187189446491" lon="9.251044739256834"><ele>116.0</ele><time>2026-04-11T08:00:30.999Z</time></trkpt><trkpt lat="45.461641742351084" lon="9.251067145499816"><ele>116.0</ele><time>2026-04-11T08:00:31.999Z</time></trkpt><trkpt lat="45.46141029900101" lon="9.251088674034106"><ele>116.5</ele><time>2026-04-11T08:00:32.999Z</time></trkpt><trkpt lat="45.461179056568874" lon="9.251106238941723"><ele>117.0</ele><time>2026-04-11T08:00:33.999Z</time></trkpt><trkpt lat="45.460948806882506" lon="9.25112723095439"><ele>117.0</ele><time>2026-04-11T08:00:34.999Z</time></trkpt><trkpt lat="45.46072330256337" lon="9.25114952973529"><ele>117.0</ele><time>2026-04-11T08:00:35.999Z</time></trkpt><trkpt lat="45.460503277570645" lon="9.25116961682385"><ele>117.0</ele><time>2026-04-11T08:00:36.999Z</time></trkpt><trkpt lat="45.46028265300095" lon="9.251187598614363"><ele>115.0</ele><time>2026-04-11T08:00:37.999Z</time></trkpt><trkpt lat="45.46005033757342" lon="9.251208155439151"><ele>113.0</ele><time>2026-04-11T08:00:38.999Z</time></trkpt><trkpt lat="45.45982150250642" lon="9.25124425347995"><ele>112.5</ele><time>2026-04-11T08:00:39.999Z</time></trkpt><trkpt lat="45.45958986858214" lon="9.251283256607795"><ele>112.0</ele><time>2026-04-11T08:00:40.999Z</time></trkpt><trkpt lat="45.45935261698084" lon="9.251326587980408"><ele>112.0</ele><time>2026-04-11T08:00:41.998Z</time></trkpt><trkpt lat="45.45910956426816" lon="9.25138887727702"><ele>112.0</ele><time>2026-04-11T08:00:42.998Z</time></trkpt><trkpt lat="45.45886557055481" lon="9.251462164293166"><ele>113.0</ele><time>2026-04-11T08:00:43.998Z</time></trkpt><trkpt lat="45.45862229958435" lon="9.25153941824046"><ele>114.0</ele><time>2026-04-11T08:00:44.998Z</time></trkpt><trkpt lat="45.45837807596745" lon="9.251621268962056"><ele>114.0</ele><time>2026-04-11T08:00:45.998Z</time></trkpt><trkpt lat="45.45813713950798" lon="9.251711846776141"><ele>114.0</ele><time>2026-04-11T08:00:46.998Z</time></trkpt><trkpt lat="45.45790522951883" lon="9.251816279428192"><ele>112.5</ele><time>2026-04-11T08:00:47.998Z</time></trkpt><trkpt lat="45.45768163901484" lon="9.25188902224338"><ele>111.0</ele><time>2026-04-11T08:00:48.998Z</time></trkpt><trkpt lat="45.45746972593241" lon="9.25201322172469"><ele>111.0</ele><time>2026-04-11T08:00:49.998Z</time></trkpt><trkpt lat="45.45725523247422" lon="9.252146446261392"><ele>111.0</ele><time>2026-04-11T08:00:50.998Z</time></trkpt><trkpt lat="45.45703955681832" lon="9.252279322762295"><ele>111.5</ele><time>2026-04-11T08:00:51.998Z</time></trkpt><trkpt lat="45.456824328288306" lon="9.252419904297085"><ele>112.0</ele><time>2026-04-11T08:00:52.998Z</time></trkpt><trkpt lat="45.45660706658626" lon="9.252565718040039"><ele>112.0</ele><time>2026-04-11T08:00:53.998Z</time></trkpt><trkpt lat="45.456397765732795" lon="9.252715463723215"><ele>112.0</ele><time>2026-04-11T08:00:54.998Z</time></trkpt><trkpt lat="45.45619191182326" lon="9.252887734102881"><ele>111.5</ele><time>2026-04-11T08:00:55.998Z</time></trkpt><trkpt lat="45.45598890879065" lon="9.253063647889885"><ele>111.0</ele><time>2026-04-11T08:00:56.998Z</time></trkpt><trkpt lat="45.45578523449469" lon="9.253244366140844"><ele>111.0</ele><time>2026-04-11T08:00:57.998Z</time></trkpt><trkpt lat="45.45558701543232" lon="9.253425474831266"><ele>111.0</ele><time>2026-04-11T08:00:58.998Z</time></trkpt><trkpt lat="45.45538157822206" lon="9.253603229381637"><ele>110.5</ele><time>2026-04-11T08:00:59.998Z</time></trkpt><trkpt lat="45.45517671882989" lon="9.253769115974979"><ele>110.0</ele><time>2026-04-11T08:01:00.998Z</time></trkpt><trkpt lat="45.454976719128084" lon="9.253942595559815"><ele>109.66666666666666</ele><time>2026-04-11T08:01:01.998Z</time></trkpt><trkpt lat="45.45479091700401" lon="9.254109884571447"><ele>109.33333333333334</ele><time>2026-04-11T08:01:02.998Z</time></trkpt><trkpt lat="45.45460263383652" lon="9.254266965186421"><ele>109.0</ele><time>2026-04-11T08:01:03.998Z</time></trkpt><trkpt lat="45.454411839643605" lon="9.254418373143812"><ele>109.0</ele><time>2026-04-11T08:01:04.998Z</time></trkpt><trkpt lat="45.45421787765702" lon="9.254573617360542"><ele>109.0</ele><time>2026-04-11T08:01:05.998Z</time></trkpt><trkpt lat="45.45402641008101" lon="9.25473691373559"><ele>109.0</ele><time>2026-04-11T08:01:06.998Z</time></trkpt><trkpt lat="45.45383196526833" lon="9.254899727620378"><ele>109.33333333333334</ele><time>2026-04-11T08:01:07.998Z</time></trkpt><trkpt lat="45.4536497821299" lon="9.255061795740062"><ele>109.66666666666666</ele><time>2026-04-11T08:01:08.998Z</time></trkpt><trkpt lat="45.453470384297006" lon="9.255210589281692"><ele>110.0</ele><time>2026-04-11T08:01:09.998Z</time></trkpt><trkpt lat="45.45329727052119" lon="9.255359641275817"><ele>110.0</ele><time>2026-04-11T08:01:10.998Z</time></trkpt><trkpt lat="45.4531167849847" lon="9.255503755374367"><ele>110.0</ele><time>2026-04-11T08:01:11.998Z</time></trkpt><trkpt lat="45.45293543198019" lon="9.255653203547157"><ele>110.0</ele><time>2026-04-11T08:01:12.998Z</time></trkpt><trkpt lat="45.45275047833718" lon="9.255807245005485"><ele>110.0</ele><time>2026-04-11T08:01:13.998Z</time></trkpt><trkpt lat="45.45256083253373" lon="9.255966329419431"><ele>110.0</ele><time>2026-04-11T08:01:14.998Z</time></trkpt><trkpt lat="45.45235733447072" lon="9.25613016362849"><ele>110.0</ele><time>2026-04-11T08:01:15.998Z</time></trkpt><trkpt lat="45.4521479296122" lon="9.256306219799967"><ele>110.0</ele><time>2026-04-11T08:01:16.998Z</time></trkpt><trkpt lat="45.45193270206726" lon="9.25648631737827"><ele>110.5</ele><time>2026-04-11T08:01:17.998Z</time></trkpt><trkpt lat="45.45171212898879" lon="9.256665219461217"><ele>111.0</ele><time>2026-04-11T08:01:18.998Z</time></trkpt><trkpt lat="45.45149270895983" lon="9.256846564127581"><ele>109.5</ele><time>2026-04-11T08:01:19.998Z</time></trkpt><trkpt lat="45.45127122327681" lon="9.25702594631784"><ele>108.0</ele><time>2026-04-11T08:01:20.998Z</time></trkpt><trkpt lat="45.45106041222284" lon="9.257203112424667"><ele>110.0</ele><time>2026-04-11T08:01:21.998Z</time></trkpt><trkpt lat="45.450840582899474" lon="9.25738615543406"><ele>112.0</ele><time>2026-04-11T08:01:22.998Z</time></trkpt><trkpt lat="45.450616600534794" lon="9.257568784775282"><ele>112.5</ele><time>2026-04-11T08:01:23.998Z</time></trkpt><trkpt lat="45.45038452048345" lon="9.257739213779438"><ele>113.0</ele><time>2026-04-11T08:01:24.998Z</time></trkpt><trkpt lat="45.45014508423777" lon="9.257899652120924"><ele>113.0</ele><time>2026-04-11T08:01:25.998Z</time></trkpt><trkpt lat="45.44989930175703" lon="9.258042603901837"><ele>113.0</ele><time>2026-04-11T08:01:26.998Z</time></trkpt><trkpt lat="45.44965059450919" lon="9.258169901259997"><ele>111.0</ele><time>2026-04-11T08:01:27.998Z</time></trkpt><trkpt lat="45.44940689488721" lon="9.258281785590373"><ele>109.0</ele><time>2026-04-11T08:01:28.998Z</time></trkpt><trkpt lat="45.44916136252701" lon="9.258382445376029"><ele>109.0</ele><time>2026-04-11T08:01:29.998Z</time></trkpt><trkpt lat="45.448921007255" lon="9.258470983093954"><ele>109.0</ele><time>2026-04-11T08:01:30.998Z</time></trkpt><trkpt lat="45.44867821241952" lon="9.258549964303079"><ele>108.0</ele><time>2026-04-11T08:01:31.998Z</time></trkpt><trkpt lat="45.448431069143616" lon="9.2586080880248"><ele>107.0</ele><time>2026-04-11T08:01:32.999Z</time></trkpt><trkpt lat="45.44818338577886" lon="9.258653243121907"><ele>105.5</ele><time>2026-04-11T08:01:33.999Z</time></trkpt><trkpt lat="45.447935927142545" lon="9.258684994693475"><ele>104.0</ele><time>2026-04-11T08:01:34.999Z</time></trkpt><trkpt lat="45.447688838826934" lon="9.258692057692942"><ele>104.0</ele><time>2026-04-11T08:01:35.999Z</time></trkpt><trkpt lat="45.44744117198282" lon="9.258687373610998"><ele>104.0</ele><time>2026-04-11T08:01:36.999Z</time></trkpt><trkpt lat="45.447194731164764" lon="9.258674128982134"><ele>107.5</ele><time>2026-04-11T08:01:37.999Z</time></trkpt><trkpt lat="45.446947879222385" lon="9.258655049654152"><ele>111.0</ele><time>2026-04-11T08:01:38.999Z</time></trkpt><trkpt lat="45.44670394650819" lon="9.2586165142322"><ele>111.0</ele><time>2026-04-11T08:01:39.999Z</time></trkpt><trkpt lat="45.44646115046267" lon="9.25856205346098"><ele>111.0</ele><time>2026-04-11T08:01:40.999Z</time></trkpt><trkpt lat="45.44621812440872" lon="9.258498924354937"><ele>106.0</ele><time>2026-04-11T08:01:41.999Z</time></trkpt><trkpt lat="45.44597232472846" lon="9.258430783509265"><ele>101.0</ele><time>2026-04-11T08:01:42.999Z</time></trkpt><trkpt lat="45.4457307567278" lon="9.258356665167316"><ele>101.0</ele><time>2026-04-11T08:01:43.999Z</time></trkpt><trkpt lat="45.445482785688625" lon="9.258283860049792"><ele>101.0</ele><time>2026-04-11T08:01:44.999Z</time></trkpt><trkpt lat="45.44523979790158" lon="9.258215538204107"><ele>98.0</ele><time>2026-04-11T08:01:45.999Z</time></trkpt><trkpt lat="45.44499184458828" lon="9.258146603564008"><ele>95.0</ele><time>2026-04-11T08:01:46.999Z</time></trkpt><trkpt lat="45.44475137641944" lon="9.25807215062805"><ele>94.5</ele><time>2026-04-11T08:01:47.999Z</time></trkpt><trkpt lat="45.44452417439182" lon="9.258005076165212"><ele>94.0</ele><time>2026-04-11T08:01:48.999Z</time></trkpt><trkpt lat="45.444297940526084" lon="9.25794698388866"><ele>94.0</ele><time>2026-04-11T08:01:49.999Z</time></trkpt><trkpt lat="45.44406691805168" lon="9.257889351458275"><ele>94.0</ele><time>2026-04-11T08:01:50.999Z</time></trkpt><trkpt lat="45.44383667202164" lon="9.257824591121574"><ele>95.5</ele><time>2026-04-11T08:01:51.999Z</time></trkpt><trkpt lat="45.443609632443454" lon="9.257759828243035"><ele>97.0</ele><time>2026-04-11T08:01:52.999Z</time></trkpt><trkpt lat="45.443387171805725" lon="9.25770140577227"><ele>97.0</ele><time>2026-04-11T08:01:53.999Z</time></trkpt><trkpt lat="45.44316698208068" lon="9.257644978790248"><ele>97.0</ele><time>2026-04-11T08:01:54.999Z</time></trkpt><trkpt lat="45.44295176095199" lon="9.257588488936042"><ele>97.0</ele><time>2026-04-11T08:01:55.999Z</time></trkpt><trkpt lat="45.44273787918711" lon="9.257527196878966"><ele>100.5</ele><time>2026-04-11T08:01:56.999Z</time></trkpt><trkpt lat="45.44251824168447" lon="9.257460218925942"><ele>104.0</ele><time>2026-04-11T08:01:57.999Z</time></trkpt><trkpt lat="45.44228881300896" lon="9.257395755477704"><ele>104.0</ele><time>2026-04-11T08:01:58.999Z</time></trkpt><trkpt lat="45.44205320418693" lon="9.257326064091849"><ele>104.0</ele><time>2026-04-11T08:01:59.999Z</time></trkpt><trkpt lat="45.44182086322082" lon="9.257251659487013"><ele>104.0</ele><time>2026-04-11T08:02:00.999Z</time></trkpt><trkpt lat="45.441582857563134" lon="9.257174471856953"><ele>104.0</ele><time>2026-04-11T08:02:01.999Z</time></trkpt><trkpt lat="45.44134632312116" lon="9.257095997834535"><ele>104.0</ele><time>2026-04-11T08:02:02.999Z</time></trkpt><trkpt lat="45.44110995087654" lon="9.257015857421125"><ele>104.0</ele><time>2026-04-11T08:02:03.999Z</time></trkpt><trkpt lat="45.44086408525276" lon="9.256943752824162"><ele>104.0</ele><time>2026-04-11T08:02:04.999Z</time></trkpt><trkpt lat="45.44062100488728" lon="9.256866702737717"><ele>104.0</ele><time>2026-04-11T08:02:05.999Z</time></trkpt><trkpt lat="45.44037302542487" lon="9.25679341469524"><ele>104.5</ele><time>2026-04-11T08:02:06.999Z</time></trkpt><trkpt lat="45.440128663939284" lon="9.256717918867082"><ele>105.0</ele><time>2026-04-11T08:02:07.999Z</time></trkpt><trkpt lat="45.43988333330065" lon="9.256632999047932"><ele>105.0</ele><time>2026-04-11T08:02:08.999Z</time></trkpt><trkpt lat="45.439643454038155" lon="9.256561541458717"><ele>105.0</ele><time>2026-04-11T08:02:09.999Z</time></trkpt><trkpt lat="45.439420175993824" lon="9.256493027713827"><ele>105.0</ele><time>2026-04-11T08:02:10.999Z</time></trkpt><trkpt lat="45.43920967883847" lon="9.256421256171231"><ele>105.0</ele><time>2026-04-11T08:02:11.999Z</time></trkpt><trkpt lat="45.439004337382784" lon="9.256356617167894"><ele>105.0</ele><time>2026-04-11T08:02:12.999Z</time></trkpt><trkpt lat="45.43879623745687" lon="9.256315777487776"><ele>105.0</ele><time>2026-04-11T08:02:13.999Z</time></trkpt><trkpt lat="45.43859981401651" lon="9.256216529558936"><ele>105.0</ele><time>2026-04-11T08:02:14.999Z</time></trkpt><trkpt lat="45.4384159660572" lon="9.25613708226995"><ele>105.0</ele><time>2026-04-11T08:02:15.999Z</time></trkpt><trkpt lat="45.43824319869289" lon="9.256057038999815"><ele>105.0</ele><time>2026-04-11T08:02:16.999Z</time></trkpt><trkpt lat="45.43808408825952" lon="9.255968335968456"><ele>105.0</ele><time>2026-04-11T08:02:17.999Z</time></trkpt><trkpt lat="45.437932317216074" lon="9.255873770261978"><ele>105.0</ele><time>2026-04-11T08:02:18.999Z</time></trkpt><trkpt lat="45.43780092254846" lon="9.255761144333164"><ele>105.5</ele><time>2026-04-11T08:02:19.999Z</time></trkpt><trkpt lat="45.43769597191455" lon="9.255620817766664"><ele>106.0</ele><time>2026-04-11T08:02:20.999Z</time></trkpt><trkpt lat="45.43761073814126" lon="9.255465192140376"><ele>106.5</ele><time>2026-04-11T08:02:21.999Z</time></trkpt><trkpt lat="45.43753643313737" lon="9.255306301602053"><ele>107.0</ele><time>2026-04-11T08:02:22.999Z</time></trkpt><trkpt lat="45.43746876791095" lon="9.255133024491402"><ele>107.0</ele><time>2026-04-11T08:02:23.999Z</time></trkpt><trkpt lat="45.437402807193685" lon="9.25494740208664"><ele>107.0</ele><time>2026-04-11T08:02:24.999Z</time></trkpt><trkpt lat="45.43734555216098" lon="9.254771169452667"><ele>107.0</ele><time>2026-04-11T08:02:25.999Z</time></trkpt><trkpt lat="45.43728483690926" lon="9.254600044994996"><ele>107.0</ele><time>2026-04-11T08:02:26.999Z</time></trkpt><trkpt lat="45.43722709691401" lon="9.254421813224004"><ele>106.25</ele><time>2026-04-11T08:02:27.999Z</time></trkpt><trkpt lat="45.437166385528286" lon="9.254248408642383"><ele>105.5</ele><time>2026-04-11T08:02:28.999Z</time></trkpt><trkpt lat="45.4371027371566" lon="9.254074673073315"><ele>104.75</ele><time>2026-04-11T08:02:29.999Z</time></trkpt><trkpt lat="45.4370463761907" lon="9.25389198686884"><ele>104.0</ele><time>2026-04-11T08:02:30.999Z</time></trkpt><trkpt lat="45.43699800686145" lon="9.253714257410598"><ele>103.75</ele><time>2026-04-11T08:02:31.999Z</time></trkpt><trkpt lat="45.43695643918322" lon="9.25354539276659"><ele>103.5</ele><time>2026-04-11T08:02:32.999Z</time></trkpt><trkpt lat="45.43691635483741" lon="9.253382096514214"><ele>103.25</ele><time>2026-04-11T08:02:33.999Z</time></trkpt><trkpt lat="45.43688898606134" lon="9.253219782468996"><ele>103.0</ele><time>2026-04-11T08:02:34.999Z</time></trkpt><trkpt lat="45.43687129991108" lon="9.253057867033307"><ele>103.0</ele><time>2026-04-11T08:02:35.999Z</time></trkpt><trkpt lat="45.43685993796063" lon="9.25289195837193"><ele>103.0</ele><time>2026-04-11T08:02:36.999Z</time></trkpt><trkpt lat="45.43684730660816" lon="9.252710697954548"><ele>103.0</ele><time>2026-04-11T08:02:37.999Z</time></trkpt><trkpt lat="45.43684951323921" lon="9.25252747932045"><ele>103.0</ele><time>2026-04-11T08:02:38.999Z</time></trkpt><trkpt lat="45.43685737856047" lon="9.252343902944402"><ele>102.75</ele><time>2026-04-11T08:02:39.999Z</time></trkpt><trkpt lat="45.436869984130674" lon="9.252158665228835"><ele>102.5</ele><time>2026-04-11T08:02:40.999Z</time></trkpt><trkpt lat="45.436889627204565" lon="9.251969416638149"><ele>102.25</ele><time>2026-04-11T08:02:41.999Z</time></trkpt><trkpt lat="45.43691689007343" lon="9.251788966657134"><ele>102.0</ele><time>2026-04-11T08:02:42.999Z</time></trkpt><trkpt lat="45.43694469690482" lon="9.251627570345395"><ele>102.0</ele><time>2026-04-11T08:02:43.999Z</time></trkpt><trkpt lat="45.436972608304416" lon="9.251459773927648"><ele>102.0</ele><time>2026-04-11T08:02:44.999Z</time></trkpt><trkpt lat="45.43699429460622" lon="9.251280670813989"><ele>102.0</ele><time>2026-04-11T08:02:45.999Z</time></trkpt><trkpt lat="45.43701633188695" lon="9.251093579817937"><ele>102.0</ele><time>2026-04-11T08:02:46.999Z</time></trkpt><trkpt lat="45.43703207466379" lon="9.250894446066734"><ele>102.0</ele><time>2026-04-11T08:02:47.999Z</time></trkpt><trkpt lat="45.437049085196186" lon="9.250692704851945"><ele>102.0</ele><time>2026-04-11T08:02:48.998Z</time></trkpt><trkpt lat="45.4370824828992" lon="9.250493767062109"><ele>102.0</ele><time>2026-04-11T08:02:49.998Z</time></trkpt><trkpt lat="45.43712835295848" lon="9.25030018412031"><ele>102.0</ele><time>2026-04-11T08:02:50.998Z</time></trkpt><trkpt lat="45.43717853153139" lon="9.250113876541896"><ele>103.0</ele><time>2026-04-11T08:02:51.998Z</time></trkpt><trkpt lat="45.437219460331505" lon="9.249940101208368"><ele>104.0</ele><time>2026-04-11T08:02:52.998Z</time></trkpt><trkpt lat="45.43726106440872" lon="9.249787841254737"><ele>104.99999999999999</ele><time>2026-04-11T08:02:53.998Z</time></trkpt><trkpt lat="45.43730187525468" lon="9.249688299070193"><ele>106.0</ele><time>2026-04-11T08:02:54.998Z</time></trkpt><trkpt lat="45.43733861255473" lon="9.24960816997254"><ele>107.0</ele><time>2026-04-11T08:02:55.998Z</time></trkpt><trkpt lat="45.43737243113902" lon="9.249528684813056"><ele>107.19999999999999</ele><time>2026-04-11T08:02:56.998Z</time></trkpt><trkpt lat="45.437423463335236" lon="9.249374679479288"><ele>107.39999999999999</ele><time>2026-04-11T08:02:58.998Z</time></trkpt><trkpt lat="45.4374959590827" lon="9.249237007706512"><ele>107.60000000000001</ele><time>2026-04-11T08:03:00.998Z</time></trkpt><trkpt lat="45.43756052255178" lon="9.249192636353133"><ele>107.80000000000001</ele><time>2026-04-11T08:03:01.998Z</time></trkpt><trkpt lat="45.43762493587472" lon="9.24915270101158"><ele>108.0</ele><time>2026-04-11T08:03:02.998Z</time></trkpt><trkpt lat="45.43768607754058" lon="9.249097975833084"><ele>108.0</ele><time>2026-04-11T08:03:03.998Z</time></trkpt><trkpt lat="45.43773611741244" lon="9.249016652062007"><ele>108.00000000000001</ele><time>2026-04-11T08:03:04.998Z</time></trkpt><trkpt lat="45.43777694352741" lon="9.248909229931519"><ele>108.00000000000001</ele><time>2026-04-11T08:03:05.998Z</time></trkpt><trkpt lat="45.43779594892691" lon="9.248770923990381"><ele>108.0</ele><time>2026-04-11T08:03:06.998Z</time></trkpt><trkpt lat="45.43779196632995" lon="9.248627051633987"><ele>108.0</ele><time>2026-04-11T08:03:07.998Z</time></trkpt><trkpt lat="45.437753901432316" lon="9.248483186769509"><ele>108.0</ele><time>2026-04-11T08:03:08.998Z</time></trkpt><trkpt lat="45.43767715858563" lon="9.24835302009113"><ele>108.0</ele><time>2026-04-11T08:03:09.998Z</time></trkpt><trkpt lat="45.43758026632164" lon="9.248265546994876"><ele>108.0</ele><time>2026-04-11T08:03:10.998Z</time></trkpt><trkpt lat="45.43746896738308" lon="9.248226524348755"><ele>108.0</ele><time>2026-04-11T08:03:11.998Z</time></trkpt><trkpt lat="45.437352173943175" lon="9.248197106237075"><ele>108.0</ele><time>2026-04-11T08:03:12.998Z</time></trkpt><trkpt lat="45.43725707265177" lon="9.248134942651802"><ele>108.00000000000001</ele><time>2026-04-11T08:03:13.998Z</time></trkpt><trkpt lat="45.43718025060315" lon="9.248029893229704"><ele>108.00000000000001</ele><time>2026-04-11T08:03:14.998Z</time></trkpt><trkpt lat="45.43712624841558" lon="9.24788748088906"><ele>108.0</ele><time>2026-04-11T08:03:15.998Z</time></trkpt><trkpt lat="45.43709335520005" lon="9.24772883320714"><ele>108.0</ele><time>2026-04-11T08:03:16.998Z</time></trkpt><trkpt lat="45.43704198527852" lon="9.247570818356442"><ele>108.25</ele><time>2026-04-11T08:03:17.998Z</time></trkpt><trkpt lat="45.43697434761468" lon="9.247418919074779"><ele>108.5</ele><time>2026-04-11T08:03:18.998Z</time></trkpt><trkpt lat="45.43691373053173" lon="9.24725170157449"><ele>108.75</ele><time>2026-04-11T08:03:19.998Z</time></trkpt><trkpt lat="45.43686238067858" lon="9.24709406860047"><ele>109.0</ele><time>2026-04-11T08:03:20.998Z</time></trkpt><trkpt lat="45.43681428423846" lon="9.246942686329511"><ele>109.0</ele><time>2026-04-11T08:03:21.998Z</time></trkpt><trkpt lat="45.43675955740208" lon="9.246779152505809"><ele>109.0</ele><time>2026-04-11T08:03:22.998Z</time></trkpt><trkpt lat="45.43669710390289" lon="9.246623337055583"><ele>109.0</ele><time>2026-04-11T08:03:23.998Z</time></trkpt><trkpt lat="45.436633210142524" lon="9.246471525131152"><ele>109.0</ele><time>2026-04-11T08:03:24.998Z</time></trkpt><trkpt lat="45.436562511613474" lon="9.246300619557141"><ele>108.75</ele><time>2026-04-11T08:03:25.998Z</time></trkpt><trkpt lat="45.43650281696783" lon="9.246143900854307"><ele>108.5</ele><time>2026-04-11T08:03:26.998Z</time></trkpt><trkpt lat="45.43643455338876" lon="9.245979502256368"><ele>108.25</ele><time>2026-04-11T08:03:27.998Z</time></trkpt><trkpt lat="45.43637407435497" lon="9.245811212074992"><ele>108.0</ele><time>2026-04-11T08:03:28.998Z</time></trkpt><trkpt lat="45.436312001347105" lon="9.245637293089633"><ele>108.0</ele><time>2026-04-11T08:03:29.998Z</time></trkpt><trkpt lat="45.43624711015629" lon="9.24546931628029"><ele>108.0</ele><time>2026-04-11T08:03:30.998Z</time></trkpt><trkpt lat="45.436191214096795" lon="9.245308221685393"><ele>108.0</ele><time>2026-04-11T08:03:31.998Z</time></trkpt><trkpt lat="45.43612734193527" lon="9.245144968078558"><ele>108.0</ele><time>2026-04-11T08:03:32.998Z</time></trkpt><trkpt lat="45.43606332270272" lon="9.244979057863794"><ele>108.0</ele><time>2026-04-11T08:03:33.998Z</time></trkpt><trkpt lat="45.43600037438695" lon="9.24481937291418"><ele>108.0</ele><time>2026-04-11T08:03:34.998Z</time></trkpt><trkpt lat="45.43593214720856" lon="9.24466285977243"><ele>108.0</ele><time>2026-04-11T08:03:35.998Z</time></trkpt><trkpt lat="45.435875176976744" lon="9.244523549473683"><ele>108.0</ele><time>2026-04-11T08:03:36.998Z</time></trkpt><trkpt lat="45.435817339315" lon="9.244382423832526"><ele>107.75</ele><time>2026-04-11T08:03:37.998Z</time></trkpt><trkpt lat="45.43577670548479" lon="9.244228362607886"><ele>107.5</ele><time>2026-04-11T08:03:38.999Z</time></trkpt><trkpt lat="45.43572509437942" lon="9.244067054732687"><ele>107.25</ele><time>2026-04-11T08:03:39.999Z</time></trkpt><trkpt lat="45.435634126332836" lon="9.243868827051909"><ele>107.0</ele><time>2026-04-11T08:03:40.999Z</time></trkpt><trkpt lat="45.43553497319084" lon="9.24365825513954"><ele>106.75</ele><time>2026-04-11T08:03:41.999Z</time></trkpt><trkpt lat="45.43544937158972" lon="9.243433445932281"><ele>106.5</ele><time>2026-04-11T08:03:42.999Z</time></trkpt><trkpt lat="45.435384880054194" lon="9.24328979999216"><ele>106.25</ele><time>2026-04-11T08:03:44.999Z</time></trkpt><trkpt lat="45.43532782213793" lon="9.24312738277159"><ele>106.0</ele><time>2026-04-11T08:03:45.999Z</time></trkpt><trkpt lat="45.4352670460358" lon="9.242975432774971"><ele>106.4</ele><time>2026-04-11T08:03:46.999Z</time></trkpt><trkpt lat="45.43521447105339" lon="9.242820610483324"><ele>106.8</ele><time>2026-04-11T08:03:47.999Z</time></trkpt><trkpt lat="45.43516449048023" lon="9.242679343035281"><ele>107.20000000000002</ele><time>2026-04-11T08:03:48.999Z</time></trkpt><trkpt lat="45.435117050980075" lon="9.242548525900315"><ele>107.60000000000001</ele><time>2026-04-11T08:03:49.999Z</time></trkpt><trkpt lat="45.435077721156134" lon="9.24243421717948"><ele>108.0</ele><time>2026-04-11T08:03:50.999Z</time></trkpt><trkpt lat="45.43504405749001" lon="9.242338828076589"><ele>108.0</ele><time>2026-04-11T08:03:51.999Z</time></trkpt><trkpt lat="45.43501348926883" lon="9.242255724180694"><ele>108.00000000000001</ele><time>2026-04-11T08:03:52.999Z</time></trkpt><trkpt lat="45.43496487767117" lon="9.242121200102336"><ele>108.00000000000001</ele><time>2026-04-11T08:03:54.999Z</time></trkpt><trkpt lat="45.43492191027474" lon="9.242010711036077"><ele>108.0</ele><time>2026-04-11T08:03:56.999Z</time></trkpt><trkpt lat="45.43486111576719" lon="9.241869136084873"><ele>108.0</ele><time>2026-04-11T08:04:16.999Z</time></trkpt><trkpt lat="45.434815456374835" lon="9.241762841143363"><ele>108.0</ele><time>2026-04-11T08:04:17.999Z</time></trkpt><trkpt lat="45.434764042597465" lon="9.241635542685676"><ele>108.00000000000001</ele><time>2026-04-11T08:04:18.999Z</time></trkpt><trkpt lat="45.434709023026045" lon="9.241513108060175"><ele>108.00000000000001</ele><time>2026-04-11T08:04:19.999Z</time></trkpt><trkpt lat="45.434668335600335" lon="9.241396258236177"><ele>108.0</ele><time>2026-04-11T08:04:20.999Z</time></trkpt><trkpt lat="45.4346175505517" lon="9.241271949720863"><ele>108.0</ele><time>2026-04-11T08:04:21.999Z</time></trkpt><trkpt lat="45.434574057679946" lon="9.241111082945784"><ele>106.75</ele><time>2026-04-11T08:04:22.999Z</time></trkpt><trkpt lat="45.43449432901167" lon="9.240983085699973"><ele>105.5</ele><time>2026-04-11T08:04:23.999Z</time></trkpt><trkpt lat="45.43441692093563" lon="9.240844718509146"><ele>104.25</ele><time>2026-04-11T08:04:24.999Z</time></trkpt><trkpt lat="45.43431864663026" lon="9.240742026748563"><ele>103.0</ele><time>2026-04-11T08:04:25.999Z</time></trkpt><trkpt lat="45.43419917796627" lon="9.240701768593647"><ele>103.0</ele><time>2026-04-11T08:04:26.999Z</time></trkpt><trkpt lat="45.43406504443274" lon="9.240683588541739"><ele>103.0</ele><time>2026-04-11T08:04:27.999Z</time></trkpt><trkpt lat="45.4339243533489" lon="9.240651313924278"><ele>103.0</ele><time>2026-04-11T08:04:28.999Z</time></trkpt><trkpt lat="45.433788303732186" lon="9.240609516414532"><ele>103.0</ele><time>2026-04-11T08:04:29.999Z</time></trkpt><trkpt lat="45.43364922432662" lon="9.24055905187826"><ele>103.5</ele><time>2026-04-11T08:04:30.999Z</time></trkpt><trkpt lat="45.43351225138844" lon="9.240507707240956"><ele>104.0</ele><time>2026-04-11T08:04:31.999Z</time></trkpt><trkpt lat="45.433380351491685" lon="9.240460945229422"><ele>104.5</ele><time>2026-04-11T08:04:32.999Z</time></trkpt><trkpt lat="45.433263636407375" lon="9.240424442134966"><ele>105.0</ele><time>2026-04-11T08:04:33.999Z</time></trkpt><trkpt lat="45.433160399204155" lon="9.240388436900009"><ele>105.0</ele><time>2026-04-11T08:04:34.999Z</time></trkpt><trkpt lat="45.43307026050846" lon="9.24035919850965"><ele>105.0</ele><time>2026-04-11T08:04:35.999Z</time></trkpt><trkpt lat="45.433005943427354" lon="9.240337279003274"><ele>105.0</ele><time>2026-04-11T08:04:36.999Z</time></trkpt><trkpt lat="45.432915681375185" lon="9.24030228429502"><ele>105.0</ele><time>2026-04-11T08:04:38.999Z</time></trkpt><trkpt lat="45.432837441231" lon="9.240279152755683"><ele>105.0</ele><time>2026-04-11T08:04:40.999Z</time></trkpt><trkpt lat="45.43276906043097" lon="9.240253630994392"><ele>105.0</ele><time>2026-04-11T08:04:42.999Z</time></trkpt><trkpt lat="45.43265148823872" lon="9.240205330900144"><ele>105.16666666666667</ele><time>2026-04-11T08:04:44.999Z</time></trkpt><trkpt lat="45.43258387777925" lon="9.240187951646778"><ele>105.33333333333334</ele><time>2026-04-11T08:04:45.999Z</time></trkpt><trkpt lat="45.43251748602127" lon="9.24021199927918"><ele>105.5</ele><time>2026-04-11T08:04:46.999Z</time></trkpt><trkpt lat="45.43245764323026" lon="9.240295546680253"><ele>105.66666666666667</ele><time>2026-04-11T08:04:47.999Z</time></trkpt><trkpt lat="45.43241474920915" lon="9.240408992296112"><ele>105.83333333333334</ele><time>2026-04-11T08:04:48.999Z</time></trkpt><trkpt lat="45.432372948608815" lon="9.240547667105401"><ele>106.0</ele><time>2026-04-11T08:04:49.999Z</time></trkpt><trkpt lat="45.43233767585273" lon="9.240673344144689"><ele>106.0</ele><time>2026-04-11T08:04:50.999Z</time></trkpt><trkpt lat="45.43232387796481" lon="9.240789693241943"><ele>106.0</ele><time>2026-04-11T08:04:51.999Z</time></trkpt><trkpt lat="45.432320250453145" lon="9.240893525407065"><ele>106.0</ele><time>2026-04-11T08:04:52.999Z</time></trkpt><trkpt lat="45.43229053397269" lon="9.241076778213388"><ele>106.0</ele><time>2026-04-11T08:04:54.999Z</time></trkpt><trkpt lat="45.43223329366552" lon="9.241180860733333"><ele>106.0</ele><time>2026-04-11T08:04:55.999Z</time></trkpt><trkpt lat="45.4321716503801" lon="9.241288071261318"><ele>106.6</ele><time>2026-04-11T08:04:56.999Z</time></trkpt><trkpt lat="45.43212447303298" lon="9.24139354715166"><ele>107.19999999999999</ele><time>2026-04-11T08:04:57.999Z</time></trkpt><trkpt lat="45.43207049706971" lon="9.241513341771897"><ele>107.80000000000001</ele><time>2026-04-11T08:04:58.999Z</time></trkpt><trkpt lat="45.43201191301115" lon="9.24163836394642"><ele>108.4</ele><time>2026-04-11T08:04:59.999Z</time></trkpt><trkpt lat="45.431952201076655" lon="9.241767613074718"><ele>109.0</ele><time>2026-04-11T08:05:00.999Z</time></trkpt><trkpt lat="45.43189185735845" lon="9.241897878500012"><ele>109.2</ele><time>2026-04-11T08:05:01.999Z</time></trkpt><trkpt lat="45.43182999112144" lon="9.24202498362396"><ele>109.4</ele><time>2026-04-11T08:05:02.999Z</time></trkpt><trkpt lat="45.431766780373145" lon="9.242145660916531"><ele>109.6</ele><time>2026-04-11T08:05:03.999Z</time></trkpt><trkpt lat="45.43171116983469" lon="9.242270122727529"><ele>109.8</ele><time>2026-04-11T08:05:04.999Z</time></trkpt><trkpt lat="45.431656498016864" lon="9.242386558700034"><ele>110.0</ele><time>2026-04-11T08:05:05.999Z</time></trkpt><trkpt lat="45.43161063155079" lon="9.24249091826269"><ele>109.66666666666666</ele><time>2026-04-11T08:05:06.999Z</time></trkpt><trkpt lat="45.43156751415544" lon="9.242577821232858"><ele>109.33333333333333</ele><time>2026-04-11T08:05:07.999Z</time></trkpt><trkpt lat="45.43152516547637" lon="9.242655146580596"><ele>109.0</ele><time>2026-04-11T08:05:08.999Z</time></trkpt><trkpt lat="45.43148057228714" lon="9.242750140502173"><ele>108.66666666666666</ele><time>2026-04-11T08:05:09.999Z</time></trkpt><trkpt lat="45.43143404520635" lon="9.242858156450698"><ele>108.33333333333333</ele><time>2026-04-11T08:05:10.999Z</time></trkpt><trkpt lat="45.43138566425141" lon="9.242979176026754"><ele>108.0</ele><time>2026-04-11T08:05:11.998Z</time></trkpt><trkpt lat="45.431319467893296" lon="9.243092652275307"><ele>108.60000000000001</ele><time>2026-04-11T08:05:12.998Z</time></trkpt><trkpt lat="45.43127506802558" lon="9.24321688340479"><ele>109.20000000000002</ele><time>2026-04-11T08:05:13.998Z</time></trkpt><trkpt lat="45.43121689599163" lon="9.243324842503963"><ele>109.8</ele><time>2026-04-11T08:05:14.998Z</time></trkpt><trkpt lat="45.43116588771076" lon="9.243435432930974"><ele>110.4</ele><time>2026-04-11T08:05:15.998Z</time></trkpt><trkpt lat="45.431120511550965" lon="9.243539315892841"><ele>111.0</ele><time>2026-04-11T08:05:16.998Z</time></trkpt><trkpt lat="45.43107226858096" lon="9.243646839238213"><ele>111.0</ele><time>2026-04-11T08:05:17.998Z</time></trkpt><trkpt lat="45.43102268894227" lon="9.243750988899317"><ele>111.0</ele><time>2026-04-11T08:05:18.998Z</time></trkpt><trkpt lat="45.43097474460832" lon="9.24383220468908"><ele>111.0</ele><time>2026-04-11T08:05:19.998Z</time></trkpt><trkpt lat="45.43093962626659" lon="9.243918896017123"><ele>111.0</ele><time>2026-04-11T08:05:20.998Z</time></trkpt><trkpt lat="45.43086803888918" lon="9.24405794519984"><ele>111.0</ele><time>2026-04-11T08:05:22.998Z</time></trkpt><trkpt lat="45.43080091271657" lon="9.244194246830794"><ele>111.16666666666667</ele><time>2026-04-11T08:05:24.998Z</time></trkpt><trkpt lat="45.43076782082092" lon="9.244276754914"><ele>111.33333333333334</ele><time>2026-04-11T08:05:25.998Z</time></trkpt><trkpt lat="45.4307264870466" lon="9.244367293284741"><ele>111.5</ele><time>2026-04-11T08:05:26.998Z</time></trkpt><trkpt lat="45.43068364057239" lon="9.244465094932092"><ele>111.66666666666667</ele><time>2026-04-11T08:05:27.998Z</time></trkpt><trkpt lat="45.430630634545025" lon="9.244550637341796"><ele>111.83333333333334</ele><time>2026-04-11T08:05:28.998Z</time></trkpt><trkpt lat="45.43058543146849" lon="9.244667868948468"><ele>112.0</ele><time>2026-04-11T08:05:29.998Z</time></trkpt><trkpt lat="45.43052734301492" lon="9.244768762464318"><ele>111.50000000000001</ele><time>2026-04-11T08:05:30.998Z</time></trkpt><trkpt lat="45.430480478809706" lon="9.244874429380461"><ele>111.0</ele><time>2026-04-11T08:05:31.998Z</time></trkpt><trkpt lat="45.4304391680569" lon="9.244971969528834"><ele>110.5</ele><time>2026-04-11T08:05:32.998Z</time></trkpt><trkpt lat="45.43039465430373" lon="9.24506913868254"><ele>110.0</ele><time>2026-04-11T08:05:33.998Z</time></trkpt><trkpt lat="45.4303449773001" lon="9.245161778749532"><ele>109.50000000000001</ele><time>2026-04-11T08:05:34.998Z</time></trkpt><trkpt lat="45.43029107241042" lon="9.24525769907433"><ele>109.0</ele><time>2026-04-11T08:05:35.998Z</time></trkpt><trkpt lat="45.4302279695439" lon="9.245350870222085"><ele>109.0</ele><time>2026-04-11T08:05:36.998Z</time></trkpt><trkpt lat="45.43016603726673" lon="9.245457734051103"><ele>109.0</ele><time>2026-04-11T08:05:37.998Z</time></trkpt><trkpt lat="45.43011068762754" lon="9.245570143410069"><ele>109.0</ele><time>2026-04-11T08:05:38.998Z</time></trkpt><trkpt lat="45.43005399764776" lon="9.245691067273759"><ele>109.0</ele><time>2026-04-11T08:05:39.998Z</time></trkpt><trkpt lat="45.4300043057175" lon="9.245804234566188"><ele>109.0</ele><time>2026-04-11T08:05:40.998Z</time></trkpt><trkpt lat="45.429959946810825" lon="9.245900383335105"><ele>108.83333333333334</ele><time>2026-04-11T08:05:41.998Z</time></trkpt><trkpt lat="45.42991663251121" lon="9.245985459318579"><ele>108.66666666666667</ele><time>2026-04-11T08:05:42.998Z</time></trkpt><trkpt lat="45.42986419486165" lon="9.24605713793879"><ele>108.5</ele><time>2026-04-11T08:05:43.998Z</time></trkpt><trkpt lat="45.4297902925964" lon="9.246103983090263"><ele>108.33333333333334</ele><time>2026-04-11T08:05:44.999Z</time></trkpt><trkpt lat="45.42972371628824" lon="9.246142662502763"><ele>108.16666666666667</ele><time>2026-04-11T08:05:45.999Z</time></trkpt><trkpt lat="45.42961098943894" lon="9.246144443907488"><ele>108.0</ele><time>2026-04-11T08:05:46.999Z</time></trkpt><trkpt lat="45.429578426894" lon="9.2459297049261"><ele>108.0</ele><time>2026-04-11T08:05:47.999Z</time></trkpt><trkpt lat="45.42954788554639" lon="9.245786039564793"><ele>108.00000000000001</ele><time>2026-04-11T08:05:48.999Z</time></trkpt><trkpt lat="45.42954559342321" lon="9.245639835891424"><ele>108.00000000000001</ele><time>2026-04-11T08:05:49.999Z</time></trkpt><trkpt lat="45.42951942379224" lon="9.245504725674918"><ele>108.0</ele><time>2026-04-11T08:05:50.999Z</time></trkpt><trkpt lat="45.429464017033666" lon="9.245381711920121"><ele>108.0</ele><time>2026-04-11T08:05:52Z</time></trkpt><trkpt lat="45.42939621186465" lon="9.245274235824134"><ele>108.2</ele><time>2026-04-11T08:05:52.999Z</time></trkpt><trkpt lat="45.429339895397064" lon="9.245157915175046"><ele>108.4</ele><time>2026-04-11T08:05:54Z</time></trkpt><trkpt lat="45.42933334964982" lon="9.245009295214102"><ele>108.60000000000001</ele><time>2026-04-11T08:05:55Z</time></trkpt><trkpt lat="45.42937403724001" lon="9.244864208813995"><ele>108.80000000000001</ele><time>2026-04-11T08:05:56Z</time></trkpt><trkpt lat="45.42944331814315" lon="9.244721346780382"><ele>109.0</ele><time>2026-04-11T08:05:57Z</time></trkpt><trkpt lat="45.4295662431328" lon="9.244651550136767"><ele>109.0</ele><time>2026-04-11T08:05:58Z</time></trkpt><trkpt lat="45.4296896405122" lon="9.24456806523941"><ele>109.0</ele><time>2026-04-11T08:05:59Z</time></trkpt><trkpt lat="45.42980628971816" lon="9.244458798659585"><ele>109.0</ele><time>2026-04-11T08:06:00Z</time></trkpt><trkpt lat="45.4299382141888" lon="9.24434961345192"><ele>109.0</ele><time>2026-04-11T08:06:01Z</time></trkpt><trkpt lat="45.43005306221527" lon="9.2442188354388"><ele>109.0</ele><time>2026-04-11T08:06:02Z</time></trkpt><trkpt lat="45.4301614490977" lon="9.244064996789355"><ele>109.0</ele><time>2026-04-11T08:06:03Z</time></trkpt><trkpt lat="45.430260744243895" lon="9.243891836948764"><ele>109.0</ele><time>2026-04-11T08:06:04Z</time></trkpt><trkpt lat="45.430347204516835" lon="9.24369992651898"><ele>108.75</ele><time>2026-04-11T08:06:05Z</time></trkpt><trkpt lat="45.430417194199805" lon="9.24351977412506"><ele>108.5</ele><time>2026-04-11T08:06:06Z</time></trkpt><trkpt lat="45.43049097885316" lon="9.243348764926402"><ele>108.25</ele><time>2026-04-11T08:06:07Z</time></trkpt><trkpt lat="45.4305757441636" lon="9.243177185914284"><ele>108.0</ele><time>2026-04-11T08:06:07.999Z</time></trkpt><trkpt lat="45.430662684504675" lon="9.243003556104554"><ele>108.0</ele><time>2026-04-11T08:06:08.999Z</time></trkpt><trkpt lat="45.43074192592618" lon="9.242837319800989"><ele>108.0</ele><time>2026-04-11T08:06:09.999Z</time></trkpt><trkpt lat="45.43082549282847" lon="9.24266067637395"><ele>108.0</ele><time>2026-04-11T08:06:10.999Z</time></trkpt><trkpt lat="45.43090404827547" lon="9.242488149440224"><ele>108.0</ele><time>2026-04-11T08:06:11.999Z</time></trkpt><trkpt lat="45.4309677308933" lon="9.242308444321678"><ele>108.5</ele><time>2026-04-11T08:06:12.999Z</time></trkpt><trkpt lat="45.431026828564065" lon="9.242127595942163"><ele>109.0</ele><time>2026-04-11T08:06:13.999Z</time></trkpt><trkpt lat="45.43107964997343" lon="9.241940422597962"><ele>109.5</ele><time>2026-04-11T08:06:14.999Z</time></trkpt><trkpt lat="45.431120241825475" lon="9.241749507446146"><ele>110.0</ele><time>2026-04-11T08:06:15.999Z</time></trkpt><trkpt lat="45.43115086087132" lon="9.241561992195033"><ele>110.0</ele><time>2026-04-11T08:06:16.999Z</time></trkpt><trkpt lat="45.431180525811996" lon="9.241367917651322"><ele>110.0</ele><time>2026-04-11T08:06:17.999Z</time></trkpt><trkpt lat="45.43120837882605" lon="9.24116747413888"><ele>110.0</ele><time>2026-04-11T08:06:18.999Z</time></trkpt><trkpt lat="45.43123827728268" lon="9.240975214672975"><ele>110.0</ele><time>2026-04-11T08:06:19.999Z</time></trkpt><trkpt lat="45.431264789607276" lon="9.24078151967427"><ele>109.75</ele><time>2026-04-11T08:06:20.999Z</time></trkpt><trkpt lat="45.43130462685497" lon="9.240593308774933"><ele>109.5</ele><time>2026-04-11T08:06:21.999Z</time></trkpt><trkpt lat="45.43132165258857" lon="9.24039639379573"><ele>109.25</ele><time>2026-04-11T08:06:22.999Z</time></trkpt><trkpt lat="45.43136142363868" lon="9.24020211610197"><ele>109.0</ele><time>2026-04-11T08:06:23.999Z</time></trkpt><trkpt lat="45.4314015802682" lon="9.24000700174675"><ele>109.5</ele><time>2026-04-11T08:06:24.999Z</time></trkpt><trkpt lat="45.431440594868256" lon="9.239800117053928"><ele>110.0</ele><time>2026-04-11T08:06:25.999Z</time></trkpt><trkpt lat="45.431478207543805" lon="9.239594940230528"><ele>110.5</ele><time>2026-04-11T08:06:26.999Z</time></trkpt><trkpt lat="45.43152410947005" lon="9.239396663184493"><ele>111.0</ele><time>2026-04-11T08:06:27.999Z</time></trkpt><trkpt lat="45.43157160555618" lon="9.239219529003645"><ele>111.0</ele><time>2026-04-11T08:06:28.999Z</time></trkpt><trkpt lat="45.43162742666164" lon="9.239042282670802"><ele>111.0</ele><time>2026-04-11T08:06:29.999Z</time></trkpt><trkpt lat="45.43169559683965" lon="9.238864035918997"><ele>111.0</ele><time>2026-04-11T08:06:30.999Z</time></trkpt><trkpt lat="45.431773079589306" lon="9.238686700050431"><ele>111.0</ele><time>2026-04-11T08:06:31.999Z</time></trkpt><trkpt lat="45.43185735013836" lon="9.238520186419402"><ele>111.0</ele><time>2026-04-11T08:06:32.999Z</time></trkpt><trkpt lat="45.431950196333084" lon="9.23835954243027"><ele>111.0</ele><time>2026-04-11T08:06:33.999Z</time></trkpt><trkpt lat="45.432051358299255" lon="9.238203880373222"><ele>111.0</ele><time>2026-04-11T08:06:34.999Z</time></trkpt><trkpt lat="45.432160848845" lon="9.238062393746265"><ele>111.0</ele><time>2026-04-11T08:06:35.999Z</time></trkpt><trkpt lat="45.43228147389584" lon="9.23792818211897"><ele>110.75</ele><time>2026-04-11T08:06:36.999Z</time></trkpt><trkpt lat="45.43239112656401" lon="9.23781553549951"><ele>110.5</ele><time>2026-04-11T08:06:37.999Z</time></trkpt><trkpt lat="45.43251229349876" lon="9.23771499864786"><ele>110.25</ele><time>2026-04-11T08:06:38.999Z</time></trkpt><trkpt lat="45.43263747029143" lon="9.237612948698319"><ele>110.0</ele><time>2026-04-11T08:06:39.999Z</time></trkpt><trkpt lat="45.43276794075154" lon="9.237509714985295"><ele>110.0</ele><time>2026-04-11T08:06:40.999Z</time></trkpt><trkpt lat="45.432899266811276" lon="9.237395221891456"><ele>110.0</ele><time>2026-04-11T08:06:41.999Z</time></trkpt><trkpt lat="45.43303105719071" lon="9.237282289573372"><ele>110.0</ele><time>2026-04-11T08:06:42.999Z</time></trkpt><trkpt lat="45.433164087983755" lon="9.237164305574938"><ele>110.0</ele><time>2026-04-11T08:06:43.999Z</time></trkpt><trkpt lat="45.43329609070446" lon="9.237048778806221"><ele>110.0</ele><time>2026-04-11T08:06:44.999Z</time></trkpt><trkpt lat="45.433427183075224" lon="9.236938217049552"><ele>110.0</ele><time>2026-04-11T08:06:45.999Z</time></trkpt><trkpt lat="45.43356114531153" lon="9.236835802440758"><ele>110.0</ele><time>2026-04-11T08:06:46.999Z</time></trkpt><trkpt lat="45.43368385866834" lon="9.236707055021425"><ele>110.0</ele><time>2026-04-11T08:06:47.999Z</time></trkpt><trkpt lat="45.43379327467039" lon="9.236605230930431"><ele>110.0</ele><time>2026-04-11T08:06:48.999Z</time></trkpt><trkpt lat="45.43390894207077" lon="9.236501583871862"><ele>110.0</ele><time>2026-04-11T08:06:49.999Z</time></trkpt><trkpt lat="45.43402456727181" lon="9.236410020207403"><ele>110.0</ele><time>2026-04-11T08:06:50.999Z</time></trkpt><trkpt lat="45.434131686494034" lon="9.236327943125731"><ele>110.0</ele><time>2026-04-11T08:06:51.999Z</time></trkpt><trkpt lat="45.43423933954695" lon="9.236248626600476"><ele>110.0</ele><time>2026-04-11T08:06:52.999Z</time></trkpt><trkpt lat="45.43434299742435" lon="9.236199918932689"><ele>110.0</ele><time>2026-04-11T08:06:53.999Z</time></trkpt><trkpt lat="45.4344350133607" lon="9.236139378354633"><ele>110.0</ele><time>2026-04-11T08:06:54.999Z</time></trkpt><trkpt lat="45.43452517491845" lon="9.23608235284614"><ele>110.0</ele><time>2026-04-11T08:06:55.999Z</time></trkpt><trkpt lat="45.434612672776694" lon="9.235978412021815"><ele>110.0</ele><time>2026-04-11T08:06:56.999Z</time></trkpt><trkpt lat="45.43466860256587" lon="9.235818374450956"><ele>110.0</ele><time>2026-04-11T08:06:57.999Z</time></trkpt><trkpt lat="45.434737270012285" lon="9.235667153172754"><ele>109.83333333333333</ele><time>2026-04-11T08:06:58.999Z</time></trkpt><trkpt lat="45.434813412024575" lon="9.235543649580519"><ele>109.66666666666666</ele><time>2026-04-11T08:06:59.999Z</time></trkpt><trkpt lat="45.43485213678044" lon="9.235417465514628"><ele>109.5</ele><time>2026-04-11T08:07:00.999Z</time></trkpt><trkpt lat="45.43489948351713" lon="9.235329142796274"><ele>109.33333333333334</ele><time>2026-04-11T08:07:01.999Z</time></trkpt><trkpt lat="45.43494181988984" lon="9.23524504759421"><ele>109.16666666666667</ele><time>2026-04-11T08:07:02.999Z</time></trkpt><trkpt lat="45.43498566881192" lon="9.235163679902586"><ele>109.0</ele><time>2026-04-11T08:07:03.999Z</time></trkpt><trkpt lat="45.435033498657276" lon="9.235055108079617"><ele>109.0</ele><time>2026-04-11T08:07:04.999Z</time></trkpt><trkpt lat="45.43507951005797" lon="9.234937122329587"><ele>109.0</ele><time>2026-04-11T08:07:05.999Z</time></trkpt><trkpt lat="45.43513479118923" lon="9.23482138379893"><ele>109.0</ele><time>2026-04-11T08:07:06.999Z</time></trkpt><trkpt lat="45.43519951100419" lon="9.234692770773886"><ele>109.0</ele><time>2026-04-11T08:07:07.999Z</time></trkpt><trkpt lat="45.435267432449194" lon="9.234554568515257"><ele>109.0</ele><time>2026-04-11T08:07:08.999Z</time></trkpt><trkpt lat="45.435336597864655" lon="9.234408183765302"><ele>108.75</ele><time>2026-04-11T08:07:09.999Z</time></trkpt><trkpt lat="45.43539991021696" lon="9.234237873338907"><ele>108.5</ele><time>2026-04-11T08:07:10.999Z</time></trkpt><trkpt lat="45.43546874349722" lon="9.234070994596932"><ele>108.25</ele><time>2026-04-11T08:07:11.999Z</time></trkpt><trkpt lat="45.43553753123967" lon="9.233898554984462"><ele>108.0</ele><time>2026-04-11T08:07:12.999Z</time></trkpt><trkpt lat="45.43561631104474" lon="9.233737388762247"><ele>108.0</ele><time>2026-04-11T08:07:13.999Z</time></trkpt><trkpt lat="45.43568626074123" lon="9.233585805614139"><ele>108.0</ele><time>2026-04-11T08:07:14.999Z</time></trkpt><trkpt lat="45.43575436087761" lon="9.233421994301864"><ele>108.0</ele><time>2026-04-11T08:07:15.999Z</time></trkpt><trkpt lat="45.43583252266182" lon="9.233257028623937"><ele>108.0</ele><time>2026-04-11T08:07:16.999Z</time></trkpt><trkpt lat="45.43590900187946" lon="9.233077078692505"><ele>109.0</ele><time>2026-04-11T08:07:17.999Z</time></trkpt><trkpt lat="45.43599473506628" lon="9.23288901389143"><ele>110.0</ele><time>2026-04-11T08:07:18.999Z</time></trkpt><trkpt lat="45.43608284154244" lon="9.232695950220798"><ele>111.0</ele><time>2026-04-11T08:07:19.999Z</time></trkpt><trkpt lat="45.43617685678613" lon="9.232495874697964"><ele>111.0</ele><time>2026-04-11T08:07:20.999Z</time></trkpt><trkpt lat="45.43627216157463" lon="9.232302295521466"><ele>111.0</ele><time>2026-04-11T08:07:21.998Z</time></trkpt><trkpt lat="45.436370457861145" lon="9.232105470945083"><ele>111.0</ele><time>2026-04-11T08:07:22.998Z</time></trkpt><trkpt lat="45.436456199259005" lon="9.231919403125792"><ele>111.0</ele><time>2026-04-11T08:07:23.998Z</time></trkpt><trkpt lat="45.436542131089965" lon="9.231743989910449"><ele>111.0</ele><time>2026-04-11T08:07:24.998Z</time></trkpt><trkpt lat="45.43661701077764" lon="9.231574562809651"><ele>111.0</ele><time>2026-04-11T08:07:25.998Z</time></trkpt><trkpt lat="45.43668080941873" lon="9.231422850464138"><ele>111.0</ele><time>2026-04-11T08:07:26.998Z</time></trkpt><trkpt lat="45.43673921198283" lon="9.231275396976006"><ele>110.8</ele><time>2026-04-11T08:07:27.998Z</time></trkpt><trkpt lat="45.43679809689039" lon="9.231138192006348"><ele>110.6</ele><time>2026-04-11T08:07:28.998Z</time></trkpt><trkpt lat="45.43685170182882" lon="9.230997266159678"><ele>110.4</ele><time>2026-04-11T08:07:29.998Z</time></trkpt><trkpt lat="45.436908741286295" lon="9.230862092071959"><ele>110.2</ele><time>2026-04-11T08:07:30.998Z</time></trkpt><trkpt lat="45.43696152734559" lon="9.23073006766516"><ele>110.0</ele><time>2026-04-11T08:07:31.998Z</time></trkpt><trkpt lat="45.43701616766909" lon="9.23060301693938"><ele>110.0</ele><time>2026-04-11T08:07:32.998Z</time></trkpt><trkpt lat="45.43707277138417" lon="9.230464320916713"><ele>110.0</ele><time>2026-04-11T08:07:33.998Z</time></trkpt><trkpt lat="45.43714084965282" lon="9.230313599135494"><ele>110.0</ele><time>2026-04-11T08:07:34.998Z</time></trkpt><trkpt lat="45.43721825000218" lon="9.230162487930794"><ele>110.0</ele><time>2026-04-11T08:07:35.998Z</time></trkpt><trkpt lat="45.43730214832351" lon="9.229997337149973"><ele>110.0</ele><time>2026-04-11T08:07:36.998Z</time></trkpt><trkpt lat="45.43738305426818" lon="9.229821503077474"><ele>110.0</ele><time>2026-04-11T08:07:37.998Z</time></trkpt><trkpt lat="45.437466461106155" lon="9.229643083605444"><ele>110.0</ele><time>2026-04-11T08:07:38.998Z</time></trkpt><trkpt lat="45.43754550233508" lon="9.229472847474476"><ele>110.0</ele><time>2026-04-11T08:07:39.998Z</time></trkpt><trkpt lat="45.437625560953116" lon="9.229304541904707"><ele>110.5</ele><time>2026-04-11T08:07:40.998Z</time></trkpt><trkpt lat="45.437700924136045" lon="9.229135051358124"><ele>111.0</ele><time>2026-04-11T08:07:41.998Z</time></trkpt><trkpt lat="45.437773302677535" lon="9.228974663796965"><ele>111.5</ele><time>2026-04-11T08:07:42.998Z</time></trkpt><trkpt lat="45.4378422787873" lon="9.228817554605563"><ele>112.0</ele><time>2026-04-11T08:07:43.998Z</time></trkpt><trkpt lat="45.43790675436667" lon="9.22866508357594"><ele>112.5</ele><time>2026-04-11T08:07:44.998Z</time></trkpt><trkpt lat="45.437985275653965" lon="9.228494230458578"><ele>113.0</ele><time>2026-04-11T08:07:45.998Z</time></trkpt><trkpt lat="45.43806516266223" lon="9.228317379761199"><ele>113.5</ele><time>2026-04-11T08:07:46.998Z</time></trkpt><trkpt lat="45.43813348541465" lon="9.228154152888829"><ele>114.0</ele><time>2026-04-11T08:07:47.998Z</time></trkpt><trkpt lat="45.438201051174836" lon="9.228007345350994"><ele>114.2</ele><time>2026-04-11T08:07:48.998Z</time></trkpt><trkpt lat="45.438274531938625" lon="9.22787139167032"><ele>114.4</ele><time>2026-04-11T08:07:49.998Z</time></trkpt><trkpt lat="45.43834637738135" lon="9.227746783687842"><ele>114.6</ele><time>2026-04-11T08:07:50.999Z</time></trkpt><trkpt lat="45.43841163114836" lon="9.227627522990824"><ele>114.8</ele><time>2026-04-11T08:07:51.999Z</time></trkpt><trkpt lat="45.438474631187646" lon="9.227506428802899"><ele>115.0</ele><time>2026-04-11T08:07:52.999Z</time></trkpt><trkpt lat="45.43853796525369" lon="9.227382095241294"><ele>115.2</ele><time>2026-04-11T08:07:53.999Z</time></trkpt><trkpt lat="45.43860622062117" lon="9.227254291761154"><ele>115.4</ele><time>2026-04-11T08:07:54.999Z</time></trkpt><trkpt lat="45.43867686465792" lon="9.2271211937605"><ele>115.6</ele><time>2026-04-11T08:07:55.999Z</time></trkpt><trkpt lat="45.4387367948145" lon="9.226996266082466"><ele>115.8</ele><time>2026-04-11T08:07:56.999Z</time></trkpt><trkpt lat="45.438783709529" lon="9.226891133635824"><ele>116.0</ele><time>2026-04-11T08:07:57.999Z</time></trkpt><trkpt lat="45.43882111260149" lon="9.226805338252214"><ele>116.16666666666666</ele><time>2026-04-11T08:07:58.999Z</time></trkpt><trkpt lat="45.43886325210306" lon="9.226714573883775"><ele>116.33333333333333</ele><time>2026-04-11T08:07:59.999Z</time></trkpt><trkpt lat="45.43891385976293" lon="9.226611325042239"><ele>116.5</ele><time>2026-04-11T08:08:00.999Z</time></trkpt><trkpt lat="45.43897520459378" lon="9.22650866349189"><ele>116.66666666666666</ele><time>2026-04-11T08:08:01.999Z</time></trkpt><trkpt lat="45.43902328004996" lon="9.22641855586045"><ele>116.83333333333333</ele><time>2026-04-11T08:08:02.999Z</time></trkpt><trkpt lat="45.439059468311896" lon="9.226338426468049"><ele>117.0</ele><time>2026-04-11T08:08:03.999Z</time></trkpt><trkpt lat="45.439098245872884" lon="9.226251913868236"><ele>117.0</ele><time>2026-04-11T08:08:04.999Z</time></trkpt><trkpt lat="45.43913355413568" lon="9.226157402983992"><ele>117.0</ele><time>2026-04-11T08:08:05.999Z</time></trkpt><trkpt lat="45.43918786376816" lon="9.226043007205819"><ele>117.0</ele><time>2026-04-11T08:08:06.999Z</time></trkpt><trkpt lat="45.439241724129694" lon="9.225947763915636"><ele>117.0</ele><time>2026-04-11T08:08:07.999Z</time></trkpt><trkpt lat="45.43927859483322" lon="9.225871786773244"><ele>117.0</ele><time>2026-04-11T08:08:08.999Z</time></trkpt><trkpt lat="45.43934612314755" lon="9.225747159919381"><ele>117.0</ele><time>2026-04-11T08:08:10.999Z</time></trkpt><trkpt lat="45.43939076196842" lon="9.225682207829427"><ele>116.66666666666667</ele><time>2026-04-11T08:08:11.999Z</time></trkpt><trkpt lat="45.43943385071593" lon="9.225600156425589"><ele>116.33333333333334</ele><time>2026-04-11T08:08:12.999Z</time></trkpt><trkpt lat="45.4394831978383" lon="9.225509066049812"><ele>116.0</ele><time>2026-04-11T08:08:13.999Z</time></trkpt><trkpt lat="45.43952175777073" lon="9.225408874015649"><ele>115.66666666666667</ele><time>2026-04-11T08:08:14.999Z</time></trkpt><trkpt lat="45.439557862522165" lon="9.225314483900716"><ele>115.33333333333334</ele><time>2026-04-11T08:08:15.999Z</time></trkpt><trkpt lat="45.439605173346074" lon="9.22522606642784"><ele>115.0</ele><time>2026-04-11T08:08:16.999Z</time></trkpt><trkpt lat="45.43965970484733" lon="9.22513586667605"><ele>115.00000000000001</ele><time>2026-04-11T08:08:17.999Z</time></trkpt><trkpt lat="45.43970758619812" lon="9.225044045748175"><ele>115.0</ele><time>2026-04-11T08:08:18.999Z</time></trkpt><trkpt lat="45.43976441473352" lon="9.224953412777639"><ele>115.0</ele><time>2026-04-11T08:08:19.999Z</time></trkpt><trkpt lat="45.439813718930665" lon="9.224863857010327"><ele>115.0</ele><time>2026-04-11T08:08:20.999Z</time></trkpt><trkpt lat="45.43986489080837" lon="9.224779681446826"><ele>115.00000000000001</ele><time>2026-04-11T08:08:21.999Z</time></trkpt><trkpt lat="45.43994065485344" lon="9.224727293081708"><ele>115.0</ele><time>2026-04-11T08:08:22.999Z</time></trkpt><trkpt lat="45.44001999795258" lon="9.224696089226946"><ele>115.00000000000001</ele><time>2026-04-11T08:08:23.999Z</time></trkpt><trkpt lat="45.44010764355035" lon="9.224674831813934"><ele>115.0</ele><time>2026-04-11T08:08:24.999Z</time></trkpt><trkpt lat="45.44018473608393" lon="9.224623367001675"><ele>115.0</ele><time>2026-04-11T08:08:25.999Z</time></trkpt><trkpt lat="45.44025501426266" lon="9.224555244369585"><ele>115.0</ele><time>2026-04-11T08:08:26.999Z</time></trkpt><trkpt lat="45.44028471193582" lon="9.224464818413985"><ele>115.00000000000001</ele><time>2026-04-11T08:08:27.999Z</time></trkpt><trkpt lat="45.440313727098236" lon="9.224368705913305"><ele>115.0</ele><time>2026-04-11T08:08:28.999Z</time></trkpt><trkpt lat="45.44033294063193" lon="9.224280661554848"><ele>114.99999999999999</ele><time>2026-04-11T08:08:29.999Z</time></trkpt><trkpt lat="45.440333777016825" lon="9.224184529047687"><ele>115.0</ele><time>2026-04-11T08:08:30.999Z</time></trkpt><trkpt lat="45.440252458709004" lon="9.224155854753603"><ele>114.99999999999999</ele><time>2026-04-11T08:08:31.999Z</time></trkpt><trkpt lat="45.44020715951847" lon="9.22406969415786"><ele>114.99999999999999</ele><time>2026-04-11T08:08:32.999Z</time></trkpt><trkpt lat="45.44015074498666" lon="9.224145856178762"><ele>115.0</ele><time>2026-04-11T08:08:33.999Z</time></trkpt><trkpt lat="45.440085918725806" lon="9.224129128687878"><ele>114.99999999999999</ele><time>2026-04-11T08:08:36.999Z</time></trkpt><trkpt lat="45.440019928349216" lon="9.224127514473086"><ele>114.99999999999999</ele><time>2026-04-11T08:08:40.999Z</time></trkpt><trkpt lat="45.4399350413846" lon="9.224094642409378"><ele>115.0</ele><time>2026-04-11T08:08:55.999Z</time></trkpt><trkpt lat="45.4398576618247" lon="9.224139393446025"><ele>115.0</ele><time>2026-04-11T08:08:56.999Z</time></trkpt><trkpt lat="45.43975939583659" lon="9.224141381456452"><ele>115.0</ele><time>2026-04-11T08:08:57.999Z</time></trkpt><trkpt lat="45.4396621982445" lon="9.22412553273443"><ele>115.0</ele><time>2026-04-11T08:08:58.999Z</time></trkpt><trkpt lat="45.43957617583938" lon="9.22413039107912"><ele>115.0</ele><time>2026-04-11T08:08:59.999Z</time></trkpt><trkpt lat="45.43947709927168" lon="9.22414259171552"><ele>114.4</ele><time>2026-04-11T08:09:00.999Z</time></trkpt><trkpt lat="45.439398238948776" lon="9.224156795781"><ele>113.8</ele><time>2026-04-11T08:09:01.999Z</time></trkpt><trkpt lat="45.439310939306836" lon="9.224166568874551"><ele>113.19999999999999</ele><time>2026-04-11T08:09:02.999Z</time></trkpt><trkpt lat="45.43920953370682" lon="9.22416783477077"><ele>112.6</ele><time>2026-04-11T08:09:03.999Z</time></trkpt><trkpt lat="45.439097844740814" lon="9.224168165411346"><ele>112.0</ele><time>2026-04-11T08:09:04.999Z</time></trkpt><trkpt lat="45.4389846352627" lon="9.224168098160753"><ele>112.0</ele><time>2026-04-11T08:09:05.999Z</time></trkpt><trkpt lat="45.438869702960076" lon="9.22416864069233"><ele>112.0</ele><time>2026-04-11T08:09:06.999Z</time></trkpt><trkpt lat="45.43875382198396" lon="9.224175135990825"><ele>112.0</ele><time>2026-04-11T08:09:07.999Z</time></trkpt><trkpt lat="45.43864469242766" lon="9.224185477203982"><ele>112.0</ele><time>2026-04-11T08:09:08.999Z</time></trkpt><trkpt lat="45.43851045449192" lon="9.22419959079619"><ele>112.39999999999999</ele><time>2026-04-11T08:09:09.999Z</time></trkpt><trkpt lat="45.43838732086176" lon="9.224201904031174"><ele>112.79999999999998</ele><time>2026-04-11T08:09:10.999Z</time></trkpt><trkpt lat="45.43828356844354" lon="9.224197703076658"><ele>113.2</ele><time>2026-04-11T08:09:11.999Z</time></trkpt><trkpt lat="45.43819299607472" lon="9.224202280676945"><ele>113.6</ele><time>2026-04-11T08:09:12.999Z</time></trkpt><trkpt lat="45.43811313413007" lon="9.224203739616705"><ele>114.0</ele><time>2026-04-11T08:09:13.999Z</time></trkpt><trkpt lat="45.438038581951325" lon="9.224163598960365"><ele>114.0</ele><time>2026-04-11T08:09:14.999Z</time></trkpt><trkpt lat="45.43801227625997" lon="9.224048376955276"><ele>114.0</ele><time>2026-04-11T08:09:15.999Z</time></trkpt><trkpt lat="45.43796556479809" lon="9.22390966710219"><ele>114.0</ele><time>2026-04-11T08:09:16.999Z</time></trkpt><trkpt lat="45.43793367505767" lon="9.22375291100091"><ele>114.0</ele><time>2026-04-11T08:09:17.999Z</time></trkpt><trkpt lat="45.43784941181593" lon="9.223621502092984"><ele>114.0</ele><time>2026-04-11T08:09:18.999Z</time></trkpt><trkpt lat="45.43775233268204" lon="9.223510555467906"><ele>114.0</ele><time>2026-04-11T08:09:19.999Z</time></trkpt><trkpt lat="45.43764482815391" lon="9.223443557737772"><ele>114.0</ele><time>2026-04-11T08:09:20.999Z</time></trkpt><trkpt lat="45.437534267291355" lon="9.223416891871018"><ele>114.0</ele><time>2026-04-11T08:09:21.999Z</time></trkpt><trkpt lat="45.43741831755198" lon="9.223453604664318"><ele>114.0</ele><time>2026-04-11T08:09:22.999Z</time></trkpt><trkpt lat="45.437343422828974" lon="9.223526273206637"><ele>114.0</ele><time>2026-04-11T08:09:23.999Z</time></trkpt><trkpt lat="45.43726200319603" lon="9.223557890299345"><ele>114.0</ele><time>2026-04-11T08:09:24.999Z</time></trkpt><trkpt lat="45.43717677270212" lon="9.223668473151827"><ele>114.0</ele><time>2026-04-11T08:09:26.999Z</time></trkpt><trkpt lat="45.43712700793924" lon="9.223740866982546"><ele>114.0</ele><time>2026-04-11T08:09:27.999Z</time></trkpt><trkpt lat="45.43706646957951" lon="9.223832960819152"><ele>114.0</ele><time>2026-04-11T08:09:28.999Z</time></trkpt><trkpt lat="45.437015420587535" lon="9.223930579388051"><ele>114.0</ele><time>2026-04-11T08:09:29.999Z</time></trkpt><trkpt lat="45.43699774822373" lon="9.224017029077658"><ele>114.0</ele><time>2026-04-11T08:09:30.999Z</time></trkpt><trkpt lat="45.43688306673408" lon="9.22403490030587"><ele>113.80000000000001</ele><time>2026-04-11T08:09:31.999Z</time></trkpt><trkpt lat="45.43679613652561" lon="9.224053265335588"><ele>113.60000000000001</ele><time>2026-04-11T08:09:32.999Z</time></trkpt><trkpt lat="45.436700050702804" lon="9.224041740898787"><ele>113.4</ele><time>2026-04-11T08:09:33.998Z</time></trkpt><trkpt lat="45.43659938840199" lon="9.22405341419134"><ele>113.2</ele><time>2026-04-11T08:09:34.998Z</time></trkpt><trkpt lat="45.43648533945901" lon="9.224049800553779"><ele>113.0</ele><time>2026-04-11T08:09:35.998Z</time></trkpt><trkpt lat="45.436382117322204" lon="9.22405108939025"><ele>112.4</ele><time>2026-04-11T08:09:36.998Z</time></trkpt><trkpt lat="45.43628074079756" lon="9.224050066008811"><ele>111.80000000000001</ele><time>2026-04-11T08:09:37.998Z</time></trkpt><trkpt lat="45.43617051582114" lon="9.224051797500419"><ele>111.2</ele><time>2026-04-11T08:09:38.998Z</time></trkpt><trkpt lat="45.436057892114306" lon="9.224052031693972"><ele>110.6</ele><time>2026-04-11T08:09:39.998Z</time></trkpt><trkpt lat="45.435948434599595" lon="9.224056064120559"><ele>110.0</ele><time>2026-04-11T08:09:40.998Z</time></trkpt><trkpt lat="45.43584232235229" lon="9.22405615403082"><ele>110.0</ele><time>2026-04-11T08:09:41.998Z</time></trkpt><trkpt lat="45.43572994856805" lon="9.224056919500216"><ele>110.0</ele><time>2026-04-11T08:09:42.998Z</time></trkpt><trkpt lat="45.43561248585409" lon="9.224055777381892"><ele>110.0</ele><time>2026-04-11T08:09:43.998Z</time></trkpt><trkpt lat="45.435494128122066" lon="9.224056827545988"><ele>110.0</ele><time>2026-04-11T08:09:44.998Z</time></trkpt><trkpt lat="45.435382120453184" lon="9.224058749086511"><ele>110.5</ele><time>2026-04-11T08:09:45.998Z</time></trkpt><trkpt lat="45.43526305820082" lon="9.224058907295294"><ele>111.0</ele><time>2026-04-11T08:09:46.998Z</time></trkpt><trkpt lat="45.43515252791556" lon="9.22406117712026"><ele>111.5</ele><time>2026-04-11T08:09:47.998Z</time></trkpt><trkpt lat="45.43503190865215" lon="9.22406819434948"><ele>112.0</ele><time>2026-04-11T08:09:48.998Z</time></trkpt><trkpt lat="45.43491926845969" lon="9.224073254718586"><ele>112.0</ele><time>2026-04-11T08:09:49.998Z</time></trkpt><trkpt lat="45.434808152462004" lon="9.224082604191517"><ele>111.99999999999999</ele><time>2026-04-11T08:09:50.998Z</time></trkpt><trkpt lat="45.434706567563154" lon="9.224079667621872"><ele>111.99999999999999</ele><time>2026-04-11T08:09:51.998Z</time></trkpt><trkpt lat="45.43460744285078" lon="9.224084540414394"><ele>112.0</ele><time>2026-04-11T08:09:52.998Z</time></trkpt><trkpt lat="45.434503761766976" lon="9.224092077681997"><ele>112.0</ele><time>2026-04-11T08:09:53.998Z</time></trkpt><trkpt lat="45.43439159323115" lon="9.224091117210229"><ele>112.0</ele><time>2026-04-11T08:09:54.998Z</time></trkpt><trkpt lat="45.43427329881107" lon="9.224087651124236"><ele>112.0</ele><time>2026-04-11T08:09:55.998Z</time></trkpt><trkpt lat="45.43415408976351" lon="9.224101670900291"><ele>112.0</ele><time>2026-04-11T08:09:56.999Z</time></trkpt><trkpt lat="45.43403299287544" lon="9.224101861821737"><ele>112.0</ele><time>2026-04-11T08:09:57.999Z</time></trkpt><trkpt lat="45.433903207223146" lon="9.22409792087941"><ele>112.19999999999999</ele><time>2026-04-11T08:09:58.999Z</time></trkpt><trkpt lat="45.433777726764596" lon="9.224099666935826"><ele>112.39999999999999</ele><time>2026-04-11T08:09:59.999Z</time></trkpt><trkpt lat="45.43366133970575" lon="9.224112786547943"><ele>112.60000000000001</ele><time>2026-04-11T08:10:00.999Z</time></trkpt><trkpt lat="45.43355775393592" lon="9.224109157906776"><ele>112.80000000000001</ele><time>2026-04-11T08:10:01.999Z</time></trkpt><trkpt lat="45.433462359177" lon="9.224140382002354"><ele>113.0</ele><time>2026-04-11T08:10:02.999Z</time></trkpt><trkpt lat="45.43336785287309" lon="9.22415029386544"><ele>112.99999999999999</ele><time>2026-04-11T08:10:03.999Z</time></trkpt><trkpt lat="45.43328434434908" lon="9.224146809069993"><ele>113.0</ele><time>2026-04-11T08:10:04.999Z</time></trkpt><trkpt lat="45.433209703723385" lon="9.224132519884897"><ele>113.0</ele><time>2026-04-11T08:10:05.999Z</time></trkpt><trkpt lat="45.433140440006255" lon="9.224120689024204"><ele>113.0</ele><time>2026-04-11T08:10:07Z</time></trkpt><trkpt lat="45.433060297060585" lon="9.224122701339246"><ele>112.99999999999999</ele><time>2026-04-11T08:10:08Z</time></trkpt><trkpt lat="45.43297646216511" lon="9.224132438906693"><ele>113.0</ele><time>2026-04-11T08:10:09Z</time></trkpt><trkpt lat="45.43290504446961" lon="9.224130480556738"><ele>112.80000000000001</ele><time>2026-04-11T08:10:10Z</time></trkpt><trkpt lat="45.43282357097499" lon="9.224142560934187"><ele>112.60000000000001</ele><time>2026-04-11T08:10:11Z</time></trkpt><trkpt lat="45.43275213927812" lon="9.224144206904427"><ele>112.39999999999999</ele><time>2026-04-11T08:10:12Z</time></trkpt><trkpt lat="45.43262735554013" lon="9.224124909445784"><ele>112.19999999999999</ele><time>2026-04-11T08:10:14Z</time></trkpt><trkpt lat="45.43251634314528" lon="9.224124543983123"><ele>112.0</ele><time>2026-04-11T08:10:16Z</time></trkpt><trkpt lat="45.43244342966836" lon="9.224121849381916"><ele>112.00000000000001</ele><time>2026-04-11T08:10:18Z</time></trkpt><trkpt lat="45.43238258434991" lon="9.224094529165132"><ele>112.0</ele><time>2026-04-11T08:10:21Z</time></trkpt><trkpt lat="45.43229892359863" lon="9.22411050406665"><ele>112.0</ele><time>2026-04-11T08:10:24Z</time></trkpt><trkpt lat="45.43220727958702" lon="9.22410870791542"><ele>112.0</ele><time>2026-04-11T08:10:27Z</time></trkpt><trkpt lat="45.43212647070781" lon="9.224104801326853"><ele>112.00000000000001</ele><time>2026-04-11T08:10:29.999Z</time></trkpt><trkpt lat="45.43205810080195" lon="9.224015516634266"><ele>112.0</ele><time>2026-04-11T08:10:31.999Z</time></trkpt><trkpt lat="45.43202124228274" lon="9.22391503999767"><ele>111.16666666666667</ele><time>2026-04-11T08:10:33.999Z</time></trkpt><trkpt lat="45.43193281292415" lon="9.223847738664238"><ele>110.33333333333334</ele><time>2026-04-11T08:10:35.999Z</time></trkpt><trkpt lat="45.431828955857874" lon="9.223857853223889"><ele>109.5</ele><time>2026-04-11T08:10:37.999Z</time></trkpt><trkpt lat="45.431771287005" lon="9.223909436365837"><ele>108.66666666666666</ele><time>2026-04-11T08:10:38.999Z</time></trkpt><trkpt lat="45.431735453360794" lon="9.223990498126678"><ele>107.83333333333333</ele><time>2026-04-11T08:10:39.999Z</time></trkpt><trkpt lat="45.43172588470087" lon="9.224094115332184"><ele>107.0</ele><time>2026-04-11T08:10:40.999Z</time></trkpt><trkpt lat="45.431721391805794" lon="9.224194438788878"><ele>106.83333333333333</ele><time>2026-04-11T08:10:41.999Z</time></trkpt><trkpt lat="45.431744179947074" lon="9.224293262019922"><ele>106.66666666666666</ele><time>2026-04-11T08:10:42.999Z</time></trkpt><trkpt lat="45.43183726034157" lon="9.22434790377499"><ele>106.5</ele><time>2026-04-11T08:10:43.999Z</time></trkpt><trkpt lat="45.431906672359744" lon="9.224411660907878"><ele>106.33333333333334</ele><time>2026-04-11T08:10:44.999Z</time></trkpt><trkpt lat="45.431981884783184" lon="9.224485265228274"><ele>106.16666666666667</ele><time>2026-04-11T08:10:45.999Z</time></trkpt><trkpt lat="45.432061925679804" lon="9.22456036407234"><ele>106.0</ele><time>2026-04-11T08:10:46.999Z</time></trkpt><trkpt lat="45.43213727830104" lon="9.224621912920659"><ele>106.4</ele><time>2026-04-11T08:10:47.999Z</time></trkpt><trkpt lat="45.432218136199765" lon="9.224690225652232"><ele>106.8</ele><time>2026-04-11T08:10:48.999Z</time></trkpt><trkpt lat="45.43229922788967" lon="9.224761644497733"><ele>107.20000000000002</ele><time>2026-04-11T08:10:49.999Z</time></trkpt><trkpt lat="45.4323841958328" lon="9.224836239768576"><ele>107.60000000000001</ele><time>2026-04-11T08:10:50.999Z</time></trkpt><trkpt lat="45.43246975784912" lon="9.224904753765724"><ele>108.0</ele><time>2026-04-11T08:10:51.999Z</time></trkpt><trkpt lat="45.43255436006711" lon="9.224974613658416"><ele>108.0</ele><time>2026-04-11T08:10:52.999Z</time></trkpt><trkpt lat="45.432636002453926" lon="9.225052090117698"><ele>108.00000000000001</ele><time>2026-04-11T08:10:53.999Z</time></trkpt><trkpt lat="45.43272239014196" lon="9.225110383518722"><ele>108.00000000000001</ele><time>2026-04-11T08:10:54.999Z</time></trkpt><trkpt lat="45.43280657247321" lon="9.225180793625338"><ele>108.0</ele><time>2026-04-11T08:10:55.999Z</time></trkpt><trkpt lat="45.4328882610756" lon="9.225252159590621"><ele>108.0</ele><time>2026-04-11T08:10:56.999Z</time></trkpt><trkpt lat="45.432962151795074" lon="9.225351773238982"><ele>108.0</ele><time>2026-04-11T08:10:57.999Z</time></trkpt><trkpt lat="45.43304728604646" lon="9.225445015903006"><ele>108.00000000000001</ele><time>2026-04-11T08:10:58.999Z</time></trkpt><trkpt lat="45.43313060565396" lon="9.225541810873224"><ele>108.00000000000001</ele><time>2026-04-11T08:10:59.999Z</time></trkpt><trkpt lat="45.433220869922366" lon="9.225624702214622"><ele>108.0</ele><time>2026-04-11T08:11:00.999Z</time></trkpt><trkpt lat="45.433300011652854" lon="9.225723349482172"><ele>108.0</ele><time>2026-04-11T08:11:01.999Z</time></trkpt><trkpt lat="45.43337961246692" lon="9.225826512763291"><ele>108.0</ele><time>2026-04-11T08:11:02.999Z</time></trkpt><trkpt lat="45.43346311605122" lon="9.225925689769092"><ele>108.00000000000001</ele><time>2026-04-11T08:11:03.999Z</time></trkpt><trkpt lat="45.433549524908365" lon="9.226011514959053"><ele>108.00000000000001</ele><time>2026-04-11T08:11:04.999Z</time></trkpt><trkpt lat="45.43363309213751" lon="9.226115671491389"><ele>108.0</ele><time>2026-04-11T08:11:05.999Z</time></trkpt><trkpt lat="45.433719906189964" lon="9.22621459883559"><ele>108.0</ele><time>2026-04-11T08:11:06.999Z</time></trkpt><trkpt lat="45.433807909816764" lon="9.226318276647278"><ele>108.25</ele><time>2026-04-11T08:11:07.999Z</time></trkpt><trkpt lat="45.433892453440016" lon="9.226440945190483"><ele>108.5</ele><time>2026-04-11T08:11:08.999Z</time></trkpt><trkpt lat="45.433995664287046" lon="9.226534432899667"><ele>108.75</ele><time>2026-04-11T08:11:09.999Z</time></trkpt><trkpt lat="45.4340995368715" lon="9.226655722298107"><ele>109.0</ele><time>2026-04-11T08:11:10.999Z</time></trkpt><trkpt lat="45.43419204872286" lon="9.226759106151682"><ele>109.0</ele><time>2026-04-11T08:11:11.999Z</time></trkpt><trkpt lat="45.43427722844065" lon="9.22686221880992"><ele>109.0</ele><time>2026-04-11T08:11:12.999Z</time></trkpt><trkpt lat="45.43436573397889" lon="9.226950880359297"><ele>109.0</ele><time>2026-04-11T08:11:13.999Z</time></trkpt><trkpt lat="45.4344403349082" lon="9.227062827818632"><ele>109.0</ele><time>2026-04-11T08:11:14.999Z</time></trkpt><trkpt lat="45.43452547640108" lon="9.227128731543267"><ele>109.0</ele><time>2026-04-11T08:11:15.999Z</time></trkpt><trkpt lat="45.43459696226677" lon="9.2272130301133"><ele>108.83333333333334</ele><time>2026-04-11T08:11:16.999Z</time></trkpt><trkpt lat="45.43466232244832" lon="9.227292759151961"><ele>108.66666666666667</ele><time>2026-04-11T08:11:17.999Z</time></trkpt><trkpt lat="45.434733203919514" lon="9.227381591003686"><ele>108.5</ele><time>2026-04-11T08:11:18.999Z</time></trkpt><trkpt lat="45.434798611910516" lon="9.227466786204236"><ele>108.33333333333334</ele><time>2026-04-11T08:11:19.999Z</time></trkpt><trkpt lat="45.43485984649517" lon="9.227542897305012"><ele>108.16666666666667</ele><time>2026-04-11T08:11:20.999Z</time></trkpt><trkpt lat="45.43492848477147" lon="9.227618050806456"><ele>108.0</ele><time>2026-04-11T08:11:21.999Z</time></trkpt><trkpt lat="45.43499658311457" lon="9.22769085563925"><ele>108.0</ele><time>2026-04-11T08:11:22.999Z</time></trkpt><trkpt lat="45.4350546771734" lon="9.227757333932962"><ele>108.00000000000001</ele><time>2026-04-11T08:11:23.999Z</time></trkpt><trkpt lat="45.43510765038566" lon="9.227812349772698"><ele>108.00000000000001</ele><time>2026-04-11T08:11:24.999Z</time></trkpt><trkpt lat="45.435146170911075" lon="9.227913110493699"><ele>108.0</ele><time>2026-04-11T08:11:26.999Z</time></trkpt><trkpt lat="45.43508335670856" lon="9.228068633233866"><ele>108.0</ele><time>2026-04-11T08:11:28.999Z</time></trkpt><trkpt lat="45.435016184321114" lon="9.228180338232368"><ele>107.5</ele><time>2026-04-11T08:11:29.999Z</time></trkpt><trkpt lat="45.43494355530602" lon="9.228303590048618"><ele>107.0</ele><time>2026-04-11T08:11:30.999Z</time></trkpt><trkpt lat="45.4348602376199" lon="9.228435954621427"><ele>106.5</ele><time>2026-04-11T08:11:31.999Z</time></trkpt><trkpt lat="45.43478821357351" lon="9.228555170781851"><ele>106.0</ele><time>2026-04-11T08:11:32.999Z</time></trkpt><trkpt lat="45.434721091315886" lon="9.228680435092041"><ele>106.0</ele><time>2026-04-11T08:11:33.999Z</time></trkpt><trkpt lat="45.43464739823602" lon="9.22881638580985"><ele>106.0</ele><time>2026-04-11T08:11:34.999Z</time></trkpt><trkpt lat="45.43456915866355" lon="9.228951348117779"><ele>106.0</ele><time>2026-04-11T08:11:35.999Z</time></trkpt><trkpt lat="45.43449715975284" lon="9.229095614396906"><ele>106.0</ele><time>2026-04-11T08:11:36.999Z</time></trkpt><trkpt lat="45.43442320090158" lon="9.229241019305396"><ele>105.75</ele><time>2026-04-11T08:11:37.999Z</time></trkpt><trkpt lat="45.43434351177702" lon="9.22938229556565"><ele>105.5</ele><time>2026-04-11T08:11:38.999Z</time></trkpt><trkpt lat="45.43426751148116" lon="9.229522183548161"><ele>105.25</ele><time>2026-04-11T08:11:39.999Z</time></trkpt><trkpt lat="45.43417979900556" lon="9.229659196831477"><ele>105.0</ele><time>2026-04-11T08:11:40.999Z</time></trkpt><trkpt lat="45.434092019719195" lon="9.229804985359488"><ele>104.75</ele><time>2026-04-11T08:11:41.999Z</time></trkpt><trkpt lat="45.434015447561414" lon="9.229945247314111"><ele>104.5</ele><time>2026-04-11T08:11:42.999Z</time></trkpt><trkpt lat="45.43394073845603" lon="9.230099966495331"><ele>104.25</ele><time>2026-04-11T08:11:43.999Z</time></trkpt><trkpt lat="45.433870247302565" lon="9.230250157958253"><ele>104.0</ele><time>2026-04-11T08:11:44.999Z</time></trkpt><trkpt lat="45.43379979182359" lon="9.230386693544295"><ele>104.0</ele><time>2026-04-11T08:11:45.999Z</time></trkpt><trkpt lat="45.433739996418986" lon="9.230493923409538"><ele>104.0</ele><time>2026-04-11T08:11:46.999Z</time></trkpt><trkpt lat="45.43367750484421" lon="9.230605720376337"><ele>104.0</ele><time>2026-04-11T08:11:48.999Z</time></trkpt><trkpt lat="45.43363672509759" lon="9.230688739522506"><ele>104.0</ele><time>2026-04-11T08:11:50.999Z</time></trkpt><trkpt lat="45.43358213326846" lon="9.230741055794738"><ele>104.0</ele><time>2026-04-11T08:11:52.999Z</time></trkpt><trkpt lat="45.43368875656318" lon="9.23090283226279"><ele>103.75</ele><time>2026-04-11T08:11:54.999Z</time></trkpt><trkpt lat="45.433743424636226" lon="9.231002999609343"><ele>103.5</ele><time>2026-04-11T08:11:55.999Z</time></trkpt><trkpt lat="45.43382790267352" lon="9.231111835198043"><ele>103.25</ele><time>2026-04-11T08:11:56.999Z</time></trkpt><trkpt lat="45.43388849919062" lon="9.231313038438982"><ele>103.0</ele><time>2026-04-11T08:11:57.999Z</time></trkpt><trkpt lat="45.43388168803812" lon="9.231478812705648"><ele>103.60000000000001</ele><time>2026-04-11T08:11:58.999Z</time></trkpt><trkpt lat="45.433842148787704" lon="9.231625414571509"><ele>104.2</ele><time>2026-04-11T08:11:59.999Z</time></trkpt><trkpt lat="45.43378364882931" lon="9.231771921428237"><ele>104.8</ele><time>2026-04-11T08:12:00.999Z</time></trkpt><trkpt lat="45.43375139013824" lon="9.23187697993038"><ele>105.4</ele><time>2026-04-11T08:12:01.999Z</time></trkpt><trkpt lat="45.4337146128826" lon="9.23198871876007"><ele>106.0</ele><time>2026-04-11T08:12:04Z</time></trkpt><trkpt lat="45.433826852874155" lon="9.231919426173473"><ele>106.00000000000001</ele><time>2026-04-11T08:12:12Z</time></trkpt><trkpt lat="45.4337962137135" lon="9.23179811822051"><ele>106.0</ele><time>2026-04-11T08:12:15Z</time></trkpt><trkpt lat="45.4337730677457" lon="9.231703274003397"><ele>106.0</ele><time>2026-04-11T08:12:44Z</time></trkpt><trkpt lat="45.43384014392758" lon="9.231737309611535"><ele>106.0</ele><time>2026-04-11T08:12:49Z</time></trkpt><trkpt lat="45.43383547860738" lon="9.23184368943949"><ele>106.00000000000001</ele><time>2026-04-11T08:13:00.999Z</time></trkpt><trkpt lat="45.43388386798079" lon="9.231938207189518"><ele>106.0</ele><time>2026-04-11T08:13:03.999Z</time></trkpt><trkpt lat="45.43394354250553" lon="9.232041264040348"><ele>106.00000000000001</ele><time>2026-04-11T08:13:08.999Z</time></trkpt><trkpt lat="45.433910043094755" lon="9.232218999430312"><ele>106.0</ele><time>2026-04-11T08:13:10.999Z</time></trkpt><trkpt lat="45.43385265166093" lon="9.232319183181767"><ele>106.0</ele><time>2026-04-11T08:13:12.999Z</time></trkpt><trkpt lat="45.43380080121945" lon="9.232409611219353"><ele>106.0</ele><time>2026-04-11T08:13:14.999Z</time></trkpt><trkpt lat="45.433778681926725" lon="9.23249366887255"><ele>106.00000000000001</ele><time>2026-04-11T08:13:16.999Z</time></trkpt><trkpt lat="45.433727357752524" lon="9.23257430068893"><ele>106.0</ele><time>2026-04-11T08:13:19.999Z</time></trkpt><trkpt lat="45.43363897272195" lon="9.232594211812811"><ele>106.00000000000001</ele><time>2026-04-11T08:13:26.999Z</time></trkpt><trkpt lat="45.43357564255372" lon="9.23255879256461"><ele>106.0</ele><time>2026-04-11T08:13:27.999Z</time></trkpt><trkpt lat="45.43351286789788" lon="9.232501670571038"><ele>106.0</ele><time>2026-04-11T08:13:28.999Z</time></trkpt><trkpt lat="45.433408482580646" lon="9.232423829719087"><ele>106.0</ele><time>2026-04-11T08:13:29.999Z</time></trkpt><trkpt lat="45.433318727419746" lon="9.232387338630197"><ele>106.00000000000001</ele><time>2026-04-11T08:13:30.999Z</time></trkpt><trkpt lat="45.43323323954434" lon="9.232375834010016"><ele>106.0</ele><time>2026-04-11T08:13:31.999Z</time></trkpt><trkpt lat="45.43313876300307" lon="9.23236553348815"><ele>106.00000000000001</ele><time>2026-04-11T08:13:32.999Z</time></trkpt><trkpt lat="45.43303265368287" lon="9.232346704382005"><ele>106.0</ele><time>2026-04-11T08:13:33.999Z</time></trkpt><trkpt lat="45.43295352112754" lon="9.232334187682184"><ele>106.0</ele><time>2026-04-11T08:13:34.999Z</time></trkpt><trkpt lat="45.43286892014404" lon="9.232324212032605"><ele>106.0</ele><time>2026-04-11T08:13:35.999Z</time></trkpt><trkpt lat="45.432789185274956" lon="9.232305750123931"><ele>106.00000000000001</ele><time>2026-04-11T08:13:36.999Z</time></trkpt><trkpt lat="45.432721188527594" lon="9.232284702418665"><ele>106.0</ele><time>2026-04-11T08:13:37.999Z</time></trkpt><trkpt lat="45.43265539891601" lon="9.232261326356296"><ele>105.19999999999999</ele><time>2026-04-11T08:13:38.999Z</time></trkpt><trkpt lat="45.43258416240807" lon="9.232228296276539"><ele>104.39999999999999</ele><time>2026-04-11T08:13:39.999Z</time></trkpt><trkpt lat="45.43251106380808" lon="9.232203403795518"><ele>103.6</ele><time>2026-04-11T08:13:40.999Z</time></trkpt><trkpt lat="45.432424417905615" lon="9.232191420550743"><ele>102.8</ele><time>2026-04-11T08:13:41.999Z</time></trkpt><trkpt lat="45.43232010397475" lon="9.232183853988321"><ele>102.0</ele><time>2026-04-11T08:13:42.999Z</time></trkpt><trkpt lat="45.43221078591507" lon="9.232188958543455"><ele>101.39999999999999</ele><time>2026-04-11T08:13:43.999Z</time></trkpt><trkpt lat="45.4321083733503" lon="9.232193342866358"><ele>100.8</ele><time>2026-04-11T08:13:44.999Z</time></trkpt><trkpt lat="45.432009150369844" lon="9.232179004556004"><ele>100.2</ele><time>2026-04-11T08:13:45.999Z</time></trkpt><trkpt lat="45.43191298599683" lon="9.23215900895327"><ele>99.6</ele><time>2026-04-11T08:13:46.999Z</time></trkpt><trkpt lat="45.4318238109426" lon="9.232124381994929"><ele>99.0</ele><time>2026-04-11T08:13:47.999Z</time></trkpt><trkpt lat="45.43173808927125" lon="9.23210971872274"><ele>99.0</ele><time>2026-04-11T08:13:48.999Z</time></trkpt><trkpt lat="45.43165359497481" lon="9.23209961080869"><ele>99.0</ele><time>2026-04-11T08:13:49.999Z</time></trkpt><trkpt lat="45.43156971629533" lon="9.23208551692221"><ele>99.0</ele><time>2026-04-11T08:13:50.999Z</time></trkpt><trkpt lat="45.43150352382093" lon="9.232056279131916"><ele>99.0</ele><time>2026-04-11T08:13:51.999Z</time></trkpt><trkpt lat="45.43142438664786" lon="9.232032680273443"><ele>99.0</ele><time>2026-04-11T08:13:52.999Z</time></trkpt><trkpt lat="45.43135283480952" lon="9.232026616076855"><ele>99.0</ele><time>2026-04-11T08:13:53.999Z</time></trkpt><trkpt lat="45.43127300069504" lon="9.232041465197268"><ele>100.4</ele><time>2026-04-11T08:13:54.999Z</time></trkpt><trkpt lat="45.43117633571521" lon="9.232052141828497"><ele>101.80000000000001</ele><time>2026-04-11T08:13:55.999Z</time></trkpt><trkpt lat="45.43108124067407" lon="9.232018340904338"><ele>103.19999999999999</ele><time>2026-04-11T08:13:56.999Z</time></trkpt><trkpt lat="45.43099108034898" lon="9.231967154100646"><ele>104.6</ele><time>2026-04-11T08:13:57.999Z</time></trkpt><trkpt lat="45.430893878790606" lon="9.231917726226373"><ele>106.0</ele><time>2026-04-11T08:13:58.999Z</time></trkpt><trkpt lat="45.430788040767816" lon="9.231867412109175"><ele>106.0</ele><time>2026-04-11T08:13:59.999Z</time></trkpt><trkpt lat="45.43068530548985" lon="9.231815389654694"><ele>106.0</ele><time>2026-04-11T08:14:00.999Z</time></trkpt><trkpt lat="45.43056674235477" lon="9.231765901706956"><ele>106.0</ele><time>2026-04-11T08:14:01.999Z</time></trkpt><trkpt lat="45.430450095584376" lon="9.231720491570012"><ele>106.0</ele><time>2026-04-11T08:14:02.999Z</time></trkpt><trkpt lat="45.43032940124775" lon="9.231664278839698"><ele>105.5</ele><time>2026-04-11T08:14:03.999Z</time></trkpt><trkpt lat="45.43020017692391" lon="9.231607908641847"><ele>105.0</ele><time>2026-04-11T08:14:04.999Z</time></trkpt><trkpt lat="45.43006877661671" lon="9.231550035439241"><ele>104.5</ele><time>2026-04-11T08:14:05.999Z</time></trkpt><trkpt lat="45.42994551437745" lon="9.231501595492185"><ele>104.0</ele><time>2026-04-11T08:14:06.999Z</time></trkpt><trkpt lat="45.429828040937565" lon="9.231437785599999"><ele>103.75</ele><time>2026-04-11T08:14:07.999Z</time></trkpt><trkpt lat="45.42970760303575" lon="9.231389513778106"><ele>103.5</ele><time>2026-04-11T08:14:09Z</time></trkpt><trkpt lat="45.42958545670337" lon="9.231341432974668"><ele>103.25</ele><time>2026-04-11T08:14:10Z</time></trkpt><trkpt lat="45.42946055241989" lon="9.231295800847285"><ele>103.0</ele><time>2026-04-11T08:14:11Z</time></trkpt><trkpt lat="45.42934177926183" lon="9.231246244342325"><ele>103.0</ele><time>2026-04-11T08:14:12Z</time></trkpt><trkpt lat="45.42922461664364" lon="9.231217623000319"><ele>103.0</ele><time>2026-04-11T08:14:13Z</time></trkpt><trkpt lat="45.42910638448106" lon="9.231206949874027"><ele>103.0</ele><time>2026-04-11T08:14:14Z</time></trkpt><trkpt lat="45.42899147822918" lon="9.231220848896497"><ele>103.0</ele><time>2026-04-11T08:14:15Z</time></trkpt><trkpt lat="45.42887115573351" lon="9.231230760974142"><ele>102.75</ele><time>2026-04-11T08:14:16Z</time></trkpt><trkpt lat="45.428756520066734" lon="9.231260236650417"><ele>102.5</ele><time>2026-04-11T08:14:17Z</time></trkpt><trkpt lat="45.428642217616854" lon="9.23130442375692"><ele>102.25</ele><time>2026-04-11T08:14:18Z</time></trkpt><trkpt lat="45.42852780235855" lon="9.231361620316108"><ele>102.0</ele><time>2026-04-11T08:14:19Z</time></trkpt><trkpt lat="45.4284310892073" lon="9.231443394198452"><ele>101.16666666666667</ele><time>2026-04-11T08:14:20Z</time></trkpt><trkpt lat="45.428359650114444" lon="9.231537813801813"><ele>100.33333333333334</ele><time>2026-04-11T08:14:21Z</time></trkpt><trkpt lat="45.428303362308796" lon="9.23161295884342"><ele>99.5</ele><time>2026-04-11T08:14:22Z</time></trkpt><trkpt lat="45.428211102849424" lon="9.231714105406981"><ele>98.66666666666667</ele><time>2026-04-11T08:14:24Z</time></trkpt><trkpt lat="45.42814259806564" lon="9.231793161261962"><ele>97.83333333333334</ele><time>2026-04-11T08:14:26Z</time></trkpt><trkpt lat="45.42815356610916" lon="9.231884422882572"><ele>97.0</ele><time>2026-04-11T08:14:28Z</time></trkpt><trkpt lat="45.42823388323098" lon="9.231965954631354"><ele>97.00000000000001</ele><time>2026-04-11T08:14:30Z</time></trkpt><trkpt lat="45.42829934677522" lon="9.23199350645485"><ele>97.0</ele><time>2026-04-11T08:14:32Z</time></trkpt><trkpt lat="45.42835595602586" lon="9.232048851231756"><ele>97.0</ele><time>2026-04-11T08:14:35Z</time></trkpt><trkpt lat="45.42839938668289" lon="9.232143696938843"><ele>97.0</ele><time>2026-04-11T08:14:39Z</time></trkpt><trkpt lat="45.42839251884229" lon="9.232313217125776"><ele>97.00000000000001</ele><time>2026-04-11T08:14:41Z</time></trkpt><trkpt lat="45.4283918647187" lon="9.232424520028758"><ele>97.0</ele><time>2026-04-11T08:14:42Z</time></trkpt><trkpt lat="45.42841355630123" lon="9.232534255869894"><ele>97.19999999999999</ele><time>2026-04-11T08:14:43Z</time></trkpt><trkpt lat="45.42845026719834" lon="9.232674601894557"><ele>97.4</ele><time>2026-04-11T08:14:44Z</time></trkpt><trkpt lat="45.42849023523896" lon="9.232833406034883"><ele>97.6</ele><time>2026-04-11T08:14:45Z</time></trkpt><trkpt lat="45.4285227512521" lon="9.232991897041055"><ele>97.80000000000001</ele><time>2026-04-11T08:14:46Z</time></trkpt><trkpt lat="45.42855037365151" lon="9.233137981639695"><ele>98.0</ele><time>2026-04-11T08:14:47Z</time></trkpt><trkpt lat="45.42857700005683" lon="9.233251567601593"><ele>98.60000000000001</ele><time>2026-04-11T08:14:48Z</time></trkpt><trkpt lat="45.42858583771437" lon="9.233419575273352"><ele>99.2</ele><time>2026-04-11T08:14:50Z</time></trkpt><trkpt lat="45.42851089927269" lon="9.233587513518355"><ele>99.8</ele><time>2026-04-11T08:14:52Z</time></trkpt><trkpt lat="45.428446346054066" lon="9.23365401829719"><ele>100.4</ele><time>2026-04-11T08:14:53Z</time></trkpt><trkpt lat="45.428357329603664" lon="9.233727426030306"><ele>101.0</ele><time>2026-04-11T08:14:54Z</time></trkpt><trkpt lat="45.4282645024917" lon="9.233824138599244"><ele>100.99999999999999</ele><time>2026-04-11T08:14:55Z</time></trkpt><trkpt lat="45.42819225583524" lon="9.233886951597661"><ele>101.0</ele><time>2026-04-11T08:14:56Z</time></trkpt><trkpt lat="45.42812537870775" lon="9.233919402158598"><ele>101.0</ele><time>2026-04-11T08:14:57Z</time></trkpt><trkpt lat="45.428061304676916" lon="9.233955789192411"><ele>101.0</ele><time>2026-04-11T08:14:58Z</time></trkpt><trkpt lat="45.42801525115669" lon="9.234042285194587"><ele>100.99999999999999</ele><time>2026-04-11T08:14:59Z</time></trkpt><trkpt lat="45.4279920990037" lon="9.234146176032791"><ele>101.0</ele><time>2026-04-11T08:15:00Z</time></trkpt><trkpt lat="45.427985594680585" lon="9.234251415685293"><ele>100.83333333333333</ele><time>2026-04-11T08:15:01Z</time></trkpt><trkpt lat="45.42797952927544" lon="9.234373498200567"><ele>100.66666666666666</ele><time>2026-04-11T08:15:02Z</time></trkpt><trkpt lat="45.427973364673214" lon="9.234500497356164"><ele>100.5</ele><time>2026-04-11T08:15:03Z</time></trkpt><trkpt lat="45.42796229441897" lon="9.234639594814606"><ele>100.33333333333334</ele><time>2026-04-11T08:15:04Z</time></trkpt><trkpt lat="45.427954168533134" lon="9.234754963913767"><ele>100.16666666666667</ele><time>2026-04-11T08:15:05Z</time></trkpt><trkpt lat="45.427950120382775" lon="9.234847299243244"><ele>100.0</ele><time>2026-04-11T08:15:06Z</time></trkpt><trkpt lat="45.42792926856164" lon="9.234983770040726"><ele>101.2</ele><time>2026-04-11T08:15:07.999Z</time></trkpt><trkpt lat="45.42782631455253" lon="9.23507107358832"><ele>102.4</ele><time>2026-04-11T08:15:09.999Z</time></trkpt><trkpt lat="45.4277535459001" lon="9.235088080977667"><ele>103.6</ele><time>2026-04-11T08:15:10.999Z</time></trkpt><trkpt lat="45.427662828102164" lon="9.235100884905835"><ele>104.8</ele><time>2026-04-11T08:15:11.999Z</time></trkpt><trkpt lat="45.42755999752506" lon="9.235100665986891"><ele>106.0</ele><time>2026-04-11T08:15:12.999Z</time></trkpt><trkpt lat="45.42747304099487" lon="9.235106741879148"><ele>106.00000000000001</ele><time>2026-04-11T08:15:13.999Z</time></trkpt><trkpt lat="45.42740395706717" lon="9.235097790633718"><ele>106.0</ele><time>2026-04-11T08:15:14.999Z</time></trkpt><trkpt lat="45.42733617236977" lon="9.235056048793718"><ele>106.0</ele><time>2026-04-11T08:15:15.999Z</time></trkpt><trkpt lat="45.4272702869819" lon="9.2349944324747"><ele>106.0</ele><time>2026-04-11T08:15:16.999Z</time></trkpt><trkpt lat="45.4271945022349" lon="9.23492719160751"><ele>106.00000000000001</ele><time>2026-04-11T08:15:17.999Z</time></trkpt><trkpt lat="45.42711777805012" lon="9.234872449824705"><ele>106.0</ele><time>2026-04-11T08:15:18.999Z</time></trkpt><trkpt lat="45.42705591339559" lon="9.234835422828379"><ele>106.50000000000001</ele><time>2026-04-11T08:15:19.999Z</time></trkpt><trkpt lat="45.42698782515031" lon="9.23481737068305"><ele>107.0</ele><time>2026-04-11T08:15:20.999Z</time></trkpt><trkpt lat="45.42688491062724" lon="9.234773445397945"><ele>107.5</ele><time>2026-04-11T08:15:22.999Z</time></trkpt><trkpt lat="45.42681911786628" lon="9.234806268527509"><ele>108.0</ele><time>2026-04-11T08:15:24.999Z</time></trkpt><trkpt lat="45.426783376754685" lon="9.23490995612373"><ele>108.50000000000001</ele><time>2026-04-11T08:15:26.999Z</time></trkpt><trkpt lat="45.42682858735113" lon="9.235026787095098"><ele>109.0</ele><time>2026-04-11T08:15:28.999Z</time></trkpt><trkpt lat="45.42691270880815" lon="9.23515793656919"><ele>109.00000000000001</ele><time>2026-04-11T08:15:30.999Z</time></trkpt><trkpt lat="45.4269552124371" lon="9.235239881394103"><ele>109.0</ele><time>2026-04-11T08:15:31.999Z</time></trkpt><trkpt lat="45.4270017873655" lon="9.235322452255803"><ele>109.0</ele><time>2026-04-11T08:15:32.999Z</time></trkpt><trkpt lat="45.427045195398506" lon="9.23541328832159"><ele>109.0</ele><time>2026-04-11T08:15:33.999Z</time></trkpt><trkpt lat="45.427078398727055" lon="9.235496383905826"><ele>109.00000000000001</ele><time>2026-04-11T08:15:34.999Z</time></trkpt><trkpt lat="45.42707559438899" lon="9.235669383710558"><ele>109.0</ele><time>2026-04-11T08:15:36.999Z</time></trkpt><trkpt lat="45.42706507902591" lon="9.235759259142206"><ele>109.00000000000001</ele><time>2026-04-11T08:15:37.999Z</time></trkpt><trkpt lat="45.42704443320802" lon="9.235849499261027"><ele>109.0</ele><time>2026-04-11T08:15:38.999Z</time></trkpt><trkpt lat="45.42699445318379" lon="9.235934556476312"><ele>109.0</ele><time>2026-04-11T08:15:39.999Z</time></trkpt><trkpt lat="45.42694329711086" lon="9.236014637841693"><ele>109.0</ele><time>2026-04-11T08:15:40.999Z</time></trkpt><trkpt lat="45.426884085064344" lon="9.236145124673227"><ele>109.00000000000001</ele><time>2026-04-11T08:15:41.999Z</time></trkpt><trkpt lat="45.42683573983462" lon="9.236276215526964"><ele>109.0</ele><time>2026-04-11T08:15:42.999Z</time></trkpt><trkpt lat="45.4267877875277" lon="9.23639768654994"><ele>109.2</ele><time>2026-04-11T08:15:43.999Z</time></trkpt><trkpt lat="45.42674898895142" lon="9.236534899859633"><ele>109.4</ele><time>2026-04-11T08:15:44.999Z</time></trkpt><trkpt lat="45.42671737684393" lon="9.236675563397059"><ele>109.6</ele><time>2026-04-11T08:15:45.999Z</time></trkpt><trkpt lat="45.42669131793943" lon="9.236807821665202"><ele>109.8</ele><time>2026-04-11T08:15:46.999Z</time></trkpt><trkpt lat="45.42668001584634" lon="9.23695634747074"><ele>110.0</ele><time>2026-04-11T08:15:47.999Z</time></trkpt><trkpt lat="45.42666577817123" lon="9.237096336378206"><ele>110.0</ele><time>2026-04-11T08:15:48.999Z</time></trkpt><trkpt lat="45.42665257547027" lon="9.237230176451334"><ele>110.0</ele><time>2026-04-11T08:15:49.999Z</time></trkpt><trkpt lat="45.4266407474244" lon="9.237369867172093"><ele>110.0</ele><time>2026-04-11T08:15:50.999Z</time></trkpt><trkpt lat="45.42663545240159" lon="9.237510561342882"><ele>110.0</ele><time>2026-04-11T08:15:51.999Z</time></trkpt><trkpt lat="45.42662516559871" lon="9.237640496461403"><ele>110.0</ele><time>2026-04-11T08:15:52.999Z</time></trkpt><trkpt lat="45.42660302818981" lon="9.23775011123294"><ele>109.49999999999999</ele><time>2026-04-11T08:15:53.999Z</time></trkpt><trkpt lat="45.426561596349174" lon="9.237856613580355"><ele>109.0</ele><time>2026-04-11T08:15:54.999Z</time></trkpt><trkpt lat="45.42650659904647" lon="9.23795990338817"><ele>108.5</ele><time>2026-04-11T08:15:55.999Z</time></trkpt><trkpt lat="45.42643548345634" lon="9.238044750955936"><ele>108.0</ele><time>2026-04-11T08:15:56.999Z</time></trkpt><trkpt lat="45.426362638859295" lon="9.238109619498795"><ele>107.49999999999999</ele><time>2026-04-11T08:15:57.999Z</time></trkpt><trkpt lat="45.42629193138391" lon="9.23814105812508"><ele>107.0</ele><time>2026-04-11T08:15:58.999Z</time></trkpt><trkpt lat="45.42620708430527" lon="9.238145376589825"><ele>106.8</ele><time>2026-04-11T08:15:59.999Z</time></trkpt><trkpt lat="45.426110204441734" lon="9.238127240448174"><ele>106.6</ele><time>2026-04-11T08:16:00.999Z</time></trkpt><trkpt lat="45.42602084066586" lon="9.238109271559017"><ele>106.39999999999999</ele><time>2026-04-11T08:16:01.999Z</time></trkpt><trkpt lat="45.42591341902073" lon="9.238095020926487"><ele>106.19999999999999</ele><time>2026-04-11T08:16:02.999Z</time></trkpt><trkpt lat="45.42581584449805" lon="9.23805844712603"><ele>106.0</ele><time>2026-04-11T08:16:03.999Z</time></trkpt><trkpt lat="45.42573738562596" lon="9.238031176776166"><ele>106.00000000000001</ele><time>2026-04-11T08:16:04.999Z</time></trkpt><trkpt lat="45.425664250271055" lon="9.238011406122515"><ele>106.0</ele><time>2026-04-11T08:16:05.999Z</time></trkpt><trkpt lat="45.42559677455335" lon="9.238010108855406"><ele>106.0</ele><time>2026-04-11T08:16:06.999Z</time></trkpt><trkpt lat="45.425481082744106" lon="9.238094013070489"><ele>106.0</ele><time>2026-04-11T08:16:08.999Z</time></trkpt><trkpt lat="45.42542532995722" lon="9.238164785605562"><ele>106.00000000000001</ele><time>2026-04-11T08:16:09.999Z</time></trkpt><trkpt lat="45.425376792949635" lon="9.238251843416553"><ele>106.0</ele><time>2026-04-11T08:16:10.999Z</time></trkpt><trkpt lat="45.42535256983844" lon="9.238352751153137"><ele>105.83333333333334</ele><time>2026-04-11T08:16:11.999Z</time></trkpt><trkpt lat="45.4253376548784" lon="9.238478780639522"><ele>105.66666666666667</ele><time>2026-04-11T08:16:12.999Z</time></trkpt><trkpt lat="45.42533934563425" lon="9.238604775573334"><ele>105.5</ele><time>2026-04-11T08:16:13.999Z</time></trkpt><trkpt lat="45.425343865042095" lon="9.23871462958564"><ele>105.33333333333334</ele><time>2026-04-11T08:16:15Z</time></trkpt><trkpt lat="45.42534334387116" lon="9.2388277196228"><ele>105.16666666666667</ele><time>2026-04-11T08:16:16Z</time></trkpt><trkpt lat="45.425344358984894" lon="9.238956513656262"><ele>105.0</ele><time>2026-04-11T08:16:17Z</time></trkpt><trkpt lat="45.42533753598917" lon="9.239097907456635"><ele>104.5</ele><time>2026-04-11T08:16:18Z</time></trkpt><trkpt lat="45.42531789688444" lon="9.239237044178308"><ele>104.0</ele><time>2026-04-11T08:16:19Z</time></trkpt><trkpt lat="45.425297811660556" lon="9.23935291956497"><ele>103.5</ele><time>2026-04-11T08:16:20Z</time></trkpt><trkpt lat="45.425282576572044" lon="9.239456432440036"><ele>103.0</ele><time>2026-04-11T08:16:21Z</time></trkpt><trkpt lat="45.425244396002036" lon="9.239597954380335"><ele>102.5</ele><time>2026-04-11T08:16:23Z</time></trkpt><trkpt lat="45.42520318969583" lon="9.23969590686218"><ele>102.0</ele><time>2026-04-11T08:16:25Z</time></trkpt><trkpt lat="45.42521524029444" lon="9.23979025777245"><ele>102.19999999999999</ele><time>2026-04-11T08:16:27Z</time></trkpt><trkpt lat="45.42529263207008" lon="9.239884416845815"><ele>102.4</ele><time>2026-04-11T08:16:29Z</time></trkpt><trkpt lat="45.42527511052965" lon="9.239988088149865"><ele>102.6</ele><time>2026-04-11T08:16:40Z</time></trkpt><trkpt lat="45.42516233713408" lon="9.240007526066602"><ele>102.80000000000001</ele><time>2026-04-11T08:16:43Z</time></trkpt><trkpt lat="45.42508028555554" lon="9.239988214399494"><ele>103.0</ele><time>2026-04-11T08:16:44Z</time></trkpt><trkpt lat="45.42500553252728" lon="9.239965790934846"><ele>103.0</ele><time>2026-04-11T08:16:45Z</time></trkpt><trkpt lat="45.424907773281596" lon="9.239931562550153"><ele>103.0</ele><time>2026-04-11T08:16:46Z</time></trkpt><trkpt lat="45.42479090330482" lon="9.239906283416833"><ele>103.0</ele><time>2026-04-11T08:16:47Z</time></trkpt><trkpt lat="45.4246699518101" lon="9.239876125821137"><ele>103.0</ele><time>2026-04-11T08:16:48Z</time></trkpt><trkpt lat="45.42455205097036" lon="9.239855489548933"><ele>103.25</ele><time>2026-04-11T08:16:49Z</time></trkpt><trkpt lat="45.424422807489364" lon="9.239823460801643"><ele>103.5</ele><time>2026-04-11T08:16:50Z</time></trkpt><trkpt lat="45.42429324032983" lon="9.23979087468139"><ele>103.75</ele><time>2026-04-11T08:16:51Z</time></trkpt><trkpt lat="45.42415929656538" lon="9.239757699545528"><ele>104.0</ele><time>2026-04-11T08:16:52Z</time></trkpt><trkpt lat="45.42402654633544" lon="9.239723413626336"><ele>104.0</ele><time>2026-04-11T08:16:53Z</time></trkpt><trkpt lat="45.42389634140946" lon="9.239693955393802"><ele>104.0</ele><time>2026-04-11T08:16:54Z</time></trkpt><trkpt lat="45.42376547944022" lon="9.23965758998863"><ele>104.0</ele><time>2026-04-11T08:16:55Z</time></trkpt><trkpt lat="45.4236277773901" lon="9.239619399931632"><ele>104.0</ele><time>2026-04-11T08:16:56Z</time></trkpt><trkpt lat="45.423487976809746" lon="9.239590124460106"><ele>103.75</ele><time>2026-04-11T08:16:57Z</time></trkpt><trkpt lat="45.42334318313797" lon="9.239558608197862"><ele>103.5</ele><time>2026-04-11T08:16:58Z</time></trkpt><trkpt lat="45.42319883680938" lon="9.239519688611285"><ele>103.25</ele><time>2026-04-11T08:16:59Z</time></trkpt><trkpt lat="45.42305338827757" lon="9.23948431157654"><ele>103.0</ele><time>2026-04-11T08:17:00Z</time></trkpt><trkpt lat="45.42290958820939" lon="9.23944806590187"><ele>103.0</ele><time>2026-04-11T08:17:01Z</time></trkpt><trkpt lat="45.42275875457459" lon="9.239410784112273"><ele>103.0</ele><time>2026-04-11T08:17:02Z</time></trkpt><trkpt lat="45.4226057580484" lon="9.239370681438913"><ele>103.0</ele><time>2026-04-11T08:17:03Z</time></trkpt><trkpt lat="45.42244681530162" lon="9.23933364007886"><ele>103.0</ele><time>2026-04-11T08:17:04Z</time></trkpt><trkpt lat="45.4222883594398" lon="9.239295019462636"><ele>103.0</ele><time>2026-04-11T08:17:05Z</time></trkpt><trkpt lat="45.422137034079704" lon="9.23925908298318"><ele>103.0</ele><time>2026-04-11T08:17:06Z</time></trkpt><trkpt lat="45.42198165718102" lon="9.239220472466746"><ele>103.66666666666667</ele><time>2026-04-11T08:17:07Z</time></trkpt><trkpt lat="45.42182599902349" lon="9.23918477183325"><ele>104.33333333333334</ele><time>2026-04-11T08:17:08Z</time></trkpt><trkpt lat="45.42167237145274" lon="9.239145079753875"><ele>105.0</ele><time>2026-04-11T08:17:09Z</time></trkpt><trkpt lat="45.42151745467672" lon="9.239110104552246"><ele>105.0</ele><time>2026-04-11T08:17:10Z</time></trkpt><trkpt lat="45.4213662195818" lon="9.239071881803751"><ele>105.0</ele><time>2026-04-11T08:17:11Z</time></trkpt><trkpt lat="45.421224775829906" lon="9.239034104290441"><ele>105.0</ele><time>2026-04-11T08:17:12Z</time></trkpt><trkpt lat="45.421093996305046" lon="9.239004818296426"><ele>105.0</ele><time>2026-04-11T08:17:13Z</time></trkpt><trkpt lat="45.42097552475764" lon="9.238976769424664"><ele>104.4</ele><time>2026-04-11T08:17:14Z</time></trkpt><trkpt lat="45.42086888470817" lon="9.23895014479012"><ele>103.8</ele><time>2026-04-11T08:17:15Z</time></trkpt><trkpt lat="45.42077112365145" lon="9.23892824117148"><ele>103.19999999999999</ele><time>2026-04-11T08:17:16Z</time></trkpt><trkpt lat="45.42068205143092" lon="9.238909268399125"><ele>102.6</ele><time>2026-04-11T08:17:17Z</time></trkpt><trkpt lat="45.42059940361506" lon="9.238892076616379"><ele>102.0</ele><time>2026-04-11T08:17:18Z</time></trkpt><trkpt lat="45.42052632592218" lon="9.23886704809835"><ele>102.16666666666667</ele><time>2026-04-11T08:17:19Z</time></trkpt><trkpt lat="45.42046818438903" lon="9.238812520753987"><ele>102.33333333333334</ele><time>2026-04-11T08:17:19.999Z</time></trkpt><trkpt lat="45.420425454087" lon="9.238741762226704"><ele>102.5</ele><time>2026-04-11T08:17:20.999Z</time></trkpt><trkpt lat="45.42032991231317" lon="9.238665962604513"><ele>102.66666666666667</ele><time>2026-04-11T08:17:22.999Z</time></trkpt><trkpt lat="45.42025746288615" lon="9.238690165822677"><ele>102.83333333333334</ele><time>2026-04-11T08:17:23.999Z</time></trkpt><trkpt lat="45.420181659906575" lon="9.23873652261269"><ele>103.0</ele><time>2026-04-11T08:17:24.999Z</time></trkpt><trkpt lat="45.420093239143235" lon="9.238755217210135"><ele>103.0</ele><time>2026-04-11T08:17:25.999Z</time></trkpt><trkpt lat="45.4199993471729" lon="9.238731710798694"><ele>103.0</ele><time>2026-04-11T08:17:26.999Z</time></trkpt><trkpt lat="45.41990243691802" lon="9.238677909843423"><ele>103.0</ele><time>2026-04-11T08:17:27.999Z</time></trkpt><trkpt lat="45.419804398876394" lon="9.238615319623081"><ele>103.0</ele><time>2026-04-11T08:17:28.999Z</time></trkpt><trkpt lat="45.419697259405766" lon="9.238534764526586"><ele>103.0</ele><time>2026-04-11T08:17:29.999Z</time></trkpt><trkpt lat="45.41958449539535" lon="9.238436157628817"><ele>103.0</ele><time>2026-04-11T08:17:30.999Z</time></trkpt><trkpt lat="45.41946397674057" lon="9.238330188910266"><ele>103.0</ele><time>2026-04-11T08:17:31.999Z</time></trkpt><trkpt lat="45.419342880438414" lon="9.238222134080731"><ele>103.0</ele><time>2026-04-11T08:17:32.999Z</time></trkpt><trkpt lat="45.419223798361" lon="9.238108561317231"><ele>103.0</ele><time>2026-04-11T08:17:33.999Z</time></trkpt><trkpt lat="45.41911734647934" lon="9.238007910876322"><ele>103.0</ele><time>2026-04-11T08:17:34.999Z</time></trkpt><trkpt lat="45.4190220010332" lon="9.23792052321825"><ele>103.0</ele><time>2026-04-11T08:17:35.999Z</time></trkpt><trkpt lat="45.41892837488055" lon="9.237835987364944"><ele>103.0</ele><time>2026-04-11T08:17:36.999Z</time></trkpt><trkpt lat="45.418844475816975" lon="9.237759635716085"><ele>103.0</ele><time>2026-04-11T08:17:37.999Z</time></trkpt><trkpt lat="45.41876691148102" lon="9.237683646726449"><ele>103.0</ele><time>2026-04-11T08:17:38.999Z</time></trkpt><trkpt lat="45.41867350320778" lon="9.237598435992469"><ele>103.0</ele><time>2026-04-11T08:17:39.999Z</time></trkpt><trkpt lat="45.418569142180075" lon="9.237503710103145"><ele>103.0</ele><time>2026-04-11T08:17:40.999Z</time></trkpt><trkpt lat="45.41846378979901" lon="9.237398503108958"><ele>103.0</ele><time>2026-04-11T08:17:41.999Z</time></trkpt><trkpt lat="45.41837064606675" lon="9.237306722190336"><ele>103.0</ele><time>2026-04-11T08:17:42.999Z</time></trkpt><trkpt lat="45.41829130976762" lon="9.237226261918826"><ele>102.5</ele><time>2026-04-11T08:17:43.999Z</time></trkpt><trkpt lat="45.4182147785498" lon="9.237149422742203"><ele>102.0</ele><time>2026-04-11T08:17:44.999Z</time></trkpt><trkpt lat="45.41812633255162" lon="9.237061083853657"><ele>101.5</ele><time>2026-04-11T08:17:45.999Z</time></trkpt><trkpt lat="45.41802185384497" lon="9.236962376340765"><ele>101.0</ele><time>2026-04-11T08:17:46.999Z</time></trkpt><trkpt lat="45.417915899491035" lon="9.236857077180735"><ele>101.0</ele><time>2026-04-11T08:17:47.999Z</time></trkpt><trkpt lat="45.417801927868396" lon="9.23675325993854"><ele>101.0</ele><time>2026-04-11T08:17:48.999Z</time></trkpt><trkpt lat="45.417682545849466" lon="9.236638822700712"><ele>101.0</ele><time>2026-04-11T08:17:49.999Z</time></trkpt><trkpt lat="45.41756746705854" lon="9.236530420702522"><ele>101.0</ele><time>2026-04-11T08:17:50.999Z</time></trkpt><trkpt lat="45.417461752887576" lon="9.23642577325031"><ele>101.0</ele><time>2026-04-11T08:17:51.999Z</time></trkpt><trkpt lat="45.41736495073751" lon="9.236331626404654"><ele>101.0</ele><time>2026-04-11T08:17:52.999Z</time></trkpt><trkpt lat="45.417273070554955" lon="9.23624251182212"><ele>101.0</ele><time>2026-04-11T08:17:53.999Z</time></trkpt><trkpt lat="45.41718825296169" lon="9.236161702182116"><ele>101.0</ele><time>2026-04-11T08:17:54.999Z</time></trkpt><trkpt lat="45.41709812226009" lon="9.236070752496786"><ele>101.0</ele><time>2026-04-11T08:17:55.999Z</time></trkpt><trkpt lat="45.417004333173026" lon="9.23598076979031"><ele>101.0</ele><time>2026-04-11T08:17:56.999Z</time></trkpt><trkpt lat="45.41690847698154" lon="9.235886021100283"><ele>101.0</ele><time>2026-04-11T08:17:57.999Z</time></trkpt><trkpt lat="45.416811150321095" lon="9.235792062674971"><ele>101.0</ele><time>2026-04-11T08:17:58.999Z</time></trkpt><trkpt lat="45.41671213860922" lon="9.235694544477179"><ele>101.0</ele><time>2026-04-11T08:17:59.999Z</time></trkpt><trkpt lat="45.41661745282295" lon="9.235602380335388"><ele>101.0</ele><time>2026-04-11T08:18:00.999Z</time></trkpt><trkpt lat="45.416513740715985" lon="9.23549773500235"><ele>101.0</ele><time>2026-04-11T08:18:01.999Z</time></trkpt><trkpt lat="45.41640308185742" lon="9.235386303793852"><ele>101.0</ele><time>2026-04-11T08:18:02.999Z</time></trkpt><trkpt lat="45.41629445091178" lon="9.23527491114461"><ele>101.0</ele><time>2026-04-11T08:18:03.999Z</time></trkpt><trkpt lat="45.4161817834722" lon="9.235156503559464"><ele>101.25</ele><time>2026-04-11T08:18:04.999Z</time></trkpt><trkpt lat="45.416073718224325" lon="9.235028860830017"><ele>101.5</ele><time>2026-04-11T08:18:05.999Z</time></trkpt><trkpt lat="45.41596810356921" lon="9.23490236329111"><ele>101.75</ele><time>2026-04-11T08:18:06.999Z</time></trkpt><trkpt lat="45.41586749902784" lon="9.234776820476055"><ele>102.0</ele><time>2026-04-11T08:18:07.999Z</time></trkpt><trkpt lat="45.4157748977173" lon="9.234658370911857"><ele>102.0</ele><time>2026-04-11T08:18:08.999Z</time></trkpt><trkpt lat="45.41568757528688" lon="9.234551213802389"><ele>102.0</ele><time>2026-04-11T08:18:09.999Z</time></trkpt><trkpt lat="45.415598372946576" lon="9.234443272570235"><ele>102.0</ele><time>2026-04-11T08:18:10.999Z</time></trkpt><trkpt lat="45.415504241477734" lon="9.234328306055753"><ele>102.0</ele><time>2026-04-11T08:18:11.999Z</time></trkpt><trkpt lat="45.415408119060366" lon="9.234212983586794"><ele>102.0</ele><time>2026-04-11T08:18:12.999Z</time></trkpt><trkpt lat="45.415310925414026" lon="9.234088713174073"><ele>102.0</ele><time>2026-04-11T08:18:13.999Z</time></trkpt><trkpt lat="45.41521668818644" lon="9.233957837806765"><ele>102.0</ele><time>2026-04-11T08:18:14.999Z</time></trkpt><trkpt lat="45.41511861332194" lon="9.233824402678067"><ele>102.0</ele><time>2026-04-11T08:18:15.999Z</time></trkpt><trkpt lat="45.41502242804481" lon="9.23367686368824"><ele>102.75</ele><time>2026-04-11T08:18:16.999Z</time></trkpt><trkpt lat="45.414931772245374" lon="9.23351781840821"><ele>103.5</ele><time>2026-04-11T08:18:17.999Z</time></trkpt><trkpt lat="45.41484625724863" lon="9.233347557719433"><ele>104.25</ele><time>2026-04-11T08:18:18.999Z</time></trkpt><trkpt lat="45.4147647570602" lon="9.233173473780104"><ele>105.0</ele><time>2026-04-11T08:18:19.999Z</time></trkpt><trkpt lat="45.414672683216416" lon="9.233012002571593"><ele>104.75</ele><time>2026-04-11T08:18:21.001Z</time></trkpt><trkpt lat="45.4145794450098" lon="9.23286183476488"><ele>104.5</ele><time>2026-04-11T08:18:22.001Z</time></trkpt><trkpt lat="45.41449651247656" lon="9.232707841159357"><ele>104.25</ele><time>2026-04-11T08:18:23.001Z</time></trkpt><trkpt lat="45.414392418428974" lon="9.232560757485896"><ele>104.0</ele><time>2026-04-11T08:18:24.001Z</time></trkpt><trkpt lat="45.41430022562469" lon="9.23240918304842"><ele>103.0</ele><time>2026-04-11T08:18:25.001Z</time></trkpt><trkpt lat="45.41421036951742" lon="9.232258512782836"><ele>102.0</ele><time>2026-04-11T08:18:26Z</time></trkpt><trkpt lat="45.41412315998783" lon="9.232107889105068"><ele>101.0</ele><time>2026-04-11T08:18:27.001Z</time></trkpt><trkpt lat="45.414040283876965" lon="9.231967778658232"><ele>100.0</ele><time>2026-04-11T08:18:28Z</time></trkpt><trkpt lat="45.41395989841133" lon="9.231832401776334"><ele>100.0</ele><time>2026-04-11T08:18:29Z</time></trkpt><trkpt lat="45.413881097637464" lon="9.231699253796977"><ele>100.0</ele><time>2026-04-11T08:18:30Z</time></trkpt><trkpt lat="45.413804061799695" lon="9.231566798540532"><ele>100.0</ele><time>2026-04-11T08:18:31Z</time></trkpt><trkpt lat="45.41372812793008" lon="9.231443318365711"><ele>100.0</ele><time>2026-04-11T08:18:32Z</time></trkpt><trkpt lat="45.41365269282009" lon="9.23133358261344"><ele>100.4</ele><time>2026-04-11T08:18:33Z</time></trkpt><trkpt lat="45.41358616305366" lon="9.23123960973645"><ele>100.8</ele><time>2026-04-11T08:18:34Z</time></trkpt><trkpt lat="45.413527761175416" lon="9.231156979415521"><ele>101.19999999999999</ele><time>2026-04-11T08:18:35Z</time></trkpt><trkpt lat="45.41346939167669" lon="9.231078984423984"><ele>101.6</ele><time>2026-04-11T08:18:36Z</time></trkpt><trkpt lat="45.41339759692494" lon="9.230988374800715"><ele>102.0</ele><time>2026-04-11T08:18:37Z</time></trkpt><trkpt lat="45.413330178187174" lon="9.230886632609486"><ele>102.0</ele><time>2026-04-11T08:18:38Z</time></trkpt><trkpt lat="45.41325762257101" lon="9.230780319851654"><ele>102.0</ele><time>2026-04-11T08:18:39Z</time></trkpt><trkpt lat="45.413173982819" lon="9.230663282032708"><ele>102.0</ele><time>2026-04-11T08:18:40Z</time></trkpt><trkpt lat="45.41308397989393" lon="9.230533467116322"><ele>102.0</ele><time>2026-04-11T08:18:41Z</time></trkpt><trkpt lat="45.412997872276065" lon="9.230382694457493"><ele>102.25</ele><time>2026-04-11T08:18:42Z</time></trkpt><trkpt lat="45.412911264134365" lon="9.230213820732033"><ele>102.5</ele><time>2026-04-11T08:18:43Z</time></trkpt><trkpt lat="45.41283038445062" lon="9.230042132514463"><ele>102.75</ele><time>2026-04-11T08:18:44Z</time></trkpt><trkpt lat="45.4127464876392" lon="9.229867872231527"><ele>103.0</ele><time>2026-04-11T08:18:45Z</time></trkpt><trkpt lat="45.41266162470981" lon="9.229695152917655"><ele>102.5</ele><time>2026-04-11T08:18:46Z</time></trkpt><trkpt lat="45.41257645576039" lon="9.229513293728713"><ele>102.0</ele><time>2026-04-11T08:18:47Z</time></trkpt><trkpt lat="45.41249954567295" lon="9.229338554986063"><ele>101.5</ele><time>2026-04-11T08:18:48Z</time></trkpt><trkpt lat="45.41241826953915" lon="9.229167645789467"><ele>101.0</ele><time>2026-04-11T08:18:49Z</time></trkpt><trkpt lat="45.412347721722774" lon="9.229002606314866"><ele>101.25</ele><time>2026-04-11T08:18:50Z</time></trkpt><trkpt lat="45.41227246826626" lon="9.228836008597865"><ele>101.5</ele><time>2026-04-11T08:18:51Z</time></trkpt><trkpt lat="45.41219552410151" lon="9.228669920647667"><ele>101.75</ele><time>2026-04-11T08:18:52Z</time></trkpt><trkpt lat="45.41211416202021" lon="9.228497943210371"><ele>102.0</ele><time>2026-04-11T08:18:53Z</time></trkpt><trkpt lat="45.4120298220624" lon="9.228320270546293"><ele>101.75</ele><time>2026-04-11T08:18:54Z</time></trkpt><trkpt lat="45.411947624292516" lon="9.228149823952618"><ele>101.5</ele><time>2026-04-11T08:18:55Z</time></trkpt><trkpt lat="45.41186360618194" lon="9.227986688712349"><ele>101.25</ele><time>2026-04-11T08:18:56Z</time></trkpt><trkpt lat="45.41178134868383" lon="9.227828270202991"><ele>101.0</ele><time>2026-04-11T08:18:57Z</time></trkpt><trkpt lat="45.411681887978574" lon="9.227622317665983"><ele>101.0</ele><time>2026-04-11T08:18:58Z</time></trkpt><trkpt lat="45.41159412240856" lon="9.22744439285062"><ele>101.0</ele><time>2026-04-11T08:18:59Z</time></trkpt><trkpt lat="45.41151352574765" lon="9.227252593701174"><ele>101.0</ele><time>2026-04-11T08:19:00Z</time></trkpt><trkpt lat="45.4114396813051" lon="9.22706184935823"><ele>101.0</ele><time>2026-04-11T08:19:01Z</time></trkpt><trkpt lat="45.41136778169128" lon="9.226874081530472"><ele>101.0</ele><time>2026-04-11T08:19:02Z</time></trkpt><trkpt lat="45.41129286236858" lon="9.22668942655812"><ele>101.0</ele><time>2026-04-11T08:19:03Z</time></trkpt><trkpt lat="45.41121570610912" lon="9.226495549769295"><ele>101.66666666666666</ele><time>2026-04-11T08:19:04Z</time></trkpt><trkpt lat="45.411127669987444" lon="9.226310798574481"><ele>102.33333333333334</ele><time>2026-04-11T08:19:05Z</time></trkpt><trkpt lat="45.41103524781181" lon="9.226126368822044"><ele>103.0</ele><time>2026-04-11T08:19:06Z</time></trkpt><trkpt lat="45.410939283950604" lon="9.22594164506391"><ele>103.0</ele><time>2026-04-11T08:19:07Z</time></trkpt><trkpt lat="45.41084738049885" lon="9.225746334537153"><ele>103.0</ele><time>2026-04-11T08:19:08Z</time></trkpt><trkpt lat="45.41076645476618" lon="9.225549387939065"><ele>103.0</ele><time>2026-04-11T08:19:09Z</time></trkpt><trkpt lat="45.410682865695684" lon="9.225344742023625"><ele>103.0</ele><time>2026-04-11T08:19:10Z</time></trkpt><trkpt lat="45.4105944843515" lon="9.22514772400278"><ele>103.0</ele><time>2026-04-11T08:19:11Z</time></trkpt><trkpt lat="45.410507159592854" lon="9.22495811301116"><ele>103.0</ele><time>2026-04-11T08:19:12Z</time></trkpt><trkpt lat="45.41041144909796" lon="9.22476809560496"><ele>103.33333333333334</ele><time>2026-04-11T08:19:13Z</time></trkpt><trkpt lat="45.41031574225735" lon="9.224575547631238"><ele>103.66666666666666</ele><time>2026-04-11T08:19:14Z</time></trkpt><trkpt lat="45.41022487561297" lon="9.224383304137955"><ele>104.0</ele><time>2026-04-11T08:19:15Z</time></trkpt><trkpt lat="45.41013572031196" lon="9.224193553352816"><ele>104.0</ele><time>2026-04-11T08:19:16Z</time></trkpt><trkpt lat="45.41004781659726" lon="9.224017946990035"><ele>104.0</ele><time>2026-04-11T08:19:17Z</time></trkpt><trkpt lat="45.40996751584317" lon="9.223854961572693"><ele>104.0</ele><time>2026-04-11T08:19:18Z</time></trkpt><trkpt lat="45.40989686913603" lon="9.223694165918477"><ele>104.0</ele><time>2026-04-11T08:19:19Z</time></trkpt><trkpt lat="45.40983216271602" lon="9.22356526885317"><ele>103.99999999999999</ele><time>2026-04-11T08:19:20Z</time></trkpt><trkpt lat="45.40978001193383" lon="9.223437320449463"><ele>104.0</ele><time>2026-04-11T08:19:21Z</time></trkpt><trkpt lat="45.40974237017161" lon="9.223345522305193"><ele>104.0</ele><time>2026-04-11T08:19:22Z</time></trkpt><trkpt lat="45.40970405270583" lon="9.223256152750361"><ele>104.0</ele><time>2026-04-11T08:19:23Z</time></trkpt><trkpt lat="45.409661357164715" lon="9.22316365959609"><ele>103.99999999999999</ele><time>2026-04-11T08:19:24Z</time></trkpt><trkpt lat="45.40959896952285" lon="9.223099488113858"><ele>104.0</ele><time>2026-04-11T08:19:25Z</time></trkpt><trkpt lat="45.409504365513904" lon="9.223122462118232"><ele>104.5</ele><time>2026-04-11T08:19:26Z</time></trkpt><trkpt lat="45.40943755023833" lon="9.223223166219885"><ele>105.0</ele><time>2026-04-11T08:19:27Z</time></trkpt><trkpt lat="45.40938813492549" lon="9.223354845779287"><ele>105.5</ele><time>2026-04-11T08:19:28Z</time></trkpt><trkpt lat="45.40933087584324" lon="9.223504172671229"><ele>106.0</ele><time>2026-04-11T08:19:28.999Z</time></trkpt><trkpt lat="45.409261754831064" lon="9.223665832256364"><ele>106.0</ele><time>2026-04-11T08:19:29.999Z</time></trkpt><trkpt lat="45.40917943981078" lon="9.223831754206959"><ele>106.0</ele><time>2026-04-11T08:19:30.999Z</time></trkpt><trkpt lat="45.40909236768344" lon="9.224002309135264"><ele>106.0</ele><time>2026-04-11T08:19:31.999Z</time></trkpt><trkpt lat="45.40898710773065" lon="9.224184317310177"><ele>105.66666666666667</ele><time>2026-04-11T08:19:32.999Z</time></trkpt><trkpt lat="45.40886922653555" lon="9.224352300159378"><ele>105.33333333333334</ele><time>2026-04-11T08:19:33.999Z</time></trkpt><trkpt lat="45.40875451170237" lon="9.224518043775277"><ele>105.0</ele><time>2026-04-11T08:19:34.999Z</time></trkpt><trkpt lat="45.40863903672122" lon="9.224692528838231"><ele>104.66666666666666</ele><time>2026-04-11T08:19:35.999Z</time></trkpt><trkpt lat="45.40852009138024" lon="9.224871555395975"><ele>104.33333333333333</ele><time>2026-04-11T08:19:36.999Z</time></trkpt><trkpt lat="45.40839409110707" lon="9.225054081202748"><ele>104.0</ele><time>2026-04-11T08:19:37.999Z</time></trkpt><trkpt lat="45.40825375378544" lon="9.225234040176215"><ele>104.0</ele><time>2026-04-11T08:19:38.999Z</time></trkpt><trkpt lat="45.40810725523337" lon="9.22540721270957"><ele>104.0</ele><time>2026-04-11T08:19:39.999Z</time></trkpt><trkpt lat="45.407948653825116" lon="9.225567739584577"><ele>104.0</ele><time>2026-04-11T08:19:40.999Z</time></trkpt><trkpt lat="45.407789105644945" lon="9.225719845337952"><ele>104.66666666666666</ele><time>2026-04-11T08:19:41.999Z</time></trkpt><trkpt lat="45.40762892436201" lon="9.225893684443399"><ele>105.33333333333334</ele><time>2026-04-11T08:19:42.999Z</time></trkpt><trkpt lat="45.40749544098361" lon="9.226087333058167"><ele>106.0</ele><time>2026-04-11T08:19:43.999Z</time></trkpt><trkpt lat="45.40738459201753" lon="9.226293538630284"><ele>105.33333333333334</ele><time>2026-04-11T08:19:44.999Z</time></trkpt><trkpt lat="45.4072900901278" lon="9.226503967169897"><ele>104.66666666666666</ele><time>2026-04-11T08:19:45.999Z</time></trkpt><trkpt lat="45.40718053941545" lon="9.226697166152663"><ele>104.0</ele><time>2026-04-11T08:19:46.999Z</time></trkpt><trkpt lat="45.407050959066105" lon="9.226865375078003"><ele>104.0</ele><time>2026-04-11T08:19:47.999Z</time></trkpt><trkpt lat="45.406913500003135" lon="9.22701750669107"><ele>104.0</ele><time>2026-04-11T08:19:48.999Z</time></trkpt><trkpt lat="45.40677937060738" lon="9.227175694501646"><ele>104.0</ele><time>2026-04-11T08:19:49.999Z</time></trkpt><trkpt lat="45.40665128079505" lon="9.227330949646733"><ele>103.75</ele><time>2026-04-11T08:19:50.999Z</time></trkpt><trkpt lat="45.406530320279714" lon="9.227460234549927"><ele>103.5</ele><time>2026-04-11T08:19:51.999Z</time></trkpt><trkpt lat="45.40642222952795" lon="9.227582677217159"><ele>103.25</ele><time>2026-04-11T08:19:52.999Z</time></trkpt><trkpt lat="45.40630508694492" lon="9.22772360096959"><ele>103.0</ele><time>2026-04-11T08:19:53.999Z</time></trkpt><trkpt lat="45.40617738508708" lon="9.227883200307064"><ele>103.0</ele><time>2026-04-11T08:19:54.999Z</time></trkpt><trkpt lat="45.406061682505914" lon="9.228058519912192"><ele>103.0</ele><time>2026-04-11T08:19:55.999Z</time></trkpt><trkpt lat="45.4059504187293" lon="9.22824429328473"><ele>103.0</ele><time>2026-04-11T08:19:56.999Z</time></trkpt><trkpt lat="45.40582789566631" lon="9.228434697969538"><ele>103.0</ele><time>2026-04-11T08:19:57.999Z</time></trkpt><trkpt lat="45.405688041304934" lon="9.228595600030326"><ele>103.0</ele><time>2026-04-11T08:19:58.999Z</time></trkpt><trkpt lat="45.405537673285565" lon="9.228732545006086"><ele>103.0</ele><time>2026-04-11T08:19:59.999Z</time></trkpt><trkpt lat="45.405379209223476" lon="9.22884793626212"><ele>103.33333333333334</ele><time>2026-04-11T08:20:00.999Z</time></trkpt><trkpt lat="45.40521897899161" lon="9.228937631881184"><ele>103.66666666666666</ele><time>2026-04-11T08:20:01.999Z</time></trkpt><trkpt lat="45.40505194434024" lon="9.228971855887892"><ele>104.0</ele><time>2026-04-11T08:20:02.999Z</time></trkpt><trkpt lat="45.40488028381129" lon="9.228996841392116"><ele>104.0</ele><time>2026-04-11T08:20:03.999Z</time></trkpt><trkpt lat="45.40470598698028" lon="9.229010336650644"><ele>104.0</ele><time>2026-04-11T08:20:04.999Z</time></trkpt><trkpt lat="45.404529850001325" lon="9.229031649648405"><ele>104.0</ele><time>2026-04-11T08:20:05.999Z</time></trkpt><trkpt lat="45.4043538413771" lon="9.229073700781877"><ele>103.66666666666666</ele><time>2026-04-11T08:20:06.999Z</time></trkpt><trkpt lat="45.404183381890135" lon="9.229137853004321"><ele>103.33333333333334</ele><time>2026-04-11T08:20:07.999Z</time></trkpt><trkpt lat="45.404018978241645" lon="9.229235706492219"><ele>103.0</ele><time>2026-04-11T08:20:08.999Z</time></trkpt><trkpt lat="45.403865172372264" lon="9.229373392087727"><ele>102.66666666666667</ele><time>2026-04-11T08:20:09.999Z</time></trkpt><trkpt lat="45.403719684908815" lon="9.229527473585144"><ele>102.33333333333334</ele><time>2026-04-11T08:20:10.999Z</time></trkpt><trkpt lat="45.40357379001326" lon="9.229668858837986"><ele>102.0</ele><time>2026-04-11T08:20:11.999Z</time></trkpt><trkpt lat="45.40342358803144" lon="9.229804164819262"><ele>102.33333333333334</ele><time>2026-04-11T08:20:12.999Z</time></trkpt><trkpt lat="45.403267002875346" lon="9.229907067845936"><ele>102.66666666666667</ele><time>2026-04-11T08:20:13.999Z</time></trkpt><trkpt lat="45.403097171242706" lon="9.22998736406695"><ele>103.0</ele><time>2026-04-11T08:20:14.999Z</time></trkpt><trkpt lat="45.402944199935405" lon="9.230028796673796"><ele>103.33333333333334</ele><time>2026-04-11T08:20:15.999Z</time></trkpt><trkpt lat="45.40278143972317" lon="9.230090159097127"><ele>103.66666666666666</ele><time>2026-04-11T08:20:16.999Z</time></trkpt><trkpt lat="45.40261907231438" lon="9.230151434446082"><ele>104.0</ele><time>2026-04-11T08:20:17.999Z</time></trkpt><trkpt lat="45.40245875149371" lon="9.230212592160107"><ele>104.0</ele><time>2026-04-11T08:20:18.999Z</time></trkpt><trkpt lat="45.40229016247344" lon="9.230273698237502"><ele>104.0</ele><time>2026-04-11T08:20:19.999Z</time></trkpt><trkpt lat="45.40212151863601" lon="9.230334077000188"><ele>104.0</ele><time>2026-04-11T08:20:20.999Z</time></trkpt><trkpt lat="45.40195905900169" lon="9.230396681116998"><ele>103.75</ele><time>2026-04-11T08:20:21.999Z</time></trkpt><trkpt lat="45.40181162854711" lon="9.230453042733618"><ele>103.5</ele><time>2026-04-11T08:20:22.999Z</time></trkpt><trkpt lat="45.40167602681197" lon="9.23051105338327"><ele>103.25</ele><time>2026-04-11T08:20:23.999Z</time></trkpt><trkpt lat="45.40153856203033" lon="9.230600265742853"><ele>103.0</ele><time>2026-04-11T08:20:24.999Z</time></trkpt><trkpt lat="45.40141967450427" lon="9.230716375010552"><ele>103.0</ele><time>2026-04-11T08:20:25.999Z</time></trkpt><trkpt lat="45.40130972412853" lon="9.230863235630201"><ele>103.0</ele><time>2026-04-11T08:20:27Z</time></trkpt><trkpt lat="45.401198261657115" lon="9.231005648083581"><ele>103.0</ele><time>2026-04-11T08:20:28Z</time></trkpt><trkpt lat="45.40107365844345" lon="9.231135543520356"><ele>103.0</ele><time>2026-04-11T08:20:29Z</time></trkpt><trkpt lat="45.400942677079776" lon="9.231257684536132"><ele>103.0</ele><time>2026-04-11T08:20:30Z</time></trkpt><trkpt lat="45.40081784449421" lon="9.231381141061151"><ele>103.0</ele><time>2026-04-11T08:20:31Z</time></trkpt><trkpt lat="45.400679534385816" lon="9.23150127757945"><ele>103.0</ele><time>2026-04-11T08:20:32Z</time></trkpt><trkpt lat="45.40055072517264" lon="9.231635373165606"><ele>103.0</ele><time>2026-04-11T08:20:33Z</time></trkpt><trkpt lat="45.40042849463857" lon="9.231752805491826"><ele>103.0</ele><time>2026-04-11T08:20:34Z</time></trkpt><trkpt lat="45.400335288436914" lon="9.231845647695557"><ele>103.0</ele><time>2026-04-11T08:20:35Z</time></trkpt><trkpt lat="45.40027929287643" lon="9.231897491757563"><ele>103.16666666666667</ele><time>2026-04-11T08:20:36Z</time></trkpt><trkpt lat="45.400211395695436" lon="9.231930840183841"><ele>103.33333333333334</ele><time>2026-04-11T08:20:38Z</time></trkpt><trkpt lat="45.40015256482785" lon="9.231827609464556"><ele>103.5</ele><time>2026-04-11T08:20:40Z</time></trkpt><trkpt lat="45.400157764396155" lon="9.231719707203501"><ele>103.66666666666666</ele><time>2026-04-11T08:20:41Z</time></trkpt><trkpt lat="45.40015305517476" lon="9.231595167094037"><ele>103.83333333333333</ele><time>2026-04-11T08:20:42Z</time></trkpt><trkpt lat="45.40013455476942" lon="9.231453941399264"><ele>104.0</ele><time>2026-04-11T08:20:43Z</time></trkpt><trkpt lat="45.40009390161631" lon="9.231317182221577"><ele>104.0</ele><time>2026-04-11T08:20:44Z</time></trkpt><trkpt lat="45.40007224231885" lon="9.231175445464077"><ele>104.0</ele><time>2026-04-11T08:20:45Z</time></trkpt><trkpt lat="45.40005089304058" lon="9.231043686107325"><ele>104.0</ele><time>2026-04-11T08:20:46Z</time></trkpt><trkpt lat="45.400025971330734" lon="9.23091877253701"><ele>104.0</ele><time>2026-04-11T08:20:47Z</time></trkpt><trkpt lat="45.40000700266704" lon="9.230797358293831"><ele>104.0</ele><time>2026-04-11T08:20:48Z</time></trkpt><trkpt lat="45.39997946900816" lon="9.23065474378569"><ele>103.80000000000001</ele><time>2026-04-11T08:20:49Z</time></trkpt><trkpt lat="45.39995170786996" lon="9.230496265601591"><ele>103.60000000000001</ele><time>2026-04-11T08:20:50Z</time></trkpt><trkpt lat="45.39992894820919" lon="9.23035164744118"><ele>103.4</ele><time>2026-04-11T08:20:51Z</time></trkpt><trkpt lat="45.39989878995111" lon="9.23020053754127"><ele>103.2</ele><time>2026-04-11T08:20:52Z</time></trkpt><trkpt lat="45.39987287781386" lon="9.230066194241003"><ele>103.0</ele><time>2026-04-11T08:20:53Z</time></trkpt><trkpt lat="45.399843914766805" lon="9.22995737451091"><ele>103.0</ele><time>2026-04-11T08:20:54Z</time></trkpt><trkpt lat="45.39981420511692" lon="9.22986009233399"><ele>103.0</ele><time>2026-04-11T08:20:55Z</time></trkpt><trkpt lat="45.399759867877755" lon="9.22970663855338"><ele>103.0</ele><time>2026-04-11T08:20:57Z</time></trkpt><trkpt lat="45.39962549156674" lon="9.229651304757509"><ele>103.0</ele><time>2026-04-11T08:20:59Z</time></trkpt><trkpt lat="45.39952824967774" lon="9.229680624148784"><ele>103.0</ele><time>2026-04-11T08:21:00Z</time></trkpt><trkpt lat="45.3994307934917" lon="9.229721673593154"><ele>103.0</ele><time>2026-04-11T08:21:01Z</time></trkpt><trkpt lat="45.39932338931125" lon="9.229765886373198"><ele>103.0</ele><time>2026-04-11T08:21:02Z</time></trkpt><trkpt lat="45.39921411151557" lon="9.22981509560986"><ele>103.0</ele><time>2026-04-11T08:21:03Z</time></trkpt><trkpt lat="45.3991111533602" lon="9.229859595443962"><ele>103.0</ele><time>2026-04-11T08:21:04Z</time></trkpt><trkpt lat="45.39902134727475" lon="9.229889681072576"><ele>103.0</ele><time>2026-04-11T08:21:05Z</time></trkpt><trkpt lat="45.398927041262574" lon="9.22991345540899"><ele>102.60000000000001</ele><time>2026-04-11T08:21:06Z</time></trkpt><trkpt lat="45.39882540753137" lon="9.229947195060989"><ele>102.2</ele><time>2026-04-11T08:21:07Z</time></trkpt><trkpt lat="45.39872184855355" lon="9.229993917502808"><ele>101.8</ele><time>2026-04-11T08:21:08Z</time></trkpt><trkpt lat="45.39863896634415" lon="9.23003249318464"><ele>101.4</ele><time>2026-04-11T08:21:09Z</time></trkpt><trkpt lat="45.39853867471978" lon="9.230078073552743"><ele>101.0</ele><time>2026-04-11T08:21:11Z</time></trkpt><trkpt lat="45.398456638927385" lon="9.230111072337113"><ele>100.99999999999999</ele><time>2026-04-11T08:21:13Z</time></trkpt><trkpt lat="45.3983905577791" lon="9.230128976713504"><ele>101.0</ele><time>2026-04-11T08:21:15Z</time></trkpt><trkpt lat="45.398308800514144" lon="9.230113283703055"><ele>101.0</ele><time>2026-04-11T08:21:18Z</time></trkpt><trkpt lat="45.39824202657954" lon="9.229997918409117"><ele>101.0</ele><time>2026-04-11T08:21:31.999Z</time></trkpt><trkpt lat="45.39821137256264" lon="9.229910510660797"><ele>100.99999999999999</ele><time>2026-04-11T08:21:32.999Z</time></trkpt><trkpt lat="45.398179408788096" lon="9.22981091074115"><ele>101.0</ele><time>2026-04-11T08:21:33.999Z</time></trkpt><trkpt lat="45.39814345322931" lon="9.229699677995852"><ele>101.25</ele><time>2026-04-11T08:21:34.999Z</time></trkpt><trkpt lat="45.39810118736809" lon="9.229566145798376"><ele>101.5</ele><time>2026-04-11T08:21:35.999Z</time></trkpt><trkpt lat="45.39805617065591" lon="9.22942124201915"><ele>101.75</ele><time>2026-04-11T08:21:36.999Z</time></trkpt><trkpt lat="45.39800793881831" lon="9.229256984802245"><ele>102.0</ele><time>2026-04-11T08:21:37.999Z</time></trkpt><trkpt lat="45.39796043074202" lon="9.229107079620352"><ele>102.0</ele><time>2026-04-11T08:21:38.999Z</time></trkpt><trkpt lat="45.39791421897538" lon="9.22896111587401"><ele>102.0</ele><time>2026-04-11T08:21:39.999Z</time></trkpt><trkpt lat="45.39787368713491" lon="9.228833936524063"><ele>102.0</ele><time>2026-04-11T08:21:40.999Z</time></trkpt><trkpt lat="45.397835873835554" lon="9.228719377480262"><ele>102.0</ele><time>2026-04-11T08:21:41.999Z</time></trkpt><trkpt lat="45.39779361979322" lon="9.228584573754876"><ele>102.0</ele><time>2026-04-11T08:21:42.999Z</time></trkpt><trkpt lat="45.39774694542203" lon="9.228436516499707"><ele>102.0</ele><time>2026-04-11T08:21:43.999Z</time></trkpt><trkpt lat="45.39770239387732" lon="9.228289525389183"><ele>102.0</ele><time>2026-04-11T08:21:44.999Z</time></trkpt><trkpt lat="45.39765316356086" lon="9.228139697216339"><ele>102.0</ele><time>2026-04-11T08:21:45.999Z</time></trkpt><trkpt lat="45.397593656118694" lon="9.227963892435687"><ele>102.0</ele><time>2026-04-11T08:21:46.999Z</time></trkpt><trkpt lat="45.39753012230257" lon="9.227751954793282"><ele>101.33333333333334</ele><time>2026-04-11T08:21:47.999Z</time></trkpt><trkpt lat="45.39745809822501" lon="9.227514915873797"><ele>100.66666666666667</ele><time>2026-04-11T08:21:48.999Z</time></trkpt><trkpt lat="45.397378545538544" lon="9.227259496316702"><ele>100.0</ele><time>2026-04-11T08:21:50.999Z</time></trkpt><trkpt lat="45.3973256222032" lon="9.22709526847854"><ele>99.6</ele><time>2026-04-11T08:21:51.999Z</time></trkpt><trkpt lat="45.397268803870574" lon="9.226918838961813"><ele>99.2</ele><time>2026-04-11T08:21:52.999Z</time></trkpt><trkpt lat="45.397226290772124" lon="9.226775220665493"><ele>98.80000000000001</ele><time>2026-04-11T08:21:53.999Z</time></trkpt><trkpt lat="45.39719333264845" lon="9.226658112223824"><ele>98.4</ele><time>2026-04-11T08:21:54.999Z</time></trkpt><trkpt lat="45.39715857166645" lon="9.226537605138072"><ele>98.0</ele><time>2026-04-11T08:21:55.999Z</time></trkpt><trkpt lat="45.397113100902025" lon="9.226398059217942"><ele>98.0</ele><time>2026-04-11T08:21:56.999Z</time></trkpt><trkpt lat="45.39706856098768" lon="9.226251997352719"><ele>98.0</ele><time>2026-04-11T08:21:57.999Z</time></trkpt><trkpt lat="45.39701995769542" lon="9.226093448918215"><ele>98.0</ele><time>2026-04-11T08:21:58.999Z</time></trkpt><trkpt lat="45.39696692056711" lon="9.225923567868481"><ele>98.0</ele><time>2026-04-11T08:21:59.999Z</time></trkpt><trkpt lat="45.39690825098381" lon="9.22575115167212"><ele>98.5</ele><time>2026-04-11T08:22:00.999Z</time></trkpt><trkpt lat="45.39683856185756" lon="9.225563316486037"><ele>99.0</ele><time>2026-04-11T08:22:01.999Z</time></trkpt><trkpt lat="45.39677991825603" lon="9.225376971441564"><ele>99.5</ele><time>2026-04-11T08:22:02.999Z</time></trkpt><trkpt lat="45.396720680816486" lon="9.225181202821767"><ele>100.0</ele><time>2026-04-11T08:22:03.999Z</time></trkpt><trkpt lat="45.39666009252721" lon="9.224985663845077"><ele>100.0</ele><time>2026-04-11T08:22:04.999Z</time></trkpt><trkpt lat="45.39660178503251" lon="9.224796276933077"><ele>100.0</ele><time>2026-04-11T08:22:05.999Z</time></trkpt><trkpt lat="45.396540743311924" lon="9.224600545738678"><ele>100.0</ele><time>2026-04-11T08:22:06.999Z</time></trkpt><trkpt lat="45.3964841746967" lon="9.224410148393176"><ele>100.0</ele><time>2026-04-11T08:22:07.999Z</time></trkpt><trkpt lat="45.39643687792903" lon="9.224258923570861"><ele>100.0</ele><time>2026-04-11T08:22:08.999Z</time></trkpt><trkpt lat="45.39640192758188" lon="9.224148125907456"><ele>100.0</ele><time>2026-04-11T08:22:09.999Z</time></trkpt><trkpt lat="45.39636040960236" lon="9.224007076399849"><ele>100.0</ele><time>2026-04-11T08:22:11.999Z</time></trkpt><trkpt lat="45.39631679869358" lon="9.223882395814107"><ele>100.0</ele><time>2026-04-11T08:22:13.999Z</time></trkpt><trkpt lat="45.39625207033012" lon="9.223851447133491"><ele>100.0</ele><time>2026-04-11T08:22:15.999Z</time></trkpt><trkpt lat="45.396142444232034" lon="9.223933418597333"><ele>99.75</ele><time>2026-04-11T08:22:17.999Z</time></trkpt><trkpt lat="45.39606310652714" lon="9.22401074679937"><ele>99.5</ele><time>2026-04-11T08:22:18.999Z</time></trkpt><trkpt lat="45.39595806879226" lon="9.224088058067899"><ele>99.25</ele><time>2026-04-11T08:22:19.999Z</time></trkpt><trkpt lat="45.395834083567465" lon="9.22416879872382"><ele>99.0</ele><time>2026-04-11T08:22:20.999Z</time></trkpt><trkpt lat="45.39569909265447" lon="9.224261139269688"><ele>99.0</ele><time>2026-04-11T08:22:21.999Z</time></trkpt><trkpt lat="45.39557829060862" lon="9.224341057676215"><ele>99.0</ele><time>2026-04-11T08:22:22.999Z</time></trkpt><trkpt lat="45.39544169458786" lon="9.22443203790917"><ele>99.0</ele><time>2026-04-11T08:22:23.999Z</time></trkpt><trkpt lat="45.39529281801872" lon="9.224534119768727"><ele>99.0</ele><time>2026-04-11T08:22:24.999Z</time></trkpt><trkpt lat="45.39514729399574" lon="9.224636680479977"><ele>99.0</ele><time>2026-04-11T08:22:25.999Z</time></trkpt><trkpt lat="45.395001993089345" lon="9.224741430849406"><ele>99.0</ele><time>2026-04-11T08:22:26.999Z</time></trkpt><trkpt lat="45.39487097209223" lon="9.224836586146047"><ele>99.0</ele><time>2026-04-11T08:22:27.999Z</time></trkpt><trkpt lat="45.39475089943891" lon="9.22493808511039"><ele>99.0</ele><time>2026-04-11T08:22:28.998Z</time></trkpt><trkpt lat="45.39457086715146" lon="9.225038646300028"><ele>99.0</ele><time>2026-04-11T08:22:29.998Z</time></trkpt><trkpt lat="45.39441130489929" lon="9.225146719121097"><ele>99.0</ele><time>2026-04-11T08:22:30.998Z</time></trkpt><trkpt lat="45.39424623543751" lon="9.225258873533518"><ele>99.0</ele><time>2026-04-11T08:22:31.998Z</time></trkpt><trkpt lat="45.3940951891144" lon="9.225354565565862"><ele>99.0</ele><time>2026-04-11T08:22:33Z</time></trkpt><trkpt lat="45.393956347561385" lon="9.22545562236778"><ele>99.0</ele><time>2026-04-11T08:22:34Z</time></trkpt><trkpt lat="45.3938083065853" lon="9.225554943023326"><ele>99.0</ele><time>2026-04-11T08:22:35Z</time></trkpt><trkpt lat="45.39368256853322" lon="9.225640569551654"><ele>99.0</ele><time>2026-04-11T08:22:36Z</time></trkpt><trkpt lat="45.39355735333187" lon="9.225729170022733"><ele>99.0</ele><time>2026-04-11T08:22:37Z</time></trkpt><trkpt lat="45.39341823275518" lon="9.225823801430419"><ele>99.0</ele><time>2026-04-11T08:22:38Z</time></trkpt><trkpt lat="45.393296268286804" lon="9.225908526913479"><ele>99.0</ele><time>2026-04-11T08:22:39Z</time></trkpt><trkpt lat="45.39319910574954" lon="9.225976386570723"><ele>99.0</ele><time>2026-04-11T08:22:40Z</time></trkpt><trkpt lat="45.39309970022533" lon="9.22603004811673"><ele>99.0</ele><time>2026-04-11T08:22:41Z</time></trkpt><trkpt lat="45.39302749639117" lon="9.226084722275159"><ele>99.0</ele><time>2026-04-11T08:22:42Z</time></trkpt><trkpt lat="45.392968774447226" lon="9.226125408537891"><ele>99.0</ele><time>2026-04-11T08:22:43Z</time></trkpt><trkpt lat="45.39289603197889" lon="9.226151528266291"><ele>99.0</ele><time>2026-04-11T08:22:45Z</time></trkpt><trkpt lat="45.392830538876716" lon="9.226048339249695"><ele>99.0</ele><time>2026-04-11T08:22:47Z</time></trkpt><trkpt lat="45.39279001054611" lon="9.225941331560414"><ele>99.0</ele><time>2026-04-11T08:22:48Z</time></trkpt><trkpt lat="45.39274910240023" lon="9.225827586516907"><ele>99.0</ele><time>2026-04-11T08:22:49Z</time></trkpt><trkpt lat="45.392703992750164" lon="9.225724959256516"><ele>99.0</ele><time>2026-04-11T08:22:50Z</time></trkpt><trkpt lat="45.39266691758382" lon="9.22562930075642"><ele>99.0</ele><time>2026-04-11T08:22:51Z</time></trkpt><trkpt lat="45.39261763436308" lon="9.225519398337928"><ele>99.0</ele><time>2026-04-11T08:22:52Z</time></trkpt><trkpt lat="45.39256489209367" lon="9.225402345129657"><ele>99.0</ele><time>2026-04-11T08:22:53Z</time></trkpt><trkpt lat="45.39251529551458" lon="9.225279404910761"><ele>99.0</ele><time>2026-04-11T08:22:54Z</time></trkpt><trkpt lat="45.39247561141453" lon="9.225180125156106"><ele>99.0</ele><time>2026-04-11T08:22:55Z</time></trkpt><trkpt lat="45.39243478917137" lon="9.225096418465561"><ele>99.0</ele><time>2026-04-11T08:22:56Z</time></trkpt><trkpt lat="45.392391355657814" lon="9.224991573361557"><ele>99.0</ele><time>2026-04-11T08:22:57Z</time></trkpt><trkpt lat="45.3923315911243" lon="9.224854252955865"><ele>99.25</ele><time>2026-04-11T08:22:58Z</time></trkpt><trkpt lat="45.392275549802044" lon="9.224714034621085"><ele>99.5</ele><time>2026-04-11T08:22:59Z</time></trkpt><trkpt lat="45.39221339374837" lon="9.22456861705715"><ele>99.75</ele><time>2026-04-11T08:23:00Z</time></trkpt><trkpt lat="45.39215151198908" lon="9.224416739923024"><ele>100.0</ele><time>2026-04-11T08:23:01Z</time></trkpt><trkpt lat="45.39210037908069" lon="9.224283795150656"><ele>100.2</ele><time>2026-04-11T08:23:02Z</time></trkpt><trkpt lat="45.39205187441368" lon="9.224167050263073"><ele>100.4</ele><time>2026-04-11T08:23:03Z</time></trkpt><trkpt lat="45.39200493819246" lon="9.224050113547841"><ele>100.6</ele><time>2026-04-11T08:23:04Z</time></trkpt><trkpt lat="45.391966056290364" lon="9.223892155220547"><ele>100.8</ele><time>2026-04-11T08:23:05Z</time></trkpt><trkpt lat="45.39195235254111" lon="9.22373990695908"><ele>101.0</ele><time>2026-04-11T08:23:06Z</time></trkpt><trkpt lat="45.39193179643717" lon="9.223574229610232"><ele>101.0</ele><time>2026-04-11T08:23:07Z</time></trkpt><trkpt lat="45.39190705154792" lon="9.22339718990601"><ele>101.0</ele><time>2026-04-11T08:23:08Z</time></trkpt><trkpt lat="45.391880649141875" lon="9.223221601575503"><ele>101.0</ele><time>2026-04-11T08:23:09Z</time></trkpt><trkpt lat="45.391857516155184" lon="9.223065409068132"><ele>101.0</ele><time>2026-04-11T08:23:10Z</time></trkpt><trkpt lat="45.3918316217915" lon="9.222904197934346"><ele>101.0</ele><time>2026-04-11T08:23:11Z</time></trkpt><trkpt lat="45.39180277524791" lon="9.222710223702851"><ele>101.0</ele><time>2026-04-11T08:23:12Z</time></trkpt><trkpt lat="45.39177640701381" lon="9.222530546912584"><ele>101.0</ele><time>2026-04-11T08:23:13Z</time></trkpt><trkpt lat="45.391753402290476" lon="9.222385660045342"><ele>101.0</ele><time>2026-04-11T08:23:14Z</time></trkpt><trkpt lat="45.391735252335124" lon="9.22223912083276"><ele>101.99999999999999</ele><time>2026-04-11T08:23:15Z</time></trkpt><trkpt lat="45.39171100793709" lon="9.222109089882633"><ele>103.0</ele><time>2026-04-11T08:23:16Z</time></trkpt><trkpt lat="45.39168567690191" lon="9.221979295555048"><ele>104.0</ele><time>2026-04-11T08:23:17Z</time></trkpt><trkpt lat="45.39166529118337" lon="9.221892559295434"><ele>105.0</ele><time>2026-04-11T08:23:18Z</time></trkpt><trkpt lat="45.3916373686401" lon="9.221740843977745"><ele>105.99999999999999</ele><time>2026-04-11T08:23:20Z</time></trkpt><trkpt lat="45.39156562593747" lon="9.221735416490475"><ele>107.0</ele><time>2026-04-11T08:23:22Z</time></trkpt><trkpt lat="45.3915032955537" lon="9.221761200571933"><ele>106.99999999999999</ele><time>2026-04-11T08:23:23Z</time></trkpt><trkpt lat="45.39142235584993" lon="9.221803922172962"><ele>107.0</ele><time>2026-04-11T08:23:24Z</time></trkpt><trkpt lat="45.39134220704525" lon="9.22183743327562"><ele>107.0</ele><time>2026-04-11T08:23:25Z</time></trkpt><trkpt lat="45.39127872664935" lon="9.221863945027867"><ele>107.0</ele><time>2026-04-11T08:23:26Z</time></trkpt><trkpt lat="45.39120906783238" lon="9.221894311869093"><ele>106.99999999999999</ele><time>2026-04-11T08:23:27Z</time></trkpt><trkpt lat="45.391129884806304" lon="9.22194510300209"><ele>107.0</ele><time>2026-04-11T08:23:28Z</time></trkpt><trkpt lat="45.391052820886166" lon="9.222014881393827"><ele>106.19999999999999</ele><time>2026-04-11T08:23:29Z</time></trkpt><trkpt lat="45.39097559075047" lon="9.222095142922337"><ele>105.39999999999999</ele><time>2026-04-11T08:23:30Z</time></trkpt><trkpt lat="45.39090007101153" lon="9.22218629367852"><ele>104.6</ele><time>2026-04-11T08:23:31Z</time></trkpt><trkpt lat="45.39082354687443" lon="9.222278650682705"><ele>103.80000000000001</ele><time>2026-04-11T08:23:31.999Z</time></trkpt><trkpt lat="45.39075216898068" lon="9.222378146056576"><ele>103.0</ele><time>2026-04-11T08:23:32.999Z</time></trkpt><trkpt lat="45.39067446175964" lon="9.222482622417658"><ele>102.66666666666667</ele><time>2026-04-11T08:23:33.999Z</time></trkpt><trkpt lat="45.39059052121377" lon="9.222585238120312"><ele>102.33333333333334</ele><time>2026-04-11T08:23:34.999Z</time></trkpt><trkpt lat="45.39052288461159" lon="9.2226566213742"><ele>102.0</ele><time>2026-04-11T08:23:35.999Z</time></trkpt><trkpt lat="45.39047468699618" lon="9.222718742513864"><ele>101.66666666666666</ele><time>2026-04-11T08:23:36.999Z</time></trkpt><trkpt lat="45.390418146533065" lon="9.222775532569724"><ele>101.33333333333333</ele><time>2026-04-11T08:23:37.999Z</time></trkpt><trkpt lat="45.390359845382314" lon="9.222846965427426"><ele>101.0</ele><time>2026-04-11T08:23:38.999Z</time></trkpt><trkpt lat="45.3902770673256" lon="9.222976956130653"><ele>100.99999999999999</ele><time>2026-04-11T08:23:40.999Z</time></trkpt><trkpt lat="45.390213419744875" lon="9.223053751168502"><ele>101.0</ele><time>2026-04-11T08:23:41.999Z</time></trkpt><trkpt lat="45.39015791287225" lon="9.223112586010412"><ele>101.0</ele><time>2026-04-11T08:23:42.999Z</time></trkpt><trkpt lat="45.39010735893499" lon="9.223167906991357"><ele>101.0</ele><time>2026-04-11T08:23:43.999Z</time></trkpt><trkpt lat="45.390053373485415" lon="9.223241069962414"><ele>100.99999999999999</ele><time>2026-04-11T08:23:44.999Z</time></trkpt><trkpt lat="45.38999687331204" lon="9.223298910874123"><ele>101.0</ele><time>2026-04-11T08:23:45.999Z</time></trkpt><trkpt lat="45.3899294949757" lon="9.223416801269943"><ele>100.83333333333333</ele><time>2026-04-11T08:23:47.999Z</time></trkpt><trkpt lat="45.38985489609465" lon="9.223489364600825"><ele>100.66666666666666</ele><time>2026-04-11T08:23:49.999Z</time></trkpt><trkpt lat="45.389780885580045" lon="9.223497985132274"><ele>100.5</ele><time>2026-04-11T08:23:51.999Z</time></trkpt><trkpt lat="45.38971216725318" lon="9.223448258851082"><ele>100.33333333333334</ele><time>2026-04-11T08:23:53.999Z</time></trkpt><trkpt lat="45.38967708664806" lon="9.223354076565162"><ele>100.16666666666667</ele><time>2026-04-11T08:24:03.999Z</time></trkpt><trkpt lat="45.389625780391036" lon="9.223223268252836"><ele>100.0</ele><time>2026-04-11T08:24:05.999Z</time></trkpt><trkpt lat="45.38957650994331" lon="9.223064165891813"><ele>100.00000000000001</ele><time>2026-04-11T08:24:07.999Z</time></trkpt><trkpt lat="45.38954649911086" lon="9.222984336008247"><ele>100.0</ele><time>2026-04-11T08:24:08.999Z</time></trkpt><trkpt lat="45.389508960081876" lon="9.222910710259066"><ele>100.0</ele><time>2026-04-11T08:24:09.999Z</time></trkpt><trkpt lat="45.38943065192242" lon="9.222772991919593"><ele>100.0</ele><time>2026-04-11T08:24:11.999Z</time></trkpt><trkpt lat="45.38938869205339" lon="9.222700177800766"><ele>100.0</ele><time>2026-04-11T08:24:12.999Z</time></trkpt><trkpt lat="45.3893469341153" lon="9.222630393817184"><ele>100.00000000000001</ele><time>2026-04-11T08:24:13.999Z</time></trkpt><trkpt lat="45.38930328580706" lon="9.22255874313034"><ele>100.0</ele><time>2026-04-11T08:24:14.999Z</time></trkpt><trkpt lat="45.38926471924754" lon="9.222484909819455"><ele>100.00000000000001</ele><time>2026-04-11T08:24:15.999Z</time></trkpt><trkpt lat="45.38921378393772" lon="9.222396012300708"><ele>100.0</ele><time>2026-04-11T08:24:16.999Z</time></trkpt><trkpt lat="45.38916137895361" lon="9.222306325813541"><ele>100.0</ele><time>2026-04-11T08:24:17.999Z</time></trkpt><trkpt lat="45.38910046427638" lon="9.222209905934623"><ele>100.0</ele><time>2026-04-11T08:24:18.999Z</time></trkpt><trkpt lat="45.38905854610896" lon="9.222114956486648"><ele>100.00000000000001</ele><time>2026-04-11T08:24:19.999Z</time></trkpt><trkpt lat="45.38901423637211" lon="9.221997761104918"><ele>100.0</ele><time>2026-04-11T08:24:20.999Z</time></trkpt><trkpt lat="45.388963773805386" lon="9.22188593664043"><ele>100.00000000000001</ele><time>2026-04-11T08:24:21.999Z</time></trkpt><trkpt lat="45.38891823855474" lon="9.221778440442547"><ele>100.0</ele><time>2026-04-11T08:24:22.999Z</time></trkpt><trkpt lat="45.38887861880194" lon="9.221688564239171"><ele>100.0</ele><time>2026-04-11T08:24:23.999Z</time></trkpt><trkpt lat="45.388843979070494" lon="9.221607863195945"><ele>100.0</ele><time>2026-04-11T08:24:24.999Z</time></trkpt><trkpt lat="45.38880073543606" lon="9.221515682553658"><ele>100.00000000000001</ele><time>2026-04-11T08:24:25.999Z</time></trkpt><trkpt lat="45.38876557451945" lon="9.221439014111324"><ele>100.0</ele><time>2026-04-11T08:24:26.999Z</time></trkpt><trkpt lat="45.38870938815192" lon="9.221322237294551"><ele>100.2</ele><time>2026-04-11T08:24:28.999Z</time></trkpt><trkpt lat="45.388653976830895" lon="9.22127776604359"><ele>100.4</ele><time>2026-04-11T08:24:31.999Z</time></trkpt><trkpt lat="45.388650880764146" lon="9.221102837194275"><ele>100.6</ele><time>2026-04-11T08:25:11Z</time></trkpt><trkpt lat="45.388680957024874" lon="9.220979307583796"><ele>100.8</ele><time>2026-04-11T08:25:12Z</time></trkpt><trkpt lat="45.38871626753048" lon="9.220874701889546"><ele>101.0</ele><time>2026-04-11T08:25:13Z</time></trkpt><trkpt lat="45.3887560121045" lon="9.22074371897849"><ele>100.75</ele><time>2026-04-11T08:25:14Z</time></trkpt><trkpt lat="45.38879667865806" lon="9.220594935659037"><ele>100.5</ele><time>2026-04-11T08:25:15Z</time></trkpt><trkpt lat="45.38883614015053" lon="9.220429879490059"><ele>100.25</ele><time>2026-04-11T08:25:16Z</time></trkpt><trkpt lat="45.38888435154648" lon="9.220241293074869"><ele>100.0</ele><time>2026-04-11T08:25:17Z</time></trkpt><trkpt lat="45.38893305693328" lon="9.220046228747318"><ele>100.4</ele><time>2026-04-11T08:25:18Z</time></trkpt><trkpt lat="45.388986951768544" lon="9.219865797569625"><ele>100.8</ele><time>2026-04-11T08:25:19Z</time></trkpt><trkpt lat="45.389026807111726" lon="9.21971954984874"><ele>101.19999999999999</ele><time>2026-04-11T08:25:20Z</time></trkpt><trkpt lat="45.38906770825293" lon="9.219592039625093"><ele>101.6</ele><time>2026-04-11T08:25:21Z</time></trkpt><trkpt lat="45.38911228728217" lon="9.219476156918507"><ele>102.0</ele><time>2026-04-11T08:25:22Z</time></trkpt><trkpt lat="45.389150296107964" lon="9.2193632005923"><ele>102.0</ele><time>2026-04-11T08:25:23Z</time></trkpt><trkpt lat="45.38918636814348" lon="9.219240775779294"><ele>102.0</ele><time>2026-04-11T08:25:24Z</time></trkpt><trkpt lat="45.38920677448197" lon="9.21911994038179"><ele>102.0</ele><time>2026-04-11T08:25:25Z</time></trkpt><trkpt lat="45.38922780048046" lon="9.21896805255033"><ele>102.0</ele><time>2026-04-11T08:25:26Z</time></trkpt><trkpt lat="45.3892527749278" lon="9.218817432590862"><ele>102.0</ele><time>2026-04-11T08:25:27Z</time></trkpt><trkpt lat="45.38928284810709" lon="9.218673272129177"><ele>102.0</ele><time>2026-04-11T08:25:28Z</time></trkpt><trkpt lat="45.38931537765329" lon="9.218528455819332"><ele>102.0</ele><time>2026-04-11T08:25:28.999Z</time></trkpt><trkpt lat="45.38936374381615" lon="9.218369966474228"><ele>102.0</ele><time>2026-04-11T08:25:29.999Z</time></trkpt><trkpt lat="45.38941176879959" lon="9.218192695972903"><ele>102.0</ele><time>2026-04-11T08:25:30.999Z</time></trkpt><trkpt lat="45.3894603984682" lon="9.218021953010899"><ele>102.0</ele><time>2026-04-11T08:25:31.999Z</time></trkpt><trkpt lat="45.389513621150506" lon="9.217846907762173"><ele>102.0</ele><time>2026-04-11T08:25:32.999Z</time></trkpt><trkpt lat="45.38956802360602" lon="9.217666249308731"><ele>102.0</ele><time>2026-04-11T08:25:33.999Z</time></trkpt><trkpt lat="45.389619707309315" lon="9.21748879881025"><ele>102.0</ele><time>2026-04-11T08:25:34.999Z</time></trkpt><trkpt lat="45.38966949710804" lon="9.217325476094585"><ele>102.25</ele><time>2026-04-11T08:25:35.999Z</time></trkpt><trkpt lat="45.389712286801085" lon="9.217163395689434"><ele>102.5</ele><time>2026-04-11T08:25:36.999Z</time></trkpt><trkpt lat="45.389754430987296" lon="9.217004698955252"><ele>102.75</ele><time>2026-04-11T08:25:37.999Z</time></trkpt><trkpt lat="45.3897963001947" lon="9.21684301835671"><ele>103.0</ele><time>2026-04-11T08:25:38.999Z</time></trkpt><trkpt lat="45.38983738423128" lon="9.216672306294624"><ele>103.0</ele><time>2026-04-11T08:25:39.999Z</time></trkpt><trkpt lat="45.389879518986774" lon="9.216507632430593"><ele>103.0</ele><time>2026-04-11T08:25:40.999Z</time></trkpt><trkpt lat="45.38991800795503" lon="9.216357278908902"><ele>103.0</ele><time>2026-04-11T08:25:41.999Z</time></trkpt><trkpt lat="45.38995087933578" lon="9.216223683048131"><ele>103.0</ele><time>2026-04-11T08:25:42.999Z</time></trkpt><trkpt lat="45.389968713858245" lon="9.216117588953912"><ele>103.0</ele><time>2026-04-11T08:25:43.999Z</time></trkpt><trkpt lat="45.38999573414776" lon="9.216018921867008"><ele>103.00000000000001</ele><time>2026-04-11T08:25:44.999Z</time></trkpt><trkpt lat="45.39001977517107" lon="9.215880082236112"><ele>103.0</ele><time>2026-04-11T08:25:46.999Z</time></trkpt><trkpt lat="45.39002195982252" lon="9.215767688741648"><ele>103.0</ele><time>2026-04-11T08:25:49.999Z</time></trkpt><trkpt lat="45.38994129724345" lon="9.215713112865215"><ele>103.0</ele><time>2026-04-11T08:26:05.999Z</time></trkpt><trkpt lat="45.38987489286477" lon="9.215693363119874"><ele>103.00000000000001</ele><time>2026-04-11T08:26:06.999Z</time></trkpt><trkpt lat="45.38981490238985" lon="9.215665014581973"><ele>103.0</ele><time>2026-04-11T08:26:07.999Z</time></trkpt><trkpt lat="45.38971600970015" lon="9.215611997201645"><ele>102.4</ele><time>2026-04-11T08:26:10.02Z</time></trkpt><trkpt lat="45.38962297107748" lon="9.215554779009175"><ele>101.80000000000001</ele><time>2026-04-11T08:26:12.024Z</time></trkpt><trkpt lat="45.389488999731235" lon="9.215584355307133"><ele>101.2</ele><time>2026-04-11T08:26:13.999Z</time></trkpt><trkpt lat="45.389421609278365" lon="9.215599556914443"><ele>100.6</ele><time>2026-04-11T08:26:14.999Z</time></trkpt><trkpt lat="45.389364781080666" lon="9.215660058737933"><ele>100.0</ele><time>2026-04-11T08:26:15.999Z</time></trkpt><trkpt lat="45.38932939073535" lon="9.21576170940563"><ele>99.8</ele><time>2026-04-11T08:26:16.999Z</time></trkpt><trkpt lat="45.38930346653591" lon="9.21589989799242"><ele>99.6</ele><time>2026-04-11T08:26:17.999Z</time></trkpt><trkpt lat="45.3892743669096" lon="9.216039236895709"><ele>99.4</ele><time>2026-04-11T08:26:18.999Z</time></trkpt><trkpt lat="45.38924832322423" lon="9.216178449571022"><ele>99.2</ele><time>2026-04-11T08:26:19.999Z</time></trkpt><trkpt lat="45.389218892824175" lon="9.216333558145854"><ele>99.0</ele><time>2026-04-11T08:26:20.999Z</time></trkpt><trkpt lat="45.38918749683156" lon="9.216507632367867"><ele>99.0</ele><time>2026-04-11T08:26:21.999Z</time></trkpt><trkpt lat="45.38916013296265" lon="9.21669054771528"><ele>99.0</ele><time>2026-04-11T08:26:22.999Z</time></trkpt><trkpt lat="45.38913355047993" lon="9.216875919999906"><ele>99.0</ele><time>2026-04-11T08:26:23.999Z</time></trkpt><trkpt lat="45.38910917931152" lon="9.21705461894986"><ele>99.0</ele><time>2026-04-11T08:26:24.999Z</time></trkpt><trkpt lat="45.389086353810036" lon="9.217221711215855"><ele>99.6</ele><time>2026-04-11T08:26:25.999Z</time></trkpt><trkpt lat="45.38906143028186" lon="9.217382125017314"><ele>100.2</ele><time>2026-04-11T08:26:26.999Z</time></trkpt><trkpt lat="45.38903610947785" lon="9.217532247847622"><ele>100.8</ele><time>2026-04-11T08:26:27.999Z</time></trkpt><trkpt lat="45.38901335266268" lon="9.21768266456363"><ele>101.39999999999999</ele><time>2026-04-11T08:26:28.999Z</time></trkpt><trkpt lat="45.38898623797278" lon="9.21782603656887"><ele>102.0</ele><time>2026-04-11T08:26:29.998Z</time></trkpt><trkpt lat="45.388952873962744" lon="9.217966147396556"><ele>102.0</ele><time>2026-04-11T08:26:30.998Z</time></trkpt><trkpt lat="45.38892082206188" lon="9.218109795492506"><ele>102.0</ele><time>2026-04-11T08:26:31.998Z</time></trkpt><trkpt lat="45.38888509864016" lon="9.218246019454176"><ele>102.0</ele><time>2026-04-11T08:26:32.998Z</time></trkpt><trkpt lat="45.38885218795704" lon="9.2183848949964"><ele>102.0</ele><time>2026-04-11T08:26:33.998Z</time></trkpt><trkpt lat="45.388823480980165" lon="9.21852708897573"><ele>102.0</ele><time>2026-04-11T08:26:34.998Z</time></trkpt><trkpt lat="45.38879872648329" lon="9.21865469086965"><ele>101.83333333333333</ele><time>2026-04-11T08:26:35.998Z</time></trkpt><trkpt lat="45.38877049689975" lon="9.218761574523448"><ele>101.66666666666666</ele><time>2026-04-11T08:26:36.998Z</time></trkpt><trkpt lat="45.388742798215624" lon="9.218857650115787"><ele>101.5</ele><time>2026-04-11T08:26:37.998Z</time></trkpt><trkpt lat="45.388705476111866" lon="9.218982855251085"><ele>101.33333333333333</ele><time>2026-04-11T08:26:39.998Z</time></trkpt><trkpt lat="45.3886707783837" lon="9.219088130245371"><ele>101.16666666666666</ele><time>2026-04-11T08:26:42.998Z</time></trkpt><trkpt lat="45.38862353350532" lon="9.219238873979672"><ele>101.0</ele><time>2026-04-11T08:26:45Z</time></trkpt><trkpt lat="45.38859364339965" lon="9.219347139746242"><ele>101.0</ele><time>2026-04-11T08:26:46Z</time></trkpt><trkpt lat="45.38856389879484" lon="9.219455781032789"><ele>101.0</ele><time>2026-04-11T08:26:47Z</time></trkpt><trkpt lat="45.388532538837495" lon="9.219580491337366"><ele>101.0</ele><time>2026-04-11T08:26:48Z</time></trkpt><trkpt lat="45.38849773947796" lon="9.219717040282346"><ele>101.0</ele><time>2026-04-11T08:26:49Z</time></trkpt><trkpt lat="45.38846607460688" lon="9.2198556386968"><ele>101.0</ele><time>2026-04-11T08:26:50Z</time></trkpt><trkpt lat="45.38843796203479" lon="9.21997942784513"><ele>100.83333333333333</ele><time>2026-04-11T08:26:51Z</time></trkpt><trkpt lat="45.3884087655135" lon="9.220090606622215"><ele>100.66666666666666</ele><time>2026-04-11T08:26:52Z</time></trkpt><trkpt lat="45.38838063348474" lon="9.220194981256713"><ele>100.5</ele><time>2026-04-11T08:26:53Z</time></trkpt><trkpt lat="45.38835641107448" lon="9.220288949471207"><ele>100.33333333333334</ele><time>2026-04-11T08:26:54Z</time></trkpt><trkpt lat="45.388323812736914" lon="9.22042763165042"><ele>100.16666666666667</ele><time>2026-04-11T08:26:56Z</time></trkpt><trkpt lat="45.388296780095" lon="9.220537161231483"><ele>100.0</ele><time>2026-04-11T08:26:58Z</time></trkpt><trkpt lat="45.388275217671556" lon="9.220633427037788"><ele>100.16666666666667</ele><time>2026-04-11T08:27:00Z</time></trkpt><trkpt lat="45.38824489714835" lon="9.220773117438268"><ele>100.33333333333334</ele><time>2026-04-11T08:27:02Z</time></trkpt><trkpt lat="45.38821936149762" lon="9.220864920130735"><ele>100.5</ele><time>2026-04-11T08:27:03Z</time></trkpt><trkpt lat="45.38818817060812" lon="9.220972898470395"><ele>100.66666666666666</ele><time>2026-04-11T08:27:04Z</time></trkpt><trkpt lat="45.38815881895421" lon="9.221062051607388"><ele>100.83333333333333</ele><time>2026-04-11T08:27:05Z</time></trkpt><trkpt lat="45.388120999212504" lon="9.221170116487897"><ele>101.0</ele><time>2026-04-11T08:27:06Z</time></trkpt><trkpt lat="45.38808455798939" lon="9.221277912023991"><ele>101.0</ele><time>2026-04-11T08:27:07Z</time></trkpt><trkpt lat="45.38804636969902" lon="9.22138727260278"><ele>101.0</ele><time>2026-04-11T08:27:08Z</time></trkpt><trkpt lat="45.38798865172332" lon="9.221479861032112"><ele>101.0</ele><time>2026-04-11T08:27:09Z</time></trkpt><trkpt lat="45.387898553692004" lon="9.221551359660353"><ele>101.0</ele><time>2026-04-11T08:27:10Z</time></trkpt><trkpt lat="45.38780650177573" lon="9.221601752839371"><ele>101.0</ele><time>2026-04-11T08:27:11Z</time></trkpt><trkpt lat="45.38771520229824" lon="9.221659492335908"><ele>100.5</ele><time>2026-04-11T08:27:12Z</time></trkpt><trkpt lat="45.387624167527036" lon="9.221738537118613"><ele>100.0</ele><time>2026-04-11T08:27:13Z</time></trkpt><trkpt lat="45.38752531133834" lon="9.221822136844374"><ele>99.5</ele><time>2026-04-11T08:27:14Z</time></trkpt><trkpt lat="45.38742600097712" lon="9.221908476775727"><ele>99.0</ele><time>2026-04-11T08:27:15Z</time></trkpt><trkpt lat="45.38733009427006" lon="9.22199601406869"><ele>99.0</ele><time>2026-04-11T08:27:16Z</time></trkpt><trkpt lat="45.387241282222945" lon="9.222071131787933"><ele>99.0</ele><time>2026-04-11T08:27:17Z</time></trkpt><trkpt lat="45.38715076710527" lon="9.222144514969091"><ele>99.0</ele><time>2026-04-11T08:27:18Z</time></trkpt><trkpt lat="45.38705241262464" lon="9.22222359280436"><ele>99.0</ele><time>2026-04-11T08:27:19Z</time></trkpt><trkpt lat="45.38695393394961" lon="9.222301746355672"><ele>99.0</ele><time>2026-04-11T08:27:20Z</time></trkpt><trkpt lat="45.38686204960582" lon="9.222375973519167"><ele>99.0</ele><time>2026-04-11T08:27:21Z</time></trkpt><trkpt lat="45.386781528237435" lon="9.22244192619144"><ele>99.0</ele><time>2026-04-11T08:27:22Z</time></trkpt><trkpt lat="45.38670686451929" lon="9.222499838571709"><ele>99.0</ele><time>2026-04-11T08:27:23Z</time></trkpt><trkpt lat="45.38663571393874" lon="9.222557600444626"><ele>99.0</ele><time>2026-04-11T08:27:24Z</time></trkpt><trkpt lat="45.38656896677621" lon="9.222613166104896"><ele>99.0</ele><time>2026-04-11T08:27:25Z</time></trkpt><trkpt lat="45.38650670426798" lon="9.222674383420523"><ele>99.0</ele><time>2026-04-11T08:27:26Z</time></trkpt><trkpt lat="45.386446324566194" lon="9.222729832320516"><ele>99.0</ele><time>2026-04-11T08:27:26.999Z</time></trkpt><trkpt lat="45.38638313285421" lon="9.222787283413158"><ele>99.0</ele><time>2026-04-11T08:27:27.999Z</time></trkpt><trkpt lat="45.38630729396731" lon="9.2228540257851"><ele>99.0</ele><time>2026-04-11T08:27:28.999Z</time></trkpt><trkpt lat="45.38622830882413" lon="9.222915062040537"><ele>99.0</ele><time>2026-04-11T08:27:29.999Z</time></trkpt><trkpt lat="45.38614509465193" lon="9.222982522109438"><ele>99.0</ele><time>2026-04-11T08:27:30.999Z</time></trkpt><trkpt lat="45.38605580054347" lon="9.223054535817223"><ele>98.80000000000001</ele><time>2026-04-11T08:27:31.999Z</time></trkpt><trkpt lat="45.38596548758056" lon="9.223119371592638"><ele>98.60000000000001</ele><time>2026-04-11T08:27:32.999Z</time></trkpt><trkpt lat="45.3858766296929" lon="9.223191741412144"><ele>98.4</ele><time>2026-04-11T08:27:33.999Z</time></trkpt><trkpt lat="45.38578986806942" lon="9.22326767924977"><ele>98.2</ele><time>2026-04-11T08:27:34.999Z</time></trkpt><trkpt lat="45.38569104192997" lon="9.223352459064854"><ele>98.0</ele><time>2026-04-11T08:27:35.999Z</time></trkpt><trkpt lat="45.38559594027662" lon="9.223434210581598"><ele>97.80000000000001</ele><time>2026-04-11T08:27:36.999Z</time></trkpt><trkpt lat="45.38549841601017" lon="9.223523271966046"><ele>97.6</ele><time>2026-04-11T08:27:37.999Z</time></trkpt><trkpt lat="45.38539450002734" lon="9.223608732526886"><ele>97.4</ele><time>2026-04-11T08:27:38.999Z</time></trkpt><trkpt lat="45.38530848545712" lon="9.223684712285458"><ele>97.19999999999999</ele><time>2026-04-11T08:27:39.999Z</time></trkpt><trkpt lat="45.38522755767007" lon="9.223752951606718"><ele>97.0</ele><time>2026-04-11T08:27:40.999Z</time></trkpt><trkpt lat="45.385152446157285" lon="9.223813739858757"><ele>97.0</ele><time>2026-04-11T08:27:41.999Z</time></trkpt><trkpt lat="45.38507901975465" lon="9.223872192819309"><ele>97.0</ele><time>2026-04-11T08:27:42.999Z</time></trkpt><trkpt lat="45.38501307420252" lon="9.223930228766653"><ele>97.0</ele><time>2026-04-11T08:27:43.999Z</time></trkpt><trkpt lat="45.38495084332" lon="9.223981988127179"><ele>97.0</ele><time>2026-04-11T08:27:44.999Z</time></trkpt><trkpt lat="45.384889823087896" lon="9.224036572909341"><ele>97.0</ele><time>2026-04-11T08:27:45.999Z</time></trkpt><trkpt lat="45.38482908570743" lon="9.224090270565668"><ele>97.0</ele><time>2026-04-11T08:27:46.999Z</time></trkpt><trkpt lat="45.38477202547788" lon="9.224141989181772"><ele>97.0</ele><time>2026-04-11T08:27:47.999Z</time></trkpt><trkpt lat="45.384717032628686" lon="9.22419084893688"><ele>97.0</ele><time>2026-04-11T08:27:48.999Z</time></trkpt><trkpt lat="45.384628056858354" lon="9.224264876607718"><ele>97.0</ele><time>2026-04-11T08:27:50.999Z</time></trkpt><trkpt lat="45.384567989287255" lon="9.224314464026946"><ele>97.0</ele><time>2026-04-11T08:27:52.999Z</time></trkpt><trkpt lat="45.38450093942151" lon="9.22437322250417"><ele>97.0</ele><time>2026-04-11T08:27:54.999Z</time></trkpt><trkpt lat="45.38440457147212" lon="9.224476140182283"><ele>97.0</ele><time>2026-04-11T08:27:56.999Z</time></trkpt><trkpt lat="45.3843290035689" lon="9.224533312300888"><ele>97.0</ele><time>2026-04-11T08:27:57.999Z</time></trkpt><trkpt lat="45.38426140275707" lon="9.224587429275873"><ele>97.0</ele><time>2026-04-11T08:27:58.999Z</time></trkpt><trkpt lat="45.38418289961406" lon="9.224647984115391"><ele>97.0</ele><time>2026-04-11T08:27:59.999Z</time></trkpt><trkpt lat="45.3840791665482" lon="9.224730751334251"><ele>97.0</ele><time>2026-04-11T08:28:00.999Z</time></trkpt><trkpt lat="45.38395760784396" lon="9.224816613745489"><ele>97.0</ele><time>2026-04-11T08:28:01.999Z</time></trkpt><trkpt lat="45.38382020950511" lon="9.224893548626522"><ele>97.5</ele><time>2026-04-11T08:28:02.999Z</time></trkpt><trkpt lat="45.383692868891615" lon="9.224955730450102"><ele>98.0</ele><time>2026-04-11T08:28:03.999Z</time></trkpt><trkpt lat="45.38356669880097" lon="9.225019618015832"><ele>98.5</ele><time>2026-04-11T08:28:04.999Z</time></trkpt><trkpt lat="45.38342533977159" lon="9.22508402509014"><ele>99.0</ele><time>2026-04-11T08:28:05.999Z</time></trkpt><trkpt lat="45.383294969632736" lon="9.225141364034844"><ele>99.0</ele><time>2026-04-11T08:28:06.999Z</time></trkpt><trkpt lat="45.38317992736578" lon="9.225189078430496"><ele>99.0</ele><time>2026-04-11T08:28:07.999Z</time></trkpt><trkpt lat="45.38307201095758" lon="9.225234372555052"><ele>99.0</ele><time>2026-04-11T08:28:08.999Z</time></trkpt><trkpt lat="45.382972366033734" lon="9.225278856238633"><ele>99.0</ele><time>2026-04-11T08:28:09.999Z</time></trkpt><trkpt lat="45.38289603934639" lon="9.225315813053879"><ele>99.0</ele><time>2026-04-11T08:28:10.999Z</time></trkpt><trkpt lat="45.38279228698833" lon="9.225359618352968"><ele>98.83333333333333</ele><time>2026-04-11T08:28:12.999Z</time></trkpt><trkpt lat="45.38270987124087" lon="9.225409566785032"><ele>98.66666666666666</ele><time>2026-04-11T08:28:14.999Z</time></trkpt><trkpt lat="45.38265729819548" lon="9.225531953678292"><ele>98.5</ele><time>2026-04-11T08:28:16.999Z</time></trkpt><trkpt lat="45.38258864400909" lon="9.225599541389395"><ele>98.33333333333333</ele><time>2026-04-11T08:28:18.999Z</time></trkpt><trkpt lat="45.38250513189544" lon="9.225608310365724"><ele>98.16666666666666</ele><time>2026-04-11T08:28:20.999Z</time></trkpt><trkpt lat="45.382431348105506" lon="9.225613042098907"><ele>98.0</ele><time>2026-04-11T08:28:22.999Z</time></trkpt><trkpt lat="45.38236669852261" lon="9.225620346386224"><ele>97.99999999999999</ele><time>2026-04-11T08:28:24.999Z</time></trkpt><trkpt lat="45.38226653227731" lon="9.225603474807846"><ele>98.0</ele><time>2026-04-11T08:28:27.998Z</time></trkpt><trkpt lat="45.38217879713026" lon="9.225597081383542"><ele>98.0</ele><time>2026-04-11T08:28:30.998Z</time></trkpt><trkpt lat="45.38210426515716" lon="9.225600905387196"><ele>98.0</ele><time>2026-04-11T08:28:33.998Z</time></trkpt><trkpt lat="45.382151064313085" lon="9.225669228618768"><ele>97.99999999999999</ele><time>2026-04-11T08:28:45.998Z</time></trkpt><trkpt lat="45.38209853691088" lon="9.225582778458229"><ele>98.0</ele><time>2026-04-11T08:29:23Z</time></trkpt><trkpt lat="45.3819942988314" lon="9.225599480157893"><ele>97.99999999999999</ele><time>2026-04-11T08:29:49.999Z</time></trkpt><trkpt lat="45.38191241786849" lon="9.225605997585024"><ele>98.0</ele><time>2026-04-11T08:29:50.999Z</time></trkpt><trkpt lat="45.38184052005741" lon="9.22561741655615"><ele>98.0</ele><time>2026-04-11T08:29:51.999Z</time></trkpt><trkpt lat="45.381751569809325" lon="9.225628007494295"><ele>98.0</ele><time>2026-04-11T08:29:52.999Z</time></trkpt><trkpt lat="45.38164693790448" lon="9.22565654159077"><ele>97.99999999999999</ele><time>2026-04-11T08:29:53.999Z</time></trkpt><trkpt lat="45.38154913987026" lon="9.225681253465288"><ele>98.0</ele><time>2026-04-11T08:29:54.999Z</time></trkpt><trkpt lat="45.381474801932306" lon="9.225705675731014"><ele>97.99999999999999</ele><time>2026-04-11T08:29:55.999Z</time></trkpt><trkpt lat="45.38139323881626" lon="9.22573816754746"><ele>98.0</ele><time>2026-04-11T08:29:56.999Z</time></trkpt><trkpt lat="45.38130635118753" lon="9.225770618087418"><ele>98.0</ele><time>2026-04-11T08:29:57.999Z</time></trkpt><trkpt lat="45.381224129205194" lon="9.225802290128476"><ele>98.0</ele><time>2026-04-11T08:29:58.999Z</time></trkpt><trkpt lat="45.38114010453578" lon="9.225836512132698"><ele>97.99999999999999</ele><time>2026-04-11T08:29:59.999Z</time></trkpt><trkpt lat="45.381053255586124" lon="9.225871689317172"><ele>98.0</ele><time>2026-04-11T08:30:00.999Z</time></trkpt><trkpt lat="45.38097476930339" lon="9.225898164798918"><ele>97.99999999999999</ele><time>2026-04-11T08:30:01.999Z</time></trkpt><trkpt lat="45.38090115802066" lon="9.225931479165624"><ele>98.0</ele><time>2026-04-11T08:30:02.999Z</time></trkpt><trkpt lat="45.380839671317354" lon="9.225953446277659"><ele>98.0</ele><time>2026-04-11T08:30:03.999Z</time></trkpt><trkpt lat="45.380742632554636" lon="9.225993905673278"><ele>98.0</ele><time>2026-04-11T08:30:05.999Z</time></trkpt><trkpt lat="45.380664336403065" lon="9.22604184811655"><ele>97.99999999999999</ele><time>2026-04-11T08:30:07.999Z</time></trkpt><trkpt lat="45.380586217876555" lon="9.226077015784114"><ele>98.0</ele><time>2026-04-11T08:30:09.999Z</time></trkpt><trkpt lat="45.38047974514513" lon="9.226110855644285"><ele>98.16666666666666</ele><time>2026-04-11T08:30:11.999Z</time></trkpt><trkpt lat="45.3803687490314" lon="9.226154735971646"><ele>98.33333333333333</ele><time>2026-04-11T08:30:13.999Z</time></trkpt><trkpt lat="45.38030087990474" lon="9.226180395798414"><ele>98.5</ele><time>2026-04-11T08:30:14.999Z</time></trkpt><trkpt lat="45.380229661545826" lon="9.22621107848038"><ele>98.66666666666666</ele><time>2026-04-11T08:30:15.999Z</time></trkpt><trkpt lat="45.38016419517209" lon="9.226234524194355"><ele>98.83333333333333</ele><time>2026-04-11T08:30:16.999Z</time></trkpt><trkpt lat="45.38009883419915" lon="9.226260258749797"><ele>99.0</ele><time>2026-04-11T08:30:17.999Z</time></trkpt><trkpt lat="45.38002490437835" lon="9.226290571360448"><ele>99.0</ele><time>2026-04-11T08:30:18.999Z</time></trkpt><trkpt lat="45.379947099287556" lon="9.226319635851631"><ele>99.0</ele><time>2026-04-11T08:30:19.999Z</time></trkpt><trkpt lat="45.3798683662869" lon="9.226342683884589"><ele>99.0</ele><time>2026-04-11T08:30:20.999Z</time></trkpt><trkpt lat="45.37978525951808" lon="9.226366336060046"><ele>99.0</ele><time>2026-04-11T08:30:21.999Z</time></trkpt><trkpt lat="45.379699146111264" lon="9.226384223805518"><ele>99.0</ele><time>2026-04-11T08:30:22.999Z</time></trkpt><trkpt lat="45.37961015315667" lon="9.226397309807528"><ele>99.0</ele><time>2026-04-11T08:30:23.999Z</time></trkpt><trkpt lat="45.37951954914998" lon="9.226400808171958"><ele>99.0</ele><time>2026-04-11T08:30:24.999Z</time></trkpt><trkpt lat="45.3794322467892" lon="9.22640325249045"><ele>99.0</ele><time>2026-04-11T08:30:25.999Z</time></trkpt><trkpt lat="45.37934303031083" lon="9.226409808697563"><ele>99.0</ele><time>2026-04-11T08:30:26.999Z</time></trkpt><trkpt lat="45.379179489611424" lon="9.226422248402693"><ele>99.0</ele><time>2026-04-11T08:30:28.999Z</time></trkpt><trkpt lat="45.37909224430298" lon="9.226435076806602"><ele>99.0</ele><time>2026-04-11T08:30:29.999Z</time></trkpt><trkpt lat="45.37900940225275" lon="9.226454213524846"><ele>98.66666666666667</ele><time>2026-04-11T08:30:30.999Z</time></trkpt><trkpt lat="45.37892786467995" lon="9.226483110690426"><ele>98.33333333333334</ele><time>2026-04-11T08:30:31.999Z</time></trkpt><trkpt lat="45.37884834055229" lon="9.226529257433404"><ele>98.0</ele><time>2026-04-11T08:30:32.999Z</time></trkpt><trkpt lat="45.378775651187595" lon="9.226578817357884"><ele>97.66666666666667</ele><time>2026-04-11T08:30:33.998Z</time></trkpt><trkpt lat="45.37870334044635" lon="9.22663783503298"><ele>97.33333333333334</ele><time>2026-04-11T08:30:34.998Z</time></trkpt><trkpt lat="45.378630151714326" lon="9.226691165360952"><ele>97.0</ele><time>2026-04-11T08:30:35.998Z</time></trkpt><trkpt lat="45.37855363225094" lon="9.226736996717884"><ele>97.0</ele><time>2026-04-11T08:30:36.998Z</time></trkpt><trkpt lat="45.37848077537425" lon="9.226784980950542"><ele>97.0</ele><time>2026-04-11T08:30:37.998Z</time></trkpt><trkpt lat="45.37839693726223" lon="9.226850238173705"><ele>97.0</ele><time>2026-04-11T08:30:38.998Z</time></trkpt><trkpt lat="45.378306960743515" lon="9.226910142231409"><ele>97.0</ele><time>2026-04-11T08:30:39.998Z</time></trkpt><trkpt lat="45.37821571509116" lon="9.226959808044045"><ele>97.0</ele><time>2026-04-11T08:30:40.998Z</time></trkpt><trkpt lat="45.378121350594036" lon="9.227013618060214"><ele>97.0</ele><time>2026-04-11T08:30:41.998Z</time></trkpt><trkpt lat="45.37802417420076" lon="9.227069800836981"><ele>97.0</ele><time>2026-04-11T08:30:42.998Z</time></trkpt><trkpt lat="45.37792432148593" lon="9.227122316406566"><ele>97.0</ele><time>2026-04-11T08:30:43.998Z</time></trkpt><trkpt lat="45.37782362074521" lon="9.227167834444634"><ele>97.0</ele><time>2026-04-11T08:30:44.998Z</time></trkpt><trkpt lat="45.37772563876105" lon="9.227202614011421"><ele>97.0</ele><time>2026-04-11T08:30:45.998Z</time></trkpt><trkpt lat="45.37764144611167" lon="9.227228014742"><ele>97.00000000000001</ele><time>2026-04-11T08:30:46.998Z</time></trkpt><trkpt lat="45.37756091977676" lon="9.22725750205539"><ele>97.0</ele><time>2026-04-11T08:30:47.998Z</time></trkpt><trkpt lat="45.37748232361188" lon="9.227295567552565"><ele>97.0</ele><time>2026-04-11T08:30:48.998Z</time></trkpt><trkpt lat="45.37739835152116" lon="9.227334538508826"><ele>97.0</ele><time>2026-04-11T08:30:49.998Z</time></trkpt><trkpt lat="45.377307420063026" lon="9.227360825646398"><ele>97.00000000000001</ele><time>2026-04-11T08:30:50.998Z</time></trkpt><trkpt lat="45.37723004544724" lon="9.227378071884859"><ele>97.0</ele><time>2026-04-11T08:30:51.998Z</time></trkpt><trkpt lat="45.37716135918227" lon="9.227395862888683"><ele>96.8</ele><time>2026-04-11T08:30:52.998Z</time></trkpt><trkpt lat="45.3770879231052" lon="9.22740767342728"><ele>96.6</ele><time>2026-04-11T08:30:53.998Z</time></trkpt><trkpt lat="45.3769563722671" lon="9.227384468250541"><ele>96.39999999999999</ele><time>2026-04-11T08:30:55.998Z</time></trkpt><trkpt lat="45.376840098589504" lon="9.227291406791517"><ele>96.19999999999999</ele><time>2026-04-11T08:30:58Z</time></trkpt><trkpt lat="45.37691580971512" lon="9.227244438898904"><ele>96.0</ele><time>2026-04-11T08:30:59Z</time></trkpt><trkpt lat="45.376903365170776" lon="9.227142671581731"><ele>96.8</ele><time>2026-04-11T08:31:00Z</time></trkpt><trkpt lat="45.37689802126745" lon="9.226920962899642"><ele>97.6</ele><time>2026-04-11T08:31:02Z</time></trkpt><trkpt lat="45.376890958738315" lon="9.22678586367972"><ele>98.4</ele><time>2026-04-11T08:31:03Z</time></trkpt><trkpt lat="45.37689869135254" lon="9.226661828452798"><ele>99.2</ele><time>2026-04-11T08:31:04Z</time></trkpt><trkpt lat="45.376903434825444" lon="9.226512337661578"><ele>100.0</ele><time>2026-04-11T08:31:05Z</time></trkpt><trkpt lat="45.376893621991776" lon="9.22637088968508"><ele>100.0</ele><time>2026-04-11T08:31:06Z</time></trkpt><trkpt lat="45.37687940054136" lon="9.226234140388875"><ele>100.0</ele><time>2026-04-11T08:31:07Z</time></trkpt><trkpt lat="45.37685637741594" lon="9.226102344475402"><ele>100.0</ele><time>2026-04-11T08:31:08Z</time></trkpt><trkpt lat="45.376858079497055" lon="9.22596405172297"><ele>100.0</ele><time>2026-04-11T08:31:09Z</time></trkpt><trkpt lat="45.37684586007567" lon="9.225825925279599"><ele>100.0</ele><time>2026-04-11T08:31:10Z</time></trkpt><trkpt lat="45.37683495524939" lon="9.225677923429721"><ele>99.6</ele><time>2026-04-11T08:31:11Z</time></trkpt><trkpt lat="45.37683132646584" lon="9.22552628821416"><ele>99.2</ele><time>2026-04-11T08:31:12Z</time></trkpt><trkpt lat="45.37682281161361" lon="9.225362585032222"><ele>98.80000000000001</ele><time>2026-04-11T08:31:13Z</time></trkpt><trkpt lat="45.37680677472287" lon="9.225215978053882"><ele>98.4</ele><time>2026-04-11T08:31:14Z</time></trkpt><trkpt lat="45.37679785451811" lon="9.225084173509652"><ele>98.0</ele><time>2026-04-11T08:31:15Z</time></trkpt><trkpt lat="45.37679067165948" lon="9.224962439373535"><ele>98.0</ele><time>2026-04-11T08:31:16Z</time></trkpt><trkpt lat="45.37678500658874" lon="9.224857634370176"><ele>98.0</ele><time>2026-04-11T08:31:17Z</time></trkpt><trkpt lat="45.37677826597719" lon="9.224738589339008"><ele>98.0</ele><time>2026-04-11T08:31:18Z</time></trkpt><trkpt lat="45.37676299814949" lon="9.22459509824734"><ele>98.0</ele><time>2026-04-11T08:31:19Z</time></trkpt><trkpt lat="45.37675328289396" lon="9.224451120178614"><ele>98.0</ele><time>2026-04-11T08:31:20Z</time></trkpt><trkpt lat="45.37674516465714" lon="9.224312096973412"><ele>98.0</ele><time>2026-04-11T08:31:21Z</time></trkpt><trkpt lat="45.37673319865916" lon="9.224171077507725"><ele>98.0</ele><time>2026-04-11T08:31:22Z</time></trkpt><trkpt lat="45.376720983085946" lon="9.224007080120833"><ele>98.0</ele><time>2026-04-11T08:31:23Z</time></trkpt><trkpt lat="45.37670848341587" lon="9.223830375909301"><ele>98.0</ele><time>2026-04-11T08:31:24Z</time></trkpt><trkpt lat="45.37669517968847" lon="9.223649860135092"><ele>98.25</ele><time>2026-04-11T08:31:25Z</time></trkpt><trkpt lat="45.37668534562613" lon="9.223477548975147"><ele>98.5</ele><time>2026-04-11T08:31:26Z</time></trkpt><trkpt lat="45.37667685039394" lon="9.223306877089096"><ele>98.75</ele><time>2026-04-11T08:31:27Z</time></trkpt><trkpt lat="45.376671443881534" lon="9.223146375525632"><ele>99.0</ele><time>2026-04-11T08:31:28Z</time></trkpt><trkpt lat="45.37666385346349" lon="9.223003664538307"><ele>99.16666666666667</ele><time>2026-04-11T08:31:29Z</time></trkpt><trkpt lat="45.37664098720997" lon="9.222879206804246"><ele>99.33333333333334</ele><time>2026-04-11T08:31:30Z</time></trkpt><trkpt lat="45.37663920181526" lon="9.22276936710532"><ele>99.5</ele><time>2026-04-11T08:31:31Z</time></trkpt><trkpt lat="45.37663508093354" lon="9.222664658188503"><ele>99.66666666666667</ele><time>2026-04-11T08:31:32Z</time></trkpt><trkpt lat="45.376625705277846" lon="9.222573012565565"><ele>99.83333333333334</ele><time>2026-04-11T08:31:33Z</time></trkpt><trkpt lat="45.376646396954605" lon="9.222464084647529"><ele>100.0</ele><time>2026-04-11T08:31:35Z</time></trkpt><trkpt lat="45.3767565990912" lon="9.222434092077073"><ele>100.0</ele><time>2026-04-11T08:31:36.999Z</time></trkpt><trkpt lat="45.37682280339891" lon="9.222442370106084"><ele>100.0</ele><time>2026-04-11T08:31:37.999Z</time></trkpt><trkpt lat="45.376929129777864" lon="9.222439461499954"><ele>100.0</ele><time>2026-04-11T08:31:39.999Z</time></trkpt><trkpt lat="45.37704929496058" lon="9.222408990104299"><ele>100.0</ele><time>2026-04-11T08:31:41.999Z</time></trkpt><trkpt lat="45.377134396732835" lon="9.222396896645337"><ele>100.0</ele><time>2026-04-11T08:31:43.999Z</time></trkpt><trkpt lat="45.377206422280764" lon="9.22238832309993"><ele>99.8</ele><time>2026-04-11T08:31:45.999Z</time></trkpt><trkpt lat="45.37732136009293" lon="9.222364015696488"><ele>99.6</ele><time>2026-04-11T08:31:48.999Z</time></trkpt><trkpt lat="45.37744919151769" lon="9.222343892894406"><ele>99.4</ele><time>2026-04-11T08:31:50.999Z</time></trkpt><trkpt lat="45.377522731828215" lon="9.22233908438567"><ele>99.2</ele><time>2026-04-11T08:31:51.999Z</time></trkpt><trkpt lat="45.377595784073286" lon="9.222325888292993"><ele>99.0</ele><time>2026-04-11T08:31:52.999Z</time></trkpt><trkpt lat="45.377659888124754" lon="9.222323433147393"><ele>99.0</ele><time>2026-04-11T08:31:53.999Z</time></trkpt><trkpt lat="45.37774717370418" lon="9.222307572486814"><ele>99.0</ele><time>2026-04-11T08:31:55.999Z</time></trkpt><trkpt lat="45.377827724332356" lon="9.222297070313076"><ele>99.0</ele><time>2026-04-11T08:31:57.999Z</time></trkpt><trkpt lat="45.37790452507507" lon="9.222284569638964"><ele>99.0</ele><time>2026-04-11T08:31:59.999Z</time></trkpt><trkpt lat="45.37798249382203" lon="9.222281403160109"><ele>99.0</ele><time>2026-04-11T08:32:01.999Z</time></trkpt><trkpt lat="45.37804333267925" lon="9.222230986351397"><ele>99.0</ele><time>2026-04-11T08:32:04.999Z</time></trkpt><trkpt lat="45.37804175396221" lon="9.222094558574803"><ele>99.0</ele><time>2026-04-11T08:32:06.999Z</time></trkpt><trkpt lat="45.378019334051935" lon="9.221990988669253"><ele>99.0</ele><time>2026-04-11T08:32:07.999Z</time></trkpt><trkpt lat="45.37802303271324" lon="9.221885778782912"><ele>99.0</ele><time>2026-04-11T08:32:08.999Z</time></trkpt><trkpt lat="45.378018053282794" lon="9.221743880065317"><ele>99.0</ele><time>2026-04-11T08:32:10.999Z</time></trkpt><trkpt lat="45.37800775309154" lon="9.221627323857856"><ele>99.0</ele><time>2026-04-11T08:32:12.999Z</time></trkpt><trkpt lat="45.37799588386318" lon="9.221516068009914"><ele>99.0</ele><time>2026-04-11T08:32:14.999Z</time></trkpt><trkpt lat="45.37798505618922" lon="9.22142258672145"><ele>99.16666666666667</ele><time>2026-04-11T08:32:16.999Z</time></trkpt><trkpt lat="45.37799312956683" lon="9.22129044353161"><ele>99.33333333333334</ele><time>2026-04-11T08:32:19.999Z</time></trkpt><trkpt lat="45.377988749193435" lon="9.221188130684492"><ele>99.5</ele><time>2026-04-11T08:32:21.999Z</time></trkpt><trkpt lat="45.37798362821662" lon="9.221091197876262"><ele>99.66666666666667</ele><time>2026-04-11T08:32:23.999Z</time></trkpt><trkpt lat="45.37796901429197" lon="9.220952131053606"><ele>99.83333333333334</ele><time>2026-04-11T08:32:25.999Z</time></trkpt><trkpt lat="45.37795598496504" lon="9.220806448933672"><ele>100.0</ele><time>2026-04-11T08:32:27.999Z</time></trkpt><trkpt lat="45.37797902358698" lon="9.220715906561974"><ele>99.8</ele><time>2026-04-11T08:32:28.999Z</time></trkpt><trkpt lat="45.37796401938034" lon="9.22055270303243"><ele>99.6</ele><time>2026-04-11T08:32:30.999Z</time></trkpt><trkpt lat="45.37795945735517" lon="9.220408675206762"><ele>99.4</ele><time>2026-04-11T08:32:32.999Z</time></trkpt><trkpt lat="45.37794521026383" lon="9.220273586381868"><ele>99.2</ele><time>2026-04-11T08:32:34.999Z</time></trkpt><trkpt lat="45.37796712567296" lon="9.220180190217894"><ele>99.0</ele><time>2026-04-11T08:32:39.999Z</time></trkpt><trkpt lat="45.378117397494755" lon="9.220230012816419"><ele>98.83333333333333</ele><time>2026-04-11T08:32:40.999Z</time></trkpt><trkpt lat="45.378207724230776" lon="9.22023211737719"><ele>98.66666666666666</ele><time>2026-04-11T08:32:41.998Z</time></trkpt><trkpt lat="45.37827770239635" lon="9.220240266026892"><ele>98.5</ele><time>2026-04-11T08:32:42.998Z</time></trkpt><trkpt lat="45.37842360630999" lon="9.220240369887966"><ele>98.33333333333333</ele><time>2026-04-11T08:32:44.998Z</time></trkpt><trkpt lat="45.378497415174394" lon="9.22023225396993"><ele>98.16666666666666</ele><time>2026-04-11T08:32:45.998Z</time></trkpt><trkpt lat="45.37856210796459" lon="9.220223130411878"><ele>98.0</ele><time>2026-04-11T08:32:46.998Z</time></trkpt><trkpt lat="45.378630810043205" lon="9.22021665364326"><ele>98.0</ele><time>2026-04-11T08:32:47.998Z</time></trkpt><trkpt lat="45.378713700222185" lon="9.220204785386866"><ele>98.0</ele><time>2026-04-11T08:32:48.998Z</time></trkpt><trkpt lat="45.37877773565961" lon="9.22018997949472"><ele>98.0</ele><time>2026-04-11T08:32:49.998Z</time></trkpt><trkpt lat="45.37890952488426" lon="9.220180677327862"><ele>98.0</ele><time>2026-04-11T08:32:51.998Z</time></trkpt><trkpt lat="45.37898415485346" lon="9.220170914231982"><ele>98.0</ele><time>2026-04-11T08:32:52.998Z</time></trkpt><trkpt lat="45.37914100819261" lon="9.220152415849752"><ele>97.99999999999999</ele><time>2026-04-11T08:32:55.998Z</time></trkpt><trkpt lat="45.37921137200283" lon="9.22013740107178"><ele>98.0</ele><time>2026-04-11T08:32:57.998Z</time></trkpt><trkpt lat="45.37931817080484" lon="9.220144325369475"><ele>98.0</ele><time>2026-04-11T08:32:59.998Z</time></trkpt><trkpt lat="45.379387348308654" lon="9.220198053600626"><ele>98.0</ele><time>2026-04-11T08:33:00.998Z</time></trkpt><trkpt lat="45.37943610610847" lon="9.220282471822115"><ele>97.99999999999999</ele><time>2026-04-11T08:33:01.998Z</time></trkpt><trkpt lat="45.37949551841188" lon="9.220390612815653"><ele>98.0</ele><time>2026-04-11T08:33:03Z</time></trkpt><trkpt lat="45.37955479433638" lon="9.22047333817405"><ele>98.0</ele><time>2026-04-11T08:33:04Z</time></trkpt><trkpt lat="45.37967311286933" lon="9.220473907856329"><ele>98.0</ele><time>2026-04-11T08:33:06Z</time></trkpt><trkpt lat="45.37971189995935" lon="9.220384472047622"><ele>98.0</ele><time>2026-04-11T08:33:07Z</time></trkpt><trkpt lat="45.37969198634971" lon="9.220240318592365"><ele>98.0</ele><time>2026-04-11T08:33:08Z</time></trkpt><trkpt lat="45.37960998724948" lon="9.220122404200763"><ele>98.0</ele><time>2026-04-11T08:33:09Z</time></trkpt><trkpt lat="45.37955648092024" lon="9.21999427543541"><ele>98.0</ele><time>2026-04-11T08:33:10Z</time></trkpt><trkpt lat="45.379480386741555" lon="9.21984154995862"><ele>98.0</ele><time>2026-04-11T08:33:11Z</time></trkpt><trkpt lat="45.379418386881845" lon="9.219684955779066"><ele>98.0</ele><time>2026-04-11T08:33:12Z</time></trkpt><trkpt lat="45.37937260979651" lon="9.21952968915741"><ele>98.0</ele><time>2026-04-11T08:33:13Z</time></trkpt><trkpt lat="45.379328792648025" lon="9.219354049345517"><ele>98.25</ele><time>2026-04-11T08:33:14Z</time></trkpt><trkpt lat="45.37930611039414" lon="9.21916257257088"><ele>98.5</ele><time>2026-04-11T08:33:15Z</time></trkpt><trkpt lat="45.37927568866189" lon="9.2189952708194"><ele>98.75</ele><time>2026-04-11T08:33:16Z</time></trkpt><trkpt lat="45.37923291327025" lon="9.2188483719511"><ele>99.0</ele><time>2026-04-11T08:33:17Z</time></trkpt><trkpt lat="45.37920741924724" lon="9.218711187392104"><ele>99.0</ele><time>2026-04-11T08:33:18Z</time></trkpt><trkpt lat="45.37917754452193" lon="9.218559609031002"><ele>99.0</ele><time>2026-04-11T08:33:19Z</time></trkpt><trkpt lat="45.37915022557767" lon="9.218389593808231"><ele>99.0</ele><time>2026-04-11T08:33:20Z</time></trkpt><trkpt lat="45.37912379423948" lon="9.218207355620386"><ele>99.0</ele><time>2026-04-11T08:33:21Z</time></trkpt><trkpt lat="45.3790938116578" lon="9.218028972389329"><ele>99.0</ele><time>2026-04-11T08:33:22Z</time></trkpt><trkpt lat="45.37906523064525" lon="9.217847015819732"><ele>99.0</ele><time>2026-04-11T08:33:23Z</time></trkpt><trkpt lat="45.37903786634826" lon="9.217683552349744"><ele>99.0</ele><time>2026-04-11T08:33:24Z</time></trkpt><trkpt lat="45.3790159797275" lon="9.217575208655504"><ele>99.0</ele><time>2026-04-11T08:33:25Z</time></trkpt><trkpt lat="45.37899168222392" lon="9.217472409498185"><ele>99.0</ele><time>2026-04-11T08:33:26Z</time></trkpt><trkpt lat="45.378990647649196" lon="9.217327994737351"><ele>99.0</ele><time>2026-04-11T08:33:27Z</time></trkpt><trkpt lat="45.37895216334599" lon="9.21716127625817"><ele>99.0</ele><time>2026-04-11T08:33:28Z</time></trkpt><trkpt lat="45.37892478515984" lon="9.216973740037623"><ele>99.0</ele><time>2026-04-11T08:33:29Z</time></trkpt><trkpt lat="45.37889238958556" lon="9.216784451322432"><ele>99.0</ele><time>2026-04-11T08:33:30Z</time></trkpt><trkpt lat="45.37886770313383" lon="9.216614633400521"><ele>99.4</ele><time>2026-04-11T08:33:31Z</time></trkpt><trkpt lat="45.37884489174676" lon="9.216460259276575"><ele>99.80000000000001</ele><time>2026-04-11T08:33:32Z</time></trkpt><trkpt lat="45.378825307514504" lon="9.216313911402704"><ele>100.19999999999999</ele><time>2026-04-11T08:33:33Z</time></trkpt><trkpt lat="45.37881875231052" lon="9.216178649043183"><ele>100.6</ele><time>2026-04-11T08:33:34Z</time></trkpt><trkpt lat="45.378816636411756" lon="9.216047882171624"><ele>101.0</ele><time>2026-04-11T08:33:35Z</time></trkpt><trkpt lat="45.37882697891318" lon="9.215934879271412"><ele>100.99999999999999</ele><time>2026-04-11T08:33:36Z</time></trkpt><trkpt lat="45.378837007857115" lon="9.215834485807237"><ele>101.0</ele><time>2026-04-11T08:33:37Z</time></trkpt><trkpt lat="45.378848908568884" lon="9.215744296826351"><ele>101.0</ele><time>2026-04-11T08:33:38Z</time></trkpt><trkpt lat="45.37886061840793" lon="9.21557892389638"><ele>101.0</ele><time>2026-04-11T08:33:40Z</time></trkpt><trkpt lat="45.37887115582666" lon="9.215482238767649"><ele>100.99999999999999</ele><time>2026-04-11T08:33:41Z</time></trkpt><trkpt lat="45.37887391111883" lon="9.215364405874258"><ele>101.0</ele><time>2026-04-11T08:33:42Z</time></trkpt><trkpt lat="45.378874493829414" lon="9.215241517130472"><ele>100.99999999999999</ele><time>2026-04-11T08:33:43Z</time></trkpt><trkpt lat="45.37885771002853" lon="9.215132863677308"><ele>101.0</ele><time>2026-04-11T08:33:44Z</time></trkpt><trkpt lat="45.37883613923796" lon="9.215001746669877"><ele>101.0</ele><time>2026-04-11T08:33:46Z</time></trkpt><trkpt lat="45.37879392114948" lon="9.21491017845324"><ele>101.0</ele><time>2026-04-11T08:33:48.999Z</time></trkpt><trkpt lat="45.378832779635204" lon="9.214763798083561"><ele>100.99999999999999</ele><time>2026-04-11T08:33:50.999Z</time></trkpt><trkpt lat="45.37888948640246" lon="9.21467370342817"><ele>101.0</ele><time>2026-04-11T08:33:51.999Z</time></trkpt><trkpt lat="45.37894971120788" lon="9.214609689947409"><ele>100.66666666666666</ele><time>2026-04-11T08:33:52.999Z</time></trkpt><trkpt lat="45.379010447188115" lon="9.214553175400928"><ele>100.33333333333333</ele><time>2026-04-11T08:33:53.999Z</time></trkpt><trkpt lat="45.379076233237505" lon="9.214484296917806"><ele>100.0</ele><time>2026-04-11T08:33:54.999Z</time></trkpt><trkpt lat="45.37914625978637" lon="9.214406430132934"><ele>99.66666666666666</ele><time>2026-04-11T08:33:55.999Z</time></trkpt><trkpt lat="45.3792100926303" lon="9.21433488933351"><ele>99.33333333333333</ele><time>2026-04-11T08:33:56.999Z</time></trkpt><trkpt lat="45.379270599399334" lon="9.214267398604829"><ele>99.0</ele><time>2026-04-11T08:33:57.999Z</time></trkpt><trkpt lat="45.379330119270776" lon="9.214190060724944"><ele>99.0</ele><time>2026-04-11T08:33:58.999Z</time></trkpt><trkpt lat="45.37939257696315" lon="9.21409766905901"><ele>99.0</ele><time>2026-04-11T08:33:59.999Z</time></trkpt><trkpt lat="45.379414778557276" lon="9.213948022592271"><ele>99.0</ele><time>2026-04-11T08:34:00.999Z</time></trkpt><trkpt lat="45.379430056087756" lon="9.213793084601436"><ele>99.0</ele><time>2026-04-11T08:34:01.999Z</time></trkpt><trkpt lat="45.379439484651456" lon="9.213661291822435"><ele>99.0</ele><time>2026-04-11T08:34:02.999Z</time></trkpt><trkpt lat="45.37944780920947" lon="9.213544930862298"><ele>99.0</ele><time>2026-04-11T08:34:03.999Z</time></trkpt><trkpt lat="45.37944507411947" lon="9.213416842991352"><ele>99.0</ele><time>2026-04-11T08:34:04.999Z</time></trkpt><trkpt lat="45.37945919300974" lon="9.213304040193254"><ele>99.0</ele><time>2026-04-11T08:34:05.999Z</time></trkpt><trkpt lat="45.37948245839095" lon="9.213208962923535"><ele>99.0</ele><time>2026-04-11T08:34:06.999Z</time></trkpt><trkpt lat="45.379538714320354" lon="9.213074558302784"><ele>99.0</ele><time>2026-04-11T08:34:08.999Z</time></trkpt><trkpt lat="45.379556518729466" lon="9.212982972529202"><ele>99.0</ele><time>2026-04-11T08:34:10.999Z</time></trkpt><trkpt lat="45.379598894804154" lon="9.212897193648582"><ele>99.0</ele><time>2026-04-11T08:34:17.999Z</time></trkpt><trkpt lat="45.37967129698091" lon="9.212863959777406"><ele>99.0</ele><time>2026-04-11T08:34:19.999Z</time></trkpt><trkpt lat="45.37969110492345" lon="9.212717427937859"><ele>99.0</ele><time>2026-04-11T08:34:21.999Z</time></trkpt><trkpt lat="45.37968346696715" lon="9.212599920973094"><ele>99.0</ele><time>2026-04-11T08:34:22.999Z</time></trkpt><trkpt lat="45.37968577744489" lon="9.212483498243945"><ele>99.0</ele><time>2026-04-11T08:34:23.999Z</time></trkpt><trkpt lat="45.37968797264878" lon="9.212364352903462"><ele>99.0</ele><time>2026-04-11T08:34:24.999Z</time></trkpt><trkpt lat="45.37969082575141" lon="9.21222481585889"><ele>98.75</ele><time>2026-04-11T08:34:25.999Z</time></trkpt><trkpt lat="45.37970791117301" lon="9.212068932025064"><ele>98.5</ele><time>2026-04-11T08:34:26.999Z</time></trkpt><trkpt lat="45.37970581040596" lon="9.21189955852747"><ele>98.25</ele><time>2026-04-11T08:34:27.999Z</time></trkpt><trkpt lat="45.379697062923164" lon="9.211738073416736"><ele>98.0</ele><time>2026-04-11T08:34:28.999Z</time></trkpt><trkpt lat="45.37967643983921" lon="9.211585022959124"><ele>98.16666666666666</ele><time>2026-04-11T08:34:29.999Z</time></trkpt><trkpt lat="45.379670732983286" lon="9.211459573098615"><ele>98.33333333333333</ele><time>2026-04-11T08:34:30.999Z</time></trkpt><trkpt lat="45.37966382616064" lon="9.211342640618543"><ele>98.5</ele><time>2026-04-11T08:34:31.999Z</time></trkpt><trkpt lat="45.37965767201525" lon="9.211232362575721"><ele>98.66666666666666</ele><time>2026-04-11T08:34:32.999Z</time></trkpt><trkpt lat="45.379647440587796" lon="9.211127670879376"><ele>98.83333333333333</ele><time>2026-04-11T08:34:33.999Z</time></trkpt><trkpt lat="45.37964028269678" lon="9.211012440976736"><ele>99.0</ele><time>2026-04-11T08:34:34.999Z</time></trkpt><trkpt lat="45.379634870728694" lon="9.210896536711056"><ele>99.0</ele><time>2026-04-11T08:34:35.999Z</time></trkpt><trkpt lat="45.37962673188517" lon="9.210767394350503"><ele>99.0</ele><time>2026-04-11T08:34:36.999Z</time></trkpt><trkpt lat="45.37961760946831" lon="9.210635608853988"><ele>99.0</ele><time>2026-04-11T08:34:37.999Z</time></trkpt><trkpt lat="45.379631554111" lon="9.210508042372982"><ele>99.0</ele><time>2026-04-11T08:34:38.999Z</time></trkpt><trkpt lat="45.37963228563436" lon="9.210387277178825"><ele>99.0</ele><time>2026-04-11T08:34:39.999Z</time></trkpt><trkpt lat="45.379638681388585" lon="9.21027157454501"><ele>99.0</ele><time>2026-04-11T08:34:40.999Z</time></trkpt><trkpt lat="45.3796337194986" lon="9.21016811872648"><ele>100.0</ele><time>2026-04-11T08:34:41.999Z</time></trkpt><trkpt lat="45.37965387788483" lon="9.210010465916529"><ele>101.0</ele><time>2026-04-11T08:34:43.999Z</time></trkpt><trkpt lat="45.379645639824865" lon="9.209875366646814"><ele>102.0</ele><time>2026-04-11T08:34:45.999Z</time></trkpt><trkpt lat="45.37948722935526" lon="9.209819252303483"><ele>103.0</ele><time>2026-04-11T08:34:48.999Z</time></trkpt><trkpt lat="45.37936276558126" lon="9.209860233064035"><ele>103.0</ele><time>2026-04-11T08:34:50.998Z</time></trkpt><trkpt lat="45.37924792360435" lon="9.209920813117295"><ele>103.0</ele><time>2026-04-11T08:34:51.998Z</time></trkpt><trkpt lat="45.37912949158216" lon="9.209963337378946"><ele>103.0</ele><time>2026-04-11T08:34:52.998Z</time></trkpt><trkpt lat="45.378993813980976" lon="9.21001750265716"><ele>103.0</ele><time>2026-04-11T08:34:53.998Z</time></trkpt><trkpt lat="45.37886338320886" lon="9.210052114637433"><ele>102.5</ele><time>2026-04-11T08:34:54.998Z</time></trkpt><trkpt lat="45.37871048912689" lon="9.210099053255739"><ele>102.0</ele><time>2026-04-11T08:34:55.998Z</time></trkpt><trkpt lat="45.37858353617865" lon="9.210169676239078"><ele>101.5</ele><time>2026-04-11T08:34:56.998Z</time></trkpt><trkpt lat="45.37851484497253" lon="9.210217538185985"><ele>101.0</ele><time>2026-04-11T08:34:57.998Z</time></trkpt><trkpt lat="45.37840483275377" lon="9.210249038797073"><ele>101.0</ele><time>2026-04-11T08:34:58.998Z</time></trkpt><trkpt lat="45.37830247615042" lon="9.210278875921972"><ele>101.0</ele><time>2026-04-11T08:34:59.998Z</time></trkpt><trkpt lat="45.37818481046669" lon="9.210326995092379"><ele>101.0</ele><time>2026-04-11T08:35:00.998Z</time></trkpt><trkpt lat="45.37806002325233" lon="9.210373147803493"><ele>101.0</ele><time>2026-04-11T08:35:01.998Z</time></trkpt><trkpt lat="45.377940003296686" lon="9.210418725480876"><ele>101.0</ele><time>2026-04-11T08:35:02.998Z</time></trkpt><trkpt lat="45.37783533765983" lon="9.210450699285744"><ele>101.0</ele><time>2026-04-11T08:35:03.998Z</time></trkpt><trkpt lat="45.3777413246438" lon="9.210484077781604"><ele>101.0</ele><time>2026-04-11T08:35:04.998Z</time></trkpt><trkpt lat="45.37765422773487" lon="9.210523074394708"><ele>101.0</ele><time>2026-04-11T08:35:05.998Z</time></trkpt><trkpt lat="45.37758501746177" lon="9.210557590221951"><ele>101.0</ele><time>2026-04-11T08:35:06.998Z</time></trkpt><trkpt lat="45.37749269983196" lon="9.210567335913902"><ele>101.0</ele><time>2026-04-11T08:35:09Z</time></trkpt><trkpt lat="45.37744208433522" lon="9.210400361473802"><ele>101.0</ele><time>2026-04-11T08:35:11Z</time></trkpt><trkpt lat="45.37741096402731" lon="9.21028956524895"><ele>101.0</ele><time>2026-04-11T08:35:12Z</time></trkpt><trkpt lat="45.377379410129954" lon="9.210164154238944"><ele>101.0</ele><time>2026-04-11T08:35:13Z</time></trkpt><trkpt lat="45.37735429174153" lon="9.21004287148544"><ele>101.0</ele><time>2026-04-11T08:35:14Z</time></trkpt><trkpt lat="45.377334626999364" lon="9.209951741727757"><ele>100.8</ele><time>2026-04-11T08:35:15Z</time></trkpt><trkpt lat="45.37729343462095" lon="9.209812453422105"><ele>100.6</ele><time>2026-04-11T08:35:17Z</time></trkpt><trkpt lat="45.3772750369945" lon="9.209707309728985"><ele>100.4</ele><time>2026-04-11T08:35:20Z</time></trkpt><trkpt lat="45.377113695696956" lon="9.209683289751057"><ele>100.2</ele><time>2026-04-11T08:35:22Z</time></trkpt><trkpt lat="45.377027430054724" lon="9.20966260965832"><ele>100.0</ele><time>2026-04-11T08:35:23Z</time></trkpt><trkpt lat="45.37695258112968" lon="9.209624578637193"><ele>99.6</ele><time>2026-04-11T08:35:24Z</time></trkpt><trkpt lat="45.376867165248214" lon="9.209626904412696"><ele>99.2</ele><time>2026-04-11T08:35:25Z</time></trkpt><trkpt lat="45.37679530149863" lon="9.209603706005726"><ele>98.80000000000001</ele><time>2026-04-11T08:35:26Z</time></trkpt><trkpt lat="45.376662291532455" lon="9.20958438004648"><ele>98.4</ele><time>2026-04-11T08:35:28Z</time></trkpt><trkpt lat="45.376569175033715" lon="9.2095487165289"><ele>98.0</ele><time>2026-04-11T08:35:29Z</time></trkpt><trkpt lat="45.37646716683027" lon="9.20951397607384"><ele>97.99999999999999</ele><time>2026-04-11T08:35:30Z</time></trkpt><trkpt lat="45.37638217486712" lon="9.209500530103123"><ele>98.0</ele><time>2026-04-11T08:35:31Z</time></trkpt><trkpt lat="45.37630491442708" lon="9.209501485571609"><ele>98.0</ele><time>2026-04-11T08:35:32Z</time></trkpt><trkpt lat="45.37621885047566" lon="9.209490009012788"><ele>98.0</ele><time>2026-04-11T08:35:33Z</time></trkpt><trkpt lat="45.376130346235534" lon="9.209475900023584"><ele>97.99999999999999</ele><time>2026-04-11T08:35:34Z</time></trkpt><trkpt lat="45.376039260006955" lon="9.20946036697946"><ele>98.0</ele><time>2026-04-11T08:35:35Z</time></trkpt><trkpt lat="45.375941958874016" lon="9.209438883611455"><ele>98.0</ele><time>2026-04-11T08:35:36Z</time></trkpt><trkpt lat="45.37584748312291" lon="9.209417055586089"><ele>98.0</ele><time>2026-04-11T08:35:37Z</time></trkpt><trkpt lat="45.37575303318178" lon="9.20938656645868"><ele>98.0</ele><time>2026-04-11T08:35:38Z</time></trkpt><trkpt lat="45.375653817754454" lon="9.209343610009736"><ele>98.0</ele><time>2026-04-11T08:35:39Z</time></trkpt><trkpt lat="45.37553925322127" lon="9.209307943661775"><ele>98.0</ele><time>2026-04-11T08:35:40Z</time></trkpt><trkpt lat="45.37543354074719" lon="9.209298078719804"><ele>98.4</ele><time>2026-04-11T08:35:41Z</time></trkpt><trkpt lat="45.37532778653236" lon="9.20928779930378"><ele>98.80000000000001</ele><time>2026-04-11T08:35:42Z</time></trkpt><trkpt lat="45.37521913977424" lon="9.20929451935738"><ele>99.2</ele><time>2026-04-11T08:35:43Z</time></trkpt><trkpt lat="45.375115608201774" lon="9.209293764722895"><ele>99.6</ele><time>2026-04-11T08:35:44Z</time></trkpt><trkpt lat="45.375015471779435" lon="9.209281561698043"><ele>100.0</ele><time>2026-04-11T08:35:45Z</time></trkpt><trkpt lat="45.3749146211155" lon="9.20927010877172"><ele>100.00000000000001</ele><time>2026-04-11T08:35:46Z</time></trkpt><trkpt lat="45.37481450500763" lon="9.2092624507643"><ele>100.0</ele><time>2026-04-11T08:35:47Z</time></trkpt><trkpt lat="45.37472854381106" lon="9.2092594751212"><ele>100.0</ele><time>2026-04-11T08:35:48Z</time></trkpt><trkpt lat="45.37464108232566" lon="9.209250329670922"><ele>100.0</ele><time>2026-04-11T08:35:49Z</time></trkpt><trkpt lat="45.37456070153459" lon="9.209243693773269"><ele>100.00000000000001</ele><time>2026-04-11T08:35:50Z</time></trkpt><trkpt lat="45.374467701847614" lon="9.209238939857686"><ele>100.0</ele><time>2026-04-11T08:35:50.999Z</time></trkpt><trkpt lat="45.37436638063833" lon="9.209236344985072"><ele>100.0</ele><time>2026-04-11T08:35:51.999Z</time></trkpt><trkpt lat="45.37426022126693" lon="9.209203677804878"><ele>100.0</ele><time>2026-04-11T08:35:52.999Z</time></trkpt><trkpt lat="45.374154017010966" lon="9.209191433573999"><ele>100.0</ele><time>2026-04-11T08:35:53.999Z</time></trkpt><trkpt lat="45.37404988728099" lon="9.20918259849291"><ele>100.0</ele><time>2026-04-11T08:35:54.999Z</time></trkpt><trkpt lat="45.37393715527381" lon="9.209195159786221"><ele>100.0</ele><time>2026-04-11T08:35:55.999Z</time></trkpt><trkpt lat="45.373828021733594" lon="9.209178975196998"><ele>99.6</ele><time>2026-04-11T08:35:56.999Z</time></trkpt><trkpt lat="45.373719964154816" lon="9.20916654924195"><ele>99.2</ele><time>2026-04-11T08:35:57.999Z</time></trkpt><trkpt lat="45.37361711001757" lon="9.209154749098602"><ele>98.80000000000001</ele><time>2026-04-11T08:35:58.999Z</time></trkpt><trkpt lat="45.37351322336904" lon="9.209144486364995"><ele>98.4</ele><time>2026-04-11T08:35:59.999Z</time></trkpt><trkpt lat="45.373411584746854" lon="9.209136437499552"><ele>98.0</ele><time>2026-04-11T08:36:00.999Z</time></trkpt><trkpt lat="45.373310680817056" lon="9.209126294751254"><ele>98.0</ele><time>2026-04-11T08:36:01.999Z</time></trkpt><trkpt lat="45.37321234502669" lon="9.209122477943508"><ele>98.0</ele><time>2026-04-11T08:36:02.999Z</time></trkpt><trkpt lat="45.37312417851352" lon="9.209123194568258"><ele>98.0</ele><time>2026-04-11T08:36:03.999Z</time></trkpt><trkpt lat="45.37304553094828" lon="9.209111174818421"><ele>98.0</ele><time>2026-04-11T08:36:04.999Z</time></trkpt><trkpt lat="45.37295548121585" lon="9.209087600225917"><ele>98.0</ele><time>2026-04-11T08:36:05.999Z</time></trkpt><trkpt lat="45.37285954254718" lon="9.20905460852798"><ele>98.2</ele><time>2026-04-11T08:36:06.999Z</time></trkpt><trkpt lat="45.372755780657684" lon="9.209024480968898"><ele>98.4</ele><time>2026-04-11T08:36:07.999Z</time></trkpt><trkpt lat="45.37265985579051" lon="9.208994008227945"><ele>98.60000000000001</ele><time>2026-04-11T08:36:08.999Z</time></trkpt><trkpt lat="45.372569488122906" lon="9.208976839048999"><ele>98.80000000000001</ele><time>2026-04-11T08:36:09.999Z</time></trkpt><trkpt lat="45.3724743973303" lon="9.208955895216711"><ele>99.0</ele><time>2026-04-11T08:36:10.999Z</time></trkpt><trkpt lat="45.372382858894994" lon="9.20894080264476"><ele>99.0</ele><time>2026-04-11T08:36:11.999Z</time></trkpt><trkpt lat="45.37228301737401" lon="9.208929710469786"><ele>99.0</ele><time>2026-04-11T08:36:12.999Z</time></trkpt><trkpt lat="45.372171856399405" lon="9.20889776707093"><ele>99.0</ele><time>2026-04-11T08:36:13.999Z</time></trkpt><trkpt lat="45.37206326743025" lon="9.208873574122853"><ele>99.0</ele><time>2026-04-11T08:36:14.999Z</time></trkpt><trkpt lat="45.37196605996136" lon="9.208863390516605"><ele>99.0</ele><time>2026-04-11T08:36:15.999Z</time></trkpt><trkpt lat="45.37187430633237" lon="9.20882814564401"><ele>98.80000000000001</ele><time>2026-04-11T08:36:16.999Z</time></trkpt><trkpt lat="45.371778801904966" lon="9.208802734773956"><ele>98.60000000000001</ele><time>2026-04-11T08:36:17.999Z</time></trkpt><trkpt lat="45.3716899597915" lon="9.208779096551817"><ele>98.4</ele><time>2026-04-11T08:36:18.999Z</time></trkpt><trkpt lat="45.37159548952246" lon="9.208753960843211"><ele>98.2</ele><time>2026-04-11T08:36:19.999Z</time></trkpt><trkpt lat="45.37152760335846" lon="9.208735898367781"><ele>98.0</ele><time>2026-04-11T08:36:20.999Z</time></trkpt><trkpt lat="45.371201888788406" lon="9.20864923543496"><ele>98.0</ele><time>2026-04-11T08:36:21.999Z</time></trkpt><trkpt lat="45.37107682027914" lon="9.208617892897724"><ele>98.0</ele><time>2026-04-11T08:36:22.999Z</time></trkpt><trkpt lat="45.370957940108966" lon="9.208586949750343"><ele>98.0</ele><time>2026-04-11T08:36:23.999Z</time></trkpt><trkpt lat="45.370846042119304" lon="9.208557823991033"><ele>98.0</ele><time>2026-04-11T08:36:24.999Z</time></trkpt><trkpt lat="45.37073478542147" lon="9.208528865136014"><ele>98.0</ele><time>2026-04-11T08:36:25.999Z</time></trkpt><trkpt lat="45.37062381094225" lon="9.208499979751593"><ele>98.0</ele><time>2026-04-11T08:36:26.999Z</time></trkpt><trkpt lat="45.370510108788594" lon="9.208470384385818"><ele>98.0</ele><time>2026-04-11T08:36:27.999Z</time></trkpt><trkpt lat="45.37040096541291" lon="9.20844197561354"><ele>98.0</ele><time>2026-04-11T08:36:28.999Z</time></trkpt><trkpt lat="45.37029861762572" lon="9.208438045542971"><ele>98.0</ele><time>2026-04-11T08:36:29.999Z</time></trkpt><trkpt lat="45.37020598912206" lon="9.20839817705764"><ele>98.2</ele><time>2026-04-11T08:36:30.999Z</time></trkpt><trkpt lat="45.37013131804939" lon="9.208374016658274"><ele>98.4</ele><time>2026-04-11T08:36:31.999Z</time></trkpt><trkpt lat="45.370061362464554" lon="9.208353526727677"><ele>98.60000000000001</ele><time>2026-04-11T08:36:32.999Z</time></trkpt><trkpt lat="45.369969471825165" lon="9.208319983439551"><ele>98.80000000000001</ele><time>2026-04-11T08:36:34.999Z</time></trkpt><trkpt lat="45.3699370963463" lon="9.208584670838984"><ele>99.0</ele><time>2026-04-11T08:36:39.999Z</time></trkpt><trkpt lat="45.369956364012566" lon="9.208699946072569"><ele>99.0</ele><time>2026-04-11T08:36:40.999Z</time></trkpt><trkpt lat="45.369983245659434" lon="9.208826010353228"><ele>99.0</ele><time>2026-04-11T08:36:41.999Z</time></trkpt><trkpt lat="45.36999755845769" lon="9.208942434039429"><ele>99.0</ele><time>2026-04-11T08:36:42.999Z</time></trkpt><trkpt lat="45.37001470370001" lon="9.209059035674777"><ele>99.0</ele><time>2026-04-11T08:36:43.999Z</time></trkpt><trkpt lat="45.37001016208136" lon="9.20917506096446"><ele>99.0</ele><time>2026-04-11T08:36:44.999Z</time></trkpt><trkpt lat="45.36998745706996" lon="9.209310352702609"><ele>99.0</ele><time>2026-04-11T08:36:45.999Z</time></trkpt><trkpt lat="45.36996328402925" lon="9.209433601149541"><ele>99.0</ele><time>2026-04-11T08:36:46.999Z</time></trkpt><trkpt lat="45.36994234937081" lon="9.20954771497641"><ele>99.0</ele><time>2026-04-11T08:36:47.999Z</time></trkpt><trkpt lat="45.369922575038785" lon="9.209652923830557"><ele>99.0</ele><time>2026-04-11T08:36:48.999Z</time></trkpt><trkpt lat="45.36990286481029" lon="9.209752008304466"><ele>99.0</ele><time>2026-04-11T08:36:49.999Z</time></trkpt><trkpt lat="45.369862601372326" lon="9.209928706257918"><ele>99.0</ele><time>2026-04-11T08:36:51.999Z</time></trkpt><trkpt lat="45.36980541252315" lon="9.210015151115376"><ele>99.0</ele><time>2026-04-11T08:36:52.999Z</time></trkpt><trkpt lat="45.36972452649964" lon="9.210057288612543"><ele>99.16666666666667</ele><time>2026-04-11T08:36:53.999Z</time></trkpt><trkpt lat="45.36965541742814" lon="9.210073164792155"><ele>99.33333333333334</ele><time>2026-04-11T08:36:54.999Z</time></trkpt><trkpt lat="45.36956263488348" lon="9.210092829129021"><ele>99.5</ele><time>2026-04-11T08:36:56.999Z</time></trkpt><trkpt lat="45.36944814148463" lon="9.210103831972114"><ele>99.66666666666667</ele><time>2026-04-11T08:36:59.998Z</time></trkpt><trkpt lat="45.36937337179553" lon="9.210081043844779"><ele>99.83333333333334</ele><time>2026-04-11T08:37:00.998Z</time></trkpt><trkpt lat="45.369287563883105" lon="9.210042219321744"><ele>100.0</ele><time>2026-04-11T08:37:01.998Z</time></trkpt><trkpt lat="45.36920251297125" lon="9.210009560824776"><ele>100.0</ele><time>2026-04-11T08:37:02.998Z</time></trkpt><trkpt lat="45.36912240077696" lon="9.209978037632643"><ele>100.0</ele><time>2026-04-11T08:37:03.998Z</time></trkpt><trkpt lat="45.36902763311678" lon="9.209945416881817"><ele>100.0</ele><time>2026-04-11T08:37:04.998Z</time></trkpt><trkpt lat="45.3689204770011" lon="9.209907808925143"><ele>100.0</ele><time>2026-04-11T08:37:05.998Z</time></trkpt><trkpt lat="45.36881149382545" lon="9.209868612367499"><ele>100.0</ele><time>2026-04-11T08:37:06.998Z</time></trkpt><trkpt lat="45.36870276129463" lon="9.209828661507187"><ele>100.25</ele><time>2026-04-11T08:37:07.998Z</time></trkpt><trkpt lat="45.368597147681434" lon="9.209789564966014"><ele>100.5</ele><time>2026-04-11T08:37:08.998Z</time></trkpt><trkpt lat="45.36848960944573" lon="9.209754176869906"><ele>100.75</ele><time>2026-04-11T08:37:09.998Z</time></trkpt><trkpt lat="45.368371150610656" lon="9.209713170894533"><ele>101.0</ele><time>2026-04-11T08:37:10.998Z</time></trkpt><trkpt lat="45.36824488809954" lon="9.209671540104061"><ele>101.0</ele><time>2026-04-11T08:37:11.998Z</time></trkpt><trkpt lat="45.36811427473676" lon="9.209626517479814"><ele>101.0</ele><time>2026-04-11T08:37:12.998Z</time></trkpt><trkpt lat="45.36798763175212" lon="9.209583104637762"><ele>101.0</ele><time>2026-04-11T08:37:13.998Z</time></trkpt><trkpt lat="45.36787795982455" lon="9.209546115342896"><ele>101.0</ele><time>2026-04-11T08:37:15Z</time></trkpt><trkpt lat="45.36777725222346" lon="9.209507987966797"><ele>100.6</ele><time>2026-04-11T08:37:16Z</time></trkpt><trkpt lat="45.36767957643903" lon="9.209472170040156"><ele>100.19999999999999</ele><time>2026-04-11T08:37:17Z</time></trkpt><trkpt lat="45.36757579481344" lon="9.209429134396578"><ele>99.80000000000001</ele><time>2026-04-11T08:37:18Z</time></trkpt><trkpt lat="45.36748150469795" lon="9.209359563573885"><ele>99.4</ele><time>2026-04-11T08:37:19Z</time></trkpt><trkpt lat="45.367417384420754" lon="9.209250414383424"><ele>99.0</ele><time>2026-04-11T08:37:20Z</time></trkpt><trkpt lat="45.36738954810511" lon="9.209124363494361"><ele>99.0</ele><time>2026-04-11T08:37:21Z</time></trkpt><trkpt lat="45.367348832435894" lon="9.209037208250955"><ele>99.0</ele><time>2026-04-11T08:37:22Z</time></trkpt><trkpt lat="45.367278070403415" lon="9.209015073922059"><ele>99.0</ele><time>2026-04-11T08:37:23Z</time></trkpt><trkpt lat="45.367195841787144" lon="9.209046503681524"><ele>99.0</ele><time>2026-04-11T08:37:24Z</time></trkpt><trkpt lat="45.36711312440805" lon="9.209132972141113"><ele>99.0</ele><time>2026-04-11T08:37:25Z</time></trkpt><trkpt lat="45.36701645432641" lon="9.209223483659235"><ele>99.0</ele><time>2026-04-11T08:37:26Z</time></trkpt><trkpt lat="45.36689642911766" lon="9.209227649519818"><ele>98.5</ele><time>2026-04-11T08:37:27Z</time></trkpt><trkpt lat="45.36676570879086" lon="9.20917938301411"><ele>98.0</ele><time>2026-04-11T08:37:28Z</time></trkpt><trkpt lat="45.36663803396379" lon="9.209128271247852"><ele>97.5</ele><time>2026-04-11T08:37:29Z</time></trkpt><trkpt lat="45.36651208361897" lon="9.209086351419758"><ele>97.0</ele><time>2026-04-11T08:37:30Z</time></trkpt><trkpt lat="45.36639291852847" lon="9.20904422934379"><ele>97.0</ele><time>2026-04-11T08:37:31Z</time></trkpt><trkpt lat="45.366277639944464" lon="9.209002069735849"><ele>97.0</ele><time>2026-04-11T08:37:32Z</time></trkpt><trkpt lat="45.3661659016751" lon="9.208965421407937"><ele>97.0</ele><time>2026-04-11T08:37:33Z</time></trkpt><trkpt lat="45.366068852951486" lon="9.208933955226318"><ele>97.0</ele><time>2026-04-11T08:37:34Z</time></trkpt><trkpt lat="45.36597956610542" lon="9.208902480264344"><ele>97.0</ele><time>2026-04-11T08:37:35Z</time></trkpt><trkpt lat="45.365898815850265" lon="9.208872891113964"><ele>97.16666666666667</ele><time>2026-04-11T08:37:36Z</time></trkpt><trkpt lat="45.36582242080064" lon="9.208845165552631"><ele>97.33333333333334</ele><time>2026-04-11T08:37:37Z</time></trkpt><trkpt lat="45.36575477327141" lon="9.208829047317343"><ele>97.5</ele><time>2026-04-11T08:37:38Z</time></trkpt><trkpt lat="45.36563204327371" lon="9.20879882243992"><ele>97.66666666666666</ele><time>2026-04-11T08:37:40Z</time></trkpt><trkpt lat="45.36555437066382" lon="9.208793186279255"><ele>97.83333333333333</ele><time>2026-04-11T08:37:41Z</time></trkpt><trkpt lat="45.36546165698091" lon="9.208775265333488"><ele>98.0</ele><time>2026-04-11T08:37:42Z</time></trkpt><trkpt lat="45.36537472615944" lon="9.208738352658404"><ele>98.16666666666666</ele><time>2026-04-11T08:37:43Z</time></trkpt><trkpt lat="45.365302854575305" lon="9.208714729746033"><ele>98.33333333333333</ele><time>2026-04-11T08:37:44Z</time></trkpt><trkpt lat="45.36523411349535" lon="9.208735898593217"><ele>98.5</ele><time>2026-04-11T08:37:45Z</time></trkpt><trkpt lat="45.36518673882173" lon="9.20881064145543"><ele>98.66666666666666</ele><time>2026-04-11T08:37:46Z</time></trkpt><trkpt lat="45.36516835546096" lon="9.208919071806317"><ele>98.83333333333333</ele><time>2026-04-11T08:37:47Z</time></trkpt><trkpt lat="45.36518686797325" lon="9.209032919953476"><ele>99.0</ele><time>2026-04-11T08:37:48Z</time></trkpt><trkpt lat="45.365232506557994" lon="9.2091385721067"><ele>99.0</ele><time>2026-04-11T08:37:49Z</time></trkpt><trkpt lat="45.36525643900599" lon="9.209241678947768"><ele>99.0</ele><time>2026-04-11T08:37:50Z</time></trkpt><trkpt lat="45.36523604929289" lon="9.209361115149855"><ele>99.0</ele><time>2026-04-11T08:37:51Z</time></trkpt><trkpt lat="45.365172065101255" lon="9.209488884325255"><ele>99.0</ele><time>2026-04-11T08:37:51.999Z</time></trkpt><trkpt lat="45.365073380540785" lon="9.209578413198725"><ele>99.0</ele><time>2026-04-11T08:37:52.999Z</time></trkpt><trkpt lat="45.364958166521156" lon="9.209634862864688"><ele>99.0</ele><time>2026-04-11T08:37:53.999Z</time></trkpt><trkpt lat="45.364827242617096" lon="9.20969149352151"><ele>99.0</ele><time>2026-04-11T08:37:54.999Z</time></trkpt><trkpt lat="45.36468870296339" lon="9.209739531924534"><ele>99.0</ele><time>2026-04-11T08:37:55.999Z</time></trkpt><trkpt lat="45.364548092538975" lon="9.209799073523575"><ele>99.0</ele><time>2026-04-11T08:37:56.999Z</time></trkpt><trkpt lat="45.36441896105558" lon="9.209849033588219"><ele>97.66666666666667</ele><time>2026-04-11T08:37:57.999Z</time></trkpt><trkpt lat="45.36428134204121" lon="9.209910455385275"><ele>96.33333333333334</ele><time>2026-04-11T08:37:58.999Z</time></trkpt><trkpt lat="45.36413638258957" lon="9.209974688794334"><ele>95.0</ele><time>2026-04-11T08:37:59.999Z</time></trkpt><trkpt lat="45.36398705243956" lon="9.210036130205696"><ele>95.33333333333334</ele><time>2026-04-11T08:38:00.999Z</time></trkpt><trkpt lat="45.36383030520214" lon="9.210100882932634"><ele>95.66666666666667</ele><time>2026-04-11T08:38:01.999Z</time></trkpt><trkpt lat="45.3636762444811" lon="9.210168200734342"><ele>96.0</ele><time>2026-04-11T08:38:02.999Z</time></trkpt><trkpt lat="45.36353301703664" lon="9.210224569273063"><ele>96.0</ele><time>2026-04-11T08:38:03.999Z</time></trkpt><trkpt lat="45.36339678566354" lon="9.210283744266071"><ele>96.0</ele><time>2026-04-11T08:38:04.999Z</time></trkpt><trkpt lat="45.36326146452033" lon="9.210343906327234"><ele>96.0</ele><time>2026-04-11T08:38:05.999Z</time></trkpt><trkpt lat="45.36313974349823" lon="9.210398433595584"><ele>96.0</ele><time>2026-04-11T08:38:06.999Z</time></trkpt><trkpt lat="45.36303321153101" lon="9.210460714012527"><ele>96.0</ele><time>2026-04-11T08:38:07.999Z</time></trkpt><trkpt lat="45.36292011410415" lon="9.210535191404032"><ele>96.0</ele><time>2026-04-11T08:38:08.999Z</time></trkpt><trkpt lat="45.36279408170897" lon="9.210602763204191"><ele>96.0</ele><time>2026-04-11T08:38:09.999Z</time></trkpt><trkpt lat="45.36265286691414" lon="9.2106553914571"><ele>96.0</ele><time>2026-04-11T08:38:10.999Z</time></trkpt><trkpt lat="45.362507381544816" lon="9.210694286855368"><ele>96.0</ele><time>2026-04-11T08:38:11.999Z</time></trkpt><trkpt lat="45.36235618269411" lon="9.210730865444404"><ele>96.0</ele><time>2026-04-11T08:38:12.999Z</time></trkpt><trkpt lat="45.36220289806906" lon="9.210779721328015"><ele>96.0</ele><time>2026-04-11T08:38:13.999Z</time></trkpt><trkpt lat="45.362053808730955" lon="9.210847917416"><ele>97.0</ele><time>2026-04-11T08:38:14.999Z</time></trkpt><trkpt lat="45.36190022663125" lon="9.210921486006091"><ele>98.0</ele><time>2026-04-11T08:38:15.999Z</time></trkpt><trkpt lat="45.36175750484299" lon="9.210974918453024"><ele>99.0</ele><time>2026-04-11T08:38:16.999Z</time></trkpt><trkpt lat="45.36162960739639" lon="9.211021624405232"><ele>100.0</ele><time>2026-04-11T08:38:17.999Z</time></trkpt><trkpt lat="45.36151427894085" lon="9.21107060675505"><ele>100.0</ele><time>2026-04-11T08:38:18.999Z</time></trkpt><trkpt lat="45.36141082567991" lon="9.21111640889103"><ele>100.0</ele><time>2026-04-11T08:38:19.999Z</time></trkpt><trkpt lat="45.36130841400718" lon="9.211164094746934"><ele>100.0</ele><time>2026-04-11T08:38:20.999Z</time></trkpt><trkpt lat="45.36120974817796" lon="9.211237616668532"><ele>100.0</ele><time>2026-04-11T08:38:21.999Z</time></trkpt><trkpt lat="45.3611262122674" lon="9.211341047400401"><ele>100.0</ele><time>2026-04-11T08:38:22.999Z</time></trkpt><trkpt lat="45.36104970252308" lon="9.211436914341549"><ele>99.5</ele><time>2026-04-11T08:38:23.999Z</time></trkpt><trkpt lat="45.360945330906354" lon="9.211483687034802"><ele>99.0</ele><time>2026-04-11T08:38:24.999Z</time></trkpt><trkpt lat="45.36081609620423" lon="9.211502057868152"><ele>98.5</ele><time>2026-04-11T08:38:25.999Z</time></trkpt><trkpt lat="45.36067792558942" lon="9.211519300057136"><ele>98.0</ele><time>2026-04-11T08:38:26.999Z</time></trkpt><trkpt lat="45.36053936247161" lon="9.211534016969278"><ele>97.25</ele><time>2026-04-11T08:38:27.999Z</time></trkpt><trkpt lat="45.360404793242225" lon="9.211564531015735"><ele>96.5</ele><time>2026-04-11T08:38:28.999Z</time></trkpt><trkpt lat="45.36027554507629" lon="9.211597024040842"><ele>95.75</ele><time>2026-04-11T08:38:29.999Z</time></trkpt><trkpt lat="45.36013408515519" lon="9.211628918131948"><ele>95.0</ele><time>2026-04-11T08:38:30.999Z</time></trkpt><trkpt lat="45.35998716396912" lon="9.211656311515263"><ele>95.0</ele><time>2026-04-11T08:38:31.999Z</time></trkpt><trkpt lat="45.3598306069931" lon="9.211678154623081"><ele>95.0</ele><time>2026-04-11T08:38:32.999Z</time></trkpt><trkpt lat="45.35969268160098" lon="9.211690000854247"><ele>95.0</ele><time>2026-04-11T08:38:33.999Z</time></trkpt><trkpt lat="45.35958290383938" lon="9.211702193300944"><ele>95.0</ele><time>2026-04-11T08:38:34.999Z</time></trkpt><trkpt lat="45.35949282341726" lon="9.211715040543655"><ele>94.66666666666667</ele><time>2026-04-11T08:38:35.999Z</time></trkpt><trkpt lat="45.35940595676108" lon="9.211733539017256"><ele>94.33333333333334</ele><time>2026-04-11T08:38:36.999Z</time></trkpt><trkpt lat="45.35932893361952" lon="9.211745171737721"><ele>94.0</ele><time>2026-04-11T08:38:37.999Z</time></trkpt><trkpt lat="45.359248350752324" lon="9.211743679647432"><ele>93.66666666666667</ele><time>2026-04-11T08:38:38.999Z</time></trkpt><trkpt lat="45.359156466111294" lon="9.21174744792192"><ele>93.33333333333333</ele><time>2026-04-11T08:38:39.999Z</time></trkpt><trkpt lat="45.35904907126823" lon="9.211784021686709"><ele>93.0</ele><time>2026-04-11T08:38:40.999Z</time></trkpt><trkpt lat="45.358936232491416" lon="9.211841845959423"><ele>92.5</ele><time>2026-04-11T08:38:41.999Z</time></trkpt><trkpt lat="45.35882862727935" lon="9.21190012713256"><ele>92.0</ele><time>2026-04-11T08:38:42.999Z</time></trkpt><trkpt lat="45.35871381586019" lon="9.211967273323847"><ele>91.5</ele><time>2026-04-11T08:38:43.999Z</time></trkpt><trkpt lat="45.3585992805186" lon="9.212055730013475"><ele>91.0</ele><time>2026-04-11T08:38:44.999Z</time></trkpt><trkpt lat="45.35848626889962" lon="9.21215343219313"><ele>91.0</ele><time>2026-04-11T08:38:45.999Z</time></trkpt><trkpt lat="45.358369347599435" lon="9.212245456413106"><ele>91.0</ele><time>2026-04-11T08:38:46.999Z</time></trkpt><trkpt lat="45.358252871056834" lon="9.212336388959939"><ele>91.0</ele><time>2026-04-11T08:38:47.999Z</time></trkpt><trkpt lat="45.35813489696394" lon="9.212426725735167"><ele>91.0</ele><time>2026-04-11T08:38:48.999Z</time></trkpt><trkpt lat="45.35801358514615" lon="9.212520868196805"><ele>91.5</ele><time>2026-04-11T08:38:49.999Z</time></trkpt><trkpt lat="45.35789653264295" lon="9.212611134702842"><ele>92.0</ele><time>2026-04-11T08:38:50.999Z</time></trkpt><trkpt lat="45.35778766324472" lon="9.212692572125297"><ele>92.5</ele><time>2026-04-11T08:38:51.999Z</time></trkpt><trkpt lat="45.35768049687505" lon="9.212774185118699"><ele>93.0</ele><time>2026-04-11T08:38:52.999Z</time></trkpt><trkpt lat="45.35756307528998" lon="9.212861672261097"><ele>93.0</ele><time>2026-04-11T08:38:53.999Z</time></trkpt><trkpt lat="45.35744480427361" lon="9.212942444141696"><ele>93.0</ele><time>2026-04-11T08:38:54.999Z</time></trkpt><trkpt lat="45.35732498635544" lon="9.213036287597799"><ele>93.0</ele><time>2026-04-11T08:38:55.999Z</time></trkpt><trkpt lat="45.35720117993699" lon="9.213130701773347"><ele>93.0</ele><time>2026-04-11T08:38:56.999Z</time></trkpt><trkpt lat="45.35708168330303" lon="9.213220528290204"><ele>92.25</ele><time>2026-04-11T08:38:57.999Z</time></trkpt><trkpt lat="45.35696911137864" lon="9.21330083288751"><ele>91.5</ele><time>2026-04-11T08:38:58.999Z</time></trkpt><trkpt lat="45.35686540125881" lon="9.213384716779679"><ele>90.75</ele><time>2026-04-11T08:38:59.999Z</time></trkpt><trkpt lat="45.35676411929203" lon="9.21346809292242"><ele>90.0</ele><time>2026-04-11T08:39:00.999Z</time></trkpt><trkpt lat="45.356670446782125" lon="9.21355084214655"><ele>90.0</ele><time>2026-04-11T08:39:01.999Z</time></trkpt><trkpt lat="45.35658017401781" lon="9.213646211068642"><ele>90.0</ele><time>2026-04-11T08:39:02.999Z</time></trkpt><trkpt lat="45.35649312156268" lon="9.213746602254997"><ele>90.0</ele><time>2026-04-11T08:39:03.998Z</time></trkpt><trkpt lat="45.356407627214736" lon="9.21383887748578"><ele>90.0</ele><time>2026-04-11T08:39:04.998Z</time></trkpt><trkpt lat="45.35632736958371" lon="9.213923837506163"><ele>90.0</ele><time>2026-04-11T08:39:05.998Z</time></trkpt><trkpt lat="45.356245978124804" lon="9.214004426640791"><ele>91.2</ele><time>2026-04-11T08:39:06.998Z</time></trkpt><trkpt lat="45.35616599956714" lon="9.21408540837677"><ele>92.4</ele><time>2026-04-11T08:39:07.998Z</time></trkpt><trkpt lat="45.356074078175155" lon="9.21416825557301"><ele>93.6</ele><time>2026-04-11T08:39:08.998Z</time></trkpt><trkpt lat="45.356010982315226" lon="9.214239103820372"><ele>94.8</ele><time>2026-04-11T08:39:09.998Z</time></trkpt><trkpt lat="45.35595537324867" lon="9.214333679057152"><ele>96.0</ele><time>2026-04-11T08:39:10.998Z</time></trkpt><trkpt lat="45.35592492392249" lon="9.214447651869742"><ele>96.0</ele><time>2026-04-11T08:39:11.998Z</time></trkpt><trkpt lat="45.3559208506036" lon="9.21456500369736"><ele>96.0</ele><time>2026-04-11T08:39:12.998Z</time></trkpt><trkpt lat="45.35592869838628" lon="9.214678713276005"><ele>96.0</ele><time>2026-04-11T08:39:13.998Z</time></trkpt><trkpt lat="45.35594391487434" lon="9.214797226187624"><ele>96.0</ele><time>2026-04-11T08:39:14.998Z</time></trkpt><trkpt lat="45.35596526057416" lon="9.214918120832063"><ele>96.0</ele><time>2026-04-11T08:39:15.998Z</time></trkpt><trkpt lat="45.35598714780814" lon="9.215039123538936"><ele>96.0</ele><time>2026-04-11T08:39:16.998Z</time></trkpt><trkpt lat="45.35601042126398" lon="9.215161380440053"><ele>96.0</ele><time>2026-04-11T08:39:17.998Z</time></trkpt><trkpt lat="45.35603559094656" lon="9.21528503717243"><ele>96.0</ele><time>2026-04-11T08:39:18.998Z</time></trkpt><trkpt lat="45.35606328386104" lon="9.215406400886371"><ele>96.0</ele><time>2026-04-11T08:39:19.998Z</time></trkpt><trkpt lat="45.3560924396493" lon="9.215530424526273"><ele>96.0</ele><time>2026-04-11T08:39:21Z</time></trkpt><trkpt lat="45.35611893787303" lon="9.215658965910594"><ele>96.0</ele><time>2026-04-11T08:39:22Z</time></trkpt><trkpt lat="45.356142069780525" lon="9.215787109191405"><ele>95.83333333333333</ele><time>2026-04-11T08:39:23Z</time></trkpt><trkpt lat="45.356166450813404" lon="9.215922797370206"><ele>95.66666666666667</ele><time>2026-04-11T08:39:24Z</time></trkpt><trkpt lat="45.35619366161749" lon="9.216041100123919"><ele>95.5</ele><time>2026-04-11T08:39:25Z</time></trkpt><trkpt lat="45.356221071726296" lon="9.216135523266882"><ele>95.33333333333334</ele><time>2026-04-11T08:39:26Z</time></trkpt><trkpt lat="45.35624160615428" lon="9.216220394238187"><ele>95.16666666666667</ele><time>2026-04-11T08:39:27Z</time></trkpt><trkpt lat="45.35626585796958" lon="9.216370468105719"><ele>95.0</ele><time>2026-04-11T08:39:29Z</time></trkpt><trkpt lat="45.35628585899344" lon="9.216461192732181"><ele>95.14285714285714</ele><time>2026-04-11T08:39:31Z</time></trkpt><trkpt lat="45.35632249195522" lon="9.21653716142366"><ele>95.28571428571429</ele><time>2026-04-11T08:39:35Z</time></trkpt><trkpt lat="45.356323647694964" lon="9.216632363026068"><ele>95.42857142857142</ele><time>2026-04-11T08:39:41Z</time></trkpt><trkpt lat="45.356341961262764" lon="9.21672852634929"><ele>95.57142857142857</ele><time>2026-04-11T08:39:42Z</time></trkpt><trkpt lat="45.356361565024024" lon="9.21683943664152"><ele>95.71428571428571</ele><time>2026-04-11T08:39:43Z</time></trkpt><trkpt lat="45.356379127151925" lon="9.216928433411924"><ele>95.85714285714285</ele><time>2026-04-11T08:39:44Z</time></trkpt><trkpt lat="45.35640200235747" lon="9.217028280072737"><ele>96.0</ele><time>2026-04-11T08:39:45Z</time></trkpt><trkpt lat="45.35642652547212" lon="9.217141239018687"><ele>95.99999999999999</ele><time>2026-04-11T08:39:46Z</time></trkpt><trkpt lat="45.35644766297471" lon="9.217258489096729"><ele>96.0</ele><time>2026-04-11T08:39:47Z</time></trkpt><trkpt lat="45.35646914116612" lon="9.217357401794155"><ele>96.0</ele><time>2026-04-11T08:39:48Z</time></trkpt><trkpt lat="45.356480990721046" lon="9.217452575016956"><ele>96.0</ele><time>2026-04-11T08:39:49Z</time></trkpt><trkpt lat="45.35650432204902" lon="9.217544794697893"><ele>96.0</ele><time>2026-04-11T08:39:50Z</time></trkpt><trkpt lat="45.35652800499526" lon="9.217632074640266"><ele>95.99999999999999</ele><time>2026-04-11T08:39:51Z</time></trkpt><trkpt lat="45.356555471516785" lon="9.217740716612376"><ele>96.0</ele><time>2026-04-11T08:39:53Z</time></trkpt><trkpt lat="45.35656862292619" lon="9.217833840406461"><ele>96.0</ele><time>2026-04-11T08:39:56.999Z</time></trkpt><trkpt lat="45.35659523797446" lon="9.21792940687247"><ele>96.0</ele><time>2026-04-11T08:40:16.999Z</time></trkpt><trkpt lat="45.3566133181252" lon="9.218034434093443"><ele>96.0</ele><time>2026-04-11T08:40:24.999Z</time></trkpt><trkpt lat="45.35663583353173" lon="9.218129478185698"><ele>96.0</ele><time>2026-04-11T08:40:25.999Z</time></trkpt><trkpt lat="45.35665707955809" lon="9.218221066245032"><ele>96.0</ele><time>2026-04-11T08:40:26.999Z</time></trkpt><trkpt lat="45.35668058667236" lon="9.218347978403024"><ele>96.0</ele><time>2026-04-11T08:40:28.999Z</time></trkpt><trkpt lat="45.35668445984345" lon="9.218456200815522"><ele>96.4</ele><time>2026-04-11T08:40:31.999Z</time></trkpt><trkpt lat="45.35671196352741" lon="9.218583118954886"><ele>96.8</ele><time>2026-04-11T08:40:35.014Z</time></trkpt><trkpt lat="45.356596973551866" lon="9.218750951564125"><ele>97.2</ele><time>2026-04-11T08:40:37.014Z</time></trkpt><trkpt lat="45.35667936308494" lon="9.218801926241978"><ele>97.60000000000001</ele><time>2026-04-11T08:40:39.999Z</time></trkpt><trkpt lat="45.356734678459965" lon="9.218855035799303"><ele>98.0</ele><time>2026-04-11T08:40:40.999Z</time></trkpt><trkpt lat="45.356792478281626" lon="9.21891248517399"><ele>97.99999999999999</ele><time>2026-04-11T08:40:41.999Z</time></trkpt><trkpt lat="45.3568483153087" lon="9.218992699337564"><ele>98.0</ele><time>2026-04-11T08:40:43.999Z</time></trkpt><trkpt lat="45.3568635998789" lon="9.219112847303272"><ele>98.0</ele><time>2026-04-11T08:40:45.999Z</time></trkpt><trkpt lat="45.35680401323798" lon="9.219171952768782"><ele>98.0</ele><time>2026-04-11T08:40:46.999Z</time></trkpt><trkpt lat="45.35675283440452" lon="9.219066127779756"><ele>97.99999999999999</ele><time>2026-04-11T08:40:50.999Z</time></trkpt><trkpt lat="45.35671973888609" lon="9.218973029412929"><ele>98.0</ele><time>2026-04-11T08:40:51.999Z</time></trkpt><trkpt lat="45.35667247822866" lon="9.218889944362761"><ele>97.99999999999999</ele><time>2026-04-11T08:40:53.999Z</time></trkpt><trkpt lat="45.35660935663935" lon="9.218873090247124"><ele>98.0</ele><time>2026-04-11T08:41:00.999Z</time></trkpt><trkpt lat="45.35651629955017" lon="9.218805446182122"><ele>98.0</ele><time>2026-04-11T08:41:02.999Z</time></trkpt><trkpt lat="45.356458094884765" lon="9.218758179339622"><ele>98.0</ele><time>2026-04-11T08:41:03.999Z</time></trkpt><trkpt lat="45.356397186804145" lon="9.218720922917937"><ele>97.99999999999999</ele><time>2026-04-11T08:41:04.999Z</time></trkpt><trkpt lat="45.35632162724897" lon="9.218663790255391"><ele>98.0</ele><time>2026-04-11T08:41:05.999Z</time></trkpt><trkpt lat="45.356260451735" lon="9.218608836162554"><ele>97.49999999999999</ele><time>2026-04-11T08:41:06.999Z</time></trkpt><trkpt lat="45.35618392030872" lon="9.218522886921201"><ele>97.0</ele><time>2026-04-11T08:41:08.999Z</time></trkpt><trkpt lat="45.35610912195891" lon="9.218453709430419"><ele>96.5</ele><time>2026-04-11T08:41:11.998Z</time></trkpt><trkpt lat="45.35603389301241" lon="9.218474857188047"><ele>96.0</ele><time>2026-04-11T08:41:14.998Z</time></trkpt><trkpt lat="45.35596689809253" lon="9.218511828719148"><ele>95.5</ele><time>2026-04-11T08:41:16.998Z</time></trkpt><trkpt lat="45.355899890285905" lon="9.218526182129493"><ele>95.0</ele><time>2026-04-11T08:41:19.998Z</time></trkpt><trkpt lat="45.35582296934264" lon="9.218551991554888"><ele>95.0</ele><time>2026-04-11T08:41:23.998Z</time></trkpt><trkpt lat="45.355911029987304" lon="9.218558573910594"><ele>95.0</ele><time>2026-04-11T08:41:38Z</time></trkpt><trkpt lat="45.35598438826588" lon="9.2185120157042"><ele>95.0</ele><time>2026-04-11T08:41:41Z</time></trkpt><trkpt lat="45.3560559358496" lon="9.218482292503863"><ele>95.0</ele><time>2026-04-11T08:41:45Z</time></trkpt><trkpt lat="45.35610520533987" lon="9.218425793263256"><ele>95.0</ele><time>2026-04-11T08:42:09Z</time></trkpt><trkpt lat="45.35618260460664" lon="9.218471060603875"><ele>95.0</ele><time>2026-04-11T08:42:11Z</time></trkpt><trkpt lat="45.35626109513608" lon="9.218564199618909"><ele>95.0</ele><time>2026-04-11T08:42:13Z</time></trkpt><trkpt lat="45.35632737237056" lon="9.21862671798107"><ele>95.0</ele><time>2026-04-11T08:42:15Z</time></trkpt><trkpt lat="45.35641295388507" lon="9.218697292572362"><ele>95.0</ele><time>2026-04-11T08:42:16.999Z</time></trkpt><trkpt lat="45.35646831339451" lon="9.218743729127482"><ele>95.0</ele><time>2026-04-11T08:42:17.999Z</time></trkpt><trkpt lat="45.35653136042697" lon="9.218795107625198"><ele>95.0</ele><time>2026-04-11T08:42:18.999Z</time></trkpt><trkpt lat="45.356589826481" lon="9.218846093635769"><ele>95.0</ele><time>2026-04-11T08:42:19.999Z</time></trkpt><trkpt lat="45.356647151884644" lon="9.218894883082074"><ele>95.5</ele><time>2026-04-11T08:42:20.999Z</time></trkpt><trkpt lat="45.35670277102105" lon="9.218955675246548"><ele>96.0</ele><time>2026-04-11T08:42:21.999Z</time></trkpt><trkpt lat="45.35674616800877" lon="9.21903079808246"><ele>96.5</ele><time>2026-04-11T08:42:22.999Z</time></trkpt><trkpt lat="45.35678408329185" lon="9.219109284339217"><ele>97.0</ele><time>2026-04-11T08:42:23.999Z</time></trkpt><trkpt lat="45.35684302829703" lon="9.219241448247649"><ele>97.49999999999999</ele><time>2026-04-11T08:42:25.999Z</time></trkpt><trkpt lat="45.35687144338731" lon="9.219404307486744"><ele>98.0</ele><time>2026-04-11T08:42:27.999Z</time></trkpt><trkpt lat="45.35691719534955" lon="9.219581272250094"><ele>97.99999999999999</ele><time>2026-04-11T08:42:29.999Z</time></trkpt><trkpt lat="45.35697748940396" lon="9.219677959289605"><ele>98.0</ele><time>2026-04-11T08:42:30.999Z</time></trkpt><trkpt lat="45.35698450967611" lon="9.219804253351306"><ele>98.0</ele><time>2026-04-11T08:42:31.999Z</time></trkpt><trkpt lat="45.35700255907668" lon="9.21992105762485"><ele>98.0</ele><time>2026-04-11T08:42:32.999Z</time></trkpt><trkpt lat="45.35702501669115" lon="9.220026522534361"><ele>97.99999999999999</ele><time>2026-04-11T08:42:33.999Z</time></trkpt><trkpt lat="45.357052435173216" lon="9.2201715732383"><ele>98.0</ele><time>2026-04-11T08:42:35.999Z</time></trkpt><trkpt lat="45.35707537694926" lon="9.220289932083539"><ele>97.99999999999999</ele><time>2026-04-11T08:42:37.999Z</time></trkpt><trkpt lat="45.35699358695827" lon="9.220400494285306"><ele>98.0</ele><time>2026-04-11T08:42:39.999Z</time></trkpt><trkpt lat="45.35693288881619" lon="9.220433898798722"><ele>98.0</ele><time>2026-04-11T08:42:40.999Z</time></trkpt><trkpt lat="45.35687021064827" lon="9.220450414469147"><ele>98.0</ele><time>2026-04-11T08:42:41.999Z</time></trkpt><trkpt lat="45.356771971953016" lon="9.220506169118057"><ele>97.99999999999999</ele><time>2026-04-11T08:42:43.999Z</time></trkpt><trkpt lat="45.35670739546423" lon="9.220539052037653"><ele>98.0</ele><time>2026-04-11T08:42:45.999Z</time></trkpt><trkpt lat="45.356642044401006" lon="9.220572993992068"><ele>97.99999999999999</ele><time>2026-04-11T08:42:47.999Z</time></trkpt><trkpt lat="45.35658963826763" lon="9.220622985780837"><ele>98.0</ele><time>2026-04-11T08:42:50.999Z</time></trkpt><trkpt lat="45.356641301023636" lon="9.22073742070032"><ele>98.0</ele><time>2026-04-11T08:42:51.999Z</time></trkpt><trkpt lat="45.356673067439836" lon="9.220911962148014"><ele>98.0</ele><time>2026-04-11T08:42:53.999Z</time></trkpt><trkpt lat="45.35668622959182" lon="9.221023140976035"><ele>97.99999999999999</ele><time>2026-04-11T08:42:54.999Z</time></trkpt><trkpt lat="45.356717217885794" lon="9.221115888695495"><ele>98.0</ele><time>2026-04-11T08:42:55.999Z</time></trkpt><trkpt lat="45.35673644022523" lon="9.221211441701385"><ele>97.83333333333333</ele><time>2026-04-11T08:42:56.999Z</time></trkpt><trkpt lat="45.35674469991804" lon="9.221311380694356"><ele>97.66666666666666</ele><time>2026-04-11T08:42:57.999Z</time></trkpt><trkpt lat="45.35676658505672" lon="9.22139970480508"><ele>97.5</ele><time>2026-04-11T08:42:58.999Z</time></trkpt><trkpt lat="45.356795836511196" lon="9.22153974919243"><ele>97.33333333333334</ele><time>2026-04-11T08:43:00.999Z</time></trkpt><trkpt lat="45.35681377173505" lon="9.221669756621056"><ele>97.16666666666667</ele><time>2026-04-11T08:43:02.999Z</time></trkpt><trkpt lat="45.35684188996465" lon="9.221787611900528"><ele>97.0</ele><time>2026-04-11T08:43:04.999Z</time></trkpt><trkpt lat="45.35687374402412" lon="9.221889947173985"><ele>97.39999999999999</ele><time>2026-04-11T08:43:06.999Z</time></trkpt><trkpt lat="45.35690361687283" lon="9.22201541600966"><ele>97.8</ele><time>2026-04-11T08:43:09.999Z</time></trkpt><trkpt lat="45.356944271271956" lon="9.222162605442564"><ele>98.2</ele><time>2026-04-11T08:43:11.999Z</time></trkpt><trkpt lat="45.35699627489665" lon="9.222299729826723"><ele>98.6</ele><time>2026-04-11T08:43:13.999Z</time></trkpt><trkpt lat="45.35703360523525" lon="9.22243541306765"><ele>99.0</ele><time>2026-04-11T08:43:15.999Z</time></trkpt><trkpt lat="45.35706822380493" lon="9.222548704066229"><ele>99.0</ele><time>2026-04-11T08:43:17.999Z</time></trkpt><trkpt lat="45.35696705998436" lon="9.222696698641476"><ele>99.0</ele><time>2026-04-11T08:43:20.999Z</time></trkpt><trkpt lat="45.35690692075343" lon="9.222758080568335"><ele>99.0</ele><time>2026-04-11T08:43:21.999Z</time></trkpt><trkpt lat="45.35684286809466" lon="9.222826163538725"><ele>99.0</ele><time>2026-04-11T08:43:22.999Z</time></trkpt><trkpt lat="45.35675664846908" lon="9.222895139517634"><ele>99.0</ele><time>2026-04-11T08:43:23.999Z</time></trkpt><trkpt lat="45.35666402863947" lon="9.222965829244655"><ele>99.0</ele><time>2026-04-11T08:43:24.999Z</time></trkpt><trkpt lat="45.35657773170791" lon="9.223032206175606"><ele>99.0</ele><time>2026-04-11T08:43:25.999Z</time></trkpt><trkpt lat="45.35649678257128" lon="9.223099685535212"><ele>99.0</ele><time>2026-04-11T08:43:26.999Z</time></trkpt><trkpt lat="45.356418501592685" lon="9.223168934762235"><ele>99.0</ele><time>2026-04-11T08:43:27.999Z</time></trkpt><trkpt lat="45.356338993190626" lon="9.223238855099778"><ele>99.0</ele><time>2026-04-11T08:43:28.999Z</time></trkpt><trkpt lat="45.35626059368873" lon="9.22331386413057"><ele>98.0</ele><time>2026-04-11T08:43:29.999Z</time></trkpt><trkpt lat="45.35617372387452" lon="9.223383860870243"><ele>97.0</ele><time>2026-04-11T08:43:30.999Z</time></trkpt><trkpt lat="45.356087715358576" lon="9.223455000501632"><ele>96.0</ele><time>2026-04-11T08:43:31.998Z</time></trkpt><trkpt lat="45.35599825898473" lon="9.223530642112065"><ele>95.0</ele><time>2026-04-11T08:43:33Z</time></trkpt><trkpt lat="45.35590817764611" lon="9.223607559728022"><ele>94.0</ele><time>2026-04-11T08:43:34Z</time></trkpt><trkpt lat="45.35582228459489" lon="9.223681221945574"><ele>94.0</ele><time>2026-04-11T08:43:35Z</time></trkpt><trkpt lat="45.35574068267433" lon="9.22374008958269"><ele>94.0</ele><time>2026-04-11T08:43:36Z</time></trkpt><trkpt lat="45.355668966038216" lon="9.223801034362777"><ele>94.0</ele><time>2026-04-11T08:43:37Z</time></trkpt><trkpt lat="45.35559070391897" lon="9.223864559101095"><ele>94.0</ele><time>2026-04-11T08:43:38Z</time></trkpt><trkpt lat="45.355496365886665" lon="9.223942281832109"><ele>94.0</ele><time>2026-04-11T08:43:39Z</time></trkpt><trkpt lat="45.35540321563965" lon="9.224026396713008"><ele>94.2</ele><time>2026-04-11T08:43:40Z</time></trkpt><trkpt lat="45.355308238783145" lon="9.224098327160869"><ele>94.4</ele><time>2026-04-11T08:43:41Z</time></trkpt><trkpt lat="45.35521680386575" lon="9.224170049544375"><ele>94.6</ele><time>2026-04-11T08:43:42Z</time></trkpt><trkpt lat="45.35512590133735" lon="9.22423804766361"><ele>94.8</ele><time>2026-04-11T08:43:43Z</time></trkpt><trkpt lat="45.3550368031619" lon="9.224312257292876"><ele>95.0</ele><time>2026-04-11T08:43:44Z</time></trkpt><trkpt lat="45.354946029456514" lon="9.224382626267188"><ele>95.0</ele><time>2026-04-11T08:43:45Z</time></trkpt><trkpt lat="45.354856001724144" lon="9.224452535896283"><ele>95.0</ele><time>2026-04-11T08:43:46Z</time></trkpt><trkpt lat="45.3547705266573" lon="9.224532700268329"><ele>95.0</ele><time>2026-04-11T08:43:47Z</time></trkpt><trkpt lat="45.354674889078055" lon="9.22462221818251"><ele>95.0</ele><time>2026-04-11T08:43:48Z</time></trkpt><trkpt lat="45.35457673784707" lon="9.224707161940064"><ele>95.0</ele><time>2026-04-11T08:43:49Z</time></trkpt><trkpt lat="45.35447105519709" lon="9.224789154374118"><ele>95.25</ele><time>2026-04-11T08:43:50Z</time></trkpt><trkpt lat="45.354362645550225" lon="9.22487229621873"><ele>95.5</ele><time>2026-04-11T08:43:51Z</time></trkpt><trkpt lat="45.354255812764876" lon="9.224953795510794"><ele>95.75</ele><time>2026-04-11T08:43:52Z</time></trkpt><trkpt lat="45.35415121813258" lon="9.225032020755034"><ele>96.0</ele><time>2026-04-11T08:43:53Z</time></trkpt><trkpt lat="45.354060670071576" lon="9.225103245969112"><ele>96.0</ele><time>2026-04-11T08:43:54Z</time></trkpt><trkpt lat="45.353970683958124" lon="9.225175947762434"><ele>96.0</ele><time>2026-04-11T08:43:55Z</time></trkpt><trkpt lat="45.353876585782544" lon="9.225257160384851"><ele>96.0</ele><time>2026-04-11T08:43:56Z</time></trkpt><trkpt lat="45.35379050241926" lon="9.225333544676387"><ele>96.0</ele><time>2026-04-11T08:43:57Z</time></trkpt><trkpt lat="45.35371697264886" lon="9.225399110741916"><ele>96.0</ele><time>2026-04-11T08:43:58Z</time></trkpt><trkpt lat="45.35364760577331" lon="9.225459497937806"><ele>96.0</ele><time>2026-04-11T08:43:59Z</time></trkpt><trkpt lat="45.35357846642681" lon="9.225524811111903"><ele>96.0</ele><time>2026-04-11T08:44:00Z</time></trkpt><trkpt lat="45.35350802062497" lon="9.225585522465725"><ele>96.0</ele><time>2026-04-11T08:44:01Z</time></trkpt><trkpt lat="45.35344387751099" lon="9.225629853441259"><ele>96.0</ele><time>2026-04-11T08:44:02Z</time></trkpt><trkpt lat="45.35337883959767" lon="9.225699770373879"><ele>96.0</ele><time>2026-04-11T08:44:03Z</time></trkpt><trkpt lat="45.353277916705096" lon="9.225693325389049"><ele>96.0</ele><time>2026-04-11T08:44:04Z</time></trkpt><trkpt lat="45.35319804657174" lon="9.225754637668256"><ele>96.0</ele><time>2026-04-11T08:44:05Z</time></trkpt><trkpt lat="45.353127752706015" lon="9.22584926701082"><ele>96.0</ele><time>2026-04-11T08:44:06Z</time></trkpt><trkpt lat="45.353063298487605" lon="9.225966344766901"><ele>96.0</ele><time>2026-04-11T08:44:07Z</time></trkpt><trkpt lat="45.35298093870079" lon="9.226081559890567"><ele>96.0</ele><time>2026-04-11T08:44:08Z</time></trkpt><trkpt lat="45.35287871690389" lon="9.226188031414322"><ele>96.0</ele><time>2026-04-11T08:44:09Z</time></trkpt><trkpt lat="45.35275874453772" lon="9.226280006886357"><ele>96.0</ele><time>2026-04-11T08:44:10Z</time></trkpt><trkpt lat="45.3526472978501" lon="9.22636126011194"><ele>96.0</ele><time>2026-04-11T08:44:11Z</time></trkpt><trkpt lat="45.35255080198359" lon="9.226441586616154"><ele>96.0</ele><time>2026-04-11T08:44:12Z</time></trkpt><trkpt lat="45.35245831968422" lon="9.226518566095411"><ele>96.0</ele><time>2026-04-11T08:44:13Z</time></trkpt><trkpt lat="45.35237054393524" lon="9.226593405831338"><ele>96.0</ele><time>2026-04-11T08:44:14Z</time></trkpt><trkpt lat="45.35228136541011" lon="9.226678278728137"><ele>95.75</ele><time>2026-04-11T08:44:15Z</time></trkpt><trkpt lat="45.352183141867215" lon="9.226768270858821"><ele>95.5</ele><time>2026-04-11T08:44:16Z</time></trkpt><trkpt lat="45.35207019303975" lon="9.22686194735789"><ele>95.25</ele><time>2026-04-11T08:44:17Z</time></trkpt><trkpt lat="45.35196537326034" lon="9.226958254862728"><ele>95.0</ele><time>2026-04-11T08:44:18Z</time></trkpt><trkpt lat="45.35187109717641" lon="9.227057383100224"><ele>95.0</ele><time>2026-04-11T08:44:19Z</time></trkpt><trkpt lat="45.3517799759581" lon="9.227135892278104"><ele>95.0</ele><time>2026-04-11T08:44:20Z</time></trkpt><trkpt lat="45.3516885355058" lon="9.227220401991037"><ele>95.0</ele><time>2026-04-11T08:44:21Z</time></trkpt><trkpt lat="45.35159143635002" lon="9.227310869991744"><ele>95.0</ele><time>2026-04-11T08:44:22Z</time></trkpt><trkpt lat="45.35150046876914" lon="9.227394441763371"><ele>95.0</ele><time>2026-04-11T08:44:23Z</time></trkpt><trkpt lat="45.35141860771636" lon="9.227487208669883"><ele>95.0</ele><time>2026-04-11T08:44:24Z</time></trkpt><trkpt lat="45.35132378175056" lon="9.22759109638769"><ele>95.0</ele><time>2026-04-11T08:44:24.999Z</time></trkpt><trkpt lat="45.35120809689133" lon="9.227690971258692"><ele>95.0</ele><time>2026-04-11T08:44:25.999Z</time></trkpt><trkpt lat="45.351082975259274" lon="9.227786863406163"><ele>95.0</ele><time>2026-04-11T08:44:26.999Z</time></trkpt><trkpt lat="45.35095939309069" lon="9.227898926775584"><ele>95.0</ele><time>2026-04-11T08:44:27.999Z</time></trkpt><trkpt lat="45.35083075024229" lon="9.228021760964909"><ele>95.0</ele><time>2026-04-11T08:44:28.999Z</time></trkpt><trkpt lat="45.35070857063949" lon="9.228139629914956"><ele>95.0</ele><time>2026-04-11T08:44:29.999Z</time></trkpt><trkpt lat="45.3505936160759" lon="9.228250567217271"><ele>95.0</ele><time>2026-04-11T08:44:30.999Z</time></trkpt><trkpt lat="45.350487610115984" lon="9.22835359948809"><ele>95.0</ele><time>2026-04-11T08:44:31.999Z</time></trkpt><trkpt lat="45.350385961844985" lon="9.228455693755299"><ele>95.0</ele><time>2026-04-11T08:44:32.999Z</time></trkpt><trkpt lat="45.35028105333363" lon="9.228572103970388"><ele>95.0</ele><time>2026-04-11T08:44:33.999Z</time></trkpt><trkpt lat="45.35016982149771" lon="9.228689355795268"><ele>95.0</ele><time>2026-04-11T08:44:34.999Z</time></trkpt><trkpt lat="45.35005375737624" lon="9.228798814551961"><ele>95.0</ele><time>2026-04-11T08:44:35.999Z</time></trkpt><trkpt lat="45.349934660413886" lon="9.228900331787901"><ele>95.0</ele><time>2026-04-11T08:44:36.999Z</time></trkpt><trkpt lat="45.349831022670166" lon="9.228990456747301"><ele>95.0</ele><time>2026-04-11T08:44:37.999Z</time></trkpt><trkpt lat="45.34973947577436" lon="9.229075528567034"><ele>95.0</ele><time>2026-04-11T08:44:38.999Z</time></trkpt><trkpt lat="45.349649705951464" lon="9.229157632422293"><ele>94.5</ele><time>2026-04-11T08:44:39.999Z</time></trkpt><trkpt lat="45.34956810736093" lon="9.229232110013836"><ele>94.0</ele><time>2026-04-11T08:44:40.999Z</time></trkpt><trkpt lat="45.34949951884685" lon="9.229294420484758"><ele>93.5</ele><time>2026-04-11T08:44:41.999Z</time></trkpt><trkpt lat="45.34943507086521" lon="9.229354621094087"><ele>93.0</ele><time>2026-04-11T08:44:42.999Z</time></trkpt><trkpt lat="45.34935707393064" lon="9.229425180157142"><ele>92.5</ele><time>2026-04-11T08:44:43.999Z</time></trkpt><trkpt lat="45.34928140905925" lon="9.229490686332918"><ele>92.0</ele><time>2026-04-11T08:44:44.999Z</time></trkpt><trkpt lat="45.349216514645335" lon="9.229545680900344"><ele>92.0</ele><time>2026-04-11T08:44:45.999Z</time></trkpt><trkpt lat="45.34915624551617" lon="9.229590689120627"><ele>92.0</ele><time>2026-04-11T08:44:46.999Z</time></trkpt><trkpt lat="45.34904872894139" lon="9.229674227175199"><ele>92.0</ele><time>2026-04-11T08:44:48.999Z</time></trkpt><trkpt lat="45.348984606276936" lon="9.229720565204346"><ele>92.0</ele><time>2026-04-11T08:44:49.999Z</time></trkpt><trkpt lat="45.34891008682847" lon="9.229774707965142"><ele>92.0</ele><time>2026-04-11T08:44:50.999Z</time></trkpt><trkpt lat="45.34883183199902" lon="9.229833484496417"><ele>92.0</ele><time>2026-04-11T08:44:51.999Z</time></trkpt><trkpt lat="45.34875039236541" lon="9.22989041981733"><ele>92.19999999999999</ele><time>2026-04-11T08:44:52.999Z</time></trkpt><trkpt lat="45.3486650302782" lon="9.229948942397039"><ele>92.4</ele><time>2026-04-11T08:44:53.999Z</time></trkpt><trkpt lat="45.3485830367851" lon="9.23000828886438"><ele>92.6</ele><time>2026-04-11T08:44:54.999Z</time></trkpt><trkpt lat="45.34849675692649" lon="9.230070202592648"><ele>92.80000000000001</ele><time>2026-04-11T08:44:55.999Z</time></trkpt><trkpt lat="45.348407071909854" lon="9.230132052915033"><ele>93.0</ele><time>2026-04-11T08:44:56.999Z</time></trkpt><trkpt lat="45.34831296912408" lon="9.230193242445024"><ele>93.0</ele><time>2026-04-11T08:44:57.999Z</time></trkpt><trkpt lat="45.34822085611825" lon="9.230252911887884"><ele>93.0</ele><time>2026-04-11T08:44:58.999Z</time></trkpt><trkpt lat="45.34813237893114" lon="9.230313520078003"><ele>93.0</ele><time>2026-04-11T08:44:59.999Z</time></trkpt><trkpt lat="45.34804193688326" lon="9.230378406212141"><ele>93.0</ele><time>2026-04-11T08:45:00.999Z</time></trkpt><trkpt lat="45.34794477375386" lon="9.230453950049252"><ele>93.0</ele><time>2026-04-11T08:45:01.999Z</time></trkpt><trkpt lat="45.34784012675915" lon="9.230539352077303"><ele>93.0</ele><time>2026-04-11T08:45:02.999Z</time></trkpt><trkpt lat="45.34772994584985" lon="9.230633524244006"><ele>93.0</ele><time>2026-04-11T08:45:03.999Z</time></trkpt><trkpt lat="45.34761973761189" lon="9.230725100556388"><ele>93.0</ele><time>2026-04-11T08:45:04.999Z</time></trkpt><trkpt lat="45.34749888521848" lon="9.230824968705658"><ele>93.0</ele><time>2026-04-11T08:45:05.999Z</time></trkpt><trkpt lat="45.34737096339295" lon="9.230939268530772"><ele>93.0</ele><time>2026-04-11T08:45:06.999Z</time></trkpt><trkpt lat="45.34721431624008" lon="9.231054879104688"><ele>93.0</ele><time>2026-04-11T08:45:07.999Z</time></trkpt><trkpt lat="45.347122550955795" lon="9.23115426334918"><ele>93.0</ele><time>2026-04-11T08:45:08.999Z</time></trkpt><trkpt lat="45.346979707152315" lon="9.231270988168024"><ele>93.0</ele><time>2026-04-11T08:45:09.999Z</time></trkpt><trkpt lat="45.34683740499005" lon="9.231399789316459"><ele>93.0</ele><time>2026-04-11T08:45:10.999Z</time></trkpt><trkpt lat="45.3467045217727" lon="9.231521714084167"><ele>93.0</ele><time>2026-04-11T08:45:11.999Z</time></trkpt><trkpt lat="45.34658527076944" lon="9.23163063412655"><ele>93.0</ele><time>2026-04-11T08:45:12.999Z</time></trkpt><trkpt lat="45.346463488437145" lon="9.231742278869069"><ele>93.0</ele><time>2026-04-11T08:45:13.999Z</time></trkpt><trkpt lat="45.346339102750086" lon="9.231858512539189"><ele>93.0</ele><time>2026-04-11T08:45:14.999Z</time></trkpt><trkpt lat="45.346221155983784" lon="9.231966950880686"><ele>93.0</ele><time>2026-04-11T08:45:15.999Z</time></trkpt><trkpt lat="45.346101872700636" lon="9.232073705821374"><ele>93.0</ele><time>2026-04-11T08:45:16.999Z</time></trkpt><trkpt lat="45.34597493099675" lon="9.232180703355551"><ele>93.0</ele><time>2026-04-11T08:45:17.999Z</time></trkpt><trkpt lat="45.345844650121066" lon="9.232287179456382"><ele>93.0</ele><time>2026-04-11T08:45:18.999Z</time></trkpt><trkpt lat="45.345709108720726" lon="9.232387868223439"><ele>93.0</ele><time>2026-04-11T08:45:19.999Z</time></trkpt><trkpt lat="45.34557169563462" lon="9.2325000352424"><ele>93.0</ele><time>2026-04-11T08:45:20.999Z</time></trkpt><trkpt lat="45.34542998287782" lon="9.232608116433317"><ele>93.0</ele><time>2026-04-11T08:45:21.999Z</time></trkpt><trkpt lat="45.345286768240435" lon="9.232718372533933"><ele>93.0</ele><time>2026-04-11T08:45:22.999Z</time></trkpt><trkpt lat="45.34514633066102" lon="9.232828425210437"><ele>93.0</ele><time>2026-04-11T08:45:23.999Z</time></trkpt><trkpt lat="45.34501569340285" lon="9.232924619777974"><ele>93.0</ele><time>2026-04-11T08:45:24.999Z</time></trkpt><trkpt lat="45.344893417247135" lon="9.233022896153885"><ele>93.0</ele><time>2026-04-11T08:45:25.999Z</time></trkpt><trkpt lat="45.34477667406828" lon="9.233123796608833"><ele>92.75</ele><time>2026-04-11T08:45:26.999Z</time></trkpt><trkpt lat="45.344657731383606" lon="9.233219101284176"><ele>92.5</ele><time>2026-04-11T08:45:27.999Z</time></trkpt><trkpt lat="45.34454058605379" lon="9.233315778551455"><ele>92.25</ele><time>2026-04-11T08:45:28.999Z</time></trkpt><trkpt lat="45.34442457889162" lon="9.233414264573186"><ele>92.0</ele><time>2026-04-11T08:45:29.999Z</time></trkpt><trkpt lat="45.34431110866507" lon="9.233513388990284"><ele>92.0</ele><time>2026-04-11T08:45:30.999Z</time></trkpt><trkpt lat="45.34420959906622" lon="9.233610338654744"><ele>92.0</ele><time>2026-04-11T08:45:31.999Z</time></trkpt><trkpt lat="45.344108354068794" lon="9.233714739036865"><ele>92.0</ele><time>2026-04-11T08:45:32.999Z</time></trkpt><trkpt lat="45.344012954798735" lon="9.23382214170026"><ele>92.0</ele><time>2026-04-11T08:45:33.999Z</time></trkpt><trkpt lat="45.3439118778245" lon="9.233922270977374"><ele>92.5</ele><time>2026-04-11T08:45:34.999Z</time></trkpt><trkpt lat="45.34381195729691" lon="9.234017090566763"><ele>93.0</ele><time>2026-04-11T08:45:35.999Z</time></trkpt><trkpt lat="45.34370790129411" lon="9.23412482757985"><ele>93.5</ele><time>2026-04-11T08:45:36.999Z</time></trkpt><trkpt lat="45.34359189766004" lon="9.2342235558176"><ele>94.0</ele><time>2026-04-11T08:45:37.998Z</time></trkpt><trkpt lat="45.343483172791395" lon="9.234315175903484"><ele>94.0</ele><time>2026-04-11T08:45:39Z</time></trkpt><trkpt lat="45.343366399267815" lon="9.23440362620544"><ele>94.0</ele><time>2026-04-11T08:45:40Z</time></trkpt><trkpt lat="45.34323685919809" lon="9.234487666965693"><ele>94.0</ele><time>2026-04-11T08:45:41Z</time></trkpt><trkpt lat="45.34310716843222" lon="9.234564601755224"><ele>94.0</ele><time>2026-04-11T08:45:42Z</time></trkpt><trkpt lat="45.34297999600842" lon="9.234645033900144"><ele>93.75</ele><time>2026-04-11T08:45:43Z</time></trkpt><trkpt lat="45.34285289276923" lon="9.234724992728141"><ele>93.5</ele><time>2026-04-11T08:45:44Z</time></trkpt><trkpt lat="45.342718730259264" lon="9.234805323689434"><ele>93.25</ele><time>2026-04-11T08:45:45Z</time></trkpt><trkpt lat="45.342585885337044" lon="9.234890365368567"><ele>93.0</ele><time>2026-04-11T08:45:46Z</time></trkpt><trkpt lat="45.34245287948284" lon="9.234980772912019"><ele>92.66666666666667</ele><time>2026-04-11T08:45:47Z</time></trkpt><trkpt lat="45.34232107903264" lon="9.235087547878152"><ele>92.33333333333334</ele><time>2026-04-11T08:45:48Z</time></trkpt><trkpt lat="45.3421955779604" lon="9.235207125260857"><ele>92.0</ele><time>2026-04-11T08:45:49Z</time></trkpt><trkpt lat="45.342066700651074" lon="9.235328221617733"><ele>91.66666666666667</ele><time>2026-04-11T08:45:50Z</time></trkpt><trkpt lat="45.34193564245453" lon="9.235451226040325"><ele>91.33333333333333</ele><time>2026-04-11T08:45:51Z</time></trkpt><trkpt lat="45.34180699008832" lon="9.235575518760792"><ele>91.0</ele><time>2026-04-11T08:45:52Z</time></trkpt><trkpt lat="45.34166797207757" lon="9.235692209829033"><ele>90.66666666666666</ele><time>2026-04-11T08:45:53Z</time></trkpt><trkpt lat="45.34152595685386" lon="9.235803602183811"><ele>90.33333333333333</ele><time>2026-04-11T08:45:54Z</time></trkpt><trkpt lat="45.34138862324189" lon="9.235926178330859"><ele>90.0</ele><time>2026-04-11T08:45:55Z</time></trkpt><trkpt lat="45.341253769563785" lon="9.236050812146413"><ele>89.33333333333333</ele><time>2026-04-11T08:45:56Z</time></trkpt><trkpt lat="45.34111881784641" lon="9.236174656846144"><ele>88.66666666666666</ele><time>2026-04-11T08:45:57Z</time></trkpt><trkpt lat="45.3409814226872" lon="9.236293930940361"><ele>88.0</ele><time>2026-04-11T08:45:58Z</time></trkpt><trkpt lat="45.3408432086379" lon="9.236413703567449"><ele>88.33333333333333</ele><time>2026-04-11T08:45:59Z</time></trkpt><trkpt lat="45.340706149652355" lon="9.236532344822216"><ele>88.66666666666667</ele><time>2026-04-11T08:46:00Z</time></trkpt><trkpt lat="45.34056979055688" lon="9.236651438040782"><ele>89.0</ele><time>2026-04-11T08:46:01Z</time></trkpt><trkpt lat="45.34043328498118" lon="9.236771575954826"><ele>89.0</ele><time>2026-04-11T08:46:02Z</time></trkpt><trkpt lat="45.34029710506968" lon="9.236892499232662"><ele>89.0</ele><time>2026-04-11T08:46:03Z</time></trkpt><trkpt lat="45.34016323986294" lon="9.237009973477445"><ele>89.0</ele><time>2026-04-11T08:46:04Z</time></trkpt><trkpt lat="45.340032018688156" lon="9.237123296864349"><ele>89.0</ele><time>2026-04-11T08:46:05Z</time></trkpt><trkpt lat="45.33989985669996" lon="9.237243526766438"><ele>89.0</ele><time>2026-04-11T08:46:06Z</time></trkpt><trkpt lat="45.339765553447776" lon="9.23736314281305"><ele>89.0</ele><time>2026-04-11T08:46:07Z</time></trkpt><trkpt lat="45.339635168502774" lon="9.237481960027123"><ele>89.66666666666667</ele><time>2026-04-11T08:46:08Z</time></trkpt><trkpt lat="45.33950635138584" lon="9.237606700202157"><ele>90.33333333333333</ele><time>2026-04-11T08:46:09Z</time></trkpt><trkpt lat="45.339376421730776" lon="9.237731671521027"><ele>91.0</ele><time>2026-04-11T08:46:10Z</time></trkpt><trkpt lat="45.33924306565558" lon="9.237850303230594"><ele>91.0</ele><time>2026-04-11T08:46:11Z</time></trkpt><trkpt lat="45.339116040511975" lon="9.23796807853417"><ele>91.0</ele><time>2026-04-11T08:46:12Z</time></trkpt><trkpt lat="45.33898245655939" lon="9.238071929108894"><ele>91.0</ele><time>2026-04-11T08:46:13Z</time></trkpt><trkpt lat="45.338846910827925" lon="9.238181857357082"><ele>91.0</ele><time>2026-04-11T08:46:14Z</time></trkpt><trkpt lat="45.33871480400745" lon="9.23829587854632"><ele>91.0</ele><time>2026-04-11T08:46:15Z</time></trkpt><trkpt lat="45.33858264631192" lon="9.238402749866365"><ele>91.0</ele><time>2026-04-11T08:46:16Z</time></trkpt><trkpt lat="45.33844534617862" lon="9.238512488973491"><ele>91.0</ele><time>2026-04-11T08:46:17Z</time></trkpt><trkpt lat="45.33831205012964" lon="9.238628093275363"><ele>91.0</ele><time>2026-04-11T08:46:18Z</time></trkpt><trkpt lat="45.338175402182" lon="9.238739919806934"><ele>91.0</ele><time>2026-04-11T08:46:19Z</time></trkpt><trkpt lat="45.33803864440902" lon="9.238851657847105"><ele>91.0</ele><time>2026-04-11T08:46:20Z</time></trkpt><trkpt lat="45.33789797670231" lon="9.238964910882679"><ele>91.0</ele><time>2026-04-11T08:46:21Z</time></trkpt><trkpt lat="45.33775575627333" lon="9.239081855660835"><ele>91.0</ele><time>2026-04-11T08:46:22Z</time></trkpt><trkpt lat="45.337612475038306" lon="9.239198375043827"><ele>91.0</ele><time>2026-04-11T08:46:23Z</time></trkpt><trkpt lat="45.33746455222526" lon="9.23931302555042"><ele>91.0</ele><time>2026-04-11T08:46:24Z</time></trkpt><trkpt lat="45.337315773571106" lon="9.239432824495207"><ele>91.0</ele><time>2026-04-11T08:46:25Z</time></trkpt><trkpt lat="45.33716200511145" lon="9.239552234091459"><ele>91.0</ele><time>2026-04-11T08:46:26Z</time></trkpt><trkpt lat="45.33700929451189" lon="9.239675357266421"><ele>91.0</ele><time>2026-04-11T08:46:27Z</time></trkpt><trkpt lat="45.3368581185348" lon="9.239811921559443"><ele>91.0</ele><time>2026-04-11T08:46:28Z</time></trkpt><trkpt lat="45.33670334564563" lon="9.239939835063954"><ele>91.0</ele><time>2026-04-11T08:46:29Z</time></trkpt><trkpt lat="45.33654601911668" lon="9.24007064491064"><ele>91.0</ele><time>2026-04-11T08:46:30Z</time></trkpt><trkpt lat="45.33638883107372" lon="9.24020237730569"><ele>91.0</ele><time>2026-04-11T08:46:31Z</time></trkpt><trkpt lat="45.33623552835873" lon="9.240326035084081"><ele>91.0</ele><time>2026-04-11T08:46:32Z</time></trkpt><trkpt lat="45.33608208112052" lon="9.240447680584433"><ele>91.0</ele><time>2026-04-11T08:46:32.999Z</time></trkpt><trkpt lat="45.335928607117225" lon="9.240560826553343"><ele>91.0</ele><time>2026-04-11T08:46:33.999Z</time></trkpt><trkpt lat="45.33578994534833" lon="9.24066119266169"><ele>90.75</ele><time>2026-04-11T08:46:34.999Z</time></trkpt><trkpt lat="45.33566514950317" lon="9.240758782512444"><ele>90.5</ele><time>2026-04-11T08:46:35.999Z</time></trkpt><trkpt lat="45.33554374695139" lon="9.240861010841328"><ele>90.25</ele><time>2026-04-11T08:46:36.999Z</time></trkpt><trkpt lat="45.33543083626888" lon="9.240955675749063"><ele>90.0</ele><time>2026-04-11T08:46:37.999Z</time></trkpt><trkpt lat="45.33532445000428" lon="9.241044117772377"><ele>90.0</ele><time>2026-04-11T08:46:38.999Z</time></trkpt><trkpt lat="45.33522321691284" lon="9.241128058043257"><ele>90.0</ele><time>2026-04-11T08:46:39.999Z</time></trkpt><trkpt lat="45.33512894943009" lon="9.241199681153391"><ele>90.0</ele><time>2026-04-11T08:46:40.999Z</time></trkpt><trkpt lat="45.335044238999764" lon="9.241267461320062"><ele>90.0</ele><time>2026-04-11T08:46:41.999Z</time></trkpt><trkpt lat="45.3349750695808" lon="9.241326230886754"><ele>90.0</ele><time>2026-04-11T08:46:42.999Z</time></trkpt><trkpt lat="45.33494716388207" lon="9.241427876872885"><ele>90.0</ele><time>2026-04-11T08:46:44.999Z</time></trkpt><trkpt lat="45.33499621145437" lon="9.241523433398383"><ele>90.0</ele><time>2026-04-11T08:46:46.999Z</time></trkpt><trkpt lat="45.33505245818726" lon="9.241634952484691"><ele>90.0</ele><time>2026-04-11T08:46:48.999Z</time></trkpt><trkpt lat="45.33510023221572" lon="9.241730933167057"><ele>90.0</ele><time>2026-04-11T08:46:49.999Z</time></trkpt><trkpt lat="45.33514618742742" lon="9.241829093522766"><ele>90.0</ele><time>2026-04-11T08:46:50.999Z</time></trkpt><trkpt lat="45.33519465063893" lon="9.241930508768673"><ele>90.0</ele><time>2026-04-11T08:46:51.999Z</time></trkpt><trkpt lat="45.33525995215875" lon="9.242049937180541"><ele>90.0</ele><time>2026-04-11T08:46:52.999Z</time></trkpt><trkpt lat="45.33531884065726" lon="9.242165305628973"><ele>90.0</ele><time>2026-04-11T08:46:53.999Z</time></trkpt><trkpt lat="45.33536297640381" lon="9.24225633781917"><ele>90.0</ele><time>2026-04-11T08:46:54.999Z</time></trkpt><trkpt lat="45.335402395091336" lon="9.242334455025986"><ele>90.0</ele><time>2026-04-11T08:46:55.999Z</time></trkpt><trkpt lat="45.33547708408822" lon="9.242467265757531"><ele>90.0</ele><time>2026-04-11T08:46:57.999Z</time></trkpt><trkpt lat="45.33551932107796" lon="9.242545877024279"><ele>90.0</ele><time>2026-04-11T08:46:58.999Z</time></trkpt><trkpt lat="45.33556345435815" lon="9.24262304311443"><ele>90.0</ele><time>2026-04-11T08:46:59.999Z</time></trkpt><trkpt lat="45.335607454033905" lon="9.242699832675465"><ele>90.0</ele><time>2026-04-11T08:47:00.999Z</time></trkpt><trkpt lat="45.3356504781807" lon="9.24278877398036"><ele>90.0</ele><time>2026-04-11T08:47:01.999Z</time></trkpt><trkpt lat="45.335695322510986" lon="9.242866370097168"><ele>90.0</ele><time>2026-04-11T08:47:02.999Z</time></trkpt><trkpt lat="45.335758392576636" lon="9.243002570962613"><ele>90.0</ele><time>2026-04-11T08:47:04.999Z</time></trkpt><trkpt lat="45.335834690000624" lon="9.243140078566435"><ele>90.16666666666667</ele><time>2026-04-11T08:47:06.999Z</time></trkpt><trkpt lat="45.33587927943893" lon="9.243232574881729"><ele>90.33333333333333</ele><time>2026-04-11T08:47:07.999Z</time></trkpt><trkpt lat="45.33593872804121" lon="9.243345923483831"><ele>90.5</ele><time>2026-04-11T08:47:08.999Z</time></trkpt><trkpt lat="45.335993483814995" lon="9.243446605196914"><ele>90.66666666666666</ele><time>2026-04-11T08:47:09.999Z</time></trkpt><trkpt lat="45.33603790842651" lon="9.243543916394868"><ele>90.83333333333333</ele><time>2026-04-11T08:47:10.999Z</time></trkpt><trkpt lat="45.336078802236635" lon="9.24363690253519"><ele>91.0</ele><time>2026-04-11T08:47:11.999Z</time></trkpt><trkpt lat="45.336127728694876" lon="9.243726037385295"><ele>91.0</ele><time>2026-04-11T08:47:12.999Z</time></trkpt><trkpt lat="45.336183574255436" lon="9.243832935870167"><ele>91.0</ele><time>2026-04-11T08:47:13.999Z</time></trkpt><trkpt lat="45.33623675732196" lon="9.243941508207595"><ele>91.0</ele><time>2026-04-11T08:47:14.999Z</time></trkpt><trkpt lat="45.336285111460974" lon="9.244047251791349"><ele>91.0</ele><time>2026-04-11T08:47:15.999Z</time></trkpt><trkpt lat="45.336333657537836" lon="9.244150093640927"><ele>91.0</ele><time>2026-04-11T08:47:16.999Z</time></trkpt><trkpt lat="45.33638440473639" lon="9.244254621997753"><ele>91.0</ele><time>2026-04-11T08:47:17.999Z</time></trkpt><trkpt lat="45.336432326503" lon="9.244357516528883"><ele>91.0</ele><time>2026-04-11T08:47:18.999Z</time></trkpt><trkpt lat="45.3364787508827" lon="9.244465194024352"><ele>91.0</ele><time>2026-04-11T08:47:19.999Z</time></trkpt><trkpt lat="45.33652537694956" lon="9.244571511895357"><ele>91.0</ele><time>2026-04-11T08:47:20.999Z</time></trkpt><trkpt lat="45.336584959900854" lon="9.2446768148554"><ele>91.0</ele><time>2026-04-11T08:47:21.999Z</time></trkpt><trkpt lat="45.336635321408934" lon="9.244774214890658"><ele>91.0</ele><time>2026-04-11T08:47:22.999Z</time></trkpt><trkpt lat="45.3366842829941" lon="9.244853923300711"><ele>91.16666666666666</ele><time>2026-04-11T08:47:23.999Z</time></trkpt><trkpt lat="45.336733169636204" lon="9.244937205657758"><ele>91.33333333333333</ele><time>2026-04-11T08:47:24.999Z</time></trkpt><trkpt lat="45.336783150928696" lon="9.245029988355322"><ele>91.5</ele><time>2026-04-11T08:47:25.999Z</time></trkpt><trkpt lat="45.336827939231526" lon="9.245119040804633"><ele>91.66666666666667</ele><time>2026-04-11T08:47:26.999Z</time></trkpt><trkpt lat="45.33688125296735" lon="9.245218055765536"><ele>91.83333333333334</ele><time>2026-04-11T08:47:28.999Z</time></trkpt><trkpt lat="45.336917017778816" lon="9.24531326408947"><ele>92.0</ele><time>2026-04-11T08:47:34.999Z</time></trkpt><trkpt lat="45.33682581377707" lon="9.245361130154595"><ele>92.0</ele><time>2026-04-11T08:47:50Z</time></trkpt><trkpt lat="45.33675568737923" lon="9.24543174224837"><ele>92.0</ele><time>2026-04-11T08:47:52Z</time></trkpt><trkpt lat="45.336692149382415" lon="9.245517338523559"><ele>92.0</ele><time>2026-04-11T08:47:54Z</time></trkpt><trkpt lat="45.33662164722441" lon="9.245595139261196"><ele>92.0</ele><time>2026-04-11T08:47:56Z</time></trkpt><trkpt lat="45.33655171359262" lon="9.245672369946314"><ele>92.0</ele><time>2026-04-11T08:47:58Z</time></trkpt><trkpt lat="45.336484876015284" lon="9.245760009215033"><ele>92.0</ele><time>2026-04-11T08:48:00Z</time></trkpt><trkpt lat="45.33646288306813" lon="9.245867012843423"><ele>92.19999999999999</ele><time>2026-04-11T08:48:02Z</time></trkpt><trkpt lat="45.336502027629656" lon="9.245978496350972"><ele>92.4</ele><time>2026-04-11T08:48:04Z</time></trkpt><trkpt lat="45.336571197520676" lon="9.246105253575465"><ele>92.6</ele><time>2026-04-11T08:48:06Z</time></trkpt><trkpt lat="45.336640008509484" lon="9.246229199737115"><ele>92.80000000000001</ele><time>2026-04-11T08:48:08Z</time></trkpt><trkpt lat="45.336687834916766" lon="9.246313825716554"><ele>93.0</ele><time>2026-04-11T08:48:09Z</time></trkpt><trkpt lat="45.3367269455741" lon="9.246401795663694"><ele>92.80000000000001</ele><time>2026-04-11T08:48:10Z</time></trkpt><trkpt lat="45.336771047302335" lon="9.24649444143669"><ele>92.6</ele><time>2026-04-11T08:48:11Z</time></trkpt><trkpt lat="45.33683125400358" lon="9.246606936381617"><ele>92.4</ele><time>2026-04-11T08:48:12Z</time></trkpt><trkpt lat="45.33689673229812" lon="9.246724409416016"><ele>92.19999999999999</ele><time>2026-04-11T08:48:13Z</time></trkpt><trkpt lat="45.33694542897528" lon="9.246826256628523"><ele>92.0</ele><time>2026-04-11T08:48:14Z</time></trkpt><trkpt lat="45.336995559934756" lon="9.246917922820668"><ele>92.0</ele><time>2026-04-11T08:48:15Z</time></trkpt><trkpt lat="45.33704777295625" lon="9.247015826188765"><ele>92.0</ele><time>2026-04-11T08:48:16Z</time></trkpt><trkpt lat="45.337088836392205" lon="9.247099003013435"><ele>92.0</ele><time>2026-04-11T08:48:17Z</time></trkpt><trkpt lat="45.337131449744504" lon="9.247181449723119"><ele>92.0</ele><time>2026-04-11T08:48:18Z</time></trkpt><trkpt lat="45.33717633380959" lon="9.247270824324318"><ele>92.0</ele><time>2026-04-11T08:48:19Z</time></trkpt><trkpt lat="45.3372161426695" lon="9.247358115649877"><ele>92.0</ele><time>2026-04-11T08:48:20Z</time></trkpt><trkpt lat="45.33725346386399" lon="9.247437000930336"><ele>92.0</ele><time>2026-04-11T08:48:21Z</time></trkpt><trkpt lat="45.337293903816594" lon="9.247507897649836"><ele>92.19999999999999</ele><time>2026-04-11T08:48:22Z</time></trkpt><trkpt lat="45.3373599805586" lon="9.247637964105813"><ele>92.4</ele><time>2026-04-11T08:48:24Z</time></trkpt><trkpt lat="45.33738199730867" lon="9.247742709015844"><ele>92.6</ele><time>2026-04-11T08:48:28Z</time></trkpt><trkpt lat="45.337360675673985" lon="9.247849957935895"><ele>92.80000000000001</ele><time>2026-04-11T08:48:31Z</time></trkpt><trkpt lat="45.33726484007655" lon="9.247942853362575"><ele>93.0</ele><time>2026-04-11T08:48:33Z</time></trkpt><trkpt lat="45.33720274441619" lon="9.247995455178492"><ele>93.0</ele><time>2026-04-11T08:48:34Z</time></trkpt><trkpt lat="45.33714364593904" lon="9.248056414051264"><ele>93.0</ele><time>2026-04-11T08:48:35Z</time></trkpt><trkpt lat="45.337094036573795" lon="9.248120921152783"><ele>93.0</ele><time>2026-04-11T08:48:36Z</time></trkpt><trkpt lat="45.337030633044776" lon="9.248198291291693"><ele>93.0</ele><time>2026-04-11T08:48:37Z</time></trkpt><trkpt lat="45.336958880923916" lon="9.248282904140082"><ele>93.0</ele><time>2026-04-11T08:48:38Z</time></trkpt><trkpt lat="45.33688255638036" lon="9.248369938662771"><ele>93.0</ele><time>2026-04-11T08:48:39Z</time></trkpt><trkpt lat="45.33681012900041" lon="9.248463391579543"><ele>93.0</ele><time>2026-04-11T08:48:40Z</time></trkpt><trkpt lat="45.336747493518345" lon="9.248540354494502"><ele>93.0</ele><time>2026-04-11T08:48:41Z</time></trkpt><trkpt lat="45.33669270779007" lon="9.248600404357935"><ele>93.0</ele><time>2026-04-11T08:48:41.999Z</time></trkpt><trkpt lat="45.33662334112496" lon="9.24868123558455"><ele>93.0</ele><time>2026-04-11T08:48:43.999Z</time></trkpt><trkpt lat="45.336580406954674" lon="9.248750028393655"><ele>93.0</ele><time>2026-04-11T08:48:46.999Z</time></trkpt><trkpt lat="45.33650375570182" lon="9.248810432649229"><ele>93.0</ele><time>2026-04-11T08:48:49.999Z</time></trkpt><trkpt lat="45.336430421671274" lon="9.248830944948708"><ele>92.80000000000001</ele><time>2026-04-11T08:48:52.999Z</time></trkpt><trkpt lat="45.33631775909542" lon="9.248853858260784"><ele>92.6</ele><time>2026-04-11T08:48:54.999Z</time></trkpt><trkpt lat="45.33620744355199" lon="9.248857364769771"><ele>92.4</ele><time>2026-04-11T08:48:56.999Z</time></trkpt><trkpt lat="45.336090888287416" lon="9.24893495522857"><ele>92.19999999999999</ele><time>2026-04-11T08:48:58.999Z</time></trkpt><trkpt lat="45.33603564791924" lon="9.24902230259906"><ele>92.0</ele><time>2026-04-11T08:48:59.999Z</time></trkpt><trkpt lat="45.33599443797191" lon="9.2491432218857"><ele>92.39999999999999</ele><time>2026-04-11T08:49:00.999Z</time></trkpt><trkpt lat="45.33598384664926" lon="9.249287289133914"><ele>92.8</ele><time>2026-04-11T08:49:01.999Z</time></trkpt><trkpt lat="45.33600364308527" lon="9.249420485486892"><ele>93.2</ele><time>2026-04-11T08:49:02.999Z</time></trkpt><trkpt lat="45.336036459499724" lon="9.249524290233778"><ele>93.6</ele><time>2026-04-11T08:49:03.999Z</time></trkpt><trkpt lat="45.33608338873747" lon="9.249638441256794"><ele>94.0</ele><time>2026-04-11T08:49:04.999Z</time></trkpt><trkpt lat="45.3361321059216" lon="9.249738117251177"><ele>94.0</ele><time>2026-04-11T08:49:05.999Z</time></trkpt><trkpt lat="45.33619721161987" lon="9.249834042442217"><ele>94.0</ele><time>2026-04-11T08:49:06.999Z</time></trkpt><trkpt lat="45.33627265950968" lon="9.249928333743002"><ele>94.0</ele><time>2026-04-11T08:49:07.999Z</time></trkpt><trkpt lat="45.33635525014058" lon="9.2500232740332"><ele>94.0</ele><time>2026-04-11T08:49:08.999Z</time></trkpt><trkpt lat="45.33644431538679" lon="9.250122504138572"><ele>94.0</ele><time>2026-04-11T08:49:09.999Z</time></trkpt><trkpt lat="45.33652214381151" lon="9.25023990221928"><ele>93.5</ele><time>2026-04-11T08:49:10.999Z</time></trkpt><trkpt lat="45.3365941674191" lon="9.250378567528783"><ele>93.0</ele><time>2026-04-11T08:49:11.999Z</time></trkpt><trkpt lat="45.336660149215916" lon="9.250534788926254"><ele>92.5</ele><time>2026-04-11T08:49:12.999Z</time></trkpt><trkpt lat="45.33672057792138" lon="9.25069087397171"><ele>92.0</ele><time>2026-04-11T08:49:13.999Z</time></trkpt><trkpt lat="45.33677356460908" lon="9.25083336051719"><ele>91.5</ele><time>2026-04-11T08:49:14.999Z</time></trkpt><trkpt lat="45.336826760827805" lon="9.250986934262915"><ele>91.0</ele><time>2026-04-11T08:49:15.999Z</time></trkpt><trkpt lat="45.3368824103325" lon="9.251149558166706"><ele>90.5</ele><time>2026-04-11T08:49:16.999Z</time></trkpt><trkpt lat="45.33693941635473" lon="9.251321104249927"><ele>90.0</ele><time>2026-04-11T08:49:17.999Z</time></trkpt><trkpt lat="45.3369975697195" lon="9.251498715408266"><ele>89.75</ele><time>2026-04-11T08:49:18.999Z</time></trkpt><trkpt lat="45.33706330540438" lon="9.251684684595388"><ele>89.5</ele><time>2026-04-11T08:49:19.999Z</time></trkpt><trkpt lat="45.33712958771758" lon="9.25187069399185"><ele>89.25</ele><time>2026-04-11T08:49:20.999Z</time></trkpt><trkpt lat="45.33719393057104" lon="9.25204958172706"><ele>89.0</ele><time>2026-04-11T08:49:21.999Z</time></trkpt><trkpt lat="45.337253405605246" lon="9.252203912968497"><ele>89.25</ele><time>2026-04-11T08:49:22.999Z</time></trkpt><trkpt lat="45.33731081179671" lon="9.252353160103949"><ele>89.5</ele><time>2026-04-11T08:49:23.999Z</time></trkpt><trkpt lat="45.33736458509554" lon="9.25249855414969"><ele>89.75</ele><time>2026-04-11T08:49:24.999Z</time></trkpt><trkpt lat="45.3374168614131" lon="9.252630033483534"><ele>90.0</ele><time>2026-04-11T08:49:25.999Z</time></trkpt><trkpt lat="45.337508874060944" lon="9.252982529300969"><ele>90.0</ele><time>2026-04-11T08:49:26.999Z</time></trkpt><trkpt lat="45.337564876152356" lon="9.253125006651699"><ele>90.0</ele><time>2026-04-11T08:49:27.999Z</time></trkpt><trkpt lat="45.337635411653565" lon="9.253327484420701"><ele>90.0</ele><time>2026-04-11T08:49:28.999Z</time></trkpt><trkpt lat="45.33770166188052" lon="9.25351981910045"><ele>90.0</ele><time>2026-04-11T08:49:29.999Z</time></trkpt><trkpt lat="45.3377677860533" lon="9.253713606167064"><ele>90.0</ele><time>2026-04-11T08:49:30.999Z</time></trkpt><trkpt lat="45.33783635614087" lon="9.253905435023944"><ele>90.0</ele><time>2026-04-11T08:49:31.999Z</time></trkpt><trkpt lat="45.337904404578616" lon="9.254098724643105"><ele>90.0</ele><time>2026-04-11T08:49:32.999Z</time></trkpt><trkpt lat="45.33796960658556" lon="9.254291558136265"><ele>90.0</ele><time>2026-04-11T08:49:33.999Z</time></trkpt><trkpt lat="45.33803170365188" lon="9.254470752470684"><ele>90.0</ele><time>2026-04-11T08:49:34.999Z</time></trkpt><trkpt lat="45.338094184067124" lon="9.254643386032107"><ele>90.0</ele><time>2026-04-11T08:49:35.999Z</time></trkpt><trkpt lat="45.338154601490814" lon="9.254808197215494"><ele>90.0</ele><time>2026-04-11T08:49:36.999Z</time></trkpt><trkpt lat="45.33821167661533" lon="9.254979838269044"><ele>90.0</ele><time>2026-04-11T08:49:37.999Z</time></trkpt><trkpt lat="45.33827582056487" lon="9.255154123711499"><ele>90.0</ele><time>2026-04-11T08:49:38.999Z</time></trkpt><trkpt lat="45.338330912746244" lon="9.255309164079979"><ele>90.0</ele><time>2026-04-11T08:49:39.999Z</time></trkpt><trkpt lat="45.33837966071226" lon="9.255458854322978"><ele>90.0</ele><time>2026-04-11T08:49:40.999Z</time></trkpt><trkpt lat="45.33842965674327" lon="9.255613039005242"><ele>90.25</ele><time>2026-04-11T08:49:41.999Z</time></trkpt><trkpt lat="45.338481472707755" lon="9.255768515937108"><ele>90.5</ele><time>2026-04-11T08:49:42.999Z</time></trkpt><trkpt lat="45.33853416498434" lon="9.255922028440397"><ele>90.75</ele><time>2026-04-11T08:49:43.999Z</time></trkpt><trkpt lat="45.338584809563365" lon="9.256066034910086"><ele>91.0</ele><time>2026-04-11T08:49:44.999Z</time></trkpt><trkpt lat="45.338634345891826" lon="9.256216177094268"><ele>91.0</ele><time>2026-04-11T08:49:45.999Z</time></trkpt><trkpt lat="45.33868723213864" lon="9.2563716568475"><ele>91.0</ele><time>2026-04-11T08:49:46.999Z</time></trkpt><trkpt lat="45.338743726346706" lon="9.256534955713834"><ele>91.0</ele><time>2026-04-11T08:49:47.999Z</time></trkpt><trkpt lat="45.33880326244503" lon="9.25669744736411"><ele>91.0</ele><time>2026-04-11T08:49:48.999Z</time></trkpt><trkpt lat="45.33886548276257" lon="9.256871803219775"><ele>90.5</ele><time>2026-04-11T08:49:49.999Z</time></trkpt><trkpt lat="45.338928496697136" lon="9.257050245900878"><ele>90.0</ele><time>2026-04-11T08:49:51Z</time></trkpt><trkpt lat="45.33899050465614" lon="9.257233166463358"><ele>89.5</ele><time>2026-04-11T08:49:52Z</time></trkpt><trkpt lat="45.339056350759186" lon="9.25742842543783"><ele>89.0</ele><time>2026-04-11T08:49:53Z</time></trkpt><trkpt lat="45.339125239278594" lon="9.257622659306271"><ele>89.0</ele><time>2026-04-11T08:49:54Z</time></trkpt><trkpt lat="45.339189159580044" lon="9.257796690046947"><ele>89.0</ele><time>2026-04-11T08:49:55Z</time></trkpt><trkpt lat="45.33925045313965" lon="9.257969070679268"><ele>89.0</ele><time>2026-04-11T08:49:56Z</time></trkpt><trkpt lat="45.339312720435764" lon="9.258142470729123"><ele>89.0</ele><time>2026-04-11T08:49:57Z</time></trkpt><trkpt lat="45.33937842225963" lon="9.258322614162404"><ele>89.0</ele><time>2026-04-11T08:49:58Z</time></trkpt><trkpt lat="45.339440958198544" lon="9.258503112637973"><ele>89.0</ele><time>2026-04-11T08:49:59Z</time></trkpt><trkpt lat="45.339504478095215" lon="9.258688525127111"><ele>89.0</ele><time>2026-04-11T08:50:00Z</time></trkpt><trkpt lat="45.33956820874438" lon="9.258873009735074"><ele>89.0</ele><time>2026-04-11T08:50:01Z</time></trkpt><trkpt lat="45.339633441271054" lon="9.25906540353743"><ele>88.75</ele><time>2026-04-11T08:50:02Z</time></trkpt><trkpt lat="45.33969656986687" lon="9.259256114369407"><ele>88.5</ele><time>2026-04-11T08:50:03Z</time></trkpt><trkpt lat="45.33976119020236" lon="9.259441409793329"><ele>88.25</ele><time>2026-04-11T08:50:04Z</time></trkpt><trkpt lat="45.33982851930551" lon="9.259630317896757"><ele>88.0</ele><time>2026-04-11T08:50:05Z</time></trkpt><trkpt lat="45.33989300663347" lon="9.259820338799402"><ele>88.5</ele><time>2026-04-11T08:50:06Z</time></trkpt><trkpt lat="45.33995532420403" lon="9.259996660466657"><ele>89.0</ele><time>2026-04-11T08:50:07Z</time></trkpt><trkpt lat="45.34001639189296" lon="9.26017321215442"><ele>89.5</ele><time>2026-04-11T08:50:08Z</time></trkpt><trkpt lat="45.340074754162714" lon="9.260343866857747"><ele>90.0</ele><time>2026-04-11T08:50:09Z</time></trkpt><trkpt lat="45.34013405607169" lon="9.26052308280308"><ele>89.75</ele><time>2026-04-11T08:50:10Z</time></trkpt><trkpt lat="45.340195172259484" lon="9.260704972312945"><ele>89.5</ele><time>2026-04-11T08:50:11Z</time></trkpt><trkpt lat="45.340257222447185" lon="9.26087628981916"><ele>89.25</ele><time>2026-04-11T08:50:12Z</time></trkpt><trkpt lat="45.34031562633027" lon="9.261035550240422"><ele>89.0</ele><time>2026-04-11T08:50:13Z</time></trkpt><trkpt lat="45.340368461577896" lon="9.261190036401695"><ele>89.0</ele><time>2026-04-11T08:50:14Z</time></trkpt><trkpt lat="45.34041670383692" lon="9.261347028539458"><ele>89.0</ele><time>2026-04-11T08:50:15Z</time></trkpt><trkpt lat="45.34046676819744" lon="9.261503792468774"><ele>89.0</ele><time>2026-04-11T08:50:16Z</time></trkpt><trkpt lat="45.340518831315926" lon="9.261656170778828"><ele>89.0</ele><time>2026-04-11T08:50:17Z</time></trkpt><trkpt lat="45.34057345487598" lon="9.261805633918046"><ele>89.0</ele><time>2026-04-11T08:50:18Z</time></trkpt><trkpt lat="45.34062829387686" lon="9.261953741547286"><ele>89.0</ele><time>2026-04-11T08:50:19Z</time></trkpt><trkpt lat="45.34067891604413" lon="9.262096544359261"><ele>89.0</ele><time>2026-04-11T08:50:20Z</time></trkpt><trkpt lat="45.3407299181989" lon="9.26224357260638"><ele>89.0</ele><time>2026-04-11T08:50:21Z</time></trkpt><trkpt lat="45.340782011322716" lon="9.26239689728772"><ele>89.0</ele><time>2026-04-11T08:50:22Z</time></trkpt><trkpt lat="45.34083481176662" lon="9.262552221734856"><ele>89.0</ele><time>2026-04-11T08:50:23Z</time></trkpt><trkpt lat="45.34088666718946" lon="9.262706659784756"><ele>89.0</ele><time>2026-04-11T08:50:24Z</time></trkpt><trkpt lat="45.34094317177041" lon="9.26286269331499"><ele>89.0</ele><time>2026-04-11T08:50:25Z</time></trkpt><trkpt lat="45.34100096363143" lon="9.263022486464644"><ele>89.25</ele><time>2026-04-11T08:50:26Z</time></trkpt><trkpt lat="45.34105850477153" lon="9.263180755250973"><ele>89.5</ele><time>2026-04-11T08:50:27Z</time></trkpt><trkpt lat="45.34111557364579" lon="9.26333863594193"><ele>89.75</ele><time>2026-04-11T08:50:28Z</time></trkpt><trkpt lat="45.34117187549383" lon="9.26349786729305"><ele>90.0</ele><time>2026-04-11T08:50:29Z</time></trkpt><trkpt lat="45.34122671395095" lon="9.263659846056742"><ele>90.0</ele><time>2026-04-11T08:50:30Z</time></trkpt><trkpt lat="45.341276498117274" lon="9.263805998457537"><ele>90.0</ele><time>2026-04-11T08:50:31Z</time></trkpt><trkpt lat="45.34132554671182" lon="9.26394805365325"><ele>90.0</ele><time>2026-04-11T08:50:32Z</time></trkpt><trkpt lat="45.34136774899645" lon="9.26407189865946"><ele>90.0</ele><time>2026-04-11T08:50:33Z</time></trkpt><trkpt lat="45.34139025771228" lon="9.264216114010182"><ele>90.0</ele><time>2026-04-11T08:50:35Z</time></trkpt><trkpt lat="45.341347321109716" lon="9.264301672745805"><ele>90.0</ele><time>2026-04-11T08:50:37Z</time></trkpt><trkpt lat="45.341283210302755" lon="9.264371885917212"><ele>90.0</ele><time>2026-04-11T08:50:39Z</time></trkpt><trkpt lat="45.3412101558915" lon="9.264507383005434"><ele>90.0</ele><time>2026-04-11T08:50:41Z</time></trkpt><trkpt lat="45.34112695622931" lon="9.264647919336696"><ele>90.0</ele><time>2026-04-11T08:50:42.999Z</time></trkpt><trkpt lat="45.341075519015895" lon="9.264735645719746"><ele>90.0</ele><time>2026-04-11T08:50:43.999Z</time></trkpt><trkpt lat="45.34101251983384" lon="9.264835995173792"><ele>90.0</ele><time>2026-04-11T08:50:44.999Z</time></trkpt><trkpt lat="45.340948218980216" lon="9.264942072085626"><ele>90.0</ele><time>2026-04-11T08:50:45.999Z</time></trkpt><trkpt lat="45.340892526791045" lon="9.265029507704105"><ele>90.0</ele><time>2026-04-11T08:50:46.999Z</time></trkpt><trkpt lat="45.34083357276526" lon="9.26512884844869"><ele>90.0</ele><time>2026-04-11T08:50:47.999Z</time></trkpt><trkpt lat="45.34076367749787" lon="9.265239740042988"><ele>90.0</ele><time>2026-04-11T08:50:48.999Z</time></trkpt><trkpt lat="45.34068300879719" lon="9.265368048394498"><ele>90.0</ele><time>2026-04-11T08:50:49.999Z</time></trkpt><trkpt lat="45.34059196702717" lon="9.265505875061113"><ele>90.0</ele><time>2026-04-11T08:50:50.999Z</time></trkpt><trkpt lat="45.340490139649546" lon="9.265644588120749"><ele>90.0</ele><time>2026-04-11T08:50:51.999Z</time></trkpt><trkpt lat="45.3403711460689" lon="9.265811232065087"><ele>90.0</ele><time>2026-04-11T08:50:52.999Z</time></trkpt><trkpt lat="45.34044717186891" lon="9.265755214452438"><ele>89.4</ele><time>2026-04-11T08:50:53.999Z</time></trkpt><trkpt lat="45.34037673173441" lon="9.265869301940121"><ele>88.8</ele><time>2026-04-11T08:50:54.999Z</time></trkpt><trkpt lat="45.34030642012307" lon="9.265978112468638"><ele>88.19999999999999</ele><time>2026-04-11T08:50:55.999Z</time></trkpt><trkpt lat="45.340237633783275" lon="9.266084325022447"><ele>87.6</ele><time>2026-04-11T08:50:56.999Z</time></trkpt><trkpt lat="45.34017116547192" lon="9.266194161279108"><ele>87.0</ele><time>2026-04-11T08:50:57.999Z</time></trkpt><trkpt lat="45.34011458419387" lon="9.26628418868822"><ele>87.0</ele><time>2026-04-11T08:50:58.999Z</time></trkpt><trkpt lat="45.34007037088966" lon="9.266365079394154"><ele>87.0</ele><time>2026-04-11T08:50:59.999Z</time></trkpt><trkpt lat="45.34003057559735" lon="9.266438166749358"><ele>87.0</ele><time>2026-04-11T08:51:00.999Z</time></trkpt><trkpt lat="45.33998635758276" lon="9.266514316026306"><ele>87.0</ele><time>2026-04-11T08:51:01.999Z</time></trkpt><trkpt lat="45.33990682821978" lon="9.266631042861457"><ele>87.0</ele><time>2026-04-11T08:51:03.999Z</time></trkpt><trkpt lat="45.339861981674424" lon="9.266772945319454"><ele>87.0</ele><time>2026-04-11T08:51:05.999Z</time></trkpt><trkpt lat="45.33987286786719" lon="9.26687842431077"><ele>87.19999999999999</ele><time>2026-04-11T08:51:06.999Z</time></trkpt><trkpt lat="45.339909460906576" lon="9.266997665801078"><ele>87.4</ele><time>2026-04-11T08:51:07.999Z</time></trkpt><trkpt lat="45.339951818080806" lon="9.267135886241752"><ele>87.6</ele><time>2026-04-11T08:51:08.999Z</time></trkpt><trkpt lat="45.33999318293122" lon="9.267291749040938"><ele>87.80000000000001</ele><time>2026-04-11T08:51:09.999Z</time></trkpt><trkpt lat="45.340044198697505" lon="9.267418954799284"><ele>88.0</ele><time>2026-04-11T08:51:10.999Z</time></trkpt><trkpt lat="45.34011166921293" lon="9.26754939020113"><ele>88.0</ele><time>2026-04-11T08:51:11.999Z</time></trkpt><trkpt lat="45.34019679726739" lon="9.267688191342772"><ele>88.0</ele><time>2026-04-11T08:51:12.999Z</time></trkpt><trkpt lat="45.340283166816825" lon="9.267827705718288"><ele>88.0</ele><time>2026-04-11T08:51:13.999Z</time></trkpt><trkpt lat="45.3403694924244" lon="9.267961989080204"><ele>88.0</ele><time>2026-04-11T08:51:14.999Z</time></trkpt><trkpt lat="45.34045746575685" lon="9.26807380953225"><ele>88.2</ele><time>2026-04-11T08:51:15.999Z</time></trkpt><trkpt lat="45.34052599413519" lon="9.268180789057011"><ele>88.4</ele><time>2026-04-11T08:51:16.999Z</time></trkpt><trkpt lat="45.340585646864966" lon="9.26827911628872"><ele>88.60000000000001</ele><time>2026-04-11T08:51:17.999Z</time></trkpt><trkpt lat="45.340629074284074" lon="9.268378731175059"><ele>88.80000000000001</ele><time>2026-04-11T08:51:18.999Z</time></trkpt><trkpt lat="45.340655002386995" lon="9.268496987367703"><ele>89.0</ele><time>2026-04-11T08:51:19.999Z</time></trkpt><trkpt lat="45.34066906817961" lon="9.268625631544356"><ele>89.16666666666667</ele><time>2026-04-11T08:51:20.999Z</time></trkpt><trkpt lat="45.34068029849983" lon="9.2687582768757"><ele>89.33333333333334</ele><time>2026-04-11T08:51:21.999Z</time></trkpt><trkpt lat="45.340687833546674" lon="9.268887680254245"><ele>89.5</ele><time>2026-04-11T08:51:22.999Z</time></trkpt><trkpt lat="45.34070025984728" lon="9.268997177086627"><ele>89.66666666666667</ele><time>2026-04-11T08:51:23.999Z</time></trkpt><trkpt lat="45.340712827534134" lon="9.269105126601202"><ele>89.83333333333333</ele><time>2026-04-11T08:51:24.999Z</time></trkpt><trkpt lat="45.34072413487186" lon="9.269214970644052"><ele>90.0</ele><time>2026-04-11T08:51:25.999Z</time></trkpt><trkpt lat="45.34073351748404" lon="9.269309228445671"><ele>90.0</ele><time>2026-04-11T08:51:26.999Z</time></trkpt><trkpt lat="45.34076610489698" lon="9.269453758126705"><ele>90.0</ele><time>2026-04-11T08:51:28.999Z</time></trkpt><trkpt lat="45.340774515079296" lon="9.269570634711034"><ele>90.0</ele><time>2026-04-11T08:51:30.999Z</time></trkpt><trkpt lat="45.340730184199465" lon="9.269638941562055"><ele>90.0</ele><time>2026-04-11T08:51:32.999Z</time></trkpt><trkpt lat="45.34060602920345" lon="9.269675746293325"><ele>90.0</ele><time>2026-04-11T08:51:34.999Z</time></trkpt><trkpt lat="45.34054098680052" lon="9.269679841280597"><ele>90.0</ele><time>2026-04-11T08:51:35.999Z</time></trkpt><trkpt lat="45.34043260571634" lon="9.269707899652131"><ele>90.0</ele><time>2026-04-11T08:51:37.999Z</time></trkpt><trkpt lat="45.3403201312672" lon="9.269736913032379"><ele>90.0</ele><time>2026-04-11T08:51:39.999Z</time></trkpt><trkpt lat="45.34025373484246" lon="9.269746074133227"><ele>90.0</ele><time>2026-04-11T08:51:40.999Z</time></trkpt><trkpt lat="45.3401814843418" lon="9.269763822463009"><ele>90.0</ele><time>2026-04-11T08:51:41.999Z</time></trkpt><trkpt lat="45.340098437889864" lon="9.269786096430934"><ele>90.0</ele><time>2026-04-11T08:51:42.999Z</time></trkpt><trkpt lat="45.34000701669876" lon="9.269812820623542"><ele>90.0</ele><time>2026-04-11T08:51:43.999Z</time></trkpt><trkpt lat="45.33990755821349" lon="9.269855140203385"><ele>90.0</ele><time>2026-04-11T08:51:44.999Z</time></trkpt><trkpt lat="45.33980827349813" lon="9.269929130162245"><ele>90.0</ele><time>2026-04-11T08:51:45.999Z</time></trkpt><trkpt lat="45.33970845255706" lon="9.270005353219824"><ele>90.0</ele><time>2026-04-11T08:51:46.999Z</time></trkpt><trkpt lat="45.33961309803708" lon="9.270068283868646"><ele>90.0</ele><time>2026-04-11T08:51:47.999Z</time></trkpt><trkpt lat="45.339519521490445" lon="9.270124083368653"><ele>90.0</ele><time>2026-04-11T08:51:48.999Z</time></trkpt><trkpt lat="45.33942125313546" lon="9.270184752441466"><ele>90.2</ele><time>2026-04-11T08:51:49.999Z</time></trkpt><trkpt lat="45.33931782289031" lon="9.270253009695375"><ele>90.4</ele><time>2026-04-11T08:51:50.999Z</time></trkpt><trkpt lat="45.3392216962318" lon="9.270317031604758"><ele>90.6</ele><time>2026-04-11T08:51:51.998Z</time></trkpt><trkpt lat="45.33912982540103" lon="9.270376725149182"><ele>90.8</ele><time>2026-04-11T08:51:52.998Z</time></trkpt><trkpt lat="45.33903497710432" lon="9.270431868941646"><ele>91.0</ele><time>2026-04-11T08:51:53.998Z</time></trkpt><trkpt lat="45.33894419911069" lon="9.270491097898567"><ele>91.0</ele><time>2026-04-11T08:51:54.998Z</time></trkpt><trkpt lat="45.33885490942216" lon="9.27055343316909"><ele>91.0</ele><time>2026-04-11T08:51:55.998Z</time></trkpt><trkpt lat="45.33876682446039" lon="9.27060652147181"><ele>91.0</ele><time>2026-04-11T08:51:57Z</time></trkpt><trkpt lat="45.33868596047625" lon="9.270662607281189"><ele>91.0</ele><time>2026-04-11T08:51:58Z</time></trkpt><trkpt lat="45.33860852296577" lon="9.270718168727019"><ele>91.0</ele><time>2026-04-11T08:51:59Z</time></trkpt><trkpt lat="45.338538513747494" lon="9.270767969937404"><ele>91.0</ele><time>2026-04-11T08:52:00Z</time></trkpt><trkpt lat="45.33846771402771" lon="9.270809994564715"><ele>91.0</ele><time>2026-04-11T08:52:01Z</time></trkpt><trkpt lat="45.33838910223842" lon="9.2708628428318"><ele>91.0</ele><time>2026-04-11T08:52:02Z</time></trkpt><trkpt lat="45.338299708274754" lon="9.270918946787656"><ele>91.0</ele><time>2026-04-11T08:52:03Z</time></trkpt><trkpt lat="45.33821688347248" lon="9.27097605514234"><ele>91.0</ele><time>2026-04-11T08:52:04Z</time></trkpt><trkpt lat="45.33811879108454" lon="9.271039448412395"><ele>90.75</ele><time>2026-04-11T08:52:05Z</time></trkpt><trkpt lat="45.33801911402834" lon="9.2711071089417"><ele>90.5</ele><time>2026-04-11T08:52:06Z</time></trkpt><trkpt lat="45.337909027919096" lon="9.271172804777672"><ele>90.25</ele><time>2026-04-11T08:52:07Z</time></trkpt><trkpt lat="45.337798167031565" lon="9.271243671210486"><ele>90.0</ele><time>2026-04-11T08:52:08Z</time></trkpt><trkpt lat="45.33768709934651" lon="9.271322367409246"><ele>90.0</ele><time>2026-04-11T08:52:09Z</time></trkpt><trkpt lat="45.33759309446898" lon="9.27138645315133"><ele>90.0</ele><time>2026-04-11T08:52:10Z</time></trkpt><trkpt lat="45.33749611489105" lon="9.271449973913864"><ele>90.0</ele><time>2026-04-11T08:52:11Z</time></trkpt><trkpt lat="45.337400028038" lon="9.27151723233057"><ele>90.0</ele><time>2026-04-11T08:52:12Z</time></trkpt><trkpt lat="45.33729572041463" lon="9.271581110074886"><ele>90.0</ele><time>2026-04-11T08:52:13Z</time></trkpt><trkpt lat="45.33718448807138" lon="9.27164800597493"><ele>90.0</ele><time>2026-04-11T08:52:14Z</time></trkpt><trkpt lat="45.33707513239436" lon="9.271715798325314"><ele>90.0</ele><time>2026-04-11T08:52:15Z</time></trkpt><trkpt lat="45.336985640293506" lon="9.271776974340458"><ele>90.0</ele><time>2026-04-11T08:52:16Z</time></trkpt><trkpt lat="45.33690092321868" lon="9.271826230112673"><ele>90.0</ele><time>2026-04-11T08:52:17Z</time></trkpt><trkpt lat="45.33681933572521" lon="9.271877242407129"><ele>90.0</ele><time>2026-04-11T08:52:18Z</time></trkpt><trkpt lat="45.33672828941024" lon="9.271943546325943"><ele>90.0</ele><time>2026-04-11T08:52:19Z</time></trkpt><trkpt lat="45.33663403167331" lon="9.272013725285486"><ele>90.0</ele><time>2026-04-11T08:52:20Z</time></trkpt><trkpt lat="45.33653258645051" lon="9.272074980115306"><ele>90.0</ele><time>2026-04-11T08:52:21Z</time></trkpt><trkpt lat="45.33644692077483" lon="9.272124430568075"><ele>90.0</ele><time>2026-04-11T08:52:22Z</time></trkpt><trkpt lat="45.336368888773436" lon="9.272167204877759"><ele>90.0</ele><time>2026-04-11T08:52:23Z</time></trkpt><trkpt lat="45.336302317443895" lon="9.27220734428054"><ele>89.66666666666667</ele><time>2026-04-11T08:52:24Z</time></trkpt><trkpt lat="45.336234166589556" lon="9.272253505928465"><ele>89.33333333333333</ele><time>2026-04-11T08:52:25Z</time></trkpt><trkpt lat="45.336167618059406" lon="9.272283534059383"><ele>89.0</ele><time>2026-04-11T08:52:26Z</time></trkpt><trkpt lat="45.33609961168955" lon="9.272271751059675"><ele>88.66666666666666</ele><time>2026-04-11T08:52:27Z</time></trkpt><trkpt lat="45.3360344218637" lon="9.272230790765635"><ele>88.33333333333333</ele><time>2026-04-11T08:52:28Z</time></trkpt><trkpt lat="45.33592777929466" lon="9.27232008478496"><ele>88.0</ele><time>2026-04-11T08:52:30Z</time></trkpt><trkpt lat="45.33587960076601" lon="9.272403970722578"><ele>88.0</ele><time>2026-04-11T08:52:31Z</time></trkpt><trkpt lat="45.335820784925644" lon="9.272493980771362"><ele>88.0</ele><time>2026-04-11T08:52:32Z</time></trkpt><trkpt lat="45.33573889393998" lon="9.272559608923718"><ele>88.0</ele><time>2026-04-11T08:52:33Z</time></trkpt><trkpt lat="45.335637595970624" lon="9.272607188912685"><ele>88.0</ele><time>2026-04-11T08:52:34Z</time></trkpt><trkpt lat="45.33553823694739" lon="9.27266265500491"><ele>88.0</ele><time>2026-04-11T08:52:35Z</time></trkpt><trkpt lat="45.33545278550862" lon="9.27271779472011"><ele>88.25</ele><time>2026-04-11T08:52:36Z</time></trkpt><trkpt lat="45.33535862728458" lon="9.27277818631643"><ele>88.5</ele><time>2026-04-11T08:52:37Z</time></trkpt><trkpt lat="45.33526144535183" lon="9.272879976886857"><ele>88.75</ele><time>2026-04-11T08:52:38Z</time></trkpt><trkpt lat="45.33517694596199" lon="9.273005946686906"><ele>89.0</ele><time>2026-04-11T08:52:39Z</time></trkpt><trkpt lat="45.33508941210363" lon="9.273090296874567"><ele>89.0</ele><time>2026-04-11T08:52:40Z</time></trkpt><trkpt lat="45.3349987275339" lon="9.273147540643855"><ele>89.0</ele><time>2026-04-11T08:52:41Z</time></trkpt><trkpt lat="45.334909172182634" lon="9.273197937930352"><ele>89.0</ele><time>2026-04-11T08:52:42Z</time></trkpt><trkpt lat="45.33483786324643" lon="9.273258517382489"><ele>89.0</ele><time>2026-04-11T08:52:43Z</time></trkpt><trkpt lat="45.33474513218105" lon="9.273338911406233"><ele>89.0</ele><time>2026-04-11T08:52:44Z</time></trkpt><trkpt lat="45.334631086664174" lon="9.273399799324213"><ele>89.0</ele><time>2026-04-11T08:52:45Z</time></trkpt><trkpt lat="45.33450777738826" lon="9.273469435998768"><ele>89.0</ele><time>2026-04-11T08:52:46Z</time></trkpt><trkpt lat="45.33438138793829" lon="9.273569725569041"><ele>89.0</ele><time>2026-04-11T08:52:47Z</time></trkpt><trkpt lat="45.334248616126274" lon="9.273678756341688"><ele>89.0</ele><time>2026-04-11T08:52:47.999Z</time></trkpt><trkpt lat="45.33411778810217" lon="9.273787790909083"><ele>89.0</ele><time>2026-04-11T08:52:48.999Z</time></trkpt><trkpt lat="45.33399363026855" lon="9.27389171842735"><ele>89.0</ele><time>2026-04-11T08:52:49.999Z</time></trkpt><trkpt lat="45.333866281760464" lon="9.274002821196435"><ele>89.0</ele><time>2026-04-11T08:52:50.999Z</time></trkpt><trkpt lat="45.33373699480078" lon="9.274120326003052"><ele>89.0</ele><time>2026-04-11T08:52:51.999Z</time></trkpt><trkpt lat="45.33360149977779" lon="9.274242600509217"><ele>89.25</ele><time>2026-04-11T08:52:52.999Z</time></trkpt><trkpt lat="45.33346624197274" lon="9.274371266731997"><ele>89.5</ele><time>2026-04-11T08:52:53.999Z</time></trkpt><trkpt lat="45.33334018097433" lon="9.274493774525247"><ele>89.75</ele><time>2026-04-11T08:52:54.999Z</time></trkpt><trkpt lat="45.3332311939557" lon="9.274597966315289"><ele>90.0</ele><time>2026-04-11T08:52:55.999Z</time></trkpt><trkpt lat="45.33313999751957" lon="9.274682116092698"><ele>90.0</ele><time>2026-04-11T08:52:56.999Z</time></trkpt><trkpt lat="45.33306945880774" lon="9.274745008085446"><ele>90.0</ele><time>2026-04-11T08:52:57.999Z</time></trkpt><trkpt lat="45.33301315733349" lon="9.274798633861577"><ele>90.0</ele><time>2026-04-11T08:52:58.999Z</time></trkpt><trkpt lat="45.332941438715295" lon="9.2748261325038"><ele>90.0</ele><time>2026-04-11T08:53:00.999Z</time></trkpt><trkpt lat="45.332887065379225" lon="9.274716637912036"><ele>90.0</ele><time>2026-04-11T08:53:03.999Z</time></trkpt><trkpt lat="45.33282272533587" lon="9.27454129203802"><ele>89.8</ele><time>2026-04-11T08:53:05.999Z</time></trkpt><trkpt lat="45.332784087350426" lon="9.274439550008676"><ele>89.6</ele><time>2026-04-11T08:53:06.999Z</time></trkpt><trkpt lat="45.33274352145404" lon="9.274329386192314"><ele>89.4</ele><time>2026-04-11T08:53:07.999Z</time></trkpt><trkpt lat="45.33270461082262" lon="9.274228598539358"><ele>89.2</ele><time>2026-04-11T08:53:08.999Z</time></trkpt><trkpt lat="45.33265365288954" lon="9.274089644385661"><ele>89.0</ele><time>2026-04-11T08:53:09.999Z</time></trkpt><trkpt lat="45.332592838685244" lon="9.273919874474917"><ele>88.33333333333334</ele><time>2026-04-11T08:53:10.999Z</time></trkpt><trkpt lat="45.33252006765338" lon="9.273732991980681"><ele>87.66666666666667</ele><time>2026-04-11T08:53:11.999Z</time></trkpt><trkpt lat="45.33243979453357" lon="9.273532004757516"><ele>87.0</ele><time>2026-04-11T08:53:12.999Z</time></trkpt><trkpt lat="45.33236252904136" lon="9.273334341780997"><ele>87.0</ele><time>2026-04-11T08:53:13.999Z</time></trkpt><trkpt lat="45.332294192532295" lon="9.273161050524172"><ele>87.0</ele><time>2026-04-11T08:53:14.999Z</time></trkpt><trkpt lat="45.332238034557044" lon="9.27300741716126"><ele>87.0</ele><time>2026-04-11T08:53:15.999Z</time></trkpt><trkpt lat="45.33217884396699" lon="9.272858841421728"><ele>87.0</ele><time>2026-04-11T08:53:16.999Z</time></trkpt><trkpt lat="45.33212120021318" lon="9.272682028817332"><ele>87.0</ele><time>2026-04-11T08:53:17.999Z</time></trkpt><trkpt lat="45.332062444139346" lon="9.272517683665189"><ele>87.0</ele><time>2026-04-11T08:53:18.999Z</time></trkpt><trkpt lat="45.332000179388636" lon="9.272322326893473"><ele>87.0</ele><time>2026-04-11T08:53:19.999Z</time></trkpt><trkpt lat="45.331936964580734" lon="9.27212927574709"><ele>87.0</ele><time>2026-04-11T08:53:20.999Z</time></trkpt><trkpt lat="45.33185924541294" lon="9.271926919937313"><ele>87.0</ele><time>2026-04-11T08:53:21.999Z</time></trkpt><trkpt lat="45.331784486117435" lon="9.271735453600325"><ele>87.0</ele><time>2026-04-11T08:53:22.999Z</time></trkpt><trkpt lat="45.33170974954255" lon="9.271547304945152"><ele>87.0</ele><time>2026-04-11T08:53:23.999Z</time></trkpt><trkpt lat="45.3316369024284" lon="9.271344871622796"><ele>87.0</ele><time>2026-04-11T08:53:24.999Z</time></trkpt><trkpt lat="45.331568564776425" lon="9.27115677735966"><ele>87.0</ele><time>2026-04-11T08:53:25.999Z</time></trkpt><trkpt lat="45.331503004528045" lon="9.270969453191485"><ele>87.0</ele><time>2026-04-11T08:53:26.999Z</time></trkpt><trkpt lat="45.33143069105451" lon="9.27079417611079"><ele>87.0</ele><time>2026-04-11T08:53:27.999Z</time></trkpt><trkpt lat="45.33136285281454" lon="9.270601210381807"><ele>87.25</ele><time>2026-04-11T08:53:28.999Z</time></trkpt><trkpt lat="45.33129779382729" lon="9.270429841882576"><ele>87.5</ele><time>2026-04-11T08:53:29.999Z</time></trkpt><trkpt lat="45.33122777882223" lon="9.270245425720052"><ele>87.75</ele><time>2026-04-11T08:53:30.999Z</time></trkpt><trkpt lat="45.331158723704455" lon="9.27005827566679"><ele>88.0</ele><time>2026-04-11T08:53:31.999Z</time></trkpt><trkpt lat="45.33109469055026" lon="9.269888709900654"><ele>88.5</ele><time>2026-04-11T08:53:32.999Z</time></trkpt><trkpt lat="45.331038629713966" lon="9.269720453724222"><ele>89.0</ele><time>2026-04-11T08:53:33.999Z</time></trkpt><trkpt lat="45.330978821235384" lon="9.269557046141935"><ele>89.5</ele><time>2026-04-11T08:53:34.999Z</time></trkpt><trkpt lat="45.33092216975777" lon="9.269396138480152"><ele>90.0</ele><time>2026-04-11T08:53:35.999Z</time></trkpt><trkpt lat="45.330860063872784" lon="9.269233770714079"><ele>90.0</ele><time>2026-04-11T08:53:36.999Z</time></trkpt><trkpt lat="45.33078516413565" lon="9.269077897655245"><ele>90.0</ele><time>2026-04-11T08:53:37.999Z</time></trkpt><trkpt lat="45.330693684073346" lon="9.26892945342714"><ele>90.0</ele><time>2026-04-11T08:53:38.999Z</time></trkpt><trkpt lat="45.33058568574134" lon="9.268794931696426"><ele>90.0</ele><time>2026-04-11T08:53:39.999Z</time></trkpt><trkpt lat="45.330481116590526" lon="9.268656639626666"><ele>90.0</ele><time>2026-04-11T08:53:40.999Z</time></trkpt><trkpt lat="45.33037826354359" lon="9.268512387217353"><ele>90.0</ele><time>2026-04-11T08:53:41.999Z</time></trkpt><trkpt lat="45.330272208919844" lon="9.268389404458048"><ele>90.0</ele><time>2026-04-11T08:53:42.999Z</time></trkpt><trkpt lat="45.330184888832044" lon="9.268284197777763"><ele>90.0</ele><time>2026-04-11T08:53:43.999Z</time></trkpt><trkpt lat="45.33010120534922" lon="9.268177664822208"><ele>89.75</ele><time>2026-04-11T08:53:44.999Z</time></trkpt><trkpt lat="45.33000982769108" lon="9.268062388422035"><ele>89.5</ele><time>2026-04-11T08:53:45.999Z</time></trkpt><trkpt lat="45.32991846090852" lon="9.26793912308725"><ele>89.25</ele><time>2026-04-11T08:53:46.999Z</time></trkpt><trkpt lat="45.32982427582506" lon="9.267804644721469"><ele>89.0</ele><time>2026-04-11T08:53:47.999Z</time></trkpt><trkpt lat="45.329725253503746" lon="9.267665705281646"><ele>89.0</ele><time>2026-04-11T08:53:48.999Z</time></trkpt><trkpt lat="45.32961576107964" lon="9.267529379818749"><ele>89.0</ele><time>2026-04-11T08:53:49.999Z</time></trkpt><trkpt lat="45.329502843873264" lon="9.267393111923463"><ele>89.0</ele><time>2026-04-11T08:53:50.999Z</time></trkpt><trkpt lat="45.32940856460711" lon="9.267274811870646"><ele>89.0</ele><time>2026-04-11T08:53:51.999Z</time></trkpt><trkpt lat="45.329326379575974" lon="9.267182915655345"><ele>89.0</ele><time>2026-04-11T08:53:52.999Z</time></trkpt><trkpt lat="45.32926264214259" lon="9.267112577329641"><ele>89.0</ele><time>2026-04-11T08:53:53.999Z</time></trkpt><trkpt lat="45.32921553275537" lon="9.267046108175505"><ele>89.0</ele><time>2026-04-11T08:53:54.999Z</time></trkpt><trkpt lat="45.32915750478733" lon="9.266884259455509"><ele>89.0</ele><time>2026-04-11T08:53:56.998Z</time></trkpt><trkpt lat="45.329141676200344" lon="9.266773083257625"><ele>89.0</ele><time>2026-04-11T08:53:57.998Z</time></trkpt><trkpt lat="45.32914052258623" lon="9.266645948177153"><ele>89.0</ele><time>2026-04-11T08:53:58.998Z</time></trkpt><trkpt lat="45.32914417885084" lon="9.266489471566674"><ele>89.0</ele><time>2026-04-11T08:53:59.998Z</time></trkpt><trkpt lat="45.32915173960529" lon="9.266325576788185"><ele>89.0</ele><time>2026-04-11T08:54:00.998Z</time></trkpt><trkpt lat="45.329159601297185" lon="9.266153848095941"><ele>89.0</ele><time>2026-04-11T08:54:01.998Z</time></trkpt><trkpt lat="45.32917125973703" lon="9.265950530856607"><ele>89.0</ele><time>2026-04-11T08:54:03Z</time></trkpt><trkpt lat="45.32918101494861" lon="9.265747888633964"><ele>88.80000000000001</ele><time>2026-04-11T08:54:04Z</time></trkpt><trkpt lat="45.329201719956416" lon="9.265560009854008"><ele>88.60000000000001</ele><time>2026-04-11T08:54:05Z</time></trkpt><trkpt lat="45.32921386237325" lon="9.265412968807272"><ele>88.4</ele><time>2026-04-11T08:54:06Z</time></trkpt><trkpt lat="45.3292174008897" lon="9.26528801163465"><ele>88.2</ele><time>2026-04-11T08:54:07Z</time></trkpt><trkpt lat="45.32921812374832" lon="9.26516410956479"><ele>88.0</ele><time>2026-04-11T08:54:08Z</time></trkpt><trkpt lat="45.32919722179862" lon="9.265038197188447"><ele>88.0</ele><time>2026-04-11T08:54:09Z</time></trkpt><trkpt lat="45.329150465531434" lon="9.264931056682245"><ele>88.0</ele><time>2026-04-11T08:54:10Z</time></trkpt><trkpt lat="45.32908286811224" lon="9.264816734214351"><ele>88.0</ele><time>2026-04-11T08:54:11Z</time></trkpt><trkpt lat="45.32900662984009" lon="9.26470365003371"><ele>88.0</ele><time>2026-04-11T08:54:12Z</time></trkpt><trkpt lat="45.32892524711118" lon="9.264581959442069"><ele>88.0</ele><time>2026-04-11T08:54:13Z</time></trkpt><trkpt lat="45.32883774210154" lon="9.264441131534522"><ele>88.25</ele><time>2026-04-11T08:54:14Z</time></trkpt><trkpt lat="45.328746134048544" lon="9.264284080257646"><ele>88.5</ele><time>2026-04-11T08:54:15Z</time></trkpt><trkpt lat="45.328654941967685" lon="9.26412919960748"><ele>88.75</ele><time>2026-04-11T08:54:16Z</time></trkpt><trkpt lat="45.328559967343345" lon="9.263980618186393"><ele>89.0</ele><time>2026-04-11T08:54:17Z</time></trkpt><trkpt lat="45.32848117518205" lon="9.263840131357716"><ele>89.16666666666667</ele><time>2026-04-11T08:54:18Z</time></trkpt><trkpt lat="45.32841267410021" lon="9.26372931862567"><ele>89.33333333333334</ele><time>2026-04-11T08:54:19Z</time></trkpt><trkpt lat="45.32835399179304" lon="9.26363088553916"><ele>89.5</ele><time>2026-04-11T08:54:20Z</time></trkpt><trkpt lat="45.3283070819658" lon="9.263535122196059"><ele>89.66666666666667</ele><time>2026-04-11T08:54:21Z</time></trkpt><trkpt lat="45.32827725590994" lon="9.263439514856245"><ele>89.83333333333333</ele><time>2026-04-11T08:54:22Z</time></trkpt><trkpt lat="45.32825441641757" lon="9.263309218109985"><ele>90.0</ele><time>2026-04-11T08:54:23Z</time></trkpt><trkpt lat="45.32825253478695" lon="9.26316914521904"><ele>89.8</ele><time>2026-04-11T08:54:24Z</time></trkpt><trkpt lat="45.32825600322964" lon="9.262998945738794"><ele>89.6</ele><time>2026-04-11T08:54:25Z</time></trkpt><trkpt lat="45.32826260352493" lon="9.262875401108404"><ele>89.4</ele><time>2026-04-11T08:54:26Z</time></trkpt><trkpt lat="45.32825229581748" lon="9.262740063262559"><ele>89.2</ele><time>2026-04-11T08:54:27Z</time></trkpt><trkpt lat="45.32822003650984" lon="9.262586741389326"><ele>89.0</ele><time>2026-04-11T08:54:28Z</time></trkpt><trkpt lat="45.32816007269923" lon="9.262432203340353"><ele>89.0</ele><time>2026-04-11T08:54:29Z</time></trkpt><trkpt lat="45.328079970083834" lon="9.262294012629395"><ele>89.0</ele><time>2026-04-11T08:54:30Z</time></trkpt><trkpt lat="45.32799118527876" lon="9.262166717391846"><ele>89.0</ele><time>2026-04-11T08:54:31Z</time></trkpt><trkpt lat="45.32791544069" lon="9.262045734935185"><ele>89.0</ele><time>2026-04-11T08:54:32Z</time></trkpt><trkpt lat="45.3278294483655" lon="9.261913022549582"><ele>89.25</ele><time>2026-04-11T08:54:33Z</time></trkpt><trkpt lat="45.32773638302695" lon="9.261766841207937"><ele>89.5</ele><time>2026-04-11T08:54:34Z</time></trkpt><trkpt lat="45.32764758854694" lon="9.261624524493861"><ele>89.75</ele><time>2026-04-11T08:54:35Z</time></trkpt><trkpt lat="45.3275546684792" lon="9.261477501507517"><ele>90.0</ele><time>2026-04-11T08:54:36Z</time></trkpt><trkpt lat="45.327461098131685" lon="9.261324834115003"><ele>90.25</ele><time>2026-04-11T08:54:37Z</time></trkpt><trkpt lat="45.32736702744785" lon="9.261174651633613"><ele>90.5</ele><time>2026-04-11T08:54:38Z</time></trkpt><trkpt lat="45.32727964815213" lon="9.261035093328317"><ele>90.75</ele><time>2026-04-11T08:54:39Z</time></trkpt><trkpt lat="45.327202908936016" lon="9.260903280095347"><ele>91.0</ele><time>2026-04-11T08:54:40Z</time></trkpt><trkpt lat="45.32712515699696" lon="9.260772359916015"><ele>90.6</ele><time>2026-04-11T08:54:41Z</time></trkpt><trkpt lat="45.32705704452422" lon="9.260651678837926"><ele>90.19999999999999</ele><time>2026-04-11T08:54:42Z</time></trkpt><trkpt lat="45.32699524444992" lon="9.260549250511747"><ele>89.80000000000001</ele><time>2026-04-11T08:54:43Z</time></trkpt><trkpt lat="45.326943850569705" lon="9.26046174995923"><ele>89.4</ele><time>2026-04-11T08:54:43.999Z</time></trkpt><trkpt lat="45.32689108917567" lon="9.260379842786238"><ele>89.0</ele><time>2026-04-11T08:54:44.999Z</time></trkpt><trkpt lat="45.32683111413081" lon="9.260282719856574"><ele>89.0</ele><time>2026-04-11T08:54:45.999Z</time></trkpt><trkpt lat="45.32677352603112" lon="9.260172175420944"><ele>89.0</ele><time>2026-04-11T08:54:46.999Z</time></trkpt><trkpt lat="45.326712987133824" lon="9.260075951396807"><ele>89.0</ele><time>2026-04-11T08:54:47.999Z</time></trkpt><trkpt lat="45.326655547668686" lon="9.259984947758554"><ele>89.0</ele><time>2026-04-11T08:54:48.999Z</time></trkpt><trkpt lat="45.32661096339005" lon="9.25990213081301"><ele>89.0</ele><time>2026-04-11T08:54:49.999Z</time></trkpt><trkpt lat="45.32657052792342" lon="9.259831668391543"><ele>89.0</ele><time>2026-04-11T08:54:50.999Z</time></trkpt><trkpt lat="45.326482589582255" lon="9.259738467906407"><ele>89.16666666666667</ele><time>2026-04-11T08:54:52.999Z</time></trkpt><trkpt lat="45.32637783192628" lon="9.259745433476251"><ele>89.33333333333334</ele><time>2026-04-11T08:54:54.999Z</time></trkpt><trkpt lat="45.32631400271721" lon="9.259802072834793"><ele>89.5</ele><time>2026-04-11T08:54:55.999Z</time></trkpt><trkpt lat="45.32624860009618" lon="9.2598673995295"><ele>89.66666666666667</ele><time>2026-04-11T08:54:56.999Z</time></trkpt><trkpt lat="45.32616657153253" lon="9.259931518350253"><ele>89.83333333333333</ele><time>2026-04-11T08:54:57.999Z</time></trkpt><trkpt lat="45.32608765801263" lon="9.260002332726225"><ele>90.0</ele><time>2026-04-11T08:54:58.999Z</time></trkpt><trkpt lat="45.3260134063421" lon="9.260070254357014"><ele>90.0</ele><time>2026-04-11T08:54:59.999Z</time></trkpt><trkpt lat="45.32591965992399" lon="9.260151732547396"><ele>90.0</ele><time>2026-04-11T08:55:00.999Z</time></trkpt><trkpt lat="45.325821002746316" lon="9.260234852990717"><ele>90.0</ele><time>2026-04-11T08:55:01.999Z</time></trkpt><trkpt lat="45.32572451320325" lon="9.260316176251601"><ele>90.0</ele><time>2026-04-11T08:55:02.999Z</time></trkpt><trkpt lat="45.32562332691278" lon="9.26040091307426"><ele>90.0</ele><time>2026-04-11T08:55:03.999Z</time></trkpt><trkpt lat="45.32552521023708" lon="9.260482462026678"><ele>90.0</ele><time>2026-04-11T08:55:04.999Z</time></trkpt><trkpt lat="45.325427009826285" lon="9.260566618185603"><ele>90.0</ele><time>2026-04-11T08:55:05.999Z</time></trkpt><trkpt lat="45.32533581038747" lon="9.260646062370476"><ele>90.0</ele><time>2026-04-11T08:55:06.999Z</time></trkpt><trkpt lat="45.32524021282689" lon="9.260740410497844"><ele>89.83333333333333</ele><time>2026-04-11T08:55:07.999Z</time></trkpt><trkpt lat="45.32515306930739" lon="9.26082557472962"><ele>89.66666666666667</ele><time>2026-04-11T08:55:08.999Z</time></trkpt><trkpt lat="45.32507208835925" lon="9.260891544880382"><ele>89.5</ele><time>2026-04-11T08:55:09.999Z</time></trkpt><trkpt lat="45.325002655380906" lon="9.260950827382745"><ele>89.33333333333334</ele><time>2026-04-11T08:55:10.999Z</time></trkpt><trkpt lat="45.32493623884338" lon="9.261003968848767"><ele>89.16666666666667</ele><time>2026-04-11T08:55:11.999Z</time></trkpt><trkpt lat="45.324881890001535" lon="9.261054890089506"><ele>89.0</ele><time>2026-04-11T08:55:12.999Z</time></trkpt><trkpt lat="45.32476314048924" lon="9.26109415176255"><ele>89.0</ele><time>2026-04-11T08:55:14.999Z</time></trkpt><trkpt lat="45.32470534367568" lon="9.261048535227344"><ele>89.0</ele><time>2026-04-11T08:55:15.999Z</time></trkpt><trkpt lat="45.324647981430765" lon="9.260968600154383"><ele>89.0</ele><time>2026-04-11T08:55:16.999Z</time></trkpt><trkpt lat="45.324610310526566" lon="9.26086586269843"><ele>89.0</ele><time>2026-04-11T08:55:17.999Z</time></trkpt><trkpt lat="45.32455988246918" lon="9.260729122936596"><ele>89.0</ele><time>2026-04-11T08:55:18.999Z</time></trkpt><trkpt lat="45.32450536039494" lon="9.260588414041719"><ele>89.0</ele><time>2026-04-11T08:55:19.999Z</time></trkpt><trkpt lat="45.32444444929137" lon="9.260450700923391"><ele>89.2</ele><time>2026-04-11T08:55:20.999Z</time></trkpt><trkpt lat="45.324391221168014" lon="9.260326252899155"><ele>89.4</ele><time>2026-04-11T08:55:21.999Z</time></trkpt><trkpt lat="45.32433569528238" lon="9.2601948311637"><ele>89.6</ele><time>2026-04-11T08:55:22.999Z</time></trkpt><trkpt lat="45.3242765649515" lon="9.260053924071899"><ele>89.8</ele><time>2026-04-11T08:55:23.999Z</time></trkpt><trkpt lat="45.32419964935727" lon="9.259919238036998"><ele>90.0</ele><time>2026-04-11T08:55:24.999Z</time></trkpt><trkpt lat="45.32410908638367" lon="9.259816107457354"><ele>90.0</ele><time>2026-04-11T08:55:25.999Z</time></trkpt><trkpt lat="45.324017484851154" lon="9.259731444161211"><ele>90.0</ele><time>2026-04-11T08:55:26.999Z</time></trkpt><trkpt lat="45.32394648672178" lon="9.259631043458558"><ele>90.0</ele><time>2026-04-11T08:55:27.999Z</time></trkpt><trkpt lat="45.32387772211053" lon="9.259491364696007"><ele>90.0</ele><time>2026-04-11T08:55:28.999Z</time></trkpt><trkpt lat="45.32381287372552" lon="9.25935085490038"><ele>90.0</ele><time>2026-04-11T08:55:29.999Z</time></trkpt><trkpt lat="45.32372696807076" lon="9.259201456987611"><ele>90.5</ele><time>2026-04-11T08:55:30.999Z</time></trkpt><trkpt lat="45.32364222268591" lon="9.259049512725658"><ele>91.0</ele><time>2026-04-11T08:55:31.999Z</time></trkpt><trkpt lat="45.32356725055971" lon="9.258922725604275"><ele>91.5</ele><time>2026-04-11T08:55:32.999Z</time></trkpt><trkpt lat="45.323503771176895" lon="9.258822594319282"><ele>92.0</ele><time>2026-04-11T08:55:33.999Z</time></trkpt><trkpt lat="45.3234205395739" lon="9.25871373013324"><ele>92.0</ele><time>2026-04-11T08:55:34.999Z</time></trkpt><trkpt lat="45.323340953219095" lon="9.258614748044934"><ele>92.0</ele><time>2026-04-11T08:55:35.999Z</time></trkpt><trkpt lat="45.323277981836256" lon="9.258539147281084"><ele>92.0</ele><time>2026-04-11T08:55:36.999Z</time></trkpt><trkpt lat="45.32323497868466" lon="9.258469535986936"><ele>92.0</ele><time>2026-04-11T08:55:37.999Z</time></trkpt><trkpt lat="45.323200179915005" lon="9.258388066908013"><ele>92.0</ele><time>2026-04-11T08:55:38.999Z</time></trkpt><trkpt lat="45.32316873628881" lon="9.258286138342514"><ele>92.0</ele><time>2026-04-11T08:55:39.999Z</time></trkpt><trkpt lat="45.323137548046155" lon="9.258175550952654"><ele>91.5</ele><time>2026-04-11T08:55:40.999Z</time></trkpt><trkpt lat="45.3231156517004" lon="9.258058936149046"><ele>91.0</ele><time>2026-04-11T08:55:41.999Z</time></trkpt><trkpt lat="45.32309168874193" lon="9.25794555087417"><ele>90.5</ele><time>2026-04-11T08:55:42.999Z</time></trkpt><trkpt lat="45.32306408734148" lon="9.257844327055036"><ele>90.0</ele><time>2026-04-11T08:55:43.999Z</time></trkpt><trkpt lat="45.323040640144896" lon="9.257759462883385"><ele>89.5</ele><time>2026-04-11T08:55:44.999Z</time></trkpt><trkpt lat="45.32300540860849" lon="9.257606838044351"><ele>89.0</ele><time>2026-04-11T08:55:46.999Z</time></trkpt><trkpt lat="45.322966211229875" lon="9.257449320478496"><ele>88.80000000000001</ele><time>2026-04-11T08:55:48.999Z</time></trkpt><trkpt lat="45.32291888822201" lon="9.257292562572447"><ele>88.60000000000001</ele><time>2026-04-11T08:55:50.998Z</time></trkpt><trkpt lat="45.32287037775468" lon="9.257148366853198"><ele>88.4</ele><time>2026-04-11T08:55:52.998Z</time></trkpt><trkpt lat="45.32281625357734" lon="9.257020862518548"><ele>88.2</ele><time>2026-04-11T08:55:54.998Z</time></trkpt><trkpt lat="45.32277327440759" lon="9.256948314416945"><ele>88.0</ele><time>2026-04-11T08:55:56.998Z</time></trkpt><trkpt lat="45.322760083130035" lon="9.25684712689705"><ele>88.0</ele><time>2026-04-11T08:55:59.998Z</time></trkpt><trkpt lat="45.322693415131766" lon="9.256699043519564"><ele>88.0</ele><time>2026-04-11T09:02:24.998Z</time></trkpt><trkpt lat="45.322646469414956" lon="9.25659774134807"><ele>88.0</ele><time>2026-04-11T09:02:26.001Z</time></trkpt><trkpt lat="45.32259475780254" lon="9.256481667929163"><ele>88.0</ele><time>2026-04-11T09:02:27.001Z</time></trkpt><trkpt lat="45.32255193985269" lon="9.256373592907142"><ele>88.0</ele><time>2026-04-11T09:02:28Z</time></trkpt><trkpt lat="45.322516360409665" lon="9.256280274063265"><ele>88.0</ele><time>2026-04-11T09:02:29Z</time></trkpt><trkpt lat="45.322457200503045" lon="9.256144079468365"><ele>88.0</ele><time>2026-04-11T09:02:31Z</time></trkpt><trkpt lat="45.322424531747515" lon="9.256065987597164"><ele>88.0</ele><time>2026-04-11T09:02:32Z</time></trkpt><trkpt lat="45.3223904231626" lon="9.25597708551019"><ele>88.0</ele><time>2026-04-11T09:02:33Z</time></trkpt><trkpt lat="45.32235951392833" lon="9.255895924988442"><ele>88.0</ele><time>2026-04-11T09:02:34Z</time></trkpt><trkpt lat="45.32232501649981" lon="9.25578858239144"><ele>88.0</ele><time>2026-04-11T09:02:35Z</time></trkpt><trkpt lat="45.32230212520686" lon="9.255667522551809"><ele>88.0</ele><time>2026-04-11T09:02:36Z</time></trkpt><trkpt lat="45.32227898040209" lon="9.255537433707241"><ele>88.0</ele><time>2026-04-11T09:02:37Z</time></trkpt><trkpt lat="45.32226779217605" lon="9.255419860639835"><ele>88.0</ele><time>2026-04-11T09:02:38Z</time></trkpt><trkpt lat="45.32225492130739" lon="9.255266897760347"><ele>88.0</ele><time>2026-04-11T09:02:40Z</time></trkpt><trkpt lat="45.3222369308898" lon="9.25513986467002"><ele>88.0</ele><time>2026-04-11T09:02:42Z</time></trkpt><trkpt lat="45.32216247536399" lon="9.25509370790404"><ele>88.4</ele><time>2026-04-11T09:02:44Z</time></trkpt><trkpt lat="45.32204930640174" lon="9.2551617400373"><ele>88.80000000000001</ele><time>2026-04-11T09:02:46Z</time></trkpt><trkpt lat="45.32199364216642" lon="9.255232297904321"><ele>89.2</ele><time>2026-04-11T09:02:47Z</time></trkpt><trkpt lat="45.3219355914644" lon="9.255298899806949"><ele>89.6</ele><time>2026-04-11T09:02:48Z</time></trkpt><trkpt lat="45.321867390484606" lon="9.255364039824801"><ele>90.0</ele><time>2026-04-11T09:02:49Z</time></trkpt><trkpt lat="45.32178325659093" lon="9.255431839372983"><ele>90.0</ele><time>2026-04-11T09:02:50Z</time></trkpt><trkpt lat="45.3217054420369" lon="9.255494967255315"><ele>90.0</ele><time>2026-04-11T09:02:51Z</time></trkpt><trkpt lat="45.32162351191343" lon="9.255561655500628"><ele>90.0</ele><time>2026-04-11T09:02:52Z</time></trkpt><trkpt lat="45.32154255204272" lon="9.255631195772594"><ele>90.0</ele><time>2026-04-11T09:02:53Z</time></trkpt><trkpt lat="45.32145562099241" lon="9.255698250942775"><ele>90.0</ele><time>2026-04-11T09:02:54Z</time></trkpt><trkpt lat="45.32136385436622" lon="9.255769948044895"><ele>89.6</ele><time>2026-04-11T09:02:55Z</time></trkpt><trkpt lat="45.321259340272555" lon="9.255844556045128"><ele>89.2</ele><time>2026-04-11T09:02:56Z</time></trkpt><trkpt lat="45.32117116810133" lon="9.255916619435979"><ele>88.80000000000001</ele><time>2026-04-11T09:02:57Z</time></trkpt><trkpt lat="45.321090909176625" lon="9.2559828568731"><ele>88.4</ele><time>2026-04-11T09:02:58Z</time></trkpt><trkpt lat="45.32100826545276" lon="9.256049743931774"><ele>88.0</ele><time>2026-04-11T09:02:59Z</time></trkpt><trkpt lat="45.32091597796729" lon="9.256114213175229"><ele>88.0</ele><time>2026-04-11T09:03:00Z</time></trkpt><trkpt lat="45.32079145167136" lon="9.256224842471308"><ele>88.0</ele><time>2026-04-11T09:03:02Z</time></trkpt><trkpt lat="45.32070842124514" lon="9.256291704391206"><ele>88.0</ele><time>2026-04-11T09:03:03Z</time></trkpt><trkpt lat="45.32062589434824" lon="9.256354621215598"><ele>88.0</ele><time>2026-04-11T09:03:04Z</time></trkpt><trkpt lat="45.320540289264194" lon="9.256421060434223"><ele>88.0</ele><time>2026-04-11T09:03:05Z</time></trkpt><trkpt lat="45.32045879708707" lon="9.256493418992823"><ele>88.2</ele><time>2026-04-11T09:03:06Z</time></trkpt><trkpt lat="45.320376196550455" lon="9.25656589709909"><ele>88.4</ele><time>2026-04-11T09:03:07Z</time></trkpt><trkpt lat="45.32030039698318" lon="9.256635515350158"><ele>88.60000000000001</ele><time>2026-04-11T09:03:08Z</time></trkpt><trkpt lat="45.320225848987995" lon="9.256702713613794"><ele>88.80000000000001</ele><time>2026-04-11T09:03:09Z</time></trkpt><trkpt lat="45.32014592652276" lon="9.256765283960135"><ele>89.0</ele><time>2026-04-11T09:03:10Z</time></trkpt><trkpt lat="45.320064185941945" lon="9.256831780908817"><ele>89.0</ele><time>2026-04-11T09:03:11Z</time></trkpt><trkpt lat="45.319977380409036" lon="9.256897937686087"><ele>89.0</ele><time>2026-04-11T09:03:12Z</time></trkpt><trkpt lat="45.31989442370796" lon="9.25696007480325"><ele>89.0</ele><time>2026-04-11T09:03:13Z</time></trkpt><trkpt lat="45.31981880617842" lon="9.257013742219058"><ele>89.0</ele><time>2026-04-11T09:03:14Z</time></trkpt><trkpt lat="45.319748285646305" lon="9.25707538272262"><ele>89.0</ele><time>2026-04-11T09:03:15Z</time></trkpt><trkpt lat="45.31967590679983" lon="9.25713408756073"><ele>89.0</ele><time>2026-04-11T09:03:15.999Z</time></trkpt><trkpt lat="45.31960137826904" lon="9.257195919642225"><ele>89.0</ele><time>2026-04-11T09:03:16.999Z</time></trkpt><trkpt lat="45.31951814759489" lon="9.257261994338302"><ele>89.0</ele><time>2026-04-11T09:03:17.999Z</time></trkpt><trkpt lat="45.31943088514487" lon="9.25732782117852"><ele>89.0</ele><time>2026-04-11T09:03:18.999Z</time></trkpt><trkpt lat="45.31934429440214" lon="9.257394847691948"><ele>89.0</ele><time>2026-04-11T09:03:19.999Z</time></trkpt><trkpt lat="45.31925968869872" lon="9.257459000540875"><ele>89.0</ele><time>2026-04-11T09:03:20.999Z</time></trkpt><trkpt lat="45.319177810381696" lon="9.257520466223948"><ele>88.83333333333334</ele><time>2026-04-11T09:03:21.999Z</time></trkpt><trkpt lat="45.31910698973301" lon="9.257583164537676"><ele>88.66666666666667</ele><time>2026-04-11T09:03:22.999Z</time></trkpt><trkpt lat="45.31904056154723" lon="9.25763806591789"><ele>88.5</ele><time>2026-04-11T09:03:23.999Z</time></trkpt><trkpt lat="45.318969970096894" lon="9.25769411974061"><ele>88.33333333333333</ele><time>2026-04-11T09:03:24.999Z</time></trkpt><trkpt lat="45.31890001628092" lon="9.257750823274732"><ele>88.16666666666666</ele><time>2026-04-11T09:03:25.999Z</time></trkpt><trkpt lat="45.31883401923501" lon="9.2578024876741"><ele>88.0</ele><time>2026-04-11T09:03:26.999Z</time></trkpt><trkpt lat="45.31876708403894" lon="9.257862893851659"><ele>88.0</ele><time>2026-04-11T09:03:27.999Z</time></trkpt><trkpt lat="45.31870044238763" lon="9.257918424858653"><ele>88.0</ele><time>2026-04-11T09:03:28.999Z</time></trkpt><trkpt lat="45.31863414040063" lon="9.257965800416633"><ele>88.0</ele><time>2026-04-11T09:03:29.999Z</time></trkpt><trkpt lat="45.31856977522063" lon="9.258022466852125"><ele>88.0</ele><time>2026-04-11T09:03:30.999Z</time></trkpt><trkpt lat="45.31850333809613" lon="9.258074942210387"><ele>88.0</ele><time>2026-04-11T09:03:31.999Z</time></trkpt><trkpt lat="45.31843944778255" lon="9.258131070441081"><ele>88.0</ele><time>2026-04-11T09:03:32.999Z</time></trkpt><trkpt lat="45.31837675550136" lon="9.258184069849678"><ele>88.0</ele><time>2026-04-11T09:03:33.999Z</time></trkpt><trkpt lat="45.31831132062336" lon="9.258231809635317"><ele>88.0</ele><time>2026-04-11T09:03:34.999Z</time></trkpt><trkpt lat="45.31824917940718" lon="9.258281835333865"><ele>88.0</ele><time>2026-04-11T09:03:35.999Z</time></trkpt><trkpt lat="45.318183947146906" lon="9.258338217402645"><ele>88.0</ele><time>2026-04-11T09:03:36.999Z</time></trkpt><trkpt lat="45.318119193695175" lon="9.258388951883846"><ele>88.0</ele><time>2026-04-11T09:03:37.999Z</time></trkpt><trkpt lat="45.3180564755011" lon="9.258444735218642"><ele>88.0</ele><time>2026-04-11T09:03:38.999Z</time></trkpt><trkpt lat="45.31799034828453" lon="9.258500799076948"><ele>88.0</ele><time>2026-04-11T09:03:39.999Z</time></trkpt><trkpt lat="45.31792447640947" lon="9.258551152318093"><ele>87.83333333333333</ele><time>2026-04-11T09:03:40.999Z</time></trkpt><trkpt lat="45.31786229739183" lon="9.258604045036195"><ele>87.66666666666666</ele><time>2026-04-11T09:03:41.999Z</time></trkpt><trkpt lat="45.317791806913455" lon="9.258658792837128"><ele>87.5</ele><time>2026-04-11T09:03:42.999Z</time></trkpt><trkpt lat="45.31772497278912" lon="9.25871722514841"><ele>87.33333333333333</ele><time>2026-04-11T09:03:43.999Z</time></trkpt><trkpt lat="45.317659000231295" lon="9.258772864369451"><ele>87.16666666666667</ele><time>2026-04-11T09:03:44.999Z</time></trkpt><trkpt lat="45.31759294214819" lon="9.258829051402556"><ele>87.0</ele><time>2026-04-11T09:03:45.999Z</time></trkpt><trkpt lat="45.317524151983875" lon="9.258885016840132"><ele>87.0</ele><time>2026-04-11T09:03:46.999Z</time></trkpt><trkpt lat="45.3174502495952" lon="9.258942654768019"><ele>87.0</ele><time>2026-04-11T09:03:47.999Z</time></trkpt><trkpt lat="45.31736981827016" lon="9.259004588365888"><ele>87.0</ele><time>2026-04-11T09:03:48.999Z</time></trkpt><trkpt lat="45.31728711714959" lon="9.259074337374145"><ele>87.0</ele><time>2026-04-11T09:03:49.999Z</time></trkpt><trkpt lat="45.31720565744472" lon="9.25914020445277"><ele>87.0</ele><time>2026-04-11T09:03:50.999Z</time></trkpt><trkpt lat="45.31712568341133" lon="9.259209149222992"><ele>87.0</ele><time>2026-04-11T09:03:51.999Z</time></trkpt><trkpt lat="45.31704735347459" lon="9.259271491362425"><ele>87.0</ele><time>2026-04-11T09:03:52.999Z</time></trkpt><trkpt lat="45.31696742226762" lon="9.259343734631459"><ele>87.0</ele><time>2026-04-11T09:03:53.999Z</time></trkpt><trkpt lat="45.31688887634007" lon="9.259402466749592"><ele>87.0</ele><time>2026-04-11T09:03:54.999Z</time></trkpt><trkpt lat="45.31681149286496" lon="9.259473390286129"><ele>87.0</ele><time>2026-04-11T09:03:55.999Z</time></trkpt><trkpt lat="45.316731884129645" lon="9.259544794621357"><ele>87.0</ele><time>2026-04-11T09:03:56.999Z</time></trkpt><trkpt lat="45.316649052147476" lon="9.259609586357499"><ele>87.0</ele><time>2026-04-11T09:03:57.999Z</time></trkpt><trkpt lat="45.31657136702512" lon="9.259668233464014"><ele>87.0</ele><time>2026-04-11T09:03:58.999Z</time></trkpt><trkpt lat="45.31649938474137" lon="9.259729835198206"><ele>87.0</ele><time>2026-04-11T09:03:59.999Z</time></trkpt><trkpt lat="45.31642862078333" lon="9.259791822084306"><ele>87.0</ele><time>2026-04-11T09:04:00.999Z</time></trkpt><trkpt lat="45.31636375025911" lon="9.259840207218684"><ele>87.0</ele><time>2026-04-11T09:04:01.999Z</time></trkpt><trkpt lat="45.3162843546707" lon="9.259908002577452"><ele>87.0</ele><time>2026-04-11T09:04:03.999Z</time></trkpt><trkpt lat="45.31625397859477" lon="9.260012173683469"><ele>87.0</ele><time>2026-04-11T09:04:05.999Z</time></trkpt><trkpt lat="45.31627543837387" lon="9.260115828722697"><ele>87.0</ele><time>2026-04-11T09:04:06.999Z</time></trkpt><trkpt lat="45.31632295581666" lon="9.260229067660397"><ele>87.0</ele><time>2026-04-11T09:04:07.999Z</time></trkpt><trkpt lat="45.3163807436071" lon="9.260370636690666"><ele>87.0</ele><time>2026-04-11T09:04:08.999Z</time></trkpt><trkpt lat="45.31643204869565" lon="9.26051119202632"><ele>87.25</ele><time>2026-04-11T09:04:09.998Z</time></trkpt><trkpt lat="45.316481001203364" lon="9.26064229121672"><ele>87.5</ele><time>2026-04-11T09:04:10.998Z</time></trkpt><trkpt lat="45.31653086839347" lon="9.260789773733588"><ele>87.75</ele><time>2026-04-11T09:04:11.998Z</time></trkpt><trkpt lat="45.3165839981237" lon="9.260949113479738"><ele>88.0</ele><time>2026-04-11T09:04:12.998Z</time></trkpt><trkpt lat="45.31664370003506" lon="9.261110652154668"><ele>88.0</ele><time>2026-04-11T09:04:13.998Z</time></trkpt><trkpt lat="45.31670601691046" lon="9.261277418729193"><ele>88.0</ele><time>2026-04-11T09:04:14.998Z</time></trkpt><trkpt lat="45.316768342415806" lon="9.261450916951809"><ele>88.0</ele><time>2026-04-11T09:04:15.998Z</time></trkpt><trkpt lat="45.31683144459495" lon="9.261626005616098"><ele>88.0</ele><time>2026-04-11T09:04:16.998Z</time></trkpt><trkpt lat="45.31689081828432" lon="9.26180189734125"><ele>88.25</ele><time>2026-04-11T09:04:17.998Z</time></trkpt><trkpt lat="45.31695005230541" lon="9.261977562561917"><ele>88.5</ele><time>2026-04-11T09:04:18.998Z</time></trkpt><trkpt lat="45.31700578935689" lon="9.262149854911934"><ele>88.75</ele><time>2026-04-11T09:04:19.998Z</time></trkpt><trkpt lat="45.31705814938861" lon="9.262303605198722"><ele>89.0</ele><time>2026-04-11T09:04:20.998Z</time></trkpt><trkpt lat="45.31711741610954" lon="9.262443029289908"><ele>89.2</ele><time>2026-04-11T09:04:21.998Z</time></trkpt><trkpt lat="45.31717465282924" lon="9.262582068440038"><ele>89.4</ele><time>2026-04-11T09:04:22.998Z</time></trkpt><trkpt lat="45.31721844780457" lon="9.26271895847598"><ele>89.6</ele><time>2026-04-11T09:04:23.998Z</time></trkpt><trkpt lat="45.317261464650834" lon="9.262842494912217"><ele>89.8</ele><time>2026-04-11T09:04:24.998Z</time></trkpt><trkpt lat="45.31730412876093" lon="9.262953798289649"><ele>90.0</ele><time>2026-04-11T09:04:25.998Z</time></trkpt><trkpt lat="45.317331700189264" lon="9.263051437114212"><ele>89.8</ele><time>2026-04-11T09:04:26.998Z</time></trkpt><trkpt lat="45.31731297661397" lon="9.263227049078099"><ele>89.6</ele><time>2026-04-11T09:04:28.998Z</time></trkpt><trkpt lat="45.3172437038934" lon="9.26329596076514"><ele>89.4</ele><time>2026-04-11T09:04:29.998Z</time></trkpt><trkpt lat="45.317154032537445" lon="9.263348881133691"><ele>89.2</ele><time>2026-04-11T09:04:31Z</time></trkpt><trkpt lat="45.31707016375971" lon="9.263404084696308"><ele>89.0</ele><time>2026-04-11T09:04:32Z</time></trkpt><trkpt lat="45.31698926172592" lon="9.263494481935455"><ele>89.0</ele><time>2026-04-11T09:04:33Z</time></trkpt><trkpt lat="45.3168985908447" lon="9.263591322191882"><ele>89.0</ele><time>2026-04-11T09:04:34Z</time></trkpt><trkpt lat="45.316803048117016" lon="9.263678071176288"><ele>89.0</ele><time>2026-04-11T09:04:35Z</time></trkpt><trkpt lat="45.316706703316" lon="9.263770396783833"><ele>89.0</ele><time>2026-04-11T09:04:36Z</time></trkpt><trkpt lat="45.316605588037596" lon="9.263874432064327"><ele>89.0</ele><time>2026-04-11T09:04:37Z</time></trkpt><trkpt lat="45.31649475402767" lon="9.263983160508376"><ele>89.0</ele><time>2026-04-11T09:04:38Z</time></trkpt><trkpt lat="45.31637800389234" lon="9.26409832751717"><ele>89.0</ele><time>2026-04-11T09:04:39Z</time></trkpt><trkpt lat="45.31626208099155" lon="9.264209322369432"><ele>89.0</ele><time>2026-04-11T09:04:40Z</time></trkpt><trkpt lat="45.31615482329569" lon="9.264313410237483"><ele>89.0</ele><time>2026-04-11T09:04:41Z</time></trkpt><trkpt lat="45.31605218977321" lon="9.264415293741367"><ele>89.0</ele><time>2026-04-11T09:04:42Z</time></trkpt><trkpt lat="45.31595047499634" lon="9.264511143436845"><ele>89.0</ele><time>2026-04-11T09:04:43Z</time></trkpt><trkpt lat="45.31585667549829" lon="9.264601997178364"><ele>89.0</ele><time>2026-04-11T09:04:44Z</time></trkpt><trkpt lat="45.31576542957542" lon="9.264690467003813"><ele>89.0</ele><time>2026-04-11T09:04:45Z</time></trkpt><trkpt lat="45.315670239530334" lon="9.264781397183357"><ele>89.0</ele><time>2026-04-11T09:04:46Z</time></trkpt><trkpt lat="45.31558521368035" lon="9.264860917646823"><ele>89.0</ele><time>2026-04-11T09:04:47Z</time></trkpt><trkpt lat="45.31549979055083" lon="9.26494513320639"><ele>89.0</ele><time>2026-04-11T09:04:48Z</time></trkpt><trkpt lat="45.3154038852091" lon="9.265037784289719"><ele>89.0</ele><time>2026-04-11T09:04:49Z</time></trkpt><trkpt lat="45.315307150028296" lon="9.265141062398522"><ele>89.0</ele><time>2026-04-11T09:04:50Z</time></trkpt><trkpt lat="45.31520745763415" lon="9.265246209286545"><ele>89.0</ele><time>2026-04-11T09:04:51Z</time></trkpt><trkpt lat="45.315111619255106" lon="9.26534225409574"><ele>89.0</ele><time>2026-04-11T09:04:52Z</time></trkpt><trkpt lat="45.31502063451774" lon="9.26543204988622"><ele>89.0</ele><time>2026-04-11T09:04:53Z</time></trkpt><trkpt lat="45.31492694989107" lon="9.265519387219785"><ele>89.0</ele><time>2026-04-11T09:04:54Z</time></trkpt><trkpt lat="45.314837452740626" lon="9.26560612170942"><ele>89.0</ele><time>2026-04-11T09:04:55Z</time></trkpt><trkpt lat="45.314752163862686" lon="9.265689655265446"><ele>89.0</ele><time>2026-04-11T09:04:56Z</time></trkpt><trkpt lat="45.314661609270345" lon="9.265772476276311"><ele>89.0</ele><time>2026-04-11T09:04:57Z</time></trkpt><trkpt lat="45.31456865535788" lon="9.265853184144495"><ele>89.0</ele><time>2026-04-11T09:04:58Z</time></trkpt><trkpt lat="45.31447138161169" lon="9.265943730927148"><ele>88.75</ele><time>2026-04-11T09:04:59Z</time></trkpt><trkpt lat="45.314370108591504" lon="9.266047802324302"><ele>88.5</ele><time>2026-04-11T09:05:00Z</time></trkpt><trkpt lat="45.31426879758163" lon="9.266151288032878"><ele>88.25</ele><time>2026-04-11T09:05:01Z</time></trkpt><trkpt lat="45.314165357504855" lon="9.266254336569624"><ele>88.0</ele><time>2026-04-11T09:05:02Z</time></trkpt><trkpt lat="45.314069205893915" lon="9.266348235757164"><ele>88.0</ele><time>2026-04-11T09:05:03Z</time></trkpt><trkpt lat="45.3139770299739" lon="9.266428588566168"><ele>88.0</ele><time>2026-04-11T09:05:04Z</time></trkpt><trkpt lat="45.31389869136732" lon="9.26651172430612"><ele>88.0</ele><time>2026-04-11T09:05:04.999Z</time></trkpt><trkpt lat="45.31382060160464" lon="9.266584449986906"><ele>88.0</ele><time>2026-04-11T09:05:05.999Z</time></trkpt><trkpt lat="45.31375041910554" lon="9.266662331024765"><ele>88.0</ele><time>2026-04-11T09:05:06.999Z</time></trkpt><trkpt lat="45.31368057558679" lon="9.26673228861034"><ele>88.16666666666666</ele><time>2026-04-11T09:05:07.999Z</time></trkpt><trkpt lat="45.31360853012473" lon="9.266793576130928"><ele>88.33333333333333</ele><time>2026-04-11T09:05:08.999Z</time></trkpt><trkpt lat="45.313547845613115" lon="9.266854107096256"><ele>88.5</ele><time>2026-04-11T09:05:09.999Z</time></trkpt><trkpt lat="45.31349539225579" lon="9.266911143752091"><ele>88.66666666666667</ele><time>2026-04-11T09:05:10.999Z</time></trkpt><trkpt lat="45.313389011935556" lon="9.26699052338806"><ele>88.83333333333334</ele><time>2026-04-11T09:05:12.999Z</time></trkpt><trkpt lat="45.31332634477317" lon="9.266961143575429"><ele>89.0</ele><time>2026-04-11T09:05:13.999Z</time></trkpt><trkpt lat="45.31326354062233" lon="9.266879899424046"><ele>89.0</ele><time>2026-04-11T09:05:14.999Z</time></trkpt><trkpt lat="45.31321313520008" lon="9.266781215445642"><ele>89.0</ele><time>2026-04-11T09:05:15.999Z</time></trkpt><trkpt lat="45.31315143267417" lon="9.266693579872628"><ele>89.0</ele><time>2026-04-11T09:05:16.999Z</time></trkpt><trkpt lat="45.31310179442794" lon="9.266610572725167"><ele>89.0</ele><time>2026-04-11T09:05:17.999Z</time></trkpt><trkpt lat="45.3130498608673" lon="9.266541408971948"><ele>89.0</ele><time>2026-04-11T09:05:18.999Z</time></trkpt><trkpt lat="45.31298112476298" lon="9.266496999898427"><ele>89.0</ele><time>2026-04-11T09:05:19.999Z</time></trkpt><trkpt lat="45.31288390163271" lon="9.266522326953728"><ele>88.4</ele><time>2026-04-11T09:05:20.999Z</time></trkpt><trkpt lat="45.31280273840578" lon="9.266597041185422"><ele>87.80000000000001</ele><time>2026-04-11T09:05:21.999Z</time></trkpt><trkpt lat="45.31271721721954" lon="9.26669106577013"><ele>87.19999999999999</ele><time>2026-04-11T09:05:22.999Z</time></trkpt><trkpt lat="45.31262075221179" lon="9.266759268991795"><ele>86.6</ele><time>2026-04-11T09:05:23.999Z</time></trkpt><trkpt lat="45.312512471601885" lon="9.266828575412587"><ele>86.0</ele><time>2026-04-11T09:05:24.999Z</time></trkpt><trkpt lat="45.312403210328824" lon="9.266906175643134"><ele>86.0</ele><time>2026-04-11T09:05:25.999Z</time></trkpt><trkpt lat="45.31230006659223" lon="9.266979947566307"><ele>86.0</ele><time>2026-04-11T09:05:26.999Z</time></trkpt><trkpt lat="45.31219019391131" lon="9.267057260404743"><ele>86.0</ele><time>2026-04-11T09:05:27.999Z</time></trkpt><trkpt lat="45.312072976030656" lon="9.267139346484978"><ele>86.0</ele><time>2026-04-11T09:05:28.999Z</time></trkpt><trkpt lat="45.31194946691786" lon="9.267221778574447"><ele>86.5</ele><time>2026-04-11T09:05:29.999Z</time></trkpt><trkpt lat="45.3118282034299" lon="9.267309074331408"><ele>87.0</ele><time>2026-04-11T09:05:30.999Z</time></trkpt><trkpt lat="45.31170626947323" lon="9.267400466033342"><ele>87.5</ele><time>2026-04-11T09:05:31.999Z</time></trkpt><trkpt lat="45.31157590228361" lon="9.267491098919086"><ele>88.0</ele><time>2026-04-11T09:05:32.999Z</time></trkpt><trkpt lat="45.31144229744521" lon="9.267579504359992"><ele>87.75</ele><time>2026-04-11T09:05:33.999Z</time></trkpt><trkpt lat="45.311311564110014" lon="9.267670928867728"><ele>87.5</ele><time>2026-04-11T09:05:34.999Z</time></trkpt><trkpt lat="45.311179606147" lon="9.267762265778416"><ele>87.25</ele><time>2026-04-11T09:05:35.999Z</time></trkpt><trkpt lat="45.31105129000296" lon="9.267851390326127"><ele>87.0</ele><time>2026-04-11T09:05:36.999Z</time></trkpt><trkpt lat="45.310935009183105" lon="9.267934185531592"><ele>87.0</ele><time>2026-04-11T09:05:37.999Z</time></trkpt><trkpt lat="45.310819700266876" lon="9.268010214839057"><ele>87.0</ele><time>2026-04-11T09:05:38.999Z</time></trkpt><trkpt lat="45.310705692216416" lon="9.26808779623653"><ele>87.0</ele><time>2026-04-11T09:05:39.999Z</time></trkpt><trkpt lat="45.31058907089965" lon="9.268167764532068"><ele>87.0</ele><time>2026-04-11T09:05:40.999Z</time></trkpt><trkpt lat="45.3104620406728" lon="9.26824111990111"><ele>86.75</ele><time>2026-04-11T09:05:41.999Z</time></trkpt><trkpt lat="45.310347789732944" lon="9.268293050213895"><ele>86.5</ele><time>2026-04-11T09:05:42.999Z</time></trkpt><trkpt lat="45.31024533697295" lon="9.268333976434368"><ele>86.25</ele><time>2026-04-11T09:05:43.999Z</time></trkpt><trkpt lat="45.31013800607883" lon="9.26838378864327"><ele>86.0</ele><time>2026-04-11T09:05:44.999Z</time></trkpt><trkpt lat="45.3100253936635" lon="9.268429752205984"><ele>86.0</ele><time>2026-04-11T09:05:45.999Z</time></trkpt><trkpt lat="45.30991090380926" lon="9.268469535475486"><ele>86.0</ele><time>2026-04-11T09:05:46.999Z</time></trkpt><trkpt lat="45.30979391162794" lon="9.26849858221627"><ele>86.0</ele><time>2026-04-11T09:05:47.999Z</time></trkpt><trkpt lat="45.30966891778408" lon="9.26851211829281"><ele>86.0</ele><time>2026-04-11T09:05:48.999Z</time></trkpt><trkpt lat="45.309541507032414" lon="9.26849501661507"><ele>86.0</ele><time>2026-04-11T09:05:49.999Z</time></trkpt><trkpt lat="45.309417056981985" lon="9.26846104340327"><ele>86.0</ele><time>2026-04-11T09:05:50.999Z</time></trkpt><trkpt lat="45.309297330171944" lon="9.268416279874751"><ele>86.0</ele><time>2026-04-11T09:05:51.999Z</time></trkpt><trkpt lat="45.30918248649248" lon="9.268363361893597"><ele>86.0</ele><time>2026-04-11T09:05:52.999Z</time></trkpt><trkpt lat="45.30907683551345" lon="9.268310315637837"><ele>86.0</ele><time>2026-04-11T09:05:53.999Z</time></trkpt><trkpt lat="45.309001072156406" lon="9.268279119438334"><ele>86.0</ele><time>2026-04-11T09:05:54.999Z</time></trkpt><trkpt lat="45.30891219930356" lon="9.268250346106159"><ele>86.0</ele><time>2026-04-11T09:05:55.999Z</time></trkpt><trkpt lat="45.30880337438304" lon="9.26823620526596"><ele>86.0</ele><time>2026-04-11T09:05:56.999Z</time></trkpt><trkpt lat="45.308678363515796" lon="9.268240591320447"><ele>86.0</ele><time>2026-04-11T09:05:57.999Z</time></trkpt><trkpt lat="45.30854050789036" lon="9.268250799256109"><ele>86.0</ele><time>2026-04-11T09:05:58.999Z</time></trkpt><trkpt lat="45.30837820973292" lon="9.268284034578029"><ele>86.0</ele><time>2026-04-11T09:05:59.999Z</time></trkpt><trkpt lat="45.30824727615792" lon="9.268317054258048"><ele>86.0</ele><time>2026-04-11T09:06:00.999Z</time></trkpt><trkpt lat="45.308130997916564" lon="9.268345204914338"><ele>86.0</ele><time>2026-04-11T09:06:01.999Z</time></trkpt><trkpt lat="45.308050552234285" lon="9.268386253965621"><ele>86.0</ele><time>2026-04-11T09:06:02.998Z</time></trkpt><trkpt lat="45.30798020287391" lon="9.268415773586566"><ele>86.0</ele><time>2026-04-11T09:06:03.998Z</time></trkpt><trkpt lat="45.307902811088184" lon="9.268404784637482"><ele>86.0</ele><time>2026-04-11T09:06:05.998Z</time></trkpt><trkpt lat="45.30782891539493" lon="9.268379697319864"><ele>86.0</ele><time>2026-04-11T09:06:07.998Z</time></trkpt><trkpt lat="45.307757100964416" lon="9.268313902800232"><ele>86.0</ele><time>2026-04-11T09:06:08.998Z</time></trkpt><trkpt lat="45.30767842970864" lon="9.268265862881293"><ele>86.0</ele><time>2026-04-11T09:06:09.998Z</time></trkpt><trkpt lat="45.30759335903279" lon="9.268237295811678"><ele>86.0</ele><time>2026-04-11T09:06:10.998Z</time></trkpt><trkpt lat="45.3074977072886" lon="9.268181478051451"><ele>86.0</ele><time>2026-04-11T09:06:11.998Z</time></trkpt><trkpt lat="45.30739945186516" lon="9.268091060167329"><ele>86.0</ele><time>2026-04-11T09:06:12.998Z</time></trkpt><trkpt lat="45.307305951915765" lon="9.267970122072033"><ele>86.0</ele><time>2026-04-11T09:06:13.998Z</time></trkpt><trkpt lat="45.30723513318181" lon="9.267841619682253"><ele>86.0</ele><time>2026-04-11T09:06:14.998Z</time></trkpt><trkpt lat="45.307156916337185" lon="9.267691130574221"><ele>86.0</ele><time>2026-04-11T09:06:15.998Z</time></trkpt><trkpt lat="45.30706718180745" lon="9.267544419699048"><ele>86.0</ele><time>2026-04-11T09:06:16.998Z</time></trkpt><trkpt lat="45.30697378351581" lon="9.267393311905037"><ele>86.0</ele><time>2026-04-11T09:06:17.998Z</time></trkpt><trkpt lat="45.30688147021242" lon="9.267230272783022"><ele>86.25</ele><time>2026-04-11T09:06:18.998Z</time></trkpt><trkpt lat="45.306787759008934" lon="9.267062956748168"><ele>86.5</ele><time>2026-04-11T09:06:19.998Z</time></trkpt><trkpt lat="45.30669637338111" lon="9.266914031157617"><ele>86.75</ele><time>2026-04-11T09:06:20.998Z</time></trkpt><trkpt lat="45.306597526059235" lon="9.266761419500307"><ele>87.0</ele><time>2026-04-11T09:06:21.998Z</time></trkpt><trkpt lat="45.306489733620246" lon="9.266579892615894"><ele>86.33333333333333</ele><time>2026-04-11T09:06:22.998Z</time></trkpt><trkpt lat="45.306379242887026" lon="9.266392214229342"><ele>85.66666666666666</ele><time>2026-04-11T09:06:23.998Z</time></trkpt><trkpt lat="45.30624403318016" lon="9.266181462234465"><ele>85.0</ele><time>2026-04-11T09:06:24.998Z</time></trkpt><trkpt lat="45.30608582382924" lon="9.265926369224985"><ele>85.0</ele><time>2026-04-11T09:06:25.998Z</time></trkpt><trkpt lat="45.30596791216817" lon="9.265701554227752"><ele>85.0</ele><time>2026-04-11T09:06:26.998Z</time></trkpt><trkpt lat="45.30586501164835" lon="9.26551071495907"><ele>85.0</ele><time>2026-04-11T09:06:27.998Z</time></trkpt><trkpt lat="45.305771524104884" lon="9.26536648089234"><ele>85.0</ele><time>2026-04-11T09:06:28.998Z</time></trkpt><trkpt lat="45.305702517291685" lon="9.265264997272475"><ele>85.0</ele><time>2026-04-11T09:06:29.998Z</time></trkpt><trkpt lat="45.30565270132088" lon="9.265176542498644"><ele>85.0</ele><time>2026-04-11T09:06:30.998Z</time></trkpt><trkpt lat="45.305603800757005" lon="9.265105338850786"><ele>85.0</ele><time>2026-04-11T09:06:31.998Z</time></trkpt><trkpt lat="45.30548422261817" lon="9.264951319005762"><ele>85.0</ele><time>2026-04-11T09:06:33.998Z</time></trkpt><trkpt lat="45.30541736609266" lon="9.264804458604337"><ele>84.75</ele><time>2026-04-11T09:06:34.998Z</time></trkpt><trkpt lat="45.30536106878524" lon="9.264685250957863"><ele>84.5</ele><time>2026-04-11T09:06:35.998Z</time></trkpt><trkpt lat="45.305294390524686" lon="9.264566198023408"><ele>84.25</ele><time>2026-04-11T09:06:36.999Z</time></trkpt><trkpt lat="45.30522090453541" lon="9.264432917058107"><ele>84.0</ele><time>2026-04-11T09:06:37.999Z</time></trkpt><trkpt lat="45.30514019362941" lon="9.264293047209485"><ele>84.0</ele><time>2026-04-11T09:06:38.999Z</time></trkpt><trkpt lat="45.30504617102264" lon="9.264133259710933"><ele>84.0</ele><time>2026-04-11T09:06:39.999Z</time></trkpt><trkpt lat="45.304945500925946" lon="9.263958506308493"><ele>84.0</ele><time>2026-04-11T09:06:40.999Z</time></trkpt><trkpt lat="45.30483943523621" lon="9.263782252500718"><ele>83.33333333333333</ele><time>2026-04-11T09:06:41.999Z</time></trkpt><trkpt lat="45.30473997604038" lon="9.263619374962406"><ele>82.66666666666666</ele><time>2026-04-11T09:06:42.999Z</time></trkpt><trkpt lat="45.30464120509381" lon="9.263448334578644"><ele>82.0</ele><time>2026-04-11T09:06:43.999Z</time></trkpt><trkpt lat="45.304543081652746" lon="9.263276159534028"><ele>81.33333333333333</ele><time>2026-04-11T09:06:44.999Z</time></trkpt><trkpt lat="45.30444472114781" lon="9.263105297124643"><ele>80.66666666666667</ele><time>2026-04-11T09:06:46Z</time></trkpt><trkpt lat="45.3043426248163" lon="9.262933831742744"><ele>80.0</ele><time>2026-04-11T09:06:47Z</time></trkpt><trkpt lat="45.30424008038028" lon="9.262763518062076"><ele>80.0</ele><time>2026-04-11T09:06:48Z</time></trkpt><trkpt lat="45.30414013760534" lon="9.262589430968495"><ele>80.0</ele><time>2026-04-11T09:06:49Z</time></trkpt><trkpt lat="45.30403657934285" lon="9.262410200865633"><ele>80.0</ele><time>2026-04-11T09:06:50Z</time></trkpt><trkpt lat="45.30393146270419" lon="9.262238189549693"><ele>81.33333333333334</ele><time>2026-04-11T09:06:51Z</time></trkpt><trkpt lat="45.303832819770115" lon="9.262071214731815"><ele>82.66666666666667</ele><time>2026-04-11T09:06:52Z</time></trkpt><trkpt lat="45.30373330905455" lon="9.261905911844353"><ele>84.0</ele><time>2026-04-11T09:06:53Z</time></trkpt><trkpt lat="45.30363533741514" lon="9.261742183756528"><ele>84.0</ele><time>2026-04-11T09:06:54Z</time></trkpt><trkpt lat="45.30353794509662" lon="9.261580934796953"><ele>84.0</ele><time>2026-04-11T09:06:55Z</time></trkpt><trkpt lat="45.303440524820964" lon="9.261418963472504"><ele>84.0</ele><time>2026-04-11T09:06:56Z</time></trkpt><trkpt lat="45.30334258569231" lon="9.261249644759777"><ele>84.0</ele><time>2026-04-11T09:06:57Z</time></trkpt><trkpt lat="45.303238785141424" lon="9.26107318881864"><ele>84.0</ele><time>2026-04-11T09:06:58Z</time></trkpt><trkpt lat="45.303135494139354" lon="9.26089934671997"><ele>84.0</ele><time>2026-04-11T09:06:59Z</time></trkpt><trkpt lat="45.303032386374895" lon="9.260722487498374"><ele>84.33333333333333</ele><time>2026-04-11T09:07:00Z</time></trkpt><trkpt lat="45.30293006839969" lon="9.26054463915591"><ele>84.66666666666666</ele><time>2026-04-11T09:07:00.999Z</time></trkpt><trkpt lat="45.302824566153745" lon="9.260365448262453"><ele>85.0</ele><time>2026-04-11T09:07:01.999Z</time></trkpt><trkpt lat="45.30271706953598" lon="9.26018728842491"><ele>85.0</ele><time>2026-04-11T09:07:02.999Z</time></trkpt><trkpt lat="45.30261238149744" lon="9.260009367584997"><ele>85.0</ele><time>2026-04-11T09:07:03.999Z</time></trkpt><trkpt lat="45.3025095860872" lon="9.259825440422972"><ele>85.0</ele><time>2026-04-11T09:07:04.999Z</time></trkpt><trkpt lat="45.3024025146317" lon="9.259641777265962"><ele>85.33333333333333</ele><time>2026-04-11T09:07:05.999Z</time></trkpt><trkpt lat="45.30229617502156" lon="9.259464849893366"><ele>85.66666666666667</ele><time>2026-04-11T09:07:06.999Z</time></trkpt><trkpt lat="45.302190696906045" lon="9.259288313290746"><ele>86.0</ele><time>2026-04-11T09:07:07.999Z</time></trkpt><trkpt lat="45.30208861621805" lon="9.259113347264485"><ele>85.5</ele><time>2026-04-11T09:07:08.999Z</time></trkpt><trkpt lat="45.30199494574676" lon="9.258955097558346"><ele>85.0</ele><time>2026-04-11T09:07:09.999Z</time></trkpt><trkpt lat="45.30190823795157" lon="9.258806961035463"><ele>84.5</ele><time>2026-04-11T09:07:10.999Z</time></trkpt><trkpt lat="45.30183357084248" lon="9.258669540976712"><ele>84.0</ele><time>2026-04-11T09:07:11.999Z</time></trkpt><trkpt lat="45.30176953348004" lon="9.258559791835772"><ele>84.0</ele><time>2026-04-11T09:07:12.999Z</time></trkpt><trkpt lat="45.301721990276356" lon="9.258481030396995"><ele>84.0</ele><time>2026-04-11T09:07:13.999Z</time></trkpt><trkpt lat="45.30166322727539" lon="9.258370693980838"><ele>84.0</ele><time>2026-04-11T09:07:15.999Z</time></trkpt><trkpt lat="45.30166152550283" lon="9.258262455783903"><ele>84.0</ele><time>2026-04-11T09:07:18.999Z</time></trkpt><trkpt lat="45.30159082879131" lon="9.258272325781306"><ele>84.0</ele><time>2026-04-11T09:07:51.999Z</time></trkpt><trkpt lat="45.30162423056265" lon="9.258401480085897"><ele>84.0</ele><time>2026-04-11T09:07:53.999Z</time></trkpt><trkpt lat="45.301706247764116" lon="9.258539849468665"><ele>84.0</ele><time>2026-04-11T09:07:54.999Z</time></trkpt><trkpt lat="45.30176535785592" lon="9.258642891754052"><ele>84.0</ele><time>2026-04-11T09:07:55.999Z</time></trkpt><trkpt lat="45.301827389267544" lon="9.258747669831466"><ele>84.0</ele><time>2026-04-11T09:07:56.999Z</time></trkpt><trkpt lat="45.30189809994902" lon="9.258857333433584"><ele>84.0</ele><time>2026-04-11T09:07:57.999Z</time></trkpt><trkpt lat="45.30197998375504" lon="9.258994238977788"><ele>84.0</ele><time>2026-04-11T09:07:58.999Z</time></trkpt><trkpt lat="45.30207646142094" lon="9.2591566338414"><ele>83.75</ele><time>2026-04-11T09:07:59.999Z</time></trkpt><trkpt lat="45.30215867013468" lon="9.259303247984498"><ele>83.5</ele><time>2026-04-11T09:08:00.999Z</time></trkpt><trkpt lat="45.302246718529446" lon="9.259454355626001"><ele>83.25</ele><time>2026-04-11T09:08:01.999Z</time></trkpt><trkpt lat="45.30234370769342" lon="9.259616680604081"><ele>83.0</ele><time>2026-04-11T09:08:02.999Z</time></trkpt><trkpt lat="45.30245034374161" lon="9.259794287114302"><ele>83.66666666666667</ele><time>2026-04-11T09:08:03.999Z</time></trkpt><trkpt lat="45.30255585876624" lon="9.25998079961412"><ele>84.33333333333333</ele><time>2026-04-11T09:08:04.999Z</time></trkpt><trkpt lat="45.30267170725025" lon="9.260182431224193"><ele>85.0</ele><time>2026-04-11T09:08:05.999Z</time></trkpt><trkpt lat="45.302790261076545" lon="9.260380632814469"><ele>85.0</ele><time>2026-04-11T09:08:06.999Z</time></trkpt><trkpt lat="45.302897689740725" lon="9.260562593313029"><ele>85.0</ele><time>2026-04-11T09:08:07.999Z</time></trkpt><trkpt lat="45.30300715528009" lon="9.26074703883274"><ele>85.0</ele><time>2026-04-11T09:08:08.998Z</time></trkpt><trkpt lat="45.30311366193878" lon="9.260927635842004"><ele>85.0</ele><time>2026-04-11T09:08:09.998Z</time></trkpt><trkpt lat="45.303218588578815" lon="9.261107962389874"><ele>85.0</ele><time>2026-04-11T09:08:10.998Z</time></trkpt><trkpt lat="45.30332457349562" lon="9.261287071961515"><ele>85.0</ele><time>2026-04-11T09:08:11.998Z</time></trkpt><trkpt lat="45.30342635504209" lon="9.261456514725115"><ele>84.75</ele><time>2026-04-11T09:08:12.998Z</time></trkpt><trkpt lat="45.303523215037266" lon="9.261617158900343"><ele>84.5</ele><time>2026-04-11T09:08:13.998Z</time></trkpt><trkpt lat="45.30361572629077" lon="9.261773031750277"><ele>84.25</ele><time>2026-04-11T09:08:14.998Z</time></trkpt><trkpt lat="45.30370172984935" lon="9.261922204817287"><ele>84.0</ele><time>2026-04-11T09:08:15.998Z</time></trkpt><trkpt lat="45.303788563093505" lon="9.262069760980276"><ele>84.0</ele><time>2026-04-11T09:08:16.998Z</time></trkpt><trkpt lat="45.303877514158906" lon="9.2622246692026"><ele>84.0</ele><time>2026-04-11T09:08:17.998Z</time></trkpt><trkpt lat="45.30396828459177" lon="9.262381801975357"><ele>84.0</ele><time>2026-04-11T09:08:18.998Z</time></trkpt><trkpt lat="45.30405593546256" lon="9.262528754151054"><ele>84.0</ele><time>2026-04-11T09:08:19.998Z</time></trkpt><trkpt lat="45.304141247606026" lon="9.262672705132239"><ele>83.5</ele><time>2026-04-11T09:08:20.998Z</time></trkpt><trkpt lat="45.30422520939515" lon="9.262821595106276"><ele>83.0</ele><time>2026-04-11T09:08:21.998Z</time></trkpt><trkpt lat="45.304310902457765" lon="9.262967803974625"><ele>82.5</ele><time>2026-04-11T09:08:22.998Z</time></trkpt><trkpt lat="45.304397189879744" lon="9.263112747442701"><ele>82.0</ele><time>2026-04-11T09:08:23.998Z</time></trkpt><trkpt lat="45.304479196105525" lon="9.263251424365471"><ele>82.0</ele><time>2026-04-11T09:08:24.998Z</time></trkpt><trkpt lat="45.30456410653426" lon="9.26339455434892"><ele>82.0</ele><time>2026-04-11T09:08:25.998Z</time></trkpt><trkpt lat="45.3046417064914" lon="9.263541761790206"><ele>82.0</ele><time>2026-04-11T09:08:26.998Z</time></trkpt><trkpt lat="45.304718470257" lon="9.263688504793759"><ele>82.0</ele><time>2026-04-11T09:08:27.998Z</time></trkpt><trkpt lat="45.30479697037733" lon="9.26383517634734"><ele>82.5</ele><time>2026-04-11T09:08:28.998Z</time></trkpt><trkpt lat="45.30487851503715" lon="9.263976584678408"><ele>83.0</ele><time>2026-04-11T09:08:29.998Z</time></trkpt><trkpt lat="45.30496191704727" lon="9.26411762047198"><ele>83.5</ele><time>2026-04-11T09:08:30.998Z</time></trkpt><trkpt lat="45.305042687781" lon="9.264258781869861"><ele>84.0</ele><time>2026-04-11T09:08:31.998Z</time></trkpt><trkpt lat="45.30511639352785" lon="9.264392799325428"><ele>84.0</ele><time>2026-04-11T09:08:32.998Z</time></trkpt><trkpt lat="45.30518327697593" lon="9.26451721040634"><ele>84.0</ele><time>2026-04-11T09:08:33.998Z</time></trkpt><trkpt lat="45.30523907532008" lon="9.264648085589135"><ele>84.0</ele><time>2026-04-11T09:08:34.998Z</time></trkpt><trkpt lat="45.30527808113381" lon="9.264807472057571"><ele>84.0</ele><time>2026-04-11T09:08:35.998Z</time></trkpt><trkpt lat="45.305284070118375" lon="9.264974017470994"><ele>83.6</ele><time>2026-04-11T09:08:36.998Z</time></trkpt><trkpt lat="45.305264143864314" lon="9.265138673574848"><ele>83.2</ele><time>2026-04-11T09:08:37.998Z</time></trkpt><trkpt lat="45.30523336184144" lon="9.26527186410111"><ele>82.8</ele><time>2026-04-11T09:08:38.998Z</time></trkpt><trkpt lat="45.30518742896065" lon="9.265396638280903"><ele>82.39999999999999</ele><time>2026-04-11T09:08:39.998Z</time></trkpt><trkpt lat="45.30512008097708" lon="9.265490373410554"><ele>82.0</ele><time>2026-04-11T09:08:40.998Z</time></trkpt><trkpt lat="45.30503734892229" lon="9.265581889092466"><ele>82.5</ele><time>2026-04-11T09:08:41.998Z</time></trkpt><trkpt lat="45.30493637602021" lon="9.26565144014976"><ele>83.0</ele><time>2026-04-11T09:08:42.999Z</time></trkpt><trkpt lat="45.30482295391258" lon="9.265701684341705"><ele>83.5</ele><time>2026-04-11T09:08:43.999Z</time></trkpt><trkpt lat="45.30470657507382" lon="9.265766560057786"><ele>84.0</ele><time>2026-04-11T09:08:44.999Z</time></trkpt><trkpt lat="45.30458485237831" lon="9.265823396722574"><ele>84.25</ele><time>2026-04-11T09:08:45.999Z</time></trkpt><trkpt lat="45.30447044400801" lon="9.265877454520501"><ele>84.5</ele><time>2026-04-11T09:08:46.999Z</time></trkpt><trkpt lat="45.304356394913796" lon="9.265937359711048"><ele>84.75</ele><time>2026-04-11T09:08:47.999Z</time></trkpt><trkpt lat="45.30423560282279" lon="9.26598679797189"><ele>85.0</ele><time>2026-04-11T09:08:48.999Z</time></trkpt><trkpt lat="45.304120963174384" lon="9.266038133564747"><ele>85.0</ele><time>2026-04-11T09:08:49.999Z</time></trkpt><trkpt lat="45.30400846397255" lon="9.26609169289184"><ele>85.0</ele><time>2026-04-11T09:08:50.999Z</time></trkpt><trkpt lat="45.3038933030851" lon="9.266142357895719"><ele>85.0</ele><time>2026-04-11T09:08:51.999Z</time></trkpt><trkpt lat="45.303777196753444" lon="9.26618643306735"><ele>85.0</ele><time>2026-04-11T09:08:52.999Z</time></trkpt><trkpt lat="45.30364978773076" lon="9.266236651144167"><ele>84.75</ele><time>2026-04-11T09:08:53.999Z</time></trkpt><trkpt lat="45.30352407226978" lon="9.266275691663415"><ele>84.5</ele><time>2026-04-11T09:08:54.999Z</time></trkpt><trkpt lat="45.303416323517006" lon="9.266299070358622"><ele>84.25</ele><time>2026-04-11T09:08:55.999Z</time></trkpt><trkpt lat="45.303304766311584" lon="9.266343082414622"><ele>84.0</ele><time>2026-04-11T09:08:56.999Z</time></trkpt><trkpt lat="45.3031818106826" lon="9.266374356848646"><ele>84.0</ele><time>2026-04-11T09:08:57.999Z</time></trkpt><trkpt lat="45.30305915632356" lon="9.266424531286921"><ele>84.0</ele><time>2026-04-11T09:08:58.999Z</time></trkpt><trkpt lat="45.302934092659974" lon="9.26646517137583"><ele>84.0</ele><time>2026-04-11T09:08:59.999Z</time></trkpt><trkpt lat="45.30280928354062" lon="9.266527490256278"><ele>84.0</ele><time>2026-04-11T09:09:00.999Z</time></trkpt><trkpt lat="45.30268130859319" lon="9.266589743692412"><ele>84.0</ele><time>2026-04-11T09:09:01.999Z</time></trkpt><trkpt lat="45.30255498850675" lon="9.266652784027457"><ele>84.0</ele><time>2026-04-11T09:09:02.999Z</time></trkpt><trkpt lat="45.3024247612017" lon="9.266715795408574"><ele>84.0</ele><time>2026-04-11T09:09:03.999Z</time></trkpt><trkpt lat="45.30230031717388" lon="9.266781825837146"><ele>84.0</ele><time>2026-04-11T09:09:04.999Z</time></trkpt><trkpt lat="45.30216053204342" lon="9.2668433658668"><ele>84.0</ele><time>2026-04-11T09:09:05.999Z</time></trkpt><trkpt lat="45.30202634717037" lon="9.266899785080735"><ele>84.0</ele><time>2026-04-11T09:09:06.999Z</time></trkpt><trkpt lat="45.301893038902655" lon="9.266965203987516"><ele>84.0</ele><time>2026-04-11T09:09:07.999Z</time></trkpt><trkpt lat="45.30175250683607" lon="9.267021326505697"><ele>84.0</ele><time>2026-04-11T09:09:08.999Z</time></trkpt><trkpt lat="45.301606226713574" lon="9.267076147048128"><ele>84.0</ele><time>2026-04-11T09:09:09.999Z</time></trkpt><trkpt lat="45.301449367616186" lon="9.267137443845776"><ele>84.0</ele><time>2026-04-11T09:09:10.999Z</time></trkpt><trkpt lat="45.30129150963407" lon="9.26719475852107"><ele>84.0</ele><time>2026-04-11T09:09:11.999Z</time></trkpt><trkpt lat="45.301129305943924" lon="9.267246689872824"><ele>84.33333333333333</ele><time>2026-04-11T09:09:12.999Z</time></trkpt><trkpt lat="45.300973956883965" lon="9.267300268779373"><ele>84.66666666666666</ele><time>2026-04-11T09:09:13.999Z</time></trkpt><trkpt lat="45.30080988506914" lon="9.267353529086957"><ele>85.0</ele><time>2026-04-11T09:09:14.999Z</time></trkpt><trkpt lat="45.30063924590987" lon="9.267411701766655"><ele>84.33333333333333</ele><time>2026-04-11T09:09:15.999Z</time></trkpt><trkpt lat="45.3004628915844" lon="9.26747048815788"><ele>83.66666666666667</ele><time>2026-04-11T09:09:16.999Z</time></trkpt><trkpt lat="45.30032333891811" lon="9.26750674655938"><ele>83.0</ele><time>2026-04-11T09:09:17.999Z</time></trkpt><trkpt lat="45.300171571324306" lon="9.26756466937329"><ele>83.0</ele><time>2026-04-11T09:09:18.999Z</time></trkpt><trkpt lat="45.30003260636645" lon="9.267608591427287"><ele>83.0</ele><time>2026-04-11T09:09:19.999Z</time></trkpt><trkpt lat="45.299885625066075" lon="9.267660086518998"><ele>83.0</ele><time>2026-04-11T09:09:20.999Z</time></trkpt><trkpt lat="45.299738914211346" lon="9.267708420920723"><ele>83.0</ele><time>2026-04-11T09:09:21.999Z</time></trkpt><trkpt lat="45.299585635906496" lon="9.267750005153877"><ele>83.33333333333334</ele><time>2026-04-11T09:09:22.999Z</time></trkpt><trkpt lat="45.29942462570485" lon="9.267786223982615"><ele>83.66666666666667</ele><time>2026-04-11T09:09:23.999Z</time></trkpt><trkpt lat="45.29925982299893" lon="9.267826598717342"><ele>84.0</ele><time>2026-04-11T09:09:24.999Z</time></trkpt><trkpt lat="45.29908955836303" lon="9.267871806689563"><ele>84.0</ele><time>2026-04-11T09:09:25.999Z</time></trkpt><trkpt lat="45.2989182840022" lon="9.267917811716783"><ele>84.0</ele><time>2026-04-11T09:09:26.999Z</time></trkpt><trkpt lat="45.298744608970594" lon="9.267957685520754"><ele>84.0</ele><time>2026-04-11T09:09:27.999Z</time></trkpt><trkpt lat="45.29857562221825" lon="9.267999450062002"><ele>84.0</ele><time>2026-04-11T09:09:28.999Z</time></trkpt><trkpt lat="45.298395363470675" lon="9.268040774405913"><ele>84.0</ele><time>2026-04-11T09:09:29.999Z</time></trkpt><trkpt lat="45.298219222456915" lon="9.268082849974064"><ele>84.0</ele><time>2026-04-11T09:09:30.999Z</time></trkpt><trkpt lat="45.29805676071171" lon="9.268121979330054"><ele>84.0</ele><time>2026-04-11T09:09:31.999Z</time></trkpt><trkpt lat="45.29789261591117" lon="9.268164901711051"><ele>84.0</ele><time>2026-04-11T09:09:32.999Z</time></trkpt><trkpt lat="45.29773221310134" lon="9.268205283566065"><ele>84.0</ele><time>2026-04-11T09:09:33.999Z</time></trkpt><trkpt lat="45.297574740391596" lon="9.268250552794049"><ele>84.0</ele><time>2026-04-11T09:09:34.999Z</time></trkpt><trkpt lat="45.297383419203726" lon="9.268270967579953"><ele>84.0</ele><time>2026-04-11T09:09:35.999Z</time></trkpt><trkpt lat="45.29717842198727" lon="9.268293606903992"><ele>84.0</ele><time>2026-04-11T09:09:36.999Z</time></trkpt><trkpt lat="45.29701951769015" lon="9.268346092286018"><ele>84.0</ele><time>2026-04-11T09:09:37.999Z</time></trkpt><trkpt lat="45.29685279971441" lon="9.268386012515665"><ele>84.0</ele><time>2026-04-11T09:09:38.999Z</time></trkpt><trkpt lat="45.29669183948161" lon="9.268427885716383"><ele>84.0</ele><time>2026-04-11T09:09:39.999Z</time></trkpt><trkpt lat="45.2965254822877" lon="9.26846425980113"><ele>84.0</ele><time>2026-04-11T09:09:40.999Z</time></trkpt><trkpt lat="45.29635916499096" lon="9.268490431112111"><ele>84.0</ele><time>2026-04-11T09:09:41.999Z</time></trkpt><trkpt lat="45.29621373889638" lon="9.268517685188684"><ele>84.0</ele><time>2026-04-11T09:09:42.999Z</time></trkpt><trkpt lat="45.29608542995825" lon="9.268531840966972"><ele>84.0</ele><time>2026-04-11T09:09:43.999Z</time></trkpt><trkpt lat="45.29597224435091" lon="9.268543925587888"><ele>84.0</ele><time>2026-04-11T09:09:44.999Z</time></trkpt><trkpt lat="45.29586780371568" lon="9.26855247723132"><ele>84.0</ele><time>2026-04-11T09:09:45.999Z</time></trkpt><trkpt lat="45.295771887173196" lon="9.268563466710727"><ele>84.0</ele><time>2026-04-11T09:09:46.999Z</time></trkpt><trkpt lat="45.2956799344899" lon="9.26857124064213"><ele>84.0</ele><time>2026-04-11T09:09:47.999Z</time></trkpt><trkpt lat="45.295594344094106" lon="9.268579359648351"><ele>84.0</ele><time>2026-04-11T09:09:48.999Z</time></trkpt><trkpt lat="45.29552753863964" lon="9.268587049824166"><ele>84.0</ele><time>2026-04-11T09:09:49.999Z</time></trkpt><trkpt lat="45.295447796417776" lon="9.268585426617186"><ele>84.0</ele><time>2026-04-11T09:09:51.999Z</time></trkpt><trkpt lat="45.29538269850635" lon="9.26860951461108"><ele>84.0</ele><time>2026-04-11T09:09:54.999Z</time></trkpt><trkpt lat="45.295292943179476" lon="9.26864082474913"><ele>84.0</ele><time>2026-04-11T09:09:56.999Z</time></trkpt><trkpt lat="45.295171350311634" lon="9.26866464470625"><ele>84.0</ele><time>2026-04-11T09:09:58.999Z</time></trkpt><trkpt lat="45.29509537849429" lon="9.268683667962868"><ele>84.0</ele><time>2026-04-11T09:09:59.999Z</time></trkpt><trkpt lat="45.29502107200736" lon="9.268686588100781"><ele>84.0</ele><time>2026-04-11T09:10:00.999Z</time></trkpt><trkpt lat="45.294937214995855" lon="9.268692133237717"><ele>84.0</ele><time>2026-04-11T09:10:01.999Z</time></trkpt><trkpt lat="45.294835706623815" lon="9.26869457794299"><ele>84.0</ele><time>2026-04-11T09:10:02.999Z</time></trkpt><trkpt lat="45.29472616793923" lon="9.268679969799576"><ele>84.0</ele><time>2026-04-11T09:10:03.999Z</time></trkpt><trkpt lat="45.29460463145457" lon="9.268654227939653"><ele>84.0</ele><time>2026-04-11T09:10:04.999Z</time></trkpt><trkpt lat="45.29450163538372" lon="9.268631348008254"><ele>84.0</ele><time>2026-04-11T09:10:05.999Z</time></trkpt><trkpt lat="45.294407659334844" lon="9.268613217149221"><ele>84.0</ele><time>2026-04-11T09:10:06.999Z</time></trkpt><trkpt lat="45.294338859164505" lon="9.268581921544502"><ele>84.0</ele><time>2026-04-11T09:10:07.999Z</time></trkpt><trkpt lat="45.2942784001016" lon="9.268538152317502"><ele>84.0</ele><time>2026-04-11T09:10:08.999Z</time></trkpt><trkpt lat="45.29421240935698" lon="9.268477139183773"><ele>84.0</ele><time>2026-04-11T09:10:09.999Z</time></trkpt><trkpt lat="45.29415094120245" lon="9.268384484172469"><ele>84.0</ele><time>2026-04-11T09:10:10.999Z</time></trkpt><trkpt lat="45.29411575883439" lon="9.268280140350063"><ele>84.0</ele><time>2026-04-11T09:10:11.999Z</time></trkpt><trkpt lat="45.29408170921447" lon="9.268143064008008"><ele>84.0</ele><time>2026-04-11T09:10:12.999Z</time></trkpt><trkpt lat="45.29404758596357" lon="9.267964333637398"><ele>84.0</ele><time>2026-04-11T09:10:13.999Z</time></trkpt><trkpt lat="45.293995099277794" lon="9.267753977388299"><ele>84.0</ele><time>2026-04-11T09:10:14.999Z</time></trkpt><trkpt lat="45.29394942858947" lon="9.267539875512384"><ele>84.0</ele><time>2026-04-11T09:10:15.999Z</time></trkpt><trkpt lat="45.293912484127965" lon="9.26737589887986"><ele>84.0</ele><time>2026-04-11T09:10:16.999Z</time></trkpt><trkpt lat="45.293874983955035" lon="9.267206322492985"><ele>84.0</ele><time>2026-04-11T09:10:17.999Z</time></trkpt><trkpt lat="45.29384724600432" lon="9.267043739625485"><ele>84.0</ele><time>2026-04-11T09:10:18.999Z</time></trkpt><trkpt lat="45.2938183396097" lon="9.266901582740518"><ele>84.0</ele><time>2026-04-11T09:10:19.999Z</time></trkpt><trkpt lat="45.29379735112167" lon="9.266807302109296"><ele>84.0</ele><time>2026-04-11T09:10:20.998Z</time></trkpt><trkpt lat="45.29376070175163" lon="9.266717787357113"><ele>84.0</ele><time>2026-04-11T09:10:21.998Z</time></trkpt><trkpt lat="45.293706232962776" lon="9.26663943085424"><ele>84.0</ele><time>2026-04-11T09:10:22.998Z</time></trkpt><trkpt lat="45.293635252871155" lon="9.266593057049905"><ele>84.0</ele><time>2026-04-11T09:10:23.998Z</time></trkpt><trkpt lat="45.29355080782493" lon="9.266563710095545"><ele>84.0</ele><time>2026-04-11T09:10:24.998Z</time></trkpt><trkpt lat="45.29346472499037" lon="9.266575184032583"><ele>84.0</ele><time>2026-04-11T09:10:25.998Z</time></trkpt><trkpt lat="45.29336757100234" lon="9.266609309865444"><ele>84.0</ele><time>2026-04-11T09:10:26.998Z</time></trkpt><trkpt lat="45.29325404201417" lon="9.266664149423304"><ele>84.0</ele><time>2026-04-11T09:10:27.998Z</time></trkpt><trkpt lat="45.293130516312516" lon="9.266722692344416"><ele>84.0</ele><time>2026-04-11T09:10:28.998Z</time></trkpt><trkpt lat="45.29299661191133" lon="9.26677882526221"><ele>84.0</ele><time>2026-04-11T09:10:29.998Z</time></trkpt><trkpt lat="45.292860485174195" lon="9.26683729782489"><ele>84.0</ele><time>2026-04-11T09:10:30.998Z</time></trkpt><trkpt lat="45.292704446594065" lon="9.266898849614824"><ele>84.25</ele><time>2026-04-11T09:10:31.998Z</time></trkpt><trkpt lat="45.29256243505393" lon="9.266949603027626"><ele>84.5</ele><time>2026-04-11T09:10:32.998Z</time></trkpt><trkpt lat="45.2924248245736" lon="9.266987441731885"><ele>84.75</ele><time>2026-04-11T09:10:33.998Z</time></trkpt><trkpt lat="45.29228660304461" lon="9.267021711425409"><ele>85.0</ele><time>2026-04-11T09:10:34.998Z</time></trkpt><trkpt lat="45.29215260844309" lon="9.26705867057294"><ele>84.5</ele><time>2026-04-11T09:10:35.998Z</time></trkpt><trkpt lat="45.29201968308637" lon="9.267118773905102"><ele>84.0</ele><time>2026-04-11T09:10:36.998Z</time></trkpt><trkpt lat="45.29189083263543" lon="9.267188181964194"><ele>83.5</ele><time>2026-04-11T09:10:37.998Z</time></trkpt><trkpt lat="45.29176091409527" lon="9.267254476945329"><ele>83.0</ele><time>2026-04-11T09:10:38.998Z</time></trkpt><trkpt lat="45.29163270248917" lon="9.267325822127251"><ele>83.0</ele><time>2026-04-11T09:10:39.998Z</time></trkpt><trkpt lat="45.29149367267753" lon="9.267401907772262"><ele>83.0</ele><time>2026-04-11T09:10:40.998Z</time></trkpt><trkpt lat="45.29136168078835" lon="9.26747065361327"><ele>83.0</ele><time>2026-04-11T09:10:41.998Z</time></trkpt><trkpt lat="45.29122400258797" lon="9.26754795332138"><ele>83.0</ele><time>2026-04-11T09:10:42.998Z</time></trkpt><trkpt lat="45.291074340400286" lon="9.267632933481089"><ele>83.0</ele><time>2026-04-11T09:10:43.998Z</time></trkpt><trkpt lat="45.29092991198259" lon="9.267713561667403"><ele>83.0</ele><time>2026-04-11T09:10:44.998Z</time></trkpt><trkpt lat="45.29077487199771" lon="9.267821127266702"><ele>83.0</ele><time>2026-04-11T09:10:45.998Z</time></trkpt><trkpt lat="45.290642220386204" lon="9.267909868712868"><ele>83.0</ele><time>2026-04-11T09:10:46.998Z</time></trkpt><trkpt lat="45.29051698247145" lon="9.268008475014422"><ele>83.0</ele><time>2026-04-11T09:10:47.998Z</time></trkpt><trkpt lat="45.290373999333156" lon="9.268114182755657"><ele>83.0</ele><time>2026-04-11T09:10:49Z</time></trkpt><trkpt lat="45.29022177104433" lon="9.268216781706927"><ele>82.75</ele><time>2026-04-11T09:10:50Z</time></trkpt><trkpt lat="45.29009312906395" lon="9.268309775240132"><ele>82.5</ele><time>2026-04-11T09:10:51Z</time></trkpt><trkpt lat="45.28996947307014" lon="9.268407066211266"><ele>82.25</ele><time>2026-04-11T09:10:52Z</time></trkpt><trkpt lat="45.289845817795715" lon="9.268500039254558"><ele>82.0</ele><time>2026-04-11T09:10:53Z</time></trkpt><trkpt lat="45.28973072153099" lon="9.268600351021595"><ele>82.0</ele><time>2026-04-11T09:10:54Z</time></trkpt><trkpt lat="45.28961441799174" lon="9.26873478482911"><ele>82.0</ele><time>2026-04-11T09:10:55Z</time></trkpt><trkpt lat="45.289484935192746" lon="9.268882564181586"><ele>82.0</ele><time>2026-04-11T09:10:56Z</time></trkpt><trkpt lat="45.28936129186006" lon="9.269029317666117"><ele>82.0</ele><time>2026-04-11T09:10:57Z</time></trkpt><trkpt lat="45.289230665558684" lon="9.269182486231376"><ele>82.0</ele><time>2026-04-11T09:10:58Z</time></trkpt><trkpt lat="45.28910534770221" lon="9.269331465970541"><ele>82.0</ele><time>2026-04-11T09:10:59Z</time></trkpt><trkpt lat="45.28898136576734" lon="9.269479731898192"><ele>81.66666666666666</ele><time>2026-04-11T09:11:00Z</time></trkpt><trkpt lat="45.288855922917776" lon="9.269641416489057"><ele>81.33333333333333</ele><time>2026-04-11T09:11:01Z</time></trkpt><trkpt lat="45.2887366012282" lon="9.269780914810124"><ele>81.0</ele><time>2026-04-11T09:11:02Z</time></trkpt><trkpt lat="45.28861270479406" lon="9.269932000011888"><ele>81.0</ele><time>2026-04-11T09:11:03Z</time></trkpt><trkpt lat="45.28849774420758" lon="9.27007000139567"><ele>81.0</ele><time>2026-04-11T09:11:04Z</time></trkpt><trkpt lat="45.2883749113205" lon="9.270219007071134"><ele>81.0</ele><time>2026-04-11T09:11:05Z</time></trkpt><trkpt lat="45.28825127796497" lon="9.270370386131749"><ele>81.0</ele><time>2026-04-11T09:11:06Z</time></trkpt><trkpt lat="45.28813301134039" lon="9.270524975053162"><ele>81.0</ele><time>2026-04-11T09:11:07Z</time></trkpt><trkpt lat="45.288020576136454" lon="9.270668431494666"><ele>81.0</ele><time>2026-04-11T09:11:08Z</time></trkpt><trkpt lat="45.28791253557082" lon="9.270807363680634"><ele>81.0</ele><time>2026-04-11T09:11:09Z</time></trkpt><trkpt lat="45.28781230657653" lon="9.270939747265011"><ele>81.0</ele><time>2026-04-11T09:11:10Z</time></trkpt><trkpt lat="45.2877120921989" lon="9.271091557558005"><ele>81.0</ele><time>2026-04-11T09:11:11Z</time></trkpt><trkpt lat="45.28761538296538" lon="9.271238590272556"><ele>81.0</ele><time>2026-04-11T09:11:12Z</time></trkpt><trkpt lat="45.28753119696187" lon="9.271413511050188"><ele>81.0</ele><time>2026-04-11T09:11:13Z</time></trkpt><trkpt lat="45.28744966097016" lon="9.27159111257829"><ele>81.0</ele><time>2026-04-11T09:11:14Z</time></trkpt><trkpt lat="45.28736943918874" lon="9.271778884248649"><ele>81.0</ele><time>2026-04-11T09:11:15Z</time></trkpt><trkpt lat="45.287300070405294" lon="9.271949867460986"><ele>81.0</ele><time>2026-04-11T09:11:16Z</time></trkpt><trkpt lat="45.2872309147376" lon="9.272109244728282"><ele>80.75</ele><time>2026-04-11T09:11:17Z</time></trkpt><trkpt lat="45.28715333034761" lon="9.272286778804203"><ele>80.5</ele><time>2026-04-11T09:11:18Z</time></trkpt><trkpt lat="45.28708363350619" lon="9.27247336896854"><ele>80.25</ele><time>2026-04-11T09:11:19Z</time></trkpt><trkpt lat="45.28702317867644" lon="9.272628800390606"><ele>80.0</ele><time>2026-04-11T09:11:20Z</time></trkpt><trkpt lat="45.28696971297281" lon="9.27275858461589"><ele>80.0</ele><time>2026-04-11T09:11:21Z</time></trkpt><trkpt lat="45.28691012132231" lon="9.272860130707153"><ele>80.0</ele><time>2026-04-11T09:11:22Z</time></trkpt><trkpt lat="45.28685319776664" lon="9.272927375060942"><ele>80.0</ele><time>2026-04-11T09:11:23Z</time></trkpt><trkpt lat="45.286791522603004" lon="9.272979377126582"><ele>80.0</ele><time>2026-04-11T09:11:24Z</time></trkpt><trkpt lat="45.28670169816793" lon="9.27303709281312"><ele>80.0</ele><time>2026-04-11T09:11:25Z</time></trkpt><trkpt lat="45.286584998404756" lon="9.273067111508302"><ele>80.0</ele><time>2026-04-11T09:11:26Z</time></trkpt><trkpt lat="45.28644464823117" lon="9.27310585319651"><ele>80.0</ele><time>2026-04-11T09:11:27Z</time></trkpt><trkpt lat="45.28628120717469" lon="9.273168837351223"><ele>80.0</ele><time>2026-04-11T09:11:28Z</time></trkpt><trkpt lat="45.28614242694394" lon="9.273233141190016"><ele>79.5</ele><time>2026-04-11T09:11:29Z</time></trkpt><trkpt lat="45.286022416293385" lon="9.273290091812608"><ele>79.0</ele><time>2026-04-11T09:11:30Z</time></trkpt><trkpt lat="45.28590312300509" lon="9.273357668996848"><ele>78.5</ele><time>2026-04-11T09:11:31Z</time></trkpt><trkpt lat="45.28578939539343" lon="9.273431742912738"><ele>78.0</ele><time>2026-04-11T09:11:32Z</time></trkpt><trkpt lat="45.28568398582253" lon="9.273510167666181"><ele>78.0</ele><time>2026-04-11T09:11:32.999Z</time></trkpt><trkpt lat="45.2855941960112" lon="9.273601592833563"><ele>78.0</ele><time>2026-04-11T09:11:33.999Z</time></trkpt><trkpt lat="45.28553704050404" lon="9.273689653271376"><ele>78.0</ele><time>2026-04-11T09:11:34.999Z</time></trkpt><trkpt lat="45.28549016836185" lon="9.27381945067325"><ele>78.0</ele><time>2026-04-11T09:11:35.999Z</time></trkpt><trkpt lat="45.28546231794293" lon="9.27396332717846"><ele>78.0</ele><time>2026-04-11T09:11:36.999Z</time></trkpt><trkpt lat="45.285450578188026" lon="9.274141471441485"><ele>78.0</ele><time>2026-04-11T09:11:37.999Z</time></trkpt><trkpt lat="45.285452611371674" lon="9.27434709083099"><ele>78.0</ele><time>2026-04-11T09:11:38.999Z</time></trkpt><trkpt lat="45.28545570671018" lon="9.274533259453374"><ele>78.0</ele><time>2026-04-11T09:11:39.999Z</time></trkpt><trkpt lat="45.2854529973079" lon="9.274667092491027"><ele>78.0</ele><time>2026-04-11T09:11:40.999Z</time></trkpt><trkpt lat="45.28544638575544" lon="9.274793532093753"><ele>78.2</ele><time>2026-04-11T09:11:41.999Z</time></trkpt><trkpt lat="45.28542426355429" lon="9.274918839790663"><ele>78.4</ele><time>2026-04-11T09:11:42.999Z</time></trkpt><trkpt lat="45.28538548263096" lon="9.275049501640227"><ele>78.60000000000001</ele><time>2026-04-11T09:11:43.999Z</time></trkpt><trkpt lat="45.28531936319196" lon="9.275167920329027"><ele>78.8</ele><time>2026-04-11T09:11:44.999Z</time></trkpt><trkpt lat="45.28521486937359" lon="9.275277542874464"><ele>79.0</ele><time>2026-04-11T09:11:45.999Z</time></trkpt><trkpt lat="45.28508531659798" lon="9.275418726567645"><ele>79.0</ele><time>2026-04-11T09:11:46.999Z</time></trkpt><trkpt lat="45.28496476272801" lon="9.275559203178101"><ele>79.0</ele><time>2026-04-11T09:11:47.999Z</time></trkpt><trkpt lat="45.28484760715571" lon="9.275679341192355"><ele>79.0</ele><time>2026-04-11T09:11:48.999Z</time></trkpt><trkpt lat="45.28473125503915" lon="9.275791271425888"><ele>79.0</ele><time>2026-04-11T09:11:49.999Z</time></trkpt><trkpt lat="45.28461105918095" lon="9.27592071497025"><ele>78.0</ele><time>2026-04-11T09:11:50.999Z</time></trkpt><trkpt lat="45.28449881873739" lon="9.276046383705635"><ele>77.0</ele><time>2026-04-11T09:11:51.999Z</time></trkpt><trkpt lat="45.28438188434" lon="9.2761874639213"><ele>76.0</ele><time>2026-04-11T09:11:52.999Z</time></trkpt><trkpt lat="45.28425646949291" lon="9.276334809493903"><ele>76.33333333333333</ele><time>2026-04-11T09:11:53.999Z</time></trkpt><trkpt lat="45.28413606764811" lon="9.276459939628365"><ele>76.66666666666667</ele><time>2026-04-11T09:11:54.999Z</time></trkpt><trkpt lat="45.28401469148881" lon="9.27658521880832"><ele>77.0</ele><time>2026-04-11T09:11:55.999Z</time></trkpt><trkpt lat="45.283890704014354" lon="9.276724567337606"><ele>76.5</ele><time>2026-04-11T09:11:56.999Z</time></trkpt><trkpt lat="45.283768178889616" lon="9.27684420987681"><ele>76.0</ele><time>2026-04-11T09:11:57.999Z</time></trkpt><trkpt lat="45.28364576219099" lon="9.27692659659705"><ele>75.5</ele><time>2026-04-11T09:11:58.999Z</time></trkpt><trkpt lat="45.283518386255075" lon="9.276986453078225"><ele>75.0</ele><time>2026-04-11T09:11:59.999Z</time></trkpt><trkpt lat="45.28339292570118" lon="9.27703803302786"><ele>75.0</ele><time>2026-04-11T09:12:00.999Z</time></trkpt><trkpt lat="45.28328790689438" lon="9.277109964486863"><ele>75.0</ele><time>2026-04-11T09:12:01.999Z</time></trkpt><trkpt lat="45.2831859601379" lon="9.27719190706937"><ele>75.0</ele><time>2026-04-11T09:12:02.999Z</time></trkpt><trkpt lat="45.28310049483746" lon="9.277263858684723"><ele>75.0</ele><time>2026-04-11T09:12:03.999Z</time></trkpt><trkpt lat="45.283023938768224" lon="9.277322270584532"><ele>75.0</ele><time>2026-04-11T09:12:04.999Z</time></trkpt><trkpt lat="45.28293877527447" lon="9.277393518571328"><ele>75.5</ele><time>2026-04-11T09:12:05.999Z</time></trkpt><trkpt lat="45.282848004635" lon="9.277469334066884"><ele>76.0</ele><time>2026-04-11T09:12:06.999Z</time></trkpt><trkpt lat="45.282766528870994" lon="9.277521216846592"><ele>76.5</ele><time>2026-04-11T09:12:07.999Z</time></trkpt><trkpt lat="45.282691999885685" lon="9.277549655583359"><ele>77.0</ele><time>2026-04-11T09:12:08.999Z</time></trkpt><trkpt lat="45.282622512722746" lon="9.277553446799564"><ele>77.5</ele><time>2026-04-11T09:12:09.999Z</time></trkpt><trkpt lat="45.28252111880692" lon="9.27756606984983"><ele>78.0</ele><time>2026-04-11T09:12:11.999Z</time></trkpt><trkpt lat="45.28245850792852" lon="9.277575492895128"><ele>78.0</ele><time>2026-04-11T09:12:13.999Z</time></trkpt><trkpt lat="45.282410025679816" lon="9.277723508821873"><ele>78.0</ele><time>2026-04-11T09:12:16.999Z</time></trkpt><trkpt lat="45.28242113255408" lon="9.27784921957978"><ele>78.0</ele><time>2026-04-11T09:12:17.999Z</time></trkpt><trkpt lat="45.282447649783286" lon="9.277954791249291"><ele>78.0</ele><time>2026-04-11T09:12:18.999Z</time></trkpt><trkpt lat="45.282467123392536" lon="9.278059612168542"><ele>78.0</ele><time>2026-04-11T09:12:19.999Z</time></trkpt><trkpt lat="45.28248947205899" lon="9.278192508121576"><ele>78.0</ele><time>2026-04-11T09:12:20.999Z</time></trkpt><trkpt lat="45.282504278328204" lon="9.278351685880828"><ele>78.0</ele><time>2026-04-11T09:12:21.999Z</time></trkpt><trkpt lat="45.282526123675005" lon="9.278515219842523"><ele>78.0</ele><time>2026-04-11T09:12:22.999Z</time></trkpt><trkpt lat="45.282543413581976" lon="9.278674611333617"><ele>78.0</ele><time>2026-04-11T09:12:23.999Z</time></trkpt><trkpt lat="45.28255480550712" lon="9.278812493923411"><ele>78.0</ele><time>2026-04-11T09:12:24.999Z</time></trkpt><trkpt lat="45.282554903657115" lon="9.278943389593014"><ele>78.25</ele><time>2026-04-11T09:12:25.999Z</time></trkpt><trkpt lat="45.28251359582545" lon="9.279059167843466"><ele>78.5</ele><time>2026-04-11T09:12:26.999Z</time></trkpt><trkpt lat="45.28242509900481" lon="9.279159701089164"><ele>78.75</ele><time>2026-04-11T09:12:27.999Z</time></trkpt><trkpt lat="45.28229749999877" lon="9.279227353768642"><ele>79.0</ele><time>2026-04-11T09:12:28.999Z</time></trkpt><trkpt lat="45.28215930310916" lon="9.279274589105436"><ele>79.66666666666666</ele><time>2026-04-11T09:12:29.999Z</time></trkpt><trkpt lat="45.282018793375606" lon="9.279351621570049"><ele>80.33333333333333</ele><time>2026-04-11T09:12:30.999Z</time></trkpt><trkpt lat="45.28187192943028" lon="9.279437588477311"><ele>81.0</ele><time>2026-04-11T09:12:31.999Z</time></trkpt><trkpt lat="45.28171999099324" lon="9.27953601850599"><ele>81.0</ele><time>2026-04-11T09:12:32.999Z</time></trkpt><trkpt lat="45.28158524260036" lon="9.27962893546954"><ele>81.0</ele><time>2026-04-11T09:12:33.999Z</time></trkpt><trkpt lat="45.281442315308375" lon="9.279726566462589"><ele>81.0</ele><time>2026-04-11T09:12:34.999Z</time></trkpt><trkpt lat="45.28129061403531" lon="9.279830143105746"><ele>81.33333333333333</ele><time>2026-04-11T09:12:35.999Z</time></trkpt><trkpt lat="45.28113828519604" lon="9.279928018756497"><ele>81.66666666666666</ele><time>2026-04-11T09:12:36.999Z</time></trkpt><trkpt lat="45.280999710210835" lon="9.280016163340221"><ele>82.0</ele><time>2026-04-11T09:12:37.999Z</time></trkpt><trkpt lat="45.28087798109518" lon="9.28009757420857"><ele>82.0</ele><time>2026-04-11T09:12:38.999Z</time></trkpt><trkpt lat="45.28075330023428" lon="9.280192331288282"><ele>82.0</ele><time>2026-04-11T09:12:39.999Z</time></trkpt><trkpt lat="45.280619887935465" lon="9.28030261037563"><ele>82.0</ele><time>2026-04-11T09:12:40.999Z</time></trkpt><trkpt lat="45.28047458714855" lon="9.28038919682012"><ele>82.25</ele><time>2026-04-11T09:12:41.999Z</time></trkpt><trkpt lat="45.280327546515196" lon="9.280465040450299"><ele>82.5</ele><time>2026-04-11T09:12:42.999Z</time></trkpt><trkpt lat="45.28019251097279" lon="9.280547329435032"><ele>82.75</ele><time>2026-04-11T09:12:43.999Z</time></trkpt><trkpt lat="45.28006194913422" lon="9.280630770734282"><ele>83.0</ele><time>2026-04-11T09:12:44.999Z</time></trkpt><trkpt lat="45.27992929483637" lon="9.28072077107341"><ele>83.0</ele><time>2026-04-11T09:12:45.999Z</time></trkpt><trkpt lat="45.27978863083064" lon="9.28081169491738"><ele>83.0</ele><time>2026-04-11T09:12:46.999Z</time></trkpt><trkpt lat="45.279651487991515" lon="9.280918707138456"><ele>83.0</ele><time>2026-04-11T09:12:47.999Z</time></trkpt><trkpt lat="45.27955846638836" lon="9.280976116480797"><ele>83.0</ele><time>2026-04-11T09:12:48.999Z</time></trkpt><trkpt lat="45.27942980600769" lon="9.281070583424452"><ele>82.75</ele><time>2026-04-11T09:12:49.999Z</time></trkpt><trkpt lat="45.279299649542594" lon="9.28117036584465"><ele>82.5</ele><time>2026-04-11T09:12:50.998Z</time></trkpt><trkpt lat="45.27917004538592" lon="9.281262154355673"><ele>82.25</ele><time>2026-04-11T09:12:51.998Z</time></trkpt><trkpt lat="45.27903320370511" lon="9.281336588851202"><ele>82.0</ele><time>2026-04-11T09:12:52.998Z</time></trkpt><trkpt lat="45.278914066607314" lon="9.281421346620084"><ele>81.5</ele><time>2026-04-11T09:12:53.998Z</time></trkpt><trkpt lat="45.27880933353232" lon="9.281507698387792"><ele>81.0</ele><time>2026-04-11T09:12:55Z</time></trkpt><trkpt lat="45.278714853282764" lon="9.281593524418604"><ele>80.5</ele><time>2026-04-11T09:12:56Z</time></trkpt><trkpt lat="45.278637437697185" lon="9.2817149748336"><ele>80.0</ele><time>2026-04-11T09:12:57Z</time></trkpt><trkpt lat="45.278587977333515" lon="9.281885261779863"><ele>80.0</ele><time>2026-04-11T09:12:58Z</time></trkpt><trkpt lat="45.27857735590724" lon="9.282090246621692"><ele>80.0</ele><time>2026-04-11T09:12:59Z</time></trkpt><trkpt lat="45.27857964284817" lon="9.282301733466028"><ele>80.0</ele><time>2026-04-11T09:13:00Z</time></trkpt><trkpt lat="45.27856677866463" lon="9.282510945199835"><ele>80.0</ele><time>2026-04-11T09:13:01Z</time></trkpt><trkpt lat="45.27855501623271" lon="9.28270852414141"><ele>80.5</ele><time>2026-04-11T09:13:02Z</time></trkpt><trkpt lat="45.27854161361131" lon="9.282902672103445"><ele>81.0</ele><time>2026-04-11T09:13:03Z</time></trkpt><trkpt lat="45.27852344250091" lon="9.28309741473332"><ele>81.5</ele><time>2026-04-11T09:13:04Z</time></trkpt><trkpt lat="45.27852476560266" lon="9.283303125367832"><ele>82.0</ele><time>2026-04-11T09:13:05Z</time></trkpt><trkpt lat="45.27855045882458" lon="9.28351503540835"><ele>82.0</ele><time>2026-04-11T09:13:06Z</time></trkpt><trkpt lat="45.27858500465814" lon="9.28373818908413"><ele>82.0</ele><time>2026-04-11T09:13:07Z</time></trkpt><trkpt lat="45.278629281144994" lon="9.283950034505613"><ele>82.0</ele><time>2026-04-11T09:13:08Z</time></trkpt><trkpt lat="45.278679805965886" lon="9.284150070018665"><ele>82.0</ele><time>2026-04-11T09:13:09Z</time></trkpt><trkpt lat="45.278720590214846" lon="9.284367368353635"><ele>82.0</ele><time>2026-04-11T09:13:10Z</time></trkpt><trkpt lat="45.278771252729996" lon="9.284588320760157"><ele>82.0</ele><time>2026-04-11T09:13:11Z</time></trkpt><trkpt lat="45.2788179649404" lon="9.284806046651642"><ele>82.25</ele><time>2026-04-11T09:13:12Z</time></trkpt><trkpt lat="45.27885916278081" lon="9.285012688262842"><ele>82.5</ele><time>2026-04-11T09:13:13Z</time></trkpt><trkpt lat="45.278896402881706" lon="9.285215597744473"><ele>82.75</ele><time>2026-04-11T09:13:14Z</time></trkpt><trkpt lat="45.27893155471623" lon="9.285412485512866"><ele>83.0</ele><time>2026-04-11T09:13:15Z</time></trkpt><trkpt lat="45.27896328446883" lon="9.285606465367554"><ele>82.5</ele><time>2026-04-11T09:13:16Z</time></trkpt><trkpt lat="45.27899650255682" lon="9.28580179958598"><ele>82.0</ele><time>2026-04-11T09:13:17Z</time></trkpt><trkpt lat="45.279032235206685" lon="9.28600312172616"><ele>81.5</ele><time>2026-04-11T09:13:18Z</time></trkpt><trkpt lat="45.279072208441974" lon="9.286206408055461"><ele>81.0</ele><time>2026-04-11T09:13:19Z</time></trkpt><trkpt lat="45.279110183898986" lon="9.286421826522636"><ele>81.0</ele><time>2026-04-11T09:13:20Z</time></trkpt><trkpt lat="45.27914801208953" lon="9.286634401905152"><ele>81.0</ele><time>2026-04-11T09:13:21Z</time></trkpt><trkpt lat="45.2791892135026" lon="9.286850467216173"><ele>81.0</ele><time>2026-04-11T09:13:22Z</time></trkpt><trkpt lat="45.279229128216244" lon="9.287063419635306"><ele>81.33333333333333</ele><time>2026-04-11T09:13:23Z</time></trkpt><trkpt lat="45.27927421884136" lon="9.28728398674491"><ele>81.66666666666666</ele><time>2026-04-11T09:13:24Z</time></trkpt><trkpt lat="45.27932213193578" lon="9.287507551617178"><ele>82.0</ele><time>2026-04-11T09:13:25Z</time></trkpt><trkpt lat="45.27936992089112" lon="9.287730657459576"><ele>82.0</ele><time>2026-04-11T09:13:26Z</time></trkpt><trkpt lat="45.27939518997706" lon="9.287922349591625"><ele>82.0</ele><time>2026-04-11T09:13:27Z</time></trkpt><trkpt lat="45.279427799896574" lon="9.288096679298414"><ele>82.0</ele><time>2026-04-11T09:13:28Z</time></trkpt><trkpt lat="45.279458124236044" lon="9.288265581090144"><ele>82.0</ele><time>2026-04-11T09:13:29Z</time></trkpt><trkpt lat="45.27948675910901" lon="9.288426613075782"><ele>82.0</ele><time>2026-04-11T09:13:30Z</time></trkpt><trkpt lat="45.27952140087026" lon="9.288593875401432"><ele>82.0</ele><time>2026-04-11T09:13:31Z</time></trkpt><trkpt lat="45.27955852299574" lon="9.288753836048553"><ele>82.0</ele><time>2026-04-11T09:13:32Z</time></trkpt><trkpt lat="45.27959681006845" lon="9.288886295905334"><ele>82.0</ele><time>2026-04-11T09:13:33Z</time></trkpt><trkpt lat="45.279617745406405" lon="9.288998142347737"><ele>82.0</ele><time>2026-04-11T09:13:34Z</time></trkpt><trkpt lat="45.279613697019876" lon="9.289120400535694"><ele>82.0</ele><time>2026-04-11T09:13:35Z</time></trkpt><trkpt lat="45.279580891892586" lon="9.289267291668958"><ele>82.0</ele><time>2026-04-11T09:13:36Z</time></trkpt><trkpt lat="45.279535407807344" lon="9.289414022715828"><ele>82.0</ele><time>2026-04-11T09:13:37Z</time></trkpt><trkpt lat="45.27948591161408" lon="9.289524917155264"><ele>82.0</ele><time>2026-04-11T09:13:38Z</time></trkpt><trkpt lat="45.27941230349957" lon="9.289624553886656"><ele>82.0</ele><time>2026-04-11T09:13:39Z</time></trkpt><trkpt lat="45.27928253632616" lon="9.289683587292677"><ele>82.0</ele><time>2026-04-11T09:13:40Z</time></trkpt><trkpt lat="45.27912763736165" lon="9.289734721122946"><ele>82.0</ele><time>2026-04-11T09:13:41Z</time></trkpt><trkpt lat="45.278957757229904" lon="9.289801541949672"><ele>82.0</ele><time>2026-04-11T09:13:42Z</time></trkpt><trkpt lat="45.27878771452034" lon="9.289871211089128"><ele>82.0</ele><time>2026-04-11T09:13:43Z</time></trkpt><trkpt lat="45.27862931229741" lon="9.28993189559243"><ele>82.0</ele><time>2026-04-11T09:13:43.999Z</time></trkpt><trkpt lat="45.27847392419326" lon="9.290006996924072"><ele>82.0</ele><time>2026-04-11T09:13:44.999Z</time></trkpt><trkpt lat="45.27830881151192" lon="9.290078697179094"><ele>82.0</ele><time>2026-04-11T09:13:45.999Z</time></trkpt><trkpt lat="45.27813547694884" lon="9.290157803664142"><ele>82.0</ele><time>2026-04-11T09:13:46.999Z</time></trkpt><trkpt lat="45.27795766490931" lon="9.290240651182094"><ele>82.0</ele><time>2026-04-11T09:13:47.999Z</time></trkpt><trkpt lat="45.27778926698173" lon="9.290319008362575"><ele>82.33333333333333</ele><time>2026-04-11T09:13:48.999Z</time></trkpt><trkpt lat="45.2776022791278" lon="9.290405315315079"><ele>82.66666666666667</ele><time>2026-04-11T09:13:49.999Z</time></trkpt><trkpt lat="45.277420008494786" lon="9.290485507888205"><ele>83.0</ele><time>2026-04-11T09:13:50.999Z</time></trkpt><trkpt lat="45.27724863773447" lon="9.290565108972702"><ele>82.66666666666667</ele><time>2026-04-11T09:13:51.999Z</time></trkpt><trkpt lat="45.277072221367504" lon="9.290646915745157"><ele>82.33333333333333</ele><time>2026-04-11T09:13:52.999Z</time></trkpt><trkpt lat="45.27689495629842" lon="9.290724543148258"><ele>82.0</ele><time>2026-04-11T09:13:53.999Z</time></trkpt><trkpt lat="45.27671472972303" lon="9.29080371111362"><ele>82.0</ele><time>2026-04-11T09:13:54.999Z</time></trkpt><trkpt lat="45.27652361357304" lon="9.290887077915656"><ele>82.0</ele><time>2026-04-11T09:13:55.999Z</time></trkpt><trkpt lat="45.27633573634418" lon="9.290961456115687"><ele>82.0</ele><time>2026-04-11T09:13:56.999Z</time></trkpt><trkpt lat="45.27614209502674" lon="9.291046357585518"><ele>82.0</ele><time>2026-04-11T09:13:57.999Z</time></trkpt><trkpt lat="45.27594748255282" lon="9.291137502261238"><ele>82.0</ele><time>2026-04-11T09:13:58.999Z</time></trkpt><trkpt lat="45.27575527209427" lon="9.291231076539747"><ele>82.0</ele><time>2026-04-11T09:13:59.999Z</time></trkpt><trkpt lat="45.27555947515685" lon="9.29133296609042"><ele>81.66666666666666</ele><time>2026-04-11T09:14:00.999Z</time></trkpt><trkpt lat="45.2753663593564" lon="9.291439571074948"><ele>81.33333333333333</ele><time>2026-04-11T09:14:01.999Z</time></trkpt><trkpt lat="45.275162808670885" lon="9.29155403388459"><ele>81.0</ele><time>2026-04-11T09:14:02.999Z</time></trkpt><trkpt lat="45.27496998142649" lon="9.291676952827206"><ele>81.0</ele><time>2026-04-11T09:14:03.999Z</time></trkpt><trkpt lat="45.27477801466444" lon="9.291803129992172"><ele>81.0</ele><time>2026-04-11T09:14:04.999Z</time></trkpt><trkpt lat="45.274582581442736" lon="9.291933021625214"><ele>81.0</ele><time>2026-04-11T09:14:05.999Z</time></trkpt><trkpt lat="45.274385203731875" lon="9.29207292100626"><ele>81.0</ele><time>2026-04-11T09:14:06.999Z</time></trkpt><trkpt lat="45.2741914835964" lon="9.292211468663378"><ele>81.0</ele><time>2026-04-11T09:14:07.999Z</time></trkpt><trkpt lat="45.273993627392436" lon="9.29234924686247"><ele>81.0</ele><time>2026-04-11T09:14:08.999Z</time></trkpt><trkpt lat="45.27379215141268" lon="9.292481991875292"><ele>81.33333333333333</ele><time>2026-04-11T09:14:09.999Z</time></trkpt><trkpt lat="45.27359989668449" lon="9.292618650447196"><ele>81.66666666666666</ele><time>2026-04-11T09:14:10.999Z</time></trkpt><trkpt lat="45.27340689379336" lon="9.29276212817318"><ele>82.0</ele><time>2026-04-11T09:14:11.999Z</time></trkpt><trkpt lat="45.273207356885266" lon="9.292899274861016"><ele>82.0</ele><time>2026-04-11T09:14:12.999Z</time></trkpt><trkpt lat="45.273018573936625" lon="9.293034032367258"><ele>82.0</ele><time>2026-04-11T09:14:13.999Z</time></trkpt><trkpt lat="45.27283285979305" lon="9.2931734319808"><ele>82.0</ele><time>2026-04-11T09:14:14.999Z</time></trkpt><trkpt lat="45.27264937721287" lon="9.293306859103486"><ele>82.0</ele><time>2026-04-11T09:14:15.999Z</time></trkpt><trkpt lat="45.27246497042017" lon="9.293441010080622"><ele>82.0</ele><time>2026-04-11T09:14:16.999Z</time></trkpt><trkpt lat="45.27228098260392" lon="9.29357511530847"><ele>82.0</ele><time>2026-04-11T09:14:17.999Z</time></trkpt><trkpt lat="45.27209882115219" lon="9.293708867393383"><ele>82.0</ele><time>2026-04-11T09:14:18.999Z</time></trkpt><trkpt lat="45.27191959305906" lon="9.29383878080956"><ele>82.0</ele><time>2026-04-11T09:14:19.999Z</time></trkpt><trkpt lat="45.27173743090232" lon="9.293972127764388"><ele>82.0</ele><time>2026-04-11T09:14:20.999Z</time></trkpt><trkpt lat="45.27156021263295" lon="9.294102991866142"><ele>82.0</ele><time>2026-04-11T09:14:21.999Z</time></trkpt><trkpt lat="45.27137787976225" lon="9.294238828385385"><ele>82.0</ele><time>2026-04-11T09:14:22.999Z</time></trkpt><trkpt lat="45.27119369963167" lon="9.29436986908773"><ele>82.0</ele><time>2026-04-11T09:14:23.999Z</time></trkpt><trkpt lat="45.27101464319643" lon="9.294498644980836"><ele>82.0</ele><time>2026-04-11T09:14:24.999Z</time></trkpt><trkpt lat="45.27083622757915" lon="9.294628854506785"><ele>82.0</ele><time>2026-04-11T09:14:25.999Z</time></trkpt><trkpt lat="45.27065744083715" lon="9.29475965259312"><ele>82.0</ele><time>2026-04-11T09:14:26.999Z</time></trkpt><trkpt lat="45.27047431523416" lon="9.294888982325002"><ele>81.33333333333333</ele><time>2026-04-11T09:14:27.999Z</time></trkpt><trkpt lat="45.270291861238825" lon="9.295002999341644"><ele>80.66666666666667</ele><time>2026-04-11T09:14:28.999Z</time></trkpt><trkpt lat="45.270111785107105" lon="9.29510337776219"><ele>80.0</ele><time>2026-04-11T09:14:29.999Z</time></trkpt><trkpt lat="45.26994335575978" lon="9.295209093944708"><ele>80.33333333333334</ele><time>2026-04-11T09:14:30.999Z</time></trkpt><trkpt lat="45.269773385199755" lon="9.295323431506345"><ele>80.66666666666667</ele><time>2026-04-11T09:14:31.999Z</time></trkpt><trkpt lat="45.26959726075993" lon="9.295435560695957"><ele>81.0</ele><time>2026-04-11T09:14:32.999Z</time></trkpt><trkpt lat="45.269419386882745" lon="9.295546868555919"><ele>81.0</ele><time>2026-04-11T09:14:33.999Z</time></trkpt><trkpt lat="45.26924434697985" lon="9.295657771826669"><ele>81.0</ele><time>2026-04-11T09:14:34.999Z</time></trkpt><trkpt lat="45.269070384000315" lon="9.29576741479761"><ele>81.0</ele><time>2026-04-11T09:14:35.999Z</time></trkpt><trkpt lat="45.26888756017621" lon="9.2958812328525"><ele>82.0</ele><time>2026-04-11T09:14:36.999Z</time></trkpt><trkpt lat="45.26870812901875" lon="9.29599414443159"><ele>83.0</ele><time>2026-04-11T09:14:37.999Z</time></trkpt><trkpt lat="45.268526927016055" lon="9.296109398049701"><ele>84.0</ele><time>2026-04-11T09:14:38.999Z</time></trkpt><trkpt lat="45.268345791031635" lon="9.296226087941966"><ele>84.0</ele><time>2026-04-11T09:14:39.999Z</time></trkpt><trkpt lat="45.26817589626527" lon="9.29633846926838"><ele>84.0</ele><time>2026-04-11T09:14:40.999Z</time></trkpt><trkpt lat="45.2680131586789" lon="9.296439988705623"><ele>84.0</ele><time>2026-04-11T09:14:41.999Z</time></trkpt><trkpt lat="45.26785651494758" lon="9.296536032360136"><ele>82.66666666666667</ele><time>2026-04-11T09:14:42.999Z</time></trkpt><trkpt lat="45.26770115419976" lon="9.296648905349965"><ele>81.33333333333334</ele><time>2026-04-11T09:14:43.999Z</time></trkpt><trkpt lat="45.26754800718531" lon="9.296754235421961"><ele>80.0</ele><time>2026-04-11T09:14:44.999Z</time></trkpt><trkpt lat="45.26741563021662" lon="9.29682802993625"><ele>80.0</ele><time>2026-04-11T09:14:45.999Z</time></trkpt><trkpt lat="45.2673159308371" lon="9.2968626794292"><ele>80.0</ele><time>2026-04-11T09:14:46.999Z</time></trkpt><trkpt lat="45.26721763699175" lon="9.29686323060345"><ele>80.0</ele><time>2026-04-11T09:14:47.999Z</time></trkpt><trkpt lat="45.26708951739991" lon="9.296818658929547"><ele>80.0</ele><time>2026-04-11T09:14:48.999Z</time></trkpt><trkpt lat="45.26695042884913" lon="9.296755754935862"><ele>80.0</ele><time>2026-04-11T09:14:49.999Z</time></trkpt><trkpt lat="45.266811995119625" lon="9.296701179857271"><ele>80.0</ele><time>2026-04-11T09:14:50.999Z</time></trkpt><trkpt lat="45.266667524496974" lon="9.296616144689784"><ele>80.0</ele><time>2026-04-11T09:14:51.999Z</time></trkpt><trkpt lat="45.26653109145877" lon="9.296483314554381"><ele>80.0</ele><time>2026-04-11T09:14:52.999Z</time></trkpt><trkpt lat="45.26637011649517" lon="9.296366007383916"><ele>80.0</ele><time>2026-04-11T09:14:53.999Z</time></trkpt><trkpt lat="45.26618128357231" lon="9.296303182105296"><ele>80.0</ele><time>2026-04-11T09:14:54.999Z</time></trkpt><trkpt lat="45.266001583326286" lon="9.296277508062888"><ele>80.0</ele><time>2026-04-11T09:14:55.999Z</time></trkpt><trkpt lat="45.265823815745435" lon="9.296302909805267"><ele>80.0</ele><time>2026-04-11T09:14:56.999Z</time></trkpt><trkpt lat="45.26563013645769" lon="9.296366179784663"><ele>80.0</ele><time>2026-04-11T09:14:57.999Z</time></trkpt><trkpt lat="45.26542994839507" lon="9.29642747911658"><ele>81.0</ele><time>2026-04-11T09:14:58.998Z</time></trkpt><trkpt lat="45.26522314087522" lon="9.296478162891903"><ele>82.0</ele><time>2026-04-11T09:14:59.998Z</time></trkpt><trkpt lat="45.26501447046224" lon="9.296544224686452"><ele>83.0</ele><time>2026-04-11T09:15:01Z</time></trkpt><trkpt lat="45.26480247000847" lon="9.296607751455765"><ele>81.5</ele><time>2026-04-11T09:15:02Z</time></trkpt><trkpt lat="45.26458504389424" lon="9.296668950587012"><ele>80.0</ele><time>2026-04-11T09:15:03Z</time></trkpt><trkpt lat="45.26435672026059" lon="9.296727753563456"><ele>80.0</ele><time>2026-04-11T09:15:04Z</time></trkpt><trkpt lat="45.26411249627038" lon="9.296744602021876"><ele>80.0</ele><time>2026-04-11T09:15:05Z</time></trkpt><trkpt lat="45.263868551530095" lon="9.296717241916465"><ele>79.33333333333334</ele><time>2026-04-11T09:15:06Z</time></trkpt><trkpt lat="45.26363922746683" lon="9.296686700478041"><ele>78.66666666666667</ele><time>2026-04-11T09:15:07Z</time></trkpt><trkpt lat="45.26342241999305" lon="9.296685597278218"><ele>78.0</ele><time>2026-04-11T09:15:08Z</time></trkpt><trkpt lat="45.26318777349936" lon="9.29669210578865"><ele>77.5</ele><time>2026-04-11T09:15:09Z</time></trkpt><trkpt lat="45.26295339854654" lon="9.29670246763636"><ele>77.0</ele><time>2026-04-11T09:15:10Z</time></trkpt><trkpt lat="45.26271906082379" lon="9.29672476228602"><ele>77.0</ele><time>2026-04-11T09:15:11Z</time></trkpt><trkpt lat="45.26248234508737" lon="9.296769954378505"><ele>77.0</ele><time>2026-04-11T09:15:12Z</time></trkpt><trkpt lat="45.262245124877396" lon="9.296829611877397"><ele>78.0</ele><time>2026-04-11T09:15:13Z</time></trkpt><trkpt lat="45.262012997688714" lon="9.296880999208202"><ele>79.0</ele><time>2026-04-11T09:15:14Z</time></trkpt><trkpt lat="45.26178186660289" lon="9.296934371802388"><ele>79.0</ele><time>2026-04-11T09:15:15Z</time></trkpt><trkpt lat="45.26155512919328" lon="9.29699937714585"><ele>79.0</ele><time>2026-04-11T09:15:16Z</time></trkpt><trkpt lat="45.26132887371075" lon="9.297077760327525"><ele>79.0</ele><time>2026-04-11T09:15:17Z</time></trkpt><trkpt lat="45.26110964184106" lon="9.297159349440545"><ele>79.0</ele><time>2026-04-11T09:15:18Z</time></trkpt><trkpt lat="45.2608962922611" lon="9.297243730903148"><ele>79.0</ele><time>2026-04-11T09:15:19Z</time></trkpt><trkpt lat="45.26068847229433" lon="9.297325051251569"><ele>78.66666666666666</ele><time>2026-04-11T09:15:20Z</time></trkpt><trkpt lat="45.26047532861884" lon="9.297406262312846"><ele>78.33333333333333</ele><time>2026-04-11T09:15:21Z</time></trkpt><trkpt lat="45.2602604597847" lon="9.297495789110476"><ele>78.0</ele><time>2026-04-11T09:15:22Z</time></trkpt><trkpt lat="45.26004936588523" lon="9.2976156595487"><ele>78.0</ele><time>2026-04-11T09:15:23Z</time></trkpt><trkpt lat="45.25984678555609" lon="9.29776903616069"><ele>78.0</ele><time>2026-04-11T09:15:24Z</time></trkpt><trkpt lat="45.25964583631472" lon="9.297918148188572"><ele>77.5</ele><time>2026-04-11T09:15:25Z</time></trkpt><trkpt lat="45.25944034116462" lon="9.298056335032081"><ele>77.0</ele><time>2026-04-11T09:15:26Z</time></trkpt><trkpt lat="45.259232032467736" lon="9.298205497496555"><ele>78.0</ele><time>2026-04-11T09:15:27Z</time></trkpt><trkpt lat="45.25902737202901" lon="9.298351463588052"><ele>79.0</ele><time>2026-04-11T09:15:28Z</time></trkpt><trkpt lat="45.25881643419216" lon="9.298493084067253"><ele>79.0</ele><time>2026-04-11T09:15:29Z</time></trkpt><trkpt lat="45.258608875841006" lon="9.298636011686078"><ele>79.0</ele><time>2026-04-11T09:15:30Z</time></trkpt><trkpt lat="45.25840118156303" lon="9.298782980078737"><ele>78.5</ele><time>2026-04-11T09:15:31Z</time></trkpt><trkpt lat="45.25819496702233" lon="9.29892246162474"><ele>78.0</ele><time>2026-04-11T09:15:32Z</time></trkpt><trkpt lat="45.257985273696775" lon="9.29906903887772"><ele>78.0</ele><time>2026-04-11T09:15:33Z</time></trkpt><trkpt lat="45.25777739124433" lon="9.299218109990418"><ele>78.0</ele><time>2026-04-11T09:15:34Z</time></trkpt><trkpt lat="45.257569492451836" lon="9.29936319721211"><ele>78.0</ele><time>2026-04-11T09:15:35Z</time></trkpt><trkpt lat="45.25736412212083" lon="9.29951063586195"><ele>78.0</ele><time>2026-04-11T09:15:36Z</time></trkpt><trkpt lat="45.257154833698145" lon="9.299657025150614"><ele>77.5</ele><time>2026-04-11T09:15:37Z</time></trkpt><trkpt lat="45.25694597018652" lon="9.299800229414343"><ele>77.0</ele><time>2026-04-11T09:15:38Z</time></trkpt><trkpt lat="45.25673788926414" lon="9.29994275852595"><ele>77.0</ele><time>2026-04-11T09:15:39Z</time></trkpt><trkpt lat="45.25652845745029" lon="9.300085771817937"><ele>77.0</ele><time>2026-04-11T09:15:40Z</time></trkpt><trkpt lat="45.256320103328086" lon="9.300230171862353"><ele>77.0</ele><time>2026-04-11T09:15:41Z</time></trkpt><trkpt lat="45.256109563707675" lon="9.300374970076174"><ele>77.0</ele><time>2026-04-11T09:15:42Z</time></trkpt><trkpt lat="45.25590213426794" lon="9.300518322013662"><ele>77.5</ele><time>2026-04-11T09:15:43Z</time></trkpt><trkpt lat="45.25569727786972" lon="9.300664581462609"><ele>78.0</ele><time>2026-04-11T09:15:44Z</time></trkpt><trkpt lat="45.25549690814968" lon="9.300808967770834"><ele>78.0</ele><time>2026-04-11T09:15:45Z</time></trkpt><trkpt lat="45.25529430036527" lon="9.300950132881995"><ele>78.0</ele><time>2026-04-11T09:15:46Z</time></trkpt><trkpt lat="45.25509277610253" lon="9.301092134314873"><ele>78.0</ele><time>2026-04-11T09:15:47Z</time></trkpt><trkpt lat="45.25489376930501" lon="9.30123543222035"><ele>78.0</ele><time>2026-04-11T09:15:48Z</time></trkpt><trkpt lat="45.25470072219258" lon="9.301374570463095"><ele>78.0</ele><time>2026-04-11T09:15:49Z</time></trkpt><trkpt lat="45.25451763129984" lon="9.301502951895664"><ele>78.0</ele><time>2026-04-11T09:15:50Z</time></trkpt><trkpt lat="45.254342958888856" lon="9.301627604094646"><ele>78.0</ele><time>2026-04-11T09:15:51Z</time></trkpt><trkpt lat="45.25417519613918" lon="9.301748259005286"><ele>78.0</ele><time>2026-04-11T09:15:51.999Z</time></trkpt><trkpt lat="45.254027734970336" lon="9.301855335050757"><ele>78.0</ele><time>2026-04-11T09:15:52.999Z</time></trkpt><trkpt lat="45.2538919860923" lon="9.301955807261772"><ele>78.0</ele><time>2026-04-11T09:15:53.999Z</time></trkpt><trkpt lat="45.25376707255428" lon="9.302049245583962"><ele>78.0</ele><time>2026-04-11T09:15:54.999Z</time></trkpt><trkpt lat="45.253652623889465" lon="9.302132778661825"><ele>78.0</ele><time>2026-04-11T09:15:55.999Z</time></trkpt><trkpt lat="45.25353205367293" lon="9.302156746754518"><ele>78.0</ele><time>2026-04-11T09:15:56.999Z</time></trkpt><trkpt lat="45.25339681862399" lon="9.302119589360595"><ele>78.0</ele><time>2026-04-11T09:15:57.999Z</time></trkpt><trkpt lat="45.2532707818397" lon="9.302034804503812"><ele>78.0</ele><time>2026-04-11T09:15:58.999Z</time></trkpt><trkpt lat="45.25315088277515" lon="9.301898900719523"><ele>78.0</ele><time>2026-04-11T09:15:59.999Z</time></trkpt><trkpt lat="45.25303900814685" lon="9.301727205032972"><ele>78.0</ele><time>2026-04-11T09:16:00.999Z</time></trkpt><trkpt lat="45.25295036894103" lon="9.301521216889657"><ele>78.0</ele><time>2026-04-11T09:16:01.999Z</time></trkpt><trkpt lat="45.25287774335419" lon="9.30130972794617"><ele>78.0</ele><time>2026-04-11T09:16:02.999Z</time></trkpt><trkpt lat="45.25280934142494" lon="9.301131573900983"><ele>78.5</ele><time>2026-04-11T09:16:03.999Z</time></trkpt><trkpt lat="45.2527297575614" lon="9.300981902355122"><ele>79.0</ele><time>2026-04-11T09:16:04.999Z</time></trkpt><trkpt lat="45.25261879762548" lon="9.300836590968126"><ele>79.5</ele><time>2026-04-11T09:16:05.999Z</time></trkpt><trkpt lat="45.25247482396569" lon="9.300726398761318"><ele>80.0</ele><time>2026-04-11T09:16:06.999Z</time></trkpt><trkpt lat="45.252315065048826" lon="9.300627187300707"><ele>80.0</ele><time>2026-04-11T09:16:07.999Z</time></trkpt><trkpt lat="45.25217537968073" lon="9.300525354292958"><ele>80.0</ele><time>2026-04-11T09:16:08.999Z</time></trkpt><trkpt lat="45.25205127463297" lon="9.300429097747886"><ele>80.0</ele><time>2026-04-11T09:16:09.999Z</time></trkpt><trkpt lat="45.2519222138158" lon="9.300336794816918"><ele>80.0</ele><time>2026-04-11T09:16:10.999Z</time></trkpt><trkpt lat="45.251803169746445" lon="9.300254455100514"><ele>80.0</ele><time>2026-04-11T09:16:11.999Z</time></trkpt><trkpt lat="45.2516950880934" lon="9.300182285536113"><ele>80.0</ele><time>2026-04-11T09:16:12.999Z</time></trkpt><trkpt lat="45.251598811107094" lon="9.3001243602146"><ele>80.0</ele><time>2026-04-11T09:16:13.999Z</time></trkpt><trkpt lat="45.251523918709985" lon="9.300072839675542"><ele>80.0</ele><time>2026-04-11T09:16:14.999Z</time></trkpt><trkpt lat="45.25146332589426" lon="9.300034006667547"><ele>80.0</ele><time>2026-04-11T09:16:15.999Z</time></trkpt><trkpt lat="45.2513621845896" lon="9.29996608731264"><ele>79.8</ele><time>2026-04-11T09:16:17.999Z</time></trkpt><trkpt lat="45.25126947944531" lon="9.299888617276126"><ele>79.6</ele><time>2026-04-11T09:16:19.999Z</time></trkpt><trkpt lat="45.25120718290483" lon="9.299852632892087"><ele>79.4</ele><time>2026-04-11T09:16:20.999Z</time></trkpt><trkpt lat="45.25110085946684" lon="9.29978662865651"><ele>79.2</ele><time>2026-04-11T09:16:22.999Z</time></trkpt><trkpt lat="45.251021620224876" lon="9.299731087183428"><ele>79.0</ele><time>2026-04-11T09:16:24.999Z</time></trkpt><trkpt lat="45.250959117521106" lon="9.299666463039358"><ele>79.0</ele><time>2026-04-11T09:16:26.999Z</time></trkpt><trkpt lat="45.25089686996867" lon="9.299599414385197"><ele>79.0</ele><time>2026-04-11T09:16:28.999Z</time></trkpt><trkpt lat="45.250860905753335" lon="9.299516732420512"><ele>79.0</ele><time>2026-04-11T09:16:33.999Z</time></trkpt><trkpt lat="45.25081827057722" lon="9.299600868160338"><ele>79.0</ele><time>2026-04-11T09:16:37.999Z</time></trkpt><trkpt lat="45.25091912970973" lon="9.299706048924467"><ele>79.0</ele><time>2026-04-11T09:16:39.999Z</time></trkpt><trkpt lat="45.25099926259453" lon="9.299743518462623"><ele>79.0</ele><time>2026-04-11T09:16:40.999Z</time></trkpt><trkpt lat="45.25107588482687" lon="9.299792160009401"><ele>79.0</ele><time>2026-04-11T09:16:41.999Z</time></trkpt><trkpt lat="45.25114783921111" lon="9.299844347310676"><ele>79.0</ele><time>2026-04-11T09:16:42.999Z</time></trkpt><trkpt lat="45.25121795807046" lon="9.299898748789829"><ele>79.0</ele><time>2026-04-11T09:16:43.999Z</time></trkpt><trkpt lat="45.251304374206136" lon="9.299961312498894"><ele>79.0</ele><time>2026-04-11T09:16:44.999Z</time></trkpt><trkpt lat="45.25140027115059" lon="9.300029365806148"><ele>79.0</ele><time>2026-04-11T09:16:45.999Z</time></trkpt><trkpt lat="45.2514885130999" lon="9.300089395637132"><ele>79.2</ele><time>2026-04-11T09:16:46.999Z</time></trkpt><trkpt lat="45.25157520853235" lon="9.300148857354273"><ele>79.4</ele><time>2026-04-11T09:16:47.999Z</time></trkpt><trkpt lat="45.25167600758177" lon="9.300215465161186"><ele>79.6</ele><time>2026-04-11T09:16:48.999Z</time></trkpt><trkpt lat="45.251784864163895" lon="9.300287540110315"><ele>79.8</ele><time>2026-04-11T09:16:49.999Z</time></trkpt><trkpt lat="45.25188790138778" lon="9.300356635994149"><ele>80.0</ele><time>2026-04-11T09:16:50.999Z</time></trkpt><trkpt lat="45.25198889108935" lon="9.300428214292962"><ele>80.0</ele><time>2026-04-11T09:16:51.999Z</time></trkpt><trkpt lat="45.2520843153751" lon="9.30049427275446"><ele>80.0</ele><time>2026-04-11T09:16:52.999Z</time></trkpt><trkpt lat="45.2521801436909" lon="9.300563556824399"><ele>80.0</ele><time>2026-04-11T09:16:53.999Z</time></trkpt><trkpt lat="45.2522765667607" lon="9.300635669515005"><ele>80.0</ele><time>2026-04-11T09:16:54.999Z</time></trkpt><trkpt lat="45.25237250245096" lon="9.3007147814733"><ele>80.0</ele><time>2026-04-11T09:16:55.999Z</time></trkpt><trkpt lat="45.2524651268635" lon="9.30078335560901"><ele>80.0</ele><time>2026-04-11T09:16:56.999Z</time></trkpt><trkpt lat="45.25255769949759" lon="9.300849409033999"><ele>80.0</ele><time>2026-04-11T09:16:57.999Z</time></trkpt><trkpt lat="45.252645194816296" lon="9.300918550785404"><ele>80.0</ele><time>2026-04-11T09:16:58.999Z</time></trkpt><trkpt lat="45.252725935063125" lon="9.300996184967252"><ele>80.0</ele><time>2026-04-11T09:16:59.999Z</time></trkpt><trkpt lat="45.252798287980255" lon="9.301082775441584"><ele>80.0</ele><time>2026-04-11T09:17:00.999Z</time></trkpt><trkpt lat="45.25285400496833" lon="9.301193336628717"><ele>80.0</ele><time>2026-04-11T09:17:01.999Z</time></trkpt><trkpt lat="45.25290056004497" lon="9.301311984331914"><ele>80.0</ele><time>2026-04-11T09:17:02.999Z</time></trkpt><trkpt lat="45.25294888039248" lon="9.301429566591347"><ele>80.0</ele><time>2026-04-11T09:17:03.999Z</time></trkpt><trkpt lat="45.25300064679271" lon="9.301543589033582"><ele>80.0</ele><time>2026-04-11T09:17:04.999Z</time></trkpt><trkpt lat="45.25305053790231" lon="9.301644552493077"><ele>80.0</ele><time>2026-04-11T09:17:05.999Z</time></trkpt><trkpt lat="45.253092411219576" lon="9.301727720154197"><ele>80.0</ele><time>2026-04-11T09:17:07Z</time></trkpt><trkpt lat="45.253156492737205" lon="9.301854763888574"><ele>79.66666666666667</ele><time>2026-04-11T09:17:09Z</time></trkpt><trkpt lat="45.253228708857876" lon="9.30196289839281"><ele>79.33333333333334</ele><time>2026-04-11T09:17:11Z</time></trkpt><trkpt lat="45.25329919760205" lon="9.302074434379675"><ele>79.0</ele><time>2026-04-11T09:17:13Z</time></trkpt><trkpt lat="45.25334086531691" lon="9.302172937039929"><ele>78.66666666666667</ele><time>2026-04-11T09:17:15Z</time></trkpt><trkpt lat="45.25339307265341" lon="9.302254711471166"><ele>78.33333333333333</ele><time>2026-04-11T09:17:17Z</time></trkpt><trkpt lat="45.253457839948084" lon="9.30231607915568"><ele>78.0</ele><time>2026-04-11T09:17:20Z</time></trkpt><trkpt lat="45.25352387736544" lon="9.302390437753939"><ele>78.0</ele><time>2026-04-11T09:17:43Z</time></trkpt><trkpt lat="45.25356085569261" lon="9.302466458140678"><ele>78.0</ele><time>2026-04-11T09:17:44Z</time></trkpt><trkpt lat="45.25360879157937" lon="9.30255187163878"><ele>78.0</ele><time>2026-04-11T09:17:45Z</time></trkpt><trkpt lat="45.25364068280131" lon="9.302634343382673"><ele>78.0</ele><time>2026-04-11T09:17:46Z</time></trkpt><trkpt lat="45.253687626769825" lon="9.302725235650428"><ele>78.0</ele><time>2026-04-11T09:17:47Z</time></trkpt><trkpt lat="45.25375189076278" lon="9.302840809140164"><ele>78.0</ele><time>2026-04-11T09:17:48Z</time></trkpt><trkpt lat="45.25381968553623" lon="9.302962013770513"><ele>78.0</ele><time>2026-04-11T09:17:49Z</time></trkpt><trkpt lat="45.25388725474323" lon="9.303086673554402"><ele>78.0</ele><time>2026-04-11T09:17:50Z</time></trkpt><trkpt lat="45.253947853571795" lon="9.303203444995415"><ele>78.0</ele><time>2026-04-11T09:17:51Z</time></trkpt><trkpt lat="45.25401597056671" lon="9.303330264210267"><ele>78.0</ele><time>2026-04-11T09:17:52Z</time></trkpt><trkpt lat="45.25408492923959" lon="9.303457625266619"><ele>78.0</ele><time>2026-04-11T09:17:53Z</time></trkpt><trkpt lat="45.25416834412846" lon="9.303604539817183"><ele>78.0</ele><time>2026-04-11T09:17:54Z</time></trkpt><trkpt lat="45.254244520805244" lon="9.303751152252435"><ele>78.0</ele><time>2026-04-11T09:17:55Z</time></trkpt><trkpt lat="45.254325876471775" lon="9.3038966029994"><ele>78.0</ele><time>2026-04-11T09:17:56Z</time></trkpt><trkpt lat="45.25440433376288" lon="9.304042685085072"><ele>78.0</ele><time>2026-04-11T09:17:57Z</time></trkpt><trkpt lat="45.25448549317711" lon="9.304200126050679"><ele>78.0</ele><time>2026-04-11T09:17:57.999Z</time></trkpt><trkpt lat="45.254572379663124" lon="9.30435269175009"><ele>78.0</ele><time>2026-04-11T09:17:58.999Z</time></trkpt><trkpt lat="45.2546597833923" lon="9.304507218318841"><ele>78.0</ele><time>2026-04-11T09:17:59.999Z</time></trkpt><trkpt lat="45.254742679415095" lon="9.304663150381181"><ele>78.0</ele><time>2026-04-11T09:18:00.999Z</time></trkpt><trkpt lat="45.254827049302975" lon="9.30482103071363"><ele>78.25</ele><time>2026-04-11T09:18:01.999Z</time></trkpt><trkpt lat="45.2549102859077" lon="9.304971445691127"><ele>78.5</ele><time>2026-04-11T09:18:02.999Z</time></trkpt><trkpt lat="45.25499595921817" lon="9.305126842504869"><ele>78.75</ele><time>2026-04-11T09:18:03.999Z</time></trkpt><trkpt lat="45.255081683662006" lon="9.305280369450294"><ele>79.0</ele><time>2026-04-11T09:18:04.999Z</time></trkpt><trkpt lat="45.25515857168576" lon="9.305426637047459"><ele>79.25</ele><time>2026-04-11T09:18:05.999Z</time></trkpt><trkpt lat="45.25524458375933" lon="9.305580568436696"><ele>79.5</ele><time>2026-04-11T09:18:06.999Z</time></trkpt><trkpt lat="45.25532791368585" lon="9.305734811336151"><ele>79.75</ele><time>2026-04-11T09:18:07.999Z</time></trkpt><trkpt lat="45.255412604255" lon="9.305890601737525"><ele>80.0</ele><time>2026-04-11T09:18:08.999Z</time></trkpt><trkpt lat="45.255477173137905" lon="9.30601495209974"><ele>80.0</ele><time>2026-04-11T09:18:09.999Z</time></trkpt><trkpt lat="45.2555422633475" lon="9.306147375734929"><ele>80.0</ele><time>2026-04-11T09:18:10.999Z</time></trkpt><trkpt lat="45.255602008402" lon="9.306289519820611"><ele>80.0</ele><time>2026-04-11T09:18:11.999Z</time></trkpt><trkpt lat="45.25567473893008" lon="9.30643586908913"><ele>80.0</ele><time>2026-04-11T09:18:12.999Z</time></trkpt><trkpt lat="45.255756242548884" lon="9.306573105261542"><ele>79.5</ele><time>2026-04-11T09:18:13.999Z</time></trkpt><trkpt lat="45.25584023364368" lon="9.30671194877128"><ele>79.0</ele><time>2026-04-11T09:18:14.999Z</time></trkpt><trkpt lat="45.255922200738134" lon="9.306860663600341"><ele>78.5</ele><time>2026-04-11T09:18:15.999Z</time></trkpt><trkpt lat="45.255983497953586" lon="9.306972560718384"><ele>78.0</ele><time>2026-04-11T09:18:16.999Z</time></trkpt><trkpt lat="45.25604542417778" lon="9.307086151552674"><ele>78.0</ele><time>2026-04-11T09:18:17.999Z</time></trkpt><trkpt lat="45.256107330427824" lon="9.307200596090679"><ele>78.0</ele><time>2026-04-11T09:18:18.999Z</time></trkpt><trkpt lat="45.2561528009624" lon="9.307292638830159"><ele>78.0</ele><time>2026-04-11T09:18:19.999Z</time></trkpt><trkpt lat="45.25621271659103" lon="9.307423964478419"><ele>78.0</ele><time>2026-04-11T09:18:20.999Z</time></trkpt><trkpt lat="45.25628010978246" lon="9.307572345838201"><ele>78.0</ele><time>2026-04-11T09:18:21.999Z</time></trkpt><trkpt lat="45.25636537178355" lon="9.307740730590687"><ele>78.0</ele><time>2026-04-11T09:18:22.999Z</time></trkpt><trkpt lat="45.256457061149774" lon="9.30792902104445"><ele>78.0</ele><time>2026-04-11T09:18:23.999Z</time></trkpt><trkpt lat="45.25654567758367" lon="9.308093089305466"><ele>78.0</ele><time>2026-04-11T09:18:24.999Z</time></trkpt><trkpt lat="45.25662831882819" lon="9.308239398642582"><ele>78.0</ele><time>2026-04-11T09:18:25.999Z</time></trkpt><trkpt lat="45.25671083478808" lon="9.308394529639124"><ele>78.0</ele><time>2026-04-11T09:18:26.999Z</time></trkpt><trkpt lat="45.2567948017342" lon="9.308549774573814"><ele>78.0</ele><time>2026-04-11T09:18:27.999Z</time></trkpt><trkpt lat="45.25686612362545" lon="9.308695803921525"><ele>78.0</ele><time>2026-04-11T09:18:28.999Z</time></trkpt><trkpt lat="45.25693992871646" lon="9.308852345199503"><ele>78.0</ele><time>2026-04-11T09:18:29.999Z</time></trkpt><trkpt lat="45.25700101921621" lon="9.30898187027787"><ele>78.0</ele><time>2026-04-11T09:18:30.999Z</time></trkpt><trkpt lat="45.257060625120964" lon="9.309094649751389"><ele>78.0</ele><time>2026-04-11T09:18:31.999Z</time></trkpt><trkpt lat="45.25713746833881" lon="9.309211793515432"><ele>78.0</ele><time>2026-04-11T09:18:32.999Z</time></trkpt><trkpt lat="45.25722757993345" lon="9.309338542643594"><ele>78.0</ele><time>2026-04-11T09:18:33.999Z</time></trkpt><trkpt lat="45.25729935953236" lon="9.309489926787112"><ele>78.0</ele><time>2026-04-11T09:18:34.999Z</time></trkpt><trkpt lat="45.257396280555646" lon="9.309603019437596"><ele>78.0</ele><time>2026-04-11T09:18:35.999Z</time></trkpt><trkpt lat="45.257461482554476" lon="9.309734756734022"><ele>78.0</ele><time>2026-04-11T09:18:36.999Z</time></trkpt><trkpt lat="45.257529788051116" lon="9.309857941083097"><ele>78.0</ele><time>2026-04-11T09:18:37.999Z</time></trkpt><trkpt lat="45.25759678735069" lon="9.3099943918216"><ele>78.0</ele><time>2026-04-11T09:18:38.999Z</time></trkpt><trkpt lat="45.257649752040294" lon="9.310139704012045"><ele>78.0</ele><time>2026-04-11T09:18:39.999Z</time></trkpt><trkpt lat="45.257695739472126" lon="9.310295330776231"><ele>78.0</ele><time>2026-04-11T09:18:40.999Z</time></trkpt><trkpt lat="45.25775004264441" lon="9.310462661635109"><ele>78.0</ele><time>2026-04-11T09:18:41.999Z</time></trkpt><trkpt lat="45.25780576635702" lon="9.310630980690371"><ele>78.0</ele><time>2026-04-11T09:18:42.999Z</time></trkpt><trkpt lat="45.25786387434639" lon="9.310805634372382"><ele>78.0</ele><time>2026-04-11T09:18:43.999Z</time></trkpt><trkpt lat="45.25791966194273" lon="9.310976923292833"><ele>78.0</ele><time>2026-04-11T09:18:44.999Z</time></trkpt><trkpt lat="45.257965824594464" lon="9.311124028925606"><ele>78.0</ele><time>2026-04-11T09:18:45.999Z</time></trkpt><trkpt lat="45.25800477625926" lon="9.311250144906747"><ele>78.0</ele><time>2026-04-11T09:18:46.999Z</time></trkpt><trkpt lat="45.25804418746437" lon="9.311363432333856"><ele>78.0</ele><time>2026-04-11T09:18:47.999Z</time></trkpt><trkpt lat="45.25808286526696" lon="9.311481695485368"><ele>78.0</ele><time>2026-04-11T09:18:48.999Z</time></trkpt><trkpt lat="45.25812254898303" lon="9.311604838233256"><ele>78.0</ele><time>2026-04-11T09:18:49.999Z</time></trkpt><trkpt lat="45.25815708850815" lon="9.311699347033809"><ele>78.0</ele><time>2026-04-11T09:18:50.999Z</time></trkpt><trkpt lat="45.258208014340624" lon="9.311835829631132"><ele>78.0</ele><time>2026-04-11T09:18:52.999Z</time></trkpt><trkpt lat="45.25820537791244" lon="9.311951504695834"><ele>78.0</ele><time>2026-04-11T09:18:54.999Z</time></trkpt><trkpt lat="45.25810283308412" lon="9.31205502279979"><ele>78.0</ele><time>2026-04-11T09:18:56.999Z</time></trkpt><trkpt lat="45.25802528692183" lon="9.312124539520493"><ele>78.0</ele><time>2026-04-11T09:18:57.999Z</time></trkpt><trkpt lat="45.25793154520645" lon="9.312226977889134"><ele>78.0</ele><time>2026-04-11T09:18:58.999Z</time></trkpt><trkpt lat="45.25781920197509" lon="9.31233418557314"><ele>78.0</ele><time>2026-04-11T09:18:59.999Z</time></trkpt><trkpt lat="45.257732729152885" lon="9.312432108569405"><ele>78.0</ele><time>2026-04-11T09:19:00.999Z</time></trkpt><trkpt lat="45.25765867710779" lon="9.312514021971822"><ele>78.0</ele><time>2026-04-11T09:19:01.999Z</time></trkpt><trkpt lat="45.257582086953086" lon="9.312599693081848"><ele>78.0</ele><time>2026-04-11T09:19:02.999Z</time></trkpt><trkpt lat="45.25751391998356" lon="9.312671621389983"><ele>78.0</ele><time>2026-04-11T09:19:03.999Z</time></trkpt><trkpt lat="45.25744240568075" lon="9.312753991664469"><ele>78.0</ele><time>2026-04-11T09:19:04.999Z</time></trkpt><trkpt lat="45.257385614130804" lon="9.312819559337047"><ele>78.0</ele><time>2026-04-11T09:19:05.999Z</time></trkpt><trkpt lat="45.25731443439302" lon="9.31292105993488"><ele>78.0</ele><time>2026-04-11T09:19:07.999Z</time></trkpt><trkpt lat="45.257246246338205" lon="9.313009626137127"><ele>78.0</ele><time>2026-04-11T09:19:10.999Z</time></trkpt><trkpt lat="45.25717651058605" lon="9.313090496048021"><ele>78.0</ele><time>2026-04-11T09:19:13Z</time></trkpt><trkpt lat="45.257095110299346" lon="9.313090903654617"><ele>78.0</ele><time>2026-04-11T09:19:17Z</time></trkpt><trkpt lat="45.25701578715265" lon="9.312955195653158"><ele>78.83333333333333</ele><time>2026-04-11T09:19:19Z</time></trkpt><trkpt lat="45.2569634361107" lon="9.312866438394781"><ele>79.66666666666667</ele><time>2026-04-11T09:19:20Z</time></trkpt><trkpt lat="45.25689925081832" lon="9.312766694463225"><ele>80.5</ele><time>2026-04-11T09:19:21Z</time></trkpt><trkpt lat="45.256851919811" lon="9.312689441203231"><ele>81.33333333333334</ele><time>2026-04-11T09:19:22Z</time></trkpt><trkpt lat="45.25680672573602" lon="9.312613426905742"><ele>82.16666666666667</ele><time>2026-04-11T09:19:23Z</time></trkpt><trkpt lat="45.25676433452329" lon="9.31254286171143"><ele>83.0</ele><time>2026-04-11T09:19:24Z</time></trkpt><trkpt lat="45.256700508191884" lon="9.31244022396049"><ele>83.0</ele><time>2026-04-11T09:19:25Z</time></trkpt><trkpt lat="45.25663571929294" lon="9.312331462189402"><ele>83.0</ele><time>2026-04-11T09:19:26Z</time></trkpt><trkpt lat="45.25656267429821" lon="9.312210778350423"><ele>83.0</ele><time>2026-04-11T09:19:27Z</time></trkpt><trkpt lat="45.25648757061254" lon="9.312083479224347"><ele>83.0</ele><time>2026-04-11T09:19:28Z</time></trkpt><trkpt lat="45.25641219027138" lon="9.31196108111402"><ele>83.0</ele><time>2026-04-11T09:19:29Z</time></trkpt><trkpt lat="45.256336004120634" lon="9.311830349801015"><ele>83.2</ele><time>2026-04-11T09:19:30Z</time></trkpt><trkpt lat="45.256257093023066" lon="9.31169846666795"><ele>83.4</ele><time>2026-04-11T09:19:31Z</time></trkpt><trkpt lat="45.25618345241012" lon="9.311573943458951"><ele>83.60000000000001</ele><time>2026-04-11T09:19:32Z</time></trkpt><trkpt lat="45.25611887724231" lon="9.31145501068434"><ele>83.80000000000001</ele><time>2026-04-11T09:19:33Z</time></trkpt><trkpt lat="45.25605754392876" lon="9.311341791084569"><ele>84.0</ele><time>2026-04-11T09:19:34Z</time></trkpt><trkpt lat="45.255991481302644" lon="9.31122343802417"><ele>84.0</ele><time>2026-04-11T09:19:35Z</time></trkpt><trkpt lat="45.25592451470713" lon="9.311105253891434"><ele>84.0</ele><time>2026-04-11T09:19:36Z</time></trkpt><trkpt lat="45.255852943121525" lon="9.310995873696264"><ele>84.0</ele><time>2026-04-11T09:19:37Z</time></trkpt><trkpt lat="45.255766517177165" lon="9.3109039529474"><ele>84.0</ele><time>2026-04-11T09:19:38Z</time></trkpt><trkpt lat="45.25566205366541" lon="9.310825850522962"><ele>84.0</ele><time>2026-04-11T09:19:39Z</time></trkpt><trkpt lat="45.255554384647034" lon="9.310774614989322"><ele>84.0</ele><time>2026-04-11T09:19:40Z</time></trkpt><trkpt lat="45.25543996834248" lon="9.310717843144229"><ele>84.0</ele><time>2026-04-11T09:19:41Z</time></trkpt><trkpt lat="45.25532042129114" lon="9.310652865221844"><ele>84.0</ele><time>2026-04-11T09:19:42Z</time></trkpt><trkpt lat="45.25521109774932" lon="9.310598336296048"><ele>84.0</ele><time>2026-04-11T09:19:43Z</time></trkpt><trkpt lat="45.25512123227271" lon="9.310543791749044"><ele>83.2</ele><time>2026-04-11T09:19:44Z</time></trkpt><trkpt lat="45.25503024526356" lon="9.310497275328762"><ele>82.4</ele><time>2026-04-11T09:19:45Z</time></trkpt><trkpt lat="45.25492975380351" lon="9.310440690261656"><ele>81.6</ele><time>2026-04-11T09:19:46Z</time></trkpt><trkpt lat="45.25481510272955" lon="9.310375707263079"><ele>80.8</ele><time>2026-04-11T09:19:47Z</time></trkpt><trkpt lat="45.25470594219424" lon="9.310315746009275"><ele>80.0</ele><time>2026-04-11T09:19:48Z</time></trkpt><trkpt lat="45.25459505707659" lon="9.310259267750952"><ele>80.0</ele><time>2026-04-11T09:19:49Z</time></trkpt><trkpt lat="45.25447979061473" lon="9.310192595224386"><ele>80.0</ele><time>2026-04-11T09:19:50Z</time></trkpt><trkpt lat="45.25435432125152" lon="9.310127504586646"><ele>80.0</ele><time>2026-04-11T09:19:51Z</time></trkpt><trkpt lat="45.25423523005405" lon="9.310060339193035"><ele>80.0</ele><time>2026-04-11T09:19:52Z</time></trkpt><trkpt lat="45.25411914324383" lon="9.3099943562379"><ele>80.0</ele><time>2026-04-11T09:19:53Z</time></trkpt><trkpt lat="45.25400145185025" lon="9.30992771008609"><ele>80.0</ele><time>2026-04-11T09:19:54Z</time></trkpt><trkpt lat="45.25388141811027" lon="9.309858618239039"><ele>80.0</ele><time>2026-04-11T09:19:55Z</time></trkpt><trkpt lat="45.25376743086315" lon="9.309798492677107"><ele>80.0</ele><time>2026-04-11T09:19:56Z</time></trkpt><trkpt lat="45.25366403695475" lon="9.309737336337715"><ele>79.5</ele><time>2026-04-11T09:19:57Z</time></trkpt><trkpt lat="45.25354906704639" lon="9.309671791512502"><ele>79.0</ele><time>2026-04-11T09:19:58Z</time></trkpt><trkpt lat="45.25344086891609" lon="9.309608416786658"><ele>78.5</ele><time>2026-04-11T09:19:59Z</time></trkpt><trkpt lat="45.253337062137646" lon="9.309543431366583"><ele>78.0</ele><time>2026-04-11T09:20:00Z</time></trkpt><trkpt lat="45.25323542864892" lon="9.309486045993456"><ele>78.0</ele><time>2026-04-11T09:20:01Z</time></trkpt><trkpt lat="45.253151535459075" lon="9.30944291502846"><ele>78.0</ele><time>2026-04-11T09:20:02Z</time></trkpt><trkpt lat="45.2530776545664" lon="9.309399124325184"><ele>78.0</ele><time>2026-04-11T09:20:03Z</time></trkpt><trkpt lat="45.25298505728302" lon="9.309329418824827"><ele>78.0</ele><time>2026-04-11T09:20:04Z</time></trkpt><trkpt lat="45.2528965396204" lon="9.309223152942073"><ele>78.0</ele><time>2026-04-11T09:20:05Z</time></trkpt><trkpt lat="45.25280020578588" lon="9.309125311388431"><ele>78.0</ele><time>2026-04-11T09:20:06Z</time></trkpt><trkpt lat="45.252705812976025" lon="9.309036803431335"><ele>78.0</ele><time>2026-04-11T09:20:07Z</time></trkpt><trkpt lat="45.25260109983169" lon="9.308939334350713"><ele>78.0</ele><time>2026-04-11T09:20:08Z</time></trkpt><trkpt lat="45.25249798083261" lon="9.308843889102187"><ele>78.0</ele><time>2026-04-11T09:20:09Z</time></trkpt><trkpt lat="45.25238754844846" lon="9.308741896791792"><ele>79.25</ele><time>2026-04-11T09:20:10Z</time></trkpt><trkpt lat="45.25228118840849" lon="9.30864663793069"><ele>80.5</ele><time>2026-04-11T09:20:11Z</time></trkpt><trkpt lat="45.25217577787154" lon="9.308553238889745"><ele>81.75</ele><time>2026-04-11T09:20:12Z</time></trkpt><trkpt lat="45.25207267502684" lon="9.308462044835336"><ele>83.0</ele><time>2026-04-11T09:20:13Z</time></trkpt><trkpt lat="45.25198007631619" lon="9.308383462791117"><ele>83.0</ele><time>2026-04-11T09:20:14Z</time></trkpt><trkpt lat="45.25189451138306" lon="9.308305970903819"><ele>83.0</ele><time>2026-04-11T09:20:15Z</time></trkpt><trkpt lat="45.251800147470945" lon="9.308216517399007"><ele>83.0</ele><time>2026-04-11T09:20:15.999Z</time></trkpt><trkpt lat="45.25170118394267" lon="9.308131429763744"><ele>83.0</ele><time>2026-04-11T09:20:16.999Z</time></trkpt><trkpt lat="45.25160587771358" lon="9.308040407185636"><ele>83.0</ele><time>2026-04-11T09:20:17.999Z</time></trkpt><trkpt lat="45.25150972596996" lon="9.30795150150845"><ele>82.83333333333334</ele><time>2026-04-11T09:20:18.999Z</time></trkpt><trkpt lat="45.25141850582625" lon="9.307872494192477"><ele>82.66666666666667</ele><time>2026-04-11T09:20:19.999Z</time></trkpt><trkpt lat="45.251342902425726" lon="9.3078053636754"><ele>82.5</ele><time>2026-04-11T09:20:20.999Z</time></trkpt><trkpt lat="45.25127706032919" lon="9.307748294305924"><ele>82.33333333333333</ele><time>2026-04-11T09:20:21.999Z</time></trkpt><trkpt lat="45.25120300617813" lon="9.307685527871769"><ele>82.16666666666666</ele><time>2026-04-11T09:20:23.999Z</time></trkpt><trkpt lat="45.25113182018891" lon="9.307640467971652"><ele>82.0</ele><time>2026-04-11T09:20:27.999Z</time></trkpt><trkpt lat="45.25109221926839" lon="9.307736321723638"><ele>82.0</ele><time>2026-04-11T09:20:30.999Z</time></trkpt><trkpt lat="45.25108670308718" lon="9.307925732026085"><ele>82.0</ele><time>2026-04-11T09:20:32.999Z</time></trkpt><trkpt lat="45.251072371115434" lon="9.308042563887868"><ele>82.0</ele><time>2026-04-11T09:20:33.999Z</time></trkpt><trkpt lat="45.25105633686048" lon="9.308157388373635"><ele>82.0</ele><time>2026-04-11T09:20:34.999Z</time></trkpt><trkpt lat="45.25104954472569" lon="9.308302015273302"><ele>82.0</ele><time>2026-04-11T09:20:35.999Z</time></trkpt><trkpt lat="45.25105633307832" lon="9.308445404798174"><ele>82.0</ele><time>2026-04-11T09:20:36.999Z</time></trkpt><trkpt lat="45.25106164154642" lon="9.308589264089514"><ele>82.0</ele><time>2026-04-11T09:20:37.999Z</time></trkpt><trkpt lat="45.25106542296463" lon="9.308743735627504"><ele>82.0</ele><time>2026-04-11T09:20:38.999Z</time></trkpt><trkpt lat="45.25106543529635" lon="9.308883329422295"><ele>82.0</ele><time>2026-04-11T09:20:39.999Z</time></trkpt><trkpt lat="45.25106672814602" lon="9.308999116216047"><ele>82.0</ele><time>2026-04-11T09:20:40.999Z</time></trkpt><trkpt lat="45.25107178977048" lon="9.309105696012956"><ele>81.66666666666666</ele><time>2026-04-11T09:20:41.999Z</time></trkpt><trkpt lat="45.25107347815491" lon="9.309208284395078"><ele>81.33333333333333</ele><time>2026-04-11T09:20:42.999Z</time></trkpt><trkpt lat="45.25107065849214" lon="9.30930525467127"><ele>81.0</ele><time>2026-04-11T09:20:43.999Z</time></trkpt><trkpt lat="45.251080272097326" lon="9.309433723743345"><ele>80.66666666666667</ele><time>2026-04-11T09:20:45.999Z</time></trkpt><trkpt lat="45.25108419938122" lon="9.309553293440267"><ele>80.33333333333334</ele><time>2026-04-11T09:20:48.999Z</time></trkpt><trkpt lat="45.25106529002617" lon="9.309460763282768"><ele>80.0</ele><time>2026-04-11T09:22:17Z</time></trkpt><trkpt lat="45.251068334716116" lon="9.309168150168018"><ele>80.0</ele><time>2026-04-11T09:22:19Z</time></trkpt><trkpt lat="45.25106814337666" lon="9.309006940954129"><ele>80.0</ele><time>2026-04-11T09:22:19.999Z</time></trkpt><trkpt lat="45.25106391225274" lon="9.308817477133795"><ele>80.0</ele><time>2026-04-11T09:22:20.999Z</time></trkpt><trkpt lat="45.25105386344693" lon="9.308603469067343"><ele>80.0</ele><time>2026-04-11T09:22:21.999Z</time></trkpt><trkpt lat="45.251047266654794" lon="9.308409605343536"><ele>80.5</ele><time>2026-04-11T09:22:22.999Z</time></trkpt><trkpt lat="45.251041992188334" lon="9.308210071405826"><ele>81.0</ele><time>2026-04-11T09:22:23.999Z</time></trkpt><trkpt lat="45.25103830457685" lon="9.307987541164138"><ele>81.5</ele><time>2026-04-11T09:22:24.999Z</time></trkpt><trkpt lat="45.251058353063996" lon="9.308123280586592"><ele>82.0</ele><time>2026-04-11T09:22:25.999Z</time></trkpt><trkpt lat="45.2510721662752" lon="9.307938327121814"><ele>82.0</ele><time>2026-04-11T09:22:27.999Z</time></trkpt><trkpt lat="45.25108448000926" lon="9.307844912558572"><ele>82.0</ele><time>2026-04-11T09:22:28.999Z</time></trkpt><trkpt lat="45.25110897937667" lon="9.307741632497232"><ele>82.0</ele><time>2026-04-11T09:22:30.999Z</time></trkpt><trkpt lat="45.251121538901536" lon="9.307635363066897"><ele>82.0</ele><time>2026-04-11T09:22:32.999Z</time></trkpt><trkpt lat="45.251030762718685" lon="9.307605522474766"><ele>82.0</ele><time>2026-04-11T09:23:03.999Z</time></trkpt><trkpt lat="45.250871222272714" lon="9.307575278305793"><ele>82.0</ele><time>2026-04-11T09:23:05.999Z</time></trkpt><trkpt lat="45.2507745220546" lon="9.307555364879736"><ele>82.0</ele><time>2026-04-11T09:23:06.999Z</time></trkpt><trkpt lat="45.25067417693244" lon="9.307532293425567"><ele>82.0</ele><time>2026-04-11T09:23:07.999Z</time></trkpt><trkpt lat="45.25058838738577" lon="9.307507231477405"><ele>82.0</ele><time>2026-04-11T09:23:08.999Z</time></trkpt><trkpt lat="45.25049384034155" lon="9.307481440951465"><ele>82.0</ele><time>2026-04-11T09:23:10.999Z</time></trkpt><trkpt lat="45.25042641751379" lon="9.307464861757904"><ele>81.0</ele><time>2026-04-11T09:23:13.999Z</time></trkpt><trkpt lat="45.250328234440644" lon="9.307437881496284"><ele>80.0</ele><time>2026-04-11T09:23:15.999Z</time></trkpt><trkpt lat="45.25022237926783" lon="9.307409712230122"><ele>79.0</ele><time>2026-04-11T09:23:17.999Z</time></trkpt><trkpt lat="45.250140888322875" lon="9.307386739578536"><ele>78.0</ele><time>2026-04-11T09:23:20.999Z</time></trkpt><trkpt lat="45.25006779451092" lon="9.307369713838321"><ele>77.0</ele><time>2026-04-11T09:23:24Z</time></trkpt><trkpt lat="45.25014320905255" lon="9.307340672953833"><ele>76.0</ele><time>2026-04-11T09:23:53Z</time></trkpt><trkpt lat="45.25021436046156" lon="9.307381566322569"><ele>76.0</ele><time>2026-04-11T09:23:56Z</time></trkpt><trkpt lat="45.25029532361538" lon="9.307398232660358"><ele>76.0</ele><time>2026-04-11T09:23:58Z</time></trkpt><trkpt lat="45.25041616169208" lon="9.307427460913594"><ele>76.0</ele><time>2026-04-11T09:24:00Z</time></trkpt><trkpt lat="45.250485323398536" lon="9.307449826879122"><ele>76.0</ele><time>2026-04-11T09:24:01Z</time></trkpt><trkpt lat="45.25055855879122" lon="9.307467847536568"><ele>76.0</ele><time>2026-04-11T09:24:02Z</time></trkpt><trkpt lat="45.25062592166133" lon="9.30748561496163"><ele>76.0</ele><time>2026-04-11T09:24:03Z</time></trkpt><trkpt lat="45.25069933724047" lon="9.30750408562952"><ele>77.0</ele><time>2026-04-11T09:24:04Z</time></trkpt><trkpt lat="45.25076626413183" lon="9.307522065648321"><ele>78.0</ele><time>2026-04-11T09:24:05Z</time></trkpt><trkpt lat="45.250837012394626" lon="9.307541310994585"><ele>79.0</ele><time>2026-04-11T09:24:06Z</time></trkpt><trkpt lat="45.25092507661856" lon="9.307571307471767"><ele>80.0</ele><time>2026-04-11T09:24:08Z</time></trkpt><trkpt lat="45.250994306487534" lon="9.307582396360775"><ele>81.0</ele><time>2026-04-11T09:24:10Z</time></trkpt><trkpt lat="45.251057878661726" lon="9.307602341550679"><ele>82.0</ele><time>2026-04-11T09:24:11.999Z</time></trkpt><trkpt lat="45.25114407627341" lon="9.307614879595128"><ele>82.0</ele><time>2026-04-11T09:24:13.999Z</time></trkpt><trkpt lat="45.25123846538451" lon="9.307684264872275"><ele>82.0</ele><time>2026-04-11T09:24:15.999Z</time></trkpt><trkpt lat="45.25129078596422" lon="9.307741354498555"><ele>82.0</ele><time>2026-04-11T09:24:16.999Z</time></trkpt><trkpt lat="45.251348169681506" lon="9.30779106787098"><ele>82.0</ele><time>2026-04-11T09:24:17.999Z</time></trkpt><trkpt lat="45.2514107535499" lon="9.307842582349533"><ele>82.0</ele><time>2026-04-11T09:24:18.999Z</time></trkpt><trkpt lat="45.2514768789498" lon="9.307903498937598"><ele>82.0</ele><time>2026-04-11T09:24:19.999Z</time></trkpt><trkpt lat="45.25154265315438" lon="9.307963422249665"><ele>82.16666666666666</ele><time>2026-04-11T09:24:20.999Z</time></trkpt><trkpt lat="45.251608709818356" lon="9.308022865510786"><ele>82.33333333333333</ele><time>2026-04-11T09:24:21.999Z</time></trkpt><trkpt lat="45.25167502433212" lon="9.308083610138839"><ele>82.5</ele><time>2026-04-11T09:24:22.999Z</time></trkpt><trkpt lat="45.251736563710764" lon="9.308142134158386"><ele>82.66666666666667</ele><time>2026-04-11T09:24:23.999Z</time></trkpt><trkpt lat="45.25180137238379" lon="9.308201458673839"><ele>82.83333333333334</ele><time>2026-04-11T09:24:24.999Z</time></trkpt><trkpt lat="45.251870625883136" lon="9.308267020921306"><ele>83.0</ele><time>2026-04-11T09:24:25.999Z</time></trkpt><trkpt lat="45.25193753566324" lon="9.308326721450209"><ele>83.0</ele><time>2026-04-11T09:24:26.999Z</time></trkpt><trkpt lat="45.252003426164606" lon="9.308387225483193"><ele>83.0</ele><time>2026-04-11T09:24:27.999Z</time></trkpt><trkpt lat="45.25207358451238" lon="9.308448837076735"><ele>83.0</ele><time>2026-04-11T09:24:28.999Z</time></trkpt><trkpt lat="45.25214693908644" lon="9.308519935165632"><ele>83.0</ele><time>2026-04-11T09:24:29.999Z</time></trkpt><trkpt lat="45.2522205742122" lon="9.308586058231882"><ele>83.0</ele><time>2026-04-11T09:24:30.999Z</time></trkpt><trkpt lat="45.25229505752702" lon="9.308638046884012"><ele>83.0</ele><time>2026-04-11T09:24:31.999Z</time></trkpt><trkpt lat="45.252367540813296" lon="9.308706638968081"><ele>83.2</ele><time>2026-04-11T09:24:32.999Z</time></trkpt><trkpt lat="45.252443689526324" lon="9.308781970521016"><ele>83.4</ele><time>2026-04-11T09:24:33.999Z</time></trkpt><trkpt lat="45.25253338911824" lon="9.308864355233247"><ele>83.60000000000001</ele><time>2026-04-11T09:24:34.999Z</time></trkpt><trkpt lat="45.25262083396872" lon="9.308945417613417"><ele>83.80000000000001</ele><time>2026-04-11T09:24:35.999Z</time></trkpt><trkpt lat="45.25270167888243" lon="9.309022409472306"><ele>84.0</ele><time>2026-04-11T09:24:36.999Z</time></trkpt><trkpt lat="45.25278280047785" lon="9.309097001638671"><ele>84.0</ele><time>2026-04-11T09:24:37.999Z</time></trkpt><trkpt lat="45.25286841969728" lon="9.309173858974495"><ele>84.0</ele><time>2026-04-11T09:24:38.999Z</time></trkpt><trkpt lat="45.25295409453855" lon="9.309258783071739"><ele>84.0</ele><time>2026-04-11T09:24:39.999Z</time></trkpt><trkpt lat="45.2530400313234" lon="9.309340042732208"><ele>84.0</ele><time>2026-04-11T09:24:40.999Z</time></trkpt><trkpt lat="45.25311709174802" lon="9.309414876298503"><ele>84.0</ele><time>2026-04-11T09:24:41.999Z</time></trkpt><trkpt lat="45.253191310654614" lon="9.309475137035772"><ele>82.8</ele><time>2026-04-11T09:24:42.999Z</time></trkpt><trkpt lat="45.25327689269934" lon="9.30951379217771"><ele>81.60000000000001</ele><time>2026-04-11T09:24:43.999Z</time></trkpt><trkpt lat="45.25337285905904" lon="9.309555909135756"><ele>80.4</ele><time>2026-04-11T09:24:44.999Z</time></trkpt><trkpt lat="45.25346814015622" lon="9.309608201923195"><ele>79.2</ele><time>2026-04-11T09:24:45.999Z</time></trkpt><trkpt lat="45.25355419716335" lon="9.309669470249606"><ele>78.0</ele><time>2026-04-11T09:24:46.999Z</time></trkpt><trkpt lat="45.253660549072045" lon="9.309728574743824"><ele>78.4</ele><time>2026-04-11T09:24:47.999Z</time></trkpt><trkpt lat="45.2537644497184" lon="9.309786582542149"><ele>78.8</ele><time>2026-04-11T09:24:48.999Z</time></trkpt><trkpt lat="45.25386702434526" lon="9.309847989811942"><ele>79.2</ele><time>2026-04-11T09:24:49.999Z</time></trkpt><trkpt lat="45.25397075509257" lon="9.309903178020498"><ele>79.6</ele><time>2026-04-11T09:24:50.999Z</time></trkpt><trkpt lat="45.25407695203187" lon="9.309963155531957"><ele>80.0</ele><time>2026-04-11T09:24:51.999Z</time></trkpt><trkpt lat="45.25417858445261" lon="9.310022740325289"><ele>80.0</ele><time>2026-04-11T09:24:52.999Z</time></trkpt><trkpt lat="45.25428960384294" lon="9.3100835530166"><ele>80.0</ele><time>2026-04-11T09:24:53.999Z</time></trkpt><trkpt lat="45.25439757657536" lon="9.310143034570006"><ele>80.0</ele><time>2026-04-11T09:24:54.999Z</time></trkpt><trkpt lat="45.25450917804998" lon="9.310206899932064"><ele>80.0</ele><time>2026-04-11T09:24:55.999Z</time></trkpt><trkpt lat="45.254615809255924" lon="9.310263611198764"><ele>80.0</ele><time>2026-04-11T09:24:56.999Z</time></trkpt><trkpt lat="45.25472383664436" lon="9.310327494404273"><ele>80.0</ele><time>2026-04-11T09:24:57.999Z</time></trkpt><trkpt lat="45.25483729373774" lon="9.310386157481046"><ele>80.0</ele><time>2026-04-11T09:24:58.999Z</time></trkpt><trkpt lat="45.25494818033112" lon="9.310449933425044"><ele>80.0</ele><time>2026-04-11T09:24:59.999Z</time></trkpt><trkpt lat="45.25506012975035" lon="9.310513574454024"><ele>79.75</ele><time>2026-04-11T09:25:00.999Z</time></trkpt><trkpt lat="45.25517279322871" lon="9.31057410875081"><ele>79.5</ele><time>2026-04-11T09:25:01.999Z</time></trkpt><trkpt lat="45.255282958292106" lon="9.310633533330261"><ele>79.25</ele><time>2026-04-11T09:25:02.999Z</time></trkpt><trkpt lat="45.255396530250785" lon="9.310694663174106"><ele>79.0</ele><time>2026-04-11T09:25:03.999Z</time></trkpt><trkpt lat="45.25550638417954" lon="9.310749897724875"><ele>79.6</ele><time>2026-04-11T09:25:04.999Z</time></trkpt><trkpt lat="45.255616248086056" lon="9.310818844772442"><ele>80.2</ele><time>2026-04-11T09:25:05.999Z</time></trkpt><trkpt lat="45.25570118024029" lon="9.31086562525977"><ele>80.8</ele><time>2026-04-11T09:25:06.999Z</time></trkpt><trkpt lat="45.255790543235136" lon="9.310930973116267"><ele>81.39999999999999</ele><time>2026-04-11T09:25:07.999Z</time></trkpt><trkpt lat="45.25588044415455" lon="9.311018484624103"><ele>82.0</ele><time>2026-04-11T09:25:08.999Z</time></trkpt><trkpt lat="45.25596188703683" lon="9.311141783426738"><ele>82.0</ele><time>2026-04-11T09:25:09.999Z</time></trkpt><trkpt lat="45.25603505557312" lon="9.31127684310711"><ele>82.0</ele><time>2026-04-11T09:25:10.999Z</time></trkpt><trkpt lat="45.256105448863195" lon="9.311375883213044"><ele>82.0</ele><time>2026-04-11T09:25:11.999Z</time></trkpt><trkpt lat="45.256182064567355" lon="9.311515656911594"><ele>82.0</ele><time>2026-04-11T09:25:12.999Z</time></trkpt><trkpt lat="45.256260847760714" lon="9.311656182355655"><ele>82.5</ele><time>2026-04-11T09:25:13.999Z</time></trkpt><trkpt lat="45.256339941011085" lon="9.311796283595198"><ele>83.0</ele><time>2026-04-11T09:25:14.999Z</time></trkpt><trkpt lat="45.25641882334779" lon="9.311934601340894"><ele>83.5</ele><time>2026-04-11T09:25:15.999Z</time></trkpt><trkpt lat="45.25649657541353" lon="9.312072412480898"><ele>84.0</ele><time>2026-04-11T09:25:16.999Z</time></trkpt><trkpt lat="45.256578881812004" lon="9.312204000902623"><ele>83.75</ele><time>2026-04-11T09:25:17.999Z</time></trkpt><trkpt lat="45.25665927345347" lon="9.312338848481783"><ele>83.5</ele><time>2026-04-11T09:25:18.999Z</time></trkpt><trkpt lat="45.256739431436195" lon="9.312476645179737"><ele>83.25</ele><time>2026-04-11T09:25:19.999Z</time></trkpt><trkpt lat="45.256819821199464" lon="9.312612041454798"><ele>83.0</ele><time>2026-04-11T09:25:20.999Z</time></trkpt><trkpt lat="45.256900508388256" lon="9.31274076044839"><ele>83.0</ele><time>2026-04-11T09:25:21.999Z</time></trkpt><trkpt lat="45.256976724835425" lon="9.3128658295043"><ele>83.0</ele><time>2026-04-11T09:25:22.998Z</time></trkpt><trkpt lat="45.25704632941797" lon="9.312981311886302"><ele>83.0</ele><time>2026-04-11T09:25:23.998Z</time></trkpt><trkpt lat="45.25710581384551" lon="9.313072136545966"><ele>83.0</ele><time>2026-04-11T09:25:24.998Z</time></trkpt><trkpt lat="45.25716075278839" lon="9.313163908385837"><ele>83.0</ele><time>2026-04-11T09:25:26.998Z</time></trkpt><trkpt lat="45.257231860623975" lon="9.313061274229044"><ele>82.0</ele><time>2026-04-11T09:25:30Z</time></trkpt><trkpt lat="45.257295624407085" lon="9.312986117662462"><ele>81.0</ele><time>2026-04-11T09:25:31Z</time></trkpt><trkpt lat="45.257356088548555" lon="9.312904174076754"><ele>80.0</ele><time>2026-04-11T09:25:32Z</time></trkpt><trkpt lat="45.25742241204994" lon="9.312818822160894"><ele>79.0</ele><time>2026-04-11T09:25:33Z</time></trkpt><trkpt lat="45.257498286438214" lon="9.31272314902663"><ele>78.0</ele><time>2026-04-11T09:25:34Z</time></trkpt><trkpt lat="45.25760920424091" lon="9.31259267439813"><ele>78.0</ele><time>2026-04-11T09:25:35Z</time></trkpt><trkpt lat="45.257738892303244" lon="9.312448827679233"><ele>78.0</ele><time>2026-04-11T09:25:36Z</time></trkpt><trkpt lat="45.25785058057379" lon="9.312322143232398"><ele>78.0</ele><time>2026-04-11T09:25:37Z</time></trkpt><trkpt lat="45.25794766190983" lon="9.312228019907314"><ele>78.0</ele><time>2026-04-11T09:25:38Z</time></trkpt><trkpt lat="45.258023689130624" lon="9.312144186519056"><ele>78.0</ele><time>2026-04-11T09:25:39Z</time></trkpt><trkpt lat="45.258087654520345" lon="9.312071881597321"><ele>78.0</ele><time>2026-04-11T09:25:40Z</time></trkpt><trkpt lat="45.258144640388544" lon="9.312002932685779"><ele>78.0</ele><time>2026-04-11T09:25:41Z</time></trkpt><trkpt lat="45.258217946451104" lon="9.311913188082263"><ele>78.0</ele><time>2026-04-11T09:25:43Z</time></trkpt><trkpt lat="45.25821773260881" lon="9.311758253245182"><ele>78.0</ele><time>2026-04-11T09:25:45Z</time></trkpt><trkpt lat="45.258187479499874" lon="9.31165884639185"><ele>78.0</ele><time>2026-04-11T09:25:46Z</time></trkpt><trkpt lat="45.25813281944638" lon="9.311528132509215"><ele>78.0</ele><time>2026-04-11T09:25:47Z</time></trkpt><trkpt lat="45.25807875069304" lon="9.311387399642719"><ele>78.0</ele><time>2026-04-11T09:25:48Z</time></trkpt><trkpt lat="45.25802415208782" lon="9.311233712753568"><ele>78.0</ele><time>2026-04-11T09:25:49Z</time></trkpt><trkpt lat="45.25797065789282" lon="9.311070025095987"><ele>78.0</ele><time>2026-04-11T09:25:50Z</time></trkpt><trkpt lat="45.257919825824416" lon="9.31090940571526"><ele>78.0</ele><time>2026-04-11T09:25:51Z</time></trkpt><trkpt lat="45.257872278904195" lon="9.310767772234026"><ele>78.0</ele><time>2026-04-11T09:25:52Z</time></trkpt><trkpt lat="45.257822451855176" lon="9.310621226274607"><ele>78.0</ele><time>2026-04-11T09:25:53Z</time></trkpt><trkpt lat="45.25777393797906" lon="9.310490224337622"><ele>78.0</ele><time>2026-04-11T09:25:54Z</time></trkpt><trkpt lat="45.25772425095676" lon="9.310341590888775"><ele>78.0</ele><time>2026-04-11T09:25:55Z</time></trkpt><trkpt lat="45.2576740949829" lon="9.310189360730705"><ele>78.0</ele><time>2026-04-11T09:25:56Z</time></trkpt><trkpt lat="45.257626304790534" lon="9.31003770196103"><ele>78.0</ele><time>2026-04-11T09:25:57Z</time></trkpt><trkpt lat="45.25756548735365" lon="9.309879527668022"><ele>78.0</ele><time>2026-04-11T09:25:58Z</time></trkpt><trkpt lat="45.25748534187581" lon="9.309726956070246"><ele>78.0</ele><time>2026-04-11T09:25:59Z</time></trkpt><trkpt lat="45.25739349940526" lon="9.30958057471111"><ele>78.0</ele><time>2026-04-11T09:26:00Z</time></trkpt><trkpt lat="45.25728739109457" lon="9.309422473234033"><ele>78.0</ele><time>2026-04-11T09:26:01Z</time></trkpt><trkpt lat="45.25719579819032" lon="9.309264760897904"><ele>78.0</ele><time>2026-04-11T09:26:02Z</time></trkpt><trkpt lat="45.2571033039481" lon="9.309120808698573"><ele>78.0</ele><time>2026-04-11T09:26:03Z</time></trkpt><trkpt lat="45.25701129883251" lon="9.30898630139268"><ele>78.0</ele><time>2026-04-11T09:26:04Z</time></trkpt><trkpt lat="45.25693450796035" lon="9.308831126639074"><ele>78.0</ele><time>2026-04-11T09:26:05Z</time></trkpt><trkpt lat="45.25685985936828" lon="9.30866432356784"><ele>78.0</ele><time>2026-04-11T09:26:06Z</time></trkpt><trkpt lat="45.25677593151313" lon="9.308497042309346"><ele>78.0</ele><time>2026-04-11T09:26:07Z</time></trkpt><trkpt lat="45.2566918499092" lon="9.308328145114437"><ele>78.0</ele><time>2026-04-11T09:26:08Z</time></trkpt><trkpt lat="45.2566067993764" lon="9.308171652153144"><ele>78.0</ele><time>2026-04-11T09:26:09Z</time></trkpt><trkpt lat="45.2565155493967" lon="9.30800696474095"><ele>78.0</ele><time>2026-04-11T09:26:10Z</time></trkpt><trkpt lat="45.25643261229745" lon="9.307855443547227"><ele>78.0</ele><time>2026-04-11T09:26:10.999Z</time></trkpt><trkpt lat="45.25634774400134" lon="9.307698738632093"><ele>78.0</ele><time>2026-04-11T09:26:11.999Z</time></trkpt><trkpt lat="45.25626505294472" lon="9.30752575348969"><ele>78.0</ele><time>2026-04-11T09:26:12.999Z</time></trkpt><trkpt lat="45.256183614298806" lon="9.307355380850087"><ele>78.0</ele><time>2026-04-11T09:26:13.999Z</time></trkpt><trkpt lat="45.2560961194362" lon="9.307169538407562"><ele>78.0</ele><time>2026-04-11T09:26:14.999Z</time></trkpt><trkpt lat="45.25600943332971" lon="9.307001673832946"><ele>78.0</ele><time>2026-04-11T09:26:15.999Z</time></trkpt><trkpt lat="45.25591342243803" lon="9.306833099677158"><ele>78.0</ele><time>2026-04-11T09:26:16.999Z</time></trkpt><trkpt lat="45.255812708232504" lon="9.306661601329967"><ele>78.0</ele><time>2026-04-11T09:26:17.999Z</time></trkpt><trkpt lat="45.255723847757054" lon="9.306502679693272"><ele>78.0</ele><time>2026-04-11T09:26:18.999Z</time></trkpt><trkpt lat="45.255648588071146" lon="9.306347686311408"><ele>78.0</ele><time>2026-04-11T09:26:19.999Z</time></trkpt><trkpt lat="45.25556394178067" lon="9.306178713002952"><ele>78.0</ele><time>2026-04-11T09:26:20.999Z</time></trkpt><trkpt lat="45.25548094590396" lon="9.305992705311306"><ele>78.33333333333333</ele><time>2026-04-11T09:26:21.999Z</time></trkpt><trkpt lat="45.2553940566062" lon="9.305811416908119"><ele>78.66666666666666</ele><time>2026-04-11T09:26:22.999Z</time></trkpt><trkpt lat="45.25530121513771" lon="9.30564726790535"><ele>79.0</ele><time>2026-04-11T09:26:23.999Z</time></trkpt><trkpt lat="45.25520496103572" lon="9.3054724404188"><ele>79.0</ele><time>2026-04-11T09:26:24.999Z</time></trkpt><trkpt lat="45.255109310184906" lon="9.305297835582921"><ele>79.0</ele><time>2026-04-11T09:26:25.999Z</time></trkpt><trkpt lat="45.25500802499845" lon="9.30512312857176"><ele>79.0</ele><time>2026-04-11T09:26:26.999Z</time></trkpt><trkpt lat="45.25491381412201" lon="9.304949987582056"><ele>79.0</ele><time>2026-04-11T09:26:27.999Z</time></trkpt><trkpt lat="45.25482287103047" lon="9.304782384335283"><ele>79.0</ele><time>2026-04-11T09:26:28.999Z</time></trkpt><trkpt lat="45.25473193180236" lon="9.304613602223254"><ele>79.0</ele><time>2026-04-11T09:26:29.999Z</time></trkpt><trkpt lat="45.25463876703112" lon="9.304444357616518"><ele>78.66666666666666</ele><time>2026-04-11T09:26:30.999Z</time></trkpt><trkpt lat="45.25454558217751" lon="9.30426893882325"><ele>78.33333333333333</ele><time>2026-04-11T09:26:31.999Z</time></trkpt><trkpt lat="45.25444547696564" lon="9.304091503423747"><ele>78.0</ele><time>2026-04-11T09:26:32.999Z</time></trkpt><trkpt lat="45.254349482196574" lon="9.303911315536224"><ele>78.0</ele><time>2026-04-11T09:26:33.999Z</time></trkpt><trkpt lat="45.254254485139406" lon="9.303741279373112"><ele>78.0</ele><time>2026-04-11T09:26:34.999Z</time></trkpt><trkpt lat="45.25415993450223" lon="9.303562157086743"><ele>78.0</ele><time>2026-04-11T09:26:35.999Z</time></trkpt><trkpt lat="45.2540719500742" lon="9.303399083904424"><ele>78.0</ele><time>2026-04-11T09:26:36.999Z</time></trkpt><trkpt lat="45.25398359409275" lon="9.303248868091998"><ele>78.0</ele><time>2026-04-11T09:26:37.999Z</time></trkpt><trkpt lat="45.253915221929574" lon="9.303115442313006"><ele>78.0</ele><time>2026-04-11T09:26:38.999Z</time></trkpt><trkpt lat="45.25384834036546" lon="9.302996348515132"><ele>78.0</ele><time>2026-04-11T09:26:39.999Z</time></trkpt><trkpt lat="45.25379035381023" lon="9.302892318906228"><ele>78.0</ele><time>2026-04-11T09:26:40.999Z</time></trkpt><trkpt lat="45.253728024134745" lon="9.302775773738214"><ele>78.0</ele><time>2026-04-11T09:26:41.999Z</time></trkpt><trkpt lat="45.253669159928286" lon="9.302669594164154"><ele>78.0</ele><time>2026-04-11T09:26:42.999Z</time></trkpt><trkpt lat="45.25361667681555" lon="9.302573380164986"><ele>78.0</ele><time>2026-04-11T09:26:43.999Z</time></trkpt><trkpt lat="45.253572265495336" lon="9.302496062174423"><ele>78.0</ele><time>2026-04-11T09:26:44.999Z</time></trkpt><trkpt lat="45.25350851738806" lon="9.302372243038167"><ele>78.0</ele><time>2026-04-11T09:26:46.999Z</time></trkpt><trkpt lat="45.2534731439983" lon="9.302296840748589"><ele>78.0</ele><time>2026-04-11T09:26:48.999Z</time></trkpt><trkpt lat="45.25347234886936" lon="9.302195501163554"><ele>78.0</ele><time>2026-04-11T09:26:52.999Z</time></trkpt><trkpt lat="45.25338897269838" lon="9.302036692970354"><ele>78.0</ele><time>2026-04-11T09:26:54.999Z</time></trkpt><trkpt lat="45.253280640594056" lon="9.301955554218777"><ele>78.0</ele><time>2026-04-11T09:26:55.999Z</time></trkpt><trkpt lat="45.25318155944338" lon="9.301857796343038"><ele>78.0</ele><time>2026-04-11T09:26:56.999Z</time></trkpt><trkpt lat="45.253103617014084" lon="9.30173241910863"><ele>78.0</ele><time>2026-04-11T09:26:57.999Z</time></trkpt><trkpt lat="45.253019932540695" lon="9.301560502470226"><ele>78.0</ele><time>2026-04-11T09:26:58.999Z</time></trkpt><trkpt lat="45.25294679408213" lon="9.30137898938307"><ele>78.0</ele><time>2026-04-11T09:26:59.999Z</time></trkpt><trkpt lat="45.25287343247401" lon="9.301210927920797"><ele>78.66666666666667</ele><time>2026-04-11T09:27:00.999Z</time></trkpt><trkpt lat="45.252779253406295" lon="9.301040502604108"><ele>79.33333333333334</ele><time>2026-04-11T09:27:01.999Z</time></trkpt><trkpt lat="45.25263975155336" lon="9.300885370763496"><ele>80.0</ele><time>2026-04-11T09:27:02.999Z</time></trkpt><trkpt lat="45.25246598264334" lon="9.300764726690218"><ele>80.0</ele><time>2026-04-11T09:27:03.999Z</time></trkpt><trkpt lat="45.252293975702926" lon="9.300651089360697"><ele>80.0</ele><time>2026-04-11T09:27:04.999Z</time></trkpt><trkpt lat="45.25214679910063" lon="9.300535711896119"><ele>80.0</ele><time>2026-04-11T09:27:05.999Z</time></trkpt><trkpt lat="45.252014084901624" lon="9.300427780207404"><ele>80.0</ele><time>2026-04-11T09:27:06.999Z</time></trkpt><trkpt lat="45.251872368230615" lon="9.300335260864154"><ele>80.0</ele><time>2026-04-11T09:27:07.999Z</time></trkpt><trkpt lat="45.25172718985453" lon="9.300236988562562"><ele>80.0</ele><time>2026-04-11T09:27:08.999Z</time></trkpt><trkpt lat="45.25158363253118" lon="9.300140975306194"><ele>79.75</ele><time>2026-04-11T09:27:09.999Z</time></trkpt><trkpt lat="45.251447510330664" lon="9.300047131707004"><ele>79.5</ele><time>2026-04-11T09:27:10.999Z</time></trkpt><trkpt lat="45.251316072419755" lon="9.299956724881984"><ele>79.25</ele><time>2026-04-11T09:27:11.999Z</time></trkpt><trkpt lat="45.25118909723807" lon="9.299864689487194"><ele>79.0</ele><time>2026-04-11T09:27:12.999Z</time></trkpt><trkpt lat="45.2510725348335" lon="9.299781372056133"><ele>79.5</ele><time>2026-04-11T09:27:13.999Z</time></trkpt><trkpt lat="45.25096938569741" lon="9.29969697211208"><ele>80.0</ele><time>2026-04-11T09:27:14.999Z</time></trkpt><trkpt lat="45.25088165459306" lon="9.299600833251317"><ele>80.5</ele><time>2026-04-11T09:27:15.999Z</time></trkpt><trkpt lat="45.25079610395408" lon="9.299496054552453"><ele>81.0</ele><time>2026-04-11T09:27:16.999Z</time></trkpt><trkpt lat="45.25067721384324" lon="9.299440817910098"><ele>79.75</ele><time>2026-04-11T09:27:17.999Z</time></trkpt><trkpt lat="45.25054128988024" lon="9.29942285746506"><ele>78.5</ele><time>2026-04-11T09:27:18.999Z</time></trkpt><trkpt lat="45.25041295744723" lon="9.299418057797176"><ele>77.25</ele><time>2026-04-11T09:27:19.999Z</time></trkpt><trkpt lat="45.25029876391761" lon="9.299382872938242"><ele>76.0</ele><time>2026-04-11T09:27:20.998Z</time></trkpt><trkpt lat="45.250195043943506" lon="9.299318728872242"><ele>76.0</ele><time>2026-04-11T09:27:21.998Z</time></trkpt><trkpt lat="45.250104079642114" lon="9.299226156260564"><ele>76.0</ele><time>2026-04-11T09:27:22.998Z</time></trkpt><trkpt lat="45.25004552494471" lon="9.299100480991653"><ele>76.0</ele><time>2026-04-11T09:27:23.998Z</time></trkpt><trkpt lat="45.25002377213455" lon="9.298989593659122"><ele>76.0</ele><time>2026-04-11T09:27:24.998Z</time></trkpt><trkpt lat="45.250029447405986" lon="9.298861963588298"><ele>76.0</ele><time>2026-04-11T09:27:26.998Z</time></trkpt><trkpt lat="45.25000313515887" lon="9.298715346102355"><ele>76.0</ele><time>2026-04-11T09:27:28.998Z</time></trkpt><trkpt lat="45.24997999089588" lon="9.29862053854987"><ele>76.0</ele><time>2026-04-11T09:27:29.998Z</time></trkpt><trkpt lat="45.24996194012461" lon="9.298532529156"><ele>76.0</ele><time>2026-04-11T09:27:30.998Z</time></trkpt><trkpt lat="45.249924347571294" lon="9.298364751111064"><ele>76.0</ele><time>2026-04-11T09:27:32.998Z</time></trkpt><trkpt lat="45.249895968040306" lon="9.298202346735604"><ele>76.0</ele><time>2026-04-11T09:27:34.998Z</time></trkpt><trkpt lat="45.249866134165735" lon="9.298037010444244"><ele>76.0</ele><time>2026-04-11T09:27:37Z</time></trkpt><trkpt lat="45.24982402555309" lon="9.297840016118723"><ele>76.0</ele><time>2026-04-11T09:27:39Z</time></trkpt><trkpt lat="45.24980211209239" lon="9.297718778531559"><ele>76.0</ele><time>2026-04-11T09:27:40Z</time></trkpt><trkpt lat="45.24977698686183" lon="9.29758018075677"><ele>76.0</ele><time>2026-04-11T09:27:41Z</time></trkpt><trkpt lat="45.24975161372231" lon="9.297419710375214"><ele>75.25</ele><time>2026-04-11T09:27:42Z</time></trkpt><trkpt lat="45.24972383674003" lon="9.297237039499109"><ele>74.5</ele><time>2026-04-11T09:27:43Z</time></trkpt><trkpt lat="45.24968817388849" lon="9.297056931041816"><ele>73.75</ele><time>2026-04-11T09:27:44Z</time></trkpt><trkpt lat="45.24964511076365" lon="9.296896817655561"><ele>73.0</ele><time>2026-04-11T09:27:45Z</time></trkpt><trkpt lat="45.249575286178015" lon="9.296744025995158"><ele>73.0</ele><time>2026-04-11T09:27:46Z</time></trkpt><trkpt lat="45.24946388262772" lon="9.296597458295404"><ele>73.0</ele><time>2026-04-11T09:27:47Z</time></trkpt><trkpt lat="45.249354537288355" lon="9.296486299665874"><ele>73.0</ele><time>2026-04-11T09:27:48Z</time></trkpt><trkpt lat="45.249253780496396" lon="9.296364142764727"><ele>73.0</ele><time>2026-04-11T09:27:49Z</time></trkpt><trkpt lat="45.24914947721396" lon="9.29625072797575"><ele>73.5</ele><time>2026-04-11T09:27:50Z</time></trkpt><trkpt lat="45.24904952810928" lon="9.296147190121806"><ele>74.0</ele><time>2026-04-11T09:27:51Z</time></trkpt><trkpt lat="45.24895496936495" lon="9.29603458777841"><ele>74.5</ele><time>2026-04-11T09:27:52Z</time></trkpt><trkpt lat="45.24885600281725" lon="9.295911583280724"><ele>75.0</ele><time>2026-04-11T09:27:53Z</time></trkpt><trkpt lat="45.24875710211432" lon="9.295799961651666"><ele>75.5</ele><time>2026-04-11T09:27:54Z</time></trkpt><trkpt lat="45.24867352385789" lon="9.295709075053042"><ele>76.0</ele><time>2026-04-11T09:27:55Z</time></trkpt><trkpt lat="45.24861528350652" lon="9.295630540122888"><ele>76.5</ele><time>2026-04-11T09:27:56Z</time></trkpt><trkpt lat="45.248563221800644" lon="9.295551097468325"><ele>77.0</ele><time>2026-04-11T09:27:57Z</time></trkpt><trkpt lat="45.24853633301191" lon="9.295457230971463"><ele>77.5</ele><time>2026-04-11T09:27:58Z</time></trkpt><trkpt lat="45.24854129298294" lon="9.295363198608898"><ele>78.0</ele><time>2026-04-11T09:27:59Z</time></trkpt><trkpt lat="45.2484589823616" lon="9.295240661779589"><ele>78.2</ele><time>2026-04-11T09:28:01Z</time></trkpt><trkpt lat="45.24837426556101" lon="9.29525547367696"><ele>78.4</ele><time>2026-04-11T09:28:02Z</time></trkpt><trkpt lat="45.24827134477731" lon="9.295300334829903"><ele>78.60000000000001</ele><time>2026-04-11T09:28:03Z</time></trkpt><trkpt lat="45.248163586705346" lon="9.295350241675855"><ele>78.8</ele><time>2026-04-11T09:28:04Z</time></trkpt><trkpt lat="45.248045841760884" lon="9.295381340601736"><ele>79.0</ele><time>2026-04-11T09:28:05Z</time></trkpt><trkpt lat="45.24794483420567" lon="9.295385668035706"><ele>79.16666666666666</ele><time>2026-04-11T09:28:06Z</time></trkpt><trkpt lat="45.24785512836098" lon="9.295388201674342"><ele>79.33333333333333</ele><time>2026-04-11T09:28:07Z</time></trkpt><trkpt lat="45.24777904998097" lon="9.295400889836358"><ele>79.5</ele><time>2026-04-11T09:28:08Z</time></trkpt><trkpt lat="45.24770963037978" lon="9.295421104412508"><ele>79.66666666666667</ele><time>2026-04-11T09:28:09Z</time></trkpt><trkpt lat="45.24764141705041" lon="9.295460348662738"><ele>79.83333333333334</ele><time>2026-04-11T09:28:10Z</time></trkpt><trkpt lat="45.24756622813224" lon="9.29554346015778"><ele>80.0</ele><time>2026-04-11T09:28:11Z</time></trkpt><trkpt lat="45.24751013256529" lon="9.2956764704673"><ele>79.8</ele><time>2026-04-11T09:28:12Z</time></trkpt><trkpt lat="45.24746503420582" lon="9.295793717539109"><ele>79.6</ele><time>2026-04-11T09:28:13Z</time></trkpt><trkpt lat="45.24739151628472" lon="9.295890411622917"><ele>79.4</ele><time>2026-04-11T09:28:14Z</time></trkpt><trkpt lat="45.24729093508919" lon="9.295963737325673"><ele>79.2</ele><time>2026-04-11T09:28:14.999Z</time></trkpt><trkpt lat="45.24718792319083" lon="9.296037430763853"><ele>79.0</ele><time>2026-04-11T09:28:15.999Z</time></trkpt><trkpt lat="45.24709384223228" lon="9.296125850818356"><ele>79.0</ele><time>2026-04-11T09:28:16.999Z</time></trkpt><trkpt lat="45.246978040922244" lon="9.296235027950257"><ele>79.0</ele><time>2026-04-11T09:28:17.999Z</time></trkpt><trkpt lat="45.24686640962629" lon="9.296370549517974"><ele>79.0</ele><time>2026-04-11T09:28:18.999Z</time></trkpt><trkpt lat="45.24678199972708" lon="9.296503218412749"><ele>79.0</ele><time>2026-04-11T09:28:19.999Z</time></trkpt><trkpt lat="45.24670613257813" lon="9.296618228984643"><ele>78.75</ele><time>2026-04-11T09:28:20.999Z</time></trkpt><trkpt lat="45.24664394497481" lon="9.296723738210943"><ele>78.5</ele><time>2026-04-11T09:28:21.999Z</time></trkpt><trkpt lat="45.24661105121931" lon="9.296864332776169"><ele>78.25</ele><time>2026-04-11T09:28:22.999Z</time></trkpt><trkpt lat="45.24663164991018" lon="9.297042730585533"><ele>78.0</ele><time>2026-04-11T09:28:23.999Z</time></trkpt><trkpt lat="45.24667671254164" lon="9.297212835700611"><ele>77.75</ele><time>2026-04-11T09:28:24.999Z</time></trkpt><trkpt lat="45.24673167850815" lon="9.29738114383506"><ele>77.5</ele><time>2026-04-11T09:28:25.999Z</time></trkpt><trkpt lat="45.24676573167822" lon="9.297538982767444"><ele>77.25</ele><time>2026-04-11T09:28:26.999Z</time></trkpt><trkpt lat="45.246765589975126" lon="9.297721918717071"><ele>77.0</ele><time>2026-04-11T09:28:27.999Z</time></trkpt><trkpt lat="45.24673724117354" lon="9.297908579468496"><ele>77.0</ele><time>2026-04-11T09:28:28.999Z</time></trkpt><trkpt lat="45.24669207091684" lon="9.298069744937322"><ele>77.0</ele><time>2026-04-11T09:28:29.999Z</time></trkpt><trkpt lat="45.2466389428587" lon="9.29823811107243"><ele>77.0</ele><time>2026-04-11T09:28:30.999Z</time></trkpt><trkpt lat="45.24658037869186" lon="9.298417934912305"><ele>77.0</ele><time>2026-04-11T09:28:31.999Z</time></trkpt><trkpt lat="45.24653303865402" lon="9.298602129829087"><ele>77.25</ele><time>2026-04-11T09:28:32.999Z</time></trkpt><trkpt lat="45.24650625582499" lon="9.298792369696848"><ele>77.5</ele><time>2026-04-11T09:28:33.999Z</time></trkpt><trkpt lat="45.246488628208205" lon="9.298981808384356"><ele>77.75</ele><time>2026-04-11T09:28:34.999Z</time></trkpt><trkpt lat="45.24647841643389" lon="9.299172679273099"><ele>78.0</ele><time>2026-04-11T09:28:35.999Z</time></trkpt><trkpt lat="45.24647008594933" lon="9.299372289840276"><ele>78.0</ele><time>2026-04-11T09:28:36.999Z</time></trkpt><trkpt lat="45.246466654929556" lon="9.299561959423723"><ele>78.0</ele><time>2026-04-11T09:28:37.999Z</time></trkpt><trkpt lat="45.24646072943524" lon="9.299758258820933"><ele>78.0</ele><time>2026-04-11T09:28:38.999Z</time></trkpt><trkpt lat="45.24645775058034" lon="9.29995358484761"><ele>78.0</ele><time>2026-04-11T09:28:39.999Z</time></trkpt><trkpt lat="45.24646702044524" lon="9.300152827503648"><ele>77.75</ele><time>2026-04-11T09:28:40.999Z</time></trkpt><trkpt lat="45.24646002318913" lon="9.300349685164798"><ele>77.5</ele><time>2026-04-11T09:28:41.999Z</time></trkpt><trkpt lat="45.24641788094287" lon="9.30054185084372"><ele>77.25</ele><time>2026-04-11T09:28:42.999Z</time></trkpt><trkpt lat="45.24634532768999" lon="9.30072412141994"><ele>77.0</ele><time>2026-04-11T09:28:43.999Z</time></trkpt><trkpt lat="45.24625381221755" lon="9.300900294192504"><ele>77.0</ele><time>2026-04-11T09:28:44.999Z</time></trkpt><trkpt lat="45.24615466264912" lon="9.30107527278932"><ele>77.0</ele><time>2026-04-11T09:28:45.999Z</time></trkpt><trkpt lat="45.246059627420664" lon="9.301269323212932"><ele>77.0</ele><time>2026-04-11T09:28:46.999Z</time></trkpt><trkpt lat="45.245968803228365" lon="9.301451512112843"><ele>76.5</ele><time>2026-04-11T09:28:47.999Z</time></trkpt><trkpt lat="45.24589361862994" lon="9.301605040424368"><ele>76.0</ele><time>2026-04-11T09:28:48.999Z</time></trkpt><trkpt lat="45.24583663691222" lon="9.301746683509228"><ele>75.5</ele><time>2026-04-11T09:28:49.999Z</time></trkpt><trkpt lat="45.245792112191715" lon="9.301901674355713"><ele>75.0</ele><time>2026-04-11T09:28:50.999Z</time></trkpt><trkpt lat="45.245775652420164" lon="9.30208799319921"><ele>75.66666666666667</ele><time>2026-04-11T09:28:51.999Z</time></trkpt><trkpt lat="45.245766100245376" lon="9.302298999221165"><ele>76.33333333333334</ele><time>2026-04-11T09:28:52.999Z</time></trkpt><trkpt lat="45.24575212402841" lon="9.302524856334236"><ele>77.0</ele><time>2026-04-11T09:28:53.999Z</time></trkpt><trkpt lat="45.24573660013095" lon="9.302758461098378"><ele>77.0</ele><time>2026-04-11T09:28:54.999Z</time></trkpt><trkpt lat="45.24571623938866" lon="9.302977575945945"><ele>77.0</ele><time>2026-04-11T09:28:55.999Z</time></trkpt><trkpt lat="45.245714765047545" lon="9.303206023694495"><ele>77.0</ele><time>2026-04-11T09:28:56.999Z</time></trkpt><trkpt lat="45.245728363115155" lon="9.303443616451814"><ele>77.0</ele><time>2026-04-11T09:28:57.999Z</time></trkpt><trkpt lat="45.24573849634241" lon="9.303664637237782"><ele>77.0</ele><time>2026-04-11T09:28:58.999Z</time></trkpt><trkpt lat="45.24573666166533" lon="9.303881224869663"><ele>77.0</ele><time>2026-04-11T09:28:59.999Z</time></trkpt><trkpt lat="45.245724303909476" lon="9.30410264708979"><ele>76.66666666666667</ele><time>2026-04-11T09:29:00.999Z</time></trkpt><trkpt lat="45.24570183107964" lon="9.3043205163928"><ele>76.33333333333333</ele><time>2026-04-11T09:29:01.999Z</time></trkpt><trkpt lat="45.24565822575124" lon="9.304539848213526"><ele>76.0</ele><time>2026-04-11T09:29:02.999Z</time></trkpt><trkpt lat="45.245605394018064" lon="9.304758196438721"><ele>76.0</ele><time>2026-04-11T09:29:03.999Z</time></trkpt><trkpt lat="45.24555244398172" lon="9.304970847146613"><ele>76.0</ele><time>2026-04-11T09:29:04.999Z</time></trkpt><trkpt lat="45.245502210331246" lon="9.305177282974544"><ele>76.0</ele><time>2026-04-11T09:29:05.999Z</time></trkpt><trkpt lat="45.24545381155151" lon="9.305372323628129"><ele>76.0</ele><time>2026-04-11T09:29:06.999Z</time></trkpt><trkpt lat="45.24540336346838" lon="9.305565004778517"><ele>76.0</ele><time>2026-04-11T09:29:07.999Z</time></trkpt><trkpt lat="45.24535251148395" lon="9.305750282708944"><ele>76.0</ele><time>2026-04-11T09:29:08.999Z</time></trkpt><trkpt lat="45.24530161745173" lon="9.305934250097984"><ele>76.0</ele><time>2026-04-11T09:29:09.999Z</time></trkpt><trkpt lat="45.24524604291848" lon="9.306124179211945"><ele>75.66666666666666</ele><time>2026-04-11T09:29:10.999Z</time></trkpt><trkpt lat="45.245182027542356" lon="9.30632456380448"><ele>75.33333333333333</ele><time>2026-04-11T09:29:11.999Z</time></trkpt><trkpt lat="45.24511860127925" lon="9.30653436544727"><ele>75.0</ele><time>2026-04-11T09:29:12.999Z</time></trkpt><trkpt lat="45.24503509780773" lon="9.306754210149926"><ele>75.0</ele><time>2026-04-11T09:29:13.999Z</time></trkpt><trkpt lat="45.244948533321406" lon="9.306949223420817"><ele>75.0</ele><time>2026-04-11T09:29:14.999Z</time></trkpt><trkpt lat="45.244864421977304" lon="9.307132292914236"><ele>75.0</ele><time>2026-04-11T09:29:15.999Z</time></trkpt><trkpt lat="45.244766844904795" lon="9.307321101376663"><ele>75.0</ele><time>2026-04-11T09:29:16.999Z</time></trkpt><trkpt lat="45.24466701891079" lon="9.307497418177025"><ele>75.0</ele><time>2026-04-11T09:29:17.999Z</time></trkpt><trkpt lat="45.244565054283015" lon="9.307679891962207"><ele>75.0</ele><time>2026-04-11T09:29:18.999Z</time></trkpt><trkpt lat="45.244469098651166" lon="9.30785831879631"><ele>75.0</ele><time>2026-04-11T09:29:19.999Z</time></trkpt><trkpt lat="45.24437223843896" lon="9.308033490116518"><ele>75.0</ele><time>2026-04-11T09:29:20.999Z</time></trkpt><trkpt lat="45.2442790735733" lon="9.308209196718247"><ele>75.0</ele><time>2026-04-11T09:29:21.999Z</time></trkpt><trkpt lat="45.24418376219725" lon="9.308388876290069"><ele>75.33333333333333</ele><time>2026-04-11T09:29:22.999Z</time></trkpt><trkpt lat="45.244088003016124" lon="9.30856762775462"><ele>75.66666666666666</ele><time>2026-04-11T09:29:23.999Z</time></trkpt><trkpt lat="45.243993631111664" lon="9.308741391929388"><ele>76.0</ele><time>2026-04-11T09:29:24.999Z</time></trkpt><trkpt lat="45.24390062299457" lon="9.308918587504458"><ele>75.0</ele><time>2026-04-11T09:29:25.999Z</time></trkpt><trkpt lat="45.24380759189458" lon="9.309094071389701"><ele>74.0</ele><time>2026-04-11T09:29:26.999Z</time></trkpt><trkpt lat="45.24371334149459" lon="9.309265974524825"><ele>73.0</ele><time>2026-04-11T09:29:27.999Z</time></trkpt><trkpt lat="45.24361995291033" lon="9.30943688310662"><ele>73.0</ele><time>2026-04-11T09:29:28.999Z</time></trkpt><trkpt lat="45.24353306233153" lon="9.30960059913845"><ele>73.0</ele><time>2026-04-11T09:29:29.999Z</time></trkpt><trkpt lat="45.24343993756323" lon="9.309767410533263"><ele>73.0</ele><time>2026-04-11T09:29:30.998Z</time></trkpt><trkpt lat="45.2433466688141" lon="9.309929292439262"><ele>73.0</ele><time>2026-04-11T09:29:31.998Z</time></trkpt><trkpt lat="45.243250521882324" lon="9.31009346335595"><ele>73.25</ele><time>2026-04-11T09:29:32.998Z</time></trkpt><trkpt lat="45.24318500792863" lon="9.310235284053658"><ele>73.5</ele><time>2026-04-11T09:29:33.998Z</time></trkpt><trkpt lat="45.24310662714347" lon="9.310384231437327"><ele>73.75</ele><time>2026-04-11T09:29:34.998Z</time></trkpt><trkpt lat="45.24302569473895" lon="9.310534236085935"><ele>74.0</ele><time>2026-04-11T09:29:35.998Z</time></trkpt><trkpt lat="45.242937299472096" lon="9.310692831179184"><ele>74.33333333333334</ele><time>2026-04-11T09:29:36.998Z</time></trkpt><trkpt lat="45.24284753776095" lon="9.310856972122757"><ele>74.66666666666667</ele><time>2026-04-11T09:29:37.998Z</time></trkpt><trkpt lat="45.24275411518897" lon="9.31102734447596"><ele>75.0</ele><time>2026-04-11T09:29:38.998Z</time></trkpt><trkpt lat="45.242659573680015" lon="9.31120083991882"><ele>75.0</ele><time>2026-04-11T09:29:39.998Z</time></trkpt><trkpt lat="45.242561859803565" lon="9.311372239979649"><ele>75.0</ele><time>2026-04-11T09:29:40.998Z</time></trkpt><trkpt lat="45.2424620107619" lon="9.311551199364375"><ele>75.0</ele><time>2026-04-11T09:29:42Z</time></trkpt><trkpt lat="45.24236390430402" lon="9.311727771493581"><ele>75.33333333333333</ele><time>2026-04-11T09:29:43Z</time></trkpt><trkpt lat="45.24226726281832" lon="9.31192067290733"><ele>75.66666666666666</ele><time>2026-04-11T09:29:44Z</time></trkpt><trkpt lat="45.24216114104584" lon="9.312113400212617"><ele>76.0</ele><time>2026-04-11T09:29:45Z</time></trkpt><trkpt lat="45.242049687524016" lon="9.31231707804158"><ele>76.0</ele><time>2026-04-11T09:29:46Z</time></trkpt><trkpt lat="45.241932317302414" lon="9.31252693242176"><ele>76.0</ele><time>2026-04-11T09:29:47Z</time></trkpt><trkpt lat="45.241817447378835" lon="9.312750247120501"><ele>76.0</ele><time>2026-04-11T09:29:48Z</time></trkpt><trkpt lat="45.24169655302941" lon="9.312984276743197"><ele>76.0</ele><time>2026-04-11T09:29:49Z</time></trkpt><trkpt lat="45.24156750063774" lon="9.313222971832545"><ele>76.0</ele><time>2026-04-11T09:29:50Z</time></trkpt><trkpt lat="45.24143696002095" lon="9.313468689979041"><ele>76.0</ele><time>2026-04-11T09:29:51Z</time></trkpt><trkpt lat="45.24130208880386" lon="9.31372298839027"><ele>74.5</ele><time>2026-04-11T09:29:52Z</time></trkpt><trkpt lat="45.24116036688586" lon="9.313980454219045"><ele>73.0</ele><time>2026-04-11T09:29:53Z</time></trkpt><trkpt lat="45.24101645595063" lon="9.31424726966232"><ele>73.0</ele><time>2026-04-11T09:29:54Z</time></trkpt><trkpt lat="45.24087773350115" lon="9.314496872233264"><ele>73.0</ele><time>2026-04-11T09:29:55Z</time></trkpt><trkpt lat="45.24074731216044" lon="9.314733066938969"><ele>73.0</ele><time>2026-04-11T09:29:56Z</time></trkpt><trkpt lat="45.240613712191646" lon="9.314976323639666"><ele>73.0</ele><time>2026-04-11T09:29:57Z</time></trkpt><trkpt lat="45.24048153259972" lon="9.315240671294399"><ele>73.0</ele><time>2026-04-11T09:29:58Z</time></trkpt><trkpt lat="45.24033649664293" lon="9.315501877070057"><ele>74.0</ele><time>2026-04-11T09:29:59Z</time></trkpt><trkpt lat="45.24019272432971" lon="9.315766490769352"><ele>75.0</ele><time>2026-04-11T09:30:00Z</time></trkpt><trkpt lat="45.24005981134584" lon="9.316012063685442"><ele>75.0</ele><time>2026-04-11T09:30:01Z</time></trkpt><trkpt lat="45.23992377945576" lon="9.31625788903231"><ele>75.0</ele><time>2026-04-11T09:30:02Z</time></trkpt><trkpt lat="45.23977709048498" lon="9.316496291513905"><ele>75.0</ele><time>2026-04-11T09:30:03Z</time></trkpt><trkpt lat="45.239614960338486" lon="9.31672395842529"><ele>74.5</ele><time>2026-04-11T09:30:04Z</time></trkpt><trkpt lat="45.23944566829777" lon="9.316943993334764"><ele>74.0</ele><time>2026-04-11T09:30:05Z</time></trkpt><trkpt lat="45.23926310962286" lon="9.317139102753913"><ele>74.0</ele><time>2026-04-11T09:30:06Z</time></trkpt><trkpt lat="45.23907224842641" lon="9.317323494784588"><ele>74.0</ele><time>2026-04-11T09:30:07Z</time></trkpt><trkpt lat="45.23887313877324" lon="9.317492873513608"><ele>73.5</ele><time>2026-04-11T09:30:08Z</time></trkpt><trkpt lat="45.238662884984045" lon="9.317649778764125"><ele>73.0</ele><time>2026-04-11T09:30:09Z</time></trkpt><trkpt lat="45.23845153180244" lon="9.31779771847274"><ele>73.0</ele><time>2026-04-11T09:30:10Z</time></trkpt><trkpt lat="45.23825053327188" lon="9.317933090050639"><ele>73.0</ele><time>2026-04-11T09:30:11Z</time></trkpt><trkpt lat="45.238065783646384" lon="9.318060415740007"><ele>73.0</ele><time>2026-04-11T09:30:12Z</time></trkpt><trkpt lat="45.237878225291816" lon="9.318197179388408"><ele>73.33333333333333</ele><time>2026-04-11T09:30:13Z</time></trkpt><trkpt lat="45.237686637159925" lon="9.318332852579765"><ele>73.66666666666667</ele><time>2026-04-11T09:30:14Z</time></trkpt><trkpt lat="45.23749526242086" lon="9.318470532312043"><ele>74.0</ele><time>2026-04-11T09:30:15Z</time></trkpt><trkpt lat="45.2373046199444" lon="9.31860654892778"><ele>74.0</ele><time>2026-04-11T09:30:16Z</time></trkpt><trkpt lat="45.23711285711132" lon="9.318747414051744"><ele>74.0</ele><time>2026-04-11T09:30:17Z</time></trkpt><trkpt lat="45.236920249461484" lon="9.318888284552191"><ele>74.0</ele><time>2026-04-11T09:30:18Z</time></trkpt><trkpt lat="45.23672718767353" lon="9.31903142583848"><ele>74.0</ele><time>2026-04-11T09:30:19Z</time></trkpt><trkpt lat="45.236530401609556" lon="9.319171193251417"><ele>74.0</ele><time>2026-04-11T09:30:20Z</time></trkpt><trkpt lat="45.23633491434225" lon="9.319312170214996"><ele>74.0</ele><time>2026-04-11T09:30:21Z</time></trkpt><trkpt lat="45.23613729456456" lon="9.31945551528374"><ele>74.0</ele><time>2026-04-11T09:30:22Z</time></trkpt><trkpt lat="45.23593843585554" lon="9.319598097054106"><ele>74.0</ele><time>2026-04-11T09:30:23Z</time></trkpt><trkpt lat="45.23573773843618" lon="9.319740802791559"><ele>74.0</ele><time>2026-04-11T09:30:24Z</time></trkpt><trkpt lat="45.235537919980025" lon="9.319883235762184"><ele>73.0</ele><time>2026-04-11T09:30:25Z</time></trkpt><trkpt lat="45.23533743143541" lon="9.320028813732897"><ele>72.0</ele><time>2026-04-11T09:30:26Z</time></trkpt><trkpt lat="45.23513503115633" lon="9.320177503924889"><ele>72.0</ele><time>2026-04-11T09:30:27Z</time></trkpt><trkpt lat="45.234933853156456" lon="9.320325092400518"><ele>72.0</ele><time>2026-04-11T09:30:27.999Z</time></trkpt><trkpt lat="45.23473048520902" lon="9.320475612999305"><ele>72.5</ele><time>2026-04-11T09:30:28.999Z</time></trkpt><trkpt lat="45.234525188201445" lon="9.320626270992285"><ele>73.0</ele><time>2026-04-11T09:30:29.999Z</time></trkpt><trkpt lat="45.23431524419453" lon="9.320777762071147"><ele>73.0</ele><time>2026-04-11T09:30:30.999Z</time></trkpt><trkpt lat="45.234108750301175" lon="9.320929204294535"><ele>73.0</ele><time>2026-04-11T09:30:31.999Z</time></trkpt><trkpt lat="45.23389868115294" lon="9.32108166571233"><ele>72.5</ele><time>2026-04-11T09:30:32.999Z</time></trkpt><trkpt lat="45.23369105780165" lon="9.321229798983065"><ele>72.0</ele><time>2026-04-11T09:30:33.999Z</time></trkpt><trkpt lat="45.233488671903196" lon="9.32137744829871"><ele>72.33333333333333</ele><time>2026-04-11T09:30:34.999Z</time></trkpt><trkpt lat="45.23328687791865" lon="9.321523631845709"><ele>72.66666666666666</ele><time>2026-04-11T09:30:35.999Z</time></trkpt><trkpt lat="45.233086958303" lon="9.32166368529127"><ele>73.0</ele><time>2026-04-11T09:30:36.999Z</time></trkpt><trkpt lat="45.23288855135613" lon="9.321815327714653"><ele>73.0</ele><time>2026-04-11T09:30:37.999Z</time></trkpt><trkpt lat="45.232694260255265" lon="9.32196687570538"><ele>73.0</ele><time>2026-04-11T09:30:38.999Z</time></trkpt><trkpt lat="45.23250457747397" lon="9.322130983329888"><ele>73.0</ele><time>2026-04-11T09:30:39.999Z</time></trkpt><trkpt lat="45.23231996536049" lon="9.32231128704937"><ele>73.0</ele><time>2026-04-11T09:30:40.999Z</time></trkpt><trkpt lat="45.23214215510357" lon="9.3225037165558"><ele>73.0</ele><time>2026-04-11T09:30:41.999Z</time></trkpt><trkpt lat="45.231971425106394" lon="9.32270552990046"><ele>73.0</ele><time>2026-04-11T09:30:42.999Z</time></trkpt><trkpt lat="45.2318018385801" lon="9.322926377373156"><ele>73.33333333333333</ele><time>2026-04-11T09:30:43.999Z</time></trkpt><trkpt lat="45.231639488791586" lon="9.323143631384477"><ele>73.66666666666667</ele><time>2026-04-11T09:30:44.999Z</time></trkpt><trkpt lat="45.2314741431354" lon="9.323356810648553"><ele>74.0</ele><time>2026-04-11T09:30:45.999Z</time></trkpt><trkpt lat="45.231305262144474" lon="9.323571280798685"><ele>74.33333333333334</ele><time>2026-04-11T09:30:46.999Z</time></trkpt><trkpt lat="45.23114335482029" lon="9.323781209742624"><ele>74.66666666666667</ele><time>2026-04-11T09:30:47.999Z</time></trkpt><trkpt lat="45.230980936953" lon="9.323981885885736"><ele>75.0</ele><time>2026-04-11T09:30:48.999Z</time></trkpt><trkpt lat="45.23082020474732" lon="9.32418358049165"><ele>75.0</ele><time>2026-04-11T09:30:49.999Z</time></trkpt><trkpt lat="45.23066643775494" lon="9.324393974139076"><ele>75.0</ele><time>2026-04-11T09:30:50.999Z</time></trkpt><trkpt lat="45.23051861733729" lon="9.324598450266285"><ele>75.0</ele><time>2026-04-11T09:30:51.999Z</time></trkpt><trkpt lat="45.23038421672462" lon="9.324795854672923"><ele>75.0</ele><time>2026-04-11T09:30:52.999Z</time></trkpt><trkpt lat="45.230248939792254" lon="9.324968728625144"><ele>75.0</ele><time>2026-04-11T09:30:53.999Z</time></trkpt><trkpt lat="45.23011135116142" lon="9.325115912267066"><ele>75.0</ele><time>2026-04-11T09:30:54.999Z</time></trkpt><trkpt lat="45.22997852948752" lon="9.325248767148226"><ele>75.0</ele><time>2026-04-11T09:30:55.999Z</time></trkpt><trkpt lat="45.229844438414425" lon="9.325371848320403"><ele>75.0</ele><time>2026-04-11T09:30:56.999Z</time></trkpt><trkpt lat="45.22971409187671" lon="9.32547605747535"><ele>75.0</ele><time>2026-04-11T09:30:57.999Z</time></trkpt><trkpt lat="45.22959629942533" lon="9.325560141195723"><ele>75.0</ele><time>2026-04-11T09:30:58.999Z</time></trkpt><trkpt lat="45.22949237846144" lon="9.325634200170569"><ele>74.66666666666667</ele><time>2026-04-11T09:30:59.999Z</time></trkpt><trkpt lat="45.22940215337534" lon="9.325685179480006"><ele>74.33333333333333</ele><time>2026-04-11T09:31:00.999Z</time></trkpt><trkpt lat="45.22932731381148" lon="9.325729569523444"><ele>74.0</ele><time>2026-04-11T09:31:01.999Z</time></trkpt><trkpt lat="45.22927546493959" lon="9.32581952335587"><ele>73.66666666666666</ele><time>2026-04-11T09:31:02.999Z</time></trkpt><trkpt lat="45.22926614425819" lon="9.325935864651093"><ele>73.33333333333333</ele><time>2026-04-11T09:31:03.999Z</time></trkpt><trkpt lat="45.22928914690701" lon="9.326063247626633"><ele>73.0</ele><time>2026-04-11T09:31:04.999Z</time></trkpt><trkpt lat="45.229291027706445" lon="9.326212681293232"><ele>73.0</ele><time>2026-04-11T09:31:05.999Z</time></trkpt><trkpt lat="45.22923705856888" lon="9.326352906560704"><ele>73.0</ele><time>2026-04-11T09:31:06.999Z</time></trkpt><trkpt lat="45.22913017258039" lon="9.326479133430267"><ele>73.0</ele><time>2026-04-11T09:31:07.999Z</time></trkpt><trkpt lat="45.22901212968403" lon="9.326625929041294"><ele>73.0</ele><time>2026-04-11T09:31:08.999Z</time></trkpt><trkpt lat="45.22889029177453" lon="9.326793528338973"><ele>73.0</ele><time>2026-04-11T09:31:09.999Z</time></trkpt><trkpt lat="45.228756626698555" lon="9.326968617330467"><ele>73.0</ele><time>2026-04-11T09:31:10.999Z</time></trkpt><trkpt lat="45.22861465583309" lon="9.327149173299333"><ele>73.0</ele><time>2026-04-11T09:31:11.999Z</time></trkpt><trkpt lat="45.22846947141852" lon="9.32734480548862"><ele>73.0</ele><time>2026-04-11T09:31:12.999Z</time></trkpt><trkpt lat="45.22831955128386" lon="9.327547790331082"><ele>73.0</ele><time>2026-04-11T09:31:13.999Z</time></trkpt><trkpt lat="45.22817960852677" lon="9.327739992677387"><ele>73.0</ele><time>2026-04-11T09:31:14.999Z</time></trkpt><trkpt lat="45.22803880348749" lon="9.32794263522322"><ele>73.33333333333333</ele><time>2026-04-11T09:31:15.999Z</time></trkpt><trkpt lat="45.227891571274895" lon="9.328143742679478"><ele>73.66666666666667</ele><time>2026-04-11T09:31:16.999Z</time></trkpt><trkpt lat="45.22773852228602" lon="9.328345629153583"><ele>74.0</ele><time>2026-04-11T09:31:17.999Z</time></trkpt><trkpt lat="45.22758310591359" lon="9.32855218943471"><ele>74.0</ele><time>2026-04-11T09:31:18.999Z</time></trkpt><trkpt lat="45.22742970808592" lon="9.32876227005956"><ele>74.0</ele><time>2026-04-11T09:31:19.999Z</time></trkpt><trkpt lat="45.22727530317385" lon="9.32897369635804"><ele>74.0</ele><time>2026-04-11T09:31:20.999Z</time></trkpt><trkpt lat="45.22711547922586" lon="9.329187609693449"><ele>73.66666666666667</ele><time>2026-04-11T09:31:21.999Z</time></trkpt><trkpt lat="45.226952976219614" lon="9.329405368564016"><ele>73.33333333333333</ele><time>2026-04-11T09:31:22.999Z</time></trkpt><trkpt lat="45.22679104845796" lon="9.329623101147746"><ele>73.0</ele><time>2026-04-11T09:31:23.999Z</time></trkpt><trkpt lat="45.22662766309768" lon="9.32984451500186"><ele>73.0</ele><time>2026-04-11T09:31:24.999Z</time></trkpt><trkpt lat="45.22646371062789" lon="9.33006888943552"><ele>73.0</ele><time>2026-04-11T09:31:25.999Z</time></trkpt><trkpt lat="45.22629829235115" lon="9.330292496115176"><ele>73.0</ele><time>2026-04-11T09:31:26.999Z</time></trkpt><trkpt lat="45.226132532390245" lon="9.33051761739472"><ele>73.0</ele><time>2026-04-11T09:31:27.999Z</time></trkpt><trkpt lat="45.225961797999666" lon="9.330741180435627"><ele>73.0</ele><time>2026-04-11T09:31:28.999Z</time></trkpt><trkpt lat="45.22579595273013" lon="9.330966052762337"><ele>73.0</ele><time>2026-04-11T09:31:29.999Z</time></trkpt><trkpt lat="45.225644488326644" lon="9.331177434361239"><ele>73.0</ele><time>2026-04-11T09:31:30.999Z</time></trkpt><trkpt lat="45.22551450985978" lon="9.331358364328985"><ele>73.25</ele><time>2026-04-11T09:31:31.999Z</time></trkpt><trkpt lat="45.22539836995455" lon="9.33151372166926"><ele>73.5</ele><time>2026-04-11T09:31:32.999Z</time></trkpt><trkpt lat="45.225302796392015" lon="9.331643937935418"><ele>73.75</ele><time>2026-04-11T09:31:33.999Z</time></trkpt><trkpt lat="45.225223751881835" lon="9.331755947776086"><ele>74.0</ele><time>2026-04-11T09:31:34.999Z</time></trkpt><trkpt lat="45.225153460278655" lon="9.331849975654569"><ele>74.0</ele><time>2026-04-11T09:31:35.999Z</time></trkpt><trkpt lat="45.225088762289445" lon="9.331932196978817"><ele>74.0</ele><time>2026-04-11T09:31:36.999Z</time></trkpt><trkpt lat="45.22503381089798" lon="9.331998362805601"><ele>74.0</ele><time>2026-04-11T09:31:37.999Z</time></trkpt><trkpt lat="45.22497808448872" lon="9.332045498217232"><ele>74.0</ele><time>2026-04-11T09:31:38.999Z</time></trkpt><trkpt lat="45.224909799171876" lon="9.332039749897543"><ele>74.0</ele><time>2026-04-11T09:31:39.999Z</time></trkpt><trkpt lat="45.22482815380669" lon="9.332004849751995"><ele>74.0</ele><time>2026-04-11T09:31:40.999Z</time></trkpt><trkpt lat="45.22474973351897" lon="9.331911423721847"><ele>73.75</ele><time>2026-04-11T09:31:41.999Z</time></trkpt><trkpt lat="45.22466956160543" lon="9.331790706624698"><ele>73.5</ele><time>2026-04-11T09:31:42.999Z</time></trkpt><trkpt lat="45.22457796641226" lon="9.331668091063872"><ele>73.25</ele><time>2026-04-11T09:31:43.999Z</time></trkpt><trkpt lat="45.22447588028651" lon="9.331543682481376"><ele>73.0</ele><time>2026-04-11T09:31:44.998Z</time></trkpt><trkpt lat="45.22436465835424" lon="9.331418162386887"><ele>73.0</ele><time>2026-04-11T09:31:45.998Z</time></trkpt><trkpt lat="45.224252281234676" lon="9.331291784467304"><ele>73.0</ele><time>2026-04-11T09:31:46.998Z</time></trkpt><trkpt lat="45.224148499350775" lon="9.331167257158574"><ele>73.0</ele><time>2026-04-11T09:31:48Z</time></trkpt><trkpt lat="45.22404558078905" lon="9.331053856282267"><ele>73.0</ele><time>2026-04-11T09:31:49Z</time></trkpt><trkpt lat="45.22394624087007" lon="9.330944737320284"><ele>73.0</ele><time>2026-04-11T09:31:50Z</time></trkpt><trkpt lat="45.22386627039657" lon="9.330843053980939"><ele>73.0</ele><time>2026-04-11T09:31:51Z</time></trkpt><trkpt lat="45.22379703174146" lon="9.330753368989994"><ele>73.0</ele><time>2026-04-11T09:31:52Z</time></trkpt><trkpt lat="45.22373724823507" lon="9.330689547648303"><ele>73.0</ele><time>2026-04-11T09:31:53Z</time></trkpt><trkpt lat="45.223671525396625" lon="9.330653695425822"><ele>73.0</ele><time>2026-04-11T09:31:54Z</time></trkpt><trkpt lat="45.223569755633626" lon="9.330595197996104"><ele>73.0</ele><time>2026-04-11T09:31:56Z</time></trkpt><trkpt lat="45.22348602909658" lon="9.330695779629027"><ele>73.0</ele><time>2026-04-11T09:31:58Z</time></trkpt><trkpt lat="45.22346336631964" lon="9.33081438764705"><ele>73.0</ele><time>2026-04-11T09:31:59Z</time></trkpt><trkpt lat="45.22343366998494" lon="9.330936413469678"><ele>73.0</ele><time>2026-04-11T09:32:00Z</time></trkpt><trkpt lat="45.22335455578368" lon="9.331049899730669"><ele>73.0</ele><time>2026-04-11T09:32:01Z</time></trkpt><trkpt lat="45.22327104804268" lon="9.33114452371158"><ele>73.0</ele><time>2026-04-11T09:32:02Z</time></trkpt><trkpt lat="45.2231905158681" lon="9.331227585498505"><ele>73.0</ele><time>2026-04-11T09:32:03Z</time></trkpt><trkpt lat="45.22310072107384" lon="9.331320728170741"><ele>73.0</ele><time>2026-04-11T09:32:04Z</time></trkpt><trkpt lat="45.2229788454108" lon="9.331394348704809"><ele>73.0</ele><time>2026-04-11T09:32:05Z</time></trkpt><trkpt lat="45.22284695528447" lon="9.331430013066422"><ele>73.4</ele><time>2026-04-11T09:32:06Z</time></trkpt><trkpt lat="45.22273810011901" lon="9.331483737709734"><ele>73.8</ele><time>2026-04-11T09:32:07Z</time></trkpt><trkpt lat="45.222639292071605" lon="9.331526875271319"><ele>74.2</ele><time>2026-04-11T09:32:08Z</time></trkpt><trkpt lat="45.22255523818703" lon="9.33157564650254"><ele>74.6</ele><time>2026-04-11T09:32:09Z</time></trkpt><trkpt lat="45.222492592134195" lon="9.331637951606444"><ele>75.0</ele><time>2026-04-11T09:32:10Z</time></trkpt><trkpt lat="45.22241695069441" lon="9.331697789219966"><ele>75.0</ele><time>2026-04-11T09:32:11Z</time></trkpt><trkpt lat="45.222320521587996" lon="9.331751824680063"><ele>75.0</ele><time>2026-04-11T09:32:12Z</time></trkpt><trkpt lat="45.22222193077035" lon="9.331795994315872"><ele>75.0</ele><time>2026-04-11T09:32:13Z</time></trkpt><trkpt lat="45.22212371234809" lon="9.331829200425295"><ele>75.0</ele><time>2026-04-11T09:32:14Z</time></trkpt><trkpt lat="45.222017565655854" lon="9.331856644502462"><ele>75.0</ele><time>2026-04-11T09:32:15Z</time></trkpt><trkpt lat="45.221912586808315" lon="9.331860411788208"><ele>75.0</ele><time>2026-04-11T09:32:16Z</time></trkpt><trkpt lat="45.221802180052144" lon="9.331857516383266"><ele>75.0</ele><time>2026-04-11T09:32:17Z</time></trkpt><trkpt lat="45.22170010097843" lon="9.331887123973074"><ele>75.0</ele><time>2026-04-11T09:32:18Z</time></trkpt><trkpt lat="45.221594990762675" lon="9.33192800753752"><ele>75.0</ele><time>2026-04-11T09:32:19Z</time></trkpt><trkpt lat="45.221489050506065" lon="9.33197414612912"><ele>75.0</ele><time>2026-04-11T09:32:20Z</time></trkpt><trkpt lat="45.22138786670767" lon="9.332032078614352"><ele>74.5</ele><time>2026-04-11T09:32:21Z</time></trkpt><trkpt lat="45.22128898494613" lon="9.332097795713839"><ele>74.0</ele><time>2026-04-11T09:32:22Z</time></trkpt><trkpt lat="45.221196072866604" lon="9.332169285272993"><ele>73.5</ele><time>2026-04-11T09:32:23Z</time></trkpt><trkpt lat="45.2211039664856" lon="9.332266212217638"><ele>73.0</ele><time>2026-04-11T09:32:24Z</time></trkpt><trkpt lat="45.221001198207965" lon="9.332366280290909"><ele>73.0</ele><time>2026-04-11T09:32:25Z</time></trkpt><trkpt lat="45.22090464492137" lon="9.332453802671676"><ele>73.0</ele><time>2026-04-11T09:32:26Z</time></trkpt><trkpt lat="45.22082016275261" lon="9.332533234896847"><ele>73.0</ele><time>2026-04-11T09:32:27Z</time></trkpt><trkpt lat="45.22074166685689" lon="9.332606281153017"><ele>73.0</ele><time>2026-04-11T09:32:28Z</time></trkpt><trkpt lat="45.220651308909325" lon="9.3326873107621"><ele>73.0</ele><time>2026-04-11T09:32:29Z</time></trkpt><trkpt lat="45.22054831538485" lon="9.332773536722303"><ele>73.0</ele><time>2026-04-11T09:32:30Z</time></trkpt><trkpt lat="45.22046194893414" lon="9.332857576609827"><ele>73.0</ele><time>2026-04-11T09:32:31Z</time></trkpt><trkpt lat="45.22037362378223" lon="9.332932852698907"><ele>73.0</ele><time>2026-04-11T09:32:32Z</time></trkpt><trkpt lat="45.22027318053961" lon="9.333001012012168"><ele>73.0</ele><time>2026-04-11T09:32:33Z</time></trkpt><trkpt lat="45.22015102769138" lon="9.333048164907536"><ele>73.0</ele><time>2026-04-11T09:32:34Z</time></trkpt><trkpt lat="45.220022371044834" lon="9.33307786855808"><ele>73.0</ele><time>2026-04-11T09:32:35Z</time></trkpt><trkpt lat="45.219896389028946" lon="9.33311470025484"><ele>73.0</ele><time>2026-04-11T09:32:36Z</time></trkpt><trkpt lat="45.21977434938775" lon="9.333150219480984"><ele>73.0</ele><time>2026-04-11T09:32:37Z</time></trkpt><trkpt lat="45.21965516502487" lon="9.333192375913258"><ele>73.0</ele><time>2026-04-11T09:32:38Z</time></trkpt><trkpt lat="45.219542261271485" lon="9.333231756495874"><ele>72.75</ele><time>2026-04-11T09:32:39Z</time></trkpt><trkpt lat="45.21943641288988" lon="9.333272164645969"><ele>72.5</ele><time>2026-04-11T09:32:40Z</time></trkpt><trkpt lat="45.21930986200113" lon="9.333329196141833"><ele>72.25</ele><time>2026-04-11T09:32:40.999Z</time></trkpt><trkpt lat="45.21919817064739" lon="9.333389616110209"><ele>72.0</ele><time>2026-04-11T09:32:41.999Z</time></trkpt><trkpt lat="45.219100024097344" lon="9.3334389891504"><ele>72.0</ele><time>2026-04-11T09:32:42.999Z</time></trkpt><trkpt lat="45.21901102894921" lon="9.333497285305743"><ele>72.0</ele><time>2026-04-11T09:32:43.999Z</time></trkpt><trkpt lat="45.21892946522971" lon="9.333550978953065"><ele>72.0</ele><time>2026-04-11T09:32:44.999Z</time></trkpt><trkpt lat="45.21883952930883" lon="9.333598158239578"><ele>72.0</ele><time>2026-04-11T09:32:45.999Z</time></trkpt><trkpt lat="45.21875578236559" lon="9.333641378925373"><ele>72.0</ele><time>2026-04-11T09:32:46.999Z</time></trkpt><trkpt lat="45.21865714327847" lon="9.333677946254976"><ele>71.5</ele><time>2026-04-11T09:32:47.999Z</time></trkpt><trkpt lat="45.21855443561681" lon="9.333713006280313"><ele>71.0</ele><time>2026-04-11T09:32:48.999Z</time></trkpt><trkpt lat="45.21843733762907" lon="9.33375028477169"><ele>70.5</ele><time>2026-04-11T09:32:49.999Z</time></trkpt><trkpt lat="45.21831701279944" lon="9.333794866113136"><ele>70.0</ele><time>2026-04-11T09:32:50.999Z</time></trkpt><trkpt lat="45.21820620136879" lon="9.333841072749252"><ele>69.8</ele><time>2026-04-11T09:32:51.999Z</time></trkpt><trkpt lat="45.218106769290266" lon="9.333894575714373"><ele>69.6</ele><time>2026-04-11T09:32:52.999Z</time></trkpt><trkpt lat="45.21801323144684" lon="9.333979971043535"><ele>69.4</ele><time>2026-04-11T09:32:53.999Z</time></trkpt><trkpt lat="45.21792047617588" lon="9.334078064347107"><ele>69.2</ele><time>2026-04-11T09:32:54.999Z</time></trkpt><trkpt lat="45.21783276243848" lon="9.334172981814733"><ele>69.0</ele><time>2026-04-11T09:32:55.999Z</time></trkpt><trkpt lat="45.21775566660464" lon="9.334243029295388"><ele>69.0</ele><time>2026-04-11T09:32:56.999Z</time></trkpt><trkpt lat="45.21767939163909" lon="9.334308502692046"><ele>69.0</ele><time>2026-04-11T09:32:57.999Z</time></trkpt><trkpt lat="45.21758507825544" lon="9.334376916015795"><ele>69.0</ele><time>2026-04-11T09:32:58.999Z</time></trkpt><trkpt lat="45.217476212913134" lon="9.33444297151287"><ele>69.0</ele><time>2026-04-11T09:32:59.999Z</time></trkpt><trkpt lat="45.21736239758529" lon="9.334507672170766"><ele>69.0</ele><time>2026-04-11T09:33:00.999Z</time></trkpt><trkpt lat="45.21725018457496" lon="9.334555172690084"><ele>69.60000000000001</ele><time>2026-04-11T09:33:01.999Z</time></trkpt><trkpt lat="45.217155703844526" lon="9.334586390096955"><ele>70.2</ele><time>2026-04-11T09:33:02.999Z</time></trkpt><trkpt lat="45.21707894562483" lon="9.334620510996523"><ele>70.80000000000001</ele><time>2026-04-11T09:33:03.999Z</time></trkpt><trkpt lat="45.21700386486398" lon="9.334662535966807"><ele>71.4</ele><time>2026-04-11T09:33:04.999Z</time></trkpt><trkpt lat="45.21691980348581" lon="9.334703910126102"><ele>72.0</ele><time>2026-04-11T09:33:05.999Z</time></trkpt><trkpt lat="45.21681649715625" lon="9.33474111043109"><ele>72.2</ele><time>2026-04-11T09:33:06.999Z</time></trkpt><trkpt lat="45.216717564720796" lon="9.334756406680745"><ele>72.4</ele><time>2026-04-11T09:33:07.999Z</time></trkpt><trkpt lat="45.21661227251643" lon="9.334765126054455"><ele>72.6</ele><time>2026-04-11T09:33:08.999Z</time></trkpt><trkpt lat="45.21651486474187" lon="9.334753617214655"><ele>72.8</ele><time>2026-04-11T09:33:09.999Z</time></trkpt><trkpt lat="45.21642035457971" lon="9.334715228804242"><ele>73.0</ele><time>2026-04-11T09:33:10.999Z</time></trkpt><trkpt lat="45.21633260986987" lon="9.334660649821576"><ele>72.8</ele><time>2026-04-11T09:33:11.999Z</time></trkpt><trkpt lat="45.21625640673465" lon="9.334629578289455"><ele>72.6</ele><time>2026-04-11T09:33:12.999Z</time></trkpt><trkpt lat="45.216182740436025" lon="9.33463126546114"><ele>72.4</ele><time>2026-04-11T09:33:13.999Z</time></trkpt><trkpt lat="45.216099705108284" lon="9.33467412572657"><ele>72.2</ele><time>2026-04-11T09:33:14.999Z</time></trkpt><trkpt lat="45.21601067263221" lon="9.3347479883237"><ele>72.0</ele><time>2026-04-11T09:33:15.999Z</time></trkpt><trkpt lat="45.215905041316034" lon="9.334831468447105"><ele>72.0</ele><time>2026-04-11T09:33:16.999Z</time></trkpt><trkpt lat="45.21577355732455" lon="9.33490769145217"><ele>72.0</ele><time>2026-04-11T09:33:17.999Z</time></trkpt><trkpt lat="45.21563641453252" lon="9.334982183284358"><ele>72.0</ele><time>2026-04-11T09:33:18.999Z</time></trkpt><trkpt lat="45.21551468815297" lon="9.335048996249766"><ele>72.0</ele><time>2026-04-11T09:33:19.999Z</time></trkpt><trkpt lat="45.215389656141845" lon="9.335117432337375"><ele>72.0</ele><time>2026-04-11T09:33:20.999Z</time></trkpt><trkpt lat="45.2152851351865" lon="9.335175607132363"><ele>72.0</ele><time>2026-04-11T09:33:21.999Z</time></trkpt><trkpt lat="45.21517504740942" lon="9.335239068875694"><ele>72.0</ele><time>2026-04-11T09:33:22.999Z</time></trkpt><trkpt lat="45.2150635403621" lon="9.335318669554685"><ele>72.0</ele><time>2026-04-11T09:33:23.999Z</time></trkpt><trkpt lat="45.214960962467636" lon="9.335393328238943"><ele>72.0</ele><time>2026-04-11T09:33:24.999Z</time></trkpt><trkpt lat="45.21486949647849" lon="9.335466373751435"><ele>72.0</ele><time>2026-04-11T09:33:25.999Z</time></trkpt><trkpt lat="45.21479963048336" lon="9.335534227534533"><ele>72.0</ele><time>2026-04-11T09:33:26.999Z</time></trkpt><trkpt lat="45.214710677720575" lon="9.335642881011745"><ele>72.0</ele><time>2026-04-11T09:33:28.999Z</time></trkpt><trkpt lat="45.214648826553585" lon="9.33574458258338"><ele>72.0</ele><time>2026-04-11T09:33:30.999Z</time></trkpt><trkpt lat="45.21460578669669" lon="9.335828254525792"><ele>72.0</ele><time>2026-04-11T09:33:32.999Z</time></trkpt><trkpt lat="45.21455358086066" lon="9.335903515400222"><ele>72.0</ele><time>2026-04-11T09:33:34.999Z</time></trkpt><trkpt lat="45.21448294812841" lon="9.336015593142132"><ele>72.0</ele><time>2026-04-11T09:33:36.999Z</time></trkpt><trkpt lat="45.214408093062104" lon="9.336116543989608"><ele>72.0</ele><time>2026-04-11T09:33:38.999Z</time></trkpt><trkpt lat="45.214317905508956" lon="9.336194977515765"><ele>72.0</ele><time>2026-04-11T09:33:40.999Z</time></trkpt><trkpt lat="45.21422742935639" lon="9.336236507995881"><ele>72.0</ele><time>2026-04-11T09:33:42.999Z</time></trkpt><trkpt lat="45.214127922671956" lon="9.336289460892413"><ele>72.0</ele><time>2026-04-11T09:33:44.999Z</time></trkpt><trkpt lat="45.21402207161683" lon="9.336351154934844"><ele>72.0</ele><time>2026-04-11T09:33:46.999Z</time></trkpt><trkpt lat="45.21391120636499" lon="9.336420811310274"><ele>72.0</ele><time>2026-04-11T09:33:48.999Z</time></trkpt><trkpt lat="45.21380914679603" lon="9.336478363157788"><ele>72.0</ele><time>2026-04-11T09:33:50.999Z</time></trkpt><trkpt lat="45.2137496158974" lon="9.33651326672209"><ele>72.0</ele><time>2026-04-11T09:33:52.999Z</time></trkpt><trkpt lat="45.21366664127325" lon="9.336568006364047"><ele>72.0</ele><time>2026-04-11T09:34:12Z</time></trkpt><trkpt lat="45.21360898995879" lon="9.336604001502932"><ele>72.0</ele><time>2026-04-11T09:34:13Z</time></trkpt><trkpt lat="45.213519508425335" lon="9.336647060753528"><ele>72.0</ele><time>2026-04-11T09:34:15Z</time></trkpt><trkpt lat="45.213445699951734" lon="9.336698586513323"><ele>72.0</ele><time>2026-04-11T09:34:17Z</time></trkpt><trkpt lat="45.213435477923184" lon="9.336809440688112"><ele>72.0</ele><time>2026-04-11T09:34:19Z</time></trkpt><trkpt lat="45.21350045341108" lon="9.336930955809938"><ele>72.0</ele><time>2026-04-11T09:34:21Z</time></trkpt><trkpt lat="45.21353699283203" lon="9.3370183848285"><ele>72.0</ele><time>2026-04-11T09:34:22Z</time></trkpt><trkpt lat="45.21356792867273" lon="9.337113908150187"><ele>72.0</ele><time>2026-04-11T09:34:23Z</time></trkpt><trkpt lat="45.21359690798795" lon="9.337205168674743"><ele>72.0</ele><time>2026-04-11T09:34:25Z</time></trkpt><trkpt lat="45.21364196050031" lon="9.337312746369943"><ele>72.0</ele><time>2026-04-11T09:34:37Z</time></trkpt><trkpt lat="45.21369467954759" lon="9.337426805780746"><ele>72.0</ele><time>2026-04-11T09:34:39Z</time></trkpt><trkpt lat="45.21375356979606" lon="9.337546254042735"><ele>72.0</ele><time>2026-04-11T09:34:41Z</time></trkpt><trkpt lat="45.21379062337222" lon="9.337656923394315"><ele>72.0</ele><time>2026-04-11T09:34:43Z</time></trkpt><trkpt lat="45.21383024891433" lon="9.337742869338031"><ele>72.0</ele><time>2026-04-11T09:34:45Z</time></trkpt><trkpt lat="45.21387119521385" lon="9.337844263676894"><ele>72.0</ele><time>2026-04-11T09:34:47Z</time></trkpt><trkpt lat="45.21389388497354" lon="9.337937753460249"><ele>72.0</ele><time>2026-04-11T09:34:49Z</time></trkpt><trkpt lat="45.213933228247065" lon="9.338074472096185"><ele>71.66666666666667</ele><time>2026-04-11T09:34:51.999Z</time></trkpt><trkpt lat="45.21396676967087" lon="9.338156983426126"><ele>71.33333333333333</ele><time>2026-04-11T09:34:53.999Z</time></trkpt><trkpt lat="45.213999895162274" lon="9.338233347349984"><ele>71.0</ele><time>2026-04-11T09:34:55.999Z</time></trkpt><trkpt lat="45.214080976489505" lon="9.338266347148307"><ele>70.66666666666666</ele><time>2026-04-11T09:35:07.999Z</time></trkpt><trkpt lat="45.214166448533334" lon="9.338196154535853"><ele>70.33333333333333</ele><time>2026-04-11T09:35:09.999Z</time></trkpt><trkpt lat="45.21424103915947" lon="9.338129240182035"><ele>70.0</ele><time>2026-04-11T09:35:11.999Z</time></trkpt><trkpt lat="45.214302075592755" lon="9.338068778623196"><ele>70.2</ele><time>2026-04-11T09:35:14.999Z</time></trkpt><trkpt lat="45.214380316433605" lon="9.337998995390336"><ele>70.4</ele><time>2026-04-11T09:35:16.999Z</time></trkpt><trkpt lat="45.2144817286228" lon="9.337926149676166"><ele>70.6</ele><time>2026-04-11T09:35:18.999Z</time></trkpt><trkpt lat="45.21455880600476" lon="9.337893975846066"><ele>70.8</ele><time>2026-04-11T09:35:20.999Z</time></trkpt><trkpt lat="45.21463326025123" lon="9.337856579466974"><ele>71.0</ele><time>2026-04-11T09:35:29.999Z</time></trkpt><trkpt lat="45.21472905665378" lon="9.337813151141205"><ele>71.0</ele><time>2026-04-11T09:35:33.999Z</time></trkpt><trkpt lat="45.21481049180646" lon="9.337772419479561"><ele>71.0</ele><time>2026-04-11T09:35:48.999Z</time></trkpt><trkpt lat="45.21488822752927" lon="9.337737251008948"><ele>71.0</ele><time>2026-04-11T09:35:53.999Z</time></trkpt><trkpt lat="45.21495555815458" lon="9.337702707815646"><ele>71.0</ele><time>2026-04-11T09:35:58.999Z</time></trkpt><trkpt lat="45.215023397781195" lon="9.337676076925815"><ele>71.0</ele><time>2026-04-11T09:36:01Z</time></trkpt><trkpt lat="45.21509480093659" lon="9.337634459336991"><ele>71.0</ele><time>2026-04-11T09:36:03Z</time></trkpt><trkpt lat="45.2151821561793" lon="9.33759373606061"><ele>71.16666666666667</ele><time>2026-04-11T09:36:05Z</time></trkpt><trkpt lat="45.21524370476537" lon="9.337570361786586"><ele>71.33333333333334</ele><time>2026-04-11T09:36:07Z</time></trkpt><trkpt lat="45.21530868002466" lon="9.337524240668909"><ele>71.5</ele><time>2026-04-11T09:36:12Z</time></trkpt><trkpt lat="45.21530008600311" lon="9.337389015707103"><ele>71.66666666666667</ele><time>2026-04-11T09:36:22Z</time></trkpt><trkpt lat="45.215248585421875" lon="9.337285501683311"><ele>71.83333333333333</ele><time>2026-04-11T09:36:24Z</time></trkpt><trkpt lat="45.215190792917625" lon="9.337161553108041"><ele>72.0</ele><time>2026-04-11T09:36:26Z</time></trkpt><trkpt lat="45.215157513796015" lon="9.33708294225778"><ele>72.0</ele><time>2026-04-11T09:36:27Z</time></trkpt><trkpt lat="45.215127316663896" lon="9.336996239812033"><ele>72.0</ele><time>2026-04-11T09:36:28Z</time></trkpt><trkpt lat="45.215099220273814" lon="9.336902157081374"><ele>72.0</ele><time>2026-04-11T09:36:29Z</time></trkpt><trkpt lat="45.21506810239221" lon="9.336801200788909"><ele>72.0</ele><time>2026-04-11T09:36:30Z</time></trkpt><trkpt lat="45.2150319835962" lon="9.336722896172816"><ele>72.0</ele><time>2026-04-11T09:36:31Z</time></trkpt><trkpt lat="45.214969411474165" lon="9.33656888354599"><ele>72.0</ele><time>2026-04-11T09:36:33Z</time></trkpt><trkpt lat="45.21491850462446" lon="9.336443863459012"><ele>72.0</ele><time>2026-04-11T09:36:35Z</time></trkpt><trkpt lat="45.214875983892746" lon="9.336335420206334"><ele>72.0</ele><time>2026-04-11T09:36:44Z</time></trkpt><trkpt lat="45.21484539222101" lon="9.336228828607135"><ele>72.0</ele><time>2026-04-11T09:36:46Z</time></trkpt><trkpt lat="45.21480991254815" lon="9.336099990809121"><ele>72.0</ele><time>2026-04-11T09:36:48Z</time></trkpt><trkpt lat="45.21477528388025" lon="9.335996489120083"><ele>72.0</ele><time>2026-04-11T09:36:50Z</time></trkpt><trkpt lat="45.214744128213034" lon="9.335883549754872"><ele>72.0</ele><time>2026-04-11T09:36:52Z</time></trkpt><trkpt lat="45.21471267418394" lon="9.335773248872124"><ele>72.0</ele><time>2026-04-11T09:36:54Z</time></trkpt><trkpt lat="45.21471326019985" lon="9.335656351648025"><ele>72.0</ele><time>2026-04-11T09:36:57Z</time></trkpt><trkpt lat="45.21476846016823" lon="9.33555873334783"><ele>72.0</ele><time>2026-04-11T09:36:58.999Z</time></trkpt><trkpt lat="45.21486708524606" lon="9.335480818668906"><ele>72.0</ele><time>2026-04-11T09:37:00.999Z</time></trkpt><trkpt lat="45.21497381716601" lon="9.335392681094781"><ele>72.0</ele><time>2026-04-11T09:37:02.999Z</time></trkpt><trkpt lat="45.21503070297919" lon="9.335347502635159"><ele>72.0</ele><time>2026-04-11T09:37:03.999Z</time></trkpt><trkpt lat="45.21509749897644" lon="9.335302278941086"><ele>72.0</ele><time>2026-04-11T09:37:04.999Z</time></trkpt><trkpt lat="45.215167657439856" lon="9.335256582537209"><ele>72.0</ele><time>2026-04-11T09:37:05.999Z</time></trkpt><trkpt lat="45.21523547686872" lon="9.335216564071798"><ele>72.0</ele><time>2026-04-11T09:37:06.999Z</time></trkpt><trkpt lat="45.21531018530606" lon="9.335169580466347"><ele>72.0</ele><time>2026-04-11T09:37:07.999Z</time></trkpt><trkpt lat="45.215396796769575" lon="9.335117144383503"><ele>72.0</ele><time>2026-04-11T09:37:08.999Z</time></trkpt><trkpt lat="45.215474894257476" lon="9.335070633956272"><ele>72.00000000000001</ele><time>2026-04-11T09:37:09.999Z</time></trkpt><trkpt lat="45.21554428434489" lon="9.335033067121547"><ele>72.0</ele><time>2026-04-11T09:37:10.999Z</time></trkpt><trkpt lat="45.21560745040289" lon="9.334998236479372"><ele>72.0</ele><time>2026-04-11T09:37:11.999Z</time></trkpt><trkpt lat="45.215672707439595" lon="9.334960070840776"><ele>72.0</ele><time>2026-04-11T09:37:12.999Z</time></trkpt><trkpt lat="45.2157322484917" lon="9.334930332846849"><ele>72.0</ele><time>2026-04-11T09:37:13.999Z</time></trkpt><trkpt lat="45.21580111302094" lon="9.33488854082505"><ele>72.00000000000001</ele><time>2026-04-11T09:37:14.999Z</time></trkpt><trkpt lat="45.21587831021445" lon="9.33484109761634"><ele>72.0</ele><time>2026-04-11T09:37:15.999Z</time></trkpt><trkpt lat="45.21595600009062" lon="9.334795165883595"><ele>72.0</ele><time>2026-04-11T09:37:16.999Z</time></trkpt><trkpt lat="45.21603224410819" lon="9.334750358280745"><ele>72.0</ele><time>2026-04-11T09:37:17.999Z</time></trkpt><trkpt lat="45.21609461429417" lon="9.334705823099876"><ele>72.0</ele><time>2026-04-11T09:37:18.999Z</time></trkpt><trkpt lat="45.21615147150701" lon="9.334664438850304"><ele>72.0</ele><time>2026-04-11T09:37:19.999Z</time></trkpt><trkpt lat="45.21622294893067" lon="9.334629784056762"><ele>72.0</ele><time>2026-04-11T09:37:20.999Z</time></trkpt><trkpt lat="45.21630430688632" lon="9.334629849046578"><ele>72.0</ele><time>2026-04-11T09:37:21.999Z</time></trkpt><trkpt lat="45.21638737505174" lon="9.334668618154717"><ele>71.83333333333333</ele><time>2026-04-11T09:37:22.999Z</time></trkpt><trkpt lat="45.216462559073335" lon="9.334718358616028"><ele>71.66666666666667</ele><time>2026-04-11T09:37:23.999Z</time></trkpt><trkpt lat="45.216547299589585" lon="9.334756453472279"><ele>71.5</ele><time>2026-04-11T09:37:24.999Z</time></trkpt><trkpt lat="45.21661978332634" lon="9.33476935548341"><ele>71.33333333333334</ele><time>2026-04-11T09:37:25.999Z</time></trkpt><trkpt lat="45.21669723017009" lon="9.334762925970958"><ele>71.16666666666667</ele><time>2026-04-11T09:37:26.999Z</time></trkpt><trkpt lat="45.216781009722766" lon="9.334749029707194"><ele>71.0</ele><time>2026-04-11T09:37:27.999Z</time></trkpt><trkpt lat="45.216870246048366" lon="9.334721161757654"><ele>71.2</ele><time>2026-04-11T09:37:28.999Z</time></trkpt><trkpt lat="45.21695963768305" lon="9.334690724434145"><ele>71.39999999999999</ele><time>2026-04-11T09:37:29.999Z</time></trkpt><trkpt lat="45.21704573784957" lon="9.33464859781885"><ele>71.6</ele><time>2026-04-11T09:37:30.999Z</time></trkpt><trkpt lat="45.21714252166109" lon="9.334603818712182"><ele>71.8</ele><time>2026-04-11T09:37:31.999Z</time></trkpt><trkpt lat="45.21724364746369" lon="9.334548910582267"><ele>72.0</ele><time>2026-04-11T09:37:32.999Z</time></trkpt><trkpt lat="45.21732759295365" lon="9.334512071092227"><ele>71.5</ele><time>2026-04-11T09:37:33.999Z</time></trkpt><trkpt lat="45.21740453999221" lon="9.334474204312894"><ele>71.0</ele><time>2026-04-11T09:37:34.999Z</time></trkpt><trkpt lat="45.21749013768921" lon="9.334433666493664"><ele>70.5</ele><time>2026-04-11T09:37:35.999Z</time></trkpt><trkpt lat="45.21757938853942" lon="9.33438072571974"><ele>70.0</ele><time>2026-04-11T09:37:36.999Z</time></trkpt><trkpt lat="45.21766201658005" lon="9.334322661902219"><ele>69.5</ele><time>2026-04-11T09:37:37.999Z</time></trkpt><trkpt lat="45.21773760725194" lon="9.334262933311887"><ele>69.0</ele><time>2026-04-11T09:37:38.999Z</time></trkpt><trkpt lat="45.21780763297246" lon="9.334202464057691"><ele>69.0</ele><time>2026-04-11T09:37:39.999Z</time></trkpt><trkpt lat="45.21786256019915" lon="9.334149593756122"><ele>69.0</ele><time>2026-04-11T09:37:40.999Z</time></trkpt><trkpt lat="45.21791495539833" lon="9.33409238713949"><ele>69.0</ele><time>2026-04-11T09:37:41.999Z</time></trkpt><trkpt lat="45.217982065132134" lon="9.334028451139691"><ele>69.0</ele><time>2026-04-11T09:37:42.999Z</time></trkpt><trkpt lat="45.2180626399856" lon="9.333954573909063"><ele>69.0</ele><time>2026-04-11T09:37:43.999Z</time></trkpt><trkpt lat="45.21815043976316" lon="9.333870032969358"><ele>69.0</ele><time>2026-04-11T09:37:44.999Z</time></trkpt><trkpt lat="45.21824409073839" lon="9.333801354649097"><ele>69.25</ele><time>2026-04-11T09:37:45.999Z</time></trkpt><trkpt lat="45.21835106388222" lon="9.333758783612689"><ele>69.5</ele><time>2026-04-11T09:37:46.999Z</time></trkpt><trkpt lat="45.218471267953284" lon="9.33373076812219"><ele>69.75</ele><time>2026-04-11T09:37:47.999Z</time></trkpt><trkpt lat="45.2185938476149" lon="9.333702948892189"><ele>70.0</ele><time>2026-04-11T09:37:48.999Z</time></trkpt><trkpt lat="45.2186991900064" lon="9.333669705433199"><ele>70.0</ele><time>2026-04-11T09:37:49.999Z</time></trkpt><trkpt lat="45.21879749973303" lon="9.333637422553828"><ele>70.0</ele><time>2026-04-11T09:37:50.999Z</time></trkpt><trkpt lat="45.21890130939395" lon="9.333594230282548"><ele>70.0</ele><time>2026-04-11T09:37:51.999Z</time></trkpt><trkpt lat="45.219017559145406" lon="9.33354020410494"><ele>70.0</ele><time>2026-04-11T09:37:52.999Z</time></trkpt><trkpt lat="45.21913445919935" lon="9.33347987634225"><ele>70.5</ele><time>2026-04-11T09:37:53.999Z</time></trkpt><trkpt lat="45.21924483048241" lon="9.33341404769323"><ele>71.0</ele><time>2026-04-11T09:37:54.999Z</time></trkpt><trkpt lat="45.21934626873832" lon="9.333362941093336"><ele>71.5</ele><time>2026-04-11T09:37:55.999Z</time></trkpt><trkpt lat="45.21944976825998" lon="9.33331347624248"><ele>72.0</ele><time>2026-04-11T09:37:56.999Z</time></trkpt><trkpt lat="45.219573758483186" lon="9.333251083804578"><ele>72.0</ele><time>2026-04-11T09:37:57.999Z</time></trkpt><trkpt lat="45.21971049360349" lon="9.33318497729102"><ele>72.0</ele><time>2026-04-11T09:37:58.999Z</time></trkpt><trkpt lat="45.219838970456586" lon="9.333144452798017"><ele>72.0</ele><time>2026-04-11T09:37:59.999Z</time></trkpt><trkpt lat="45.21995156739146" lon="9.33311836610136"><ele>72.0</ele><time>2026-04-11T09:38:00.999Z</time></trkpt><trkpt lat="45.220052890424995" lon="9.333090421660774"><ele>72.0</ele><time>2026-04-11T09:38:01.999Z</time></trkpt><trkpt lat="45.22015736170962" lon="9.33305405035976"><ele>72.0</ele><time>2026-04-11T09:38:02.999Z</time></trkpt><trkpt lat="45.22027498936792" lon="9.333011494701053"><ele>72.0</ele><time>2026-04-11T09:38:03.998Z</time></trkpt><trkpt lat="45.220381791605654" lon="9.332957740848737"><ele>72.0</ele><time>2026-04-11T09:38:04.998Z</time></trkpt><trkpt lat="45.22048775803495" lon="9.332877445386888"><ele>72.0</ele><time>2026-04-11T09:38:06Z</time></trkpt><trkpt lat="45.22058768553431" lon="9.33277656738284"><ele>72.0</ele><time>2026-04-11T09:38:07Z</time></trkpt><trkpt lat="45.22067973904016" lon="9.332674537472776"><ele>72.0</ele><time>2026-04-11T09:38:08Z</time></trkpt><trkpt lat="45.22077320611627" lon="9.332582453860637"><ele>72.0</ele><time>2026-04-11T09:38:09Z</time></trkpt><trkpt lat="45.220874913404785" lon="9.33248699015975"><ele>72.25</ele><time>2026-04-11T09:38:10Z</time></trkpt><trkpt lat="45.22097811151347" lon="9.332389948175573"><ele>72.5</ele><time>2026-04-11T09:38:11Z</time></trkpt><trkpt lat="45.22108685898758" lon="9.332294569576485"><ele>72.75</ele><time>2026-04-11T09:38:12Z</time></trkpt><trkpt lat="45.221192112297835" lon="9.332199505315561"><ele>73.0</ele><time>2026-04-11T09:38:13Z</time></trkpt><trkpt lat="45.22128998397491" lon="9.332105906351112"><ele>73.0</ele><time>2026-04-11T09:38:14Z</time></trkpt><trkpt lat="45.22138429708735" lon="9.332032933098995"><ele>73.0</ele><time>2026-04-11T09:38:15Z</time></trkpt><trkpt lat="45.22148742424932" lon="9.331972038897517"><ele>73.0</ele><time>2026-04-11T09:38:16Z</time></trkpt><trkpt lat="45.22159897247899" lon="9.331922603334615"><ele>73.0</ele><time>2026-04-11T09:38:17Z</time></trkpt><trkpt lat="45.22170936850824" lon="9.331888355034076"><ele>73.0</ele><time>2026-04-11T09:38:18Z</time></trkpt><trkpt lat="45.22181557902703" lon="9.33186461680107"><ele>73.5</ele><time>2026-04-11T09:38:19Z</time></trkpt><trkpt lat="45.22192031177088" lon="9.331845912876862"><ele>74.0</ele><time>2026-04-11T09:38:20Z</time></trkpt><trkpt lat="45.22203731847223" lon="9.331834875544358"><ele>74.5</ele><time>2026-04-11T09:38:21Z</time></trkpt><trkpt lat="45.222152648541574" lon="9.331808966617151"><ele>75.0</ele><time>2026-04-11T09:38:22Z</time></trkpt><trkpt lat="45.22225987722011" lon="9.33175082335706"><ele>75.0</ele><time>2026-04-11T09:38:23Z</time></trkpt><trkpt lat="45.22236798295302" lon="9.331682317823995"><ele>75.0</ele><time>2026-04-11T09:38:24Z</time></trkpt><trkpt lat="45.22248469830523" lon="9.331620174705082"><ele>75.0</ele><time>2026-04-11T09:38:25Z</time></trkpt><trkpt lat="45.22261094318881" lon="9.331555756860247"><ele>75.0</ele><time>2026-04-11T09:38:26Z</time></trkpt><trkpt lat="45.22272544144498" lon="9.331483580907175"><ele>75.0</ele><time>2026-04-11T09:38:27Z</time></trkpt><trkpt lat="45.222835937727325" lon="9.33142621924377"><ele>75.0</ele><time>2026-04-11T09:38:28Z</time></trkpt><trkpt lat="45.22293538580676" lon="9.331397785721904"><ele>75.0</ele><time>2026-04-11T09:38:29Z</time></trkpt><trkpt lat="45.223028977924095" lon="9.33135478264266"><ele>75.0</ele><time>2026-04-11T09:38:30Z</time></trkpt><trkpt lat="45.223102876669216" lon="9.331314470728044"><ele>75.0</ele><time>2026-04-11T09:38:31Z</time></trkpt><trkpt lat="45.223163641896136" lon="9.3312701602612"><ele>74.66666666666667</ele><time>2026-04-11T09:38:32Z</time></trkpt><trkpt lat="45.22323471952917" lon="9.33123312875689"><ele>74.33333333333333</ele><time>2026-04-11T09:38:33Z</time></trkpt><trkpt lat="45.22330467151584" lon="9.331180872487492"><ele>74.0</ele><time>2026-04-11T09:38:34Z</time></trkpt><trkpt lat="45.22335219911829" lon="9.331110252145224"><ele>73.66666666666666</ele><time>2026-04-11T09:38:35Z</time></trkpt><trkpt lat="45.2234326258297" lon="9.331004029308158"><ele>73.33333333333333</ele><time>2026-04-11T09:38:37Z</time></trkpt><trkpt lat="45.223504803934084" lon="9.33088848995214"><ele>73.0</ele><time>2026-04-11T09:38:39Z</time></trkpt><trkpt lat="45.22358580286006" lon="9.33072721058817"><ele>73.0</ele><time>2026-04-11T09:38:41Z</time></trkpt><trkpt lat="45.22364753175188" lon="9.3306896367633"><ele>73.0</ele><time>2026-04-11T09:38:43Z</time></trkpt><trkpt lat="45.22373762672225" lon="9.330688191355117"><ele>73.0</ele><time>2026-04-11T09:38:45Z</time></trkpt><trkpt lat="45.22383879468534" lon="9.33076505150941"><ele>73.0</ele><time>2026-04-11T09:38:47Z</time></trkpt><trkpt lat="45.22389027826422" lon="9.330878258660954"><ele>73.0</ele><time>2026-04-11T09:38:48Z</time></trkpt><trkpt lat="45.223972022989706" lon="9.330977493506133"><ele>73.0</ele><time>2026-04-11T09:38:49Z</time></trkpt><trkpt lat="45.22405334620707" lon="9.331076280943536"><ele>73.0</ele><time>2026-04-11T09:38:50Z</time></trkpt><trkpt lat="45.2241228840067" lon="9.331149112957837"><ele>73.0</ele><time>2026-04-11T09:38:51Z</time></trkpt><trkpt lat="45.22418546637864" lon="9.331224784205272"><ele>73.0</ele><time>2026-04-11T09:38:52Z</time></trkpt><trkpt lat="45.224263995069734" lon="9.331295500492821"><ele>73.0</ele><time>2026-04-11T09:38:53Z</time></trkpt><trkpt lat="45.224346403033415" lon="9.331391527257736"><ele>73.0</ele><time>2026-04-11T09:38:54Z</time></trkpt><trkpt lat="45.22443486627725" lon="9.331492509900714"><ele>73.0</ele><time>2026-04-11T09:38:55Z</time></trkpt><trkpt lat="45.22451805479279" lon="9.331587215708488"><ele>73.0</ele><time>2026-04-11T09:38:56Z</time></trkpt><trkpt lat="45.22459253124201" lon="9.331687434937988"><ele>73.0</ele><time>2026-04-11T09:38:57Z</time></trkpt><trkpt lat="45.224649260996436" lon="9.331776546884832"><ele>73.0</ele><time>2026-04-11T09:38:58Z</time></trkpt><trkpt lat="45.22469730890016" lon="9.331860800983494"><ele>73.0</ele><time>2026-04-11T09:38:59Z</time></trkpt><trkpt lat="45.22474670933812" lon="9.331919494615445"><ele>73.0</ele><time>2026-04-11T09:39:00Z</time></trkpt><trkpt lat="45.224824214239504" lon="9.332007529331594"><ele>73.0</ele><time>2026-04-11T09:39:02Z</time></trkpt><trkpt lat="45.22489642348444" lon="9.33204698632376"><ele>73.0</ele><time>2026-04-11T09:39:03.999Z</time></trkpt><trkpt lat="45.22496139739807" lon="9.33203934324737"><ele>73.0</ele><time>2026-04-11T09:39:07.999Z</time></trkpt><trkpt lat="45.225045354167044" lon="9.33200775566448"><ele>73.0</ele><time>2026-04-11T09:39:50.999Z</time></trkpt><trkpt lat="45.22513898735643" lon="9.331901618834655"><ele>73.14285714285714</ele><time>2026-04-11T09:39:52.999Z</time></trkpt><trkpt lat="45.225188007742936" lon="9.331838540390208"><ele>73.28571428571429</ele><time>2026-04-11T09:39:53.999Z</time></trkpt><trkpt lat="45.22523627136912" lon="9.33177395102734"><ele>73.42857142857143</ele><time>2026-04-11T09:39:54.999Z</time></trkpt><trkpt lat="45.22531534500204" lon="9.331751072460378"><ele>73.57142857142857</ele><time>2026-04-11T09:39:56.999Z</time></trkpt><trkpt lat="45.2253233036287" lon="9.331648046554266"><ele>73.71428571428571</ele><time>2026-04-11T09:40:00.999Z</time></trkpt><trkpt lat="45.225251456127644" lon="9.331670540394018"><ele>73.85714285714286</ele><time>2026-04-11T09:40:02.999Z</time></trkpt><trkpt lat="45.2251944832186" lon="9.331754624254955"><ele>74.0</ele><time>2026-04-11T09:40:03.999Z</time></trkpt><trkpt lat="45.2251284037012" lon="9.331870124537541"><ele>74.0</ele><time>2026-04-11T09:40:04.999Z</time></trkpt><trkpt lat="45.22506901566433" lon="9.331948837504154"><ele>74.0</ele><time>2026-04-11T09:40:05.998Z</time></trkpt><trkpt lat="45.22501528807395" lon="9.332007020332837"><ele>74.0</ele><time>2026-04-11T09:40:06.998Z</time></trkpt><trkpt lat="45.22493971931354" lon="9.332038272362693"><ele>74.0</ele><time>2026-04-11T09:40:07.998Z</time></trkpt><trkpt lat="45.2248595655291" lon="9.33200957159953"><ele>74.0</ele><time>2026-04-11T09:40:08.998Z</time></trkpt><trkpt lat="45.22477832822209" lon="9.33193413021162"><ele>74.0</ele><time>2026-04-11T09:40:09.998Z</time></trkpt><trkpt lat="45.22468182899917" lon="9.331812761710887"><ele>73.8</ele><time>2026-04-11T09:40:10.998Z</time></trkpt><trkpt lat="45.22459611292981" lon="9.331690896250661"><ele>73.60000000000001</ele><time>2026-04-11T09:40:12Z</time></trkpt><trkpt lat="45.22451797324943" lon="9.331594588765206"><ele>73.4</ele><time>2026-04-11T09:40:13Z</time></trkpt><trkpt lat="45.224447309680805" lon="9.331508349649669"><ele>73.2</ele><time>2026-04-11T09:40:14Z</time></trkpt><trkpt lat="45.224376576794874" lon="9.331418120929012"><ele>73.0</ele><time>2026-04-11T09:40:15Z</time></trkpt><trkpt lat="45.224298344189435" lon="9.331329842076817"><ele>73.0</ele><time>2026-04-11T09:40:16Z</time></trkpt><trkpt lat="45.22421950246436" lon="9.331241454464037"><ele>73.0</ele><time>2026-04-11T09:40:17Z</time></trkpt><trkpt lat="45.224139075594266" lon="9.331150927495843"><ele>73.0</ele><time>2026-04-11T09:40:18Z</time></trkpt><trkpt lat="45.22406869501011" lon="9.33106599875"><ele>73.0</ele><time>2026-04-11T09:40:19Z</time></trkpt><trkpt lat="45.224008846956146" lon="9.33100354185522"><ele>73.0</ele><time>2026-04-11T09:40:20Z</time></trkpt><trkpt lat="45.22395968742196" lon="9.330938875563607"><ele>73.0</ele><time>2026-04-11T09:40:21Z</time></trkpt><trkpt lat="45.223871615967546" lon="9.330838262548772"><ele>73.0</ele><time>2026-04-11T09:40:23Z</time></trkpt><trkpt lat="45.22380595540026" lon="9.330748777933557"><ele>73.0</ele><time>2026-04-11T09:40:25Z</time></trkpt><trkpt lat="45.22375242627556" lon="9.330700212552497"><ele>73.0</ele><time>2026-04-11T09:40:26Z</time></trkpt><trkpt lat="45.22368475463889" lon="9.330654221415708"><ele>73.0</ele><time>2026-04-11T09:40:27Z</time></trkpt><trkpt lat="45.223600853374236" lon="9.330622298651054"><ele>73.0</ele><time>2026-04-11T09:40:28Z</time></trkpt><trkpt lat="45.223529021205785" lon="9.33055521972888"><ele>73.0</ele><time>2026-04-11T09:40:29Z</time></trkpt><trkpt lat="45.22348026581181" lon="9.33047690824509"><ele>73.16666666666666</ele><time>2026-04-11T09:40:30Z</time></trkpt><trkpt lat="45.22344506265518" lon="9.330400874782198"><ele>73.33333333333333</ele><time>2026-04-11T09:40:31Z</time></trkpt><trkpt lat="45.22341427043615" lon="9.330321056616288"><ele>73.5</ele><time>2026-04-11T09:40:32Z</time></trkpt><trkpt lat="45.22338376948676" lon="9.330240992658016"><ele>73.66666666666667</ele><time>2026-04-11T09:40:33Z</time></trkpt><trkpt lat="45.22332778377499" lon="9.33009010514329"><ele>73.83333333333334</ele><time>2026-04-11T09:40:35Z</time></trkpt><trkpt lat="45.22329504569243" lon="9.330006321862264"><ele>74.0</ele><time>2026-04-11T09:40:36Z</time></trkpt><trkpt lat="45.22325744803747" lon="9.329911921986554"><ele>74.0</ele><time>2026-04-11T09:40:37Z</time></trkpt><trkpt lat="45.22322187701712" lon="9.329822266480322"><ele>74.0</ele><time>2026-04-11T09:40:38Z</time></trkpt><trkpt lat="45.22319236029485" lon="9.329732666091905"><ele>74.0</ele><time>2026-04-11T09:40:39Z</time></trkpt><trkpt lat="45.223165466448656" lon="9.329583036756713"><ele>74.0</ele><time>2026-04-11T09:40:41Z</time></trkpt><trkpt lat="45.22313715775776" lon="9.329414108731532"><ele>74.0</ele><time>2026-04-11T09:40:43Z</time></trkpt><trkpt lat="45.22312335753648" lon="9.329316018476442"><ele>74.0</ele><time>2026-04-11T09:40:44Z</time></trkpt><trkpt lat="45.22310887637166" lon="9.32914917755236"><ele>74.0</ele><time>2026-04-11T09:40:45.999Z</time></trkpt><trkpt lat="45.22310129176007" lon="9.329053577802993"><ele>74.0</ele><time>2026-04-11T09:40:46.999Z</time></trkpt><trkpt lat="45.223099584422" lon="9.328937068101489"><ele>74.0</ele><time>2026-04-11T09:40:47.999Z</time></trkpt><trkpt lat="45.22310080264255" lon="9.32884179094851"><ele>74.0</ele><time>2026-04-11T09:40:48.999Z</time></trkpt><trkpt lat="45.22309859020692" lon="9.328746035420387"><ele>74.0</ele><time>2026-04-11T09:40:49.999Z</time></trkpt><trkpt lat="45.22308676423004" lon="9.328637196839777"><ele>74.0</ele><time>2026-04-11T09:40:50.999Z</time></trkpt><trkpt lat="45.223072588076036" lon="9.328539143074547"><ele>74.0</ele><time>2026-04-11T09:40:51.999Z</time></trkpt><trkpt lat="45.223043702261414" lon="9.32836782022929"><ele>74.0</ele><time>2026-04-11T09:40:53.999Z</time></trkpt><trkpt lat="45.223029118381504" lon="9.328255805714587"><ele>74.0</ele><time>2026-04-11T09:40:54.999Z</time></trkpt><trkpt lat="45.2230088554791" lon="9.328119532188689"><ele>74.0</ele><time>2026-04-11T09:40:55.999Z</time></trkpt><trkpt lat="45.22298698408758" lon="9.32797406646613"><ele>74.0</ele><time>2026-04-11T09:40:56.999Z</time></trkpt><trkpt lat="45.2229693964806" lon="9.327844686088772"><ele>74.0</ele><time>2026-04-11T09:40:57.999Z</time></trkpt><trkpt lat="45.22295315347907" lon="9.327736096752112"><ele>74.0</ele><time>2026-04-11T09:40:58.999Z</time></trkpt><trkpt lat="45.22293954532678" lon="9.327634356563129"><ele>74.0</ele><time>2026-04-11T09:40:59.999Z</time></trkpt><trkpt lat="45.22293565229865" lon="9.327539294956926"><ele>74.0</ele><time>2026-04-11T09:41:00.999Z</time></trkpt><trkpt lat="45.222927559409904" lon="9.327442362314084"><ele>74.0</ele><time>2026-04-11T09:41:01.999Z</time></trkpt><trkpt lat="45.22291559873334" lon="9.32733576992751"><ele>74.0</ele><time>2026-04-11T09:41:02.999Z</time></trkpt><trkpt lat="45.222903413858695" lon="9.327227401522524"><ele>74.0</ele><time>2026-04-11T09:41:03.999Z</time></trkpt><trkpt lat="45.222884385797244" lon="9.327129617157821"><ele>74.0</ele><time>2026-04-11T09:41:04.999Z</time></trkpt><trkpt lat="45.22285853488886" lon="9.32701868603684"><ele>74.0</ele><time>2026-04-11T09:41:05.999Z</time></trkpt><trkpt lat="45.22283822920519" lon="9.326905797309339"><ele>74.0</ele><time>2026-04-11T09:41:06.999Z</time></trkpt><trkpt lat="45.222820250246784" lon="9.326781889270592"><ele>74.0</ele><time>2026-04-11T09:41:07.999Z</time></trkpt><trkpt lat="45.222805715377405" lon="9.326675472782473"><ele>74.0</ele><time>2026-04-11T09:41:08.999Z</time></trkpt><trkpt lat="45.2227861248653" lon="9.326552819345517"><ele>74.0</ele><time>2026-04-11T09:41:09.999Z</time></trkpt><trkpt lat="45.22275096973771" lon="9.326368471627022"><ele>74.0</ele><time>2026-04-11T09:41:10.999Z</time></trkpt><trkpt lat="45.22271782630968" lon="9.326118700255979"><ele>74.0</ele><time>2026-04-11T09:41:11.999Z</time></trkpt><trkpt lat="45.222694386779665" lon="9.325832398507997"><ele>74.0</ele><time>2026-04-11T09:41:12.999Z</time></trkpt><trkpt lat="45.22268088215117" lon="9.325587545423195"><ele>74.0</ele><time>2026-04-11T09:41:13.999Z</time></trkpt><trkpt lat="45.222660397513906" lon="9.325331469196707"><ele>74.0</ele><time>2026-04-11T09:41:14.999Z</time></trkpt><trkpt lat="45.22261576399139" lon="9.325128009294813"><ele>74.0</ele><time>2026-04-11T09:41:16.999Z</time></trkpt><trkpt lat="45.22255934317851" lon="9.324988097281363"><ele>74.0</ele><time>2026-04-11T09:41:17.999Z</time></trkpt><trkpt lat="45.222491759086914" lon="9.3248511044008"><ele>74.0</ele><time>2026-04-11T09:41:18.999Z</time></trkpt><trkpt lat="45.22240279849948" lon="9.324743332375515"><ele>74.0</ele><time>2026-04-11T09:41:19.999Z</time></trkpt><trkpt lat="45.222302479089784" lon="9.324658905429382"><ele>74.0</ele><time>2026-04-11T09:41:20.999Z</time></trkpt><trkpt lat="45.22219471054343" lon="9.32457434065859"><ele>74.0</ele><time>2026-04-11T09:41:21.999Z</time></trkpt><trkpt lat="45.22209102104447" lon="9.324456616135551"><ele>74.0</ele><time>2026-04-11T09:41:22.999Z</time></trkpt><trkpt lat="45.22197916268335" lon="9.32433744678294"><ele>74.0</ele><time>2026-04-11T09:41:23.999Z</time></trkpt><trkpt lat="45.22186405211362" lon="9.324210241804225"><ele>74.0</ele><time>2026-04-11T09:41:24.999Z</time></trkpt><trkpt lat="45.22173517130842" lon="9.324089972175221"><ele>74.0</ele><time>2026-04-11T09:41:25.999Z</time></trkpt><trkpt lat="45.22161147265203" lon="9.323988984618197"><ele>74.0</ele><time>2026-04-11T09:41:26.999Z</time></trkpt><trkpt lat="45.22150753551976" lon="9.323893823681523"><ele>74.0</ele><time>2026-04-11T09:41:27.999Z</time></trkpt><trkpt lat="45.22140782467456" lon="9.323801025342497"><ele>74.0</ele><time>2026-04-11T09:41:28.999Z</time></trkpt><trkpt lat="45.22130841017597" lon="9.323722368840542"><ele>74.0</ele><time>2026-04-11T09:41:29.999Z</time></trkpt><trkpt lat="45.22122949931435" lon="9.323649446745828"><ele>74.0</ele><time>2026-04-11T09:41:30.999Z</time></trkpt><trkpt lat="45.2211617371001" lon="9.323586462192925"><ele>74.0</ele><time>2026-04-11T09:41:31.999Z</time></trkpt><trkpt lat="45.22111054093203" lon="9.323532904495277"><ele>74.0</ele><time>2026-04-11T09:41:32.999Z</time></trkpt><trkpt lat="45.22103323867845" lon="9.323452386108912"><ele>74.0</ele><time>2026-04-11T09:41:34.999Z</time></trkpt><trkpt lat="45.22097887183596" lon="9.323358922863905"><ele>74.0</ele><time>2026-04-11T09:42:00.998Z</time></trkpt><trkpt lat="45.22088311606637" lon="9.323207721369476"><ele>74.0</ele><time>2026-04-11T09:42:02.998Z</time></trkpt><trkpt lat="45.22083003200204" lon="9.323106634887397"><ele>74.0</ele><time>2026-04-11T09:42:03.998Z</time></trkpt><trkpt lat="45.220779619459464" lon="9.322994864424803"><ele>74.0</ele><time>2026-04-11T09:42:04.998Z</time></trkpt><trkpt lat="45.22073105220644" lon="9.322900298981098"><ele>74.0</ele><time>2026-04-11T09:42:05.998Z</time></trkpt><trkpt lat="45.220690397203015" lon="9.3228275685195"><ele>74.0</ele><time>2026-04-11T09:42:06.998Z</time></trkpt><trkpt lat="45.22064929468645" lon="9.322757619678999"><ele>74.0</ele><time>2026-04-11T09:42:07.998Z</time></trkpt><trkpt lat="45.220601084577495" lon="9.322659654843138"><ele>74.2</ele><time>2026-04-11T09:42:08.998Z</time></trkpt><trkpt lat="45.22054495244926" lon="9.322545260191168"><ele>74.4</ele><time>2026-04-11T09:42:09.998Z</time></trkpt><trkpt lat="45.22048909109164" lon="9.322426765149611"><ele>74.6</ele><time>2026-04-11T09:42:10.998Z</time></trkpt><trkpt lat="45.22044515043744" lon="9.322300266390375"><ele>74.8</ele><time>2026-04-11T09:42:11.998Z</time></trkpt><trkpt lat="45.22040180880371" lon="9.32216388756546"><ele>75.0</ele><time>2026-04-11T09:42:12.998Z</time></trkpt><trkpt lat="45.220346546758506" lon="9.322008283640088"><ele>74.5</ele><time>2026-04-11T09:42:13.998Z</time></trkpt><trkpt lat="45.22028541491861" lon="9.321845222990047"><ele>74.0</ele><time>2026-04-11T09:42:14.998Z</time></trkpt><trkpt lat="45.22021816437801" lon="9.321681468012263"><ele>73.5</ele><time>2026-04-11T09:42:15.998Z</time></trkpt><trkpt lat="45.2201608796838" lon="9.3215293250278"><ele>73.0</ele><time>2026-04-11T09:42:16.998Z</time></trkpt><trkpt lat="45.22009898473279" lon="9.32138491547751"><ele>72.4</ele><time>2026-04-11T09:42:18Z</time></trkpt><trkpt lat="45.22002532072552" lon="9.321241454327849"><ele>71.8</ele><time>2026-04-11T09:42:19Z</time></trkpt><trkpt lat="45.21996347072358" lon="9.321082694052649"><ele>71.2</ele><time>2026-04-11T09:42:20Z</time></trkpt><trkpt lat="45.21994870019041" lon="9.320935014372788"><ele>70.6</ele><time>2026-04-11T09:42:21Z</time></trkpt><trkpt lat="45.219963797661244" lon="9.320822674596146"><ele>70.0</ele><time>2026-04-11T09:42:22Z</time></trkpt><trkpt lat="45.219936580814974" lon="9.320700707153186"><ele>70.0</ele><time>2026-04-11T09:42:26Z</time></trkpt><trkpt lat="45.219856742104504" lon="9.320624189181366"><ele>70.0</ele><time>2026-04-11T09:42:27Z</time></trkpt><trkpt lat="45.21976084234251" lon="9.320579306769968"><ele>70.0</ele><time>2026-04-11T09:42:28Z</time></trkpt><trkpt lat="45.2196723831188" lon="9.320539072637873"><ele>70.0</ele><time>2026-04-11T09:42:29Z</time></trkpt><trkpt lat="45.21956727825893" lon="9.3204770313069"><ele>70.0</ele><time>2026-04-11T09:42:30Z</time></trkpt><trkpt lat="45.2194499420022" lon="9.32038744155111"><ele>70.0</ele><time>2026-04-11T09:42:31Z</time></trkpt><trkpt lat="45.21932315879031" lon="9.32029050274759"><ele>70.0</ele><time>2026-04-11T09:42:32Z</time></trkpt><trkpt lat="45.2192069905473" lon="9.320208006273754"><ele>70.0</ele><time>2026-04-11T09:42:33Z</time></trkpt><trkpt lat="45.21907877391261" lon="9.320118283549071"><ele>70.0</ele><time>2026-04-11T09:42:34Z</time></trkpt><trkpt lat="45.218942579493195" lon="9.320017653853418"><ele>70.33333333333333</ele><time>2026-04-11T09:42:35Z</time></trkpt><trkpt lat="45.218795419701074" lon="9.31990420608719"><ele>70.66666666666667</ele><time>2026-04-11T09:42:36Z</time></trkpt><trkpt lat="45.218653840486155" lon="9.31979777633503"><ele>71.0</ele><time>2026-04-11T09:42:37Z</time></trkpt><trkpt lat="45.21851054678279" lon="9.319695829635304"><ele>71.0</ele><time>2026-04-11T09:42:38Z</time></trkpt><trkpt lat="45.218361745362984" lon="9.319588839099048"><ele>71.0</ele><time>2026-04-11T09:42:39Z</time></trkpt><trkpt lat="45.21820994077557" lon="9.319473728415874"><ele>71.0</ele><time>2026-04-11T09:42:40Z</time></trkpt><trkpt lat="45.21805300752179" lon="9.319358243061366"><ele>71.0</ele><time>2026-04-11T09:42:41Z</time></trkpt><trkpt lat="45.217897379345715" lon="9.319239827835073"><ele>71.0</ele><time>2026-04-11T09:42:42Z</time></trkpt><trkpt lat="45.217739524509824" lon="9.319116643046584"><ele>71.0</ele><time>2026-04-11T09:42:43Z</time></trkpt><trkpt lat="45.217579768944525" lon="9.318997916424172"><ele>71.33333333333334</ele><time>2026-04-11T09:42:44Z</time></trkpt><trkpt lat="45.217426474990354" lon="9.3188802663241"><ele>71.66666666666667</ele><time>2026-04-11T09:42:45Z</time></trkpt><trkpt lat="45.21726272609215" lon="9.318756814115144"><ele>72.0</ele><time>2026-04-11T09:42:46Z</time></trkpt><trkpt lat="45.21709270837396" lon="9.318636703354422"><ele>71.33333333333333</ele><time>2026-04-11T09:42:46.999Z</time></trkpt><trkpt lat="45.216917717547446" lon="9.31851694737732"><ele>70.66666666666666</ele><time>2026-04-11T09:42:47.999Z</time></trkpt><trkpt lat="45.216755579756466" lon="9.318401577407647"><ele>70.0</ele><time>2026-04-11T09:42:48.999Z</time></trkpt><trkpt lat="45.216598918305095" lon="9.318274090967927"><ele>70.0</ele><time>2026-04-11T09:42:49.999Z</time></trkpt><trkpt lat="45.21643526092643" lon="9.318130692566756"><ele>70.0</ele><time>2026-04-11T09:42:50.999Z</time></trkpt><trkpt lat="45.21627816949323" lon="9.317956757791904"><ele>70.0</ele><time>2026-04-11T09:42:51.999Z</time></trkpt><trkpt lat="45.21614584934824" lon="9.317732495180511"><ele>70.0</ele><time>2026-04-11T09:42:52.999Z</time></trkpt><trkpt lat="45.2160335312946" lon="9.317469810564237"><ele>70.0</ele><time>2026-04-11T09:42:53.999Z</time></trkpt><trkpt lat="45.215914602229105" lon="9.317206810129052"><ele>70.0</ele><time>2026-04-11T09:42:54.999Z</time></trkpt><trkpt lat="45.21578961346932" lon="9.316955856371143"><ele>70.0</ele><time>2026-04-11T09:42:55.999Z</time></trkpt><trkpt lat="45.215666821408654" lon="9.316700684187325"><ele>70.0</ele><time>2026-04-11T09:42:56.999Z</time></trkpt><trkpt lat="45.215541560310136" lon="9.316444325086618"><ele>70.0</ele><time>2026-04-11T09:42:57.999Z</time></trkpt><trkpt lat="45.21540931449385" lon="9.316191078346757"><ele>71.0</ele><time>2026-04-11T09:42:58.999Z</time></trkpt><trkpt lat="45.215278387616586" lon="9.315936969215574"><ele>72.0</ele><time>2026-04-11T09:42:59.999Z</time></trkpt><trkpt lat="45.21515525220511" lon="9.315691262781902"><ele>73.0</ele><time>2026-04-11T09:43:00.999Z</time></trkpt><trkpt lat="45.2150310028032" lon="9.315462426661128"><ele>73.33333333333333</ele><time>2026-04-11T09:43:01.999Z</time></trkpt><trkpt lat="45.214891672503086" lon="9.315245100622342"><ele>73.66666666666667</ele><time>2026-04-11T09:43:02.999Z</time></trkpt><trkpt lat="45.21474999530324" lon="9.315038592872298"><ele>74.0</ele><time>2026-04-11T09:43:03.999Z</time></trkpt><trkpt lat="45.214607904353244" lon="9.314829902526752"><ele>73.0</ele><time>2026-04-11T09:43:04.999Z</time></trkpt><trkpt lat="45.21447238621682" lon="9.314631351421259"><ele>72.0</ele><time>2026-04-11T09:43:05.999Z</time></trkpt><trkpt lat="45.2143297200631" lon="9.314434581994435"><ele>71.0</ele><time>2026-04-11T09:43:06.999Z</time></trkpt><trkpt lat="45.214186395827596" lon="9.314243450083806"><ele>71.0</ele><time>2026-04-11T09:43:07.999Z</time></trkpt><trkpt lat="45.21404598900046" lon="9.314053271640985"><ele>71.0</ele><time>2026-04-11T09:43:08.999Z</time></trkpt><trkpt lat="45.21390502149509" lon="9.31386059826502"><ele>71.0</ele><time>2026-04-11T09:43:09.999Z</time></trkpt><trkpt lat="45.21376253027375" lon="9.313670987107857"><ele>71.66666666666667</ele><time>2026-04-11T09:43:10.999Z</time></trkpt><trkpt lat="45.21362085612053" lon="9.31348362115847"><ele>72.33333333333333</ele><time>2026-04-11T09:43:11.999Z</time></trkpt><trkpt lat="45.213483112500455" lon="9.313300007420292"><ele>73.0</ele><time>2026-04-11T09:43:12.999Z</time></trkpt><trkpt lat="45.2133421050992" lon="9.313110308065603"><ele>73.0</ele><time>2026-04-11T09:43:13.999Z</time></trkpt><trkpt lat="45.21320489728495" lon="9.312923546051387"><ele>73.0</ele><time>2026-04-11T09:43:14.999Z</time></trkpt><trkpt lat="45.21306617950841" lon="9.3127369380207"><ele>73.0</ele><time>2026-04-11T09:43:15.999Z</time></trkpt><trkpt lat="45.21292915821922" lon="9.312552783849634"><ele>72.66666666666666</ele><time>2026-04-11T09:43:16.999Z</time></trkpt><trkpt lat="45.2127929890306" lon="9.31237131381755"><ele>72.33333333333333</ele><time>2026-04-11T09:43:17.999Z</time></trkpt><trkpt lat="45.21265812080049" lon="9.312185208973508"><ele>72.0</ele><time>2026-04-11T09:43:18.999Z</time></trkpt><trkpt lat="45.212524183777" lon="9.311998692916118"><ele>72.0</ele><time>2026-04-11T09:43:19.999Z</time></trkpt><trkpt lat="45.21238511425337" lon="9.311820097208086"><ele>72.0</ele><time>2026-04-11T09:43:20.999Z</time></trkpt><trkpt lat="45.21224467008288" lon="9.311654217324142"><ele>72.0</ele><time>2026-04-11T09:43:21.999Z</time></trkpt><trkpt lat="45.212110925559266" lon="9.311505349225035"><ele>72.33333333333333</ele><time>2026-04-11T09:43:22.999Z</time></trkpt><trkpt lat="45.211975677420725" lon="9.311380393733591"><ele>72.66666666666666</ele><time>2026-04-11T09:43:23.999Z</time></trkpt><trkpt lat="45.21183408025379" lon="9.311285253578623"><ele>73.0</ele><time>2026-04-11T09:43:24.999Z</time></trkpt><trkpt lat="45.21168674589593" lon="9.311214312668906"><ele>73.0</ele><time>2026-04-11T09:43:25.999Z</time></trkpt><trkpt lat="45.211541121202934" lon="9.311156631237463"><ele>73.0</ele><time>2026-04-11T09:43:26.999Z</time></trkpt><trkpt lat="45.21138627742418" lon="9.311113544674456"><ele>73.0</ele><time>2026-04-11T09:43:27.999Z</time></trkpt><trkpt lat="45.21122430112819" lon="9.311074662501364"><ele>73.0</ele><time>2026-04-11T09:43:28.999Z</time></trkpt><trkpt lat="45.21104994734059" lon="9.311057190472358"><ele>73.0</ele><time>2026-04-11T09:43:29.999Z</time></trkpt><trkpt lat="45.21087451961108" lon="9.311059533588365"><ele>73.0</ele><time>2026-04-11T09:43:30.999Z</time></trkpt><trkpt lat="45.21069133611653" lon="9.31106847443995"><ele>73.0</ele><time>2026-04-11T09:43:31.999Z</time></trkpt><trkpt lat="45.21051230520824" lon="9.311091236399033"><ele>73.0</ele><time>2026-04-11T09:43:32.999Z</time></trkpt><trkpt lat="45.21034324781482" lon="9.311145219761467"><ele>73.0</ele><time>2026-04-11T09:43:33.999Z</time></trkpt><trkpt lat="45.210172212589306" lon="9.31121524166446"><ele>73.0</ele><time>2026-04-11T09:43:34.999Z</time></trkpt><trkpt lat="45.21000008810427" lon="9.311297677674986"><ele>73.0</ele><time>2026-04-11T09:43:35.999Z</time></trkpt><trkpt lat="45.20982463078731" lon="9.31138713893369"><ele>73.0</ele><time>2026-04-11T09:43:36.999Z</time></trkpt><trkpt lat="45.209645603464466" lon="9.311476596044685"><ele>73.0</ele><time>2026-04-11T09:43:37.999Z</time></trkpt><trkpt lat="45.20946619062146" lon="9.311562878746292"><ele>73.0</ele><time>2026-04-11T09:43:38.999Z</time></trkpt><trkpt lat="45.209282668728605" lon="9.311652423561576"><ele>73.0</ele><time>2026-04-11T09:43:39.999Z</time></trkpt><trkpt lat="45.20909706342609" lon="9.311738565957986"><ele>72.66666666666666</ele><time>2026-04-11T09:43:40.999Z</time></trkpt><trkpt lat="45.20891113033234" lon="9.311827191962637"><ele>72.33333333333333</ele><time>2026-04-11T09:43:41.999Z</time></trkpt><trkpt lat="45.20872943237917" lon="9.31191844812306"><ele>72.0</ele><time>2026-04-11T09:43:42.999Z</time></trkpt><trkpt lat="45.20854840810888" lon="9.312009214326077"><ele>72.0</ele><time>2026-04-11T09:43:43.999Z</time></trkpt><trkpt lat="45.20836953670702" lon="9.312090242677536"><ele>72.0</ele><time>2026-04-11T09:43:44.999Z</time></trkpt><trkpt lat="45.208185529401" lon="9.312171645833569"><ele>72.0</ele><time>2026-04-11T09:43:45.999Z</time></trkpt><trkpt lat="45.20800681614506" lon="9.312259793185877"><ele>71.66666666666667</ele><time>2026-04-11T09:43:46.999Z</time></trkpt><trkpt lat="45.20782227133233" lon="9.31234712646171"><ele>71.33333333333334</ele><time>2026-04-11T09:43:47.999Z</time></trkpt><trkpt lat="45.207636831071035" lon="9.312437082963507"><ele>71.0</ele><time>2026-04-11T09:43:48.999Z</time></trkpt><trkpt lat="45.20745674269023" lon="9.312521680721238"><ele>71.0</ele><time>2026-04-11T09:43:49.999Z</time></trkpt><trkpt lat="45.20726929982139" lon="9.312616217380963"><ele>71.0</ele><time>2026-04-11T09:43:50.999Z</time></trkpt><trkpt lat="45.20709247144864" lon="9.312713978373502"><ele>71.0</ele><time>2026-04-11T09:43:51.999Z</time></trkpt><trkpt lat="45.206911890308305" lon="9.312824703246251"><ele>71.0</ele><time>2026-04-11T09:43:52.999Z</time></trkpt><trkpt lat="45.20672934022727" lon="9.312926099214257"><ele>71.0</ele><time>2026-04-11T09:43:53.999Z</time></trkpt><trkpt lat="45.20654818077573" lon="9.313033882036375"><ele>71.0</ele><time>2026-04-11T09:43:54.999Z</time></trkpt><trkpt lat="45.206368748415336" lon="9.313147359501896"><ele>70.33333333333334</ele><time>2026-04-11T09:43:55.999Z</time></trkpt><trkpt lat="45.20618642825459" lon="9.313263323519822"><ele>69.66666666666667</ele><time>2026-04-11T09:43:56.999Z</time></trkpt><trkpt lat="45.2060043440269" lon="9.31337956051976"><ele>69.0</ele><time>2026-04-11T09:43:57.999Z</time></trkpt><trkpt lat="45.20582468086289" lon="9.3134935367943"><ele>68.33333333333333</ele><time>2026-04-11T09:43:58.999Z</time></trkpt><trkpt lat="45.205644215641506" lon="9.313604578263407"><ele>67.66666666666666</ele><time>2026-04-11T09:43:59.999Z</time></trkpt><trkpt lat="45.205465176320686" lon="9.313719229783771"><ele>67.0</ele><time>2026-04-11T09:44:00.999Z</time></trkpt><trkpt lat="45.20528551121668" lon="9.313837104418754"><ele>67.0</ele><time>2026-04-11T09:44:01.999Z</time></trkpt><trkpt lat="45.205100652597764" lon="9.31395092870008"><ele>67.0</ele><time>2026-04-11T09:44:02.999Z</time></trkpt><trkpt lat="45.20491952499885" lon="9.314075420987466"><ele>67.0</ele><time>2026-04-11T09:44:03.999Z</time></trkpt><trkpt lat="45.204751586860006" lon="9.314226187176633"><ele>67.0</ele><time>2026-04-11T09:44:04.999Z</time></trkpt><trkpt lat="45.20458213128724" lon="9.314394747749487"><ele>67.0</ele><time>2026-04-11T09:44:05.999Z</time></trkpt><trkpt lat="45.204422539685915" lon="9.314581071600117"><ele>67.0</ele><time>2026-04-11T09:44:06.999Z</time></trkpt><trkpt lat="45.20426848315934" lon="9.314775104385829"><ele>67.66666666666666</ele><time>2026-04-11T09:44:07.999Z</time></trkpt><trkpt lat="45.204121116995104" lon="9.314981106765092"><ele>68.33333333333333</ele><time>2026-04-11T09:44:08.999Z</time></trkpt><trkpt lat="45.20397406556736" lon="9.315186904569739"><ele>69.0</ele><time>2026-04-11T09:44:09.999Z</time></trkpt><trkpt lat="45.20382259315915" lon="9.315375571495334"><ele>69.0</ele><time>2026-04-11T09:44:10.999Z</time></trkpt><trkpt lat="45.203665790528746" lon="9.315553444531032"><ele>69.0</ele><time>2026-04-11T09:44:11.999Z</time></trkpt><trkpt lat="45.20350391689214" lon="9.315729007017335"><ele>69.0</ele><time>2026-04-11T09:44:12.998Z</time></trkpt><trkpt lat="45.2033436928927" lon="9.315901074919902"><ele>69.33333333333333</ele><time>2026-04-11T09:44:13.998Z</time></trkpt><trkpt lat="45.20319561864102" lon="9.316058755309419"><ele>69.66666666666666</ele><time>2026-04-11T09:44:14.998Z</time></trkpt><trkpt lat="45.20305303326563" lon="9.316193958174907"><ele>70.0</ele><time>2026-04-11T09:44:15.998Z</time></trkpt><trkpt lat="45.20290523728429" lon="9.316291138684491"><ele>70.0</ele><time>2026-04-11T09:44:16.998Z</time></trkpt><trkpt lat="45.202737782795616" lon="9.316358965669902"><ele>70.0</ele><time>2026-04-11T09:44:17.998Z</time></trkpt><trkpt lat="45.2025696044578" lon="9.316430068975203"><ele>70.0</ele><time>2026-04-11T09:44:18.998Z</time></trkpt><trkpt lat="45.202395158359906" lon="9.316513879494517"><ele>69.33333333333333</ele><time>2026-04-11T09:44:19.998Z</time></trkpt><trkpt lat="45.20222679971142" lon="9.316597564539018"><ele>68.66666666666667</ele><time>2026-04-11T09:44:20.998Z</time></trkpt><trkpt lat="45.20204890072052" lon="9.316705625884405"><ele>68.0</ele><time>2026-04-11T09:44:21.998Z</time></trkpt><trkpt lat="45.20186752992278" lon="9.316795994821932"><ele>68.0</ele><time>2026-04-11T09:44:22.998Z</time></trkpt><trkpt lat="45.20168434139143" lon="9.31689007887861"><ele>68.0</ele><time>2026-04-11T09:44:24Z</time></trkpt><trkpt lat="45.201516457003606" lon="9.31697100743839"><ele>68.0</ele><time>2026-04-11T09:44:25Z</time></trkpt><trkpt lat="45.20136376976685" lon="9.317053715503713"><ele>68.0</ele><time>2026-04-11T09:44:26Z</time></trkpt><trkpt lat="45.20120999111266" lon="9.317126226211967"><ele>68.0</ele><time>2026-04-11T09:44:27Z</time></trkpt><trkpt lat="45.20104736750448" lon="9.317207128172893"><ele>68.0</ele><time>2026-04-11T09:44:28Z</time></trkpt><trkpt lat="45.200880377508874" lon="9.317300680346621"><ele>68.0</ele><time>2026-04-11T09:44:29Z</time></trkpt><trkpt lat="45.20071762353142" lon="9.317409424953096"><ele>68.0</ele><time>2026-04-11T09:44:30Z</time></trkpt><trkpt lat="45.20055729493087" lon="9.317535107912917"><ele>68.0</ele><time>2026-04-11T09:44:31Z</time></trkpt><trkpt lat="45.20040551560011" lon="9.317717617807677"><ele>67.33333333333334</ele><time>2026-04-11T09:44:32Z</time></trkpt><trkpt lat="45.2002540397839" lon="9.317931172601265"><ele>66.66666666666667</ele><time>2026-04-11T09:44:33Z</time></trkpt><trkpt lat="45.200122296872244" lon="9.318137804366641"><ele>66.0</ele><time>2026-04-11T09:44:34Z</time></trkpt><trkpt lat="45.19999579831335" lon="9.318330462960185"><ele>66.0</ele><time>2026-04-11T09:44:35Z</time></trkpt><trkpt lat="45.199880870275514" lon="9.318506231744378"><ele>66.0</ele><time>2026-04-11T09:44:36Z</time></trkpt><trkpt lat="45.19977320146226" lon="9.318658980357169"><ele>66.0</ele><time>2026-04-11T09:44:37Z</time></trkpt><trkpt lat="45.199681257878396" lon="9.318791646329055"><ele>66.0</ele><time>2026-04-11T09:44:38Z</time></trkpt><trkpt lat="45.19960794734767" lon="9.318926966239975"><ele>66.0</ele><time>2026-04-11T09:44:39Z</time></trkpt><trkpt lat="45.199547685347625" lon="9.319063348396885"><ele>66.0</ele><time>2026-04-11T09:44:40Z</time></trkpt><trkpt lat="45.19949147814216" lon="9.319195630721252"><ele>66.0</ele><time>2026-04-11T09:44:41Z</time></trkpt><trkpt lat="45.199425156294126" lon="9.319324362043847"><ele>66.0</ele><time>2026-04-11T09:44:42Z</time></trkpt><trkpt lat="45.19933887348693" lon="9.319433771898128"><ele>66.0</ele><time>2026-04-11T09:44:43Z</time></trkpt><trkpt lat="45.19924432991467" lon="9.31952992450408"><ele>66.0</ele><time>2026-04-11T09:44:44Z</time></trkpt><trkpt lat="45.19916534970795" lon="9.319612116446333"><ele>66.0</ele><time>2026-04-11T09:44:45Z</time></trkpt><trkpt lat="45.19908688756335" lon="9.319678694259247"><ele>66.0</ele><time>2026-04-11T09:44:46Z</time></trkpt><trkpt lat="45.199007170423535" lon="9.319749946221616"><ele>66.0</ele><time>2026-04-11T09:44:47Z</time></trkpt><trkpt lat="45.19894636795633" lon="9.319814632843144"><ele>66.0</ele><time>2026-04-11T09:44:48Z</time></trkpt><trkpt lat="45.19885016384514" lon="9.319881874106505"><ele>66.0</ele><time>2026-04-11T09:44:50Z</time></trkpt><trkpt lat="45.19878896602661" lon="9.319925978903932"><ele>66.0</ele><time>2026-04-11T09:44:53Z</time></trkpt><trkpt lat="45.198719761370015" lon="9.320004924027103"><ele>66.0</ele><time>2026-04-11T09:44:59Z</time></trkpt><trkpt lat="45.19872950423927" lon="9.32012013503734"><ele>66.0</ele><time>2026-04-11T09:45:01Z</time></trkpt><trkpt lat="45.1987678974939" lon="9.32020211084461"><ele>66.0</ele><time>2026-04-11T09:45:02Z</time></trkpt><trkpt lat="45.19881421727549" lon="9.320291333226983"><ele>66.0</ele><time>2026-04-11T09:45:03Z</time></trkpt><trkpt lat="45.198859033655005" lon="9.320379285187295"><ele>66.0</ele><time>2026-04-11T09:45:04Z</time></trkpt><trkpt lat="45.19891716029203" lon="9.32047648935267"><ele>66.0</ele><time>2026-04-11T09:45:05Z</time></trkpt><trkpt lat="45.19898870423794" lon="9.320603985492172"><ele>66.0</ele><time>2026-04-11T09:45:06Z</time></trkpt><trkpt lat="45.19907218131625" lon="9.32074520998259"><ele>67.0</ele><time>2026-04-11T09:45:07Z</time></trkpt><trkpt lat="45.199169186746545" lon="9.32090479821637"><ele>68.0</ele><time>2026-04-11T09:45:08Z</time></trkpt><trkpt lat="45.19925436715907" lon="9.321047617806837"><ele>69.0</ele><time>2026-04-11T09:45:09Z</time></trkpt><trkpt lat="45.199329115346416" lon="9.321197584212428"><ele>70.0</ele><time>2026-04-11T09:45:10Z</time></trkpt><trkpt lat="45.19941355677162" lon="9.321365071946373"><ele>70.33333333333333</ele><time>2026-04-11T09:45:11Z</time></trkpt><trkpt lat="45.1995005243681" lon="9.321539089976397"><ele>70.66666666666667</ele><time>2026-04-11T09:45:12Z</time></trkpt><trkpt lat="45.19958828564484" lon="9.32171521219238"><ele>71.0</ele><time>2026-04-11T09:45:13Z</time></trkpt><trkpt lat="45.19968158452058" lon="9.321890495838286"><ele>71.0</ele><time>2026-04-11T09:45:13.999Z</time></trkpt><trkpt lat="45.19978192962857" lon="9.322063791283501"><ele>71.0</ele><time>2026-04-11T09:45:14.999Z</time></trkpt><trkpt lat="45.19987735946588" lon="9.322243600362835"><ele>71.0</ele><time>2026-04-11T09:45:15.999Z</time></trkpt><trkpt lat="45.19996850557511" lon="9.322415830490334"><ele>71.0</ele><time>2026-04-11T09:45:16.999Z</time></trkpt><trkpt lat="45.20006150662975" lon="9.322589582763333"><ele>71.0</ele><time>2026-04-11T09:45:17.999Z</time></trkpt><trkpt lat="45.20015796781903" lon="9.32276799201017"><ele>71.0</ele><time>2026-04-11T09:45:18.999Z</time></trkpt><trkpt lat="45.20025400540748" lon="9.32295031689742"><ele>71.0</ele><time>2026-04-11T09:45:19.999Z</time></trkpt><trkpt lat="45.20035026351557" lon="9.323135998291674"><ele>71.0</ele><time>2026-04-11T09:45:20.999Z</time></trkpt><trkpt lat="45.200446818432304" lon="9.323318235055945"><ele>71.0</ele><time>2026-04-11T09:45:21.999Z</time></trkpt><trkpt lat="45.20054710179602" lon="9.323501795506761"><ele>71.0</ele><time>2026-04-11T09:45:22.999Z</time></trkpt><trkpt lat="45.200645719755" lon="9.32368656277585"><ele>71.0</ele><time>2026-04-11T09:45:23.999Z</time></trkpt><trkpt lat="45.20074340236696" lon="9.32387840479758"><ele>71.0</ele><time>2026-04-11T09:45:24.999Z</time></trkpt><trkpt lat="45.20083550631058" lon="9.324076816390395"><ele>71.0</ele><time>2026-04-11T09:45:25.999Z</time></trkpt><trkpt lat="45.200926893598925" lon="9.324277675605146"><ele>71.0</ele><time>2026-04-11T09:45:26.999Z</time></trkpt><trkpt lat="45.20102219897785" lon="9.324497219493587"><ele>71.0</ele><time>2026-04-11T09:45:27.999Z</time></trkpt><trkpt lat="45.20111441518687" lon="9.324718012565926"><ele>71.33333333333334</ele><time>2026-04-11T09:45:28.999Z</time></trkpt><trkpt lat="45.201203189283994" lon="9.32495017993633"><ele>71.66666666666667</ele><time>2026-04-11T09:45:29.999Z</time></trkpt><trkpt lat="45.20128994523236" lon="9.32519337338665"><ele>72.0</ele><time>2026-04-11T09:45:30.999Z</time></trkpt><trkpt lat="45.20137529170763" lon="9.325442803127407"><ele>71.66666666666667</ele><time>2026-04-11T09:45:31.999Z</time></trkpt><trkpt lat="45.20145677926589" lon="9.325684635150674"><ele>71.33333333333334</ele><time>2026-04-11T09:45:32.999Z</time></trkpt><trkpt lat="45.20152276842022" lon="9.325919242771548"><ele>71.0</ele><time>2026-04-11T09:45:33.999Z</time></trkpt><trkpt lat="45.20159269228444" lon="9.326172832279081"><ele>70.66666666666667</ele><time>2026-04-11T09:45:34.999Z</time></trkpt><trkpt lat="45.2016566552707" lon="9.326441451347769"><ele>70.33333333333333</ele><time>2026-04-11T09:45:35.999Z</time></trkpt><trkpt lat="45.201721816062275" lon="9.326709394730733"><ele>70.0</ele><time>2026-04-11T09:45:36.999Z</time></trkpt><trkpt lat="45.20178851941883" lon="9.32698543197228"><ele>70.33333333333333</ele><time>2026-04-11T09:45:37.999Z</time></trkpt><trkpt lat="45.20185668675622" lon="9.327263248596745"><ele>70.66666666666667</ele><time>2026-04-11T09:45:38.999Z</time></trkpt><trkpt lat="45.20192587619127" lon="9.327550153738905"><ele>71.0</ele><time>2026-04-11T09:45:39.999Z</time></trkpt><trkpt lat="45.20199389620382" lon="9.327838203297992"><ele>70.66666666666667</ele><time>2026-04-11T09:45:40.999Z</time></trkpt><trkpt lat="45.20206592633035" lon="9.328131048674836"><ele>70.33333333333333</ele><time>2026-04-11T09:45:41.999Z</time></trkpt><trkpt lat="45.20214074233865" lon="9.328426707771603"><ele>70.0</ele><time>2026-04-11T09:45:42.999Z</time></trkpt><trkpt lat="45.20221327971923" lon="9.328730685061265"><ele>70.0</ele><time>2026-04-11T09:45:43.999Z</time></trkpt><trkpt lat="45.20228133780483" lon="9.329023278054693"><ele>70.0</ele><time>2026-04-11T09:45:44.999Z</time></trkpt><trkpt lat="45.20234757880356" lon="9.329292157256061"><ele>70.0</ele><time>2026-04-11T09:45:45.999Z</time></trkpt><trkpt lat="45.20241041821112" lon="9.329548857818702"><ele>70.33333333333333</ele><time>2026-04-11T09:45:46.999Z</time></trkpt><trkpt lat="45.202470986309145" lon="9.329791132526667"><ele>70.66666666666667</ele><time>2026-04-11T09:45:47.999Z</time></trkpt><trkpt lat="45.20252754721073" lon="9.330017819254106"><ele>71.0</ele><time>2026-04-11T09:45:48.999Z</time></trkpt><trkpt lat="45.20257096938706" lon="9.330205518848281"><ele>71.0</ele><time>2026-04-11T09:45:49.999Z</time></trkpt><trkpt lat="45.202600405240446" lon="9.330363355102474"><ele>71.0</ele><time>2026-04-11T09:45:50.999Z</time></trkpt><trkpt lat="45.20261182865373" lon="9.33050873596157"><ele>71.0</ele><time>2026-04-11T09:45:51.999Z</time></trkpt><trkpt lat="45.20258900689128" lon="9.330652417026483"><ele>71.0</ele><time>2026-04-11T09:45:52.999Z</time></trkpt><trkpt lat="45.20256601565806" lon="9.330797774024418"><ele>71.0</ele><time>2026-04-11T09:45:53.999Z</time></trkpt><trkpt lat="45.20259446351524" lon="9.330956849099257"><ele>71.0</ele><time>2026-04-11T09:45:54.999Z</time></trkpt><trkpt lat="45.20267299110212" lon="9.331097392242611"><ele>71.0</ele><time>2026-04-11T09:45:55.999Z</time></trkpt><trkpt lat="45.202778916189715" lon="9.331212993781094"><ele>71.0</ele><time>2026-04-11T09:45:56.999Z</time></trkpt><trkpt lat="45.20286711972789" lon="9.331364018840903"><ele>71.0</ele><time>2026-04-11T09:45:57.999Z</time></trkpt><trkpt lat="45.202918329045374" lon="9.331571548003474"><ele>71.0</ele><time>2026-04-11T09:45:58.999Z</time></trkpt><trkpt lat="45.202962449445806" lon="9.331799705178522"><ele>71.0</ele><time>2026-04-11T09:45:59.999Z</time></trkpt><trkpt lat="45.20302080257923" lon="9.332035423373423"><ele>71.0</ele><time>2026-04-11T09:46:00.999Z</time></trkpt><trkpt lat="45.203080042295944" lon="9.332281860262107"><ele>71.0</ele><time>2026-04-11T09:46:01.999Z</time></trkpt><trkpt lat="45.20314660740924" lon="9.33254487970164"><ele>71.0</ele><time>2026-04-11T09:46:02.999Z</time></trkpt><trkpt lat="45.20321763897848" lon="9.332818265641121"><ele>71.0</ele><time>2026-04-11T09:46:03.999Z</time></trkpt><trkpt lat="45.20328478213071" lon="9.333099055283437"><ele>70.66666666666667</ele><time>2026-04-11T09:46:04.999Z</time></trkpt><trkpt lat="45.20335369139428" lon="9.333382456892323"><ele>70.33333333333333</ele><time>2026-04-11T09:46:05.999Z</time></trkpt><trkpt lat="45.203415586152765" lon="9.33364470780456"><ele>70.0</ele><time>2026-04-11T09:46:06.999Z</time></trkpt><trkpt lat="45.203474897861796" lon="9.333892796550634"><ele>70.0</ele><time>2026-04-11T09:46:07.999Z</time></trkpt><trkpt lat="45.203538080398644" lon="9.33414717837895"><ele>70.0</ele><time>2026-04-11T09:46:08.999Z</time></trkpt><trkpt lat="45.203601711717134" lon="9.33440145855728"><ele>70.0</ele><time>2026-04-11T09:46:09.999Z</time></trkpt><trkpt lat="45.203666118992416" lon="9.334666447921164"><ele>69.66666666666666</ele><time>2026-04-11T09:46:10.999Z</time></trkpt><trkpt lat="45.20373084881469" lon="9.334933878122044"><ele>69.33333333333333</ele><time>2026-04-11T09:46:11.999Z</time></trkpt><trkpt lat="45.203798256397754" lon="9.33520378175267"><ele>69.0</ele><time>2026-04-11T09:46:12.999Z</time></trkpt><trkpt lat="45.2038663678742" lon="9.335475094424549"><ele>69.33333333333333</ele><time>2026-04-11T09:46:13.999Z</time></trkpt><trkpt lat="45.20393483871304" lon="9.335754158675755"><ele>69.66666666666666</ele><time>2026-04-11T09:46:14.999Z</time></trkpt><trkpt lat="45.20400240238998" lon="9.336023500767547"><ele>70.0</ele><time>2026-04-11T09:46:15.999Z</time></trkpt><trkpt lat="45.20406327750635" lon="9.33627531108073"><ele>70.66666666666666</ele><time>2026-04-11T09:46:16.999Z</time></trkpt><trkpt lat="45.20411933377853" lon="9.336515237959565"><ele>71.33333333333333</ele><time>2026-04-11T09:46:17.999Z</time></trkpt><trkpt lat="45.20417464944662" lon="9.336749181611175"><ele>72.0</ele><time>2026-04-11T09:46:18.999Z</time></trkpt><trkpt lat="45.204236395949685" lon="9.336989820402351"><ele>71.0</ele><time>2026-04-11T09:46:19.999Z</time></trkpt><trkpt lat="45.20429678103463" lon="9.337230573902135"><ele>70.0</ele><time>2026-04-11T09:46:20.999Z</time></trkpt><trkpt lat="45.20435395255473" lon="9.337471020777048"><ele>69.0</ele><time>2026-04-11T09:46:21.999Z</time></trkpt><trkpt lat="45.204411698267336" lon="9.337709359828903"><ele>69.0</ele><time>2026-04-11T09:46:22.999Z</time></trkpt><trkpt lat="45.20447161320612" lon="9.337947490884945"><ele>69.0</ele><time>2026-04-11T09:46:23.999Z</time></trkpt><trkpt lat="45.20452945849233" lon="9.338189946822476"><ele>69.0</ele><time>2026-04-11T09:46:24.999Z</time></trkpt><trkpt lat="45.2045869845147" lon="9.338434199703725"><ele>69.33333333333333</ele><time>2026-04-11T09:46:25.999Z</time></trkpt><trkpt lat="45.204642257937785" lon="9.338674641013366"><ele>69.66666666666666</ele><time>2026-04-11T09:46:26.999Z</time></trkpt><trkpt lat="45.20470049241792" lon="9.338914663774283"><ele>70.0</ele><time>2026-04-11T09:46:27.998Z</time></trkpt><trkpt lat="45.2047603840475" lon="9.339154281494494"><ele>70.0</ele><time>2026-04-11T09:46:29Z</time></trkpt><trkpt lat="45.20481902520309" lon="9.3393893726773"><ele>70.0</ele><time>2026-04-11T09:46:30Z</time></trkpt><trkpt lat="45.204873830765685" lon="9.339607736003366"><ele>70.0</ele><time>2026-04-11T09:46:31Z</time></trkpt><trkpt lat="45.204923372327364" lon="9.339818417133086"><ele>70.0</ele><time>2026-04-11T09:46:32Z</time></trkpt><trkpt lat="45.20497044237307" lon="9.34002820296695"><ele>70.0</ele><time>2026-04-11T09:46:33Z</time></trkpt><trkpt lat="45.20502308020412" lon="9.340242300338037"><ele>70.0</ele><time>2026-04-11T09:46:34Z</time></trkpt><trkpt lat="45.20508162212908" lon="9.3404671250267"><ele>70.0</ele><time>2026-04-11T09:46:35Z</time></trkpt><trkpt lat="45.20513609002939" lon="9.340696224264912"><ele>70.0</ele><time>2026-04-11T09:46:36Z</time></trkpt><trkpt lat="45.20519329107579" lon="9.340926654942313"><ele>70.0</ele><time>2026-04-11T09:46:37Z</time></trkpt><trkpt lat="45.20524850261049" lon="9.341152090575136"><ele>69.66666666666666</ele><time>2026-04-11T09:46:38Z</time></trkpt><trkpt lat="45.20530304213149" lon="9.341382359204491"><ele>69.33333333333333</ele><time>2026-04-11T09:46:39Z</time></trkpt><trkpt lat="45.20535607874361" lon="9.341603656276751"><ele>69.0</ele><time>2026-04-11T09:46:40Z</time></trkpt><trkpt lat="45.205407458765386" lon="9.341815730027056"><ele>69.0</ele><time>2026-04-11T09:46:41Z</time></trkpt><trkpt lat="45.20545912002458" lon="9.34202392363128"><ele>69.0</ele><time>2026-04-11T09:46:42Z</time></trkpt><trkpt lat="45.20551011376113" lon="9.342231476558561"><ele>69.0</ele><time>2026-04-11T09:46:43Z</time></trkpt><trkpt lat="45.20555797683228" lon="9.342431858114313"><ele>69.0</ele><time>2026-04-11T09:46:44Z</time></trkpt><trkpt lat="45.20560692967383" lon="9.342643267358476"><ele>69.0</ele><time>2026-04-11T09:46:45Z</time></trkpt><trkpt lat="45.20566112555071" lon="9.342857864588046"><ele>69.0</ele><time>2026-04-11T09:46:46Z</time></trkpt><trkpt lat="45.205716978726684" lon="9.34307547195792"><ele>69.0</ele><time>2026-04-11T09:46:47Z</time></trkpt><trkpt lat="45.20577091865638" lon="9.34329782183598"><ele>69.0</ele><time>2026-04-11T09:46:48Z</time></trkpt><trkpt lat="45.205833275093546" lon="9.343516245917202"><ele>69.0</ele><time>2026-04-11T09:46:49Z</time></trkpt><trkpt lat="45.20590671153773" lon="9.34373364892696"><ele>68.66666666666667</ele><time>2026-04-11T09:46:50Z</time></trkpt><trkpt lat="45.20598941048281" lon="9.343935890186605"><ele>68.33333333333334</ele><time>2026-04-11T09:46:51Z</time></trkpt><trkpt lat="45.20608392598921" lon="9.344129359451326"><ele>68.0</ele><time>2026-04-11T09:46:52Z</time></trkpt><trkpt lat="45.20619066718071" lon="9.344318397567973"><ele>68.0</ele><time>2026-04-11T09:46:53Z</time></trkpt><trkpt lat="45.20630966553382" lon="9.344491523271525"><ele>68.0</ele><time>2026-04-11T09:46:54Z</time></trkpt><trkpt lat="45.20644686498188" lon="9.344643245342967"><ele>68.0</ele><time>2026-04-11T09:46:55Z</time></trkpt><trkpt lat="45.2065881156299" lon="9.34478506745649"><ele>69.0</ele><time>2026-04-11T09:46:56Z</time></trkpt><trkpt lat="45.20673224980886" lon="9.344931170373385"><ele>70.0</ele><time>2026-04-11T09:46:57Z</time></trkpt><trkpt lat="45.206874453258195" lon="9.345080097548694"><ele>71.0</ele><time>2026-04-11T09:46:58Z</time></trkpt><trkpt lat="45.207018915994524" lon="9.345244440595593"><ele>71.0</ele><time>2026-04-11T09:46:59Z</time></trkpt><trkpt lat="45.20716164289852" lon="9.345413038049054"><ele>71.0</ele><time>2026-04-11T09:47:00Z</time></trkpt><trkpt lat="45.20730983918714" lon="9.345586613170894"><ele>71.0</ele><time>2026-04-11T09:47:01Z</time></trkpt><trkpt lat="45.207450065038906" lon="9.345756627277972"><ele>70.66666666666667</ele><time>2026-04-11T09:47:02Z</time></trkpt><trkpt lat="45.20759274166921" lon="9.345946351579874"><ele>70.33333333333333</ele><time>2026-04-11T09:47:03Z</time></trkpt><trkpt lat="45.20773167072218" lon="9.346142651772801"><ele>70.0</ele><time>2026-04-11T09:47:04Z</time></trkpt><trkpt lat="45.207865523019784" lon="9.346343605053734"><ele>69.33333333333333</ele><time>2026-04-11T09:47:05Z</time></trkpt><trkpt lat="45.20799522249723" lon="9.346545431094844"><ele>68.66666666666667</ele><time>2026-04-11T09:47:06Z</time></trkpt><trkpt lat="45.20812035351212" lon="9.34674419250069"><ele>68.0</ele><time>2026-04-11T09:47:07Z</time></trkpt><trkpt lat="45.20825013387927" lon="9.346941708388947"><ele>68.0</ele><time>2026-04-11T09:47:08Z</time></trkpt><trkpt lat="45.208369718516046" lon="9.347134366881342"><ele>68.0</ele><time>2026-04-11T09:47:09Z</time></trkpt><trkpt lat="45.208489813934676" lon="9.347330106765625"><ele>68.0</ele><time>2026-04-11T09:47:10Z</time></trkpt><trkpt lat="45.208619211489456" lon="9.347520094259876"><ele>68.33333333333334</ele><time>2026-04-11T09:47:11Z</time></trkpt><trkpt lat="45.208748901220225" lon="9.34770993612538"><ele>68.66666666666667</ele><time>2026-04-11T09:47:12Z</time></trkpt><trkpt lat="45.208874672666575" lon="9.347911126586666"><ele>69.0</ele><time>2026-04-11T09:47:13Z</time></trkpt><trkpt lat="45.20900860583528" lon="9.348112564788524"><ele>69.33333333333333</ele><time>2026-04-11T09:47:14Z</time></trkpt><trkpt lat="45.20912965725112" lon="9.348305928476476"><ele>69.66666666666666</ele><time>2026-04-11T09:47:15Z</time></trkpt><trkpt lat="45.20925659882163" lon="9.348506233511076"><ele>70.0</ele><time>2026-04-11T09:47:16Z</time></trkpt><trkpt lat="45.2093838800999" lon="9.348708693608696"><ele>70.33333333333333</ele><time>2026-04-11T09:47:17Z</time></trkpt><trkpt lat="45.2095102969113" lon="9.348919684141412"><ele>70.66666666666667</ele><time>2026-04-11T09:47:18Z</time></trkpt><trkpt lat="45.209629360229336" lon="9.349140574448093"><ele>71.0</ele><time>2026-04-11T09:47:19Z</time></trkpt><trkpt lat="45.2097257662252" lon="9.349380133082308"><ele>71.0</ele><time>2026-04-11T09:47:20Z</time></trkpt><trkpt lat="45.209825438609045" lon="9.349602293595932"><ele>71.0</ele><time>2026-04-11T09:47:21Z</time></trkpt><trkpt lat="45.20988281616548" lon="9.349849239243808"><ele>71.0</ele><time>2026-04-11T09:47:22Z</time></trkpt><trkpt lat="45.20994274597347" lon="9.350113709323438"><ele>71.0</ele><time>2026-04-11T09:47:23Z</time></trkpt><trkpt lat="45.21000379054638" lon="9.35038523503956"><ele>71.0</ele><time>2026-04-11T09:47:24Z</time></trkpt><trkpt lat="45.21006323979566" lon="9.350661216494107"><ele>71.0</ele><time>2026-04-11T09:47:25Z</time></trkpt><trkpt lat="45.21011842029678" lon="9.350943724268486"><ele>71.33333333333334</ele><time>2026-04-11T09:47:26Z</time></trkpt><trkpt lat="45.21016544773" lon="9.351234699170446"><ele>71.66666666666667</ele><time>2026-04-11T09:47:27Z</time></trkpt><trkpt lat="45.210201564427955" lon="9.351525608803332"><ele>72.0</ele><time>2026-04-11T09:47:28Z</time></trkpt><trkpt lat="45.210229220900914" lon="9.351793717421625"><ele>72.0</ele><time>2026-04-11T09:47:29Z</time></trkpt><trkpt lat="45.2102545213308" lon="9.352039943535143"><ele>72.0</ele><time>2026-04-11T09:47:30Z</time></trkpt><trkpt lat="45.210282742752554" lon="9.352263622115316"><ele>72.0</ele><time>2026-04-11T09:47:30.999Z</time></trkpt><trkpt lat="45.21030946384151" lon="9.352480365294326"><ele>71.75</ele><time>2026-04-11T09:47:31.999Z</time></trkpt><trkpt lat="45.210338211716106" lon="9.352680306342934"><ele>71.5</ele><time>2026-04-11T09:47:32.999Z</time></trkpt><trkpt lat="45.21036077967595" lon="9.352856514071727"><ele>71.25</ele><time>2026-04-11T09:47:33.999Z</time></trkpt><trkpt lat="45.21037850448659" lon="9.353020301601555"><ele>71.0</ele><time>2026-04-11T09:47:34.999Z</time></trkpt><trkpt lat="45.21039657361855" lon="9.353181519475344"><ele>70.75</ele><time>2026-04-11T09:47:35.999Z</time></trkpt><trkpt lat="45.210408560861715" lon="9.353365529815628"><ele>70.5</ele><time>2026-04-11T09:47:36.999Z</time></trkpt><trkpt lat="45.21043261735784" lon="9.353575530212543"><ele>70.25</ele><time>2026-04-11T09:47:37.999Z</time></trkpt><trkpt lat="45.21045849669005" lon="9.353788383470055"><ele>70.0</ele><time>2026-04-11T09:47:38.999Z</time></trkpt><trkpt lat="45.210485089210906" lon="9.354002887654792"><ele>70.0</ele><time>2026-04-11T09:47:39.999Z</time></trkpt><trkpt lat="45.21050149156486" lon="9.354202225504503"><ele>70.0</ele><time>2026-04-11T09:47:40.999Z</time></trkpt><trkpt lat="45.21051637914534" lon="9.354387290710568"><ele>70.0</ele><time>2026-04-11T09:47:41.999Z</time></trkpt><trkpt lat="45.21054193287218" lon="9.354590233131775"><ele>70.0</ele><time>2026-04-11T09:47:42.999Z</time></trkpt><trkpt lat="45.21057358764252" lon="9.354798937204544"><ele>69.75</ele><time>2026-04-11T09:47:43.999Z</time></trkpt><trkpt lat="45.21059627152245" lon="9.35498826410975"><ele>69.5</ele><time>2026-04-11T09:47:44.999Z</time></trkpt><trkpt lat="45.21060074439849" lon="9.355151165109902"><ele>69.25</ele><time>2026-04-11T09:47:45.999Z</time></trkpt><trkpt lat="45.21057352438004" lon="9.355301029351368"><ele>69.0</ele><time>2026-04-11T09:47:46.999Z</time></trkpt><trkpt lat="45.21051254591236" lon="9.355446019805356"><ele>69.0</ele><time>2026-04-11T09:47:47.999Z</time></trkpt><trkpt lat="45.21046929748784" lon="9.35558198089721"><ele>69.0</ele><time>2026-04-11T09:47:48.999Z</time></trkpt><trkpt lat="45.210488595053135" lon="9.355713639510284"><ele>69.0</ele><time>2026-04-11T09:47:49.999Z</time></trkpt><trkpt lat="45.21056148206288" lon="9.355829634676072"><ele>69.0</ele><time>2026-04-11T09:47:50.999Z</time></trkpt><trkpt lat="45.210654300423094" lon="9.355912422378074"><ele>69.0</ele><time>2026-04-11T09:47:51.999Z</time></trkpt><trkpt lat="45.210720607786314" lon="9.356001716442574"><ele>69.0</ele><time>2026-04-11T09:47:52.999Z</time></trkpt><trkpt lat="45.210753042073044" lon="9.356125686344622"><ele>69.0</ele><time>2026-04-11T09:47:53.999Z</time></trkpt><trkpt lat="45.21076065666416" lon="9.356265443098978"><ele>69.0</ele><time>2026-04-11T09:47:54.999Z</time></trkpt><trkpt lat="45.21076555151216" lon="9.356420901360181"><ele>69.0</ele><time>2026-04-11T09:47:55.999Z</time></trkpt><trkpt lat="45.21078098298086" lon="9.356584947148953"><ele>69.0</ele><time>2026-04-11T09:47:56.999Z</time></trkpt><trkpt lat="45.21080311042218" lon="9.356747158432828"><ele>69.0</ele><time>2026-04-11T09:47:57.999Z</time></trkpt><trkpt lat="45.21082492029762" lon="9.356919325131168"><ele>69.0</ele><time>2026-04-11T09:47:58.999Z</time></trkpt><trkpt lat="45.21084937462587" lon="9.357113474360418"><ele>69.0</ele><time>2026-04-11T09:47:59.999Z</time></trkpt><trkpt lat="45.2108858483612" lon="9.357341754187225"><ele>69.0</ele><time>2026-04-11T09:48:00.999Z</time></trkpt><trkpt lat="45.21092666549212" lon="9.357612560905793"><ele>69.0</ele><time>2026-04-11T09:48:01.999Z</time></trkpt><trkpt lat="45.21095449433374" lon="9.357904613333398"><ele>69.0</ele><time>2026-04-11T09:48:02.999Z</time></trkpt><trkpt lat="45.21097311169531" lon="9.358147397551518"><ele>69.0</ele><time>2026-04-11T09:48:03.999Z</time></trkpt><trkpt lat="45.21099797365175" lon="9.358393277706321"><ele>69.33333333333333</ele><time>2026-04-11T09:48:04.999Z</time></trkpt><trkpt lat="45.21102363457467" lon="9.358633139517448"><ele>69.66666666666666</ele><time>2026-04-11T09:48:05.999Z</time></trkpt><trkpt lat="45.21104862929748" lon="9.358877060044017"><ele>70.0</ele><time>2026-04-11T09:48:06.999Z</time></trkpt><trkpt lat="45.211079504132954" lon="9.359126023821133"><ele>70.66666666666666</ele><time>2026-04-11T09:48:07.999Z</time></trkpt><trkpt lat="45.21111839330186" lon="9.359371785813016"><ele>71.33333333333333</ele><time>2026-04-11T09:48:08.999Z</time></trkpt><trkpt lat="45.21115329877536" lon="9.35962082662105"><ele>72.0</ele><time>2026-04-11T09:48:09.999Z</time></trkpt><trkpt lat="45.211194048452406" lon="9.359868595944876"><ele>72.33333333333333</ele><time>2026-04-11T09:48:10.999Z</time></trkpt><trkpt lat="45.21123955739603" lon="9.360099905968346"><ele>72.66666666666666</ele><time>2026-04-11T09:48:11.999Z</time></trkpt><trkpt lat="45.2112858278577" lon="9.360316025505513"><ele>73.0</ele><time>2026-04-11T09:48:12.999Z</time></trkpt><trkpt lat="45.21132858010556" lon="9.36053097563618"><ele>73.0</ele><time>2026-04-11T09:48:13.999Z</time></trkpt><trkpt lat="45.2113733584979" lon="9.360752726540177"><ele>73.0</ele><time>2026-04-11T09:48:14.999Z</time></trkpt><trkpt lat="45.211420707412245" lon="9.360972912548268"><ele>73.0</ele><time>2026-04-11T09:48:15.999Z</time></trkpt><trkpt lat="45.21147235485615" lon="9.361194996134355"><ele>73.0</ele><time>2026-04-11T09:48:16.999Z</time></trkpt><trkpt lat="45.211535566860704" lon="9.361430957236157"><ele>73.0</ele><time>2026-04-11T09:48:17.999Z</time></trkpt><trkpt lat="45.21160287256954" lon="9.361643317759535"><ele>73.0</ele><time>2026-04-11T09:48:18.999Z</time></trkpt><trkpt lat="45.211685897088266" lon="9.361876373744764"><ele>73.0</ele><time>2026-04-11T09:48:19.999Z</time></trkpt><trkpt lat="45.21177548379612" lon="9.36209842819161"><ele>73.0</ele><time>2026-04-11T09:48:20.999Z</time></trkpt><trkpt lat="45.21187167073443" lon="9.362322710592498"><ele>73.0</ele><time>2026-04-11T09:48:21.999Z</time></trkpt><trkpt lat="45.211968776469035" lon="9.362546188753027"><ele>73.0</ele><time>2026-04-11T09:48:22.999Z</time></trkpt><trkpt lat="45.21205757565951" lon="9.362765257290572"><ele>73.0</ele><time>2026-04-11T09:48:23.999Z</time></trkpt><trkpt lat="45.21214532293707" lon="9.362978706084473"><ele>73.0</ele><time>2026-04-11T09:48:24.999Z</time></trkpt><trkpt lat="45.212229077234376" lon="9.363184881937672"><ele>72.66666666666666</ele><time>2026-04-11T09:48:25.999Z</time></trkpt><trkpt lat="45.2123112691155" lon="9.363390899072684"><ele>72.33333333333333</ele><time>2026-04-11T09:48:26.999Z</time></trkpt><trkpt lat="45.212395003954505" lon="9.363598328888255"><ele>72.0</ele><time>2026-04-11T09:48:27.999Z</time></trkpt><trkpt lat="45.21247590803719" lon="9.363788442647975"><ele>72.0</ele><time>2026-04-11T09:48:28.999Z</time></trkpt><trkpt lat="45.212548404065615" lon="9.36396205982689"><ele>72.0</ele><time>2026-04-11T09:48:29.999Z</time></trkpt><trkpt lat="45.212683492391484" lon="9.364281406438087"><ele>72.0</ele><time>2026-04-11T09:48:31.999Z</time></trkpt><trkpt lat="45.212739879496695" lon="9.364437582863287"><ele>72.0</ele><time>2026-04-11T09:48:32.999Z</time></trkpt><trkpt lat="45.21280015925037" lon="9.364597860826432"><ele>72.0</ele><time>2026-04-11T09:48:33.999Z</time></trkpt><trkpt lat="45.21286638825466" lon="9.364754847879766"><ele>72.0</ele><time>2026-04-11T09:48:35Z</time></trkpt><trkpt lat="45.21293426088153" lon="9.364910241579231"><ele>72.0</ele><time>2026-04-11T09:48:36Z</time></trkpt><trkpt lat="45.21299394013068" lon="9.365062399720266"><ele>72.25</ele><time>2026-04-11T09:48:37Z</time></trkpt><trkpt lat="45.21305102610885" lon="9.365213287152216"><ele>72.5</ele><time>2026-04-11T09:48:38Z</time></trkpt><trkpt lat="45.213109203564755" lon="9.365362544822045"><ele>72.75</ele><time>2026-04-11T09:48:39Z</time></trkpt><trkpt lat="45.21316958115643" lon="9.365510647515297"><ele>73.0</ele><time>2026-04-11T09:48:40Z</time></trkpt><trkpt lat="45.21322776513165" lon="9.365638335023723"><ele>73.16666666666666</ele><time>2026-04-11T09:48:41Z</time></trkpt><trkpt lat="45.21327917170972" lon="9.36574335925502"><ele>73.33333333333333</ele><time>2026-04-11T09:48:42Z</time></trkpt><trkpt lat="45.21331855491101" lon="9.365842469705017"><ele>73.5</ele><time>2026-04-11T09:48:43Z</time></trkpt><trkpt lat="45.21332937740075" lon="9.36593809999185"><ele>73.66666666666667</ele><time>2026-04-11T09:48:44Z</time></trkpt><trkpt lat="45.213308713465175" lon="9.366035666533728"><ele>73.83333333333334</ele><time>2026-04-11T09:48:45Z</time></trkpt><trkpt lat="45.21325422568535" lon="9.366140896690657"><ele>74.0</ele><time>2026-04-11T09:48:46Z</time></trkpt><trkpt lat="45.213167573336975" lon="9.3662414029416"><ele>74.0</ele><time>2026-04-11T09:48:47Z</time></trkpt><trkpt lat="45.213057379814465" lon="9.366348678909464"><ele>74.0</ele><time>2026-04-11T09:48:48Z</time></trkpt><trkpt lat="45.21294848114439" lon="9.366472379653858"><ele>74.0</ele><time>2026-04-11T09:48:49Z</time></trkpt><trkpt lat="45.21284896862837" lon="9.36658817379112"><ele>74.0</ele><time>2026-04-11T09:48:50Z</time></trkpt><trkpt lat="45.2127468168004" lon="9.36671880798028"><ele>73.66666666666667</ele><time>2026-04-11T09:48:51Z</time></trkpt><trkpt lat="45.212633760007485" lon="9.366853263946082"><ele>73.33333333333333</ele><time>2026-04-11T09:48:52Z</time></trkpt><trkpt lat="45.21251855707241" lon="9.367004169147721"><ele>73.0</ele><time>2026-04-11T09:48:53Z</time></trkpt><trkpt lat="45.212404131329826" lon="9.367168231243859"><ele>73.0</ele><time>2026-04-11T09:48:54Z</time></trkpt><trkpt lat="45.212300335456106" lon="9.367317818720704"><ele>73.0</ele><time>2026-04-11T09:48:55Z</time></trkpt><trkpt lat="45.21220252192855" lon="9.367462913529216"><ele>73.0</ele><time>2026-04-11T09:48:56Z</time></trkpt><trkpt lat="45.21211078482265" lon="9.367610796159127"><ele>73.0</ele><time>2026-04-11T09:48:57Z</time></trkpt><trkpt lat="45.21202659586054" lon="9.367750788984456"><ele>73.0</ele><time>2026-04-11T09:48:58Z</time></trkpt><trkpt lat="45.211953060148986" lon="9.367882565486148"><ele>73.0</ele><time>2026-04-11T09:48:59Z</time></trkpt><trkpt lat="45.21189089781247" lon="9.368008074853341"><ele>73.0</ele><time>2026-04-11T09:49:00Z</time></trkpt><trkpt lat="45.21183060344179" lon="9.368107237918112"><ele>73.0</ele><time>2026-04-11T09:49:01Z</time></trkpt><trkpt lat="45.21174382711328" lon="9.368185565367881"><ele>73.0</ele><time>2026-04-11T09:49:02Z</time></trkpt><trkpt lat="45.21164244930995" lon="9.3682718063971"><ele>73.0</ele><time>2026-04-11T09:49:03Z</time></trkpt><trkpt lat="45.211580722467005" lon="9.368403382967626"><ele>73.0</ele><time>2026-04-11T09:49:04Z</time></trkpt><trkpt lat="45.2115565707793" lon="9.368581413840642"><ele>73.0</ele><time>2026-04-11T09:49:05Z</time></trkpt><trkpt lat="45.211523499441775" lon="9.368782624590585"><ele>73.0</ele><time>2026-04-11T09:49:06Z</time></trkpt><trkpt lat="45.21144638679211" lon="9.368959052413885"><ele>73.25</ele><time>2026-04-11T09:49:07Z</time></trkpt><trkpt lat="45.21135189043832" lon="9.369125607095457"><ele>73.5</ele><time>2026-04-11T09:49:08Z</time></trkpt><trkpt lat="45.21126554729467" lon="9.36929132523136"><ele>73.75</ele><time>2026-04-11T09:49:09Z</time></trkpt><trkpt lat="45.21118072500271" lon="9.369470909614883"><ele>74.0</ele><time>2026-04-11T09:49:10Z</time></trkpt><trkpt lat="45.21109293128024" lon="9.369648724070272"><ele>73.66666666666667</ele><time>2026-04-11T09:49:11Z</time></trkpt><trkpt lat="45.21099739574748" lon="9.369822759678206"><ele>73.33333333333333</ele><time>2026-04-11T09:49:12Z</time></trkpt><trkpt lat="45.21089905870379" lon="9.37000081326924"><ele>73.0</ele><time>2026-04-11T09:49:13Z</time></trkpt><trkpt lat="45.210797193529" lon="9.37017649944762"><ele>73.0</ele><time>2026-04-11T09:49:14Z</time></trkpt><trkpt lat="45.2106929862617" lon="9.370347530524946"><ele>73.0</ele><time>2026-04-11T09:49:15Z</time></trkpt><trkpt lat="45.210592324841215" lon="9.370500985991589"><ele>73.0</ele><time>2026-04-11T09:49:16Z</time></trkpt><trkpt lat="45.21049971757251" lon="9.370642564877318"><ele>73.0</ele><time>2026-04-11T09:49:17Z</time></trkpt><trkpt lat="45.21041259412101" lon="9.370770606258471"><ele>72.8</ele><time>2026-04-11T09:49:18Z</time></trkpt><trkpt lat="45.21032674294497" lon="9.370889146194065"><ele>72.6</ele><time>2026-04-11T09:49:19Z</time></trkpt><trkpt lat="45.210250392129545" lon="9.37099337286541"><ele>72.4</ele><time>2026-04-11T09:49:20Z</time></trkpt><trkpt lat="45.21017895259381" lon="9.371097963510485"><ele>72.2</ele><time>2026-04-11T09:49:21Z</time></trkpt><trkpt lat="45.21011328794745" lon="9.371199604618349"><ele>72.0</ele><time>2026-04-11T09:49:22Z</time></trkpt><trkpt lat="45.21004634529468" lon="9.371299208138977"><ele>72.0</ele><time>2026-04-11T09:49:23Z</time></trkpt><trkpt lat="45.20997799607986" lon="9.371400006178739"><ele>72.0</ele><time>2026-04-11T09:49:24Z</time></trkpt><trkpt lat="45.20990269945652" lon="9.371502916477791"><ele>72.0</ele><time>2026-04-11T09:49:25Z</time></trkpt><trkpt lat="45.20983069296624" lon="9.371604994053998"><ele>72.0</ele><time>2026-04-11T09:49:26Z</time></trkpt><trkpt lat="45.209750009750984" lon="9.371721705914958"><ele>72.0</ele><time>2026-04-11T09:49:27Z</time></trkpt><trkpt lat="45.20966154606356" lon="9.371852966223567"><ele>72.5</ele><time>2026-04-11T09:49:28Z</time></trkpt><trkpt lat="45.209562787207716" lon="9.371993107748569"><ele>73.0</ele><time>2026-04-11T09:49:29Z</time></trkpt><trkpt lat="45.209459871302975" lon="9.372139037024523"><ele>73.5</ele><time>2026-04-11T09:49:29.999Z</time></trkpt><trkpt lat="45.20935501764115" lon="9.372293294729396"><ele>74.0</ele><time>2026-04-11T09:49:30.999Z</time></trkpt><trkpt lat="45.20924483134711" lon="9.372453862086408"><ele>73.66666666666667</ele><time>2026-04-11T09:49:31.999Z</time></trkpt><trkpt lat="45.20912407619852" lon="9.372622990936252"><ele>73.33333333333333</ele><time>2026-04-11T09:49:32.999Z</time></trkpt><trkpt lat="45.2089916310721" lon="9.372806067834956"><ele>73.0</ele><time>2026-04-11T09:49:33.999Z</time></trkpt><trkpt lat="45.2088672650324" lon="9.372981930009452"><ele>73.0</ele><time>2026-04-11T09:49:34.999Z</time></trkpt><trkpt lat="45.20875095360853" lon="9.373152509522823"><ele>73.0</ele><time>2026-04-11T09:49:35.999Z</time></trkpt><trkpt lat="45.208626000729694" lon="9.373320117199576"><ele>73.0</ele><time>2026-04-11T09:49:36.999Z</time></trkpt><trkpt lat="45.20849491396396" lon="9.373481629682596"><ele>73.0</ele><time>2026-04-11T09:49:37.999Z</time></trkpt><trkpt lat="45.20835942859482" lon="9.373637475089877"><ele>73.0</ele><time>2026-04-11T09:49:38.999Z</time></trkpt><trkpt lat="45.208217574296015" lon="9.37378897952767"><ele>73.0</ele><time>2026-04-11T09:49:39.999Z</time></trkpt><trkpt lat="45.2080703227069" lon="9.373939569527488"><ele>72.66666666666666</ele><time>2026-04-11T09:49:40.999Z</time></trkpt><trkpt lat="45.20791752681678" lon="9.374087594434332"><ele>72.33333333333333</ele><time>2026-04-11T09:49:41.999Z</time></trkpt><trkpt lat="45.20776083184024" lon="9.37423698900161"><ele>72.0</ele><time>2026-04-11T09:49:42.999Z</time></trkpt><trkpt lat="45.20760376315303" lon="9.374390961714472"><ele>72.0</ele><time>2026-04-11T09:49:43.999Z</time></trkpt><trkpt lat="45.20744483902407" lon="9.374554197930111"><ele>72.0</ele><time>2026-04-11T09:49:44.999Z</time></trkpt><trkpt lat="45.20728802287486" lon="9.374718786842127"><ele>72.0</ele><time>2026-04-11T09:49:45.999Z</time></trkpt><trkpt lat="45.20713676603312" lon="9.37487518829628"><ele>72.0</ele><time>2026-04-11T09:49:46.999Z</time></trkpt><trkpt lat="45.206995986928476" lon="9.375013550533499"><ele>72.0</ele><time>2026-04-11T09:49:47.999Z</time></trkpt><trkpt lat="45.206864664622195" lon="9.37514061461481"><ele>72.0</ele><time>2026-04-11T09:49:48.999Z</time></trkpt><trkpt lat="45.20673870245186" lon="9.375263319947738"><ele>72.0</ele><time>2026-04-11T09:49:49.999Z</time></trkpt><trkpt lat="45.206603399962965" lon="9.3754014107126"><ele>72.0</ele><time>2026-04-11T09:49:50.999Z</time></trkpt><trkpt lat="45.20645923663635" lon="9.375547155047887"><ele>72.0</ele><time>2026-04-11T09:49:51.999Z</time></trkpt><trkpt lat="45.206312026822765" lon="9.375691266663281"><ele>72.0</ele><time>2026-04-11T09:49:52.999Z</time></trkpt><trkpt lat="45.20617219082953" lon="9.375839230875735"><ele>72.0</ele><time>2026-04-11T09:49:53.999Z</time></trkpt><trkpt lat="45.20604037974568" lon="9.375966487393509"><ele>72.0</ele><time>2026-04-11T09:49:54.999Z</time></trkpt><trkpt lat="45.20592488616728" lon="9.376076926180405"><ele>72.0</ele><time>2026-04-11T09:49:55.999Z</time></trkpt><trkpt lat="45.20582510704041" lon="9.376180492251073"><ele>72.0</ele><time>2026-04-11T09:49:56.999Z</time></trkpt><trkpt lat="45.20573731541843" lon="9.376267063484361"><ele>72.0</ele><time>2026-04-11T09:49:57.999Z</time></trkpt><trkpt lat="45.205665612429144" lon="9.376330976250115"><ele>72.0</ele><time>2026-04-11T09:49:58.999Z</time></trkpt><trkpt lat="45.20560585897394" lon="9.376379484062817"><ele>72.0</ele><time>2026-04-11T09:49:59.999Z</time></trkpt><trkpt lat="45.20552259170612" lon="9.376418772026671"><ele>72.0</ele><time>2026-04-11T09:50:01.999Z</time></trkpt><trkpt lat="45.20545999674451" lon="9.376455768030093"><ele>72.0</ele><time>2026-04-11T09:50:04.999Z</time></trkpt><trkpt lat="45.20545831958671" lon="9.376567963293903"><ele>72.0</ele><time>2026-04-11T09:50:35.998Z</time></trkpt><trkpt lat="45.205559101293794" lon="9.37653237153213"><ele>72.0</ele><time>2026-04-11T09:50:37.998Z</time></trkpt><trkpt lat="45.20562292031556" lon="9.376448596246686"><ele>72.0</ele><time>2026-04-11T09:50:38.998Z</time></trkpt><trkpt lat="45.20570483514965" lon="9.376357884485637"><ele>72.0</ele><time>2026-04-11T09:50:39.998Z</time></trkpt><trkpt lat="45.20578526240126" lon="9.376278494969071"><ele>72.0</ele><time>2026-04-11T09:50:41Z</time></trkpt><trkpt lat="45.205881382494645" lon="9.376180325517893"><ele>72.0</ele><time>2026-04-11T09:50:42Z</time></trkpt><trkpt lat="45.20599774703633" lon="9.37605761463876"><ele>72.0</ele><time>2026-04-11T09:50:43Z</time></trkpt><trkpt lat="45.2061048656791" lon="9.375950195236843"><ele>72.0</ele><time>2026-04-11T09:50:44Z</time></trkpt><trkpt lat="45.20621441558915" lon="9.375843398040846"><ele>72.0</ele><time>2026-04-11T09:50:45Z</time></trkpt><trkpt lat="45.20632580724474" lon="9.375731997055128"><ele>72.0</ele><time>2026-04-11T09:50:46Z</time></trkpt><trkpt lat="45.20643576183685" lon="9.37561944626781"><ele>72.0</ele><time>2026-04-11T09:50:47Z</time></trkpt><trkpt lat="45.20654785962706" lon="9.375501961752258"><ele>72.0</ele><time>2026-04-11T09:50:48Z</time></trkpt><trkpt lat="45.206664935533595" lon="9.37538271449409"><ele>72.0</ele><time>2026-04-11T09:50:49Z</time></trkpt><trkpt lat="45.206790676402846" lon="9.375257229748392"><ele>72.0</ele><time>2026-04-11T09:50:50Z</time></trkpt><trkpt lat="45.20691851463864" lon="9.375131095832723"><ele>72.0</ele><time>2026-04-11T09:50:51Z</time></trkpt><trkpt lat="45.207058936196155" lon="9.374995238063686"><ele>72.0</ele><time>2026-04-11T09:50:52Z</time></trkpt><trkpt lat="45.207191163844534" lon="9.374862597015627"><ele>72.0</ele><time>2026-04-11T09:50:53Z</time></trkpt><trkpt lat="45.207334061107275" lon="9.374721757913939"><ele>72.0</ele><time>2026-04-11T09:50:54Z</time></trkpt><trkpt lat="45.20748257983816" lon="9.374566396835727"><ele>72.0</ele><time>2026-04-11T09:50:55Z</time></trkpt><trkpt lat="45.20763449530293" lon="9.374412496528775"><ele>72.0</ele><time>2026-04-11T09:50:56Z</time></trkpt><trkpt lat="45.20779234737266" lon="9.374253680907282"><ele>72.0</ele><time>2026-04-11T09:50:57Z</time></trkpt><trkpt lat="45.20795249641172" lon="9.374087291980704"><ele>72.0</ele><time>2026-04-11T09:50:58Z</time></trkpt><trkpt lat="45.20810941732264" lon="9.373927948533263"><ele>72.0</ele><time>2026-04-11T09:50:59Z</time></trkpt><trkpt lat="45.20826423748596" lon="9.373768021896018"><ele>72.0</ele><time>2026-04-11T09:51:00Z</time></trkpt><trkpt lat="45.20841572071896" lon="9.373601247076964"><ele>72.33333333333333</ele><time>2026-04-11T09:51:01Z</time></trkpt><trkpt lat="45.20856182435691" lon="9.373425671213921"><ele>72.66666666666666</ele><time>2026-04-11T09:51:02Z</time></trkpt><trkpt lat="45.2087039420437" lon="9.37324561590527"><ele>73.0</ele><time>2026-04-11T09:51:03Z</time></trkpt><trkpt lat="45.208838920024434" lon="9.373062207308392"><ele>73.0</ele><time>2026-04-11T09:51:04Z</time></trkpt><trkpt lat="45.20897263818926" lon="9.372876284425057"><ele>73.0</ele><time>2026-04-11T09:51:05Z</time></trkpt><trkpt lat="45.209102702242326" lon="9.372698928730285"><ele>73.0</ele><time>2026-04-11T09:51:06Z</time></trkpt><trkpt lat="45.20922843382281" lon="9.372525794778682"><ele>73.33333333333333</ele><time>2026-04-11T09:51:07Z</time></trkpt><trkpt lat="45.2093450174191" lon="9.372355670567346"><ele>73.66666666666667</ele><time>2026-04-11T09:51:08Z</time></trkpt><trkpt lat="45.20945497712185" lon="9.372192946105175"><ele>74.0</ele><time>2026-04-11T09:51:09Z</time></trkpt><trkpt lat="45.20956371730463" lon="9.372038634917185"><ele>74.0</ele><time>2026-04-11T09:51:10Z</time></trkpt><trkpt lat="45.20966727436448" lon="9.371886455637865"><ele>74.0</ele><time>2026-04-11T09:51:11Z</time></trkpt><trkpt lat="45.209770973563565" lon="9.371737034147728"><ele>74.0</ele><time>2026-04-11T09:51:12Z</time></trkpt><trkpt lat="45.20987387537832" lon="9.371593025375667"><ele>74.0</ele><time>2026-04-11T09:51:13Z</time></trkpt><trkpt lat="45.209960049348716" lon="9.371472386063095"><ele>73.60000000000001</ele><time>2026-04-11T09:51:14Z</time></trkpt><trkpt lat="45.210027972366234" lon="9.37137078929285"><ele>73.2</ele><time>2026-04-11T09:51:15Z</time></trkpt><trkpt lat="45.210080410016246" lon="9.371292356043265"><ele>72.80000000000001</ele><time>2026-04-11T09:51:16Z</time></trkpt><trkpt lat="45.21018545277451" lon="9.371250483661457"><ele>72.4</ele><time>2026-04-11T09:51:18Z</time></trkpt><trkpt lat="45.21027631747516" lon="9.371361938719291"><ele>72.0</ele><time>2026-04-11T09:51:20Z</time></trkpt><trkpt lat="45.210310602255596" lon="9.37148511392039"><ele>72.0</ele><time>2026-04-11T09:51:21Z</time></trkpt><trkpt lat="45.21035942673142" lon="9.371617342876968"><ele>72.0</ele><time>2026-04-11T09:51:22Z</time></trkpt><trkpt lat="45.2104118830196" lon="9.371749616558464"><ele>72.0</ele><time>2026-04-11T09:51:23Z</time></trkpt><trkpt lat="45.21046477187026" lon="9.371881621207836"><ele>72.0</ele><time>2026-04-11T09:51:24Z</time></trkpt><trkpt lat="45.21052157786246" lon="9.372028927897164"><ele>72.0</ele><time>2026-04-11T09:51:25Z</time></trkpt><trkpt lat="45.21058084267221" lon="9.372189214450907"><ele>72.25</ele><time>2026-04-11T09:51:26Z</time></trkpt><trkpt lat="45.21064501020502" lon="9.372358058255593"><ele>72.5</ele><time>2026-04-11T09:51:27Z</time></trkpt><trkpt lat="45.21070686376186" lon="9.372543390814675"><ele>72.75</ele><time>2026-04-11T09:51:28Z</time></trkpt><trkpt lat="45.21075864246461" lon="9.372732777653148"><ele>73.0</ele><time>2026-04-11T09:51:28.999Z</time></trkpt><trkpt lat="45.21079964266205" lon="9.372916967342189"><ele>72.25</ele><time>2026-04-11T09:51:29.999Z</time></trkpt><trkpt lat="45.210845322539356" lon="9.373106509565924"><ele>71.5</ele><time>2026-04-11T09:51:30.999Z</time></trkpt><trkpt lat="45.2108933370189" lon="9.373300800335347"><ele>70.75</ele><time>2026-04-11T09:51:31.999Z</time></trkpt><trkpt lat="45.21094153042218" lon="9.373494847913232"><ele>70.0</ele><time>2026-04-11T09:51:32.999Z</time></trkpt><trkpt lat="45.21099028347611" lon="9.373693633499359"><ele>70.66666666666666</ele><time>2026-04-11T09:51:33.999Z</time></trkpt><trkpt lat="45.211043090597265" lon="9.373896819615217"><ele>71.33333333333333</ele><time>2026-04-11T09:51:34.999Z</time></trkpt><trkpt lat="45.21110017788394" lon="9.374104678004349"><ele>72.0</ele><time>2026-04-11T09:51:35.999Z</time></trkpt><trkpt lat="45.21115907971022" lon="9.374315512732215"><ele>72.0</ele><time>2026-04-11T09:51:36.999Z</time></trkpt><trkpt lat="45.21121822053937" lon="9.374533095282798"><ele>72.0</ele><time>2026-04-11T09:51:37.999Z</time></trkpt><trkpt lat="45.21127649006176" lon="9.374748719518163"><ele>72.0</ele><time>2026-04-11T09:51:38.999Z</time></trkpt><trkpt lat="45.21133380886922" lon="9.374965867135906"><ele>72.33333333333333</ele><time>2026-04-11T09:51:39.999Z</time></trkpt><trkpt lat="45.21138805440244" lon="9.375180618924439"><ele>72.66666666666666</ele><time>2026-04-11T09:51:40.999Z</time></trkpt><trkpt lat="45.21144615204623" lon="9.375400250361857"><ele>73.0</ele><time>2026-04-11T09:51:41.999Z</time></trkpt><trkpt lat="45.21150131564801" lon="9.375616177161417"><ele>73.0</ele><time>2026-04-11T09:51:42.999Z</time></trkpt><trkpt lat="45.21155777437396" lon="9.375832344509217"><ele>73.0</ele><time>2026-04-11T09:51:43.999Z</time></trkpt><trkpt lat="45.21161583638277" lon="9.37605845557083"><ele>73.0</ele><time>2026-04-11T09:51:44.999Z</time></trkpt><trkpt lat="45.211674772501105" lon="9.376287471028004"><ele>72.33333333333333</ele><time>2026-04-11T09:51:45.999Z</time></trkpt><trkpt lat="45.21173581563054" lon="9.376521782557889"><ele>71.66666666666667</ele><time>2026-04-11T09:51:46.999Z</time></trkpt><trkpt lat="45.21179474401563" lon="9.376750036980221"><ele>71.0</ele><time>2026-04-11T09:51:47.999Z</time></trkpt><trkpt lat="45.21185342036655" lon="9.376957780670281"><ele>71.0</ele><time>2026-04-11T09:51:48.999Z</time></trkpt><trkpt lat="45.21190658613563" lon="9.377169317221584"><ele>71.0</ele><time>2026-04-11T09:51:49.999Z</time></trkpt><trkpt lat="45.211965197208464" lon="9.377379202273218"><ele>71.0</ele><time>2026-04-11T09:51:50.999Z</time></trkpt><trkpt lat="45.21202140378154" lon="9.377561876200895"><ele>71.2</ele><time>2026-04-11T09:51:51.999Z</time></trkpt><trkpt lat="45.21206252750559" lon="9.377723083571654"><ele>71.39999999999999</ele><time>2026-04-11T09:51:52.999Z</time></trkpt><trkpt lat="45.212103579678924" lon="9.377877634733863"><ele>71.6</ele><time>2026-04-11T09:51:53.999Z</time></trkpt><trkpt lat="45.212139649599386" lon="9.378010089809035"><ele>71.8</ele><time>2026-04-11T09:51:54.999Z</time></trkpt><trkpt lat="45.21216504991645" lon="9.378124008813774"><ele>72.0</ele><time>2026-04-11T09:51:55.999Z</time></trkpt><trkpt lat="45.2121753784491" lon="9.378225380712962"><ele>72.0</ele><time>2026-04-11T09:51:56.999Z</time></trkpt><trkpt lat="45.21217241160234" lon="9.37831781316004"><ele>72.0</ele><time>2026-04-11T09:51:57.999Z</time></trkpt><trkpt lat="45.21211837786256" lon="9.378469281585177"><ele>72.0</ele><time>2026-04-11T09:51:59.999Z</time></trkpt><trkpt lat="45.21205210253245" lon="9.378534432546333"><ele>72.0</ele><time>2026-04-11T09:52:00.999Z</time></trkpt><trkpt lat="45.2119637857967" lon="9.37858677202334"><ele>72.0</ele><time>2026-04-11T09:52:01.999Z</time></trkpt><trkpt lat="45.21186294016332" lon="9.378657725490534"><ele>72.0</ele><time>2026-04-11T09:52:02.999Z</time></trkpt><trkpt lat="45.211763031533735" lon="9.378733019214682"><ele>72.0</ele><time>2026-04-11T09:52:03.999Z</time></trkpt><trkpt lat="45.21165946117405" lon="9.37880337542308"><ele>72.0</ele><time>2026-04-11T09:52:04.999Z</time></trkpt><trkpt lat="45.211565009459925" lon="9.378875624240813"><ele>72.0</ele><time>2026-04-11T09:52:05.999Z</time></trkpt><trkpt lat="45.211476445824665" lon="9.378937032726437"><ele>72.0</ele><time>2026-04-11T09:52:06.999Z</time></trkpt><trkpt lat="45.21138740181155" lon="9.378992971245985"><ele>72.2</ele><time>2026-04-11T09:52:07.999Z</time></trkpt><trkpt lat="45.21130738230817" lon="9.379043841754715"><ele>72.4</ele><time>2026-04-11T09:52:08.999Z</time></trkpt><trkpt lat="45.211238998000745" lon="9.379078328164912"><ele>72.6</ele><time>2026-04-11T09:52:09.999Z</time></trkpt><trkpt lat="45.21117592843835" lon="9.379116471062655"><ele>72.8</ele><time>2026-04-11T09:52:10.999Z</time></trkpt><trkpt lat="45.21108697912694" lon="9.379227734571549"><ele>73.0</ele><time>2026-04-11T09:52:12.999Z</time></trkpt><trkpt lat="45.21107049290138" lon="9.379409761014827"><ele>73.0</ele><time>2026-04-11T09:52:14.999Z</time></trkpt><trkpt lat="45.21109151663245" lon="9.379504543462344"><ele>73.0</ele><time>2026-04-11T09:52:15.999Z</time></trkpt><trkpt lat="45.211115850119555" lon="9.379622935818283"><ele>73.0</ele><time>2026-04-11T09:52:16.999Z</time></trkpt><trkpt lat="45.21113463936767" lon="9.37974851553955"><ele>73.0</ele><time>2026-04-11T09:52:17.999Z</time></trkpt><trkpt lat="45.21115593805831" lon="9.379873226405158"><ele>73.0</ele><time>2026-04-11T09:52:18.999Z</time></trkpt><trkpt lat="45.21118471146249" lon="9.379984537915453"><ele>73.0</ele><time>2026-04-11T09:52:19.999Z</time></trkpt><trkpt lat="45.211218719841554" lon="9.380088121618655"><ele>73.0</ele><time>2026-04-11T09:52:20.999Z</time></trkpt><trkpt lat="45.211250638560884" lon="9.3801998705522"><ele>73.0</ele><time>2026-04-11T09:52:21.999Z</time></trkpt><trkpt lat="45.21127912375021" lon="9.380312195760734"><ele>73.0</ele><time>2026-04-11T09:52:22.999Z</time></trkpt><trkpt lat="45.211311088990996" lon="9.380432329739078"><ele>73.0</ele><time>2026-04-11T09:52:23.999Z</time></trkpt><trkpt lat="45.21133842402763" lon="9.380559759141784"><ele>73.0</ele><time>2026-04-11T09:52:24.999Z</time></trkpt><trkpt lat="45.211353987108275" lon="9.380650005121847"><ele>73.0</ele><time>2026-04-11T09:52:25.999Z</time></trkpt><trkpt lat="45.211380950275" lon="9.380771181216325"><ele>73.0</ele><time>2026-04-11T09:52:26.999Z</time></trkpt><trkpt lat="45.21141226103175" lon="9.380891658673184"><ele>73.0</ele><time>2026-04-11T09:52:27.999Z</time></trkpt><trkpt lat="45.2114378975974" lon="9.381017315927041"><ele>73.0</ele><time>2026-04-11T09:52:28.999Z</time></trkpt><trkpt lat="45.21146211914976" lon="9.3811480229616"><ele>73.0</ele><time>2026-04-11T09:52:29.999Z</time></trkpt><trkpt lat="45.21148215125896" lon="9.381285567427232"><ele>73.0</ele><time>2026-04-11T09:52:30.998Z</time></trkpt><trkpt lat="45.21149275886503" lon="9.381420751422997"><ele>73.0</ele><time>2026-04-11T09:52:31.998Z</time></trkpt><trkpt lat="45.21149710723074" lon="9.381561817250143"><ele>73.0</ele><time>2026-04-11T09:52:32.998Z</time></trkpt><trkpt lat="45.21149548689385" lon="9.381708234360502"><ele>73.0</ele><time>2026-04-11T09:52:33.998Z</time></trkpt><trkpt lat="45.2114860175513" lon="9.381856606598951"><ele>73.0</ele><time>2026-04-11T09:52:34.998Z</time></trkpt><trkpt lat="45.21147163892584" lon="9.382009193422311"><ele>73.0</ele><time>2026-04-11T09:52:35.998Z</time></trkpt><trkpt lat="45.21144561949697" lon="9.382157699734998"><ele>73.2</ele><time>2026-04-11T09:52:36.998Z</time></trkpt><trkpt lat="45.211436343176764" lon="9.382309503095579"><ele>73.4</ele><time>2026-04-11T09:52:37.998Z</time></trkpt><trkpt lat="45.21143684020468" lon="9.382433664263646"><ele>73.60000000000001</ele><time>2026-04-11T09:52:38.998Z</time></trkpt><trkpt lat="45.211456532566984" lon="9.382544737908935"><ele>73.8</ele><time>2026-04-11T09:52:39.998Z</time></trkpt><trkpt lat="45.21149887391199" lon="9.382675554861747"><ele>74.0</ele><time>2026-04-11T09:52:40.998Z</time></trkpt><trkpt lat="45.21156028389069" lon="9.38281265176511"><ele>74.0</ele><time>2026-04-11T09:52:41.998Z</time></trkpt><trkpt lat="45.21162468213015" lon="9.382957135283688"><ele>74.0</ele><time>2026-04-11T09:52:42.998Z</time></trkpt><trkpt lat="45.2116929848148" lon="9.383118408451935"><ele>74.0</ele><time>2026-04-11T09:52:43.998Z</time></trkpt><trkpt lat="45.21175296597647" lon="9.383270433371532"><ele>74.0</ele><time>2026-04-11T09:52:44.998Z</time></trkpt><trkpt lat="45.21181989759658" lon="9.383445666464379"><ele>74.0</ele><time>2026-04-11T09:52:45.998Z</time></trkpt><trkpt lat="45.211887368722074" lon="9.383628051595865"><ele>74.0</ele><time>2026-04-11T09:52:47Z</time></trkpt><trkpt lat="45.2119599430773" lon="9.383821374853898"><ele>74.0</ele><time>2026-04-11T09:52:48Z</time></trkpt><trkpt lat="45.21203858108423" lon="9.384035171397972"><ele>74.0</ele><time>2026-04-11T09:52:49Z</time></trkpt><trkpt lat="45.212108993267535" lon="9.384244169658768"><ele>74.0</ele><time>2026-04-11T09:52:50Z</time></trkpt><trkpt lat="45.21218468692113" lon="9.38446168284304"><ele>74.0</ele><time>2026-04-11T09:52:51Z</time></trkpt><trkpt lat="45.21225152166311" lon="9.3846649808786"><ele>74.0</ele><time>2026-04-11T09:52:52Z</time></trkpt><trkpt lat="45.212321858238035" lon="9.384839293647804"><ele>74.0</ele><time>2026-04-11T09:52:53Z</time></trkpt><trkpt lat="45.212384864343086" lon="9.385017620459472"><ele>74.0</ele><time>2026-04-11T09:52:54Z</time></trkpt><trkpt lat="45.212435249448625" lon="9.38518081036213"><ele>74.0</ele><time>2026-04-11T09:52:55Z</time></trkpt><trkpt lat="45.212478901453586" lon="9.3853205296116"><ele>73.75</ele><time>2026-04-11T09:52:56Z</time></trkpt><trkpt lat="45.21253613600532" lon="9.385475796234477"><ele>73.5</ele><time>2026-04-11T09:52:57Z</time></trkpt><trkpt lat="45.21260148191402" lon="9.38566331927317"><ele>73.25</ele><time>2026-04-11T09:52:58Z</time></trkpt><trkpt lat="45.21266550140827" lon="9.385846795140262"><ele>73.0</ele><time>2026-04-11T09:52:59Z</time></trkpt><trkpt lat="45.21272810631664" lon="9.386033530630723"><ele>73.0</ele><time>2026-04-11T09:53:00Z</time></trkpt><trkpt lat="45.212787249064355" lon="9.386216862404853"><ele>73.0</ele><time>2026-04-11T09:53:01Z</time></trkpt><trkpt lat="45.21284006951954" lon="9.386383321425741"><ele>73.0</ele><time>2026-04-11T09:53:02Z</time></trkpt><trkpt lat="45.21288825101319" lon="9.386540743225247"><ele>73.0</ele><time>2026-04-11T09:53:03Z</time></trkpt><trkpt lat="45.21293638788133" lon="9.386686378347305"><ele>73.25</ele><time>2026-04-11T09:53:04Z</time></trkpt><trkpt lat="45.212988053370054" lon="9.38684419377944"><ele>73.5</ele><time>2026-04-11T09:53:05Z</time></trkpt><trkpt lat="45.21304173720852" lon="9.387012597424032"><ele>73.75</ele><time>2026-04-11T09:53:06Z</time></trkpt><trkpt lat="45.21310076279348" lon="9.387195158046763"><ele>74.0</ele><time>2026-04-11T09:53:07Z</time></trkpt><trkpt lat="45.213161933168344" lon="9.387383004438488"><ele>74.0</ele><time>2026-04-11T09:53:08Z</time></trkpt><trkpt lat="45.21322156412501" lon="9.3875746244279"><ele>74.0</ele><time>2026-04-11T09:53:09Z</time></trkpt><trkpt lat="45.213280038811426" lon="9.387772179575185"><ele>74.0</ele><time>2026-04-11T09:53:10Z</time></trkpt><trkpt lat="45.21334426299446" lon="9.387969313482557"><ele>73.75</ele><time>2026-04-11T09:53:11Z</time></trkpt><trkpt lat="45.21340860107231" lon="9.388161410350609"><ele>73.5</ele><time>2026-04-11T09:53:12Z</time></trkpt><trkpt lat="45.21346987900373" lon="9.388348984181679"><ele>73.25</ele><time>2026-04-11T09:53:13Z</time></trkpt><trkpt lat="45.21352485599576" lon="9.38852315396094"><ele>73.0</ele><time>2026-04-11T09:53:14Z</time></trkpt><trkpt lat="45.21357924135635" lon="9.388695524988442"><ele>72.8</ele><time>2026-04-11T09:53:15Z</time></trkpt><trkpt lat="45.213629727643436" lon="9.388851966082175"><ele>72.6</ele><time>2026-04-11T09:53:16Z</time></trkpt><trkpt lat="45.21367349667026" lon="9.388980782385497"><ele>72.4</ele><time>2026-04-11T09:53:17Z</time></trkpt><trkpt lat="45.213706990666275" lon="9.38908724647434"><ele>72.2</ele><time>2026-04-11T09:53:18Z</time></trkpt><trkpt lat="45.213736327091205" lon="9.38917580909869"><ele>72.0</ele><time>2026-04-11T09:53:19Z</time></trkpt><trkpt lat="45.213762560458974" lon="9.389322238541135"><ele>72.0</ele><time>2026-04-11T09:53:21Z</time></trkpt><trkpt lat="45.213713069143196" lon="9.38943926513307"><ele>72.0</ele><time>2026-04-11T09:53:23Z</time></trkpt><trkpt lat="45.21365193590408" lon="9.389479327685134"><ele>72.0</ele><time>2026-04-11T09:53:24Z</time></trkpt><trkpt lat="45.21356370310637" lon="9.389530270259604"><ele>72.0</ele><time>2026-04-11T09:53:25Z</time></trkpt><trkpt lat="45.21345952544299" lon="9.389571792554705"><ele>72.0</ele><time>2026-04-11T09:53:26Z</time></trkpt><trkpt lat="45.2133379989296" lon="9.389639975818925"><ele>72.0</ele><time>2026-04-11T09:53:26.999Z</time></trkpt><trkpt lat="45.21320571829965" lon="9.389706784519129"><ele>72.0</ele><time>2026-04-11T09:53:27.999Z</time></trkpt><trkpt lat="45.21306638993301" lon="9.389784041695517"><ele>72.0</ele><time>2026-04-11T09:53:28.999Z</time></trkpt><trkpt lat="45.21292696591097" lon="9.389863916433628"><ele>72.0</ele><time>2026-04-11T09:53:29.999Z</time></trkpt><trkpt lat="45.21279196380772" lon="9.389933266270175"><ele>72.5</ele><time>2026-04-11T09:53:30.999Z</time></trkpt><trkpt lat="45.21265741581684" lon="9.39001208389582"><ele>73.0</ele><time>2026-04-11T09:53:31.999Z</time></trkpt><trkpt lat="45.21253167242535" lon="9.390082962966462"><ele>73.5</ele><time>2026-04-11T09:53:32.999Z</time></trkpt><trkpt lat="45.21239244243114" lon="9.390162534409372"><ele>74.0</ele><time>2026-04-11T09:53:33.999Z</time></trkpt><trkpt lat="45.21225975600549" lon="9.39023622615112"><ele>74.0</ele><time>2026-04-11T09:53:34.999Z</time></trkpt><trkpt lat="45.212129554325706" lon="9.39030909921519"><ele>74.0</ele><time>2026-04-11T09:53:35.999Z</time></trkpt><trkpt lat="45.21200013251277" lon="9.39038700378539"><ele>74.0</ele><time>2026-04-11T09:53:36.999Z</time></trkpt><trkpt lat="45.21186068765195" lon="9.390460348606966"><ele>74.0</ele><time>2026-04-11T09:53:37.999Z</time></trkpt><trkpt lat="45.21171655334621" lon="9.390544126734925"><ele>74.0</ele><time>2026-04-11T09:53:38.999Z</time></trkpt><trkpt lat="45.211582624963924" lon="9.390622017525402"><ele>74.0</ele><time>2026-04-11T09:53:39.999Z</time></trkpt><trkpt lat="45.21144297903448" lon="9.39069515585776"><ele>74.0</ele><time>2026-04-11T09:53:40.999Z</time></trkpt><trkpt lat="45.211305688579465" lon="9.39077424453427"><ele>74.0</ele><time>2026-04-11T09:53:41.999Z</time></trkpt><trkpt lat="45.21117058737096" lon="9.390855095859362"><ele>74.0</ele><time>2026-04-11T09:53:42.999Z</time></trkpt><trkpt lat="45.211033388393375" lon="9.390937167308705"><ele>74.0</ele><time>2026-04-11T09:53:43.999Z</time></trkpt><trkpt lat="45.21089550465916" lon="9.391017977586548"><ele>74.0</ele><time>2026-04-11T09:53:44.999Z</time></trkpt><trkpt lat="45.210756466618626" lon="9.391096039625813"><ele>74.0</ele><time>2026-04-11T09:53:45.999Z</time></trkpt><trkpt lat="45.21062421059411" lon="9.391178621159023"><ele>74.0</ele><time>2026-04-11T09:53:46.999Z</time></trkpt><trkpt lat="45.21049426931416" lon="9.391250787059766"><ele>74.0</ele><time>2026-04-11T09:53:47.999Z</time></trkpt><trkpt lat="45.210377957913344" lon="9.391321098436686"><ele>74.0</ele><time>2026-04-11T09:53:48.999Z</time></trkpt><trkpt lat="45.21029577380861" lon="9.391368839540856"><ele>74.0</ele><time>2026-04-11T09:53:49.999Z</time></trkpt><trkpt lat="45.210233313017746" lon="9.391409359312647"><ele>74.0</ele><time>2026-04-11T09:53:50.999Z</time></trkpt><trkpt lat="45.210171117746334" lon="9.391506880971642"><ele>74.0</ele><time>2026-04-11T09:53:52.999Z</time></trkpt><trkpt lat="45.21017899120075" lon="9.391646205757898"><ele>74.0</ele><time>2026-04-11T09:53:54.999Z</time></trkpt><trkpt lat="45.210208245652446" lon="9.391725757921478"><ele>74.0</ele><time>2026-04-11T09:53:55.999Z</time></trkpt><trkpt lat="45.210243051066136" lon="9.391844487536057"><ele>74.0</ele><time>2026-04-11T09:53:56.999Z</time></trkpt><trkpt lat="45.21027883565645" lon="9.391971549469218"><ele>74.0</ele><time>2026-04-11T09:53:57.999Z</time></trkpt><trkpt lat="45.21031761365402" lon="9.3921164375754"><ele>74.0</ele><time>2026-04-11T09:53:58.999Z</time></trkpt><trkpt lat="45.210353678127454" lon="9.392266029390884"><ele>74.0</ele><time>2026-04-11T09:53:59.999Z</time></trkpt><trkpt lat="45.21039114774334" lon="9.392425274279086"><ele>74.0</ele><time>2026-04-11T09:54:00.999Z</time></trkpt><trkpt lat="45.210428570927604" lon="9.392575406153943"><ele>74.0</ele><time>2026-04-11T09:54:01.999Z</time></trkpt><trkpt lat="45.2104628014667" lon="9.392725915310967"><ele>74.0</ele><time>2026-04-11T09:54:02.999Z</time></trkpt><trkpt lat="45.210493411281526" lon="9.392865317099321"><ele>74.0</ele><time>2026-04-11T09:54:03.999Z</time></trkpt><trkpt lat="45.210527192241095" lon="9.393001497617607"><ele>74.0</ele><time>2026-04-11T09:54:04.999Z</time></trkpt><trkpt lat="45.21056263462864" lon="9.393124047618176"><ele>74.0</ele><time>2026-04-11T09:54:05.999Z</time></trkpt><trkpt lat="45.21058746654169" lon="9.393217455668676"><ele>74.0</ele><time>2026-04-11T09:54:06.999Z</time></trkpt><trkpt lat="45.21060932307483" lon="9.393303376989904"><ele>74.0</ele><time>2026-04-11T09:54:07.999Z</time></trkpt><trkpt lat="45.21063207352496" lon="9.393432235549872"><ele>74.16666666666667</ele><time>2026-04-11T09:54:09.999Z</time></trkpt><trkpt lat="45.21060579168718" lon="9.393523862669191"><ele>74.33333333333334</ele><time>2026-04-11T09:54:11.999Z</time></trkpt><trkpt lat="45.21056722153457" lon="9.393632040128756"><ele>74.5</ele><time>2026-04-11T09:54:13.999Z</time></trkpt><trkpt lat="45.210591495260466" lon="9.393780659087339"><ele>74.66666666666667</ele><time>2026-04-11T09:54:15.999Z</time></trkpt><trkpt lat="45.210621051659736" lon="9.393876242237882"><ele>74.83333333333333</ele><time>2026-04-11T09:54:16.999Z</time></trkpt><trkpt lat="45.210652395896304" lon="9.393965978617732"><ele>75.0</ele><time>2026-04-11T09:54:17.999Z</time></trkpt><trkpt lat="45.21068471618378" lon="9.394073977831196"><ele>75.0</ele><time>2026-04-11T09:54:18.999Z</time></trkpt><trkpt lat="45.21071694405836" lon="9.394182860364209"><ele>75.0</ele><time>2026-04-11T09:54:19.999Z</time></trkpt><trkpt lat="45.21074228495795" lon="9.394270800316944"><ele>75.0</ele><time>2026-04-11T09:54:20.999Z</time></trkpt><trkpt lat="45.21076765417732" lon="9.394355075399892"><ele>75.0</ele><time>2026-04-11T09:54:21.999Z</time></trkpt><trkpt lat="45.210821577679305" lon="9.394526187357238"><ele>75.0</ele><time>2026-04-11T09:54:23.999Z</time></trkpt><trkpt lat="45.21084273628075" lon="9.394623772872436"><ele>75.0</ele><time>2026-04-11T09:54:24.999Z</time></trkpt><trkpt lat="45.21086791712289" lon="9.394725997638787"><ele>75.0</ele><time>2026-04-11T09:54:25.999Z</time></trkpt><trkpt lat="45.21089843466868" lon="9.394830100898066"><ele>75.0</ele><time>2026-04-11T09:54:26.999Z</time></trkpt><trkpt lat="45.21092052261199" lon="9.394924509678683"><ele>75.0</ele><time>2026-04-11T09:54:27.999Z</time></trkpt><trkpt lat="45.21094607299045" lon="9.39502603682405"><ele>75.0</ele><time>2026-04-11T09:54:28.999Z</time></trkpt><trkpt lat="45.21097287158954" lon="9.395128342754226"><ele>75.0</ele><time>2026-04-11T09:54:29.999Z</time></trkpt><trkpt lat="45.210992619074325" lon="9.395243770254133"><ele>75.0</ele><time>2026-04-11T09:54:30.998Z</time></trkpt><trkpt lat="45.21100810979111" lon="9.395358283356625"><ele>75.0</ele><time>2026-04-11T09:54:31.998Z</time></trkpt><trkpt lat="45.21101649064216" lon="9.395482106391874"><ele>75.0</ele><time>2026-04-11T09:54:32.998Z</time></trkpt><trkpt lat="45.21102930301405" lon="9.395609246175827"><ele>75.0</ele><time>2026-04-11T09:54:33.998Z</time></trkpt><trkpt lat="45.21104791812134" lon="9.395725570158326"><ele>75.0</ele><time>2026-04-11T09:54:34.998Z</time></trkpt><trkpt lat="45.21107293689035" lon="9.39584864125027"><ele>75.0</ele><time>2026-04-11T09:54:35.998Z</time></trkpt><trkpt lat="45.211106832574146" lon="9.3959838818407"><ele>74.5</ele><time>2026-04-11T09:54:36.998Z</time></trkpt><trkpt lat="45.21116019551315" lon="9.396143321296291"><ele>74.0</ele><time>2026-04-11T09:54:37.998Z</time></trkpt><trkpt lat="45.211237678353626" lon="9.396344009025634"><ele>73.5</ele><time>2026-04-11T09:54:38.998Z</time></trkpt><trkpt lat="45.21129555921502" lon="9.396532243793878"><ele>73.0</ele><time>2026-04-11T09:54:39.998Z</time></trkpt><trkpt lat="45.21135265545283" lon="9.396710903844841"><ele>72.75</ele><time>2026-04-11T09:54:40.998Z</time></trkpt><trkpt lat="45.211410276573865" lon="9.396875465862337"><ele>72.5</ele><time>2026-04-11T09:54:41.998Z</time></trkpt><trkpt lat="45.2114726560052" lon="9.397025075347846"><ele>72.25</ele><time>2026-04-11T09:54:42.998Z</time></trkpt><trkpt lat="45.21152413590573" lon="9.3971604740957"><ele>72.0</ele><time>2026-04-11T09:54:43.998Z</time></trkpt><trkpt lat="45.21157195986199" lon="9.397312220506265"><ele>72.0</ele><time>2026-04-11T09:54:44.998Z</time></trkpt><trkpt lat="45.2116316725335" lon="9.3974828973406"><ele>72.0</ele><time>2026-04-11T09:54:45.998Z</time></trkpt><trkpt lat="45.21170092245232" lon="9.397656725090808"><ele>72.0</ele><time>2026-04-11T09:54:46.998Z</time></trkpt><trkpt lat="45.21176015121435" lon="9.397814962587821"><ele>72.0</ele><time>2026-04-11T09:54:47.998Z</time></trkpt><trkpt lat="45.21182190891868" lon="9.397978053691551"><ele>72.25</ele><time>2026-04-11T09:54:48.998Z</time></trkpt><trkpt lat="45.21188321544389" lon="9.39815443832433"><ele>72.5</ele><time>2026-04-11T09:54:49.998Z</time></trkpt><trkpt lat="45.211949123483336" lon="9.398338047690908"><ele>72.75</ele><time>2026-04-11T09:54:50.998Z</time></trkpt><trkpt lat="45.212009998559886" lon="9.398513622071736"><ele>73.0</ele><time>2026-04-11T09:54:51.998Z</time></trkpt><trkpt lat="45.21206985274024" lon="9.398690139443897"><ele>72.5</ele><time>2026-04-11T09:54:53Z</time></trkpt><trkpt lat="45.21212485978701" lon="9.398858081397947"><ele>72.0</ele><time>2026-04-11T09:54:54Z</time></trkpt><trkpt lat="45.21217435122406" lon="9.39901849251727"><ele>71.5</ele><time>2026-04-11T09:54:55Z</time></trkpt><trkpt lat="45.21221848479502" lon="9.39917193308239"><ele>71.0</ele><time>2026-04-11T09:54:56Z</time></trkpt><trkpt lat="45.21226791682056" lon="9.399334242849758"><ele>71.0</ele><time>2026-04-11T09:54:57Z</time></trkpt><trkpt lat="45.21231530193661" lon="9.399500252675525"><ele>71.0</ele><time>2026-04-11T09:54:58Z</time></trkpt><trkpt lat="45.21235924316051" lon="9.399649382758277"><ele>71.0</ele><time>2026-04-11T09:54:59Z</time></trkpt><trkpt lat="45.21241085923171" lon="9.399811794653708"><ele>71.0</ele><time>2026-04-11T09:55:00Z</time></trkpt><trkpt lat="45.21245666000561" lon="9.399972756477606"><ele>71.0</ele><time>2026-04-11T09:55:01Z</time></trkpt><trkpt lat="45.2125032601198" lon="9.400126422436157"><ele>71.0</ele><time>2026-04-11T09:55:02Z</time></trkpt><trkpt lat="45.212545534965585" lon="9.400262980642934"><ele>71.0</ele><time>2026-04-11T09:55:03Z</time></trkpt><trkpt lat="45.21258104220652" lon="9.400385823431476"><ele>71.0</ele><time>2026-04-11T09:55:04Z</time></trkpt><trkpt lat="45.21262114937278" lon="9.400508016673154"><ele>71.0</ele><time>2026-04-11T09:55:05Z</time></trkpt><trkpt lat="45.212655947278854" lon="9.400613826977802"><ele>71.0</ele><time>2026-04-11T09:55:06Z</time></trkpt><trkpt lat="45.2126812223056" lon="9.400722398655951"><ele>71.0</ele><time>2026-04-11T09:55:07Z</time></trkpt><trkpt lat="45.212696310382036" lon="9.40086109506672"><ele>71.0</ele><time>2026-04-11T09:55:08Z</time></trkpt><trkpt lat="45.2127373610963" lon="9.401001908445123"><ele>71.0</ele><time>2026-04-11T09:55:09Z</time></trkpt><trkpt lat="45.21274911089506" lon="9.401155126820909"><ele>71.0</ele><time>2026-04-11T09:55:10Z</time></trkpt><trkpt lat="45.21276628981523" lon="9.401324067205934"><ele>71.0</ele><time>2026-04-11T09:55:11Z</time></trkpt><trkpt lat="45.21278148520929" lon="9.401470610658246"><ele>71.0</ele><time>2026-04-11T09:55:12Z</time></trkpt><trkpt lat="45.2127950883153" lon="9.40161505699724"><ele>71.0</ele><time>2026-04-11T09:55:13Z</time></trkpt><trkpt lat="45.212809380964764" lon="9.401745184739005"><ele>71.0</ele><time>2026-04-11T09:55:14Z</time></trkpt><trkpt lat="45.21282487461509" lon="9.401869750048373"><ele>71.0</ele><time>2026-04-11T09:55:15Z</time></trkpt><trkpt lat="45.212836278430466" lon="9.401975248551995"><ele>71.0</ele><time>2026-04-11T09:55:16Z</time></trkpt><trkpt lat="45.21285444722305" lon="9.402155215045102"><ele>71.0</ele><time>2026-04-11T09:55:18Z</time></trkpt><trkpt lat="45.212872504487784" lon="9.402268406778552"><ele>71.0</ele><time>2026-04-11T09:55:20Z</time></trkpt><trkpt lat="45.212787455272455" lon="9.402351916758583"><ele>71.0</ele><time>2026-04-11T09:55:24Z</time></trkpt><trkpt lat="45.212708107996924" lon="9.402354478282282"><ele>71.0</ele><time>2026-04-11T09:55:25Z</time></trkpt><trkpt lat="45.21261730353841" lon="9.402362388222777"><ele>71.39999999999999</ele><time>2026-04-11T09:55:26Z</time></trkpt><trkpt lat="45.212541140354716" lon="9.402368993374704"><ele>71.8</ele><time>2026-04-11T09:55:27Z</time></trkpt><trkpt lat="45.21244254611439" lon="9.402375915042127"><ele>72.19999999999999</ele><time>2026-04-11T09:55:28Z</time></trkpt><trkpt lat="45.2123491019615" lon="9.402387838449188"><ele>72.6</ele><time>2026-04-11T09:55:29Z</time></trkpt><trkpt lat="45.21225221972528" lon="9.402400687674373"><ele>73.0</ele><time>2026-04-11T09:55:30Z</time></trkpt><trkpt lat="45.212138922385634" lon="9.402415213373597"><ele>73.25</ele><time>2026-04-11T09:55:31Z</time></trkpt><trkpt lat="45.21198052345354" lon="9.402433700987142"><ele>73.5</ele><time>2026-04-11T09:55:32Z</time></trkpt><trkpt lat="45.21183579302557" lon="9.402454535298592"><ele>73.75</ele><time>2026-04-11T09:55:33Z</time></trkpt><trkpt lat="45.211709044781315" lon="9.402462720390794"><ele>74.0</ele><time>2026-04-11T09:55:34Z</time></trkpt><trkpt lat="45.21159549335415" lon="9.40247599400502"><ele>74.0</ele><time>2026-04-11T09:55:35Z</time></trkpt><trkpt lat="45.21149587938471" lon="9.402489691022113"><ele>74.0</ele><time>2026-04-11T09:55:36Z</time></trkpt><trkpt lat="45.211409369071845" lon="9.40250503252812"><ele>74.0</ele><time>2026-04-11T09:55:37Z</time></trkpt><trkpt lat="45.21132358116904" lon="9.402521731958172"><ele>74.0</ele><time>2026-04-11T09:55:37.999Z</time></trkpt><trkpt lat="45.21124749774764" lon="9.402521667762421"><ele>74.0</ele><time>2026-04-11T09:55:38.999Z</time></trkpt><trkpt lat="45.21112258024042" lon="9.402528757462575"><ele>74.2</ele><time>2026-04-11T09:55:40.999Z</time></trkpt><trkpt lat="45.21104372584546" lon="9.40257080632835"><ele>74.4</ele><time>2026-04-11T09:55:42.999Z</time></trkpt><trkpt lat="45.21102305896138" lon="9.402704373683685"><ele>74.6</ele><time>2026-04-11T09:55:44.999Z</time></trkpt><trkpt lat="45.21103733527042" lon="9.402799364777788"><ele>74.8</ele><time>2026-04-11T09:55:45.999Z</time></trkpt><trkpt lat="45.211050616899996" lon="9.402928229553783"><ele>75.0</ele><time>2026-04-11T09:55:46.999Z</time></trkpt><trkpt lat="45.2110682086436" lon="9.40309820098998"><ele>74.66666666666667</ele><time>2026-04-11T09:55:47.999Z</time></trkpt><trkpt lat="45.21107695426581" lon="9.403218500546153"><ele>74.33333333333333</ele><time>2026-04-11T09:55:48.999Z</time></trkpt><trkpt lat="45.21108464544214" lon="9.403353416496522"><ele>74.0</ele><time>2026-04-11T09:55:50.999Z</time></trkpt><trkpt lat="45.21105534085174" lon="9.403435973805843"><ele>73.66666666666666</ele><time>2026-04-11T09:55:52.999Z</time></trkpt><trkpt lat="45.21098499516722" lon="9.403445314320017"><ele>73.33333333333333</ele><time>2026-04-11T09:56:01.999Z</time></trkpt><trkpt lat="45.21092034198731" lon="9.403543623173793"><ele>73.0</ele><time>2026-04-11T09:56:05.999Z</time></trkpt><trkpt lat="45.210948614742904" lon="9.403729757378041"><ele>73.0</ele><time>2026-04-11T09:56:07.999Z</time></trkpt><trkpt lat="45.210956313905456" lon="9.4038437574178"><ele>73.0</ele><time>2026-04-11T09:56:08.999Z</time></trkpt><trkpt lat="45.21096892497559" lon="9.403983389320443"><ele>73.0</ele><time>2026-04-11T09:56:09.999Z</time></trkpt><trkpt lat="45.210972761754" lon="9.404136359892055"><ele>73.0</ele><time>2026-04-11T09:56:10.999Z</time></trkpt><trkpt lat="45.210982471811924" lon="9.40426712573911"><ele>73.0</ele><time>2026-04-11T09:56:11.999Z</time></trkpt><trkpt lat="45.210985928228176" lon="9.40438711477101"><ele>73.0</ele><time>2026-04-11T09:56:12.999Z</time></trkpt><trkpt lat="45.210989602698035" lon="9.40450769074728"><ele>73.0</ele><time>2026-04-11T09:56:13.999Z</time></trkpt><trkpt lat="45.210997891859975" lon="9.404643542170456"><ele>73.0</ele><time>2026-04-11T09:56:14.999Z</time></trkpt><trkpt lat="45.211005901079936" lon="9.40477841523629"><ele>73.0</ele><time>2026-04-11T09:56:15.999Z</time></trkpt><trkpt lat="45.21100916946402" lon="9.404890673087339"><ele>73.0</ele><time>2026-04-11T09:56:16.999Z</time></trkpt><trkpt lat="45.21101511526875" lon="9.40498172629461"><ele>73.0</ele><time>2026-04-11T09:56:17.999Z</time></trkpt><trkpt lat="45.211022173819" lon="9.405097926545672"><ele>73.4</ele><time>2026-04-11T09:56:18.999Z</time></trkpt><trkpt lat="45.21103309267889" lon="9.405259924908732"><ele>73.8</ele><time>2026-04-11T09:56:20.999Z</time></trkpt><trkpt lat="45.211041548678764" lon="9.4054222431138"><ele>74.2</ele><time>2026-04-11T09:56:22.999Z</time></trkpt><trkpt lat="45.2110462687095" lon="9.4055327961849"><ele>74.6</ele><time>2026-04-11T09:56:23.999Z</time></trkpt><trkpt lat="45.21105165749598" lon="9.405647075682833"><ele>75.0</ele><time>2026-04-11T09:56:24.999Z</time></trkpt><trkpt lat="45.21105853264246" lon="9.405772069645089"><ele>75.0</ele><time>2026-04-11T09:56:25.999Z</time></trkpt><trkpt lat="45.21106656374734" lon="9.405894649623507"><ele>75.0</ele><time>2026-04-11T09:56:26.999Z</time></trkpt><trkpt lat="45.21107479026533" lon="9.406001341629516"><ele>75.0</ele><time>2026-04-11T09:56:27.999Z</time></trkpt><trkpt lat="45.21107880735948" lon="9.406130099965349"><ele>75.0</ele><time>2026-04-11T09:56:28.999Z</time></trkpt><trkpt lat="45.211081085237176" lon="9.406253607003544"><ele>75.0</ele><time>2026-04-11T09:56:29.999Z</time></trkpt><trkpt lat="45.21108921437294" lon="9.406344890352704"><ele>75.0</ele><time>2026-04-11T09:56:30.999Z</time></trkpt><trkpt lat="45.21108617814299" lon="9.406440104900371"><ele>74.83333333333333</ele><time>2026-04-11T09:56:31.999Z</time></trkpt><trkpt lat="45.21110022985662" lon="9.406530707370942"><ele>74.66666666666667</ele><time>2026-04-11T09:56:32.999Z</time></trkpt><trkpt lat="45.2111032612505" lon="9.406625095438628"><ele>74.5</ele><time>2026-04-11T09:56:33.999Z</time></trkpt><trkpt lat="45.2111069863766" lon="9.4067933631842"><ele>74.33333333333334</ele><time>2026-04-11T09:56:35.999Z</time></trkpt><trkpt lat="45.211112597019046" lon="9.406887122275208"><ele>74.16666666666667</ele><time>2026-04-11T09:56:37.999Z</time></trkpt><trkpt lat="45.21111851285577" lon="9.406990728891593"><ele>74.0</ele><time>2026-04-11T09:56:39.999Z</time></trkpt><trkpt lat="45.2111318271438" lon="9.407131052585122"><ele>74.0</ele><time>2026-04-11T09:56:41.999Z</time></trkpt><trkpt lat="45.21113952853121" lon="9.407274115921586"><ele>74.0</ele><time>2026-04-11T09:56:43.998Z</time></trkpt><trkpt lat="45.211144204491674" lon="9.407364439556055"><ele>74.0</ele><time>2026-04-11T09:56:44.998Z</time></trkpt><trkpt lat="45.21114948407145" lon="9.407467032597522"><ele>74.0</ele><time>2026-04-11T09:56:45.998Z</time></trkpt><trkpt lat="45.21115694664038" lon="9.407570925958378"><ele>74.0</ele><time>2026-04-11T09:56:46.998Z</time></trkpt><trkpt lat="45.21116500057857" lon="9.407726955984222"><ele>74.0</ele><time>2026-04-11T09:56:48.998Z</time></trkpt><trkpt lat="45.21117370614649" lon="9.407879339469725"><ele>74.2</ele><time>2026-04-11T09:56:50.998Z</time></trkpt><trkpt lat="45.211183848396416" lon="9.408053922809467"><ele>74.4</ele><time>2026-04-11T09:56:52.998Z</time></trkpt><trkpt lat="45.211190779696686" lon="9.408210308884508"><ele>74.6</ele><time>2026-04-11T09:56:54.998Z</time></trkpt><trkpt lat="45.211194858046184" lon="9.408340414343778"><ele>74.8</ele><time>2026-04-11T09:56:56.998Z</time></trkpt><trkpt lat="45.211199721560334" lon="9.408460885628694"><ele>75.0</ele><time>2026-04-11T09:57:00Z</time></trkpt><trkpt lat="45.2112258835042" lon="9.40854903812766"><ele>75.0</ele><time>2026-04-11T09:57:04Z</time></trkpt><trkpt lat="45.211241103685275" lon="9.40865257151054"><ele>75.0</ele><time>2026-04-11T09:57:10Z</time></trkpt><trkpt lat="45.211242013028226" lon="9.408743644947704"><ele>75.0</ele><time>2026-04-11T09:57:11Z</time></trkpt><trkpt lat="45.21124358972688" lon="9.408839584705284"><ele>75.0</ele><time>2026-04-11T09:57:12Z</time></trkpt><trkpt lat="45.21124628311361" lon="9.408942243702208"><ele>75.0</ele><time>2026-04-11T09:57:13Z</time></trkpt><trkpt lat="45.2112471613503" lon="9.409060022365642"><ele>75.0</ele><time>2026-04-11T09:57:14Z</time></trkpt><trkpt lat="45.21125350781051" lon="9.409191343358593"><ele>75.2</ele><time>2026-04-11T09:57:15Z</time></trkpt><trkpt lat="45.21126433069342" lon="9.40933633336347"><ele>75.4</ele><time>2026-04-11T09:57:16Z</time></trkpt><trkpt lat="45.21127441541584" lon="9.409489568046913"><ele>75.6</ele><time>2026-04-11T09:57:17Z</time></trkpt><trkpt lat="45.21127924982809" lon="9.40964048314393"><ele>75.8</ele><time>2026-04-11T09:57:18Z</time></trkpt><trkpt lat="45.21127657682272" lon="9.4098033737234"><ele>76.0</ele><time>2026-04-11T09:57:19Z</time></trkpt><trkpt lat="45.21128402846503" lon="9.4099362222888"><ele>76.0</ele><time>2026-04-11T09:57:20Z</time></trkpt><trkpt lat="45.21129294817695" lon="9.410091404640728"><ele>76.0</ele><time>2026-04-11T09:57:21Z</time></trkpt><trkpt lat="45.211301526209986" lon="9.41026188203811"><ele>76.0</ele><time>2026-04-11T09:57:22Z</time></trkpt><trkpt lat="45.21131316580396" lon="9.410443550071843"><ele>76.0</ele><time>2026-04-11T09:57:23Z</time></trkpt><trkpt lat="45.211323440370904" lon="9.410622836578364"><ele>76.0</ele><time>2026-04-11T09:57:24Z</time></trkpt><trkpt lat="45.211335319230415" lon="9.410784915417725"><ele>76.0</ele><time>2026-04-11T09:57:25Z</time></trkpt><trkpt lat="45.211340642901014" lon="9.410948743218245"><ele>76.0</ele><time>2026-04-11T09:57:26Z</time></trkpt><trkpt lat="45.21134737656749" lon="9.411114657316316"><ele>76.0</ele><time>2026-04-11T09:57:27Z</time></trkpt><trkpt lat="45.211355394319206" lon="9.411262697432425"><ele>76.0</ele><time>2026-04-11T09:57:28Z</time></trkpt><trkpt lat="45.211365072155004" lon="9.411398861817261"><ele>76.0</ele><time>2026-04-11T09:57:29Z</time></trkpt><trkpt lat="45.21136968513111" lon="9.411493457741935"><ele>76.0</ele><time>2026-04-11T09:57:30Z</time></trkpt><trkpt lat="45.21137223496996" lon="9.411613784630553"><ele>76.0</ele><time>2026-04-11T09:57:32Z</time></trkpt><trkpt lat="45.211383396954105" lon="9.411742231251733"><ele>76.0</ele><time>2026-04-11T09:57:34Z</time></trkpt><trkpt lat="45.211385126408224" lon="9.411849332166662"><ele>76.0</ele><time>2026-04-11T09:57:36Z</time></trkpt><trkpt lat="45.211363509184764" lon="9.411961769867823"><ele>76.0</ele><time>2026-04-11T09:57:39Z</time></trkpt><trkpt lat="45.211392585928685" lon="9.412055989320365"><ele>76.0</ele><time>2026-04-11T09:57:42Z</time></trkpt><trkpt lat="45.21138055961557" lon="9.412212917010187"><ele>76.0</ele><time>2026-04-11T09:57:43.999Z</time></trkpt><trkpt lat="45.21137801604957" lon="9.412371890357063"><ele>76.0</ele><time>2026-04-11T09:57:45.999Z</time></trkpt><trkpt lat="45.21137670778971" lon="9.412468803586796"><ele>76.0</ele><time>2026-04-11T09:57:46.999Z</time></trkpt><trkpt lat="45.211376448315455" lon="9.41257565486643"><ele>76.0</ele><time>2026-04-11T09:57:47.999Z</time></trkpt><trkpt lat="45.21137611658844" lon="9.412687711874305"><ele>76.0</ele><time>2026-04-11T09:57:48.999Z</time></trkpt><trkpt lat="45.21137638387381" lon="9.41280100831636"><ele>76.0</ele><time>2026-04-11T09:57:49.999Z</time></trkpt><trkpt lat="45.21137408009534" lon="9.412905702688027"><ele>76.0</ele><time>2026-04-11T09:57:50.999Z</time></trkpt><trkpt lat="45.21137131468986" lon="9.413025648260694"><ele>76.0</ele><time>2026-04-11T09:57:51.999Z</time></trkpt><trkpt lat="45.211371246680265" lon="9.413131079829101"><ele>76.0</ele><time>2026-04-11T09:57:52.999Z</time></trkpt><trkpt lat="45.2113696064767" lon="9.41324857521088"><ele>76.0</ele><time>2026-04-11T09:57:53.999Z</time></trkpt><trkpt lat="45.21136615138512" lon="9.41336854574642"><ele>76.0</ele><time>2026-04-11T09:57:54.999Z</time></trkpt><trkpt lat="45.211365586244355" lon="9.413481334976064"><ele>76.0</ele><time>2026-04-11T09:57:55.999Z</time></trkpt><trkpt lat="45.21136549863601" lon="9.413576191419756"><ele>76.0</ele><time>2026-04-11T09:57:56.999Z</time></trkpt><trkpt lat="45.21136912748721" lon="9.413669301569724"><ele>76.0</ele><time>2026-04-11T09:57:57.999Z</time></trkpt><trkpt lat="45.21136578809708" lon="9.413760917869908"><ele>76.0</ele><time>2026-04-11T09:57:58.999Z</time></trkpt><trkpt lat="45.21135926594023" lon="9.413930996444078"><ele>76.0</ele><time>2026-04-11T09:58:00.999Z</time></trkpt><trkpt lat="45.21135427274047" lon="9.414031200135836"><ele>76.0</ele><time>2026-04-11T09:58:01.999Z</time></trkpt><trkpt lat="45.21135535728159" lon="9.41413095432579"><ele>76.0</ele><time>2026-04-11T09:58:02.999Z</time></trkpt><trkpt lat="45.211356784474305" lon="9.414233203789701"><ele>76.0</ele><time>2026-04-11T09:58:03.999Z</time></trkpt><trkpt lat="45.21134449895119" lon="9.414331762472537"><ele>76.0</ele><time>2026-04-11T09:58:04.999Z</time></trkpt><trkpt lat="45.21134344552791" lon="9.414441947522961"><ele>76.0</ele><time>2026-04-11T09:58:05.999Z</time></trkpt><trkpt lat="45.21134095440738" lon="9.414553827449424"><ele>76.0</ele><time>2026-04-11T09:58:06.999Z</time></trkpt><trkpt lat="45.211342450973234" lon="9.414687102817917"><ele>75.83333333333333</ele><time>2026-04-11T09:58:07.999Z</time></trkpt><trkpt lat="45.211341982747" lon="9.414826832532802"><ele>75.66666666666666</ele><time>2026-04-11T09:58:08.999Z</time></trkpt><trkpt lat="45.211340231964016" lon="9.414953335095394"><ele>75.5</ele><time>2026-04-11T09:58:09.999Z</time></trkpt><trkpt lat="45.21133895605841" lon="9.415058426022053"><ele>75.33333333333333</ele><time>2026-04-11T09:58:10.999Z</time></trkpt><trkpt lat="45.21133702440577" lon="9.415160456978917"><ele>75.16666666666667</ele><time>2026-04-11T09:58:11.999Z</time></trkpt><trkpt lat="45.211334125187044" lon="9.415270466560518"><ele>75.0</ele><time>2026-04-11T09:58:12.999Z</time></trkpt><trkpt lat="45.211333495027446" lon="9.415391276107513"><ele>75.16666666666667</ele><time>2026-04-11T09:58:13.999Z</time></trkpt><trkpt lat="45.21133310852722" lon="9.415527928616754"><ele>75.33333333333333</ele><time>2026-04-11T09:58:14.999Z</time></trkpt><trkpt lat="45.211331617885854" lon="9.415671036950055"><ele>75.5</ele><time>2026-04-11T09:58:15.999Z</time></trkpt><trkpt lat="45.211326095624386" lon="9.415787737867264"><ele>75.66666666666666</ele><time>2026-04-11T09:58:16.999Z</time></trkpt><trkpt lat="45.211323907156846" lon="9.415894274978879"><ele>75.83333333333333</ele><time>2026-04-11T09:58:17.999Z</time></trkpt><trkpt lat="45.211325306421536" lon="9.415988784040712"><ele>76.0</ele><time>2026-04-11T09:58:18.999Z</time></trkpt><trkpt lat="45.211325292986054" lon="9.416147014409779"><ele>76.0</ele><time>2026-04-11T09:58:20.999Z</time></trkpt><trkpt lat="45.211321448854946" lon="9.41626558416841"><ele>76.0</ele><time>2026-04-11T09:58:23.999Z</time></trkpt><trkpt lat="45.211255654898366" lon="9.416310374602572"><ele>76.0</ele><time>2026-04-11T09:58:25.999Z</time></trkpt><trkpt lat="45.21118657963014" lon="9.416306377914875"><ele>76.0</ele><time>2026-04-11T09:58:26.999Z</time></trkpt><trkpt lat="45.21110119917945" lon="9.416311650776816"><ele>76.0</ele><time>2026-04-11T09:58:27.999Z</time></trkpt><trkpt lat="45.21102737730502" lon="9.416314010364532"><ele>76.0</ele><time>2026-04-11T09:58:28.999Z</time></trkpt><trkpt lat="45.21095527412279" lon="9.416319033153732"><ele>76.2</ele><time>2026-04-11T09:58:29.999Z</time></trkpt><trkpt lat="45.21083315831043" lon="9.416335647277887"><ele>76.39999999999999</ele><time>2026-04-11T09:58:31.999Z</time></trkpt><trkpt lat="45.210781384513666" lon="9.416402770943744"><ele>76.6</ele><time>2026-04-11T09:58:33.999Z</time></trkpt><trkpt lat="45.21078707065749" lon="9.41656108152498"><ele>76.8</ele><time>2026-04-11T09:58:35.999Z</time></trkpt><trkpt lat="45.21080386367536" lon="9.416723650445348"><ele>77.0</ele><time>2026-04-11T09:58:37.999Z</time></trkpt><trkpt lat="45.21080555831254" lon="9.416836704082616"><ele>77.0</ele><time>2026-04-11T09:58:38.999Z</time></trkpt><trkpt lat="45.21080130771228" lon="9.416949967885285"><ele>77.0</ele><time>2026-04-11T09:58:39.999Z</time></trkpt><trkpt lat="45.210803821541084" lon="9.417063691853912"><ele>77.0</ele><time>2026-04-11T09:58:40.999Z</time></trkpt><trkpt lat="45.21080750298058" lon="9.417169414187784"><ele>77.0</ele><time>2026-04-11T09:58:41.999Z</time></trkpt><trkpt lat="45.210802627110034" lon="9.417338455269448"><ele>77.0</ele><time>2026-04-11T09:58:43.999Z</time></trkpt><trkpt lat="45.21080163963552" lon="9.41743839160522"><ele>77.0</ele><time>2026-04-11T09:58:44.999Z</time></trkpt><trkpt lat="45.21079993731892" lon="9.417594477999339"><ele>77.0</ele><time>2026-04-11T09:58:46.999Z</time></trkpt><trkpt lat="45.21079822254456" lon="9.417704875083807"><ele>77.0</ele><time>2026-04-11T09:58:48.999Z</time></trkpt><trkpt lat="45.210812350498834" lon="9.41785827326307"><ele>77.0</ele><time>2026-04-11T09:58:50.998Z</time></trkpt><trkpt lat="45.21082212735553" lon="9.41801799690863"><ele>77.0</ele><time>2026-04-11T09:58:52.998Z</time></trkpt><trkpt lat="45.21082514088524" lon="9.418176551090278"><ele>77.0</ele><time>2026-04-11T09:58:54.998Z</time></trkpt><trkpt lat="45.21081982062456" lon="9.418282120564596"><ele>76.83333333333334</ele><time>2026-04-11T09:58:56.998Z</time></trkpt><trkpt lat="45.21079632946247" lon="9.418376126338114"><ele>76.66666666666667</ele><time>2026-04-11T09:58:58.998Z</time></trkpt><trkpt lat="45.210751431028896" lon="9.418483527176866"><ele>76.5</ele><time>2026-04-11T09:59:01.998Z</time></trkpt><trkpt lat="45.2106749613455" lon="9.418519865310095"><ele>76.33333333333333</ele><time>2026-04-11T09:59:05Z</time></trkpt><trkpt lat="45.21060899972778" lon="9.418518946594203"><ele>76.16666666666666</ele><time>2026-04-11T09:59:09Z</time></trkpt><trkpt lat="45.21053812128881" lon="9.418522422364866"><ele>76.0</ele><time>2026-04-11T09:59:18Z</time></trkpt><trkpt lat="45.210407440420525" lon="9.418532320172723"><ele>76.0</ele><time>2026-04-11T09:59:20Z</time></trkpt><trkpt lat="45.210336219630385" lon="9.418523422510539"><ele>76.0</ele><time>2026-04-11T09:59:21Z</time></trkpt><trkpt lat="45.21026596495983" lon="9.418515461706601"><ele>76.0</ele><time>2026-04-11T09:59:22Z</time></trkpt><trkpt lat="45.210199571872714" lon="9.418508241721986"><ele>76.0</ele><time>2026-04-11T09:59:23Z</time></trkpt><trkpt lat="45.21013073615956" lon="9.418501141210271"><ele>76.0</ele><time>2026-04-11T09:59:24Z</time></trkpt><trkpt lat="45.21005837399903" lon="9.418492765301183"><ele>76.0</ele><time>2026-04-11T09:59:25Z</time></trkpt><trkpt lat="45.209982260883656" lon="9.418482536285326"><ele>76.0</ele><time>2026-04-11T09:59:26Z</time></trkpt><trkpt lat="45.20990991530072" lon="9.41847539621042"><ele>76.16666666666666</ele><time>2026-04-11T09:59:27Z</time></trkpt><trkpt lat="45.20982140524293" lon="9.41845863723589"><ele>76.33333333333333</ele><time>2026-04-11T09:59:29Z</time></trkpt><trkpt lat="45.209706081097586" lon="9.418449909605998"><ele>76.5</ele><time>2026-04-11T09:59:31Z</time></trkpt><trkpt lat="45.20963031438262" lon="9.418448884233017"><ele>76.66666666666667</ele><time>2026-04-11T09:59:32Z</time></trkpt><trkpt lat="45.20955429363196" lon="9.418437892285214"><ele>76.83333333333334</ele><time>2026-04-11T09:59:33Z</time></trkpt><trkpt lat="45.209481851326196" lon="9.41843185126857"><ele>77.0</ele><time>2026-04-11T09:59:34Z</time></trkpt><trkpt lat="45.20936760160209" lon="9.418428567470514"><ele>77.0</ele><time>2026-04-11T09:59:36Z</time></trkpt><trkpt lat="45.209303208874516" lon="9.418415911250369"><ele>77.0</ele><time>2026-04-11T09:59:37Z</time></trkpt><trkpt lat="45.209187163054644" lon="9.418399360130348"><ele>77.0</ele><time>2026-04-11T09:59:39Z</time></trkpt><trkpt lat="45.20911998493944" lon="9.418396269514284"><ele>77.0</ele><time>2026-04-11T09:59:40Z</time></trkpt><trkpt lat="45.20905440639965" lon="9.41839084894247"><ele>77.0</ele><time>2026-04-11T09:59:41Z</time></trkpt><trkpt lat="45.208937948168895" lon="9.418371296882253"><ele>77.0</ele><time>2026-04-11T09:59:43Z</time></trkpt><trkpt lat="45.20886380335885" lon="9.41836249324032"><ele>77.16666666666667</ele><time>2026-04-11T09:59:45Z</time></trkpt><trkpt lat="45.20880870623171" lon="9.418449806508258"><ele>77.33333333333334</ele><time>2026-04-11T09:59:47.999Z</time></trkpt><trkpt lat="45.20880414372255" lon="9.418621492820765"><ele>77.5</ele><time>2026-04-11T09:59:49.999Z</time></trkpt><trkpt lat="45.208804138992996" lon="9.41872914318099"><ele>77.66666666666667</ele><time>2026-04-11T09:59:50.999Z</time></trkpt><trkpt lat="45.2088021287341" lon="9.418827372620022"><ele>77.83333333333333</ele><time>2026-04-11T09:59:51.999Z</time></trkpt><trkpt lat="45.20879444176164" lon="9.418938797388616"><ele>78.0</ele><time>2026-04-11T09:59:52.999Z</time></trkpt><trkpt lat="45.20879485051226" lon="9.419096118554355"><ele>78.0</ele><time>2026-04-11T09:59:53.999Z</time></trkpt><trkpt lat="45.208796851097674" lon="9.419244915486043"><ele>78.0</ele><time>2026-04-11T09:59:54.999Z</time></trkpt><trkpt lat="45.2087977274196" lon="9.41941386888351"><ele>78.0</ele><time>2026-04-11T09:59:55.999Z</time></trkpt><trkpt lat="45.208796908360156" lon="9.419578423701681"><ele>78.0</ele><time>2026-04-11T09:59:56.999Z</time></trkpt><trkpt lat="45.20879701309973" lon="9.419751309876954"><ele>77.6</ele><time>2026-04-11T09:59:57.999Z</time></trkpt><trkpt lat="45.20879767504531" lon="9.419914422168537"><ele>77.19999999999999</ele><time>2026-04-11T09:59:58.999Z</time></trkpt><trkpt lat="45.208799703637325" lon="9.420091782907784"><ele>76.8</ele><time>2026-04-11T09:59:59.999Z</time></trkpt><trkpt lat="45.20880142960966" lon="9.420249583041358"><ele>76.39999999999999</ele><time>2026-04-11T10:00:00.999Z</time></trkpt><trkpt lat="45.20880102586785" lon="9.420388218421971"><ele>76.0</ele><time>2026-04-11T10:00:01.999Z</time></trkpt><trkpt lat="45.208797305894926" lon="9.420542143085388"><ele>75.8</ele><time>2026-04-11T10:00:02.999Z</time></trkpt><trkpt lat="45.208804139927096" lon="9.42069219690213"><ele>75.6</ele><time>2026-04-11T10:00:03.999Z</time></trkpt><trkpt lat="45.208800064157685" lon="9.420842666713323"><ele>75.4</ele><time>2026-04-11T10:00:04.999Z</time></trkpt><trkpt lat="45.2087966539971" lon="9.420970650566536"><ele>75.2</ele><time>2026-04-11T10:00:05.999Z</time></trkpt><trkpt lat="45.20879622223236" lon="9.421064475319717"><ele>75.0</ele><time>2026-04-11T10:00:06.999Z</time></trkpt><trkpt lat="45.20881326428284" lon="9.421205675234724"><ele>75.0</ele><time>2026-04-11T10:00:08.999Z</time></trkpt><trkpt lat="45.20878268570858" lon="9.421289494376433"><ele>75.0</ele><time>2026-04-11T10:00:10.999Z</time></trkpt><trkpt lat="45.20869371358805" lon="9.421304361039667"><ele>75.0</ele><time>2026-04-11T10:00:12.999Z</time></trkpt><trkpt lat="45.2086004584019" lon="9.421280487310929"><ele>75.0</ele><time>2026-04-11T10:00:13.999Z</time></trkpt><trkpt lat="45.20846020282816" lon="9.421238690417503"><ele>75.0</ele><time>2026-04-11T10:00:14.999Z</time></trkpt><trkpt lat="45.20832754842539" lon="9.421204728416877"><ele>75.0</ele><time>2026-04-11T10:00:15.999Z</time></trkpt><trkpt lat="45.208200161285255" lon="9.421175950197707"><ele>75.0</ele><time>2026-04-11T10:00:16.999Z</time></trkpt><trkpt lat="45.208070374446" lon="9.421149054545412"><ele>75.0</ele><time>2026-04-11T10:00:17.999Z</time></trkpt><trkpt lat="45.20793315488171" lon="9.421114509536645"><ele>75.0</ele><time>2026-04-11T10:00:18.999Z</time></trkpt><trkpt lat="45.20779623012196" lon="9.421081251779185"><ele>75.75</ele><time>2026-04-11T10:00:19.999Z</time></trkpt><trkpt lat="45.207655675156" lon="9.421050549422889"><ele>76.5</ele><time>2026-04-11T10:00:20.999Z</time></trkpt><trkpt lat="45.2075046939801" lon="9.421024057701601"><ele>77.25</ele><time>2026-04-11T10:00:21.999Z</time></trkpt><trkpt lat="45.20735596833174" lon="9.420993892320345"><ele>78.0</ele><time>2026-04-11T10:00:22.999Z</time></trkpt><trkpt lat="45.20721379049876" lon="9.420959307444857"><ele>78.5</ele><time>2026-04-11T10:00:23.999Z</time></trkpt><trkpt lat="45.20707014870734" lon="9.420925888199147"><ele>79.0</ele><time>2026-04-11T10:00:24.999Z</time></trkpt><trkpt lat="45.206928519836275" lon="9.420894304953359"><ele>79.5</ele><time>2026-04-11T10:00:25.999Z</time></trkpt><trkpt lat="45.206782381960835" lon="9.420870146383718"><ele>80.0</ele><time>2026-04-11T10:00:26.999Z</time></trkpt><trkpt lat="45.20665224569288" lon="9.420847904145656"><ele>80.0</ele><time>2026-04-11T10:00:27.999Z</time></trkpt><trkpt lat="45.20652596803188" lon="9.420822766015034"><ele>80.0</ele><time>2026-04-11T10:00:28.999Z</time></trkpt><trkpt lat="45.206396366529546" lon="9.42079739674914"><ele>80.0</ele><time>2026-04-11T10:00:29.999Z</time></trkpt><trkpt lat="45.206253638524174" lon="9.420771118557521"><ele>80.0</ele><time>2026-04-11T10:00:30.999Z</time></trkpt><trkpt lat="45.206113223816814" lon="9.420740719112187"><ele>80.5</ele><time>2026-04-11T10:00:31.999Z</time></trkpt><trkpt lat="45.2059696814056" lon="9.42071225936137"><ele>81.0</ele><time>2026-04-11T10:00:32.999Z</time></trkpt><trkpt lat="45.205826839508454" lon="9.420687395637353"><ele>81.5</ele><time>2026-04-11T10:00:33.999Z</time></trkpt><trkpt lat="45.20567284605623" lon="9.420657635098781"><ele>82.0</ele><time>2026-04-11T10:00:34.999Z</time></trkpt><trkpt lat="45.20551474148755" lon="9.420626198061322"><ele>82.0</ele><time>2026-04-11T10:00:35.999Z</time></trkpt><trkpt lat="45.20535482168017" lon="9.420593559131685"><ele>82.0</ele><time>2026-04-11T10:00:36.999Z</time></trkpt><trkpt lat="45.20518592532084" lon="9.420563868421011"><ele>82.0</ele><time>2026-04-11T10:00:37.999Z</time></trkpt><trkpt lat="45.205025969700074" lon="9.42051774708519"><ele>82.0</ele><time>2026-04-11T10:00:38.999Z</time></trkpt><trkpt lat="45.20488528514389" lon="9.420486315843199"><ele>82.0</ele><time>2026-04-11T10:00:39.999Z</time></trkpt><trkpt lat="45.20474410373104" lon="9.42045299145184"><ele>82.0</ele><time>2026-04-11T10:00:40.999Z</time></trkpt><trkpt lat="45.204587265299594" lon="9.420422059921815"><ele>82.0</ele><time>2026-04-11T10:00:41.999Z</time></trkpt><trkpt lat="45.20442888882177" lon="9.420391352292155"><ele>81.33333333333333</ele><time>2026-04-11T10:00:42.999Z</time></trkpt><trkpt lat="45.20426776292171" lon="9.420355741320055"><ele>80.66666666666667</ele><time>2026-04-11T10:00:43.999Z</time></trkpt><trkpt lat="45.20410725896071" lon="9.420324327197113"><ele>80.0</ele><time>2026-04-11T10:00:44.999Z</time></trkpt><trkpt lat="45.203952872344736" lon="9.420288748672727"><ele>80.0</ele><time>2026-04-11T10:00:45.999Z</time></trkpt><trkpt lat="45.203791553195046" lon="9.420282341672186"><ele>80.0</ele><time>2026-04-11T10:00:46.999Z</time></trkpt><trkpt lat="45.20363256389232" lon="9.420339182151427"><ele>80.0</ele><time>2026-04-11T10:00:47.999Z</time></trkpt><trkpt lat="45.203457879375726" lon="9.420452826448571"><ele>81.0</ele><time>2026-04-11T10:00:48.999Z</time></trkpt><trkpt lat="45.20329006134221" lon="9.420585591845251"><ele>82.0</ele><time>2026-04-11T10:00:49.999Z</time></trkpt><trkpt lat="45.203136021393846" lon="9.420690682536097"><ele>83.0</ele><time>2026-04-11T10:00:50.999Z</time></trkpt><trkpt lat="45.20298262919979" lon="9.420788780065035"><ele>83.33333333333334</ele><time>2026-04-11T10:00:51.999Z</time></trkpt><trkpt lat="45.202828791023805" lon="9.4208896142827"><ele>83.66666666666667</ele><time>2026-04-11T10:00:52.999Z</time></trkpt><trkpt lat="45.20267922903753" lon="9.42098691210097"><ele>84.0</ele><time>2026-04-11T10:00:53.999Z</time></trkpt><trkpt lat="45.202533417253406" lon="9.421079913755294"><ele>84.0</ele><time>2026-04-11T10:00:54.998Z</time></trkpt><trkpt lat="45.202388348723126" lon="9.421174022542273"><ele>84.0</ele><time>2026-04-11T10:00:55.998Z</time></trkpt><trkpt lat="45.202249745334974" lon="9.421262294365867"><ele>84.0</ele><time>2026-04-11T10:00:56.998Z</time></trkpt><trkpt lat="45.20211963070522" lon="9.421341496709406"><ele>84.80000000000001</ele><time>2026-04-11T10:00:57.998Z</time></trkpt><trkpt lat="45.20200422880397" lon="9.42142035517532"><ele>85.60000000000001</ele><time>2026-04-11T10:00:58.998Z</time></trkpt><trkpt lat="45.20190160369092" lon="9.421482017858898"><ele>86.4</ele><time>2026-04-11T10:00:59.998Z</time></trkpt><trkpt lat="45.20180694787994" lon="9.421528918304697"><ele>87.2</ele><time>2026-04-11T10:01:00.998Z</time></trkpt><trkpt lat="45.20172837523786" lon="9.421577802723164"><ele>88.0</ele><time>2026-04-11T10:01:01.998Z</time></trkpt><trkpt lat="45.20166341579947" lon="9.421622049786768"><ele>88.0</ele><time>2026-04-11T10:01:02.998Z</time></trkpt><trkpt lat="45.20158484047266" lon="9.421641612557051"><ele>88.0</ele><time>2026-04-11T10:01:05.998Z</time></trkpt><trkpt lat="45.201498096483476" lon="9.421555792015997"><ele>88.0</ele><time>2026-04-11T10:01:07.998Z</time></trkpt><trkpt lat="45.2014437746198" lon="9.421470213875319"><ele>88.0</ele><time>2026-04-11T10:01:08.998Z</time></trkpt><trkpt lat="45.2013921664303" lon="9.421359721555076"><ele>88.0</ele><time>2026-04-11T10:01:09.998Z</time></trkpt><trkpt lat="45.201336842818414" lon="9.421245405789007"><ele>88.33333333333333</ele><time>2026-04-11T10:01:11Z</time></trkpt><trkpt lat="45.2012906860817" lon="9.42116022162745"><ele>88.66666666666666</ele><time>2026-04-11T10:01:12Z</time></trkpt><trkpt lat="45.20122123759054" lon="9.421037118039704"><ele>89.0</ele><time>2026-04-11T10:01:14Z</time></trkpt><trkpt lat="45.20117136093613" lon="9.420942718523523"><ele>89.33333333333333</ele><time>2026-04-11T10:01:16Z</time></trkpt><trkpt lat="45.20110898262845" lon="9.420919227148916"><ele>89.66666666666667</ele><time>2026-04-11T10:01:53.999Z</time></trkpt><trkpt lat="45.20105001650795" lon="9.420971166234459"><ele>90.0</ele><time>2026-04-11T10:01:55.999Z</time></trkpt><trkpt lat="45.20095188959288" lon="9.421041222982588"><ele>90.0</ele><time>2026-04-11T10:01:57.999Z</time></trkpt><trkpt lat="45.20089358700478" lon="9.421081930846526"><ele>90.0</ele><time>2026-04-11T10:01:58.999Z</time></trkpt><trkpt lat="45.200804059728085" lon="9.42113053291996"><ele>90.0</ele><time>2026-04-11T10:02:00.999Z</time></trkpt><trkpt lat="45.20071564587147" lon="9.421200349689348"><ele>90.0</ele><time>2026-04-11T10:02:02.999Z</time></trkpt><trkpt lat="45.20062420871542" lon="9.421250571483236"><ele>90.0</ele><time>2026-04-11T10:02:04.999Z</time></trkpt><trkpt lat="45.200526563236465" lon="9.421311152453182"><ele>90.2</ele><time>2026-04-11T10:02:06.999Z</time></trkpt><trkpt lat="45.200419700680996" lon="9.42138199678792"><ele>90.4</ele><time>2026-04-11T10:02:08.999Z</time></trkpt><trkpt lat="45.20035983389833" lon="9.42141662971208"><ele>90.6</ele><time>2026-04-11T10:02:09.999Z</time></trkpt><trkpt lat="45.20029250080722" lon="9.421469479153975"><ele>90.8</ele><time>2026-04-11T10:02:10.999Z</time></trkpt><trkpt lat="45.20017648514705" lon="9.421552511367805"><ele>91.0</ele><time>2026-04-11T10:02:12.999Z</time></trkpt><trkpt lat="45.200097049529326" lon="9.421602380577227"><ele>91.0</ele><time>2026-04-11T10:02:13.999Z</time></trkpt><trkpt lat="45.200005230615375" lon="9.421666615778264"><ele>91.0</ele><time>2026-04-11T10:02:14.999Z</time></trkpt><trkpt lat="45.19990602222803" lon="9.421735613339218"><ele>91.0</ele><time>2026-04-11T10:02:15.999Z</time></trkpt><trkpt lat="45.19981649535249" lon="9.421796966051339"><ele>91.0</ele><time>2026-04-11T10:02:16.999Z</time></trkpt><trkpt lat="45.19972879888066" lon="9.421854152552527"><ele>91.0</ele><time>2026-04-11T10:02:17.999Z</time></trkpt><trkpt lat="45.19963874903418" lon="9.42190779055845"><ele>91.0</ele><time>2026-04-11T10:02:18.999Z</time></trkpt><trkpt lat="45.199548431508745" lon="9.421968324096325"><ele>91.0</ele><time>2026-04-11T10:02:19.999Z</time></trkpt><trkpt lat="45.19947041082344" lon="9.422020200336146"><ele>91.0</ele><time>2026-04-11T10:02:20.999Z</time></trkpt><trkpt lat="45.199406460949135" lon="9.422059025129297"><ele>91.0</ele><time>2026-04-11T10:02:21.999Z</time></trkpt><trkpt lat="45.199291399863895" lon="9.422127963650695"><ele>91.0</ele><time>2026-04-11T10:02:23.999Z</time></trkpt><trkpt lat="45.19922110413485" lon="9.422179529640351"><ele>91.19999999999999</ele><time>2026-04-11T10:02:24.999Z</time></trkpt><trkpt lat="45.19913801084291" lon="9.42222635226483"><ele>91.39999999999999</ele><time>2026-04-11T10:02:25.999Z</time></trkpt><trkpt lat="45.19904811526842" lon="9.422294201422782"><ele>91.6</ele><time>2026-04-11T10:02:26.999Z</time></trkpt><trkpt lat="45.19897561776043" lon="9.422337585787485"><ele>91.8</ele><time>2026-04-11T10:02:27.999Z</time></trkpt><trkpt lat="45.198868904829396" lon="9.422402622770871"><ele>92.0</ele><time>2026-04-11T10:02:29.999Z</time></trkpt><trkpt lat="45.198774123994674" lon="9.422463509278002"><ele>92.19999999999999</ele><time>2026-04-11T10:02:31.999Z</time></trkpt><trkpt lat="45.198698560651614" lon="9.422507720112968"><ele>92.4</ele><time>2026-04-11T10:02:34.999Z</time></trkpt><trkpt lat="45.19867894284366" lon="9.422617487869674"><ele>92.6</ele><time>2026-04-11T10:02:52.999Z</time></trkpt><trkpt lat="45.198760556230916" lon="9.422716668833344"><ele>92.80000000000001</ele><time>2026-04-11T10:02:54.999Z</time></trkpt><trkpt lat="45.19884473328808" lon="9.422841291434306"><ele>93.0</ele><time>2026-04-11T10:02:56.999Z</time></trkpt><trkpt lat="45.19889100650835" lon="9.422918505269255"><ele>93.00000000000001</ele><time>2026-04-11T10:02:57.999Z</time></trkpt><trkpt lat="45.198940622681086" lon="9.422989287274397"><ele>93.0</ele><time>2026-04-11T10:02:58.999Z</time></trkpt><trkpt lat="45.198982789909074" lon="9.42306435598666"><ele>93.0</ele><time>2026-04-11T10:02:59.999Z</time></trkpt><trkpt lat="45.19902825670698" lon="9.42313593022643"><ele>93.0</ele><time>2026-04-11T10:03:00.999Z</time></trkpt><trkpt lat="45.19907861239164" lon="9.423211958342472"><ele>93.0</ele><time>2026-04-11T10:03:01.999Z</time></trkpt><trkpt lat="45.199122973582156" lon="9.423291928367286"><ele>93.00000000000001</ele><time>2026-04-11T10:03:02.999Z</time></trkpt><trkpt lat="45.19916500279145" lon="9.42337603297621"><ele>93.0</ele><time>2026-04-11T10:03:03.999Z</time></trkpt><trkpt lat="45.1992123917755" lon="9.42347377875751"><ele>93.0</ele><time>2026-04-11T10:03:04.998Z</time></trkpt><trkpt lat="45.199265166037954" lon="9.423570706153857"><ele>93.0</ele><time>2026-04-11T10:03:05.998Z</time></trkpt><trkpt lat="45.199319383668595" lon="9.423671192340507"><ele>93.0</ele><time>2026-04-11T10:03:06.998Z</time></trkpt><trkpt lat="45.199364573433485" lon="9.423748056082104"><ele>93.0</ele><time>2026-04-11T10:03:07.998Z</time></trkpt><trkpt lat="45.199419220108254" lon="9.423833610336512"><ele>93.0</ele><time>2026-04-11T10:03:08.998Z</time></trkpt><trkpt lat="45.19947652020736" lon="9.423925367562957"><ele>93.0</ele><time>2026-04-11T10:03:09.998Z</time></trkpt><trkpt lat="45.19953159664555" lon="9.424025134649394"><ele>92.83333333333333</ele><time>2026-04-11T10:03:10.998Z</time></trkpt><trkpt lat="45.19958762286898" lon="9.424126968461014"><ele>92.66666666666667</ele><time>2026-04-11T10:03:11.998Z</time></trkpt><trkpt lat="45.199650925717265" lon="9.424234999906385"><ele>92.5</ele><time>2026-04-11T10:03:12.998Z</time></trkpt><trkpt lat="45.199697002312114" lon="9.42432516497829"><ele>92.33333333333334</ele><time>2026-04-11T10:03:13.998Z</time></trkpt><trkpt lat="45.19973518388004" lon="9.424402869230033"><ele>92.16666666666667</ele><time>2026-04-11T10:03:14.998Z</time></trkpt><trkpt lat="45.19977042003106" lon="9.424493025181556"><ele>92.0</ele><time>2026-04-11T10:03:15.998Z</time></trkpt><trkpt lat="45.19980293517812" lon="9.424612011738146"><ele>92.0</ele><time>2026-04-11T10:03:17Z</time></trkpt><trkpt lat="45.199851360874376" lon="9.424750632959851"><ele>92.0</ele><time>2026-04-11T10:03:18Z</time></trkpt><trkpt lat="45.19989422924102" lon="9.424872561854185"><ele>92.0</ele><time>2026-04-11T10:03:19Z</time></trkpt><trkpt lat="45.199937566371936" lon="9.424980946020915"><ele>92.0</ele><time>2026-04-11T10:03:20Z</time></trkpt><trkpt lat="45.199984451189685" lon="9.425078766944686"><ele>92.0</ele><time>2026-04-11T10:03:21Z</time></trkpt><trkpt lat="45.20002626008962" lon="9.425189666751702"><ele>92.0</ele><time>2026-04-11T10:03:22Z</time></trkpt><trkpt lat="45.20005296449818" lon="9.42528808394193"><ele>92.0</ele><time>2026-04-11T10:03:24Z</time></trkpt><trkpt lat="45.20014044232144" lon="9.42528115978417"><ele>92.0</ele><time>2026-04-11T10:03:27Z</time></trkpt><trkpt lat="45.200267164091265" lon="9.42520873584757"><ele>92.0</ele><time>2026-04-11T10:03:29Z</time></trkpt><trkpt lat="45.20034779732" lon="9.425167531020726"><ele>92.0</ele><time>2026-04-11T10:03:30Z</time></trkpt><trkpt lat="45.20043952899975" lon="9.425119364264713"><ele>92.0</ele><time>2026-04-11T10:03:31Z</time></trkpt><trkpt lat="45.20052148059527" lon="9.425077103855761"><ele>92.0</ele><time>2026-04-11T10:03:32Z</time></trkpt><trkpt lat="45.20062497475312" lon="9.425022078111327"><ele>92.0</ele><time>2026-04-11T10:03:34Z</time></trkpt><trkpt lat="45.20067029477426" lon="9.425103627113195"><ele>92.0</ele><time>2026-04-11T10:03:38Z</time></trkpt><trkpt lat="45.20068292236722" lon="9.42524590661983"><ele>92.0</ele><time>2026-04-11T10:03:40Z</time></trkpt><trkpt lat="45.200694598936785" lon="9.4253563496839"><ele>91.66666666666667</ele><time>2026-04-11T10:03:41Z</time></trkpt><trkpt lat="45.200708201645874" lon="9.425461099389047"><ele>91.33333333333334</ele><time>2026-04-11T10:03:42Z</time></trkpt><trkpt lat="45.20071799654517" lon="9.425561042398128"><ele>91.0</ele><time>2026-04-11T10:03:43Z</time></trkpt><trkpt lat="45.20072986846128" lon="9.425674700336506"><ele>90.66666666666667</ele><time>2026-04-11T10:03:44Z</time></trkpt><trkpt lat="45.20074575346948" lon="9.425800313472749"><ele>90.33333333333333</ele><time>2026-04-11T10:03:45Z</time></trkpt><trkpt lat="45.2007559607146" lon="9.425920883432122"><ele>90.0</ele><time>2026-04-11T10:03:46Z</time></trkpt><trkpt lat="45.200762921364294" lon="9.426032042065774"><ele>90.0</ele><time>2026-04-11T10:03:47Z</time></trkpt><trkpt lat="45.200782489057076" lon="9.426120911717323"><ele>90.0</ele><time>2026-04-11T10:03:48Z</time></trkpt><trkpt lat="45.200849798157435" lon="9.426271314291208"><ele>90.0</ele><time>2026-04-11T10:03:50Z</time></trkpt><trkpt lat="45.20087259101906" lon="9.426365350792173"><ele>90.0</ele><time>2026-04-11T10:03:51Z</time></trkpt><trkpt lat="45.20098128960624" lon="9.42646529423572"><ele>90.0</ele><time>2026-04-11T10:03:53Z</time></trkpt><trkpt lat="45.20104619964231" lon="9.42648685773185"><ele>90.0</ele><time>2026-04-11T10:03:54Z</time></trkpt><trkpt lat="45.20111467633488" lon="9.426497912184251"><ele>90.0</ele><time>2026-04-11T10:03:55Z</time></trkpt><trkpt lat="45.20116444834356" lon="9.426601753948518"><ele>90.0</ele><time>2026-04-11T10:03:57Z</time></trkpt><trkpt lat="45.20117800945801" lon="9.42677048108991"><ele>90.0</ele><time>2026-04-11T10:03:59Z</time></trkpt><trkpt lat="45.20117028779655" lon="9.426874377697628"><ele>90.0</ele><time>2026-04-11T10:04:00Z</time></trkpt><trkpt lat="45.20115969407102" lon="9.42698028088909"><ele>90.0</ele><time>2026-04-11T10:04:01Z</time></trkpt><trkpt lat="45.20115218227199" lon="9.427089654132098"><ele>90.0</ele><time>2026-04-11T10:04:02Z</time></trkpt><trkpt lat="45.20113832595997" lon="9.4271887980589"><ele>90.0</ele><time>2026-04-11T10:04:03Z</time></trkpt><trkpt lat="45.20112025641427" lon="9.42728838051391"><ele>90.0</ele><time>2026-04-11T10:04:04Z</time></trkpt><trkpt lat="45.201081660428734" lon="9.427486072394625"><ele>90.0</ele><time>2026-04-11T10:04:06Z</time></trkpt><trkpt lat="45.20103433697579" lon="9.427565094643775"><ele>90.0</ele><time>2026-04-11T10:04:07Z</time></trkpt><trkpt lat="45.20097506078718" lon="9.4276312494097"><ele>90.0</ele><time>2026-04-11T10:04:08Z</time></trkpt><trkpt lat="45.200913565640825" lon="9.427696855095707"><ele>90.0</ele><time>2026-04-11T10:04:08.999Z</time></trkpt><trkpt lat="45.20084639133085" lon="9.427765738015543"><ele>90.0</ele><time>2026-04-11T10:04:09.999Z</time></trkpt><trkpt lat="45.200790606786136" lon="9.427866338257184"><ele>90.0</ele><time>2026-04-11T10:04:11.999Z</time></trkpt><trkpt lat="45.200785082414406" lon="9.427977858700054"><ele>90.0</ele><time>2026-04-11T10:04:13.999Z</time></trkpt><trkpt lat="45.20080816189384" lon="9.428162063684361"><ele>90.0</ele><time>2026-04-11T10:04:15.999Z</time></trkpt><trkpt lat="45.20082006300754" lon="9.42826657516589"><ele>90.0</ele><time>2026-04-11T10:04:16.999Z</time></trkpt><trkpt lat="45.200841739087814" lon="9.428376682605093"><ele>90.0</ele><time>2026-04-11T10:04:17.999Z</time></trkpt><trkpt lat="45.200874940161455" lon="9.428484396946848"><ele>90.0</ele><time>2026-04-11T10:04:18.999Z</time></trkpt><trkpt lat="45.2009006790678" lon="9.42858698048356"><ele>90.0</ele><time>2026-04-11T10:04:19.999Z</time></trkpt><trkpt lat="45.20089890913893" lon="9.428729168924589"><ele>90.0</ele><time>2026-04-11T10:04:20.999Z</time></trkpt><trkpt lat="45.20090536203397" lon="9.42887640908938"><ele>90.0</ele><time>2026-04-11T10:04:21.999Z</time></trkpt><trkpt lat="45.200921005524656" lon="9.429031096413677"><ele>89.66666666666667</ele><time>2026-04-11T10:04:22.999Z</time></trkpt><trkpt lat="45.20094051978382" lon="9.429176952635657"><ele>89.33333333333333</ele><time>2026-04-11T10:04:23.999Z</time></trkpt><trkpt lat="45.20095622090518" lon="9.42931749290562"><ele>89.0</ele><time>2026-04-11T10:04:24.999Z</time></trkpt><trkpt lat="45.20097101454388" lon="9.429435553497449"><ele>88.66666666666666</ele><time>2026-04-11T10:04:25.999Z</time></trkpt><trkpt lat="45.20099168202146" lon="9.429537012372279"><ele>88.33333333333333</ele><time>2026-04-11T10:04:26.999Z</time></trkpt><trkpt lat="45.201005334720335" lon="9.429635698417275"><ele>88.0</ele><time>2026-04-11T10:04:27.999Z</time></trkpt><trkpt lat="45.20102855942507" lon="9.429825655987042"><ele>88.0</ele><time>2026-04-11T10:04:29.999Z</time></trkpt><trkpt lat="45.201045379620524" lon="9.42993815501916"><ele>88.0</ele><time>2026-04-11T10:04:30.999Z</time></trkpt><trkpt lat="45.20106888150753" lon="9.430108538662859"><ele>88.0</ele><time>2026-04-11T10:04:32.999Z</time></trkpt><trkpt lat="45.2010730666159" lon="9.430226941963243"><ele>88.0</ele><time>2026-04-11T10:04:34.999Z</time></trkpt><trkpt lat="45.201064360236266" lon="9.43031841311891"><ele>88.0</ele><time>2026-04-11T10:04:36.999Z</time></trkpt><trkpt lat="45.20107152007833" lon="9.430423226302482"><ele>88.0</ele><time>2026-04-11T10:04:39.999Z</time></trkpt><trkpt lat="45.20108852557718" lon="9.430513688392471"><ele>88.16666666666666</ele><time>2026-04-11T10:04:41.999Z</time></trkpt><trkpt lat="45.20112885171676" lon="9.4306096489614"><ele>88.33333333333333</ele><time>2026-04-11T10:04:44.999Z</time></trkpt><trkpt lat="45.20116490365381" lon="9.430698458898938"><ele>88.5</ele><time>2026-04-11T10:04:47.999Z</time></trkpt><trkpt lat="45.20109860904084" lon="9.430747170688072"><ele>88.66666666666667</ele><time>2026-04-11T10:04:51.999Z</time></trkpt><trkpt lat="45.201024876574955" lon="9.430791608267247"><ele>88.83333333333334</ele><time>2026-04-11T10:04:53.999Z</time></trkpt><trkpt lat="45.2009054352304" lon="9.430795788027481"><ele>89.0</ele><time>2026-04-11T10:04:55.999Z</time></trkpt><trkpt lat="45.20079787896529" lon="9.430823111058688"><ele>89.0</ele><time>2026-04-11T10:04:57.999Z</time></trkpt><trkpt lat="45.200689946245284" lon="9.430848701688337"><ele>89.0</ele><time>2026-04-11T10:04:59.999Z</time></trkpt><trkpt lat="45.200569117235396" lon="9.43086176785643"><ele>89.0</ele><time>2026-04-11T10:05:01.999Z</time></trkpt><trkpt lat="45.20044792103989" lon="9.430868884913469"><ele>89.0</ele><time>2026-04-11T10:05:03.999Z</time></trkpt><trkpt lat="45.20038334781388" lon="9.430877248817035"><ele>89.0</ele><time>2026-04-11T10:05:04.999Z</time></trkpt><trkpt lat="45.20031874079351" lon="9.430888092305164"><ele>89.33333333333334</ele><time>2026-04-11T10:05:05.999Z</time></trkpt><trkpt lat="45.200250166213955" lon="9.43092031948783"><ele>89.66666666666667</ele><time>2026-04-11T10:05:06.999Z</time></trkpt><trkpt lat="45.200126467456045" lon="9.430951442410997"><ele>90.0</ele><time>2026-04-11T10:05:08.999Z</time></trkpt><trkpt lat="45.200048807158836" lon="9.430949254724835"><ele>90.33333333333333</ele><time>2026-04-11T10:05:09.999Z</time></trkpt><trkpt lat="45.199982920432205" lon="9.430954232671446"><ele>90.66666666666666</ele><time>2026-04-11T10:05:10.999Z</time></trkpt><trkpt lat="45.19991287499027" lon="9.430970405116113"><ele>91.0</ele><time>2026-04-11T10:05:11.999Z</time></trkpt><trkpt lat="45.199793494436136" lon="9.430979010243727"><ele>91.0</ele><time>2026-04-11T10:05:13.999Z</time></trkpt><trkpt lat="45.19965254259717" lon="9.431009600650107"><ele>91.0</ele><time>2026-04-11T10:05:15.999Z</time></trkpt><trkpt lat="45.19958756517244" lon="9.431015415465916"><ele>91.0</ele><time>2026-04-11T10:05:16.999Z</time></trkpt><trkpt lat="45.19952162923879" lon="9.431029167181267"><ele>91.0</ele><time>2026-04-11T10:05:17.999Z</time></trkpt><trkpt lat="45.199458626515444" lon="9.431047361636152"><ele>91.0</ele><time>2026-04-11T10:05:18.998Z</time></trkpt><trkpt lat="45.199341901028724" lon="9.43106165534034"><ele>91.0</ele><time>2026-04-11T10:05:20.998Z</time></trkpt><trkpt lat="45.1992764503285" lon="9.431079365219581"><ele>91.0</ele><time>2026-04-11T10:05:21.998Z</time></trkpt><trkpt lat="45.19919624142017" lon="9.431099794685627"><ele>91.0</ele><time>2026-04-11T10:05:23Z</time></trkpt><trkpt lat="45.19913313647731" lon="9.43110873040888"><ele>91.0</ele><time>2026-04-11T10:05:24Z</time></trkpt><trkpt lat="45.199069750170665" lon="9.431119712920795"><ele>91.0</ele><time>2026-04-11T10:05:25Z</time></trkpt><trkpt lat="45.19899305200463" lon="9.431150524275578"><ele>91.0</ele><time>2026-04-11T10:05:27Z</time></trkpt><trkpt lat="45.19894118632259" lon="9.431201771677252"><ele>91.0</ele><time>2026-04-11T10:05:29Z</time></trkpt><trkpt lat="45.198914507589045" lon="9.431313839013802"><ele>91.6</ele><time>2026-04-11T10:05:31Z</time></trkpt><trkpt lat="45.198932920551236" lon="9.431429544717123"><ele>92.19999999999999</ele><time>2026-04-11T10:05:33Z</time></trkpt><trkpt lat="45.19894331727246" lon="9.431550995869836"><ele>92.80000000000001</ele><time>2026-04-11T10:05:35Z</time></trkpt><trkpt lat="45.198957673494306" lon="9.431678472510892"><ele>93.4</ele><time>2026-04-11T10:05:37Z</time></trkpt><trkpt lat="45.19897381874485" lon="9.43182370504557"><ele>94.0</ele><time>2026-04-11T10:05:39Z</time></trkpt><trkpt lat="45.19898632548341" lon="9.431967591404698"><ele>94.0</ele><time>2026-04-11T10:05:41Z</time></trkpt><trkpt lat="45.19898949568204" lon="9.432135086981072"><ele>94.0</ele><time>2026-04-11T10:05:43Z</time></trkpt><trkpt lat="45.19897684822696" lon="9.432333739174487"><ele>94.0</ele><time>2026-04-11T10:05:45Z</time></trkpt><trkpt lat="45.19896908936353" lon="9.432426097554977"><ele>94.0</ele><time>2026-04-11T10:05:46Z</time></trkpt><trkpt lat="45.19895582706479" lon="9.432580569185482"><ele>94.0</ele><time>2026-04-11T10:05:48Z</time></trkpt><trkpt lat="45.19895999685095" lon="9.43275974677373"><ele>94.0</ele><time>2026-04-11T10:05:50Z</time></trkpt><trkpt lat="45.19898431185547" lon="9.432942411814333"><ele>94.0</ele><time>2026-04-11T10:05:52Z</time></trkpt><trkpt lat="45.19901258834263" lon="9.433048765573481"><ele>94.0</ele><time>2026-04-11T10:05:53Z</time></trkpt><trkpt lat="45.19903343447839" lon="9.433148699356803"><ele>94.0</ele><time>2026-04-11T10:05:54Z</time></trkpt><trkpt lat="45.19904890625705" lon="9.43326182774532"><ele>94.0</ele><time>2026-04-11T10:05:55Z</time></trkpt><trkpt lat="45.199075678473235" lon="9.433447430405236"><ele>94.0</ele><time>2026-04-11T10:05:57Z</time></trkpt><trkpt lat="45.19908458429883" lon="9.43354633583079"><ele>94.0</ele><time>2026-04-11T10:05:58Z</time></trkpt><trkpt lat="45.19908136345062" lon="9.433666296071374"><ele>94.0</ele><time>2026-04-11T10:05:59Z</time></trkpt><trkpt lat="45.19909156995731" lon="9.433766725003581"><ele>94.0</ele><time>2026-04-11T10:06:00Z</time></trkpt><trkpt lat="45.199105912521574" lon="9.433860127580898"><ele>94.0</ele><time>2026-04-11T10:06:01Z</time></trkpt><trkpt lat="45.199122272086484" lon="9.433948455044918"><ele>94.0</ele><time>2026-04-11T10:06:02Z</time></trkpt><trkpt lat="45.19913651499916" lon="9.434045454088139"><ele>94.0</ele><time>2026-04-11T10:06:03Z</time></trkpt><trkpt lat="45.199152365017056" lon="9.434143685891588"><ele>94.0</ele><time>2026-04-11T10:06:04Z</time></trkpt><trkpt lat="45.19917509839918" lon="9.434261175444647"><ele>94.0</ele><time>2026-04-11T10:06:05Z</time></trkpt><trkpt lat="45.19918328376401" lon="9.43437339024207"><ele>94.0</ele><time>2026-04-11T10:06:06Z</time></trkpt><trkpt lat="45.19918534517086" lon="9.43446949714701"><ele>94.0</ele><time>2026-04-11T10:06:06.999Z</time></trkpt><trkpt lat="45.19919199622338" lon="9.434564161011743"><ele>94.0</ele><time>2026-04-11T10:06:07.999Z</time></trkpt><trkpt lat="45.19920093989782" lon="9.434657598582442"><ele>94.0</ele><time>2026-04-11T10:06:08.999Z</time></trkpt><trkpt lat="45.1992086457862" lon="9.434751591587151"><ele>94.0</ele><time>2026-04-11T10:06:09.999Z</time></trkpt><trkpt lat="45.1992241656906" lon="9.434842988668594"><ele>94.0</ele><time>2026-04-11T10:06:10.999Z</time></trkpt><trkpt lat="45.19923742939968" lon="9.434942588050026"><ele>94.0</ele><time>2026-04-11T10:06:11.999Z</time></trkpt><trkpt lat="45.199248720747526" lon="9.435047414434797"><ele>94.0</ele><time>2026-04-11T10:06:12.999Z</time></trkpt><trkpt lat="45.19925555214685" lon="9.43515562835902"><ele>94.0</ele><time>2026-04-11T10:06:13.999Z</time></trkpt><trkpt lat="45.199263067698574" lon="9.43526396256296"><ele>94.0</ele><time>2026-04-11T10:06:14.999Z</time></trkpt><trkpt lat="45.19926574338469" lon="9.435373765178309"><ele>94.0</ele><time>2026-04-11T10:06:15.999Z</time></trkpt><trkpt lat="45.199276475073205" lon="9.43549225718284"><ele>93.83333333333333</ele><time>2026-04-11T10:06:16.999Z</time></trkpt><trkpt lat="45.19929073863839" lon="9.435613413673671"><ele>93.66666666666666</ele><time>2026-04-11T10:06:17.999Z</time></trkpt><trkpt lat="45.19930299596279" lon="9.435715486099939"><ele>93.5</ele><time>2026-04-11T10:06:18.999Z</time></trkpt><trkpt lat="45.19931482918082" lon="9.435820607009369"><ele>93.33333333333333</ele><time>2026-04-11T10:06:19.999Z</time></trkpt><trkpt lat="45.19932270593442" lon="9.435933600280542"><ele>93.16666666666667</ele><time>2026-04-11T10:06:20.999Z</time></trkpt><trkpt lat="45.19933004285715" lon="9.436035423718515"><ele>93.0</ele><time>2026-04-11T10:06:21.999Z</time></trkpt><trkpt lat="45.199337599984254" lon="9.436135697327295"><ele>93.0</ele><time>2026-04-11T10:06:22.999Z</time></trkpt><trkpt lat="45.19934463551434" lon="9.43629640126934"><ele>93.0</ele><time>2026-04-11T10:06:24.999Z</time></trkpt><trkpt lat="45.19935602352221" lon="9.436407469701134"><ele>93.0</ele><time>2026-04-11T10:06:26.999Z</time></trkpt><trkpt lat="45.19933607045173" lon="9.43652668278469"><ele>93.0</ele><time>2026-04-11T10:06:30.999Z</time></trkpt><trkpt lat="45.199216113725434" lon="9.436563447332826"><ele>93.0</ele><time>2026-04-11T10:06:32.999Z</time></trkpt><trkpt lat="45.19911209563658" lon="9.436604060674922"><ele>93.2</ele><time>2026-04-11T10:06:34.999Z</time></trkpt><trkpt lat="45.19901999582197" lon="9.436653488359001"><ele>93.4</ele><time>2026-04-11T10:06:36.999Z</time></trkpt><trkpt lat="45.19899377386436" lon="9.43678355533784"><ele>93.60000000000001</ele><time>2026-04-11T10:06:38.999Z</time></trkpt><trkpt lat="45.19905365829208" lon="9.436890683453472"><ele>93.80000000000001</ele><time>2026-04-11T10:06:40.999Z</time></trkpt><trkpt lat="45.199132326465225" lon="9.437024301095153"><ele>94.0</ele><time>2026-04-11T10:06:42.999Z</time></trkpt><trkpt lat="45.199172225071" lon="9.437097932471481"><ele>94.2</ele><time>2026-04-11T10:06:43.999Z</time></trkpt><trkpt lat="45.19921409748732" lon="9.437195635937906"><ele>94.4</ele><time>2026-04-11T10:06:45.999Z</time></trkpt><trkpt lat="45.19927239869323" lon="9.437318955175071"><ele>94.6</ele><time>2026-04-11T10:06:47.999Z</time></trkpt><trkpt lat="45.19933170402648" lon="9.437423500600898"><ele>94.8</ele><time>2026-04-11T10:06:49.999Z</time></trkpt><trkpt lat="45.19938714416086" lon="9.437538940118973"><ele>95.0</ele><time>2026-04-11T10:06:51.999Z</time></trkpt><trkpt lat="45.19943996033197" lon="9.437636588347114"><ele>95.0</ele><time>2026-04-11T10:06:53.999Z</time></trkpt><trkpt lat="45.19949472324586" lon="9.43773444671849"><ele>95.0</ele><time>2026-04-11T10:06:55.999Z</time></trkpt><trkpt lat="45.19953033824122" lon="9.437839716593615"><ele>95.0</ele><time>2026-04-11T10:06:57.999Z</time></trkpt><trkpt lat="45.19956971452994" lon="9.43796612690532"><ele>95.0</ele><time>2026-04-11T10:06:59.999Z</time></trkpt><trkpt lat="45.19961411948557" lon="9.438099698922812"><ele>95.0</ele><time>2026-04-11T10:07:01.999Z</time></trkpt><trkpt lat="45.19965719559588" lon="9.438209746610108"><ele>95.0</ele><time>2026-04-11T10:07:03.999Z</time></trkpt><trkpt lat="45.199700572308664" lon="9.438309479493551"><ele>95.0</ele><time>2026-04-11T10:07:05.999Z</time></trkpt><trkpt lat="45.199756200216285" lon="9.438453939353687"><ele>95.0</ele><time>2026-04-11T10:07:07.999Z</time></trkpt><trkpt lat="45.19980719742089" lon="9.43857407966778"><ele>95.0</ele><time>2026-04-11T10:07:09.999Z</time></trkpt><trkpt lat="45.19986123994356" lon="9.438690162913652"><ele>95.0</ele><time>2026-04-11T10:07:11.999Z</time></trkpt><trkpt lat="45.19991642071915" lon="9.438806693933566"><ele>93.6</ele><time>2026-04-11T10:07:13.999Z</time></trkpt><trkpt lat="45.19996551478157" lon="9.438906429221362"><ele>92.2</ele><time>2026-04-11T10:07:15.999Z</time></trkpt><trkpt lat="45.200023559587706" lon="9.439003879072246"><ele>90.80000000000001</ele><time>2026-04-11T10:07:17.999Z</time></trkpt><trkpt lat="45.20009596194575" lon="9.43912795463283"><ele>89.4</ele><time>2026-04-11T10:07:19.998Z</time></trkpt><trkpt lat="45.20014465277381" lon="9.439275957920641"><ele>88.0</ele><time>2026-04-11T10:07:21.998Z</time></trkpt><trkpt lat="45.200160370077384" lon="9.439405692690134"><ele>88.0</ele><time>2026-04-11T10:07:23.998Z</time></trkpt><trkpt lat="45.20018406014978" lon="9.439499131536591"><ele>88.0</ele><time>2026-04-11T10:07:25.998Z</time></trkpt><trkpt lat="45.20020919360572" lon="9.439642460698309"><ele>88.0</ele><time>2026-04-11T10:07:27.998Z</time></trkpt><trkpt lat="45.20023656199349" lon="9.43977463064734"><ele>88.0</ele><time>2026-04-11T10:07:30Z</time></trkpt><trkpt lat="45.20028039590702" lon="9.43992196860959"><ele>88.0</ele><time>2026-04-11T10:07:32Z</time></trkpt><trkpt lat="45.20035915375797" lon="9.440046747619302"><ele>87.80000000000001</ele><time>2026-04-11T10:07:35Z</time></trkpt><trkpt lat="45.20040749262171" lon="9.440176460345603"><ele>87.6</ele><time>2026-04-11T10:07:37Z</time></trkpt><trkpt lat="45.200436958275574" lon="9.440297846976678"><ele>87.4</ele><time>2026-04-11T10:07:40Z</time></trkpt><trkpt lat="45.20040548011302" lon="9.44042623133733"><ele>87.19999999999999</ele><time>2026-04-11T10:07:42Z</time></trkpt><trkpt lat="45.20036178429136" lon="9.440516992746208"><ele>87.0</ele><time>2026-04-11T10:07:44Z</time></trkpt><trkpt lat="45.20031585394333" lon="9.440632835142328"><ele>86.5</ele><time>2026-04-11T10:07:46Z</time></trkpt><trkpt lat="45.200305241892146" lon="9.440755526999478"><ele>86.0</ele><time>2026-04-11T10:07:48Z</time></trkpt><trkpt lat="45.20032273789919" lon="9.440914867614303"><ele>85.5</ele><time>2026-04-11T10:07:50Z</time></trkpt><trkpt lat="45.20033144836463" lon="9.441043218468756"><ele>85.0</ele><time>2026-04-11T10:07:52Z</time></trkpt><trkpt lat="45.200336932523044" lon="9.441140862973187"><ele>84.5</ele><time>2026-04-11T10:07:55Z</time></trkpt><trkpt lat="45.2003667112006" lon="9.441232896115944"><ele>84.0</ele><time>2026-04-11T10:07:57Z</time></trkpt><trkpt lat="45.20040190903008" lon="9.441317532387734"><ele>83.0</ele><time>2026-04-11T10:07:59Z</time></trkpt><trkpt lat="45.200452931268174" lon="9.441422891289692"><ele>82.0</ele><time>2026-04-11T10:08:01Z</time></trkpt><trkpt lat="45.20047874790721" lon="9.441549221318278"><ele>81.0</ele><time>2026-04-11T10:08:03Z</time></trkpt><trkpt lat="45.200512358029236" lon="9.44165943933019"><ele>80.0</ele><time>2026-04-11T10:08:05Z</time></trkpt><trkpt lat="45.20055775012647" lon="9.441778815033388"><ele>79.0</ele><time>2026-04-11T10:08:07Z</time></trkpt><trkpt lat="45.200617265533005" lon="9.441905596491257"><ele>78.83333333333333</ele><time>2026-04-11T10:08:09Z</time></trkpt><trkpt lat="45.2006799616337" lon="9.442002608822033"><ele>78.66666666666666</ele><time>2026-04-11T10:08:11Z</time></trkpt><trkpt lat="45.200722892769406" lon="9.442079137232762"><ele>78.5</ele><time>2026-04-11T10:08:13Z</time></trkpt><trkpt lat="45.200750239883604" lon="9.442192296021265"><ele>78.33333333333333</ele><time>2026-04-11T10:08:14.999Z</time></trkpt><trkpt lat="45.20074499164615" lon="9.442313161891352"><ele>78.16666666666667</ele><time>2026-04-11T10:08:17.999Z</time></trkpt><trkpt lat="45.20069489342421" lon="9.44238445612093"><ele>78.0</ele><time>2026-04-11T10:08:19.999Z</time></trkpt><trkpt lat="45.20063408900075" lon="9.44240799760041"><ele>78.0</ele><time>2026-04-11T10:08:21.999Z</time></trkpt><trkpt lat="45.200527412689794" lon="9.44243006647828"><ele>78.0</ele><time>2026-04-11T10:09:12.999Z</time></trkpt><trkpt lat="45.200453127234375" lon="9.442441204189903"><ele>78.0</ele><time>2026-04-11T10:09:13.999Z</time></trkpt><trkpt lat="45.20037112901797" lon="9.442441475545262"><ele>78.0</ele><time>2026-04-11T10:09:14.999Z</time></trkpt><trkpt lat="45.20029784321011" lon="9.442449972943866"><ele>78.0</ele><time>2026-04-11T10:09:15.999Z</time></trkpt><trkpt lat="45.200229420017926" lon="9.44245383911428"><ele>78.0</ele><time>2026-04-11T10:09:16.999Z</time></trkpt><trkpt lat="45.200108086060325" lon="9.442475971196298"><ele>78.0</ele><time>2026-04-11T10:09:18.999Z</time></trkpt><trkpt lat="45.20002353241748" lon="9.442548410863175"><ele>78.0</ele><time>2026-04-11T10:09:20.999Z</time></trkpt><trkpt lat="45.199957007994776" lon="9.442600316950962"><ele>78.0</ele><time>2026-04-11T10:09:22.999Z</time></trkpt><trkpt lat="45.199880038046466" lon="9.442723520244297"><ele>78.0</ele><time>2026-04-11T10:09:24.999Z</time></trkpt><trkpt lat="45.19981391537653" lon="9.44287233930665"><ele>78.0</ele><time>2026-04-11T10:09:26.999Z</time></trkpt><trkpt lat="45.19977412252814" lon="9.443033874642751"><ele>78.0</ele><time>2026-04-11T10:09:28.998Z</time></trkpt><trkpt lat="45.19976766438883" lon="9.443125329473121"><ele>78.0</ele><time>2026-04-11T10:09:29.998Z</time></trkpt><trkpt lat="45.19977725507519" lon="9.443289407120927"><ele>78.0</ele><time>2026-04-11T10:09:31.998Z</time></trkpt><trkpt lat="45.199801515203056" lon="9.443391003048184"><ele>78.0</ele><time>2026-04-11T10:09:32.998Z</time></trkpt><trkpt lat="45.199824881782284" lon="9.443484690126482"><ele>78.0</ele><time>2026-04-11T10:09:33.998Z</time></trkpt><trkpt lat="45.19985442055433" lon="9.443638696832156"><ele>78.0</ele><time>2026-04-11T10:09:36Z</time></trkpt><trkpt lat="45.19989265100233" lon="9.443783215918875"><ele>77.6</ele><time>2026-04-11T10:09:38Z</time></trkpt><trkpt lat="45.19991568690119" lon="9.443908578071529"><ele>77.19999999999999</ele><time>2026-04-11T10:09:40Z</time></trkpt><trkpt lat="45.199938254908595" lon="9.44406759331281"><ele>76.8</ele><time>2026-04-11T10:09:42Z</time></trkpt><trkpt lat="45.19994175139607" lon="9.444248361559842"><ele>76.39999999999999</ele><time>2026-04-11T10:09:44Z</time></trkpt><trkpt lat="45.19989827415622" lon="9.44439777730894"><ele>76.0</ele><time>2026-04-11T10:09:46Z</time></trkpt><trkpt lat="45.19984967660829" lon="9.444517982540507"><ele>76.2</ele><time>2026-04-11T10:09:48Z</time></trkpt><trkpt lat="45.199783167820435" lon="9.444655109051418"><ele>76.39999999999999</ele><time>2026-04-11T10:09:50Z</time></trkpt><trkpt lat="45.19973820088426" lon="9.44473782272329"><ele>76.6</ele><time>2026-04-11T10:09:51Z</time></trkpt><trkpt lat="45.19969544428503" lon="9.444817346702486"><ele>76.8</ele><time>2026-04-11T10:09:52Z</time></trkpt><trkpt lat="45.199630400664354" lon="9.444922521725708"><ele>77.0</ele><time>2026-04-11T10:09:54Z</time></trkpt><trkpt lat="45.19958115539099" lon="9.445031843232503"><ele>77.0</ele><time>2026-04-11T10:09:57Z</time></trkpt><trkpt lat="45.19952696449183" lon="9.445082937232288"><ele>77.0</ele><time>2026-04-11T10:11:52Z</time></trkpt><trkpt lat="45.1994638157006" lon="9.4451354101293"><ele>77.0</ele><time>2026-04-11T10:12:09Z</time></trkpt><trkpt lat="45.199406952194984" lon="9.445184407299017"><ele>77.0</ele><time>2026-04-11T10:12:14Z</time></trkpt><trkpt lat="45.19939672256264" lon="9.445276742989247"><ele>77.0</ele><time>2026-04-11T10:13:18.999Z</time></trkpt><trkpt lat="45.19948372472133" lon="9.445389374587593"><ele>77.0</ele><time>2026-04-11T10:13:20.999Z</time></trkpt><trkpt lat="45.19955991014446" lon="9.445468057838276"><ele>75.5</ele><time>2026-04-11T10:13:21.999Z</time></trkpt><trkpt lat="45.199624524931444" lon="9.445548567653749"><ele>74.0</ele><time>2026-04-11T10:13:22.999Z</time></trkpt><trkpt lat="45.19971128138394" lon="9.445659422668605"><ele>72.5</ele><time>2026-04-11T10:13:23.999Z</time></trkpt><trkpt lat="45.19981223945701" lon="9.445786915628704"><ele>71.0</ele><time>2026-04-11T10:13:24.999Z</time></trkpt><trkpt lat="45.199897471429274" lon="9.445914557712381"><ele>71.0</ele><time>2026-04-11T10:13:25.999Z</time></trkpt><trkpt lat="45.19996166465746" lon="9.446009856366135"><ele>71.0</ele><time>2026-04-11T10:13:26.999Z</time></trkpt><trkpt lat="45.200015551497515" lon="9.446085533252896"><ele>71.0</ele><time>2026-04-11T10:13:27.999Z</time></trkpt><trkpt lat="45.20007023390315" lon="9.44616295746351"><ele>71.0</ele><time>2026-04-11T10:13:28.999Z</time></trkpt><trkpt lat="45.20013629234351" lon="9.446263024217766"><ele>71.0</ele><time>2026-04-11T10:13:30.999Z</time></trkpt><trkpt lat="45.20011935738259" lon="9.446349888600748"><ele>71.0</ele><time>2026-04-11T10:13:39.999Z</time></trkpt><trkpt lat="45.20003671355944" lon="9.446472221075533"><ele>70.8</ele><time>2026-04-11T10:13:41.999Z</time></trkpt><trkpt lat="45.19997452271765" lon="9.446570616207147"><ele>70.6</ele><time>2026-04-11T10:13:42.999Z</time></trkpt><trkpt lat="45.199901821622255" lon="9.446675241900328"><ele>70.4</ele><time>2026-04-11T10:13:43.999Z</time></trkpt><trkpt lat="45.199838096815355" lon="9.446775947113707"><ele>70.2</ele><time>2026-04-11T10:13:44.999Z</time></trkpt><trkpt lat="45.1997757935983" lon="9.446874175763984"><ele>70.0</ele><time>2026-04-11T10:13:45.999Z</time></trkpt><trkpt lat="45.199712624142045" lon="9.44697137917706"><ele>70.0</ele><time>2026-04-11T10:13:47.001Z</time></trkpt><trkpt lat="45.199644032691545" lon="9.447070662365567"><ele>70.0</ele><time>2026-04-11T10:13:48.001Z</time></trkpt><trkpt lat="45.19958099645829" lon="9.447162820583346"><ele>70.0</ele><time>2026-04-11T10:13:49.001Z</time></trkpt><trkpt lat="45.199518936302454" lon="9.44726258431437"><ele>70.0</ele><time>2026-04-11T10:13:50.001Z</time></trkpt><trkpt lat="45.19944225020817" lon="9.44737413068599"><ele>70.0</ele><time>2026-04-11T10:13:51.001Z</time></trkpt><trkpt lat="45.19937607818648" lon="9.4474791695179"><ele>70.0</ele><time>2026-04-11T10:13:52.001Z</time></trkpt><trkpt lat="45.19931588951059" lon="9.447570780041193"><ele>70.0</ele><time>2026-04-11T10:13:53.001Z</time></trkpt><trkpt lat="45.19925141515469" lon="9.447672825587999"><ele>70.0</ele><time>2026-04-11T10:13:54.001Z</time></trkpt><trkpt lat="45.19917009821461" lon="9.447789191960247"><ele>70.0</ele><time>2026-04-11T10:13:55.001Z</time></trkpt><trkpt lat="45.19909096133398" lon="9.447896201442338"><ele>70.0</ele><time>2026-04-11T10:13:56.001Z</time></trkpt><trkpt lat="45.19904355309296" lon="9.447971875632737"><ele>70.2</ele><time>2026-04-11T10:13:57.001Z</time></trkpt><trkpt lat="45.198975408405744" lon="9.448087727605284"><ele>70.4</ele><time>2026-04-11T10:13:58Z</time></trkpt><trkpt lat="45.19890056058625" lon="9.448199282179484"><ele>70.6</ele><time>2026-04-11T10:13:59Z</time></trkpt><trkpt lat="45.19883117149805" lon="9.448308310836392"><ele>70.8</ele><time>2026-04-11T10:14:00Z</time></trkpt><trkpt lat="45.19875031508609" lon="9.44842006957919"><ele>71.0</ele><time>2026-04-11T10:14:01Z</time></trkpt><trkpt lat="45.19867783296136" lon="9.44852330712875"><ele>71.0</ele><time>2026-04-11T10:14:02Z</time></trkpt><trkpt lat="45.19860414319263" lon="9.44863541717281"><ele>71.0</ele><time>2026-04-11T10:14:03Z</time></trkpt><trkpt lat="45.19853929104159" lon="9.448734844349884"><ele>71.0</ele><time>2026-04-11T10:14:04Z</time></trkpt><trkpt lat="45.19846577600924" lon="9.448835265694433"><ele>71.0</ele><time>2026-04-11T10:14:05Z</time></trkpt><trkpt lat="45.19839011447542" lon="9.448951754577399"><ele>71.0</ele><time>2026-04-11T10:14:06Z</time></trkpt><trkpt lat="45.1983197945376" lon="9.449057117513911"><ele>70.8</ele><time>2026-04-11T10:14:07Z</time></trkpt><trkpt lat="45.19825964616173" lon="9.44915946076476"><ele>70.6</ele><time>2026-04-11T10:14:08Z</time></trkpt><trkpt lat="45.198175076978025" lon="9.449268748169102"><ele>70.4</ele><time>2026-04-11T10:14:09Z</time></trkpt><trkpt lat="45.19811314814709" lon="9.449378702103512"><ele>70.2</ele><time>2026-04-11T10:14:10Z</time></trkpt><trkpt lat="45.198033052399275" lon="9.449488770437734"><ele>70.0</ele><time>2026-04-11T10:14:11Z</time></trkpt><trkpt lat="45.19796269727985" lon="9.449592774327996"><ele>70.33333333333333</ele><time>2026-04-11T10:14:12Z</time></trkpt><trkpt lat="45.1979123182522" lon="9.449666925084209"><ele>70.66666666666666</ele><time>2026-04-11T10:14:13Z</time></trkpt><trkpt lat="45.19785443003314" lon="9.449748489172402"><ele>71.0</ele><time>2026-04-11T10:14:14Z</time></trkpt><trkpt lat="45.19780777339879" lon="9.449814810619463"><ele>71.33333333333333</ele><time>2026-04-11T10:14:15Z</time></trkpt><trkpt lat="45.19773351556382" lon="9.449905307530104"><ele>71.66666666666667</ele><time>2026-04-11T10:14:17Z</time></trkpt><trkpt lat="45.197707830476574" lon="9.450037305637958"><ele>72.0</ele><time>2026-04-11T10:14:19Z</time></trkpt><trkpt lat="45.19769486422228" lon="9.450127133949248"><ele>72.0</ele><time>2026-04-11T10:14:21Z</time></trkpt><trkpt lat="45.19761720117994" lon="9.450255350303074"><ele>72.0</ele><time>2026-04-11T10:14:23Z</time></trkpt><trkpt lat="45.19755626546533" lon="9.450345619867537"><ele>72.0</ele><time>2026-04-11T10:14:24Z</time></trkpt><trkpt lat="45.19748985987207" lon="9.450437476487089"><ele>72.0</ele><time>2026-04-11T10:14:25Z</time></trkpt><trkpt lat="45.197428562321214" lon="9.45053301393247"><ele>72.0</ele><time>2026-04-11T10:14:26Z</time></trkpt><trkpt lat="45.197371797567804" lon="9.450618030028014"><ele>71.83333333333333</ele><time>2026-04-11T10:14:27Z</time></trkpt><trkpt lat="45.19731617503625" lon="9.450701016547798"><ele>71.66666666666667</ele><time>2026-04-11T10:14:28Z</time></trkpt><trkpt lat="45.19726117288692" lon="9.450787305258357"><ele>71.5</ele><time>2026-04-11T10:14:29Z</time></trkpt><trkpt lat="45.197203841233744" lon="9.450880940636852"><ele>71.33333333333334</ele><time>2026-04-11T10:14:30Z</time></trkpt><trkpt lat="45.19714927736579" lon="9.450958412453097"><ele>71.16666666666667</ele><time>2026-04-11T10:14:31Z</time></trkpt><trkpt lat="45.19709192204813" lon="9.451037742918613"><ele>71.0</ele><time>2026-04-11T10:14:32Z</time></trkpt><trkpt lat="45.19704628683077" lon="9.451114086884715"><ele>71.0</ele><time>2026-04-11T10:14:33Z</time></trkpt><trkpt lat="45.19695928196867" lon="9.45125369382558"><ele>71.0</ele><time>2026-04-11T10:14:35Z</time></trkpt><trkpt lat="45.19691145563183" lon="9.451316121378143"><ele>71.0</ele><time>2026-04-11T10:14:36Z</time></trkpt><trkpt lat="45.196862133091585" lon="9.451379175668137"><ele>71.0</ele><time>2026-04-11T10:14:37Z</time></trkpt><trkpt lat="45.19680521252145" lon="9.451448882210794"><ele>71.0</ele><time>2026-04-11T10:14:38Z</time></trkpt><trkpt lat="45.19675000346543" lon="9.451540556752688"><ele>71.0</ele><time>2026-04-11T10:14:39Z</time></trkpt><trkpt lat="45.19669426791673" lon="9.451625526271553"><ele>71.0</ele><time>2026-04-11T10:14:40Z</time></trkpt><trkpt lat="45.196637560439854" lon="9.451708920807434"><ele>71.0</ele><time>2026-04-11T10:14:41Z</time></trkpt><trkpt lat="45.1965793022851" lon="9.45179471691787"><ele>71.0</ele><time>2026-04-11T10:14:42Z</time></trkpt><trkpt lat="45.19652657860226" lon="9.451874810474218"><ele>71.0</ele><time>2026-04-11T10:14:43Z</time></trkpt><trkpt lat="45.19644276171551" lon="9.4520151018639"><ele>71.0</ele><time>2026-04-11T10:14:45Z</time></trkpt><trkpt lat="45.1963882787368" lon="9.452092159880003"><ele>71.0</ele><time>2026-04-11T10:14:46Z</time></trkpt><trkpt lat="45.196328015426474" lon="9.452186562794385"><ele>71.0</ele><time>2026-04-11T10:14:47Z</time></trkpt><trkpt lat="45.19626740590123" lon="9.452276333889301"><ele>71.0</ele><time>2026-04-11T10:14:48Z</time></trkpt><trkpt lat="45.196187809372915" lon="9.4523448033315"><ele>71.0</ele><time>2026-04-11T10:14:48.999Z</time></trkpt><trkpt lat="45.19612043294881" lon="9.452448841863797"><ele>71.0</ele><time>2026-04-11T10:14:49.999Z</time></trkpt><trkpt lat="45.196056879026656" lon="9.452535082742635"><ele>71.0</ele><time>2026-04-11T10:14:50.999Z</time></trkpt><trkpt lat="45.19600321659187" lon="9.4526163318763"><ele>71.0</ele><time>2026-04-11T10:14:51.999Z</time></trkpt><trkpt lat="45.19596261115852" lon="9.452725475789187"><ele>71.0</ele><time>2026-04-11T10:14:52.999Z</time></trkpt><trkpt lat="45.19593308515476" lon="9.452854557311882"><ele>71.0</ele><time>2026-04-11T10:14:53.999Z</time></trkpt><trkpt lat="45.19590236692626" lon="9.453003848828745"><ele>71.0</ele><time>2026-04-11T10:14:54.999Z</time></trkpt><trkpt lat="45.19583955948417" lon="9.453176178295726"><ele>71.0</ele><time>2026-04-11T10:14:55.999Z</time></trkpt><trkpt lat="45.19578893095064" lon="9.453385149117183"><ele>71.66666666666667</ele><time>2026-04-11T10:14:56.999Z</time></trkpt><trkpt lat="45.19571296720155" lon="9.453598673490534"><ele>72.33333333333333</ele><time>2026-04-11T10:14:57.999Z</time></trkpt><trkpt lat="45.19564102134121" lon="9.453806606178922"><ele>73.0</ele><time>2026-04-11T10:14:58.999Z</time></trkpt><trkpt lat="45.1955578050565" lon="9.454022100935612"><ele>73.0</ele><time>2026-04-11T10:14:59.999Z</time></trkpt><trkpt lat="45.19548660524061" lon="9.454219430017208"><ele>73.0</ele><time>2026-04-11T10:15:00.999Z</time></trkpt><trkpt lat="45.19542304944826" lon="9.454401777397393"><ele>73.0</ele><time>2026-04-11T10:15:01.999Z</time></trkpt><trkpt lat="45.1953722738344" lon="9.454576495702533"><ele>73.0</ele><time>2026-04-11T10:15:02.999Z</time></trkpt><trkpt lat="45.19531847506359" lon="9.454720465527473"><ele>73.0</ele><time>2026-04-11T10:15:03.999Z</time></trkpt><trkpt lat="45.19528471675249" lon="9.454824920942242"><ele>73.0</ele><time>2026-04-11T10:15:04.999Z</time></trkpt><trkpt lat="45.195241506157025" lon="9.454950043649687"><ele>73.0</ele><time>2026-04-11T10:15:06.999Z</time></trkpt><trkpt lat="45.195193587992534" lon="9.455089881800976"><ele>73.0</ele><time>2026-04-11T10:15:08.999Z</time></trkpt><trkpt lat="45.1951358951802" lon="9.455255929385427"><ele>73.0</ele><time>2026-04-11T10:15:10.999Z</time></trkpt><trkpt lat="45.195099020614336" lon="9.455361005345404"><ele>72.8</ele><time>2026-04-11T10:15:11.999Z</time></trkpt><trkpt lat="45.19506377422846" lon="9.455464189231314"><ele>72.6</ele><time>2026-04-11T10:15:12.999Z</time></trkpt><trkpt lat="45.19502487622224" lon="9.455576879686376"><ele>72.4</ele><time>2026-04-11T10:15:13.999Z</time></trkpt><trkpt lat="45.19497786040712" lon="9.455709625792093"><ele>72.2</ele><time>2026-04-11T10:15:14.999Z</time></trkpt><trkpt lat="45.19491737300317" lon="9.455851017130176"><ele>72.0</ele><time>2026-04-11T10:15:15.999Z</time></trkpt><trkpt lat="45.19486853570278" lon="9.455994568189967"><ele>72.0</ele><time>2026-04-11T10:15:16.999Z</time></trkpt><trkpt lat="45.194838252122906" lon="9.456137384270196"><ele>72.0</ele><time>2026-04-11T10:15:17.999Z</time></trkpt><trkpt lat="45.19478908659571" lon="9.456267813705683"><ele>72.0</ele><time>2026-04-11T10:15:18.999Z</time></trkpt><trkpt lat="45.19474308280491" lon="9.456404864487359"><ele>72.0</ele><time>2026-04-11T10:15:19.999Z</time></trkpt><trkpt lat="45.19469737045711" lon="9.45653331035447"><ele>72.0</ele><time>2026-04-11T10:15:20.999Z</time></trkpt><trkpt lat="45.19464944052939" lon="9.456613949971544"><ele>71.6</ele><time>2026-04-11T10:15:21.999Z</time></trkpt><trkpt lat="45.19462611955276" lon="9.456741577759566"><ele>71.2</ele><time>2026-04-11T10:15:23.999Z</time></trkpt><trkpt lat="45.1946146236839" lon="9.456863651940019"><ele>70.8</ele><time>2026-04-11T10:15:25.999Z</time></trkpt><trkpt lat="45.19455338493599" lon="9.456924749011554"><ele>70.4</ele><time>2026-04-11T10:15:26.999Z</time></trkpt><trkpt lat="45.194487940297705" lon="9.457042195209494"><ele>70.0</ele><time>2026-04-11T10:15:27.999Z</time></trkpt><trkpt lat="45.19439425148584" lon="9.457156211356423"><ele>70.0</ele><time>2026-04-11T10:15:28.999Z</time></trkpt><trkpt lat="45.19428583778568" lon="9.457311284252555"><ele>70.0</ele><time>2026-04-11T10:15:29.999Z</time></trkpt><trkpt lat="45.194152971096976" lon="9.45748978310199"><ele>70.0</ele><time>2026-04-11T10:15:30.999Z</time></trkpt><trkpt lat="45.19401968820544" lon="9.457664673713307"><ele>69.66666666666666</ele><time>2026-04-11T10:15:31.999Z</time></trkpt><trkpt lat="45.19388616838075" lon="9.457844963670741"><ele>69.33333333333333</ele><time>2026-04-11T10:15:32.999Z</time></trkpt><trkpt lat="45.19372925401982" lon="9.458054590617904"><ele>69.0</ele><time>2026-04-11T10:15:33.999Z</time></trkpt><trkpt lat="45.193564689518155" lon="9.458273752653716"><ele>69.0</ele><time>2026-04-11T10:15:34.999Z</time></trkpt><trkpt lat="45.19341067230179" lon="9.458475277223112"><ele>69.0</ele><time>2026-04-11T10:15:35.999Z</time></trkpt><trkpt lat="45.193255513504354" lon="9.458680180207018"><ele>69.0</ele><time>2026-04-11T10:15:36.999Z</time></trkpt><trkpt lat="45.19309600791315" lon="9.458891160872271"><ele>69.0</ele><time>2026-04-11T10:15:37.999Z</time></trkpt><trkpt lat="45.1929363731115" lon="9.459100708648915"><ele>69.0</ele><time>2026-04-11T10:15:38.999Z</time></trkpt><trkpt lat="45.192791850164795" lon="9.459289753600524"><ele>69.0</ele><time>2026-04-11T10:15:39.999Z</time></trkpt><trkpt lat="45.19265704861638" lon="9.459466937089728"><ele>69.0</ele><time>2026-04-11T10:15:40.999Z</time></trkpt><trkpt lat="45.19253099375809" lon="9.459631906713788"><ele>69.0</ele><time>2026-04-11T10:15:41.999Z</time></trkpt><trkpt lat="45.1924045395222" lon="9.45978606878189"><ele>69.0</ele><time>2026-04-11T10:15:42.999Z</time></trkpt><trkpt lat="45.19228844208634" lon="9.45993275461038"><ele>69.66666666666667</ele><time>2026-04-11T10:15:43.999Z</time></trkpt><trkpt lat="45.192174968822535" lon="9.460082025223604"><ele>70.33333333333334</ele><time>2026-04-11T10:15:44.999Z</time></trkpt><trkpt lat="45.192050901403896" lon="9.46024070766123"><ele>71.0</ele><time>2026-04-11T10:15:45.999Z</time></trkpt><trkpt lat="45.19191937654031" lon="9.46040150589392"><ele>71.0</ele><time>2026-04-11T10:15:46.999Z</time></trkpt><trkpt lat="45.19179995160802" lon="9.460534408187437"><ele>71.0</ele><time>2026-04-11T10:15:47.999Z</time></trkpt><trkpt lat="45.19170214810497" lon="9.460635424602442"><ele>71.0</ele><time>2026-04-11T10:15:48.999Z</time></trkpt><trkpt lat="45.19160568261924" lon="9.46073110661718"><ele>71.0</ele><time>2026-04-11T10:15:49.999Z</time></trkpt><trkpt lat="45.191515402454364" lon="9.46082756434399"><ele>71.2</ele><time>2026-04-11T10:15:50.999Z</time></trkpt><trkpt lat="45.191427749815816" lon="9.460919052400985"><ele>71.39999999999999</ele><time>2026-04-11T10:15:51.999Z</time></trkpt><trkpt lat="45.191339301133176" lon="9.46100044158657"><ele>71.6</ele><time>2026-04-11T10:15:53Z</time></trkpt><trkpt lat="45.19125611780257" lon="9.461083028918525"><ele>71.8</ele><time>2026-04-11T10:15:54Z</time></trkpt><trkpt lat="45.19119004317451" lon="9.461152327956873"><ele>72.0</ele><time>2026-04-11T10:15:55Z</time></trkpt><trkpt lat="45.19111995073983" lon="9.461218911405155"><ele>72.0</ele><time>2026-04-11T10:15:57Z</time></trkpt><trkpt lat="45.191060811163815" lon="9.461281062073844"><ele>72.0</ele><time>2026-04-11T10:15:59Z</time></trkpt><trkpt lat="45.19100985958056" lon="9.46133600554934"><ele>72.0</ele><time>2026-04-11T10:16:00Z</time></trkpt><trkpt lat="45.19094835689636" lon="9.461404234119145"><ele>72.0</ele><time>2026-04-11T10:16:01Z</time></trkpt><trkpt lat="45.19087213293545" lon="9.461477200691668"><ele>72.0</ele><time>2026-04-11T10:16:02Z</time></trkpt><trkpt lat="45.19079764680398" lon="9.46154874201786"><ele>72.0</ele><time>2026-04-11T10:16:03Z</time></trkpt><trkpt lat="45.19072104583595" lon="9.461629586603516"><ele>72.25</ele><time>2026-04-11T10:16:04Z</time></trkpt><trkpt lat="45.19062983705756" lon="9.46172304916035"><ele>72.5</ele><time>2026-04-11T10:16:05Z</time></trkpt><trkpt lat="45.19054254569393" lon="9.461812043386217"><ele>72.75</ele><time>2026-04-11T10:16:06Z</time></trkpt><trkpt lat="45.19044233122855" lon="9.461908071334042"><ele>73.0</ele><time>2026-04-11T10:16:07Z</time></trkpt><trkpt lat="45.19033090598851" lon="9.462021080610892"><ele>73.0</ele><time>2026-04-11T10:16:08Z</time></trkpt><trkpt lat="45.19022260235566" lon="9.462135335949107"><ele>73.0</ele><time>2026-04-11T10:16:09Z</time></trkpt><trkpt lat="45.19010842259739" lon="9.462250417894476"><ele>73.0</ele><time>2026-04-11T10:16:10Z</time></trkpt><trkpt lat="45.189976577718234" lon="9.462388513271149"><ele>73.0</ele><time>2026-04-11T10:16:11Z</time></trkpt><trkpt lat="45.1898250081134" lon="9.462540170004615"><ele>73.0</ele><time>2026-04-11T10:16:12Z</time></trkpt><trkpt lat="45.18968044402267" lon="9.462688811553427"><ele>73.0</ele><time>2026-04-11T10:16:13Z</time></trkpt><trkpt lat="45.189543234839476" lon="9.462828727334486"><ele>73.0</ele><time>2026-04-11T10:16:14Z</time></trkpt><trkpt lat="45.18940325349881" lon="9.462976591799137"><ele>73.33333333333333</ele><time>2026-04-11T10:16:15Z</time></trkpt><trkpt lat="45.189253317477565" lon="9.463134935660785"><ele>73.66666666666667</ele><time>2026-04-11T10:16:16Z</time></trkpt><trkpt lat="45.189105958792055" lon="9.46330255548936"><ele>74.0</ele><time>2026-04-11T10:16:17Z</time></trkpt><trkpt lat="45.188966488011985" lon="9.463482728804514"><ele>74.0</ele><time>2026-04-11T10:16:18Z</time></trkpt><trkpt lat="45.18883989424666" lon="9.463660711750046"><ele>74.0</ele><time>2026-04-11T10:16:19Z</time></trkpt><trkpt lat="45.188730080086486" lon="9.463840395174893"><ele>74.0</ele><time>2026-04-11T10:16:20Z</time></trkpt><trkpt lat="45.1886409124634" lon="9.464012058099302"><ele>73.4</ele><time>2026-04-11T10:16:21Z</time></trkpt><trkpt lat="45.18856546942004" lon="9.46417246681809"><ele>72.80000000000001</ele><time>2026-04-11T10:16:22Z</time></trkpt><trkpt lat="45.188506498883136" lon="9.464307430413625"><ele>72.19999999999999</ele><time>2026-04-11T10:16:23Z</time></trkpt><trkpt lat="45.188466622433324" lon="9.464427941795774"><ele>71.6</ele><time>2026-04-11T10:16:24Z</time></trkpt><trkpt lat="45.18843523281417" lon="9.464545723466859"><ele>71.0</ele><time>2026-04-11T10:16:25Z</time></trkpt><trkpt lat="45.18841781911554" lon="9.464637964120364"><ele>71.0</ele><time>2026-04-11T10:16:26Z</time></trkpt><trkpt lat="45.188461214808925" lon="9.464743997034022"><ele>71.0</ele><time>2026-04-11T10:16:28Z</time></trkpt><trkpt lat="45.18851655303166" lon="9.464815698378924"><ele>71.0</ele><time>2026-04-11T10:16:30Z</time></trkpt><trkpt lat="45.188581281645504" lon="9.464852024975645"><ele>71.0</ele><time>2026-04-11T10:16:32Z</time></trkpt><trkpt lat="45.18864439140754" lon="9.464885467420576"><ele>71.0</ele><time>2026-04-11T10:16:34Z</time></trkpt><trkpt lat="45.188710060546654" lon="9.464917246076714"><ele>71.0</ele><time>2026-04-11T10:16:36Z</time></trkpt><trkpt lat="45.18878652272578" lon="9.464966229377593"><ele>71.0</ele><time>2026-04-11T10:16:39Z</time></trkpt><trkpt lat="45.18886163058897" lon="9.465007594039548"><ele>71.0</ele><time>2026-04-11T10:21:40.999Z</time></trkpt><trkpt lat="45.18895052696563" lon="9.465044682724008"><ele>71.0</ele><time>2026-04-11T10:21:42.999Z</time></trkpt><trkpt lat="45.189025312932976" lon="9.46509206641441"><ele>71.0</ele><time>2026-04-11T10:21:45.999Z</time></trkpt><trkpt lat="45.18909273491492" lon="9.465127120679657"><ele>71.0</ele><time>2026-04-11T10:21:56.998Z</time></trkpt><trkpt lat="45.189160648685316" lon="9.465156839996729"><ele>71.0</ele><time>2026-04-11T10:21:57.998Z</time></trkpt><trkpt lat="45.18924474114329" lon="9.465197435706624"><ele>70.66666666666667</ele><time>2026-04-11T10:21:58.998Z</time></trkpt><trkpt lat="45.189309056260115" lon="9.465234732581306"><ele>70.33333333333334</ele><time>2026-04-11T10:21:59.998Z</time></trkpt><trkpt lat="45.189377508812456" lon="9.465273523462947"><ele>70.0</ele><time>2026-04-11T10:22:00.998Z</time></trkpt><trkpt lat="45.189454136130514" lon="9.465312881002715"><ele>69.66666666666667</ele><time>2026-04-11T10:22:01.998Z</time></trkpt><trkpt lat="45.189531140622286" lon="9.465345518625652"><ele>69.33333333333333</ele><time>2026-04-11T10:22:02.998Z</time></trkpt><trkpt lat="45.18961347421599" lon="9.465387554480992"><ele>69.0</ele><time>2026-04-11T10:22:03.998Z</time></trkpt><trkpt lat="45.18967838666135" lon="9.46543161594614"><ele>69.0</ele><time>2026-04-11T10:22:04.998Z</time></trkpt><trkpt lat="45.18976273469316" lon="9.465480184414279"><ele>69.0</ele><time>2026-04-11T10:22:05.998Z</time></trkpt><trkpt lat="45.18985112206373" lon="9.465522819616162"><ele>69.0</ele><time>2026-04-11T10:22:06.998Z</time></trkpt><trkpt lat="45.18994356343085" lon="9.465571665038503"><ele>69.0</ele><time>2026-04-11T10:22:07.998Z</time></trkpt><trkpt lat="45.190033264348514" lon="9.465616707877333"><ele>69.0</ele><time>2026-04-11T10:22:08.998Z</time></trkpt><trkpt lat="45.19012433919596" lon="9.465665857564808"><ele>69.0</ele><time>2026-04-11T10:22:09.998Z</time></trkpt><trkpt lat="45.19021691191087" lon="9.465714355792695"><ele>69.0</ele><time>2026-04-11T10:22:10.999Z</time></trkpt><trkpt lat="45.19030590002123" lon="9.465759065546504"><ele>69.0</ele><time>2026-04-11T10:22:11.999Z</time></trkpt><trkpt lat="45.19038508569489" lon="9.465797578139487"><ele>69.0</ele><time>2026-04-11T10:22:12.999Z</time></trkpt><trkpt lat="45.19045683594225" lon="9.46582949951681"><ele>69.0</ele><time>2026-04-11T10:22:13.999Z</time></trkpt><trkpt lat="45.190574636735114" lon="9.46589761146542"><ele>69.0</ele><time>2026-04-11T10:22:15.999Z</time></trkpt><trkpt lat="45.19063992825781" lon="9.465934136086988"><ele>69.0</ele><time>2026-04-11T10:22:16.999Z</time></trkpt><trkpt lat="45.19075309095016" lon="9.465987778419446"><ele>69.0</ele><time>2026-04-11T10:22:18.999Z</time></trkpt><trkpt lat="45.190816053528266" lon="9.466024545788116"><ele>69.0</ele><time>2026-04-11T10:22:19.999Z</time></trkpt><trkpt lat="45.190881538822005" lon="9.466061208321815"><ele>69.0</ele><time>2026-04-11T10:22:20.999Z</time></trkpt><trkpt lat="45.19095115779581" lon="9.466098648563596"><ele>69.0</ele><time>2026-04-11T10:22:21.999Z</time></trkpt><trkpt lat="45.19101913728047" lon="9.46613069521632"><ele>69.16666666666667</ele><time>2026-04-11T10:22:22.999Z</time></trkpt><trkpt lat="45.19108842949817" lon="9.466165127570115"><ele>69.33333333333333</ele><time>2026-04-11T10:22:23.999Z</time></trkpt><trkpt lat="45.19115815674923" lon="9.466203139804716"><ele>69.5</ele><time>2026-04-11T10:22:24.999Z</time></trkpt><trkpt lat="45.19122995818836" lon="9.466246314045078"><ele>69.66666666666666</ele><time>2026-04-11T10:22:25.999Z</time></trkpt><trkpt lat="45.19130034283475" lon="9.466281956092326"><ele>69.83333333333333</ele><time>2026-04-11T10:22:26.999Z</time></trkpt><trkpt lat="45.19136867324055" lon="9.466314277684415"><ele>70.0</ele><time>2026-04-11T10:22:27.999Z</time></trkpt><trkpt lat="45.1914938015549" lon="9.466378416569446"><ele>70.4</ele><time>2026-04-11T10:22:29.999Z</time></trkpt><trkpt lat="45.19159698535517" lon="9.466432176384682"><ele>70.8</ele><time>2026-04-11T10:22:31.999Z</time></trkpt><trkpt lat="45.19168702632417" lon="9.466470204459775"><ele>71.2</ele><time>2026-04-11T10:22:33.999Z</time></trkpt><trkpt lat="45.19175613361672" lon="9.466518313495627"><ele>71.6</ele><time>2026-04-11T10:22:35.999Z</time></trkpt><trkpt lat="45.19177535674073" lon="9.46664465327706"><ele>72.0</ele><time>2026-04-11T10:22:37.999Z</time></trkpt><trkpt lat="45.19173349442012" lon="9.46677855087842"><ele>72.0</ele><time>2026-04-11T10:22:39.999Z</time></trkpt><trkpt lat="45.19164745808421" lon="9.466841049601463"><ele>72.0</ele><time>2026-04-11T10:22:41.999Z</time></trkpt><trkpt lat="45.1915666643202" lon="9.466871244897227"><ele>72.0</ele><time>2026-04-11T10:22:43.999Z</time></trkpt><trkpt lat="45.19154854314138" lon="9.46699624900364"><ele>72.0</ele><time>2026-04-11T10:22:45.999Z</time></trkpt><trkpt lat="45.1915301173553" lon="9.467093722066904"><ele>72.0</ele><time>2026-04-11T10:22:46.999Z</time></trkpt><trkpt lat="45.19150450970034" lon="9.4672084370424"><ele>72.0</ele><time>2026-04-11T10:22:47.999Z</time></trkpt><trkpt lat="45.191482042465466" lon="9.467315551894917"><ele>71.4</ele><time>2026-04-11T10:22:48.999Z</time></trkpt><trkpt lat="45.191457847668495" lon="9.467434731857354"><ele>70.80000000000001</ele><time>2026-04-11T10:22:49.999Z</time></trkpt><trkpt lat="45.191431460183026" lon="9.467565878125601"><ele>70.2</ele><time>2026-04-11T10:22:50.999Z</time></trkpt><trkpt lat="45.19140132057637" lon="9.467706281139211"><ele>69.60000000000001</ele><time>2026-04-11T10:22:51.999Z</time></trkpt><trkpt lat="45.19137114216197" lon="9.467848127249004"><ele>69.0</ele><time>2026-04-11T10:22:52.999Z</time></trkpt><trkpt lat="45.19133756175196" lon="9.467999237352686"><ele>68.5</ele><time>2026-04-11T10:22:53.999Z</time></trkpt><trkpt lat="45.191304290655765" lon="9.468162342811095"><ele>68.0</ele><time>2026-04-11T10:22:54.999Z</time></trkpt><trkpt lat="45.191267983579266" lon="9.468340488598415"><ele>67.5</ele><time>2026-04-11T10:22:55.999Z</time></trkpt><trkpt lat="45.19123099489364" lon="9.468512440068881"><ele>67.0</ele><time>2026-04-11T10:22:56.999Z</time></trkpt><trkpt lat="45.19120005363284" lon="9.468671700508294"><ele>67.25</ele><time>2026-04-11T10:22:57.999Z</time></trkpt><trkpt lat="45.19116524117335" lon="9.468833536121824"><ele>67.5</ele><time>2026-04-11T10:22:58.999Z</time></trkpt><trkpt lat="45.19112568755198" lon="9.469014341191683"><ele>67.75</ele><time>2026-04-11T10:22:59.999Z</time></trkpt><trkpt lat="45.19108297550027" lon="9.469206257240446"><ele>68.0</ele><time>2026-04-11T10:23:00.999Z</time></trkpt><trkpt lat="45.1910394343307" lon="9.469406292464685"><ele>68.0</ele><time>2026-04-11T10:23:01.999Z</time></trkpt><trkpt lat="45.1909953331981" lon="9.469601933704803"><ele>68.0</ele><time>2026-04-11T10:23:02.999Z</time></trkpt><trkpt lat="45.19095551502041" lon="9.469783229179418"><ele>68.0</ele><time>2026-04-11T10:23:03.999Z</time></trkpt><trkpt lat="45.19091530171266" lon="9.469986380733229"><ele>68.0</ele><time>2026-04-11T10:23:04.999Z</time></trkpt><trkpt lat="45.190874736287135" lon="9.470185772097045"><ele>68.0</ele><time>2026-04-11T10:23:05.999Z</time></trkpt><trkpt lat="45.190829765246335" lon="9.470398470851274"><ele>68.0</ele><time>2026-04-11T10:23:06.999Z</time></trkpt><trkpt lat="45.19078613677292" lon="9.470603349466892"><ele>68.0</ele><time>2026-04-11T10:23:07.999Z</time></trkpt><trkpt lat="45.19074373179039" lon="9.470809771623342"><ele>67.75</ele><time>2026-04-11T10:23:08.999Z</time></trkpt><trkpt lat="45.19070212877675" lon="9.470994556477756"><ele>67.5</ele><time>2026-04-11T10:23:09.999Z</time></trkpt><trkpt lat="45.190656447764454" lon="9.471199574439474"><ele>67.25</ele><time>2026-04-11T10:23:10.999Z</time></trkpt><trkpt lat="45.19061386409087" lon="9.471397567045663"><ele>67.0</ele><time>2026-04-11T10:23:11.999Z</time></trkpt><trkpt lat="45.19057103443483" lon="9.471601061726433"><ele>67.0</ele><time>2026-04-11T10:23:12.999Z</time></trkpt><trkpt lat="45.19053123469696" lon="9.471788218335625"><ele>67.0</ele><time>2026-04-11T10:23:13.999Z</time></trkpt><trkpt lat="45.19049310541633" lon="9.471956547019596"><ele>67.0</ele><time>2026-04-11T10:23:14.999Z</time></trkpt><trkpt lat="45.190463958764184" lon="9.47210247071879"><ele>67.0</ele><time>2026-04-11T10:23:15.999Z</time></trkpt><trkpt lat="45.190430541778206" lon="9.47225128226941"><ele>67.0</ele><time>2026-04-11T10:23:16.999Z</time></trkpt><trkpt lat="45.19039777918985" lon="9.472414498713196"><ele>67.0</ele><time>2026-04-11T10:23:17.999Z</time></trkpt><trkpt lat="45.19036183449226" lon="9.472590579569177"><ele>67.0</ele><time>2026-04-11T10:23:18.999Z</time></trkpt><trkpt lat="45.190320268473336" lon="9.472778384289574"><ele>67.0</ele><time>2026-04-11T10:23:19.999Z</time></trkpt><trkpt lat="45.190281131847506" lon="9.472958562504735"><ele>67.0</ele><time>2026-04-11T10:23:20.999Z</time></trkpt><trkpt lat="45.19024251162093" lon="9.473152587499875"><ele>67.0</ele><time>2026-04-11T10:23:21.999Z</time></trkpt><trkpt lat="45.19020065990332" lon="9.473358128948894"><ele>67.0</ele><time>2026-04-11T10:23:22.999Z</time></trkpt><trkpt lat="45.19016081919315" lon="9.473543535311688"><ele>67.0</ele><time>2026-04-11T10:23:23.999Z</time></trkpt><trkpt lat="45.19011427819876" lon="9.473741838308971"><ele>66.75</ele><time>2026-04-11T10:23:24.999Z</time></trkpt><trkpt lat="45.19007675922761" lon="9.473940750195144"><ele>66.5</ele><time>2026-04-11T10:23:25.999Z</time></trkpt><trkpt lat="45.19002827670919" lon="9.474152110836053"><ele>66.25</ele><time>2026-04-11T10:23:26.999Z</time></trkpt><trkpt lat="45.189987748143366" lon="9.47434546245736"><ele>66.0</ele><time>2026-04-11T10:23:27.999Z</time></trkpt><trkpt lat="45.189940738200185" lon="9.474555745242412"><ele>66.0</ele><time>2026-04-11T10:23:28.999Z</time></trkpt><trkpt lat="45.189891087895695" lon="9.474769803008257"><ele>66.0</ele><time>2026-04-11T10:23:29.999Z</time></trkpt><trkpt lat="45.189842162854944" lon="9.474973852471107"><ele>66.0</ele><time>2026-04-11T10:23:30.999Z</time></trkpt><trkpt lat="45.18980152709113" lon="9.475181632133197"><ele>66.25</ele><time>2026-04-11T10:23:31.999Z</time></trkpt><trkpt lat="45.189762277463686" lon="9.475361638415306"><ele>66.5</ele><time>2026-04-11T10:23:32.999Z</time></trkpt><trkpt lat="45.189718489791716" lon="9.47552732372636"><ele>66.75</ele><time>2026-04-11T10:23:33.999Z</time></trkpt><trkpt lat="45.1896762821091" lon="9.475700574875187"><ele>67.0</ele><time>2026-04-11T10:23:34.999Z</time></trkpt><trkpt lat="45.189634161941555" lon="9.475899139709728"><ele>67.0</ele><time>2026-04-11T10:23:35.999Z</time></trkpt><trkpt lat="45.1895968677716" lon="9.476071140540068"><ele>67.0</ele><time>2026-04-11T10:23:36.999Z</time></trkpt><trkpt lat="45.189569812875696" lon="9.476211684375267"><ele>67.0</ele><time>2026-04-11T10:23:37.999Z</time></trkpt><trkpt lat="45.189542788638036" lon="9.476318384996347"><ele>67.0</ele><time>2026-04-11T10:23:38.999Z</time></trkpt><trkpt lat="45.189519927458775" lon="9.476410536394361"><ele>67.0</ele><time>2026-04-11T10:23:39.999Z</time></trkpt><trkpt lat="45.1895171358738" lon="9.47655416527532"><ele>67.0</ele><time>2026-04-11T10:23:41.998Z</time></trkpt><trkpt lat="45.189589274648334" lon="9.476635702743895"><ele>67.0</ele><time>2026-04-11T10:23:43.998Z</time></trkpt><trkpt lat="45.1896686154473" lon="9.47667391187845"><ele>67.0</ele><time>2026-04-11T10:23:44.998Z</time></trkpt><trkpt lat="45.18978728006754" lon="9.476716688593951"><ele>67.0</ele><time>2026-04-11T10:23:45.998Z</time></trkpt><trkpt lat="45.1899083176852" lon="9.476772673541188"><ele>67.0</ele><time>2026-04-11T10:23:46.998Z</time></trkpt><trkpt lat="45.190025553824995" lon="9.476819098096367"><ele>67.4</ele><time>2026-04-11T10:23:47.998Z</time></trkpt><trkpt lat="45.190150626226675" lon="9.476876484870187"><ele>67.80000000000001</ele><time>2026-04-11T10:23:48.998Z</time></trkpt><trkpt lat="45.190263482445616" lon="9.476924558928284"><ele>68.2</ele><time>2026-04-11T10:23:49.998Z</time></trkpt><trkpt lat="45.190358657357564" lon="9.476968311136893"><ele>68.60000000000001</ele><time>2026-04-11T10:23:50.998Z</time></trkpt><trkpt lat="45.19043872230642" lon="9.477007409059974"><ele>69.0</ele><time>2026-04-11T10:23:51.998Z</time></trkpt><trkpt lat="45.19051338673972" lon="9.477042347127426"><ele>69.0</ele><time>2026-04-11T10:23:52.998Z</time></trkpt><trkpt lat="45.190575613994845" lon="9.477078829648116"><ele>69.0</ele><time>2026-04-11T10:23:53.998Z</time></trkpt><trkpt lat="45.19063710130137" lon="9.477172803895979"><ele>69.0</ele><time>2026-04-11T10:23:55.998Z</time></trkpt><trkpt lat="45.1906184910105" lon="9.477308210242745"><ele>69.0</ele><time>2026-04-11T10:23:57.998Z</time></trkpt><trkpt lat="45.190581723289164" lon="9.477410649265117"><ele>69.0</ele><time>2026-04-11T10:23:58.998Z</time></trkpt><trkpt lat="45.190534442249636" lon="9.477537669482617"><ele>69.0</ele><time>2026-04-11T10:23:59.998Z</time></trkpt><trkpt lat="45.19048493307747" lon="9.47769836142609"><ele>69.0</ele><time>2026-04-11T10:24:00.998Z</time></trkpt><trkpt lat="45.19043263609252" lon="9.477882877292855"><ele>69.0</ele><time>2026-04-11T10:24:01.998Z</time></trkpt><trkpt lat="45.19038178233606" lon="9.478078510790382"><ele>69.0</ele><time>2026-04-11T10:24:02.998Z</time></trkpt><trkpt lat="45.190328419069196" lon="9.478279480667378"><ele>69.0</ele><time>2026-04-11T10:24:03.998Z</time></trkpt><trkpt lat="45.19028117216814" lon="9.478454771214667"><ele>69.0</ele><time>2026-04-11T10:24:04.998Z</time></trkpt><trkpt lat="45.19023800038321" lon="9.478638540369472"><ele>69.0</ele><time>2026-04-11T10:24:05.998Z</time></trkpt><trkpt lat="45.1901845252273" lon="9.478812770606078"><ele>69.0</ele><time>2026-04-11T10:24:06.998Z</time></trkpt><trkpt lat="45.19013366625557" lon="9.478978280568512"><ele>69.0</ele><time>2026-04-11T10:24:07.998Z</time></trkpt><trkpt lat="45.19009060543431" lon="9.4791260696638"><ele>69.0</ele><time>2026-04-11T10:24:08.998Z</time></trkpt><trkpt lat="45.190045831710265" lon="9.479254368018356"><ele>69.0</ele><time>2026-04-11T10:24:09.998Z</time></trkpt><trkpt lat="45.190000218504665" lon="9.479362401567995"><ele>69.0</ele><time>2026-04-11T10:24:10.998Z</time></trkpt><trkpt lat="45.18993389487391" lon="9.479465016640129"><ele>69.0</ele><time>2026-04-11T10:24:11.998Z</time></trkpt><trkpt lat="45.18985110611179" lon="9.479569277548169"><ele>69.0</ele><time>2026-04-11T10:24:12.998Z</time></trkpt><trkpt lat="45.189769756428554" lon="9.479687530395093"><ele>68.8</ele><time>2026-04-11T10:24:13.998Z</time></trkpt><trkpt lat="45.18968826808046" lon="9.47981041073309"><ele>68.60000000000001</ele><time>2026-04-11T10:24:14.998Z</time></trkpt><trkpt lat="45.189611928127235" lon="9.47992821331144"><ele>68.4</ele><time>2026-04-11T10:24:15.998Z</time></trkpt><trkpt lat="45.18954179249441" lon="9.480028953877898"><ele>68.2</ele><time>2026-04-11T10:24:16.999Z</time></trkpt><trkpt lat="45.189484816506564" lon="9.480113255270302"><ele>68.0</ele><time>2026-04-11T10:24:17.999Z</time></trkpt><trkpt lat="45.18943619848212" lon="9.480184009456844"><ele>68.0</ele><time>2026-04-11T10:24:18.999Z</time></trkpt><trkpt lat="45.18937660648214" lon="9.480228988760361"><ele>68.0</ele><time>2026-04-11T10:24:19.999Z</time></trkpt><trkpt lat="45.18929049933011" lon="9.480263991148556"><ele>68.0</ele><time>2026-04-11T10:24:20.999Z</time></trkpt><trkpt lat="45.18919103417676" lon="9.480308433407947"><ele>68.0</ele><time>2026-04-11T10:24:21.999Z</time></trkpt><trkpt lat="45.18907932279801" lon="9.480369266454025"><ele>68.0</ele><time>2026-04-11T10:24:22.999Z</time></trkpt><trkpt lat="45.18894965552541" lon="9.480427621147303"><ele>68.25</ele><time>2026-04-11T10:24:23.999Z</time></trkpt><trkpt lat="45.188805904393185" lon="9.48049700355425"><ele>68.5</ele><time>2026-04-11T10:24:24.999Z</time></trkpt><trkpt lat="45.18866276001371" lon="9.480572265916953"><ele>68.75</ele><time>2026-04-11T10:24:25.999Z</time></trkpt><trkpt lat="45.188534920670804" lon="9.480623842609726"><ele>69.0</ele><time>2026-04-11T10:24:26.999Z</time></trkpt><trkpt lat="45.18842033089179" lon="9.480673183782011"><ele>69.0</ele><time>2026-04-11T10:24:27.999Z</time></trkpt><trkpt lat="45.18830652496348" lon="9.480729681104481"><ele>69.0</ele><time>2026-04-11T10:24:28.999Z</time></trkpt><trkpt lat="45.18819569204672" lon="9.480769691673286"><ele>69.0</ele><time>2026-04-11T10:24:29.999Z</time></trkpt><trkpt lat="45.18806997510313" lon="9.480822316268906"><ele>69.0</ele><time>2026-04-11T10:24:30.999Z</time></trkpt><trkpt lat="45.187938616882796" lon="9.480896320467048"><ele>68.5</ele><time>2026-04-11T10:24:31.999Z</time></trkpt><trkpt lat="45.18780235106573" lon="9.48097521475344"><ele>68.0</ele><time>2026-04-11T10:24:32.999Z</time></trkpt><trkpt lat="45.1876645303017" lon="9.48106494486514"><ele>67.5</ele><time>2026-04-11T10:24:33.999Z</time></trkpt><trkpt lat="45.18754006991295" lon="9.481140206205188"><ele>67.0</ele><time>2026-04-11T10:24:34.999Z</time></trkpt><trkpt lat="45.187429237514465" lon="9.481195670178485"><ele>67.0</ele><time>2026-04-11T10:24:35.999Z</time></trkpt><trkpt lat="45.187329470896195" lon="9.48124686798349"><ele>67.0</ele><time>2026-04-11T10:24:36.999Z</time></trkpt><trkpt lat="45.187235294929536" lon="9.481302432681929"><ele>67.0</ele><time>2026-04-11T10:24:37.999Z</time></trkpt><trkpt lat="45.18713346772074" lon="9.48135379444324"><ele>67.0</ele><time>2026-04-11T10:24:38.999Z</time></trkpt><trkpt lat="45.18705203681068" lon="9.481365670580425"><ele>67.0</ele><time>2026-04-11T10:26:07.999Z</time></trkpt><trkpt lat="45.1869423851516" lon="9.481430701500118"><ele>67.0</ele><time>2026-04-11T10:26:09.998Z</time></trkpt><trkpt lat="45.18686592974197" lon="9.481480587553834"><ele>67.0</ele><time>2026-04-11T10:26:10.998Z</time></trkpt><trkpt lat="45.18678867828847" lon="9.481512399286338"><ele>67.0</ele><time>2026-04-11T10:26:11.998Z</time></trkpt><trkpt lat="45.18669579904666" lon="9.481556552237006"><ele>67.0</ele><time>2026-04-11T10:26:12.998Z</time></trkpt><trkpt lat="45.18660045974879" lon="9.481592155824409"><ele>67.0</ele><time>2026-04-11T10:26:13.998Z</time></trkpt><trkpt lat="45.18651304622505" lon="9.481614705774435"><ele>67.2</ele><time>2026-04-11T10:26:14.998Z</time></trkpt><trkpt lat="45.18642915433252" lon="9.481632377511708"><ele>67.4</ele><time>2026-04-11T10:26:15.998Z</time></trkpt><trkpt lat="45.18636620075493" lon="9.48164517501825"><ele>67.6</ele><time>2026-04-11T10:26:16.998Z</time></trkpt><trkpt lat="45.186256984437165" lon="9.4816861694695"><ele>67.8</ele><time>2026-04-11T10:26:18.998Z</time></trkpt><trkpt lat="45.18614068380676" lon="9.48172124293603"><ele>68.0</ele><time>2026-04-11T10:26:20.998Z</time></trkpt><trkpt lat="45.18606936227755" lon="9.481740243597294"><ele>68.0</ele><time>2026-04-11T10:26:21.998Z</time></trkpt><trkpt lat="45.18599228398872" lon="9.481768260812778"><ele>68.0</ele><time>2026-04-11T10:26:23Z</time></trkpt><trkpt lat="45.18592716044931" lon="9.481812578703309"><ele>68.0</ele><time>2026-04-11T10:26:24Z</time></trkpt><trkpt lat="45.185834508476894" lon="9.48180430541156"><ele>68.0</ele><time>2026-04-11T10:26:26Z</time></trkpt><trkpt lat="45.18577823366321" lon="9.4816439414693"><ele>68.0</ele><time>2026-04-11T10:26:28Z</time></trkpt><trkpt lat="45.18572443322153" lon="9.481547251758808"><ele>68.2</ele><time>2026-04-11T10:26:29Z</time></trkpt><trkpt lat="45.18563426996137" lon="9.481480865632713"><ele>68.4</ele><time>2026-04-11T10:26:30Z</time></trkpt><trkpt lat="45.18553183199842" lon="9.481444565117393"><ele>68.60000000000001</ele><time>2026-04-11T10:26:31Z</time></trkpt><trkpt lat="45.18542041979113" lon="9.481406187678903"><ele>68.8</ele><time>2026-04-11T10:26:32Z</time></trkpt><trkpt lat="45.18530961867794" lon="9.481356170489986"><ele>69.0</ele><time>2026-04-11T10:26:33Z</time></trkpt><trkpt lat="45.185201015176084" lon="9.481293185659071"><ele>69.2</ele><time>2026-04-11T10:26:34Z</time></trkpt><trkpt lat="45.185095487717646" lon="9.481240373651412"><ele>69.4</ele><time>2026-04-11T10:26:35Z</time></trkpt><trkpt lat="45.1850030276492" lon="9.48119179596255"><ele>69.6</ele><time>2026-04-11T10:26:36Z</time></trkpt><trkpt lat="45.18491709132568" lon="9.481151257071955"><ele>69.8</ele><time>2026-04-11T10:26:37Z</time></trkpt><trkpt lat="45.18484106053157" lon="9.481115487445967"><ele>70.0</ele><time>2026-04-11T10:26:38Z</time></trkpt><trkpt lat="45.18477468409737" lon="9.48108271243334"><ele>70.0</ele><time>2026-04-11T10:26:39Z</time></trkpt><trkpt lat="45.184690451201526" lon="9.481047787863206"><ele>70.0</ele><time>2026-04-11T10:26:40Z</time></trkpt><trkpt lat="45.18460672171206" lon="9.481010959248213"><ele>70.0</ele><time>2026-04-11T10:26:41Z</time></trkpt><trkpt lat="45.184536833097305" lon="9.480982409218605"><ele>70.0</ele><time>2026-04-11T10:26:42Z</time></trkpt><trkpt lat="45.18447790686123" lon="9.480950702105376"><ele>70.0</ele><time>2026-04-11T10:26:43Z</time></trkpt><trkpt lat="45.18439316147013" lon="9.480908879791018"><ele>70.0</ele><time>2026-04-11T10:26:45Z</time></trkpt><trkpt lat="45.18433165695241" lon="9.480962778706806"><ele>70.0</ele><time>2026-04-11T10:26:50Z</time></trkpt><trkpt lat="45.18430002244579" lon="9.481062348342254"><ele>70.0</ele><time>2026-04-11T10:26:51Z</time></trkpt><trkpt lat="45.18428175480056" lon="9.481179277496341"><ele>70.0</ele><time>2026-04-11T10:26:52Z</time></trkpt><trkpt lat="45.184257837355375" lon="9.481283916564776"><ele>70.0</ele><time>2026-04-11T10:26:53Z</time></trkpt><trkpt lat="45.184230721610085" lon="9.481412064416242"><ele>70.0</ele><time>2026-04-11T10:26:54Z</time></trkpt><trkpt lat="45.184205270838554" lon="9.481546983374484"><ele>70.0</ele><time>2026-04-11T10:26:55Z</time></trkpt><trkpt lat="45.184161418375055" lon="9.481691713083377"><ele>70.25</ele><time>2026-04-11T10:26:56Z</time></trkpt><trkpt lat="45.18412263000873" lon="9.48184222200768"><ele>70.5</ele><time>2026-04-11T10:26:57Z</time></trkpt><trkpt lat="45.184089387277545" lon="9.481997403074516"><ele>70.75</ele><time>2026-04-11T10:26:58Z</time></trkpt><trkpt lat="45.184060398599264" lon="9.482154684531237"><ele>71.0</ele><time>2026-04-11T10:26:59Z</time></trkpt><trkpt lat="45.184029614809226" lon="9.482315658781332"><ele>71.0</ele><time>2026-04-11T10:27:00Z</time></trkpt><trkpt lat="45.18399574719205" lon="9.482470721791245"><ele>71.0</ele><time>2026-04-11T10:27:01Z</time></trkpt><trkpt lat="45.183954350513936" lon="9.482645406014024"><ele>71.0</ele><time>2026-04-11T10:27:02Z</time></trkpt><trkpt lat="45.18391037877939" lon="9.482825158507614"><ele>71.0</ele><time>2026-04-11T10:27:03Z</time></trkpt><trkpt lat="45.18386803957787" lon="9.483014387339212"><ele>71.0</ele><time>2026-04-11T10:27:04Z</time></trkpt><trkpt lat="45.183830011988775" lon="9.483201452528741"><ele>71.0</ele><time>2026-04-11T10:27:05Z</time></trkpt><trkpt lat="45.18378745283385" lon="9.483388801743272"><ele>71.0</ele><time>2026-04-11T10:27:06Z</time></trkpt><trkpt lat="45.183737211662795" lon="9.48357121950159"><ele>71.0</ele><time>2026-04-11T10:27:06.999Z</time></trkpt><trkpt lat="45.18369045975124" lon="9.48374474829199"><ele>71.0</ele><time>2026-04-11T10:27:07.999Z</time></trkpt><trkpt lat="45.18365883795624" lon="9.483905582384159"><ele>71.0</ele><time>2026-04-11T10:27:08.999Z</time></trkpt><trkpt lat="45.18363336314682" lon="9.484047547773713"><ele>71.0</ele><time>2026-04-11T10:27:09.999Z</time></trkpt><trkpt lat="45.18361268583093" lon="9.484176721100342"><ele>71.0</ele><time>2026-04-11T10:27:10.999Z</time></trkpt><trkpt lat="45.183595092463925" lon="9.484300367800373"><ele>71.0</ele><time>2026-04-11T10:27:11.999Z</time></trkpt><trkpt lat="45.18356781723136" lon="9.484460594413349"><ele>71.0</ele><time>2026-04-11T10:27:12.999Z</time></trkpt><trkpt lat="45.18353005481098" lon="9.484642587393383"><ele>71.0</ele><time>2026-04-11T10:27:13.999Z</time></trkpt><trkpt lat="45.18348486958234" lon="9.48483573217809"><ele>71.0</ele><time>2026-04-11T10:27:14.999Z</time></trkpt><trkpt lat="45.183437862668846" lon="9.485046717307162"><ele>71.0</ele><time>2026-04-11T10:27:15.999Z</time></trkpt><trkpt lat="45.18338925006223" lon="9.485246585689321"><ele>71.0</ele><time>2026-04-11T10:27:16.999Z</time></trkpt><trkpt lat="45.18334503378478" lon="9.485415321541483"><ele>71.0</ele><time>2026-04-11T10:27:17.999Z</time></trkpt><trkpt lat="45.183303776827294" lon="9.485573554328944"><ele>71.0</ele><time>2026-04-11T10:27:18.999Z</time></trkpt><trkpt lat="45.18326819891881" lon="9.485734523146196"><ele>71.0</ele><time>2026-04-11T10:27:19.999Z</time></trkpt><trkpt lat="45.18323145595087" lon="9.485898002567783"><ele>71.25</ele><time>2026-04-11T10:27:20.999Z</time></trkpt><trkpt lat="45.18319280801523" lon="9.486065102532677"><ele>71.5</ele><time>2026-04-11T10:27:21.999Z</time></trkpt><trkpt lat="45.18315112973755" lon="9.486223960090632"><ele>71.75</ele><time>2026-04-11T10:27:22.999Z</time></trkpt><trkpt lat="45.18311338385549" lon="9.486384657629852"><ele>72.0</ele><time>2026-04-11T10:27:23.999Z</time></trkpt><trkpt lat="45.183075483686494" lon="9.486545635567904"><ele>72.0</ele><time>2026-04-11T10:27:24.999Z</time></trkpt><trkpt lat="45.18303872422182" lon="9.486723639952508"><ele>72.0</ele><time>2026-04-11T10:27:25.999Z</time></trkpt><trkpt lat="45.18301136444468" lon="9.486915509103682"><ele>72.0</ele><time>2026-04-11T10:27:26.999Z</time></trkpt><trkpt lat="45.18298486769509" lon="9.487098014152428"><ele>72.0</ele><time>2026-04-11T10:27:27.999Z</time></trkpt><trkpt lat="45.18297036198658" lon="9.487266261843434"><ele>72.0</ele><time>2026-04-11T10:27:28.999Z</time></trkpt><trkpt lat="45.1829525330336" lon="9.487439119948514"><ele>72.0</ele><time>2026-04-11T10:27:29.999Z</time></trkpt><trkpt lat="45.1829316186702" lon="9.487602364365621"><ele>72.0</ele><time>2026-04-11T10:27:30.999Z</time></trkpt><trkpt lat="45.182913171437214" lon="9.487746391233717"><ele>72.0</ele><time>2026-04-11T10:27:31.999Z</time></trkpt><trkpt lat="45.18288957059349" lon="9.487869202136821"><ele>72.0</ele><time>2026-04-11T10:27:32.999Z</time></trkpt><trkpt lat="45.18287373616438" lon="9.488015775757297"><ele>72.33333333333333</ele><time>2026-04-11T10:27:33.999Z</time></trkpt><trkpt lat="45.182858952488665" lon="9.48816704535514"><ele>72.66666666666667</ele><time>2026-04-11T10:27:34.999Z</time></trkpt><trkpt lat="45.18284422597987" lon="9.488316527345576"><ele>73.0</ele><time>2026-04-11T10:27:35.999Z</time></trkpt><trkpt lat="45.18283681412779" lon="9.488415418583918"><ele>73.33333333333334</ele><time>2026-04-11T10:27:36.999Z</time></trkpt><trkpt lat="45.18283283178436" lon="9.488530044101333"><ele>73.66666666666667</ele><time>2026-04-11T10:27:38.999Z</time></trkpt><trkpt lat="45.18282819529701" lon="9.48862529653158"><ele>74.0</ele><time>2026-04-11T10:27:43.999Z</time></trkpt><trkpt lat="45.18280225430327" lon="9.488727925044886"><ele>74.0</ele><time>2026-04-11T10:28:07.999Z</time></trkpt><trkpt lat="45.182776759200515" lon="9.488921442655503"><ele>74.0</ele><time>2026-04-11T10:28:09.999Z</time></trkpt><trkpt lat="45.18276268446585" lon="9.489053187979316"><ele>74.0</ele><time>2026-04-11T10:28:10.999Z</time></trkpt><trkpt lat="45.18274375908784" lon="9.489166738799948"><ele>74.0</ele><time>2026-04-11T10:28:11.999Z</time></trkpt><trkpt lat="45.18272494961525" lon="9.489308132851296"><ele>74.0</ele><time>2026-04-11T10:28:12.999Z</time></trkpt><trkpt lat="45.18271130477757" lon="9.48946600278578"><ele>73.5</ele><time>2026-04-11T10:28:13.999Z</time></trkpt><trkpt lat="45.18268826988584" lon="9.48965735015778"><ele>73.0</ele><time>2026-04-11T10:28:14.999Z</time></trkpt><trkpt lat="45.182667840428586" lon="9.489831965732563"><ele>72.5</ele><time>2026-04-11T10:28:15.999Z</time></trkpt><trkpt lat="45.18264191159011" lon="9.48998408412387"><ele>72.0</ele><time>2026-04-11T10:28:16.999Z</time></trkpt><trkpt lat="45.18261441407546" lon="9.490156768495664"><ele>72.0</ele><time>2026-04-11T10:28:17.999Z</time></trkpt><trkpt lat="45.18259157879364" lon="9.490333554795486"><ele>72.0</ele><time>2026-04-11T10:28:18.999Z</time></trkpt><trkpt lat="45.18256679322406" lon="9.490514838095777"><ele>72.0</ele><time>2026-04-11T10:28:19.999Z</time></trkpt><trkpt lat="45.182533652175856" lon="9.490698187453765"><ele>72.0</ele><time>2026-04-11T10:28:20.999Z</time></trkpt><trkpt lat="45.18249486226003" lon="9.490886369822006"><ele>72.0</ele><time>2026-04-11T10:28:21.999Z</time></trkpt><trkpt lat="45.18246292656219" lon="9.491090618931201"><ele>72.0</ele><time>2026-04-11T10:28:22.999Z</time></trkpt><trkpt lat="45.182429733309675" lon="9.491290318003191"><ele>72.0</ele><time>2026-04-11T10:28:23.999Z</time></trkpt><trkpt lat="45.18238686372639" lon="9.491499722911563"><ele>72.0</ele><time>2026-04-11T10:28:24.999Z</time></trkpt><trkpt lat="45.18236237179142" lon="9.49169551610835"><ele>72.0</ele><time>2026-04-11T10:28:25.999Z</time></trkpt><trkpt lat="45.1823464006888" lon="9.491871295608838"><ele>72.0</ele><time>2026-04-11T10:28:26.999Z</time></trkpt><trkpt lat="45.18232135964701" lon="9.492047498274113"><ele>72.0</ele><time>2026-04-11T10:28:27.999Z</time></trkpt><trkpt lat="45.182295413352946" lon="9.492220753627986"><ele>72.0</ele><time>2026-04-11T10:28:28.999Z</time></trkpt><trkpt lat="45.18226690840114" lon="9.492407318329047"><ele>71.5</ele><time>2026-04-11T10:28:29.999Z</time></trkpt><trkpt lat="45.182236547018505" lon="9.49260471038319"><ele>71.0</ele><time>2026-04-11T10:28:30.999Z</time></trkpt><trkpt lat="45.182213334706695" lon="9.492781968844605"><ele>70.5</ele><time>2026-04-11T10:28:31.999Z</time></trkpt><trkpt lat="45.182208928443835" lon="9.492930233433695"><ele>70.0</ele><time>2026-04-11T10:28:32.999Z</time></trkpt><trkpt lat="45.182193369189974" lon="9.493086148365867"><ele>69.8</ele><time>2026-04-11T10:28:33.999Z</time></trkpt><trkpt lat="45.18217520200563" lon="9.493232957812138"><ele>69.6</ele><time>2026-04-11T10:28:34.999Z</time></trkpt><trkpt lat="45.18215907824556" lon="9.493389854918854"><ele>69.4</ele><time>2026-04-11T10:28:35.999Z</time></trkpt><trkpt lat="45.18214859785346" lon="9.493523505717288"><ele>69.2</ele><time>2026-04-11T10:28:36.999Z</time></trkpt><trkpt lat="45.18213542279227" lon="9.493637343186316"><ele>69.0</ele><time>2026-04-11T10:28:37.999Z</time></trkpt><trkpt lat="45.18211726816382" lon="9.493747531136144"><ele>68.8</ele><time>2026-04-11T10:28:38.999Z</time></trkpt><trkpt lat="45.182091603069594" lon="9.493898543499872"><ele>68.60000000000001</ele><time>2026-04-11T10:28:40.999Z</time></trkpt><trkpt lat="45.1820552330113" lon="9.494027753256155"><ele>68.4</ele><time>2026-04-11T10:28:43Z</time></trkpt><trkpt lat="45.18202950177762" lon="9.494156865288968"><ele>68.2</ele><time>2026-04-11T10:29:23.999Z</time></trkpt><trkpt lat="45.1820209760743" lon="9.494258933591123"><ele>68.0</ele><time>2026-04-11T10:29:24.999Z</time></trkpt><trkpt lat="45.18200577285689" lon="9.494387299761996"><ele>68.0</ele><time>2026-04-11T10:29:25.999Z</time></trkpt><trkpt lat="45.18199338173636" lon="9.494511636451634"><ele>68.0</ele><time>2026-04-11T10:29:26.999Z</time></trkpt><trkpt lat="45.18198676700381" lon="9.494635119498819"><ele>68.0</ele><time>2026-04-11T10:29:27.999Z</time></trkpt><trkpt lat="45.181978003411125" lon="9.494778697680736"><ele>68.0</ele><time>2026-04-11T10:29:28.999Z</time></trkpt><trkpt lat="45.18195933004623" lon="9.494934100559735"><ele>68.0</ele><time>2026-04-11T10:29:29.999Z</time></trkpt><trkpt lat="45.18195249240507" lon="9.495094865863063"><ele>67.75</ele><time>2026-04-11T10:29:30.999Z</time></trkpt><trkpt lat="45.18191460477472" lon="9.495263015491803"><ele>67.5</ele><time>2026-04-11T10:29:31.999Z</time></trkpt><trkpt lat="45.181894966986995" lon="9.495419715068588"><ele>67.25</ele><time>2026-04-11T10:29:32.999Z</time></trkpt><trkpt lat="45.18187053036913" lon="9.495568890426005"><ele>67.0</ele><time>2026-04-11T10:29:33.999Z</time></trkpt><trkpt lat="45.18185132025017" lon="9.49574327162967"><ele>67.5</ele><time>2026-04-11T10:29:34.999Z</time></trkpt><trkpt lat="45.181826274991735" lon="9.495928175739966"><ele>68.0</ele><time>2026-04-11T10:29:35.999Z</time></trkpt><trkpt lat="45.181788315513536" lon="9.496128378830008"><ele>68.5</ele><time>2026-04-11T10:29:36.999Z</time></trkpt><trkpt lat="45.1817327538149" lon="9.496306719902366"><ele>69.0</ele><time>2026-04-11T10:29:37.999Z</time></trkpt><trkpt lat="45.181655315635936" lon="9.496481602739474"><ele>69.0</ele><time>2026-04-11T10:29:38.999Z</time></trkpt><trkpt lat="45.18156527741076" lon="9.496648306538392"><ele>69.0</ele><time>2026-04-11T10:29:39.999Z</time></trkpt><trkpt lat="45.1814709561264" lon="9.49681901565044"><ele>69.0</ele><time>2026-04-11T10:29:40.999Z</time></trkpt><trkpt lat="45.18138402524486" lon="9.496960187222355"><ele>69.0</ele><time>2026-04-11T10:29:41.999Z</time></trkpt><trkpt lat="45.18129931027008" lon="9.497083912595967"><ele>68.8</ele><time>2026-04-11T10:29:42.999Z</time></trkpt><trkpt lat="45.18122211623671" lon="9.497201603104635"><ele>68.60000000000001</ele><time>2026-04-11T10:29:43.999Z</time></trkpt><trkpt lat="45.18115549250456" lon="9.497300456182044"><ele>68.4</ele><time>2026-04-11T10:29:44.999Z</time></trkpt><trkpt lat="45.181094404555026" lon="9.497393802877289"><ele>68.2</ele><time>2026-04-11T10:29:45.999Z</time></trkpt><trkpt lat="45.18102865827726" lon="9.497515301020485"><ele>68.0</ele><time>2026-04-11T10:29:46.999Z</time></trkpt><trkpt lat="45.180958081964334" lon="9.497669125016678"><ele>68.0</ele><time>2026-04-11T10:29:47.999Z</time></trkpt><trkpt lat="45.18086940342133" lon="9.497818086996178"><ele>68.0</ele><time>2026-04-11T10:29:48.999Z</time></trkpt><trkpt lat="45.18076797690504" lon="9.497970818862031"><ele>68.0</ele><time>2026-04-11T10:29:49.999Z</time></trkpt><trkpt lat="45.18067319270239" lon="9.498126148058033"><ele>68.0</ele><time>2026-04-11T10:29:50.999Z</time></trkpt><trkpt lat="45.1805837884871" lon="9.498274680056573"><ele>68.0</ele><time>2026-04-11T10:29:51.999Z</time></trkpt><trkpt lat="45.18049250972151" lon="9.498425586153193"><ele>68.0</ele><time>2026-04-11T10:29:52.999Z</time></trkpt><trkpt lat="45.18039782116577" lon="9.498582904265243"><ele>68.0</ele><time>2026-04-11T10:29:53.999Z</time></trkpt><trkpt lat="45.18030668967134" lon="9.498734103872671"><ele>68.0</ele><time>2026-04-11T10:29:54.999Z</time></trkpt><trkpt lat="45.18021401913784" lon="9.498883175317479"><ele>67.75</ele><time>2026-04-11T10:29:55.999Z</time></trkpt><trkpt lat="45.18012363421356" lon="9.499020251547549"><ele>67.5</ele><time>2026-04-11T10:29:56.999Z</time></trkpt><trkpt lat="45.18003155607412" lon="9.499150663044329"><ele>67.25</ele><time>2026-04-11T10:29:57.999Z</time></trkpt><trkpt lat="45.17994729360723" lon="9.499272114278815"><ele>67.0</ele><time>2026-04-11T10:29:58.999Z</time></trkpt><trkpt lat="45.17985070839673" lon="9.499434892848974"><ele>67.0</ele><time>2026-04-11T10:29:59.999Z</time></trkpt><trkpt lat="45.17974118350617" lon="9.499629321620171"><ele>67.0</ele><time>2026-04-11T10:30:00.999Z</time></trkpt><trkpt lat="45.17963281831645" lon="9.499794627103542"><ele>67.0</ele><time>2026-04-11T10:30:01.999Z</time></trkpt><trkpt lat="45.179531856834934" lon="9.49994175934355"><ele>67.0</ele><time>2026-04-11T10:30:02.999Z</time></trkpt><trkpt lat="45.17944561099848" lon="9.500071542788225"><ele>67.0</ele><time>2026-04-11T10:30:03.999Z</time></trkpt><trkpt lat="45.17936201523863" lon="9.500193959426655"><ele>67.0</ele><time>2026-04-11T10:30:04.999Z</time></trkpt><trkpt lat="45.17927461407473" lon="9.500320989662736"><ele>67.0</ele><time>2026-04-11T10:30:05.999Z</time></trkpt><trkpt lat="45.17918296928688" lon="9.500449029025633"><ele>67.25</ele><time>2026-04-11T10:30:06.999Z</time></trkpt><trkpt lat="45.17908392731036" lon="9.500557355924245"><ele>67.5</ele><time>2026-04-11T10:30:07.999Z</time></trkpt><trkpt lat="45.17898019146411" lon="9.500657840925458"><ele>67.75</ele><time>2026-04-11T10:30:08.999Z</time></trkpt><trkpt lat="45.1788835767823" lon="9.500745464247526"><ele>68.0</ele><time>2026-04-11T10:30:09.999Z</time></trkpt><trkpt lat="45.17879699611662" lon="9.50082726325449"><ele>68.16666666666667</ele><time>2026-04-11T10:30:10.999Z</time></trkpt><trkpt lat="45.17871759784173" lon="9.500903986066087"><ele>68.33333333333334</ele><time>2026-04-11T10:30:11.999Z</time></trkpt><trkpt lat="45.178642757870286" lon="9.500975024131325"><ele>68.5</ele><time>2026-04-11T10:30:12.999Z</time></trkpt><trkpt lat="45.17856790647581" lon="9.501046953003883"><ele>68.66666666666667</ele><time>2026-04-11T10:30:13.999Z</time></trkpt><trkpt lat="45.1784990399104" lon="9.501119148740274"><ele>68.83333333333333</ele><time>2026-04-11T10:30:14.999Z</time></trkpt><trkpt lat="45.1784338212696" lon="9.501189762351025"><ele>69.0</ele><time>2026-04-11T10:30:15.999Z</time></trkpt><trkpt lat="45.17837939309109" lon="9.50124841135796"><ele>68.8</ele><time>2026-04-11T10:30:16.999Z</time></trkpt><trkpt lat="45.17832976137117" lon="9.501305643567164"><ele>68.60000000000001</ele><time>2026-04-11T10:30:17.999Z</time></trkpt><trkpt lat="45.17815037367033" lon="9.501468402821589"><ele>68.4</ele><time>2026-04-11T10:30:18.999Z</time></trkpt><trkpt lat="45.17808623509213" lon="9.501554203711473"><ele>68.2</ele><time>2026-04-11T10:30:19.999Z</time></trkpt><trkpt lat="45.178018069064954" lon="9.501622999329976"><ele>68.0</ele><time>2026-04-11T10:30:20.999Z</time></trkpt><trkpt lat="45.17794666386064" lon="9.501679287954397"><ele>68.0</ele><time>2026-04-11T10:30:21.999Z</time></trkpt><trkpt lat="45.1778834715657" lon="9.50172871039923"><ele>68.0</ele><time>2026-04-11T10:30:22.999Z</time></trkpt><trkpt lat="45.177778021058295" lon="9.501811891127819"><ele>68.0</ele><time>2026-04-11T10:30:24.999Z</time></trkpt><trkpt lat="45.177722407614176" lon="9.501875342239577"><ele>68.0</ele><time>2026-04-11T10:30:25.999Z</time></trkpt><trkpt lat="45.17766498108802" lon="9.501949093704454"><ele>68.0</ele><time>2026-04-11T10:30:26.999Z</time></trkpt><trkpt lat="45.17761004287014" lon="9.502026208952227"><ele>68.0</ele><time>2026-04-11T10:30:27.999Z</time></trkpt><trkpt lat="45.17755692313307" lon="9.502081476903674"><ele>67.6</ele><time>2026-04-11T10:30:28.999Z</time></trkpt><trkpt lat="45.1774622084803" lon="9.502167310579718"><ele>67.19999999999999</ele><time>2026-04-11T10:30:30.999Z</time></trkpt><trkpt lat="45.17736768874316" lon="9.502238775664914"><ele>66.8</ele><time>2026-04-11T10:30:32.999Z</time></trkpt><trkpt lat="45.177364215501775" lon="9.502337030820202"><ele>66.39999999999999</ele><time>2026-04-11T10:30:35Z</time></trkpt><trkpt lat="45.17740748953652" lon="9.50250140535725"><ele>66.0</ele><time>2026-04-11T10:30:37Z</time></trkpt><trkpt lat="45.17743164917635" lon="9.502621285922581"><ele>66.0</ele><time>2026-04-11T10:30:38Z</time></trkpt><trkpt lat="45.17745275862957" lon="9.50276330250194"><ele>66.0</ele><time>2026-04-11T10:30:39Z</time></trkpt><trkpt lat="45.17747433941199" lon="9.502917406549228"><ele>66.0</ele><time>2026-04-11T10:30:40Z</time></trkpt><trkpt lat="45.17750134143177" lon="9.503078795650216"><ele>66.0</ele><time>2026-04-11T10:30:41Z</time></trkpt><trkpt lat="45.17752868739853" lon="9.503250290519142"><ele>66.0</ele><time>2026-04-11T10:30:42Z</time></trkpt><trkpt lat="45.177548146841225" lon="9.50339224712189"><ele>66.0</ele><time>2026-04-11T10:30:43Z</time></trkpt><trkpt lat="45.17756492910919" lon="9.503540673469914"><ele>66.0</ele><time>2026-04-11T10:30:44Z</time></trkpt><trkpt lat="45.177585307246076" lon="9.503678508850012"><ele>66.0</ele><time>2026-04-11T10:30:45Z</time></trkpt><trkpt lat="45.177607223463845" lon="9.503801421340912"><ele>66.0</ele><time>2026-04-11T10:30:46Z</time></trkpt><trkpt lat="45.17763505233381" lon="9.5039110360532"><ele>66.0</ele><time>2026-04-11T10:30:47Z</time></trkpt><trkpt lat="45.177604519730906" lon="9.504081707751935"><ele>66.0</ele><time>2026-04-11T10:30:49Z</time></trkpt><trkpt lat="45.177559710633695" lon="9.504166714680995"><ele>66.0</ele><time>2026-04-11T10:30:50Z</time></trkpt><trkpt lat="45.17749528094501" lon="9.504245946594457"><ele>66.0</ele><time>2026-04-11T10:30:51Z</time></trkpt><trkpt lat="45.17742392251616" lon="9.504326888066073"><ele>66.0</ele><time>2026-04-11T10:30:52Z</time></trkpt><trkpt lat="45.17736638645193" lon="9.504388155851593"><ele>66.0</ele><time>2026-04-11T10:30:53Z</time></trkpt><trkpt lat="45.17731506818858" lon="9.504464630259292"><ele>66.0</ele><time>2026-04-11T10:30:54Z</time></trkpt><trkpt lat="45.177260818704994" lon="9.504547993811494"><ele>66.0</ele><time>2026-04-11T10:30:55Z</time></trkpt><trkpt lat="45.17719931248063" lon="9.504660684673576"><ele>66.0</ele><time>2026-04-11T10:30:56Z</time></trkpt><trkpt lat="45.17716497289428" lon="9.504750183441809"><ele>66.0</ele><time>2026-04-11T10:30:57Z</time></trkpt><trkpt lat="45.177135751359934" lon="9.504864092943638"><ele>66.0</ele><time>2026-04-11T10:30:58Z</time></trkpt><trkpt lat="45.17709373171329" lon="9.504987931748689"><ele>66.0</ele><time>2026-04-11T10:30:59Z</time></trkpt><trkpt lat="45.17705519971169" lon="9.505124382906821"><ele>66.0</ele><time>2026-04-11T10:31:00Z</time></trkpt><trkpt lat="45.17702742204585" lon="9.505232380039386"><ele>66.0</ele><time>2026-04-11T10:31:01Z</time></trkpt><trkpt lat="45.17699365573469" lon="9.505367358303937"><ele>66.0</ele><time>2026-04-11T10:31:02Z</time></trkpt><trkpt lat="45.17697404958627" lon="9.505512477937483"><ele>66.0</ele><time>2026-04-11T10:31:03Z</time></trkpt><trkpt lat="45.176964811589244" lon="9.505643713552686"><ele>66.0</ele><time>2026-04-11T10:31:04Z</time></trkpt><trkpt lat="45.17694975965109" lon="9.505768686296914"><ele>65.83333333333333</ele><time>2026-04-11T10:31:05Z</time></trkpt><trkpt lat="45.17693869623151" lon="9.50590394955193"><ele>65.66666666666667</ele><time>2026-04-11T10:31:06Z</time></trkpt><trkpt lat="45.176930226999445" lon="9.506028959562961"><ele>65.5</ele><time>2026-04-11T10:31:07Z</time></trkpt><trkpt lat="45.17693249768841" lon="9.506137178600449"><ele>65.33333333333334</ele><time>2026-04-11T10:31:08Z</time></trkpt><trkpt lat="45.17692816179995" lon="9.506273636264668"><ele>65.16666666666667</ele><time>2026-04-11T10:31:09Z</time></trkpt><trkpt lat="45.17692350076508" lon="9.506383765284669"><ele>65.0</ele><time>2026-04-11T10:31:10Z</time></trkpt><trkpt lat="45.17692463893583" lon="9.506474199046405"><ele>65.0</ele><time>2026-04-11T10:31:11Z</time></trkpt><trkpt lat="45.17692897863266" lon="9.506574958863299"><ele>65.0</ele><time>2026-04-11T10:31:12Z</time></trkpt><trkpt lat="45.176936792765815" lon="9.506668285722737"><ele>65.0</ele><time>2026-04-11T10:31:13Z</time></trkpt><trkpt lat="45.17695364129356" lon="9.506766926223815"><ele>65.0</ele><time>2026-04-11T10:31:14Z</time></trkpt><trkpt lat="45.17697685797537" lon="9.506888790997941"><ele>65.0</ele><time>2026-04-11T10:31:15Z</time></trkpt><trkpt lat="45.17698766949439" lon="9.507010846657739"><ele>65.0</ele><time>2026-04-11T10:31:16Z</time></trkpt><trkpt lat="45.17699949430721" lon="9.50714748995242"><ele>64.5</ele><time>2026-04-11T10:31:17Z</time></trkpt><trkpt lat="45.177017744339764" lon="9.50730741140663"><ele>64.0</ele><time>2026-04-11T10:31:18Z</time></trkpt><trkpt lat="45.17704507850545" lon="9.507472795011845"><ele>63.5</ele><time>2026-04-11T10:31:19Z</time></trkpt><trkpt lat="45.17706933377357" lon="9.507627743447285"><ele>63.0</ele><time>2026-04-11T10:31:20Z</time></trkpt><trkpt lat="45.177089380029656" lon="9.507783006399094"><ele>63.0</ele><time>2026-04-11T10:31:21Z</time></trkpt><trkpt lat="45.17710253571327" lon="9.507939109649726"><ele>63.0</ele><time>2026-04-11T10:31:22Z</time></trkpt><trkpt lat="45.177114117315554" lon="9.508079128682652"><ele>63.0</ele><time>2026-04-11T10:31:23Z</time></trkpt><trkpt lat="45.17713274495505" lon="9.50819603364138"><ele>63.0</ele><time>2026-04-11T10:31:24Z</time></trkpt><trkpt lat="45.177146210807074" lon="9.508289567876378"><ele>63.0</ele><time>2026-04-11T10:31:25Z</time></trkpt><trkpt lat="45.17714311925756" lon="9.508384977801201"><ele>63.0</ele><time>2026-04-11T10:31:26Z</time></trkpt><trkpt lat="45.17712685961183" lon="9.508494361764868"><ele>63.0</ele><time>2026-04-11T10:31:27Z</time></trkpt><trkpt lat="45.17710765991238" lon="9.508625659109425"><ele>63.0</ele><time>2026-04-11T10:31:28Z</time></trkpt><trkpt lat="45.177102132675266" lon="9.508774141947873"><ele>63.0</ele><time>2026-04-11T10:31:29Z</time></trkpt><trkpt lat="45.17710869501981" lon="9.50893562098478"><ele>63.0</ele><time>2026-04-11T10:31:30Z</time></trkpt><trkpt lat="45.177114878435944" lon="9.509111684910978"><ele>63.0</ele><time>2026-04-11T10:31:31Z</time></trkpt><trkpt lat="45.177128155310875" lon="9.50930167687151"><ele>63.5</ele><time>2026-04-11T10:31:32Z</time></trkpt><trkpt lat="45.17714060988664" lon="9.509489422550894"><ele>64.0</ele><time>2026-04-11T10:31:33Z</time></trkpt><trkpt lat="45.17715138774606" lon="9.509674767189868"><ele>64.5</ele><time>2026-04-11T10:31:34Z</time></trkpt><trkpt lat="45.1771587229823" lon="9.509843489578506"><ele>65.0</ele><time>2026-04-11T10:31:35Z</time></trkpt><trkpt lat="45.177161205138326" lon="9.509979982204209"><ele>65.0</ele><time>2026-04-11T10:31:36Z</time></trkpt><trkpt lat="45.177156539312016" lon="9.51009212194104"><ele>65.0</ele><time>2026-04-11T10:31:37Z</time></trkpt><trkpt lat="45.17714971900753" lon="9.510204478703287"><ele>65.0</ele><time>2026-04-11T10:31:38Z</time></trkpt><trkpt lat="45.17712251429886" lon="9.510302056826646"><ele>65.0</ele><time>2026-04-11T10:31:39Z</time></trkpt><trkpt lat="45.17707809963494" lon="9.510391504062982"><ele>65.0</ele><time>2026-04-11T10:31:39.999Z</time></trkpt><trkpt lat="45.17702306176825" lon="9.510463652644402"><ele>65.0</ele><time>2026-04-11T10:31:40.999Z</time></trkpt><trkpt lat="45.17695347558097" lon="9.510511386302792"><ele>65.0</ele><time>2026-04-11T10:31:41.999Z</time></trkpt><trkpt lat="45.17687902760642" lon="9.510537547526095"><ele>65.0</ele><time>2026-04-11T10:31:42.999Z</time></trkpt><trkpt lat="45.17681263901443" lon="9.510542381316265"><ele>65.0</ele><time>2026-04-11T10:31:43.999Z</time></trkpt><trkpt lat="45.17670459564558" lon="9.510612469571495"><ele>65.0</ele><time>2026-04-11T10:31:45.999Z</time></trkpt><trkpt lat="45.17665304668197" lon="9.510733900192875"><ele>65.0</ele><time>2026-04-11T10:31:47.999Z</time></trkpt><trkpt lat="45.17664396606719" lon="9.510911028648085"><ele>65.0</ele><time>2026-04-11T10:31:49.999Z</time></trkpt><trkpt lat="45.176664138016186" lon="9.511039588744987"><ele>65.0</ele><time>2026-04-11T10:31:50.999Z</time></trkpt><trkpt lat="45.176684868906285" lon="9.511185660945502"><ele>65.0</ele><time>2026-04-11T10:31:51.999Z</time></trkpt><trkpt lat="45.17669301947601" lon="9.511328394241872"><ele>65.0</ele><time>2026-04-11T10:31:52.999Z</time></trkpt><trkpt lat="45.17670967107543" lon="9.511472946856305"><ele>65.0</ele><time>2026-04-11T10:31:53.999Z</time></trkpt><trkpt lat="45.176724754043335" lon="9.511618675244781"><ele>65.0</ele><time>2026-04-11T10:31:54.999Z</time></trkpt><trkpt lat="45.17672961992033" lon="9.511751132508143"><ele>65.0</ele><time>2026-04-11T10:31:55.999Z</time></trkpt><trkpt lat="45.17673806794675" lon="9.511876144902233"><ele>65.0</ele><time>2026-04-11T10:31:56.999Z</time></trkpt><trkpt lat="45.1767463830107" lon="9.511992051679153"><ele>65.0</ele><time>2026-04-11T10:31:57.999Z</time></trkpt><trkpt lat="45.17674992341695" lon="9.512085962459345"><ele>65.0</ele><time>2026-04-11T10:31:58.999Z</time></trkpt><trkpt lat="45.17673585243364" lon="9.51217828367633"><ele>65.0</ele><time>2026-04-11T10:31:59.999Z</time></trkpt><trkpt lat="45.1766987737917" lon="9.512252171778918"><ele>65.0</ele><time>2026-04-11T10:32:00.999Z</time></trkpt><trkpt lat="45.17657188458309" lon="9.512289153081321"><ele>65.0</ele><time>2026-04-11T10:32:02.999Z</time></trkpt><trkpt lat="45.176490624978825" lon="9.512279275740692"><ele>65.0</ele><time>2026-04-11T10:32:03.999Z</time></trkpt><trkpt lat="45.176407447631064" lon="9.512259702026265"><ele>65.0</ele><time>2026-04-11T10:32:04.999Z</time></trkpt><trkpt lat="45.176336000355995" lon="9.512232404592217"><ele>65.0</ele><time>2026-04-11T10:32:05.999Z</time></trkpt><trkpt lat="45.176228221201185" lon="9.512259634568203"><ele>64.8</ele><time>2026-04-11T10:32:07.999Z</time></trkpt><trkpt lat="45.17614257806122" lon="9.512399922020709"><ele>64.6</ele><time>2026-04-11T10:32:09.999Z</time></trkpt><trkpt lat="45.17611969786212" lon="9.512503300996183"><ele>64.4</ele><time>2026-04-11T10:32:10.999Z</time></trkpt><trkpt lat="45.176117392529854" lon="9.512594354662196"><ele>64.2</ele><time>2026-04-11T10:32:11.999Z</time></trkpt><trkpt lat="45.17611506702387" lon="9.512717142435159"><ele>64.0</ele><time>2026-04-11T10:32:12.999Z</time></trkpt><trkpt lat="45.17611358978935" lon="9.51285743386343"><ele>63.6</ele><time>2026-04-11T10:32:13.999Z</time></trkpt><trkpt lat="45.17610671758182" lon="9.513066852539987"><ele>63.2</ele><time>2026-04-11T10:32:15.999Z</time></trkpt><trkpt lat="45.1761049846761" lon="9.513211757938539"><ele>62.800000000000004</ele><time>2026-04-11T10:32:16.999Z</time></trkpt><trkpt lat="45.17610273670346" lon="9.513355289248363"><ele>62.400000000000006</ele><time>2026-04-11T10:32:17.999Z</time></trkpt><trkpt lat="45.17610713992045" lon="9.513481384591124"><ele>62.0</ele><time>2026-04-11T10:32:18.999Z</time></trkpt><trkpt lat="45.17611762849044" lon="9.513633099706954"><ele>62.400000000000006</ele><time>2026-04-11T10:32:19.999Z</time></trkpt><trkpt lat="45.17613049490635" lon="9.513780988780624"><ele>62.800000000000004</ele><time>2026-04-11T10:32:20.999Z</time></trkpt><trkpt lat="45.17615938143553" lon="9.513914348027381"><ele>63.2</ele><time>2026-04-11T10:32:21.999Z</time></trkpt><trkpt lat="45.17619708158872" lon="9.514045898034741"><ele>63.6</ele><time>2026-04-11T10:32:22.999Z</time></trkpt><trkpt lat="45.17624401269978" lon="9.514172064048369"><ele>64.0</ele><time>2026-04-11T10:32:23.999Z</time></trkpt><trkpt lat="45.17629659291534" lon="9.514293223567995"><ele>64.0</ele><time>2026-04-11T10:32:24.999Z</time></trkpt><trkpt lat="45.1763387580999" lon="9.514407352942039"><ele>64.0</ele><time>2026-04-11T10:32:25.999Z</time></trkpt><trkpt lat="45.176362132644115" lon="9.514517322581876"><ele>64.0</ele><time>2026-04-11T10:32:26.999Z</time></trkpt><trkpt lat="45.17637991693107" lon="9.514639765701618"><ele>64.0</ele><time>2026-04-11T10:32:27.999Z</time></trkpt><trkpt lat="45.17639115267603" lon="9.514778294736487"><ele>64.0</ele><time>2026-04-11T10:32:28.999Z</time></trkpt><trkpt lat="45.1763969267634" lon="9.51492278609972"><ele>64.0</ele><time>2026-04-11T10:32:29.999Z</time></trkpt><trkpt lat="45.176407999600656" lon="9.515089071067058"><ele>64.0</ele><time>2026-04-11T10:32:30.999Z</time></trkpt><trkpt lat="45.17644398518403" lon="9.515277724230117"><ele>64.0</ele><time>2026-04-11T10:32:31.999Z</time></trkpt><trkpt lat="45.17648453900639" lon="9.515452909263626"><ele>64.0</ele><time>2026-04-11T10:32:32.999Z</time></trkpt><trkpt lat="45.17652278136526" lon="9.515634513712259"><ele>64.0</ele><time>2026-04-11T10:32:33.999Z</time></trkpt><trkpt lat="45.1765614637741" lon="9.515827987123684"><ele>64.0</ele><time>2026-04-11T10:32:34.999Z</time></trkpt><trkpt lat="45.17658992948643" lon="9.516023042521155"><ele>64.0</ele><time>2026-04-11T10:32:35.999Z</time></trkpt><trkpt lat="45.176617259710625" lon="9.516197382974813"><ele>64.0</ele><time>2026-04-11T10:32:36.999Z</time></trkpt><trkpt lat="45.176656658950115" lon="9.516383648683515"><ele>63.75</ele><time>2026-04-11T10:32:37.999Z</time></trkpt><trkpt lat="45.17670763923183" lon="9.516580342654585"><ele>63.5</ele><time>2026-04-11T10:32:38.999Z</time></trkpt><trkpt lat="45.17675754648621" lon="9.516765675189491"><ele>63.25</ele><time>2026-04-11T10:32:39.999Z</time></trkpt><trkpt lat="45.176797614316314" lon="9.516934630071843"><ele>63.0</ele><time>2026-04-11T10:32:41Z</time></trkpt><trkpt lat="45.17683062473299" lon="9.517098191239322"><ele>62.8</ele><time>2026-04-11T10:32:42Z</time></trkpt><trkpt lat="45.17685836465593" lon="9.5172623271626"><ele>62.599999999999994</ele><time>2026-04-11T10:32:43Z</time></trkpt><trkpt lat="45.176876579794104" lon="9.51741500907499"><ele>62.400000000000006</ele><time>2026-04-11T10:32:44Z</time></trkpt><trkpt lat="45.17688789498849" lon="9.517571041079249"><ele>62.2</ele><time>2026-04-11T10:32:45Z</time></trkpt><trkpt lat="45.17688764350507" lon="9.517727167445837"><ele>62.0</ele><time>2026-04-11T10:32:46Z</time></trkpt><trkpt lat="45.17688845061301" lon="9.517878470010212"><ele>62.2</ele><time>2026-04-11T10:32:47Z</time></trkpt><trkpt lat="45.17688668444692" lon="9.518014987935178"><ele>62.400000000000006</ele><time>2026-04-11T10:32:48Z</time></trkpt><trkpt lat="45.17688496831633" lon="9.518127930471426"><ele>62.599999999999994</ele><time>2026-04-11T10:32:49Z</time></trkpt><trkpt lat="45.176886492960634" lon="9.51823165337326"><ele>62.8</ele><time>2026-04-11T10:32:50Z</time></trkpt><trkpt lat="45.17687282183418" lon="9.518362623374717"><ele>63.0</ele><time>2026-04-11T10:32:51Z</time></trkpt><trkpt lat="45.176841804752236" lon="9.518541743446573"><ele>63.0</ele><time>2026-04-11T10:32:52Z</time></trkpt><trkpt lat="45.17681940517046" lon="9.518733966904655"><ele>63.0</ele><time>2026-04-11T10:32:53Z</time></trkpt><trkpt lat="45.17679456710501" lon="9.518959219713379"><ele>63.0</ele><time>2026-04-11T10:32:54Z</time></trkpt><trkpt lat="45.176754916412285" lon="9.519202326502937"><ele>63.0</ele><time>2026-04-11T10:32:55Z</time></trkpt><trkpt lat="45.176698073739665" lon="9.519439060855017"><ele>63.0</ele><time>2026-04-11T10:32:56Z</time></trkpt><trkpt lat="45.17664806093164" lon="9.519648023050383"><ele>63.0</ele><time>2026-04-11T10:32:57Z</time></trkpt><trkpt lat="45.176595740192624" lon="9.51987290926321"><ele>63.0</ele><time>2026-04-11T10:32:58Z</time></trkpt><trkpt lat="45.176540666298905" lon="9.520101202210482"><ele>63.0</ele><time>2026-04-11T10:32:59Z</time></trkpt><trkpt lat="45.17648406753891" lon="9.520325931853971"><ele>63.0</ele><time>2026-04-11T10:33:00Z</time></trkpt><trkpt lat="45.17641859952332" lon="9.520548991994872"><ele>63.0</ele><time>2026-04-11T10:33:01Z</time></trkpt><trkpt lat="45.176334139763185" lon="9.520769830532569"><ele>63.0</ele><time>2026-04-11T10:33:02Z</time></trkpt><trkpt lat="45.1762372717937" lon="9.520984960651033"><ele>63.0</ele><time>2026-04-11T10:33:03Z</time></trkpt><trkpt lat="45.176160251205" lon="9.52114408486375"><ele>62.75</ele><time>2026-04-11T10:33:04Z</time></trkpt><trkpt lat="45.17608902723759" lon="9.52126588505809"><ele>62.5</ele><time>2026-04-11T10:33:05Z</time></trkpt><trkpt lat="45.17600641861181" lon="9.521350501902932"><ele>62.25</ele><time>2026-04-11T10:33:06Z</time></trkpt><trkpt lat="45.175900066705616" lon="9.521388193844643"><ele>62.0</ele><time>2026-04-11T10:33:07Z</time></trkpt><trkpt lat="45.175768662099635" lon="9.521371825522204"><ele>62.0</ele><time>2026-04-11T10:33:08Z</time></trkpt><trkpt lat="45.17562418098176" lon="9.521297763199424"><ele>62.0</ele><time>2026-04-11T10:33:09Z</time></trkpt><trkpt lat="45.17548210441183" lon="9.521196556716736"><ele>62.0</ele><time>2026-04-11T10:33:10Z</time></trkpt><trkpt lat="45.17534505816831" lon="9.521120626843661"><ele>62.0</ele><time>2026-04-11T10:33:11Z</time></trkpt><trkpt lat="45.17521012779019" lon="9.521043098722402"><ele>62.0</ele><time>2026-04-11T10:33:12Z</time></trkpt><trkpt lat="45.175068303170555" lon="9.52096361715471"><ele>62.0</ele><time>2026-04-11T10:33:13Z</time></trkpt><trkpt lat="45.17491914681901" lon="9.520873421816761"><ele>62.0</ele><time>2026-04-11T10:33:14Z</time></trkpt><trkpt lat="45.17476611121164" lon="9.520765270366187"><ele>62.0</ele><time>2026-04-11T10:33:15Z</time></trkpt><trkpt lat="45.174611083715526" lon="9.520642945479812"><ele>62.0</ele><time>2026-04-11T10:33:16Z</time></trkpt><trkpt lat="45.17445479047029" lon="9.52051776221809"><ele>62.333333333333336</ele><time>2026-04-11T10:33:17Z</time></trkpt><trkpt lat="45.17429445150865" lon="9.520392654576506"><ele>62.66666666666667</ele><time>2026-04-11T10:33:18Z</time></trkpt><trkpt lat="45.17412629435766" lon="9.520255938332472"><ele>63.0</ele><time>2026-04-11T10:33:19Z</time></trkpt><trkpt lat="45.173955975106026" lon="9.520121598742161"><ele>63.33333333333333</ele><time>2026-04-11T10:33:20Z</time></trkpt><trkpt lat="45.173776064036694" lon="9.519997954332814"><ele>63.666666666666664</ele><time>2026-04-11T10:33:21Z</time></trkpt><trkpt lat="45.17358501060383" lon="9.519906454149416"><ele>64.0</ele><time>2026-04-11T10:33:22Z</time></trkpt><trkpt lat="45.17339419261172" lon="9.51984680657773"><ele>64.0</ele><time>2026-04-11T10:33:23Z</time></trkpt><trkpt lat="45.17321186699251" lon="9.519780955689457"><ele>64.0</ele><time>2026-04-11T10:33:24Z</time></trkpt><trkpt lat="45.173037941729376" lon="9.51966662953731"><ele>64.0</ele><time>2026-04-11T10:33:25Z</time></trkpt><trkpt lat="45.17288507848927" lon="9.519551223314686"><ele>64.0</ele><time>2026-04-11T10:33:26Z</time></trkpt><trkpt lat="45.17275210546482" lon="9.519451806707588"><ele>64.0</ele><time>2026-04-11T10:33:27Z</time></trkpt><trkpt lat="45.17263315770796" lon="9.519363767546418"><ele>64.0</ele><time>2026-04-11T10:33:28Z</time></trkpt><trkpt lat="45.172522201060055" lon="9.519280946279741"><ele>64.0</ele><time>2026-04-11T10:33:29Z</time></trkpt><trkpt lat="45.17241725380812" lon="9.519202154565987"><ele>64.0</ele><time>2026-04-11T10:33:30Z</time></trkpt><trkpt lat="45.17232395979248" lon="9.519131178570754"><ele>64.0</ele><time>2026-04-11T10:33:31Z</time></trkpt><trkpt lat="45.172228511895995" lon="9.519054315877414"><ele>64.0</ele><time>2026-04-11T10:33:32Z</time></trkpt><trkpt lat="45.1721301198079" lon="9.518976135585044"><ele>64.0</ele><time>2026-04-11T10:33:33Z</time></trkpt><trkpt lat="45.17205487587325" lon="9.518927200964463"><ele>64.0</ele><time>2026-04-11T10:33:34Z</time></trkpt><trkpt lat="45.171984956875384" lon="9.518902035719838"><ele>64.0</ele><time>2026-04-11T10:33:35Z</time></trkpt><trkpt lat="45.17190221676552" lon="9.518923824391301"><ele>64.0</ele><time>2026-04-11T10:33:36Z</time></trkpt><trkpt lat="45.17181887879212" lon="9.519005296605696"><ele>64.0</ele><time>2026-04-11T10:33:37Z</time></trkpt><trkpt lat="45.171736314160675" lon="9.519142891026304"><ele>64.0</ele><time>2026-04-11T10:33:38Z</time></trkpt><trkpt lat="45.171649613622485" lon="9.51930437078062"><ele>64.0</ele><time>2026-04-11T10:33:39Z</time></trkpt><trkpt lat="45.17155415806933" lon="9.519469246970585"><ele>64.0</ele><time>2026-04-11T10:33:40Z</time></trkpt><trkpt lat="45.171462336373025" lon="9.519659721931376"><ele>64.0</ele><time>2026-04-11T10:33:41Z</time></trkpt><trkpt lat="45.17137364311584" lon="9.519864459097999"><ele>64.0</ele><time>2026-04-11T10:33:42Z</time></trkpt><trkpt lat="45.171294898890956" lon="9.520058547129723"><ele>64.0</ele><time>2026-04-11T10:33:43Z</time></trkpt><trkpt lat="45.171222779405944" lon="9.520244737449403"><ele>64.0</ele><time>2026-04-11T10:33:44Z</time></trkpt><trkpt lat="45.171142964544366" lon="9.520388067380763"><ele>64.0</ele><time>2026-04-11T10:33:45Z</time></trkpt><trkpt lat="45.17103221602988" lon="9.520505760947833"><ele>63.666666666666664</ele><time>2026-04-11T10:33:46Z</time></trkpt><trkpt lat="45.17089661765243" lon="9.520626270725106"><ele>63.33333333333333</ele><time>2026-04-11T10:33:47Z</time></trkpt><trkpt lat="45.170756771988536" lon="9.520745656469105"><ele>63.0</ele><time>2026-04-11T10:33:48Z</time></trkpt><trkpt lat="45.170609298962155" lon="9.520866463110542"><ele>63.0</ele><time>2026-04-11T10:33:49Z</time></trkpt><trkpt lat="45.17045578095628" lon="9.520980516458895"><ele>63.0</ele><time>2026-04-11T10:33:50Z</time></trkpt><trkpt lat="45.170293958706" lon="9.521086589596026"><ele>63.0</ele><time>2026-04-11T10:33:51Z</time></trkpt><trkpt lat="45.17012921642011" lon="9.521192690079408"><ele>63.0</ele><time>2026-04-11T10:33:52Z</time></trkpt><trkpt lat="45.16996243121856" lon="9.52129261316645"><ele>63.0</ele><time>2026-04-11T10:33:53Z</time></trkpt><trkpt lat="45.16978551358631" lon="9.521397396469101"><ele>63.0</ele><time>2026-04-11T10:33:54Z</time></trkpt><trkpt lat="45.169599158480715" lon="9.5215030816136"><ele>63.0</ele><time>2026-04-11T10:33:55Z</time></trkpt><trkpt lat="45.169413072210304" lon="9.521605616666134"><ele>63.0</ele><time>2026-04-11T10:33:56Z</time></trkpt><trkpt lat="45.16922395320336" lon="9.521717770188843"><ele>63.0</ele><time>2026-04-11T10:33:56.999Z</time></trkpt><trkpt lat="45.16904256453791" lon="9.52183566708804"><ele>63.0</ele><time>2026-04-11T10:33:57.999Z</time></trkpt><trkpt lat="45.16887081721291" lon="9.521951029909923"><ele>63.0</ele><time>2026-04-11T10:33:58.999Z</time></trkpt><trkpt lat="45.16871422334986" lon="9.522063141247624"><ele>63.0</ele><time>2026-04-11T10:33:59.999Z</time></trkpt><trkpt lat="45.16855473303876" lon="9.5221767097017"><ele>63.0</ele><time>2026-04-11T10:34:00.999Z</time></trkpt><trkpt lat="45.16839871028052" lon="9.522286037096602"><ele>63.0</ele><time>2026-04-11T10:34:01.999Z</time></trkpt><trkpt lat="45.168234718486815" lon="9.52239107534616"><ele>63.0</ele><time>2026-04-11T10:34:02.999Z</time></trkpt><trkpt lat="45.16805536321403" lon="9.522483051083663"><ele>63.0</ele><time>2026-04-11T10:34:03.999Z</time></trkpt><trkpt lat="45.16786721854249" lon="9.522571088948606"><ele>63.0</ele><time>2026-04-11T10:34:04.999Z</time></trkpt><trkpt lat="45.167675306518724" lon="9.522664169445521"><ele>63.0</ele><time>2026-04-11T10:34:05.999Z</time></trkpt><trkpt lat="45.167479744474" lon="9.52276020227295"><ele>63.0</ele><time>2026-04-11T10:34:06.999Z</time></trkpt><trkpt lat="45.167282420201936" lon="9.522857475547017"><ele>63.0</ele><time>2026-04-11T10:34:07.999Z</time></trkpt><trkpt lat="45.16708293860675" lon="9.52295530390107"><ele>63.0</ele><time>2026-04-11T10:34:08.999Z</time></trkpt><trkpt lat="45.16687903064344" lon="9.523054829176841"><ele>63.0</ele><time>2026-04-11T10:34:09.999Z</time></trkpt><trkpt lat="45.166676139373" lon="9.523154059122"><ele>63.0</ele><time>2026-04-11T10:34:10.999Z</time></trkpt><trkpt lat="45.16647917114604" lon="9.523249628821585"><ele>63.0</ele><time>2026-04-11T10:34:11.999Z</time></trkpt><trkpt lat="45.16628401601716" lon="9.523345923939255"><ele>62.66666666666667</ele><time>2026-04-11T10:34:12.999Z</time></trkpt><trkpt lat="45.16610824836321" lon="9.523428377981668"><ele>62.333333333333336</ele><time>2026-04-11T10:34:13.999Z</time></trkpt><trkpt lat="45.16594225523364" lon="9.523511430272446"><ele>62.0</ele><time>2026-04-11T10:34:14.999Z</time></trkpt><trkpt lat="45.165782028464854" lon="9.523583633777575"><ele>61.75</ele><time>2026-04-11T10:34:15.999Z</time></trkpt><trkpt lat="45.16563547448197" lon="9.523651938299054"><ele>61.5</ele><time>2026-04-11T10:34:16.999Z</time></trkpt><trkpt lat="45.16549418651866" lon="9.523714231105101"><ele>61.25</ele><time>2026-04-11T10:34:17.999Z</time></trkpt><trkpt lat="45.165368404522525" lon="9.523764684370994"><ele>61.0</ele><time>2026-04-11T10:34:18.999Z</time></trkpt><trkpt lat="45.165270905996934" lon="9.523786909106363"><ele>60.99999999999999</ele><time>2026-04-11T10:34:19.999Z</time></trkpt><trkpt lat="45.165190051661895" lon="9.52380093951988"><ele>61.0</ele><time>2026-04-11T10:34:20.999Z</time></trkpt><trkpt lat="45.16509206394356" lon="9.523797568112752"><ele>61.0</ele><time>2026-04-11T10:34:22.999Z</time></trkpt><trkpt lat="45.16502267159446" lon="9.523771382665457"><ele>61.0</ele><time>2026-04-11T10:34:23.999Z</time></trkpt><trkpt lat="45.16493873293136" lon="9.523756818866595"><ele>60.99999999999999</ele><time>2026-04-11T10:34:24.999Z</time></trkpt><trkpt lat="45.16485337863203" lon="9.523798187005015"><ele>61.0</ele><time>2026-04-11T10:34:25.999Z</time></trkpt><trkpt lat="45.16479698758156" lon="9.523897333867872"><ele>61.25</ele><time>2026-04-11T10:34:26.999Z</time></trkpt><trkpt lat="45.164764614040394" lon="9.524054338502273"><ele>61.5</ele><time>2026-04-11T10:34:27.999Z</time></trkpt><trkpt lat="45.1647276216463" lon="9.5242392777123"><ele>61.75</ele><time>2026-04-11T10:34:28.999Z</time></trkpt><trkpt lat="45.164660552437866" lon="9.524387228863246"><ele>62.0</ele><time>2026-04-11T10:34:29.999Z</time></trkpt><trkpt lat="45.16458727150057" lon="9.524504375598985"><ele>62.0</ele><time>2026-04-11T10:34:30.999Z</time></trkpt><trkpt lat="45.16455514142792" lon="9.524653583272684"><ele>62.0</ele><time>2026-04-11T10:34:31.999Z</time></trkpt><trkpt lat="45.16455752271677" lon="9.524851451259954"><ele>62.0</ele><time>2026-04-11T10:34:32.999Z</time></trkpt><trkpt lat="45.164577184275956" lon="9.525073555035629"><ele>62.0</ele><time>2026-04-11T10:34:33.999Z</time></trkpt><trkpt lat="45.164585761290525" lon="9.525313666838741"><ele>62.333333333333336</ele><time>2026-04-11T10:34:34.999Z</time></trkpt><trkpt lat="45.164596483149055" lon="9.52556239325029"><ele>62.66666666666667</ele><time>2026-04-11T10:34:35.999Z</time></trkpt><trkpt lat="45.16461045321539" lon="9.525794888205402"><ele>63.0</ele><time>2026-04-11T10:34:36.999Z</time></trkpt><trkpt lat="45.16462371422099" lon="9.526003685722479"><ele>63.0</ele><time>2026-04-11T10:34:37.999Z</time></trkpt><trkpt lat="45.16463433024357" lon="9.526194372456107"><ele>63.0</ele><time>2026-04-11T10:34:38.999Z</time></trkpt><trkpt lat="45.16464296615009" lon="9.526368867604102"><ele>63.0</ele><time>2026-04-11T10:34:39.999Z</time></trkpt><trkpt lat="45.164650961719886" lon="9.526523146567985"><ele>63.0</ele><time>2026-04-11T10:34:40.999Z</time></trkpt><trkpt lat="45.16465833068361" lon="9.526665775894472"><ele>62.8</ele><time>2026-04-11T10:34:41.999Z</time></trkpt><trkpt lat="45.164668084426346" lon="9.526796346570022"><ele>62.599999999999994</ele><time>2026-04-11T10:34:42.999Z</time></trkpt><trkpt lat="45.16467603364228" lon="9.526919292491277"><ele>62.400000000000006</ele><time>2026-04-11T10:34:43.999Z</time></trkpt><trkpt lat="45.1646732923592" lon="9.527048705419782"><ele>62.2</ele><time>2026-04-11T10:34:44.999Z</time></trkpt><trkpt lat="45.16467337910478" lon="9.52715858566979"><ele>62.0</ele><time>2026-04-11T10:34:45.999Z</time></trkpt><trkpt lat="45.16467597321177" lon="9.527315432422785"><ele>62.00000000000001</ele><time>2026-04-11T10:34:48Z</time></trkpt><trkpt lat="45.164717476777646" lon="9.527413935135582"><ele>62.0</ele><time>2026-04-11T10:34:51Z</time></trkpt><trkpt lat="45.16484484103047" lon="9.527368562324803"><ele>62.0</ele><time>2026-04-11T10:34:53Z</time></trkpt><trkpt lat="45.16490841315702" lon="9.527305235459185"><ele>62.0</ele><time>2026-04-11T10:34:54Z</time></trkpt><trkpt lat="45.16496762966257" lon="9.52724891129518"><ele>62.00000000000001</ele><time>2026-04-11T10:34:55Z</time></trkpt><trkpt lat="45.16502847719545" lon="9.527188407632337"><ele>62.0</ele><time>2026-04-11T10:34:56Z</time></trkpt><trkpt lat="45.165094197236066" lon="9.527114175789658"><ele>61.50000000000001</ele><time>2026-04-11T10:34:57Z</time></trkpt><trkpt lat="45.16517116409315" lon="9.527049762213695"><ele>61.0</ele><time>2026-04-11T10:34:58Z</time></trkpt><trkpt lat="45.165237811747865" lon="9.526991256093732"><ele>60.5</ele><time>2026-04-11T10:34:59Z</time></trkpt><trkpt lat="45.16529841339664" lon="9.526925068820864"><ele>60.0</ele><time>2026-04-11T10:35:00Z</time></trkpt><trkpt lat="45.165358824171065" lon="9.526868191850141"><ele>59.50000000000001</ele><time>2026-04-11T10:35:01Z</time></trkpt><trkpt lat="45.16542603404017" lon="9.526842676151665"><ele>59.0</ele><time>2026-04-11T10:35:02Z</time></trkpt><trkpt lat="45.165528118954406" lon="9.52685474043549"><ele>59.0</ele><time>2026-04-11T10:35:04Z</time></trkpt><trkpt lat="45.165605306147924" lon="9.526974917217062"><ele>59.00000000000001</ele><time>2026-04-11T10:35:06Z</time></trkpt><trkpt lat="45.16562843585735" lon="9.527103179584438"><ele>59.00000000000001</ele><time>2026-04-11T10:35:07Z</time></trkpt><trkpt lat="45.16565150920158" lon="9.527246512667839"><ele>59.0</ele><time>2026-04-11T10:35:08Z</time></trkpt><trkpt lat="45.165678686083226" lon="9.527410954198844"><ele>59.0</ele><time>2026-04-11T10:35:09Z</time></trkpt><trkpt lat="45.165706525045394" lon="9.527596313253365"><ele>58.5</ele><time>2026-04-11T10:35:10Z</time></trkpt><trkpt lat="45.165724775744124" lon="9.527780504417663"><ele>58.0</ele><time>2026-04-11T10:35:11Z</time></trkpt><trkpt lat="45.16573814828161" lon="9.527948995307213"><ele>57.5</ele><time>2026-04-11T10:35:12Z</time></trkpt><trkpt lat="45.16574408043232" lon="9.528136083272308"><ele>57.0</ele><time>2026-04-11T10:35:13Z</time></trkpt><trkpt lat="45.16574493342537" lon="9.52833529629894"><ele>56.5</ele><time>2026-04-11T10:35:14Z</time></trkpt><trkpt lat="45.16574431035987" lon="9.528536685816329"><ele>56.0</ele><time>2026-04-11T10:35:15Z</time></trkpt><trkpt lat="45.165742412700915" lon="9.528746525960015"><ele>55.5</ele><time>2026-04-11T10:35:16Z</time></trkpt><trkpt lat="45.16574567993363" lon="9.5289696286735"><ele>55.0</ele><time>2026-04-11T10:35:17Z</time></trkpt><trkpt lat="45.165748686690435" lon="9.52920686571555"><ele>54.0</ele><time>2026-04-11T10:35:18Z</time></trkpt><trkpt lat="45.16575101026532" lon="9.529451212450693"><ele>53.0</ele><time>2026-04-11T10:35:19Z</time></trkpt><trkpt lat="45.16575719441734" lon="9.529695302373815"><ele>52.0</ele><time>2026-04-11T10:35:20Z</time></trkpt><trkpt lat="45.165757788001926" lon="9.529917576619843"><ele>52.0</ele><time>2026-04-11T10:35:21Z</time></trkpt><trkpt lat="45.16575839370312" lon="9.530157581787769"><ele>52.0</ele><time>2026-04-11T10:35:22Z</time></trkpt><trkpt lat="45.165759538009276" lon="9.530405724485007"><ele>52.0</ele><time>2026-04-11T10:35:23Z</time></trkpt><trkpt lat="45.16576116933986" lon="9.530658784769926"><ele>52.0</ele><time>2026-04-11T10:35:24Z</time></trkpt><trkpt lat="45.16576294911637" lon="9.530913153489161"><ele>52.0</ele><time>2026-04-11T10:35:25Z</time></trkpt><trkpt lat="45.16576357086862" lon="9.53117177662977"><ele>52.0</ele><time>2026-04-11T10:35:26Z</time></trkpt><trkpt lat="45.165764106635876" lon="9.531429411492727"><ele>51.666666666666664</ele><time>2026-04-11T10:35:27Z</time></trkpt><trkpt lat="45.16576644123359" lon="9.53168293379383"><ele>51.33333333333333</ele><time>2026-04-11T10:35:28Z</time></trkpt><trkpt lat="45.16576366197319" lon="9.531912027500253"><ele>51.0</ele><time>2026-04-11T10:35:29Z</time></trkpt><trkpt lat="45.16576578124481" lon="9.532110010711797"><ele>51.0</ele><time>2026-04-11T10:35:30Z</time></trkpt><trkpt lat="45.16576668570085" lon="9.532299178610218"><ele>51.0</ele><time>2026-04-11T10:35:31Z</time></trkpt><trkpt lat="45.16577012289575" lon="9.532453213308363"><ele>51.0</ele><time>2026-04-11T10:35:32Z</time></trkpt><trkpt lat="45.16577980840096" lon="9.532578441681125"><ele>51.0</ele><time>2026-04-11T10:35:33Z</time></trkpt><trkpt lat="45.16581063114514" lon="9.532707247856123"><ele>51.0</ele><time>2026-04-11T10:35:35Z</time></trkpt><trkpt lat="45.16574599125553" lon="9.53290486690835"><ele>51.4</ele><time>2026-04-11T10:35:42Z</time></trkpt><trkpt lat="45.16576799072276" lon="9.532990337807908"><ele>51.8</ele><time>2026-04-11T10:36:41.999Z</time></trkpt><trkpt lat="45.165782990527" lon="9.533189327174208"><ele>52.199999999999996</ele><time>2026-04-11T10:36:43.999Z</time></trkpt><trkpt lat="45.16578429027535" lon="9.53333127162666"><ele>52.599999999999994</ele><time>2026-04-11T10:36:44.999Z</time></trkpt><trkpt lat="45.16578577573092" lon="9.533466332035834"><ele>53.0</ele><time>2026-04-11T10:36:45.999Z</time></trkpt><trkpt lat="45.16578868531613" lon="9.533615859396148"><ele>53.5</ele><time>2026-04-11T10:36:46.999Z</time></trkpt><trkpt lat="45.1657906340082" lon="9.5337919151451"><ele>54.0</ele><time>2026-04-11T10:36:47.999Z</time></trkpt><trkpt lat="45.165791961315634" lon="9.533974005254231"><ele>54.5</ele><time>2026-04-11T10:36:48.999Z</time></trkpt><trkpt lat="45.16578821593999" lon="9.534145302911034"><ele>55.0</ele><time>2026-04-11T10:36:49.999Z</time></trkpt><trkpt lat="45.16578708920909" lon="9.534332723148914"><ele>55.0</ele><time>2026-04-11T10:36:50.999Z</time></trkpt><trkpt lat="45.1657898657295" lon="9.534533495727633"><ele>55.0</ele><time>2026-04-11T10:36:51.999Z</time></trkpt><trkpt lat="45.16579455491704" lon="9.53473528478284"><ele>55.0</ele><time>2026-04-11T10:36:53Z</time></trkpt><trkpt lat="45.16579720904003" lon="9.534930065490506"><ele>55.0</ele><time>2026-04-11T10:36:54Z</time></trkpt><trkpt lat="45.165799729780396" lon="9.53514676858401"><ele>55.0</ele><time>2026-04-11T10:36:55Z</time></trkpt><trkpt lat="45.165797281825625" lon="9.535375760664955"><ele>55.0</ele><time>2026-04-11T10:36:56Z</time></trkpt><trkpt lat="45.165797373331436" lon="9.535603850825979"><ele>55.0</ele><time>2026-04-11T10:36:57Z</time></trkpt><trkpt lat="45.16580110891254" lon="9.535819374998201"><ele>55.0</ele><time>2026-04-11T10:36:58Z</time></trkpt><trkpt lat="45.16580186008992" lon="9.53603806982395"><ele>55.0</ele><time>2026-04-11T10:36:59Z</time></trkpt><trkpt lat="45.16580733366404" lon="9.536261475176081"><ele>55.0</ele><time>2026-04-11T10:37:00Z</time></trkpt><trkpt lat="45.165809354461054" lon="9.536473579260546"><ele>55.0</ele><time>2026-04-11T10:37:01Z</time></trkpt><trkpt lat="45.16580619552954" lon="9.536676902100794"><ele>55.0</ele><time>2026-04-11T10:37:02Z</time></trkpt><trkpt lat="45.16580300457691" lon="9.536885811437342"><ele>55.0</ele><time>2026-04-11T10:37:03Z</time></trkpt><trkpt lat="45.16580066446128" lon="9.537104638974487"><ele>55.0</ele><time>2026-04-11T10:37:04Z</time></trkpt><trkpt lat="45.165801203459175" lon="9.537330879493627"><ele>54.666666666666664</ele><time>2026-04-11T10:37:05Z</time></trkpt><trkpt lat="45.16580500363171" lon="9.537568502120934"><ele>54.33333333333333</ele><time>2026-04-11T10:37:06Z</time></trkpt><trkpt lat="45.16581530949463" lon="9.53780726826224"><ele>54.0</ele><time>2026-04-11T10:37:07Z</time></trkpt><trkpt lat="45.16582860776896" lon="9.538057226815118"><ele>54.66666666666667</ele><time>2026-04-11T10:37:08Z</time></trkpt><trkpt lat="45.1658415900909" lon="9.538312779290816"><ele>55.333333333333336</ele><time>2026-04-11T10:37:09Z</time></trkpt><trkpt lat="45.16586433393381" lon="9.538570323509422"><ele>56.0</ele><time>2026-04-11T10:37:10Z</time></trkpt><trkpt lat="45.165893221895864" lon="9.53882993014699"><ele>56.333333333333336</ele><time>2026-04-11T10:37:11Z</time></trkpt><trkpt lat="45.16592456497719" lon="9.539103783253989"><ele>56.66666666666667</ele><time>2026-04-11T10:37:12Z</time></trkpt><trkpt lat="45.1659525680738" lon="9.539376682989502"><ele>57.0</ele><time>2026-04-11T10:37:13Z</time></trkpt><trkpt lat="45.16598097235228" lon="9.539653581543977"><ele>57.0</ele><time>2026-04-11T10:37:14Z</time></trkpt><trkpt lat="45.16600970736031" lon="9.539928495339826"><ele>57.0</ele><time>2026-04-11T10:37:15Z</time></trkpt><trkpt lat="45.16604264070831" lon="9.540207884503273"><ele>57.0</ele><time>2026-04-11T10:37:16Z</time></trkpt><trkpt lat="45.16607389158678" lon="9.540489070377467"><ele>57.66666666666667</ele><time>2026-04-11T10:37:17Z</time></trkpt><trkpt lat="45.16610273551427" lon="9.540764789002498"><ele>58.333333333333336</ele><time>2026-04-11T10:37:18Z</time></trkpt><trkpt lat="45.16613551531374" lon="9.541044429787817"><ele>59.0</ele><time>2026-04-11T10:37:19Z</time></trkpt><trkpt lat="45.16616779392699" lon="9.541331936472298"><ele>59.333333333333336</ele><time>2026-04-11T10:37:20Z</time></trkpt><trkpt lat="45.16619618919503" lon="9.541610936574328"><ele>59.66666666666667</ele><time>2026-04-11T10:37:21Z</time></trkpt><trkpt lat="45.166225044511805" lon="9.541888574986485"><ele>60.0</ele><time>2026-04-11T10:37:22Z</time></trkpt><trkpt lat="45.16625551192339" lon="9.542175136586229"><ele>60.0</ele><time>2026-04-11T10:37:23Z</time></trkpt><trkpt lat="45.16628727654762" lon="9.542461324588386"><ele>60.0</ele><time>2026-04-11T10:37:24Z</time></trkpt><trkpt lat="45.16631974846502" lon="9.542748305058792"><ele>60.0</ele><time>2026-04-11T10:37:25Z</time></trkpt><trkpt lat="45.166352444886876" lon="9.54304029076193"><ele>59.33333333333333</ele><time>2026-04-11T10:37:26Z</time></trkpt><trkpt lat="45.16638216364918" lon="9.543331528695873"><ele>58.666666666666664</ele><time>2026-04-11T10:37:27Z</time></trkpt><trkpt lat="45.16641659982854" lon="9.543635091627674"><ele>58.0</ele><time>2026-04-11T10:37:28Z</time></trkpt><trkpt lat="45.166449996512554" lon="9.543923620791585"><ele>58.0</ele><time>2026-04-11T10:37:29Z</time></trkpt><trkpt lat="45.166477384588525" lon="9.544181886855899"><ele>58.0</ele><time>2026-04-11T10:37:30Z</time></trkpt><trkpt lat="45.166502154435456" lon="9.544428491702094"><ele>58.0</ele><time>2026-04-11T10:37:31Z</time></trkpt><trkpt lat="45.16652616836631" lon="9.544658615230377"><ele>59.666666666666664</ele><time>2026-04-11T10:37:32Z</time></trkpt><trkpt lat="45.16655391127568" lon="9.544899670303488"><ele>61.33333333333333</ele><time>2026-04-11T10:37:33Z</time></trkpt><trkpt lat="45.16658098736018" lon="9.545155606770141"><ele>63.0</ele><time>2026-04-11T10:37:34Z</time></trkpt><trkpt lat="45.16660848264941" lon="9.545416842710356"><ele>63.0</ele><time>2026-04-11T10:37:35Z</time></trkpt><trkpt lat="45.166642535251206" lon="9.545688627780743"><ele>63.0</ele><time>2026-04-11T10:37:35.999Z</time></trkpt><trkpt lat="45.166676374668036" lon="9.54596971741855"><ele>63.0</ele><time>2026-04-11T10:37:36.999Z</time></trkpt><trkpt lat="45.1667083771622" lon="9.546252161303872"><ele>63.0</ele><time>2026-04-11T10:37:37.999Z</time></trkpt><trkpt lat="45.16673798397826" lon="9.54654019709454"><ele>63.0</ele><time>2026-04-11T10:37:38.999Z</time></trkpt><trkpt lat="45.166772535896094" lon="9.546812319149725"><ele>63.0</ele><time>2026-04-11T10:37:39.999Z</time></trkpt><trkpt lat="45.16679957888158" lon="9.547058720970567"><ele>63.0</ele><time>2026-04-11T10:37:40.999Z</time></trkpt><trkpt lat="45.166826896603254" lon="9.547295113909184"><ele>63.0</ele><time>2026-04-11T10:37:41.999Z</time></trkpt><trkpt lat="45.16685178976385" lon="9.547523396095832"><ele>63.0</ele><time>2026-04-11T10:37:42.999Z</time></trkpt><trkpt lat="45.16687363479087" lon="9.547744257816808"><ele>62.75</ele><time>2026-04-11T10:37:43.999Z</time></trkpt><trkpt lat="45.16690298427139" lon="9.547950156323916"><ele>62.5</ele><time>2026-04-11T10:37:44.999Z</time></trkpt><trkpt lat="45.166947294619106" lon="9.54814926930853"><ele>62.25</ele><time>2026-04-11T10:37:45.999Z</time></trkpt><trkpt lat="45.1670165173926" lon="9.548339051706344"><ele>62.0</ele><time>2026-04-11T10:37:46.999Z</time></trkpt><trkpt lat="45.167107145870645" lon="9.548529831127183"><ele>62.0</ele><time>2026-04-11T10:37:47.999Z</time></trkpt><trkpt lat="45.16719803768977" lon="9.548697008343996"><ele>62.0</ele><time>2026-04-11T10:37:48.999Z</time></trkpt><trkpt lat="45.167305334353536" lon="9.548854275113786"><ele>62.0</ele><time>2026-04-11T10:37:49.999Z</time></trkpt><trkpt lat="45.16741651331737" lon="9.548992887715334"><ele>62.25</ele><time>2026-04-11T10:37:50.999Z</time></trkpt><trkpt lat="45.16753573753111" lon="9.549107010730939"><ele>62.5</ele><time>2026-04-11T10:37:51.999Z</time></trkpt><trkpt lat="45.167649804662666" lon="9.549200709408998"><ele>62.75</ele><time>2026-04-11T10:37:52.999Z</time></trkpt><trkpt lat="45.167729619002266" lon="9.549301241770964"><ele>63.0</ele><time>2026-04-11T10:37:53.999Z</time></trkpt><trkpt lat="45.167777717681325" lon="9.549399610482011"><ele>63.0</ele><time>2026-04-11T10:37:54.999Z</time></trkpt><trkpt lat="45.16781796805888" lon="9.549553527302239"><ele>63.0</ele><time>2026-04-11T10:37:56.999Z</time></trkpt><trkpt lat="45.167833258228214" lon="9.54970661910246"><ele>63.0</ele><time>2026-04-11T10:37:58.999Z</time></trkpt><trkpt lat="45.16784754496004" lon="9.549814485940766"><ele>63.0</ele><time>2026-04-11T10:37:59.999Z</time></trkpt><trkpt lat="45.16787175168719" lon="9.549930939301122"><ele>63.0</ele><time>2026-04-11T10:38:00.999Z</time></trkpt><trkpt lat="45.16789879858701" lon="9.550062200665208"><ele>63.0</ele><time>2026-04-11T10:38:01.999Z</time></trkpt><trkpt lat="45.16789974072841" lon="9.550174317396747"><ele>63.0</ele><time>2026-04-11T10:38:02.999Z</time></trkpt><trkpt lat="45.16786960307434" lon="9.55029365103691"><ele>63.0</ele><time>2026-04-11T10:38:03.999Z</time></trkpt><trkpt lat="45.167812817838275" lon="9.550419333008213"><ele>63.0</ele><time>2026-04-11T10:38:04.999Z</time></trkpt><trkpt lat="45.16774617484033" lon="9.550558162678483"><ele>63.0</ele><time>2026-04-11T10:38:05.999Z</time></trkpt><trkpt lat="45.167684921255955" lon="9.550715006351266"><ele>63.25</ele><time>2026-04-11T10:38:06.999Z</time></trkpt><trkpt lat="45.16762134469703" lon="9.55087452432616"><ele>63.5</ele><time>2026-04-11T10:38:07.999Z</time></trkpt><trkpt lat="45.16755508629543" lon="9.551040401172395"><ele>63.75</ele><time>2026-04-11T10:38:08.999Z</time></trkpt><trkpt lat="45.16749840501395" lon="9.551212496932159"><ele>64.0</ele><time>2026-04-11T10:38:09.999Z</time></trkpt><trkpt lat="45.16744596610864" lon="9.551383364063389"><ele>64.0</ele><time>2026-04-11T10:38:10.999Z</time></trkpt><trkpt lat="45.167400423746166" lon="9.551578870312529"><ele>64.0</ele><time>2026-04-11T10:38:11.999Z</time></trkpt><trkpt lat="45.16737011447699" lon="9.551791527228088"><ele>64.0</ele><time>2026-04-11T10:38:12.999Z</time></trkpt><trkpt lat="45.16735880209819" lon="9.55201895494007"><ele>64.33333333333333</ele><time>2026-04-11T10:38:13.999Z</time></trkpt><trkpt lat="45.167362201511736" lon="9.552234099807071"><ele>64.66666666666667</ele><time>2026-04-11T10:38:14.999Z</time></trkpt><trkpt lat="45.16739086054015" lon="9.55246966302078"><ele>65.0</ele><time>2026-04-11T10:38:15.999Z</time></trkpt><trkpt lat="45.167431229363174" lon="9.55272162641883"><ele>64.33333333333334</ele><time>2026-04-11T10:38:16.999Z</time></trkpt><trkpt lat="45.16746066144583" lon="9.552991425197568"><ele>63.66666666666667</ele><time>2026-04-11T10:38:17.999Z</time></trkpt><trkpt lat="45.1674872262653" lon="9.55325700847661"><ele>63.0</ele><time>2026-04-11T10:38:18.999Z</time></trkpt><trkpt lat="45.167518155291056" lon="9.553516073254448"><ele>63.0</ele><time>2026-04-11T10:38:19.999Z</time></trkpt><trkpt lat="45.16754759150208" lon="9.553763007908923"><ele>63.0</ele><time>2026-04-11T10:38:20.999Z</time></trkpt><trkpt lat="45.16757657904577" lon="9.554011195411851"><ele>63.0</ele><time>2026-04-11T10:38:21.999Z</time></trkpt><trkpt lat="45.167606952938996" lon="9.554261045038157"><ele>63.0</ele><time>2026-04-11T10:38:22.999Z</time></trkpt><trkpt lat="45.16763487096409" lon="9.554516386574354"><ele>63.0</ele><time>2026-04-11T10:38:23.999Z</time></trkpt><trkpt lat="45.16766241989796" lon="9.554771969433972"><ele>63.0</ele><time>2026-04-11T10:38:24.999Z</time></trkpt><trkpt lat="45.167691692224956" lon="9.555030295567077"><ele>63.0</ele><time>2026-04-11T10:38:25.999Z</time></trkpt><trkpt lat="45.167717677196194" lon="9.555282071657443"><ele>63.0</ele><time>2026-04-11T10:38:26.999Z</time></trkpt><trkpt lat="45.1677432357261" lon="9.555518041233281"><ele>63.0</ele><time>2026-04-11T10:38:27.999Z</time></trkpt><trkpt lat="45.16776720743346" lon="9.55574077280027"><ele>63.0</ele><time>2026-04-11T10:38:28.999Z</time></trkpt><trkpt lat="45.16778995017926" lon="9.555965573258302"><ele>63.0</ele><time>2026-04-11T10:38:29.999Z</time></trkpt><trkpt lat="45.167812271129534" lon="9.556197229856279"><ele>63.0</ele><time>2026-04-11T10:38:30.999Z</time></trkpt><trkpt lat="45.167836859205465" lon="9.556436472914179"><ele>63.0</ele><time>2026-04-11T10:38:31.999Z</time></trkpt><trkpt lat="45.16786605676253" lon="9.556669739395813"><ele>63.0</ele><time>2026-04-11T10:38:32.999Z</time></trkpt><trkpt lat="45.16789501813655" lon="9.556912359463624"><ele>63.0</ele><time>2026-04-11T10:38:33.999Z</time></trkpt><trkpt lat="45.167920183234735" lon="9.557158483666354"><ele>63.0</ele><time>2026-04-11T10:38:34.999Z</time></trkpt><trkpt lat="45.167947440645264" lon="9.557410668126993"><ele>63.0</ele><time>2026-04-11T10:38:35.999Z</time></trkpt><trkpt lat="45.16797431511798" lon="9.55766039969597"><ele>63.0</ele><time>2026-04-11T10:38:36.999Z</time></trkpt><trkpt lat="45.16800039073577" lon="9.557918984705505"><ele>63.0</ele><time>2026-04-11T10:38:37.999Z</time></trkpt><trkpt lat="45.16802330057419" lon="9.558175042108166"><ele>63.0</ele><time>2026-04-11T10:38:38.999Z</time></trkpt><trkpt lat="45.16804158231909" lon="9.558433987018265"><ele>63.0</ele><time>2026-04-11T10:38:39.999Z</time></trkpt><trkpt lat="45.1680501851762" lon="9.558692266159511"><ele>62.66666666666667</ele><time>2026-04-11T10:38:40.999Z</time></trkpt><trkpt lat="45.16805937836396" lon="9.558961104067727"><ele>62.333333333333336</ele><time>2026-04-11T10:38:41.999Z</time></trkpt><trkpt lat="45.16806380878649" lon="9.559205315952807"><ele>62.0</ele><time>2026-04-11T10:38:42.999Z</time></trkpt><trkpt lat="45.16806170787411" lon="9.559397076024805"><ele>62.0</ele><time>2026-04-11T10:38:43.999Z</time></trkpt><trkpt lat="45.16805483147414" lon="9.55954805002396"><ele>62.0</ele><time>2026-04-11T10:38:44.999Z</time></trkpt><trkpt lat="45.16803126308591" lon="9.559684355995023"><ele>62.0</ele><time>2026-04-11T10:38:45.999Z</time></trkpt><trkpt lat="45.1679866959364" lon="9.55981666203561"><ele>62.0</ele><time>2026-04-11T10:38:46.999Z</time></trkpt><trkpt lat="45.167953016896014" lon="9.559944111906756"><ele>62.0</ele><time>2026-04-11T10:38:47.999Z</time></trkpt><trkpt lat="45.167974610584444" lon="9.560053103066197"><ele>62.0</ele><time>2026-04-11T10:38:48.999Z</time></trkpt><trkpt lat="45.16804017966794" lon="9.560168157745824"><ele>62.0</ele><time>2026-04-11T10:38:49.999Z</time></trkpt><trkpt lat="45.16814082415174" lon="9.560295984551097"><ele>62.0</ele><time>2026-04-11T10:38:50.999Z</time></trkpt><trkpt lat="45.168226862647764" lon="9.560470639135518"><ele>62.0</ele><time>2026-04-11T10:38:51.999Z</time></trkpt><trkpt lat="45.16828677802257" lon="9.560711743146678"><ele>62.333333333333336</ele><time>2026-04-11T10:38:52.999Z</time></trkpt><trkpt lat="45.16833340140329" lon="9.560983482592608"><ele>62.66666666666667</ele><time>2026-04-11T10:38:53.999Z</time></trkpt><trkpt lat="45.16837275544489" lon="9.561263758509899"><ele>63.0</ele><time>2026-04-11T10:38:54.999Z</time></trkpt><trkpt lat="45.16840574290731" lon="9.561533495027499"><ele>63.33333333333333</ele><time>2026-04-11T10:38:55.999Z</time></trkpt><trkpt lat="45.168436669677" lon="9.561808231158073"><ele>63.666666666666664</ele><time>2026-04-11T10:38:56.999Z</time></trkpt><trkpt lat="45.16847125048728" lon="9.562096362180453"><ele>64.0</ele><time>2026-04-11T10:38:57.999Z</time></trkpt><trkpt lat="45.168508021245245" lon="9.562399452129911"><ele>62.5</ele><time>2026-04-11T10:38:58.999Z</time></trkpt><trkpt lat="45.16854834515869" lon="9.56273513596109"><ele>61.0</ele><time>2026-04-11T10:38:59.999Z</time></trkpt><trkpt lat="45.16858752687544" lon="9.563080823341407"><ele>60.33333333333333</ele><time>2026-04-11T10:39:00.999Z</time></trkpt><trkpt lat="45.16862060830439" lon="9.563400041397028"><ele>59.66666666666667</ele><time>2026-04-11T10:39:02Z</time></trkpt><trkpt lat="45.168653309731575" lon="9.563697765742694"><ele>59.0</ele><time>2026-04-11T10:39:03Z</time></trkpt><trkpt lat="45.16868748611441" lon="9.563998608968852"><ele>59.0</ele><time>2026-04-11T10:39:04Z</time></trkpt><trkpt lat="45.168722134252434" lon="9.564303687477844"><ele>59.0</ele><time>2026-04-11T10:39:05Z</time></trkpt><trkpt lat="45.168752660253745" lon="9.564607247931745"><ele>59.0</ele><time>2026-04-11T10:39:06Z</time></trkpt><trkpt lat="45.16878692887843" lon="9.564914680105112"><ele>59.66666666666667</ele><time>2026-04-11T10:39:07Z</time></trkpt><trkpt lat="45.1688233309719" lon="9.565224482441346"><ele>60.33333333333333</ele><time>2026-04-11T10:39:08Z</time></trkpt><trkpt lat="45.16885933285428" lon="9.565533052151169"><ele>61.0</ele><time>2026-04-11T10:39:09Z</time></trkpt><trkpt lat="45.16888897727139" lon="9.565820330262286"><ele>61.666666666666664</ele><time>2026-04-11T10:39:10Z</time></trkpt><trkpt lat="45.16892176502892" lon="9.56610768433789"><ele>62.33333333333333</ele><time>2026-04-11T10:39:11Z</time></trkpt><trkpt lat="45.168953855592235" lon="9.566394958419975"><ele>63.0</ele><time>2026-04-11T10:39:12Z</time></trkpt><trkpt lat="45.168986897640856" lon="9.566681996971955"><ele>63.33333333333333</ele><time>2026-04-11T10:39:13Z</time></trkpt><trkpt lat="45.169022220152385" lon="9.566956639432647"><ele>63.666666666666664</ele><time>2026-04-11T10:39:14Z</time></trkpt><trkpt lat="45.1690634857123" lon="9.567239380975975"><ele>64.0</ele><time>2026-04-11T10:39:15Z</time></trkpt><trkpt lat="45.169114094348515" lon="9.567536141427826"><ele>63.33333333333333</ele><time>2026-04-11T10:39:16Z</time></trkpt><trkpt lat="45.16916632825985" lon="9.567838263388799"><ele>62.66666666666667</ele><time>2026-04-11T10:39:17Z</time></trkpt><trkpt lat="45.169222880122796" lon="9.568130069977247"><ele>62.0</ele><time>2026-04-11T10:39:18Z</time></trkpt><trkpt lat="45.1692920050065" lon="9.568436275318197"><ele>62.333333333333336</ele><time>2026-04-11T10:39:19Z</time></trkpt><trkpt lat="45.16936445448706" lon="9.568732616070408"><ele>62.66666666666667</ele><time>2026-04-11T10:39:20Z</time></trkpt><trkpt lat="45.16941681382009" lon="9.569037134631927"><ele>63.0</ele><time>2026-04-11T10:39:21Z</time></trkpt><trkpt lat="45.169506078943186" lon="9.569312382928889"><ele>62.66666666666667</ele><time>2026-04-11T10:39:22Z</time></trkpt><trkpt lat="45.169607566389935" lon="9.569553920634235"><ele>62.333333333333336</ele><time>2026-04-11T10:39:23Z</time></trkpt><trkpt lat="45.16971410312961" lon="9.569779543750004"><ele>62.0</ele><time>2026-04-11T10:39:24Z</time></trkpt><trkpt lat="45.16981552496906" lon="9.569990355964618"><ele>62.0</ele><time>2026-04-11T10:39:25Z</time></trkpt><trkpt lat="45.16991963306623" lon="9.570184139655856"><ele>62.0</ele><time>2026-04-11T10:39:26Z</time></trkpt><trkpt lat="45.170022596239626" lon="9.570362136018229"><ele>62.0</ele><time>2026-04-11T10:39:27Z</time></trkpt><trkpt lat="45.170120533467525" lon="9.570530378959953"><ele>61.75</ele><time>2026-04-11T10:39:28Z</time></trkpt><trkpt lat="45.170212331474254" lon="9.57068399175887"><ele>61.5</ele><time>2026-04-11T10:39:29Z</time></trkpt><trkpt lat="45.17030320271685" lon="9.570836424627394"><ele>61.25</ele><time>2026-04-11T10:39:30Z</time></trkpt><trkpt lat="45.17039834315959" lon="9.570986489031938"><ele>61.0</ele><time>2026-04-11T10:39:31Z</time></trkpt><trkpt lat="45.17049423234863" lon="9.571139886222408"><ele>61.33333333333333</ele><time>2026-04-11T10:39:32Z</time></trkpt><trkpt lat="45.170595142890434" lon="9.571300168804672"><ele>61.66666666666667</ele><time>2026-04-11T10:39:33Z</time></trkpt><trkpt lat="45.17069695679499" lon="9.57146606771583"><ele>62.0</ele><time>2026-04-11T10:39:34Z</time></trkpt><trkpt lat="45.17079383646133" lon="9.571627037000153"><ele>62.0</ele><time>2026-04-11T10:39:35Z</time></trkpt><trkpt lat="45.17089263132385" lon="9.571776427498866"><ele>62.0</ele><time>2026-04-11T10:39:36Z</time></trkpt><trkpt lat="45.17098369465153" lon="9.571922655721275"><ele>62.0</ele><time>2026-04-11T10:39:37Z</time></trkpt><trkpt lat="45.171075802913535" lon="9.572071740119636"><ele>62.0</ele><time>2026-04-11T10:39:38Z</time></trkpt><trkpt lat="45.17115999930089" lon="9.572210651779232"><ele>62.16666666666667</ele><time>2026-04-11T10:39:39Z</time></trkpt><trkpt lat="45.17123765331585" lon="9.572331480626655"><ele>62.333333333333336</ele><time>2026-04-11T10:39:40Z</time></trkpt><trkpt lat="45.17130168286166" lon="9.572441403070387"><ele>62.5</ele><time>2026-04-11T10:39:41Z</time></trkpt><trkpt lat="45.17133866711917" lon="9.572519596974141"><ele>62.66666666666667</ele><time>2026-04-11T10:39:42Z</time></trkpt><trkpt lat="45.1713293362055" lon="9.572609302027246"><ele>62.833333333333336</ele><time>2026-04-11T10:39:45Z</time></trkpt><trkpt lat="45.171316841208224" lon="9.57273093174666"><ele>63.0</ele><time>2026-04-11T10:39:48Z</time></trkpt><trkpt lat="45.17131057933017" lon="9.572840132855934"><ele>63.0</ele><time>2026-04-11T10:39:49Z</time></trkpt><trkpt lat="45.17131863405899" lon="9.572962971746817"><ele>63.0</ele><time>2026-04-11T10:39:50Z</time></trkpt><trkpt lat="45.17133886553002" lon="9.573063751525632"><ele>63.0</ele><time>2026-04-11T10:39:51Z</time></trkpt><trkpt lat="45.171359990200024" lon="9.573162641071773"><ele>63.0</ele><time>2026-04-11T10:39:52Z</time></trkpt><trkpt lat="45.17134638508205" lon="9.573269578198605"><ele>63.0</ele><time>2026-04-11T10:39:53Z</time></trkpt><trkpt lat="45.17129948750621" lon="9.573399556848862"><ele>63.0</ele><time>2026-04-11T10:39:53.999Z</time></trkpt><trkpt lat="45.17124263490653" lon="9.57354321069973"><ele>62.25</ele><time>2026-04-11T10:39:54.999Z</time></trkpt><trkpt lat="45.171177964831315" lon="9.57370053760802"><ele>61.5</ele><time>2026-04-11T10:39:55.999Z</time></trkpt><trkpt lat="45.17111532506983" lon="9.573860889328195"><ele>60.75</ele><time>2026-04-11T10:39:56.999Z</time></trkpt><trkpt lat="45.17106256960694" lon="9.574008732954633"><ele>60.0</ele><time>2026-04-11T10:39:57.999Z</time></trkpt><trkpt lat="45.171008552648786" lon="9.5741675346188"><ele>60.0</ele><time>2026-04-11T10:39:58.999Z</time></trkpt><trkpt lat="45.17094277312301" lon="9.574346995514514"><ele>60.0</ele><time>2026-04-11T10:39:59.999Z</time></trkpt><trkpt lat="45.17086697971633" lon="9.574549330794444"><ele>60.0</ele><time>2026-04-11T10:40:00.999Z</time></trkpt><trkpt lat="45.17078886064285" lon="9.574779459569763"><ele>60.33333333333333</ele><time>2026-04-11T10:40:01.999Z</time></trkpt><trkpt lat="45.170715886091784" lon="9.57499073510155"><ele>60.666666666666664</ele><time>2026-04-11T10:40:02.999Z</time></trkpt><trkpt lat="45.170647787939494" lon="9.575180657611048"><ele>61.0</ele><time>2026-04-11T10:40:03.999Z</time></trkpt><trkpt lat="45.17058468666609" lon="9.575357624424106"><ele>61.75</ele><time>2026-04-11T10:40:04.999Z</time></trkpt><trkpt lat="45.17052930283568" lon="9.575520454722827"><ele>62.5</ele><time>2026-04-11T10:40:05.999Z</time></trkpt><trkpt lat="45.17047809032519" lon="9.575678055926446"><ele>63.25</ele><time>2026-04-11T10:40:06.999Z</time></trkpt><trkpt lat="45.170433306529716" lon="9.575826787227676"><ele>64.0</ele><time>2026-04-11T10:40:07.999Z</time></trkpt><trkpt lat="45.17039303963984" lon="9.575960189944826"><ele>63.99999999999999</ele><time>2026-04-11T10:40:08.999Z</time></trkpt><trkpt lat="45.17034962378383" lon="9.576095938225741"><ele>64.0</ele><time>2026-04-11T10:40:09.999Z</time></trkpt><trkpt lat="45.17031026410516" lon="9.576210573858207"><ele>64.0</ele><time>2026-04-11T10:40:10.999Z</time></trkpt><trkpt lat="45.1702685363709" lon="9.576316645867886"><ele>64.0</ele><time>2026-04-11T10:40:11.999Z</time></trkpt><trkpt lat="45.17022397662796" lon="9.576408975958367"><ele>63.99999999999999</ele><time>2026-04-11T10:40:12.999Z</time></trkpt><trkpt lat="45.17016712167765" lon="9.576507652337876"><ele>64.0</ele><time>2026-04-11T10:40:14.999Z</time></trkpt><trkpt lat="45.170117938778226" lon="9.576585061329224"><ele>63.99999999999999</ele><time>2026-04-11T10:40:16.999Z</time></trkpt><trkpt lat="45.1700641637599" lon="9.576661420761635"><ele>64.0</ele><time>2026-04-11T10:40:18.999Z</time></trkpt><trkpt lat="45.17003018256028" lon="9.576770334105206"><ele>64.0</ele><time>2026-04-11T10:40:20.999Z</time></trkpt><trkpt lat="45.17008134832204" lon="9.576908801069544"><ele>64.0</ele><time>2026-04-11T10:40:22.999Z</time></trkpt><trkpt lat="45.170122722443494" lon="9.576985877508505"><ele>63.99999999999999</ele><time>2026-04-11T10:40:23.999Z</time></trkpt><trkpt lat="45.17015187492119" lon="9.577065070694193"><ele>64.0</ele><time>2026-04-11T10:40:24.999Z</time></trkpt><trkpt lat="45.17016353428536" lon="9.577154535815124"><ele>63.800000000000004</ele><time>2026-04-11T10:40:25.999Z</time></trkpt><trkpt lat="45.17017667018444" lon="9.577252649367777"><ele>63.60000000000001</ele><time>2026-04-11T10:40:26.999Z</time></trkpt><trkpt lat="45.17020362168183" lon="9.577421836073562"><ele>63.4</ele><time>2026-04-11T10:40:28.999Z</time></trkpt><trkpt lat="45.170226135945725" lon="9.57757867774706"><ele>63.2</ele><time>2026-04-11T10:40:30.999Z</time></trkpt><trkpt lat="45.17024240484039" lon="9.577706790375798"><ele>63.0</ele><time>2026-04-11T10:40:32.999Z</time></trkpt><trkpt lat="45.17025985437157" lon="9.577826133037378"><ele>63.0</ele><time>2026-04-11T10:40:34.999Z</time></trkpt><trkpt lat="45.170276072847514" lon="9.577938410459765"><ele>63.0</ele><time>2026-04-11T10:40:36.999Z</time></trkpt><trkpt lat="45.17028485553411" lon="9.578042980079761"><ele>63.0</ele><time>2026-04-11T10:40:38.999Z</time></trkpt><trkpt lat="45.170292471746315" lon="9.578152111632974"><ele>63.0</ele><time>2026-04-11T10:40:40.999Z</time></trkpt><trkpt lat="45.17030627827193" lon="9.57825102583873"><ele>63.0</ele><time>2026-04-11T10:40:42.999Z</time></trkpt><trkpt lat="45.17032386821108" lon="9.57837793325048"><ele>63.0</ele><time>2026-04-11T10:40:45.999Z</time></trkpt><trkpt lat="45.17033691531524" lon="9.578490606016677"><ele>63.0</ele><time>2026-04-11T10:40:48.999Z</time></trkpt><trkpt lat="45.17035224413959" lon="9.578594608148729"><ele>63.0</ele><time>2026-04-11T10:40:51.999Z</time></trkpt><trkpt lat="45.17036515936366" lon="9.578703657144139"><ele>63.0</ele><time>2026-04-11T10:40:54.999Z</time></trkpt><trkpt lat="45.17038215381191" lon="9.578820318049416"><ele>63.0</ele><time>2026-04-11T10:40:57.999Z</time></trkpt><trkpt lat="45.17039684549585" lon="9.578933658357187"><ele>63.0</ele><time>2026-04-11T10:41:00.999Z</time></trkpt><trkpt lat="45.17040820817469" lon="9.579042853312938"><ele>63.0</ele><time>2026-04-11T10:41:03.999Z</time></trkpt><trkpt lat="45.170421957652316" lon="9.579140215933798"><ele>63.0</ele><time>2026-04-11T10:41:07Z</time></trkpt><trkpt lat="45.17043710086923" lon="9.579243457671415"><ele>63.0</ele><time>2026-04-11T10:41:09Z</time></trkpt><trkpt lat="45.170449244706155" lon="9.579362951210877"><ele>63.0</ele><time>2026-04-11T10:41:11Z</time></trkpt><trkpt lat="45.17046286117649" lon="9.579462911810072"><ele>63.0</ele><time>2026-04-11T10:41:13Z</time></trkpt><trkpt lat="45.17047243879594" lon="9.579563081408326"><ele>63.0</ele><time>2026-04-11T10:41:15Z</time></trkpt><trkpt lat="45.17048380652679" lon="9.579661700558312"><ele>63.0</ele><time>2026-04-11T10:41:17Z</time></trkpt><trkpt lat="45.17049826897353" lon="9.5797622688971"><ele>63.0</ele><time>2026-04-11T10:41:19Z</time></trkpt><trkpt lat="45.17050794944884" lon="9.579862235905699"><ele>63.0</ele><time>2026-04-11T10:41:21Z</time></trkpt><trkpt lat="45.17051912499921" lon="9.579962747917943"><ele>63.0</ele><time>2026-04-11T10:41:23Z</time></trkpt><trkpt lat="45.17053045933143" lon="9.580058711354576"><ele>63.0</ele><time>2026-04-11T10:41:25Z</time></trkpt><trkpt lat="45.170540479996035" lon="9.580150782261102"><ele>63.0</ele><time>2026-04-11T10:41:27Z</time></trkpt><trkpt lat="45.17054071497005" lon="9.580265220863005"><ele>63.0</ele><time>2026-04-11T10:41:30Z</time></trkpt><trkpt lat="45.170555999713464" lon="9.580356260467175"><ele>63.0</ele><time>2026-04-11T10:42:04Z</time></trkpt><trkpt lat="45.17056468929979" lon="9.580473527154183"><ele>63.0</ele><time>2026-04-11T10:42:06Z</time></trkpt><trkpt lat="45.17057878633735" lon="9.580578781233353"><ele>63.0</ele><time>2026-04-11T10:42:07Z</time></trkpt><trkpt lat="45.17059599389377" lon="9.580697798190661"><ele>63.0</ele><time>2026-04-11T10:42:08Z</time></trkpt><trkpt lat="45.17061010877331" lon="9.580818423088177"><ele>63.0</ele><time>2026-04-11T10:42:09Z</time></trkpt><trkpt lat="45.17062863123733" lon="9.580950314530465"><ele>63.0</ele><time>2026-04-11T10:42:10Z</time></trkpt><trkpt lat="45.17064878901155" lon="9.581097111166434"><ele>63.0</ele><time>2026-04-11T10:42:11Z</time></trkpt><trkpt lat="45.1706646145966" lon="9.581250954829214"><ele>63.0</ele><time>2026-04-11T10:42:12Z</time></trkpt><trkpt lat="45.17068186160379" lon="9.581396312221637"><ele>63.0</ele><time>2026-04-11T10:42:13Z</time></trkpt><trkpt lat="45.17070044832089" lon="9.581530853596892"><ele>63.0</ele><time>2026-04-11T10:42:14Z</time></trkpt><trkpt lat="45.17071645877619" lon="9.581677803251473"><ele>63.0</ele><time>2026-04-11T10:42:15Z</time></trkpt><trkpt lat="45.170734898961314" lon="9.581827655646158"><ele>63.0</ele><time>2026-04-11T10:42:16Z</time></trkpt><trkpt lat="45.170754336898646" lon="9.581976597337851"><ele>63.2</ele><time>2026-04-11T10:42:17Z</time></trkpt><trkpt lat="45.17077421126923" lon="9.582128589069313"><ele>63.4</ele><time>2026-04-11T10:42:18Z</time></trkpt><trkpt lat="45.170788652709604" lon="9.582267515881686"><ele>63.60000000000001</ele><time>2026-04-11T10:42:19Z</time></trkpt><trkpt lat="45.170800596834155" lon="9.582397650420877"><ele>63.800000000000004</ele><time>2026-04-11T10:42:20Z</time></trkpt><trkpt lat="45.1708096341174" lon="9.582509105442261"><ele>64.0</ele><time>2026-04-11T10:42:21Z</time></trkpt><trkpt lat="45.17081886826402" lon="9.582609763737251"><ele>63.99999999999999</ele><time>2026-04-11T10:42:22Z</time></trkpt><trkpt lat="45.170829087262014" lon="9.582709197621943"><ele>64.0</ele><time>2026-04-11T10:42:23Z</time></trkpt><trkpt lat="45.170835746363196" lon="9.58280018348026"><ele>64.0</ele><time>2026-04-11T10:42:24Z</time></trkpt><trkpt lat="45.17084290985209" lon="9.582905032143556"><ele>64.0</ele><time>2026-04-11T10:42:25Z</time></trkpt><trkpt lat="45.17085131110662" lon="9.583026868020951"><ele>63.99999999999999</ele><time>2026-04-11T10:42:25.999Z</time></trkpt><trkpt lat="45.170850452117506" lon="9.583155580249421"><ele>64.0</ele><time>2026-04-11T10:42:26.999Z</time></trkpt><trkpt lat="45.17081281797197" lon="9.583293406217665"><ele>64.0</ele><time>2026-04-11T10:42:27.999Z</time></trkpt><trkpt lat="45.17078136190102" lon="9.583412593795408"><ele>64.0</ele><time>2026-04-11T10:42:28.999Z</time></trkpt><trkpt lat="45.17079111410255" lon="9.58355136498289"><ele>64.0</ele><time>2026-04-11T10:42:29.999Z</time></trkpt><trkpt lat="45.17084750987269" lon="9.583658216071221"><ele>64.0</ele><time>2026-04-11T10:42:30.999Z</time></trkpt><trkpt lat="45.17093124736749" lon="9.583718810975483"><ele>64.0</ele><time>2026-04-11T10:42:31.999Z</time></trkpt><trkpt lat="45.1710265172186" lon="9.583725283299163"><ele>64.0</ele><time>2026-04-11T10:42:32.999Z</time></trkpt><trkpt lat="45.17112099782357" lon="9.583665589148278"><ele>64.0</ele><time>2026-04-11T10:42:33.999Z</time></trkpt><trkpt lat="45.171202868610216" lon="9.583551320250853"><ele>64.0</ele><time>2026-04-11T10:42:34.999Z</time></trkpt><trkpt lat="45.171298615031425" lon="9.583434447247942"><ele>64.0</ele><time>2026-04-11T10:42:35.999Z</time></trkpt><trkpt lat="45.171424577066134" lon="9.583357061784165"><ele>64.66666666666666</ele><time>2026-04-11T10:42:36.999Z</time></trkpt><trkpt lat="45.17154458936886" lon="9.58323662337233"><ele>65.33333333333333</ele><time>2026-04-11T10:42:37.999Z</time></trkpt><trkpt lat="45.17172401284603" lon="9.583226508667009"><ele>66.0</ele><time>2026-04-11T10:42:38.999Z</time></trkpt><trkpt lat="45.17186955752027" lon="9.58317602380097"><ele>66.0</ele><time>2026-04-11T10:42:39.999Z</time></trkpt><trkpt lat="45.172021823671884" lon="9.583127689086362"><ele>66.0</ele><time>2026-04-11T10:42:40.999Z</time></trkpt><trkpt lat="45.172177912387" lon="9.583083716861564"><ele>66.0</ele><time>2026-04-11T10:42:41.999Z</time></trkpt><trkpt lat="45.172325141116794" lon="9.583048636036706"><ele>65.8</ele><time>2026-04-11T10:42:42.999Z</time></trkpt><trkpt lat="45.172452776604935" lon="9.583021902266944"><ele>65.6</ele><time>2026-04-11T10:42:43.999Z</time></trkpt><trkpt lat="45.17255368905196" lon="9.583009080759252"><ele>65.4</ele><time>2026-04-11T10:42:44.999Z</time></trkpt><trkpt lat="45.172640497134765" lon="9.583004671506806"><ele>65.2</ele><time>2026-04-11T10:42:45.999Z</time></trkpt><trkpt lat="45.17272662347987" lon="9.583018873877084"><ele>65.0</ele><time>2026-04-11T10:42:46.999Z</time></trkpt><trkpt lat="45.172808670766656" lon="9.58306565178851"><ele>65.0</ele><time>2026-04-11T10:42:47.999Z</time></trkpt><trkpt lat="45.172889711240444" lon="9.58311956350337"><ele>65.0</ele><time>2026-04-11T10:42:48.999Z</time></trkpt><trkpt lat="45.172980790830465" lon="9.583145997779202"><ele>65.0</ele><time>2026-04-11T10:42:49.999Z</time></trkpt><trkpt lat="45.17307445400885" lon="9.583118718898167"><ele>65.0</ele><time>2026-04-11T10:42:50.999Z</time></trkpt><trkpt lat="45.1731667418519" lon="9.583127216703623"><ele>65.0</ele><time>2026-04-11T10:42:51.999Z</time></trkpt><trkpt lat="45.173265678592315" lon="9.583151875843926"><ele>64.6</ele><time>2026-04-11T10:42:52.999Z</time></trkpt><trkpt lat="45.17335120968196" lon="9.583210812372121"><ele>64.2</ele><time>2026-04-11T10:42:53.999Z</time></trkpt><trkpt lat="45.17344225261486" lon="9.58321421296634"><ele>63.8</ele><time>2026-04-11T10:42:54.999Z</time></trkpt><trkpt lat="45.173527976508744" lon="9.583283206662419"><ele>63.4</ele><time>2026-04-11T10:42:55.999Z</time></trkpt><trkpt lat="45.17361925281837" lon="9.583277930542327"><ele>63.0</ele><time>2026-04-11T10:42:56.999Z</time></trkpt><trkpt lat="45.17371786220851" lon="9.583288790433787"><ele>63.0</ele><time>2026-04-11T10:42:57.999Z</time></trkpt><trkpt lat="45.17382791547813" lon="9.583213124962771"><ele>63.0</ele><time>2026-04-11T10:42:58.999Z</time></trkpt><trkpt lat="45.17393360518808" lon="9.58313188219344"><ele>63.0</ele><time>2026-04-11T10:42:59.999Z</time></trkpt><trkpt lat="45.17403730125846" lon="9.583050945865638"><ele>63.0</ele><time>2026-04-11T10:43:00.999Z</time></trkpt><trkpt lat="45.17412387348995" lon="9.582961224319472"><ele>63.4</ele><time>2026-04-11T10:43:01.999Z</time></trkpt><trkpt lat="45.17421376123278" lon="9.582901312657786"><ele>63.8</ele><time>2026-04-11T10:43:02.999Z</time></trkpt><trkpt lat="45.174310089438286" lon="9.582838123875266"><ele>64.2</ele><time>2026-04-11T10:43:03.999Z</time></trkpt><trkpt lat="45.174398846256956" lon="9.582776914154339"><ele>64.6</ele><time>2026-04-11T10:43:04.999Z</time></trkpt><trkpt lat="45.17447359910581" lon="9.582719825797392"><ele>65.0</ele><time>2026-04-11T10:43:05.999Z</time></trkpt><trkpt lat="45.17455823649876" lon="9.58265612758877"><ele>64.4</ele><time>2026-04-11T10:43:06.999Z</time></trkpt><trkpt lat="45.17465741764982" lon="9.582584185412008"><ele>63.8</ele><time>2026-04-11T10:43:07.999Z</time></trkpt><trkpt lat="45.17475948279735" lon="9.582518492326667"><ele>63.2</ele><time>2026-04-11T10:43:08.999Z</time></trkpt><trkpt lat="45.17484818871356" lon="9.58246070583398"><ele>62.6</ele><time>2026-04-11T10:43:09.999Z</time></trkpt><trkpt lat="45.174941143640574" lon="9.582413891462952"><ele>62.0</ele><time>2026-04-11T10:43:11.001Z</time></trkpt><trkpt lat="45.17503804449452" lon="9.58238435114077"><ele>62.00000000000001</ele><time>2026-04-11T10:43:12.001Z</time></trkpt><trkpt lat="45.1751339458778" lon="9.582373147073008"><ele>62.0</ele><time>2026-04-11T10:43:13.001Z</time></trkpt><trkpt lat="45.17522269474162" lon="9.582365990805664"><ele>62.0</ele><time>2026-04-11T10:43:14.001Z</time></trkpt><trkpt lat="45.17530384397724" lon="9.582364592490716"><ele>62.0</ele><time>2026-04-11T10:43:15.001Z</time></trkpt><trkpt lat="45.17539001563512" lon="9.582440100466313"><ele>62.00000000000001</ele><time>2026-04-11T10:43:17.001Z</time></trkpt><trkpt lat="45.17545135253674" lon="9.582482289518765"><ele>62.0</ele><time>2026-04-11T10:43:19Z</time></trkpt><trkpt lat="45.175537817925154" lon="9.582535012330712"><ele>62.0</ele><time>2026-04-11T10:43:23Z</time></trkpt><trkpt lat="45.17560997754646" lon="9.582560197927538"><ele>62.0</ele><time>2026-04-11T10:43:25Z</time></trkpt><trkpt lat="45.175678610769054" lon="9.582565585524659"><ele>62.0</ele><time>2026-04-11T10:43:28Z</time></trkpt><trkpt lat="45.175713680016784" lon="9.58233757417212"><ele>62.0</ele><time>2026-04-11T10:44:40Z</time></trkpt><trkpt lat="45.175780580971185" lon="9.582336313176416"><ele>62.0</ele><time>2026-04-11T10:44:56.999Z</time></trkpt><trkpt lat="45.17585954304055" lon="9.582330833036826"><ele>62.400000000000006</ele><time>2026-04-11T10:45:02.999Z</time></trkpt><trkpt lat="45.17596258159614" lon="9.582326451564802"><ele>62.800000000000004</ele><time>2026-04-11T10:45:27.001Z</time></trkpt><trkpt lat="45.17607211058979" lon="9.58232909771838"><ele>63.2</ele><time>2026-04-11T10:45:29.001Z</time></trkpt><trkpt lat="45.176165691038584" lon="9.582322692068324"><ele>63.6</ele><time>2026-04-11T10:45:31.001Z</time></trkpt><trkpt lat="45.17626830118791" lon="9.58231487848271"><ele>64.0</ele><time>2026-04-11T10:45:43Z</time></trkpt><trkpt lat="45.17634737974222" lon="9.582303734914841"><ele>64.0</ele><time>2026-04-11T10:45:44Z</time></trkpt><trkpt lat="45.176442346496316" lon="9.582309750140418"><ele>64.0</ele><time>2026-04-11T10:45:45Z</time></trkpt><trkpt lat="45.17652539942863" lon="9.582319590083491"><ele>64.0</ele><time>2026-04-11T10:45:46Z</time></trkpt><trkpt lat="45.17662251499103" lon="9.582347578988854"><ele>64.0</ele><time>2026-04-11T10:45:47Z</time></trkpt><trkpt lat="45.176728926651826" lon="9.582408638537798"><ele>64.0</ele><time>2026-04-11T10:45:48Z</time></trkpt><trkpt lat="45.1768297941925" lon="9.582500647048189"><ele>64.0</ele><time>2026-04-11T10:45:49Z</time></trkpt><trkpt lat="45.176904413266804" lon="9.582609212433734"><ele>64.0</ele><time>2026-04-11T10:45:50Z</time></trkpt><trkpt lat="45.17697033797781" lon="9.582738510247822"><ele>64.0</ele><time>2026-04-11T10:45:51Z</time></trkpt><trkpt lat="45.177005352563995" lon="9.582898155111138"><ele>64.0</ele><time>2026-04-11T10:45:52Z</time></trkpt><trkpt lat="45.17702518896151" lon="9.583065709782886"><ele>64.0</ele><time>2026-04-11T10:45:53Z</time></trkpt><trkpt lat="45.17703182886387" lon="9.583235977497012"><ele>64.0</ele><time>2026-04-11T10:45:54Z</time></trkpt><trkpt lat="45.17702882948479" lon="9.583411875344497"><ele>64.0</ele><time>2026-04-11T10:45:55Z</time></trkpt><trkpt lat="45.17699901865905" lon="9.583598945395018"><ele>64.0</ele><time>2026-04-11T10:45:56Z</time></trkpt><trkpt lat="45.17693286623353" lon="9.583800302634355"><ele>63.666666666666664</ele><time>2026-04-11T10:45:57Z</time></trkpt><trkpt lat="45.1768425985683" lon="9.584011502621209"><ele>63.33333333333333</ele><time>2026-04-11T10:45:58Z</time></trkpt><trkpt lat="45.17675471693721" lon="9.584195602020682"><ele>63.0</ele><time>2026-04-11T10:45:59Z</time></trkpt><trkpt lat="45.17668226800204" lon="9.584389616766472"><ele>62.66666666666667</ele><time>2026-04-11T10:46:00Z</time></trkpt><trkpt lat="45.176553478469074" lon="9.584549478189857"><ele>62.333333333333336</ele><time>2026-04-11T10:46:01Z</time></trkpt><trkpt lat="45.17644690728411" lon="9.584718572184508"><ele>62.0</ele><time>2026-04-11T10:46:02Z</time></trkpt><trkpt lat="45.17633837144728" lon="9.584910389518548"><ele>62.66666666666667</ele><time>2026-04-11T10:46:03Z</time></trkpt><trkpt lat="45.17622328525497" lon="9.585112643205534"><ele>63.33333333333333</ele><time>2026-04-11T10:46:04Z</time></trkpt><trkpt lat="45.17609885121532" lon="9.585315985955784"><ele>64.0</ele><time>2026-04-11T10:46:05Z</time></trkpt><trkpt lat="45.17596630119534" lon="9.585523430921745"><ele>64.0</ele><time>2026-04-11T10:46:06Z</time></trkpt><trkpt lat="45.17583883599184" lon="9.585719148780932"><ele>64.0</ele><time>2026-04-11T10:46:07Z</time></trkpt><trkpt lat="45.17571066634756" lon="9.585914496509192"><ele>64.0</ele><time>2026-04-11T10:46:08Z</time></trkpt><trkpt lat="45.175580208521346" lon="9.586114236923368"><ele>64.0</ele><time>2026-04-11T10:46:09Z</time></trkpt><trkpt lat="45.175450672218794" lon="9.58631651677352"><ele>64.0</ele><time>2026-04-11T10:46:10Z</time></trkpt><trkpt lat="45.17532410716176" lon="9.586519179865554"><ele>64.0</ele><time>2026-04-11T10:46:11Z</time></trkpt><trkpt lat="45.175197196131066" lon="9.586722168208173"><ele>64.0</ele><time>2026-04-11T10:46:12Z</time></trkpt><trkpt lat="45.175069906423516" lon="9.586925015198636"><ele>64.0</ele><time>2026-04-11T10:46:13Z</time></trkpt><trkpt lat="45.17494083555895" lon="9.587125785478198"><ele>64.0</ele><time>2026-04-11T10:46:14Z</time></trkpt><trkpt lat="45.17480760126964" lon="9.587331656825564"><ele>64.0</ele><time>2026-04-11T10:46:15Z</time></trkpt><trkpt lat="45.17467002000242" lon="9.587543626113424"><ele>64.0</ele><time>2026-04-11T10:46:16Z</time></trkpt><trkpt lat="45.17453357640801" lon="9.587758136308269"><ele>64.0</ele><time>2026-04-11T10:46:17Z</time></trkpt><trkpt lat="45.17438508172683" lon="9.587991077510965"><ele>63.0</ele><time>2026-04-11T10:46:18Z</time></trkpt><trkpt lat="45.17423383122703" lon="9.588236309797178"><ele>62.0</ele><time>2026-04-11T10:46:19Z</time></trkpt><trkpt lat="45.17407647699622" lon="9.588486893248822"><ele>63.0</ele><time>2026-04-11T10:46:20Z</time></trkpt><trkpt lat="45.173909918158465" lon="9.588745335142415"><ele>64.0</ele><time>2026-04-11T10:46:21Z</time></trkpt><trkpt lat="45.173742244669135" lon="9.589009330531452"><ele>64.0</ele><time>2026-04-11T10:46:22Z</time></trkpt><trkpt lat="45.17356571222509" lon="9.589276883684901"><ele>64.0</ele><time>2026-04-11T10:46:23Z</time></trkpt><trkpt lat="45.173379039832476" lon="9.589562280323273"><ele>64.5</ele><time>2026-04-11T10:46:24Z</time></trkpt><trkpt lat="45.17319556773994" lon="9.58984546896027"><ele>65.0</ele><time>2026-04-11T10:46:25Z</time></trkpt><trkpt lat="45.17307366076414" lon="9.590047486932452"><ele>65.0</ele><time>2026-04-11T10:46:26Z</time></trkpt><trkpt lat="45.17291199534901" lon="9.590295618406323"><ele>65.0</ele><time>2026-04-11T10:46:27Z</time></trkpt><trkpt lat="45.1727520038071" lon="9.590558840264022"><ele>65.0</ele><time>2026-04-11T10:46:28Z</time></trkpt><trkpt lat="45.17258518704923" lon="9.590824977050014"><ele>65.0</ele><time>2026-04-11T10:46:29Z</time></trkpt><trkpt lat="45.17241478543149" lon="9.591086364427964"><ele>64.5</ele><time>2026-04-11T10:46:30Z</time></trkpt><trkpt lat="45.17225489999184" lon="9.59133556109416"><ele>64.0</ele><time>2026-04-11T10:46:31Z</time></trkpt><trkpt lat="45.17209498221688" lon="9.591585209805416"><ele>64.0</ele><time>2026-04-11T10:46:32Z</time></trkpt><trkpt lat="45.171934735745786" lon="9.591831359985322"><ele>64.0</ele><time>2026-04-11T10:46:33Z</time></trkpt><trkpt lat="45.171777973301865" lon="9.592076223321335"><ele>63.5</ele><time>2026-04-11T10:46:34Z</time></trkpt><trkpt lat="45.17162766699248" lon="9.592319959346208"><ele>63.0</ele><time>2026-04-11T10:46:35Z</time></trkpt><trkpt lat="45.171473127021066" lon="9.592565914333864"><ele>63.0</ele><time>2026-04-11T10:46:36Z</time></trkpt><trkpt lat="45.17131739058615" lon="9.59281110089542"><ele>63.0</ele><time>2026-04-11T10:46:37Z</time></trkpt><trkpt lat="45.17115931276276" lon="9.593057830103275"><ele>64.5</ele><time>2026-04-11T10:46:38Z</time></trkpt><trkpt lat="45.17099985102701" lon="9.59330751007222"><ele>66.0</ele><time>2026-04-11T10:46:39Z</time></trkpt><trkpt lat="45.17083791854529" lon="9.593557096104472"><ele>65.0</ele><time>2026-04-11T10:46:40Z</time></trkpt><trkpt lat="45.17067515605655" lon="9.593811995121866"><ele>64.0</ele><time>2026-04-11T10:46:41Z</time></trkpt><trkpt lat="45.17051059549306" lon="9.594068634563754"><ele>64.0</ele><time>2026-04-11T10:46:42Z</time></trkpt><trkpt lat="45.170345648645984" lon="9.594325326520362"><ele>64.0</ele><time>2026-04-11T10:46:43Z</time></trkpt><trkpt lat="45.170178051503065" lon="9.594585906766197"><ele>63.0</ele><time>2026-04-11T10:46:44Z</time></trkpt><trkpt lat="45.170009378667814" lon="9.594848126755243"><ele>62.0</ele><time>2026-04-11T10:46:45Z</time></trkpt><trkpt lat="45.16984007084206" lon="9.595112147574522"><ele>62.5</ele><time>2026-04-11T10:46:46Z</time></trkpt><trkpt lat="45.169672821202866" lon="9.595374834715173"><ele>63.0</ele><time>2026-04-11T10:46:47Z</time></trkpt><trkpt lat="45.16949973765858" lon="9.59564187559626"><ele>63.0</ele><time>2026-04-11T10:46:48Z</time></trkpt><trkpt lat="45.16932719429459" lon="9.595910090879816"><ele>63.0</ele><time>2026-04-11T10:46:49Z</time></trkpt><trkpt lat="45.16915472338376" lon="9.59618057265183"><ele>62.5</ele><time>2026-04-11T10:46:49.999Z</time></trkpt><trkpt lat="45.16898216058817" lon="9.596456485249991"><ele>62.0</ele><time>2026-04-11T10:46:50.999Z</time></trkpt><trkpt lat="45.168809123603836" lon="9.596728854621318"><ele>61.5</ele><time>2026-04-11T10:46:51.999Z</time></trkpt><trkpt lat="45.168635479065806" lon="9.597002745110055"><ele>61.0</ele><time>2026-04-11T10:46:52.999Z</time></trkpt><trkpt lat="45.16846274893465" lon="9.597277360495372"><ele>61.0</ele><time>2026-04-11T10:46:53.999Z</time></trkpt><trkpt lat="45.16829066650611" lon="9.59754770361465"><ele>61.0</ele><time>2026-04-11T10:46:54.999Z</time></trkpt><trkpt lat="45.168120927467875" lon="9.597816510830318"><ele>60.5</ele><time>2026-04-11T10:46:55.999Z</time></trkpt><trkpt lat="45.167950442703564" lon="9.598084485280816"><ele>60.0</ele><time>2026-04-11T10:46:56.999Z</time></trkpt><trkpt lat="45.167780029970565" lon="9.598350715068513"><ele>60.0</ele><time>2026-04-11T10:46:57.999Z</time></trkpt><trkpt lat="45.167608792031565" lon="9.598614118706303"><ele>60.0</ele><time>2026-04-11T10:46:58.999Z</time></trkpt><trkpt lat="45.16743819408496" lon="9.598874714148756"><ele>60.5</ele><time>2026-04-11T10:46:59.999Z</time></trkpt><trkpt lat="45.16726729546619" lon="9.599136276758482"><ele>61.0</ele><time>2026-04-11T10:47:00.999Z</time></trkpt><trkpt lat="45.16709574089703" lon="9.599394563102974"><ele>61.5</ele><time>2026-04-11T10:47:01.999Z</time></trkpt><trkpt lat="45.16692418180454" lon="9.599651094013101"><ele>62.0</ele><time>2026-04-11T10:47:02.999Z</time></trkpt><trkpt lat="45.16675301324446" lon="9.599910275765824"><ele>62.0</ele><time>2026-04-11T10:47:03.999Z</time></trkpt><trkpt lat="45.16658269839951" lon="9.600166723186264"><ele>62.0</ele><time>2026-04-11T10:47:04.999Z</time></trkpt><trkpt lat="45.16641155525573" lon="9.600422492348368"><ele>62.0</ele><time>2026-04-11T10:47:05.999Z</time></trkpt><trkpt lat="45.1662398567965" lon="9.600674594950513"><ele>62.0</ele><time>2026-04-11T10:47:06.999Z</time></trkpt><trkpt lat="45.16607043302998" lon="9.600927645836661"><ele>61.0</ele><time>2026-04-11T10:47:07.999Z</time></trkpt><trkpt lat="45.16589871439282" lon="9.601183175217542"><ele>60.0</ele><time>2026-04-11T10:47:08.999Z</time></trkpt><trkpt lat="45.165726752433265" lon="9.601435277456854"><ele>60.5</ele><time>2026-04-11T10:47:09.999Z</time></trkpt><trkpt lat="45.16555461795903" lon="9.601686865687574"><ele>61.0</ele><time>2026-04-11T10:47:10.999Z</time></trkpt><trkpt lat="45.1653832237611" lon="9.601936635480124"><ele>60.5</ele><time>2026-04-11T10:47:11.999Z</time></trkpt><trkpt lat="45.16520785242954" lon="9.60219082786885"><ele>60.0</ele><time>2026-04-11T10:47:12.999Z</time></trkpt><trkpt lat="45.16503365635625" lon="9.602438491690755"><ele>60.5</ele><time>2026-04-11T10:47:13.999Z</time></trkpt><trkpt lat="45.16485764435619" lon="9.602686672385449"><ele>61.0</ele><time>2026-04-11T10:47:14.999Z</time></trkpt><trkpt lat="45.164681051733346" lon="9.60293644742206"><ele>61.0</ele><time>2026-04-11T10:47:15.999Z</time></trkpt><trkpt lat="45.164502613004444" lon="9.603186785804512"><ele>61.0</ele><time>2026-04-11T10:47:16.999Z</time></trkpt><trkpt lat="45.164324939720984" lon="9.603441387343505"><ele>61.0</ele><time>2026-04-11T10:47:17.999Z</time></trkpt><trkpt lat="45.16414710371308" lon="9.603685725376154"><ele>61.0</ele><time>2026-04-11T10:47:18.999Z</time></trkpt><trkpt lat="45.163968194522774" lon="9.603935491095774"><ele>63.0</ele><time>2026-04-11T10:47:19.999Z</time></trkpt><trkpt lat="45.16379502616596" lon="9.604182670760906"><ele>65.0</ele><time>2026-04-11T10:47:20.999Z</time></trkpt><trkpt lat="45.16361931984771" lon="9.60442838808731"><ele>65.0</ele><time>2026-04-11T10:47:21.999Z</time></trkpt><trkpt lat="45.16343959100576" lon="9.604673813828441"><ele>65.0</ele><time>2026-04-11T10:47:23.001Z</time></trkpt><trkpt lat="45.16326737502847" lon="9.604927380452988"><ele>64.0</ele><time>2026-04-11T10:47:24.001Z</time></trkpt><trkpt lat="45.16309293632359" lon="9.60516446942797"><ele>63.0</ele><time>2026-04-11T10:47:25.001Z</time></trkpt><trkpt lat="45.162918884788276" lon="9.605404880669719"><ele>62.0</ele><time>2026-04-11T10:47:26.001Z</time></trkpt><trkpt lat="45.16274353971706" lon="9.605645704270113"><ele>61.0</ele><time>2026-04-11T10:47:27.001Z</time></trkpt><trkpt lat="45.16256750673355" lon="9.605889051409797"><ele>61.0</ele><time>2026-04-11T10:47:28.001Z</time></trkpt><trkpt lat="45.162393433010045" lon="9.606131111927448"><ele>61.0</ele><time>2026-04-11T10:47:29.001Z</time></trkpt><trkpt lat="45.16221753275828" lon="9.606378824546763"><ele>62.0</ele><time>2026-04-11T10:47:30.001Z</time></trkpt><trkpt lat="45.16204692540234" lon="9.606627087906299"><ele>63.0</ele><time>2026-04-11T10:47:31.001Z</time></trkpt><trkpt lat="45.16187280527638" lon="9.606876572639576"><ele>62.5</ele><time>2026-04-11T10:47:32.001Z</time></trkpt><trkpt lat="45.161693522128466" lon="9.607126468146332"><ele>62.0</ele><time>2026-04-11T10:47:33.001Z</time></trkpt><trkpt lat="45.16151509571723" lon="9.607369087600306"><ele>62.0</ele><time>2026-04-11T10:47:34.001Z</time></trkpt><trkpt lat="45.16133527912131" lon="9.607616217844656"><ele>62.0</ele><time>2026-04-11T10:47:35.001Z</time></trkpt><trkpt lat="45.16115572353839" lon="9.607868538550331"><ele>62.0</ele><time>2026-04-11T10:47:36.001Z</time></trkpt><trkpt lat="45.16097986039703" lon="9.608118781608308"><ele>62.0</ele><time>2026-04-11T10:47:37Z</time></trkpt><trkpt lat="45.1608028645915" lon="9.608367211253912"><ele>62.0</ele><time>2026-04-11T10:47:38Z</time></trkpt><trkpt lat="45.16062749112331" lon="9.608618613603259"><ele>62.0</ele><time>2026-04-11T10:47:39Z</time></trkpt><trkpt lat="45.16044786749268" lon="9.60887285380751"><ele>62.0</ele><time>2026-04-11T10:47:40Z</time></trkpt><trkpt lat="45.16026739653799" lon="9.609127165239538"><ele>62.0</ele><time>2026-04-11T10:47:41Z</time></trkpt><trkpt lat="45.16008803170647" lon="9.609384621186592"><ele>61.5</ele><time>2026-04-11T10:47:42Z</time></trkpt><trkpt lat="45.15991364074945" lon="9.60965471620469"><ele>61.0</ele><time>2026-04-11T10:47:43Z</time></trkpt><trkpt lat="45.15973924107128" lon="9.609922455613779"><ele>61.0</ele><time>2026-04-11T10:47:44Z</time></trkpt><trkpt lat="45.15955797101329" lon="9.610181942857926"><ele>61.0</ele><time>2026-04-11T10:47:45Z</time></trkpt><trkpt lat="45.159374883292145" lon="9.610442397378216"><ele>61.0</ele><time>2026-04-11T10:47:46Z</time></trkpt><trkpt lat="45.159188159690906" lon="9.610704798066351"><ele>61.0</ele><time>2026-04-11T10:47:47Z</time></trkpt><trkpt lat="45.159000220779404" lon="9.610966276629398"><ele>60.5</ele><time>2026-04-11T10:47:48Z</time></trkpt><trkpt lat="45.15881366636786" lon="9.611223774965733"><ele>60.0</ele><time>2026-04-11T10:47:49Z</time></trkpt><trkpt lat="45.15862889960592" lon="9.61148185534262"><ele>60.0</ele><time>2026-04-11T10:47:50Z</time></trkpt><trkpt lat="45.15844304883124" lon="9.611740990500458"><ele>60.0</ele><time>2026-04-11T10:47:51Z</time></trkpt><trkpt lat="45.15825558363315" lon="9.612001858401948"><ele>60.0</ele><time>2026-04-11T10:47:52Z</time></trkpt><trkpt lat="45.15807055045024" lon="9.612266040275358"><ele>60.0</ele><time>2026-04-11T10:47:53Z</time></trkpt><trkpt lat="45.15788231331716" lon="9.612527794700181"><ele>60.0</ele><time>2026-04-11T10:47:54Z</time></trkpt><trkpt lat="45.157695767007226" lon="9.612786071599619"><ele>60.0</ele><time>2026-04-11T10:47:55Z</time></trkpt><trkpt lat="45.1575086849755" lon="9.613048862505957"><ele>60.0</ele><time>2026-04-11T10:47:56Z</time></trkpt><trkpt lat="45.15732477327458" lon="9.613312571495605"><ele>60.0</ele><time>2026-04-11T10:47:57Z</time></trkpt><trkpt lat="45.15713935918011" lon="9.61357448791252"><ele>59.5</ele><time>2026-04-11T10:47:58Z</time></trkpt><trkpt lat="45.15695052813012" lon="9.613833467987867"><ele>59.0</ele><time>2026-04-11T10:47:59Z</time></trkpt><trkpt lat="45.15676291389507" lon="9.614090138809223"><ele>59.0</ele><time>2026-04-11T10:48:00Z</time></trkpt><trkpt lat="45.15657697513781" lon="9.614345789123291"><ele>59.0</ele><time>2026-04-11T10:48:01Z</time></trkpt><trkpt lat="45.156390491418236" lon="9.61459879406538"><ele>60.0</ele><time>2026-04-11T10:48:02Z</time></trkpt><trkpt lat="45.1562021687454" lon="9.61485031853154"><ele>61.0</ele><time>2026-04-11T10:48:03Z</time></trkpt><trkpt lat="45.156017539444015" lon="9.615104416216413"><ele>60.5</ele><time>2026-04-11T10:48:04Z</time></trkpt><trkpt lat="45.15583186364782" lon="9.615358240183639"><ele>60.0</ele><time>2026-04-11T10:48:05Z</time></trkpt><trkpt lat="45.15564935564619" lon="9.615616606165942"><ele>59.5</ele><time>2026-04-11T10:48:06Z</time></trkpt><trkpt lat="45.15546746557732" lon="9.615876392449007"><ele>59.0</ele><time>2026-04-11T10:48:07Z</time></trkpt><trkpt lat="45.155282973559814" lon="9.616130529179832"><ele>59.0</ele><time>2026-04-11T10:48:08Z</time></trkpt><trkpt lat="45.15510779080094" lon="9.616378721554842"><ele>59.0</ele><time>2026-04-11T10:48:09Z</time></trkpt><trkpt lat="45.154932282949915" lon="9.616629601298698"><ele>59.0</ele><time>2026-04-11T10:48:10Z</time></trkpt><trkpt lat="45.15475238248673" lon="9.616883948817447"><ele>59.0</ele><time>2026-04-11T10:48:11Z</time></trkpt><trkpt lat="45.15457065849166" lon="9.617136001111799"><ele>59.0</ele><time>2026-04-11T10:48:12Z</time></trkpt><trkpt lat="45.15438490816571" lon="9.617386064581382"><ele>59.0</ele><time>2026-04-11T10:48:13Z</time></trkpt><trkpt lat="45.15420108145112" lon="9.617635272487822"><ele>60.5</ele><time>2026-04-11T10:48:14Z</time></trkpt><trkpt lat="45.15401517494701" lon="9.617887265735632"><ele>62.0</ele><time>2026-04-11T10:48:15Z</time></trkpt><trkpt lat="45.15383218861823" lon="9.618136469832097"><ele>62.0</ele><time>2026-04-11T10:48:16Z</time></trkpt><trkpt lat="45.15365102908037" lon="9.618385112472263"><ele>62.0</ele><time>2026-04-11T10:48:17Z</time></trkpt><trkpt lat="45.153472240348066" lon="9.618635612003954"><ele>61.0</ele><time>2026-04-11T10:48:18Z</time></trkpt><trkpt lat="45.15329195957961" lon="9.61888245821622"><ele>60.0</ele><time>2026-04-11T10:48:19Z</time></trkpt><trkpt lat="45.153111814654814" lon="9.619130026574915"><ele>60.0</ele><time>2026-04-11T10:48:20Z</time></trkpt><trkpt lat="45.15293338116555" lon="9.619377967869587"><ele>60.0</ele><time>2026-04-11T10:48:21Z</time></trkpt><trkpt lat="45.15275480405747" lon="9.619622704299434"><ele>60.0</ele><time>2026-04-11T10:48:22Z</time></trkpt><trkpt lat="45.15257657506415" lon="9.619867089402783"><ele>60.0</ele><time>2026-04-11T10:48:23Z</time></trkpt><trkpt lat="45.1523970804185" lon="9.620110718087842"><ele>60.0</ele><time>2026-04-11T10:48:24Z</time></trkpt><trkpt lat="45.152219644816874" lon="9.620354169497668"><ele>60.0</ele><time>2026-04-11T10:48:25Z</time></trkpt><trkpt lat="45.15204617085213" lon="9.620599582662697"><ele>60.0</ele><time>2026-04-11T10:48:26Z</time></trkpt><trkpt lat="45.1518735874292" lon="9.620843229389067"><ele>60.0</ele><time>2026-04-11T10:48:27Z</time></trkpt><trkpt lat="45.15169932440363" lon="9.621085800495736"><ele>59.5</ele><time>2026-04-11T10:48:28Z</time></trkpt><trkpt lat="45.15152191029221" lon="9.621332356046796"><ele>59.0</ele><time>2026-04-11T10:48:29Z</time></trkpt><trkpt lat="45.15134829658778" lon="9.621578048259435"><ele>59.0</ele><time>2026-04-11T10:48:30Z</time></trkpt><trkpt lat="45.15117372428853" lon="9.62182044221792"><ele>59.0</ele><time>2026-04-11T10:48:31Z</time></trkpt><trkpt lat="45.15099792444907" lon="9.622063494324957"><ele>59.0</ele><time>2026-04-11T10:48:32Z</time></trkpt><trkpt lat="45.150824408524144" lon="9.622310976100563"><ele>59.0</ele><time>2026-04-11T10:48:33Z</time></trkpt><trkpt lat="45.15064644671511" lon="9.62256410106621"><ele>59.0</ele><time>2026-04-11T10:48:34Z</time></trkpt><trkpt lat="45.150468248054906" lon="9.622815002387199"><ele>59.0</ele><time>2026-04-11T10:48:34.999Z</time></trkpt><trkpt lat="45.150286925148286" lon="9.623065711731066"><ele>59.0</ele><time>2026-04-11T10:48:35.999Z</time></trkpt><trkpt lat="45.150106427724765" lon="9.623318779457822"><ele>59.0</ele><time>2026-04-11T10:48:36.999Z</time></trkpt><trkpt lat="45.149924819103795" lon="9.623573828459365"><ele>59.0</ele><time>2026-04-11T10:48:37.999Z</time></trkpt><trkpt lat="45.14974220665423" lon="9.623830798950348"><ele>59.0</ele><time>2026-04-11T10:48:38.999Z</time></trkpt><trkpt lat="45.149559075363925" lon="9.624084540608662"><ele>59.0</ele><time>2026-04-11T10:48:39.999Z</time></trkpt><trkpt lat="45.1493747953036" lon="9.624338214330919"><ele>59.0</ele><time>2026-04-11T10:48:40.999Z</time></trkpt><trkpt lat="45.14919034494508" lon="9.624595745248035"><ele>60.0</ele><time>2026-04-11T10:48:41.999Z</time></trkpt><trkpt lat="45.14900506690032" lon="9.624854824300478"><ele>61.0</ele><time>2026-04-11T10:48:42.999Z</time></trkpt><trkpt lat="45.14881773560531" lon="9.625120569961709"><ele>61.0</ele><time>2026-04-11T10:48:43.999Z</time></trkpt><trkpt lat="45.148627181005345" lon="9.625385563277819"><ele>61.0</ele><time>2026-04-11T10:48:44.999Z</time></trkpt><trkpt lat="45.14843749790423" lon="9.625649553789875"><ele>61.0</ele><time>2026-04-11T10:48:45.999Z</time></trkpt><trkpt lat="45.14824194684149" lon="9.625914213767032"><ele>61.0</ele><time>2026-04-11T10:48:46.999Z</time></trkpt><trkpt lat="45.14804988509228" lon="9.62618049307822"><ele>59.5</ele><time>2026-04-11T10:48:47.999Z</time></trkpt><trkpt lat="45.14785749656126" lon="9.626452556989157"><ele>58.0</ele><time>2026-04-11T10:48:48.999Z</time></trkpt><trkpt lat="45.147667833450704" lon="9.626723509632805"><ele>57.5</ele><time>2026-04-11T10:48:49.999Z</time></trkpt><trkpt lat="45.147476991836875" lon="9.626989845575034"><ele>57.0</ele><time>2026-04-11T10:48:50.999Z</time></trkpt><trkpt lat="45.147287044461805" lon="9.627252360490646"><ele>56.5</ele><time>2026-04-11T10:48:51.999Z</time></trkpt><trkpt lat="45.14709917842827" lon="9.627516751173225"><ele>56.0</ele><time>2026-04-11T10:48:52.999Z</time></trkpt><trkpt lat="45.146912221028344" lon="9.627781401700041"><ele>56.0</ele><time>2026-04-11T10:48:53.999Z</time></trkpt><trkpt lat="45.146725789897864" lon="9.628042110522452"><ele>56.0</ele><time>2026-04-11T10:48:54.999Z</time></trkpt><trkpt lat="45.1465393855309" lon="9.628302906134456"><ele>56.0</ele><time>2026-04-11T10:48:55.999Z</time></trkpt><trkpt lat="45.14635321791276" lon="9.628564997480524"><ele>56.0</ele><time>2026-04-11T10:48:56.999Z</time></trkpt><trkpt lat="45.146165645531035" lon="9.628823401725809"><ele>56.5</ele><time>2026-04-11T10:48:57.999Z</time></trkpt><trkpt lat="45.145979424327365" lon="9.62907747436564"><ele>57.0</ele><time>2026-04-11T10:48:58.999Z</time></trkpt><trkpt lat="45.14579589937613" lon="9.629333249782459"><ele>56.5</ele><time>2026-04-11T10:48:59.999Z</time></trkpt><trkpt lat="45.14561628105478" lon="9.629589124737803"><ele>56.0</ele><time>2026-04-11T10:49:00.999Z</time></trkpt><trkpt lat="45.14543779492365" lon="9.629844618371672"><ele>56.0</ele><time>2026-04-11T10:49:01.999Z</time></trkpt><trkpt lat="45.14525664952211" lon="9.63009972517633"><ele>56.0</ele><time>2026-04-11T10:49:02.999Z</time></trkpt><trkpt lat="45.14507462481751" lon="9.630355201882788"><ele>56.5</ele><time>2026-04-11T10:49:03.999Z</time></trkpt><trkpt lat="45.14489463559481" lon="9.630605619614913"><ele>57.0</ele><time>2026-04-11T10:49:04.999Z</time></trkpt><trkpt lat="45.144716984634805" lon="9.630854126370812"><ele>56.5</ele><time>2026-04-11T10:49:05.999Z</time></trkpt><trkpt lat="45.144538255266795" lon="9.6311021803003"><ele>56.0</ele><time>2026-04-11T10:49:06.999Z</time></trkpt><trkpt lat="45.144359576743405" lon="9.63134977148365"><ele>56.0</ele><time>2026-04-11T10:49:07.999Z</time></trkpt><trkpt lat="45.144188194844006" lon="9.631594378024678"><ele>56.0</ele><time>2026-04-11T10:49:08.999Z</time></trkpt><trkpt lat="45.14401844129344" lon="9.631836508444989"><ele>56.5</ele><time>2026-04-11T10:49:09.999Z</time></trkpt><trkpt lat="45.14384658085537" lon="9.632081575510462"><ele>57.0</ele><time>2026-04-11T10:49:10.999Z</time></trkpt><trkpt lat="45.143672279796434" lon="9.632324986719665"><ele>57.0</ele><time>2026-04-11T10:49:11.999Z</time></trkpt><trkpt lat="45.14349551561951" lon="9.632566746313964"><ele>57.0</ele><time>2026-04-11T10:49:12.999Z</time></trkpt><trkpt lat="45.14331718526225" lon="9.632812345683334"><ele>56.5</ele><time>2026-04-11T10:49:13.999Z</time></trkpt><trkpt lat="45.14314095349011" lon="9.633058399241413"><ele>56.0</ele><time>2026-04-11T10:49:14.999Z</time></trkpt><trkpt lat="45.142964159733665" lon="9.633307672048797"><ele>56.0</ele><time>2026-04-11T10:49:15.999Z</time></trkpt><trkpt lat="45.142784357516646" lon="9.633554227061826"><ele>56.0</ele><time>2026-04-11T10:49:16.999Z</time></trkpt><trkpt lat="45.14260951092942" lon="9.633805667225708"><ele>55.5</ele><time>2026-04-11T10:49:17.999Z</time></trkpt><trkpt lat="45.142431012912326" lon="9.634056973363265"><ele>55.0</ele><time>2026-04-11T10:49:18.999Z</time></trkpt><trkpt lat="45.142249911912096" lon="9.634306983086516"><ele>53.0</ele><time>2026-04-11T10:49:19.999Z</time></trkpt><trkpt lat="45.1420672677908" lon="9.634562781176763"><ele>51.0</ele><time>2026-04-11T10:49:20.999Z</time></trkpt><trkpt lat="45.1418864759421" lon="9.634821836382418"><ele>51.0</ele><time>2026-04-11T10:49:21.999Z</time></trkpt><trkpt lat="45.14170643750644" lon="9.635084903227249"><ele>51.0</ele><time>2026-04-11T10:49:22.999Z</time></trkpt><trkpt lat="45.141527894389206" lon="9.635357101485763"><ele>50.0</ele><time>2026-04-11T10:49:23.999Z</time></trkpt><trkpt lat="45.141353609927705" lon="9.635629568680576"><ele>49.0</ele><time>2026-04-11T10:49:24.999Z</time></trkpt><trkpt lat="45.14117838902967" lon="9.635905365492823"><ele>48.5</ele><time>2026-04-11T10:49:25.999Z</time></trkpt><trkpt lat="45.141003330500794" lon="9.636182622728233"><ele>48.0</ele><time>2026-04-11T10:49:26.999Z</time></trkpt><trkpt lat="45.140837894126264" lon="9.636461014661801"><ele>48.0</ele><time>2026-04-11T10:49:27.999Z</time></trkpt><trkpt lat="45.14067250818416" lon="9.6367467494108"><ele>48.0</ele><time>2026-04-11T10:49:29Z</time></trkpt><trkpt lat="45.14051127415419" lon="9.637033822314415"><ele>48.0</ele><time>2026-04-11T10:49:30Z</time></trkpt><trkpt lat="45.14035152312826" lon="9.637321249372746"><ele>48.0</ele><time>2026-04-11T10:49:31Z</time></trkpt><trkpt lat="45.14019369096985" lon="9.637608623546578"><ele>48.5</ele><time>2026-04-11T10:49:32Z</time></trkpt><trkpt lat="45.14004325012357" lon="9.63789682808404"><ele>49.0</ele><time>2026-04-11T10:49:33Z</time></trkpt><trkpt lat="45.13989447342156" lon="9.638181703728142"><ele>48.5</ele><time>2026-04-11T10:49:34Z</time></trkpt><trkpt lat="45.13974551717304" lon="9.63846850511521"><ele>48.0</ele><time>2026-04-11T10:49:35Z</time></trkpt><trkpt lat="45.13959616320248" lon="9.638756121687543"><ele>48.0</ele><time>2026-04-11T10:49:36Z</time></trkpt><trkpt lat="45.13945046692883" lon="9.639042109098968"><ele>48.0</ele><time>2026-04-11T10:49:37Z</time></trkpt><trkpt lat="45.139305560360555" lon="9.639327881966018"><ele>48.0</ele><time>2026-04-11T10:49:38Z</time></trkpt><trkpt lat="45.139160552859956" lon="9.639608833409081"><ele>48.0</ele><time>2026-04-11T10:49:39Z</time></trkpt><trkpt lat="45.139019262014514" lon="9.639890583675216"><ele>48.0</ele><time>2026-04-11T10:49:40Z</time></trkpt><trkpt lat="45.13887806337149" lon="9.640175384967536"><ele>48.0</ele><time>2026-04-11T10:49:41Z</time></trkpt><trkpt lat="45.13873315416262" lon="9.640450992971303"><ele>48.5</ele><time>2026-04-11T10:49:42Z</time></trkpt><trkpt lat="45.138587466044456" lon="9.640721382995766"><ele>49.0</ele><time>2026-04-11T10:49:43Z</time></trkpt><trkpt lat="45.138443210813946" lon="9.640997458120689"><ele>49.5</ele><time>2026-04-11T10:49:44Z</time></trkpt><trkpt lat="45.13830121289944" lon="9.641274502943645"><ele>50.0</ele><time>2026-04-11T10:49:45Z</time></trkpt><trkpt lat="45.13816234103881" lon="9.641549211786673"><ele>50.0</ele><time>2026-04-11T10:49:46Z</time></trkpt><trkpt lat="45.13802139901104" lon="9.641822416725448"><ele>50.0</ele><time>2026-04-11T10:49:47Z</time></trkpt><trkpt lat="45.13788021881169" lon="9.64209607213423"><ele>50.5</ele><time>2026-04-11T10:49:48Z</time></trkpt><trkpt lat="45.13774010327032" lon="9.642372679131727"><ele>51.0</ele><time>2026-04-11T10:49:49Z</time></trkpt><trkpt lat="45.13760103751851" lon="9.64264899429386"><ele>50.0</ele><time>2026-04-11T10:49:50Z</time></trkpt><trkpt lat="45.13746177303409" lon="9.642924280012192"><ele>49.0</ele><time>2026-04-11T10:49:51Z</time></trkpt><trkpt lat="45.1373236448422" lon="9.643200594608235"><ele>49.0</ele><time>2026-04-11T10:49:52Z</time></trkpt><trkpt lat="45.13718526246746" lon="9.643482612031816"><ele>49.0</ele><time>2026-04-11T10:49:53Z</time></trkpt><trkpt lat="45.13704695012121" lon="9.64376074580133"><ele>48.5</ele><time>2026-04-11T10:49:54Z</time></trkpt><trkpt lat="45.1369028250564" lon="9.644038022670818"><ele>48.0</ele><time>2026-04-11T10:49:55Z</time></trkpt><trkpt lat="45.136757953023185" lon="9.644308558381573"><ele>48.0</ele><time>2026-04-11T10:49:56Z</time></trkpt><trkpt lat="45.13661474934476" lon="9.64458563000135"><ele>48.0</ele><time>2026-04-11T10:49:57Z</time></trkpt><trkpt lat="45.136474063933825" lon="9.644866910858115"><ele>47.5</ele><time>2026-04-11T10:49:58Z</time></trkpt><trkpt lat="45.13633275577606" lon="9.645141804940547"><ele>47.0</ele><time>2026-04-11T10:49:59Z</time></trkpt><trkpt lat="45.136189422568314" lon="9.645419143688429"><ele>46.5</ele><time>2026-04-11T10:50:00Z</time></trkpt><trkpt lat="45.13604812942356" lon="9.64570046416241"><ele>46.0</ele><time>2026-04-11T10:50:01Z</time></trkpt><trkpt lat="45.135904728021906" lon="9.64598368997241"><ele>46.0</ele><time>2026-04-11T10:50:02Z</time></trkpt><trkpt lat="45.13576494014135" lon="9.646262924969749"><ele>46.0</ele><time>2026-04-11T10:50:03Z</time></trkpt><trkpt lat="45.13562048533097" lon="9.64654043981662"><ele>47.0</ele><time>2026-04-11T10:50:04Z</time></trkpt><trkpt lat="45.13547281316308" lon="9.6468186034414"><ele>48.0</ele><time>2026-04-11T10:50:05Z</time></trkpt><trkpt lat="45.13532934118611" lon="9.64709310536233"><ele>48.0</ele><time>2026-04-11T10:50:06Z</time></trkpt><trkpt lat="45.13518835016747" lon="9.64737481549991"><ele>48.0</ele><time>2026-04-11T10:50:07Z</time></trkpt><trkpt lat="45.13504907556856" lon="9.647654076325924"><ele>47.5</ele><time>2026-04-11T10:50:08Z</time></trkpt><trkpt lat="45.13490711054937" lon="9.647936091715062"><ele>47.0</ele><time>2026-04-11T10:50:09Z</time></trkpt><trkpt lat="45.13476122863585" lon="9.648216971352257"><ele>47.0</ele><time>2026-04-11T10:50:10Z</time></trkpt><trkpt lat="45.134611330390726" lon="9.648500823855946"><ele>47.0</ele><time>2026-04-11T10:50:11Z</time></trkpt><trkpt lat="45.13446160858194" lon="9.648791428848696"><ele>46.5</ele><time>2026-04-11T10:50:12Z</time></trkpt><trkpt lat="45.13431337541674" lon="9.649085871695139"><ele>46.0</ele><time>2026-04-11T10:50:13Z</time></trkpt><trkpt lat="45.13416832296016" lon="9.649378457482152"><ele>46.5</ele><time>2026-04-11T10:50:14Z</time></trkpt><trkpt lat="45.13402021600856" lon="9.649667768203798"><ele>47.0</ele><time>2026-04-11T10:50:15Z</time></trkpt><trkpt lat="45.133868064666515" lon="9.64995741139331"><ele>47.0</ele><time>2026-04-11T10:50:16Z</time></trkpt><trkpt lat="45.13371884791555" lon="9.65024706780656"><ele>47.0</ele><time>2026-04-11T10:50:17Z</time></trkpt><trkpt lat="45.13357227788803" lon="9.650542307225493"><ele>47.0</ele><time>2026-04-11T10:50:18Z</time></trkpt><trkpt lat="45.133424176373275" lon="9.650833640747553"><ele>47.0</ele><time>2026-04-11T10:50:19Z</time></trkpt><trkpt lat="45.133271824239664" lon="9.651124309739524"><ele>47.0</ele><time>2026-04-11T10:50:20Z</time></trkpt><trkpt lat="45.13312252627008" lon="9.651416139056444"><ele>47.0</ele><time>2026-04-11T10:50:21Z</time></trkpt><trkpt lat="45.13297368952356" lon="9.651710151387507"><ele>47.5</ele><time>2026-04-11T10:50:22Z</time></trkpt><trkpt lat="45.13282288823273" lon="9.652001616559238"><ele>48.0</ele><time>2026-04-11T10:50:23Z</time></trkpt><trkpt lat="45.132671403028134" lon="9.6522949662419"><ele>48.0</ele><time>2026-04-11T10:50:24Z</time></trkpt><trkpt lat="45.1325211949813" lon="9.652590589627103"><ele>48.0</ele><time>2026-04-11T10:50:25Z</time></trkpt><trkpt lat="45.13237352229424" lon="9.652886146200055"><ele>48.0</ele><time>2026-04-11T10:50:26Z</time></trkpt><trkpt lat="45.13222216631501" lon="9.65317829971255"><ele>48.0</ele><time>2026-04-11T10:50:27Z</time></trkpt><trkpt lat="45.13206781775058" lon="9.653467425443196"><ele>48.0</ele><time>2026-04-11T10:50:28Z</time></trkpt><trkpt lat="45.13191844507546" lon="9.653760730945685"><ele>48.0</ele><time>2026-04-11T10:50:29Z</time></trkpt><trkpt lat="45.13176483335412" lon="9.654060305374463"><ele>48.0</ele><time>2026-04-11T10:50:29.999Z</time></trkpt><trkpt lat="45.13160932336586" lon="9.654359735503103"><ele>48.0</ele><time>2026-04-11T10:50:30.999Z</time></trkpt><trkpt lat="45.131453492066036" lon="9.654660978777011"><ele>49.0</ele><time>2026-04-11T10:50:31.999Z</time></trkpt><trkpt lat="45.13129669693091" lon="9.654968099121408"><ele>50.0</ele><time>2026-04-11T10:50:32.999Z</time></trkpt><trkpt lat="45.131134604401694" lon="9.655277229926721"><ele>48.5</ele><time>2026-04-11T10:50:33.999Z</time></trkpt><trkpt lat="45.130981554325245" lon="9.65557758310955"><ele>47.0</ele><time>2026-04-11T10:50:34.999Z</time></trkpt><trkpt lat="45.13083254779931" lon="9.655868680527464"><ele>48.5</ele><time>2026-04-11T10:50:35.999Z</time></trkpt><trkpt lat="45.130685055521354" lon="9.656162287074592"><ele>50.0</ele><time>2026-04-11T10:50:36.999Z</time></trkpt><trkpt lat="45.13053530441159" lon="9.656457400833464"><ele>50.0</ele><time>2026-04-11T10:50:37.999Z</time></trkpt><trkpt lat="45.130387347148215" lon="9.656753506822007"><ele>50.0</ele><time>2026-04-11T10:50:38.999Z</time></trkpt><trkpt lat="45.13023640526909" lon="9.657050209789428"><ele>50.0</ele><time>2026-04-11T10:50:39.999Z</time></trkpt><trkpt lat="45.130084858225636" lon="9.65735076113805"><ele>50.0</ele><time>2026-04-11T10:50:40.999Z</time></trkpt><trkpt lat="45.129931768046916" lon="9.657653941609292"><ele>48.5</ele><time>2026-04-11T10:50:41.999Z</time></trkpt><trkpt lat="45.12977785168678" lon="9.657958860105515"><ele>47.0</ele><time>2026-04-11T10:50:42.999Z</time></trkpt><trkpt lat="45.12962431435426" lon="9.658263347310896"><ele>47.0</ele><time>2026-04-11T10:50:43.999Z</time></trkpt><trkpt lat="45.129471784177376" lon="9.658565981795823"><ele>47.0</ele><time>2026-04-11T10:50:44.999Z</time></trkpt><trkpt lat="45.12932331016921" lon="9.65886484925103"><ele>47.0</ele><time>2026-04-11T10:50:45.999Z</time></trkpt><trkpt lat="45.12917017449197" lon="9.659165406603783"><ele>47.0</ele><time>2026-04-11T10:50:46.999Z</time></trkpt><trkpt lat="45.129017955153905" lon="9.65946293982537"><ele>46.5</ele><time>2026-04-11T10:50:47.999Z</time></trkpt><trkpt lat="45.12885680380997" lon="9.65976200245833"><ele>46.0</ele><time>2026-04-11T10:50:48.999Z</time></trkpt><trkpt lat="45.12869881634585" lon="9.660060997408618"><ele>47.0</ele><time>2026-04-11T10:50:49.999Z</time></trkpt><trkpt lat="45.12853927579537" lon="9.660355896361038"><ele>48.0</ele><time>2026-04-11T10:50:50.999Z</time></trkpt><trkpt lat="45.12837797298618" lon="9.66064567831109"><ele>47.5</ele><time>2026-04-11T10:50:51.999Z</time></trkpt><trkpt lat="45.12821823221807" lon="9.660928133076352"><ele>47.0</ele><time>2026-04-11T10:50:52.999Z</time></trkpt><trkpt lat="45.12805557079826" lon="9.661211981696376"><ele>47.0</ele><time>2026-04-11T10:50:53.999Z</time></trkpt><trkpt lat="45.127890789196734" lon="9.661499606903233"><ele>47.0</ele><time>2026-04-11T10:50:54.999Z</time></trkpt><trkpt lat="45.12772748475402" lon="9.661782854798554"><ele>47.5</ele><time>2026-04-11T10:50:55.999Z</time></trkpt><trkpt lat="45.12756288672983" lon="9.662065556384633"><ele>48.0</ele><time>2026-04-11T10:50:56.999Z</time></trkpt><trkpt lat="45.127398276837496" lon="9.662346322273434"><ele>47.5</ele><time>2026-04-11T10:50:57.999Z</time></trkpt><trkpt lat="45.12723335501548" lon="9.662625578564324"><ele>47.0</ele><time>2026-04-11T10:50:58.999Z</time></trkpt><trkpt lat="45.12707523054963" lon="9.662903982071743"><ele>47.0</ele><time>2026-04-11T10:50:59.999Z</time></trkpt><trkpt lat="45.12691496291892" lon="9.663181959533974"><ele>47.0</ele><time>2026-04-11T10:51:00.999Z</time></trkpt><trkpt lat="45.12674956771613" lon="9.663455700958405"><ele>47.0</ele><time>2026-04-11T10:51:01.999Z</time></trkpt><trkpt lat="45.1265865256488" lon="9.663725128117958"><ele>47.0</ele><time>2026-04-11T10:51:02.999Z</time></trkpt><trkpt lat="45.12641914432846" lon="9.663997396296748"><ele>47.0</ele><time>2026-04-11T10:51:03.999Z</time></trkpt><trkpt lat="45.12625153512637" lon="9.664265847536775"><ele>47.0</ele><time>2026-04-11T10:51:04.999Z</time></trkpt><trkpt lat="45.12608088926928" lon="9.66453081443311"><ele>47.0</ele><time>2026-04-11T10:51:05.999Z</time></trkpt><trkpt lat="45.12591004919206" lon="9.664792692136357"><ele>47.0</ele><time>2026-04-11T10:51:06.999Z</time></trkpt><trkpt lat="45.12573769875135" lon="9.665045816283909"><ele>47.0</ele><time>2026-04-11T10:51:07.999Z</time></trkpt><trkpt lat="45.125562102574925" lon="9.665290154882427"><ele>47.0</ele><time>2026-04-11T10:51:08.999Z</time></trkpt><trkpt lat="45.12538291094408" lon="9.665535841241068"><ele>47.0</ele><time>2026-04-11T10:51:09.999Z</time></trkpt><trkpt lat="45.125208985167724" lon="9.665786003514157"><ele>47.0</ele><time>2026-04-11T10:51:10.999Z</time></trkpt><trkpt lat="45.12503955184086" lon="9.666040815156181"><ele>46.5</ele><time>2026-04-11T10:51:11.999Z</time></trkpt><trkpt lat="45.12487035437087" lon="9.666288830139415"><ele>46.0</ele><time>2026-04-11T10:51:12.999Z</time></trkpt><trkpt lat="45.12469502354319" lon="9.666534380160188"><ele>46.0</ele><time>2026-04-11T10:51:13.999Z</time></trkpt><trkpt lat="45.12451939326448" lon="9.666783494215718"><ele>46.0</ele><time>2026-04-11T10:51:14.999Z</time></trkpt><trkpt lat="45.12434643558311" lon="9.667032599891035"><ele>45.5</ele><time>2026-04-11T10:51:15.999Z</time></trkpt><trkpt lat="45.1241744890071" lon="9.667282150007395"><ele>45.0</ele><time>2026-04-11T10:51:16.999Z</time></trkpt><trkpt lat="45.12399842538809" lon="9.667532385476324"><ele>45.0</ele><time>2026-04-11T10:51:17.999Z</time></trkpt><trkpt lat="45.12382488380126" lon="9.667782646149195"><ele>45.0</ele><time>2026-04-11T10:51:18.999Z</time></trkpt><trkpt lat="45.1236550126784" lon="9.668036623410137"><ele>45.0</ele><time>2026-04-11T10:51:19.999Z</time></trkpt><trkpt lat="45.12348264858861" lon="9.66828417439506"><ele>45.0</ele><time>2026-04-11T10:51:20.999Z</time></trkpt><trkpt lat="45.123310951361894" lon="9.668530521909515"><ele>44.5</ele><time>2026-04-11T10:51:21.999Z</time></trkpt><trkpt lat="45.12313961362545" lon="9.668778971751536"><ele>44.0</ele><time>2026-04-11T10:51:22.999Z</time></trkpt><trkpt lat="45.122969036534286" lon="9.669030749752073"><ele>44.0</ele><time>2026-04-11T10:51:23.999Z</time></trkpt><trkpt lat="45.122795169123656" lon="9.669280367941234"><ele>44.0</ele><time>2026-04-11T10:51:24.999Z</time></trkpt><trkpt lat="45.12262012236617" lon="9.669525080229793"><ele>44.0</ele><time>2026-04-11T10:51:25.999Z</time></trkpt><trkpt lat="45.12244355087691" lon="9.669767286924415"><ele>44.0</ele><time>2026-04-11T10:51:26.999Z</time></trkpt><trkpt lat="45.12227349087467" lon="9.670009926943026"><ele>44.5</ele><time>2026-04-11T10:51:27.999Z</time></trkpt><trkpt lat="45.122107605823025" lon="9.670252030820551"><ele>45.0</ele><time>2026-04-11T10:51:28.999Z</time></trkpt><trkpt lat="45.121945925935066" lon="9.670487905144983"><ele>45.0</ele><time>2026-04-11T10:51:29.999Z</time></trkpt><trkpt lat="45.121782466985756" lon="9.670727465491966"><ele>45.0</ele><time>2026-04-11T10:51:30.999Z</time></trkpt><trkpt lat="45.12161718188374" lon="9.670960745553169"><ele>45.5</ele><time>2026-04-11T10:51:31.999Z</time></trkpt><trkpt lat="45.1214484962625" lon="9.671192886229129"><ele>46.0</ele><time>2026-04-11T10:51:32.999Z</time></trkpt><trkpt lat="45.12128178273956" lon="9.671429974050568"><ele>46.0</ele><time>2026-04-11T10:51:34Z</time></trkpt><trkpt lat="45.121117916259514" lon="9.671668479499884"><ele>46.0</ele><time>2026-04-11T10:51:35Z</time></trkpt><trkpt lat="45.12095278562918" lon="9.671904234934885"><ele>46.0</ele><time>2026-04-11T10:51:36Z</time></trkpt><trkpt lat="45.12078802600105" lon="9.672138984392266"><ele>46.0</ele><time>2026-04-11T10:51:37Z</time></trkpt><trkpt lat="45.12063439493061" lon="9.672369180811096"><ele>46.5</ele><time>2026-04-11T10:51:38Z</time></trkpt><trkpt lat="45.12047548405345" lon="9.672601040933102"><ele>47.0</ele><time>2026-04-11T10:51:39Z</time></trkpt><trkpt lat="45.120317879345215" lon="9.672830513681642"><ele>47.0</ele><time>2026-04-11T10:51:40Z</time></trkpt><trkpt lat="45.120158821774396" lon="9.67306077015733"><ele>47.0</ele><time>2026-04-11T10:51:41Z</time></trkpt><trkpt lat="45.120001277042775" lon="9.67329728564859"><ele>45.5</ele><time>2026-04-11T10:51:42Z</time></trkpt><trkpt lat="45.1198381160866" lon="9.673527628510428"><ele>44.0</ele><time>2026-04-11T10:51:43Z</time></trkpt><trkpt lat="45.11967409653151" lon="9.673762643514907"><ele>44.0</ele><time>2026-04-11T10:51:44Z</time></trkpt><trkpt lat="45.119511707029524" lon="9.673993295440672"><ele>44.0</ele><time>2026-04-11T10:51:45Z</time></trkpt><trkpt lat="45.11935001281381" lon="9.674219882406874"><ele>43.5</ele><time>2026-04-11T10:51:46Z</time></trkpt><trkpt lat="45.11919107419159" lon="9.674450286508431"><ele>43.0</ele><time>2026-04-11T10:51:47Z</time></trkpt><trkpt lat="45.11903316211202" lon="9.674682678147711"><ele>44.0</ele><time>2026-04-11T10:51:48Z</time></trkpt><trkpt lat="45.11887444341915" lon="9.674914227476366"><ele>45.0</ele><time>2026-04-11T10:51:49Z</time></trkpt><trkpt lat="45.11871270827106" lon="9.675145043109959"><ele>45.0</ele><time>2026-04-11T10:51:50Z</time></trkpt><trkpt lat="45.11855017535703" lon="9.675378025697595"><ele>45.0</ele><time>2026-04-11T10:51:51Z</time></trkpt><trkpt lat="45.11838428201213" lon="9.675612827050339"><ele>44.0</ele><time>2026-04-11T10:51:52Z</time></trkpt><trkpt lat="45.11821829240118" lon="9.675849599459747"><ele>43.0</ele><time>2026-04-11T10:51:53Z</time></trkpt><trkpt lat="45.118048984853964" lon="9.676093357776173"><ele>45.0</ele><time>2026-04-11T10:51:54Z</time></trkpt><trkpt lat="45.11788461583912" lon="9.67633299443411"><ele>47.0</ele><time>2026-04-11T10:51:55Z</time></trkpt><trkpt lat="45.117719495673434" lon="9.676577277030587"><ele>47.0</ele><time>2026-04-11T10:51:56Z</time></trkpt><trkpt lat="45.11755267146587" lon="9.676824728010303"><ele>47.0</ele><time>2026-04-11T10:51:57Z</time></trkpt><trkpt lat="45.11737970880057" lon="9.677071922906508"><ele>45.5</ele><time>2026-04-11T10:51:58Z</time></trkpt><trkpt lat="45.117204605568105" lon="9.67732264059273"><ele>44.0</ele><time>2026-04-11T10:51:59Z</time></trkpt><trkpt lat="45.117033620026106" lon="9.677570326844382"><ele>44.0</ele><time>2026-04-11T10:52:00Z</time></trkpt><trkpt lat="45.116857815615795" lon="9.677820557837467"><ele>44.0</ele><time>2026-04-11T10:52:01Z</time></trkpt><trkpt lat="45.11668310912276" lon="9.678067868770936"><ele>45.0</ele><time>2026-04-11T10:52:02Z</time></trkpt><trkpt lat="45.116511180037165" lon="9.678316035635289"><ele>46.0</ele><time>2026-04-11T10:52:03Z</time></trkpt><trkpt lat="45.116338658264105" lon="9.678568443237557"><ele>45.5</ele><time>2026-04-11T10:52:04Z</time></trkpt><trkpt lat="45.116160416867444" lon="9.678824811476417"><ele>45.0</ele><time>2026-04-11T10:52:05Z</time></trkpt><trkpt lat="45.115984346407785" lon="9.67908110362023"><ele>45.0</ele><time>2026-04-11T10:52:06Z</time></trkpt><trkpt lat="45.11580859364123" lon="9.6793355803188"><ele>45.0</ele><time>2026-04-11T10:52:07Z</time></trkpt><trkpt lat="45.11563050586439" lon="9.67959082024766"><ele>45.0</ele><time>2026-04-11T10:52:08Z</time></trkpt><trkpt lat="45.115452000667325" lon="9.679846016271188"><ele>45.0</ele><time>2026-04-11T10:52:09Z</time></trkpt><trkpt lat="45.11527660466829" lon="9.680105728217413"><ele>45.0</ele><time>2026-04-11T10:52:10Z</time></trkpt><trkpt lat="45.115099209889" lon="9.68036486588841"><ele>45.0</ele><time>2026-04-11T10:52:11Z</time></trkpt><trkpt lat="45.11491837304739" lon="9.680622207071849"><ele>44.0</ele><time>2026-04-11T10:52:12Z</time></trkpt><trkpt lat="45.11473856525172" lon="9.680883313570193"><ele>43.0</ele><time>2026-04-11T10:52:13Z</time></trkpt><trkpt lat="45.114557070512156" lon="9.681144195159453"><ele>43.0</ele><time>2026-04-11T10:52:14Z</time></trkpt><trkpt lat="45.114375593133225" lon="9.681404591102869"><ele>43.0</ele><time>2026-04-11T10:52:15Z</time></trkpt><trkpt lat="45.11418632212217" lon="9.681671636605437"><ele>43.5</ele><time>2026-04-11T10:52:16Z</time></trkpt><trkpt lat="45.11400368998143" lon="9.681933295176208"><ele>44.0</ele><time>2026-04-11T10:52:17Z</time></trkpt><trkpt lat="45.11382298031823" lon="9.6821925923901"><ele>44.0</ele><time>2026-04-11T10:52:18Z</time></trkpt><trkpt lat="45.11363694994248" lon="9.682453030322906"><ele>44.0</ele><time>2026-04-11T10:52:19Z</time></trkpt><trkpt lat="45.1134547594813" lon="9.682711796434997"><ele>43.5</ele><time>2026-04-11T10:52:20Z</time></trkpt><trkpt lat="45.113286716075386" lon="9.682961567290974"><ele>43.0</ele><time>2026-04-11T10:52:21Z</time></trkpt><trkpt lat="45.11311744220618" lon="9.683208792792179"><ele>43.0</ele><time>2026-04-11T10:52:22Z</time></trkpt><trkpt lat="45.112943757902286" lon="9.683461543420435"><ele>43.0</ele><time>2026-04-11T10:52:23Z</time></trkpt><trkpt lat="45.11277251588836" lon="9.68370985353074"><ele>44.0</ele><time>2026-04-11T10:52:24Z</time></trkpt><trkpt lat="45.11260260968471" lon="9.683956307570089"><ele>45.0</ele><time>2026-04-11T10:52:25Z</time></trkpt><trkpt lat="45.11243481347305" lon="9.68420298164553"><ele>45.5</ele><time>2026-04-11T10:52:26Z</time></trkpt><trkpt lat="45.11226928279951" lon="9.684455882385508"><ele>46.0</ele><time>2026-04-11T10:52:27Z</time></trkpt><trkpt lat="45.1121013274318" lon="9.684710098922654"><ele>46.0</ele><time>2026-04-11T10:52:28Z</time></trkpt><trkpt lat="45.11192781954073" lon="9.684953580016453"><ele>46.0</ele><time>2026-04-11T10:52:29Z</time></trkpt><trkpt lat="45.111751308460086" lon="9.685196506235542"><ele>47.0</ele><time>2026-04-11T10:52:29.999Z</time></trkpt><trkpt lat="45.11157120203733" lon="9.685441668090427"><ele>48.0</ele><time>2026-04-11T10:52:30.999Z</time></trkpt><trkpt lat="45.111387810682324" lon="9.685683696842545"><ele>48.0</ele><time>2026-04-11T10:52:31.999Z</time></trkpt><trkpt lat="45.11120292461216" lon="9.685923034730141"><ele>48.0</ele><time>2026-04-11T10:52:32.999Z</time></trkpt><trkpt lat="45.11101972821538" lon="9.6861615746703"><ele>48.0</ele><time>2026-04-11T10:52:33.999Z</time></trkpt><trkpt lat="45.1108362877652" lon="9.686397710358284"><ele>48.0</ele><time>2026-04-11T10:52:34.999Z</time></trkpt><trkpt lat="45.110651739141346" lon="9.686631174728635"><ele>48.0</ele><time>2026-04-11T10:52:35.999Z</time></trkpt><trkpt lat="45.11046595882404" lon="9.686865705494023"><ele>48.0</ele><time>2026-04-11T10:52:36.999Z</time></trkpt><trkpt lat="45.110278825298046" lon="9.687096976532805"><ele>47.5</ele><time>2026-04-11T10:52:37.999Z</time></trkpt><trkpt lat="45.11009359467705" lon="9.687331134256421"><ele>47.0</ele><time>2026-04-11T10:52:38.999Z</time></trkpt><trkpt lat="45.10990555772088" lon="9.68756288309216"><ele>46.5</ele><time>2026-04-11T10:52:39.999Z</time></trkpt><trkpt lat="45.109713312441166" lon="9.687795975623835"><ele>46.0</ele><time>2026-04-11T10:52:40.999Z</time></trkpt><trkpt lat="45.109522974849305" lon="9.688027467340397"><ele>46.0</ele><time>2026-04-11T10:52:41.999Z</time></trkpt><trkpt lat="45.109331937418055" lon="9.688256255461237"><ele>46.0</ele><time>2026-04-11T10:52:42.999Z</time></trkpt><trkpt lat="45.10913923682075" lon="9.688480569578912"><ele>47.0</ele><time>2026-04-11T10:52:43.999Z</time></trkpt><trkpt lat="45.10894632069082" lon="9.688704094602146"><ele>48.0</ele><time>2026-04-11T10:52:44.999Z</time></trkpt><trkpt lat="45.10875143764811" lon="9.688925474295633"><ele>48.0</ele><time>2026-04-11T10:52:45.999Z</time></trkpt><trkpt lat="45.10855901043184" lon="9.689145238611156"><ele>48.0</ele><time>2026-04-11T10:52:46.999Z</time></trkpt><trkpt lat="45.10836774870597" lon="9.689365493115158"><ele>47.5</ele><time>2026-04-11T10:52:47.999Z</time></trkpt><trkpt lat="45.10817252288308" lon="9.68958645011802"><ele>47.0</ele><time>2026-04-11T10:52:48.999Z</time></trkpt><trkpt lat="45.10797706374335" lon="9.689799130836052"><ele>47.0</ele><time>2026-04-11T10:52:49.999Z</time></trkpt><trkpt lat="45.10777960217283" lon="9.69000913104752"><ele>47.0</ele><time>2026-04-11T10:52:50.999Z</time></trkpt><trkpt lat="45.107580241865485" lon="9.690217122006372"><ele>46.5</ele><time>2026-04-11T10:52:51.999Z</time></trkpt><trkpt lat="45.10737658347836" lon="9.690422581880782"><ele>46.0</ele><time>2026-04-11T10:52:52.999Z</time></trkpt><trkpt lat="45.10717503357615" lon="9.690629283406293"><ele>46.0</ele><time>2026-04-11T10:52:53.999Z</time></trkpt><trkpt lat="45.106974728128876" lon="9.690841198056082"><ele>46.0</ele><time>2026-04-11T10:52:54.999Z</time></trkpt><trkpt lat="45.10677455299479" lon="9.691052155282986"><ele>47.0</ele><time>2026-04-11T10:52:55.999Z</time></trkpt><trkpt lat="45.10657795705669" lon="9.69126259172299"><ele>48.0</ele><time>2026-04-11T10:52:56.999Z</time></trkpt><trkpt lat="45.10637987263445" lon="9.691473589040442"><ele>48.0</ele><time>2026-04-11T10:52:57.999Z</time></trkpt><trkpt lat="45.10618062240188" lon="9.691684481326899"><ele>48.0</ele><time>2026-04-11T10:52:58.999Z</time></trkpt><trkpt lat="45.10598048247402" lon="9.691893482495702"><ele>48.0</ele><time>2026-04-11T10:52:59.999Z</time></trkpt><trkpt lat="45.10577558949234" lon="9.692104358727496"><ele>48.0</ele><time>2026-04-11T10:53:00.999Z</time></trkpt><trkpt lat="45.10557307797639" lon="9.69231896948214"><ele>46.5</ele><time>2026-04-11T10:53:01.999Z</time></trkpt><trkpt lat="45.105374518005995" lon="9.692530569338672"><ele>45.0</ele><time>2026-04-11T10:53:02.999Z</time></trkpt><trkpt lat="45.10517599629039" lon="9.692740095645762"><ele>45.0</ele><time>2026-04-11T10:53:03.999Z</time></trkpt><trkpt lat="45.10498090944972" lon="9.692946909163613"><ele>45.0</ele><time>2026-04-11T10:53:04.999Z</time></trkpt><trkpt lat="45.10478847813163" lon="9.693155591733095"><ele>45.0</ele><time>2026-04-11T10:53:05.999Z</time></trkpt><trkpt lat="45.10459237900872" lon="9.693366203721308"><ele>45.0</ele><time>2026-04-11T10:53:06.999Z</time></trkpt><trkpt lat="45.104394033068296" lon="9.693578476122791"><ele>45.5</ele><time>2026-04-11T10:53:07.999Z</time></trkpt><trkpt lat="45.10419407999202" lon="9.693792302853941"><ele>46.0</ele><time>2026-04-11T10:53:08.999Z</time></trkpt><trkpt lat="45.1039910657706" lon="9.694006753937277"><ele>46.0</ele><time>2026-04-11T10:53:09.999Z</time></trkpt><trkpt lat="45.10379042765773" lon="9.694219992329879"><ele>46.0</ele><time>2026-04-11T10:53:10.999Z</time></trkpt><trkpt lat="45.10359158878149" lon="9.694428886255826"><ele>45.5</ele><time>2026-04-11T10:53:11.999Z</time></trkpt><trkpt lat="45.10339513525658" lon="9.694641875441265"><ele>45.0</ele><time>2026-04-11T10:53:12.999Z</time></trkpt><trkpt lat="45.10319836118396" lon="9.69485616532939"><ele>45.0</ele><time>2026-04-11T10:53:13.999Z</time></trkpt><trkpt lat="45.102999018645555" lon="9.695069212206606"><ele>45.0</ele><time>2026-04-11T10:53:14.999Z</time></trkpt><trkpt lat="45.10280146306404" lon="9.69528057766567"><ele>45.0</ele><time>2026-04-11T10:53:15.999Z</time></trkpt><trkpt lat="45.10260178449664" lon="9.695496746970084"><ele>45.0</ele><time>2026-04-11T10:53:16.999Z</time></trkpt><trkpt lat="45.10240439230942" lon="9.69570715326402"><ele>45.0</ele><time>2026-04-11T10:53:17.999Z</time></trkpt><trkpt lat="45.102199419294486" lon="9.695925100939089"><ele>45.0</ele><time>2026-04-11T10:53:18.999Z</time></trkpt><trkpt lat="45.10199642197217" lon="9.696143062106273"><ele>44.5</ele><time>2026-04-11T10:53:19.999Z</time></trkpt><trkpt lat="45.10179881205212" lon="9.696356549229504"><ele>44.0</ele><time>2026-04-11T10:53:20.999Z</time></trkpt><trkpt lat="45.10160563857108" lon="9.69656535532852"><ele>45.0</ele><time>2026-04-11T10:53:21.999Z</time></trkpt><trkpt lat="45.10140760848978" lon="9.696779513601701"><ele>46.0</ele><time>2026-04-11T10:53:22.999Z</time></trkpt><trkpt lat="45.10120745665988" lon="9.69699123948446"><ele>46.0</ele><time>2026-04-11T10:53:23.999Z</time></trkpt><trkpt lat="45.101009620712944" lon="9.697203435766149"><ele>46.0</ele><time>2026-04-11T10:53:24.999Z</time></trkpt><trkpt lat="45.10081368668759" lon="9.697419663619058"><ele>47.0</ele><time>2026-04-11T10:53:25.999Z</time></trkpt><trkpt lat="45.10061705230767" lon="9.697636555775864"><ele>48.0</ele><time>2026-04-11T10:53:26.999Z</time></trkpt><trkpt lat="45.10042223696864" lon="9.697854013692986"><ele>48.0</ele><time>2026-04-11T10:53:27.999Z</time></trkpt><trkpt lat="45.10021993059746" lon="9.698072825451712"><ele>48.0</ele><time>2026-04-11T10:53:28.999Z</time></trkpt><trkpt lat="45.100013002109236" lon="9.698285586035665"><ele>46.5</ele><time>2026-04-11T10:53:29.999Z</time></trkpt><trkpt lat="45.099809165633566" lon="9.698497747122227"><ele>45.0</ele><time>2026-04-11T10:53:30.999Z</time></trkpt><trkpt lat="45.09960632864596" lon="9.698709928728896"><ele>45.0</ele><time>2026-04-11T10:53:31.999Z</time></trkpt><trkpt lat="45.099406807271095" lon="9.69892387522094"><ele>45.0</ele><time>2026-04-11T10:53:32.999Z</time></trkpt><trkpt lat="45.09920951948503" lon="9.699143119881537"><ele>44.0</ele><time>2026-04-11T10:53:33.999Z</time></trkpt><trkpt lat="45.099014111934814" lon="9.699354533779793"><ele>43.0</ele><time>2026-04-11T10:53:34.999Z</time></trkpt><trkpt lat="45.09881512748195" lon="9.69956536436003"><ele>43.0</ele><time>2026-04-11T10:53:35.998Z</time></trkpt><trkpt lat="45.09861982193942" lon="9.699775644587469"><ele>43.0</ele><time>2026-04-11T10:53:36.998Z</time></trkpt><trkpt lat="45.098422279775946" lon="9.699991360432456"><ele>43.0</ele><time>2026-04-11T10:53:37.998Z</time></trkpt><trkpt lat="45.09822706136961" lon="9.70020451534484"><ele>43.0</ele><time>2026-04-11T10:53:38.998Z</time></trkpt><trkpt lat="45.09802894069698" lon="9.700418148477405"><ele>43.0</ele><time>2026-04-11T10:53:40Z</time></trkpt><trkpt lat="45.09783249976145" lon="9.700631879965428"><ele>43.0</ele><time>2026-04-11T10:53:41Z</time></trkpt><trkpt lat="45.097634826814854" lon="9.700842349434456"><ele>43.0</ele><time>2026-04-11T10:53:42Z</time></trkpt><trkpt lat="45.097436925482185" lon="9.701047952718161"><ele>43.0</ele><time>2026-04-11T10:53:43Z</time></trkpt><trkpt lat="45.09704237473027" lon="9.701459147291263"><ele>44.0</ele><time>2026-04-11T10:53:45Z</time></trkpt><trkpt lat="45.09684150966715" lon="9.701671163425996"><ele>45.0</ele><time>2026-04-11T10:53:46Z</time></trkpt><trkpt lat="45.09664584158451" lon="9.701875163650437"><ele>44.5</ele><time>2026-04-11T10:53:47Z</time></trkpt><trkpt lat="45.09644829720421" lon="9.702080064078643"><ele>44.0</ele><time>2026-04-11T10:53:48Z</time></trkpt><trkpt lat="45.09625331648464" lon="9.702285724773269"><ele>44.0</ele><time>2026-04-11T10:53:49Z</time></trkpt><trkpt lat="45.09606182489738" lon="9.702487306670895"><ele>44.0</ele><time>2026-04-11T10:53:50Z</time></trkpt><trkpt lat="45.095870661119754" lon="9.702687844341327"><ele>44.0</ele><time>2026-04-11T10:53:51Z</time></trkpt><trkpt lat="45.09568266396952" lon="9.702889818438226"><ele>44.0</ele><time>2026-04-11T10:53:52Z</time></trkpt><trkpt lat="45.09549983801007" lon="9.703094092678013"><ele>44.0</ele><time>2026-04-11T10:53:53Z</time></trkpt><trkpt lat="45.09531651298115" lon="9.703291276688875"><ele>44.0</ele><time>2026-04-11T10:53:54Z</time></trkpt><trkpt lat="45.095133784272" lon="9.703488658678854"><ele>44.5</ele><time>2026-04-11T10:53:55Z</time></trkpt><trkpt lat="45.09495053958254" lon="9.703685185551473"><ele>45.0</ele><time>2026-04-11T10:53:56Z</time></trkpt><trkpt lat="45.094770418852576" lon="9.70387817670734"><ele>45.333333333333336</ele><time>2026-04-11T10:53:57Z</time></trkpt><trkpt lat="45.09459235972886" lon="9.70407377513261"><ele>45.66666666666667</ele><time>2026-04-11T10:53:58Z</time></trkpt><trkpt lat="45.09441439954512" lon="9.704265075046575"><ele>46.0</ele><time>2026-04-11T10:53:59Z</time></trkpt><trkpt lat="45.09423508951764" lon="9.704454836628084"><ele>45.0</ele><time>2026-04-11T10:54:00Z</time></trkpt><trkpt lat="45.094057815230215" lon="9.704647752110905"><ele>44.0</ele><time>2026-04-11T10:54:01Z</time></trkpt><trkpt lat="45.09388117554792" lon="9.704839853953224"><ele>43.0</ele><time>2026-04-11T10:54:02Z</time></trkpt><trkpt lat="45.09370149343838" lon="9.705030078864093"><ele>43.0</ele><time>2026-04-11T10:54:03Z</time></trkpt><trkpt lat="45.09352188846476" lon="9.70522436103929"><ele>43.0</ele><time>2026-04-11T10:54:04Z</time></trkpt><trkpt lat="45.09334080241554" lon="9.705417807816948"><ele>42.5</ele><time>2026-04-11T10:54:05Z</time></trkpt><trkpt lat="45.093159422319026" lon="9.705611590310745"><ele>42.0</ele><time>2026-04-11T10:54:06Z</time></trkpt><trkpt lat="45.09297556507745" lon="9.705808862947594"><ele>42.0</ele><time>2026-04-11T10:54:07Z</time></trkpt><trkpt lat="45.09279041963967" lon="9.70600949674481"><ele>42.0</ele><time>2026-04-11T10:54:08Z</time></trkpt><trkpt lat="45.09260501445409" lon="9.706208940271132"><ele>44.0</ele><time>2026-04-11T10:54:09Z</time></trkpt><trkpt lat="45.0924183179343" lon="9.706414562401266"><ele>46.0</ele><time>2026-04-11T10:54:10Z</time></trkpt><trkpt lat="45.09223046953963" lon="9.706616525938776"><ele>46.0</ele><time>2026-04-11T10:54:11Z</time></trkpt><trkpt lat="45.09204015791345" lon="9.706819481744017"><ele>46.0</ele><time>2026-04-11T10:54:12Z</time></trkpt><trkpt lat="45.09184655555394" lon="9.707027769740888"><ele>46.0</ele><time>2026-04-11T10:54:13Z</time></trkpt><trkpt lat="45.091651448430206" lon="9.707236067862741"><ele>46.0</ele><time>2026-04-11T10:54:14Z</time></trkpt><trkpt lat="45.09145650639196" lon="9.707442817171364"><ele>46.0</ele><time>2026-04-11T10:54:15Z</time></trkpt><trkpt lat="45.09126497173229" lon="9.707646588913445"><ele>46.0</ele><time>2026-04-11T10:54:16Z</time></trkpt><trkpt lat="45.09107461295251" lon="9.707851453366212"><ele>44.5</ele><time>2026-04-11T10:54:17Z</time></trkpt><trkpt lat="45.090882077377955" lon="9.708058919417601"><ele>43.0</ele><time>2026-04-11T10:54:18Z</time></trkpt><trkpt lat="45.09068778088027" lon="9.70826718865112"><ele>43.0</ele><time>2026-04-11T10:54:19Z</time></trkpt><trkpt lat="45.09049676077285" lon="9.708476064322154"><ele>43.0</ele><time>2026-04-11T10:54:20Z</time></trkpt><trkpt lat="45.09030565038659" lon="9.70868508155568"><ele>42.5</ele><time>2026-04-11T10:54:21Z</time></trkpt><trkpt lat="45.0901151439375" lon="9.708898170634724"><ele>42.0</ele><time>2026-04-11T10:54:22Z</time></trkpt><trkpt lat="45.08992254963021" lon="9.70910928553549"><ele>43.0</ele><time>2026-04-11T10:54:23Z</time></trkpt><trkpt lat="45.089726349188794" lon="9.70931897433685"><ele>44.0</ele><time>2026-04-11T10:54:24Z</time></trkpt><trkpt lat="45.08952936274593" lon="9.709528803915942"><ele>44.5</ele><time>2026-04-11T10:54:25Z</time></trkpt><trkpt lat="45.08933828415792" lon="9.709741995292436"><ele>45.0</ele><time>2026-04-11T10:54:26Z</time></trkpt><trkpt lat="45.08914509556035" lon="9.709963940572907"><ele>45.5</ele><time>2026-04-11T10:54:27Z</time></trkpt><trkpt lat="45.08894850314621" lon="9.710184375049014"><ele>46.0</ele><time>2026-04-11T10:54:28Z</time></trkpt><trkpt lat="45.0887536174233" lon="9.7104033585152"><ele>46.0</ele><time>2026-04-11T10:54:28.999Z</time></trkpt><trkpt lat="45.08855654635454" lon="9.710625601601025"><ele>46.0</ele><time>2026-04-11T10:54:29.999Z</time></trkpt><trkpt lat="45.08835872632673" lon="9.71085198715765"><ele>46.0</ele><time>2026-04-11T10:54:30.999Z</time></trkpt><trkpt lat="45.08815789554323" lon="9.711077512166515"><ele>46.0</ele><time>2026-04-11T10:54:31.999Z</time></trkpt><trkpt lat="45.087948469016915" lon="9.711310927349595"><ele>46.0</ele><time>2026-04-11T10:54:32.999Z</time></trkpt><trkpt lat="45.08774256410267" lon="9.71153353635485"><ele>46.0</ele><time>2026-04-11T10:54:33.999Z</time></trkpt><trkpt lat="45.08753475673809" lon="9.711752395872116"><ele>46.0</ele><time>2026-04-11T10:54:34.999Z</time></trkpt><trkpt lat="45.08732450230616" lon="9.711974685442952"><ele>46.0</ele><time>2026-04-11T10:54:35.999Z</time></trkpt><trkpt lat="45.0871148512326" lon="9.712197430114289"><ele>46.0</ele><time>2026-04-11T10:54:36.999Z</time></trkpt><trkpt lat="45.086907497880695" lon="9.712423026477087"><ele>46.0</ele><time>2026-04-11T10:54:37.999Z</time></trkpt><trkpt lat="45.08670054857476" lon="9.712646745680045"><ele>46.5</ele><time>2026-04-11T10:54:38.999Z</time></trkpt><trkpt lat="45.0864928733475" lon="9.712866525060095"><ele>47.0</ele><time>2026-04-11T10:54:39.999Z</time></trkpt><trkpt lat="45.08628522554559" lon="9.713092384108199"><ele>47.0</ele><time>2026-04-11T10:54:40.999Z</time></trkpt><trkpt lat="45.08607552460601" lon="9.713322203288872"><ele>47.0</ele><time>2026-04-11T10:54:41.999Z</time></trkpt><trkpt lat="45.08586447946168" lon="9.71355151023929"><ele>47.0</ele><time>2026-04-11T10:54:42.999Z</time></trkpt><trkpt lat="45.08565267185252" lon="9.713775712789959"><ele>47.0</ele><time>2026-04-11T10:54:43.999Z</time></trkpt><trkpt lat="45.085440984590576" lon="9.714002885906396"><ele>47.0</ele><time>2026-04-11T10:54:44.999Z</time></trkpt><trkpt lat="45.08523221495301" lon="9.714223765367413"><ele>47.0</ele><time>2026-04-11T10:54:45.999Z</time></trkpt><trkpt lat="45.085023856441765" lon="9.714446543263978"><ele>47.0</ele><time>2026-04-11T10:54:46.999Z</time></trkpt><trkpt lat="45.08481537427856" lon="9.714671830474567"><ele>47.0</ele><time>2026-04-11T10:54:47.999Z</time></trkpt><trkpt lat="45.08460487560022" lon="9.714900642009237"><ele>47.0</ele><time>2026-04-11T10:54:48.999Z</time></trkpt><trkpt lat="45.08439447259444" lon="9.715132311408999"><ele>47.0</ele><time>2026-04-11T10:54:49.999Z</time></trkpt><trkpt lat="45.084184028033235" lon="9.71535735522945"><ele>47.5</ele><time>2026-04-11T10:54:50.999Z</time></trkpt><trkpt lat="45.08397282474946" lon="9.715580753799111"><ele>48.0</ele><time>2026-04-11T10:54:51.999Z</time></trkpt><trkpt lat="45.083766786259496" lon="9.715807202891721"><ele>48.0</ele><time>2026-04-11T10:54:52.999Z</time></trkpt><trkpt lat="45.08356158347863" lon="9.716033698048488"><ele>48.0</ele><time>2026-04-11T10:54:53.999Z</time></trkpt><trkpt lat="45.08335763102781" lon="9.716258964871304"><ele>48.5</ele><time>2026-04-11T10:54:54.999Z</time></trkpt><trkpt lat="45.08315235624918" lon="9.716481417635071"><ele>49.0</ele><time>2026-04-11T10:54:55.999Z</time></trkpt><trkpt lat="45.08294400656021" lon="9.71670223160839"><ele>49.0</ele><time>2026-04-11T10:54:56.999Z</time></trkpt><trkpt lat="45.08273752182234" lon="9.716925731650495"><ele>49.0</ele><time>2026-04-11T10:54:57.999Z</time></trkpt><trkpt lat="45.082529364963655" lon="9.717147120363563"><ele>48.5</ele><time>2026-04-11T10:54:58.999Z</time></trkpt><trkpt lat="45.08232148500046" lon="9.717370084255197"><ele>48.0</ele><time>2026-04-11T10:54:59.999Z</time></trkpt><trkpt lat="45.08211328067406" lon="9.717596339824938"><ele>48.5</ele><time>2026-04-11T10:55:00.999Z</time></trkpt><trkpt lat="45.08190419587939" lon="9.717821007146345"><ele>49.0</ele><time>2026-04-11T10:55:01.999Z</time></trkpt><trkpt lat="45.081692055842" lon="9.718047388431438"><ele>48.0</ele><time>2026-04-11T10:55:02.999Z</time></trkpt><trkpt lat="45.08148187528827" lon="9.7182723393006"><ele>47.0</ele><time>2026-04-11T10:55:03.999Z</time></trkpt><trkpt lat="45.08127036585487" lon="9.718497853676205"><ele>47.0</ele><time>2026-04-11T10:55:04.999Z</time></trkpt><trkpt lat="45.08105742257633" lon="9.718722882666317"><ele>47.0</ele><time>2026-04-11T10:55:05.999Z</time></trkpt><trkpt lat="45.08084336914706" lon="9.71894656577834"><ele>47.0</ele><time>2026-04-11T10:55:06.999Z</time></trkpt><trkpt lat="45.080628027509526" lon="9.719171035021821"><ele>47.0</ele><time>2026-04-11T10:55:07.999Z</time></trkpt><trkpt lat="45.08041158328068" lon="9.71940341293032"><ele>47.0</ele><time>2026-04-11T10:55:08.999Z</time></trkpt><trkpt lat="45.0801963663431" lon="9.719632666118791"><ele>47.0</ele><time>2026-04-11T10:55:09.999Z</time></trkpt><trkpt lat="45.07997841543093" lon="9.719858826169059"><ele>46.5</ele><time>2026-04-11T10:55:10.999Z</time></trkpt><trkpt lat="45.07975811792779" lon="9.720080909211946"><ele>46.0</ele><time>2026-04-11T10:55:11.999Z</time></trkpt><trkpt lat="45.07953762104169" lon="9.720300878418179"><ele>46.0</ele><time>2026-04-11T10:55:12.999Z</time></trkpt><trkpt lat="45.0793168878843" lon="9.72052152300421"><ele>46.0</ele><time>2026-04-11T10:55:13.999Z</time></trkpt><trkpt lat="45.079100365636414" lon="9.720746675151897"><ele>46.0</ele><time>2026-04-11T10:55:14.999Z</time></trkpt><trkpt lat="45.07888647216646" lon="9.720972463247321"><ele>46.0</ele><time>2026-04-11T10:55:15.999Z</time></trkpt><trkpt lat="45.078673694666364" lon="9.721195562803251"><ele>46.5</ele><time>2026-04-11T10:55:16.999Z</time></trkpt><trkpt lat="45.07845717994744" lon="9.72141684322623"><ele>47.0</ele><time>2026-04-11T10:55:17.999Z</time></trkpt><trkpt lat="45.07824274132426" lon="9.721638800344051"><ele>47.0</ele><time>2026-04-11T10:55:18.999Z</time></trkpt><trkpt lat="45.07803519705645" lon="9.721856947461987"><ele>47.0</ele><time>2026-04-11T10:55:19.999Z</time></trkpt><trkpt lat="45.07782831163803" lon="9.7220685781732"><ele>47.0</ele><time>2026-04-11T10:55:20.999Z</time></trkpt><trkpt lat="45.07762310072121" lon="9.722276878708973"><ele>47.0</ele><time>2026-04-11T10:55:21.999Z</time></trkpt><trkpt lat="45.07741797453194" lon="9.722481799127905"><ele>46.5</ele><time>2026-04-11T10:55:22.999Z</time></trkpt><trkpt lat="45.077212300561875" lon="9.722681991558012"><ele>46.0</ele><time>2026-04-11T10:55:23.999Z</time></trkpt><trkpt lat="45.077009245522035" lon="9.722880049666307"><ele>46.0</ele><time>2026-04-11T10:55:24.999Z</time></trkpt><trkpt lat="45.076807358820275" lon="9.723079782569505"><ele>46.0</ele><time>2026-04-11T10:55:25.999Z</time></trkpt><trkpt lat="45.07660607087213" lon="9.723282073318277"><ele>45.5</ele><time>2026-04-11T10:55:26.999Z</time></trkpt><trkpt lat="45.07640241998898" lon="9.72348292605077"><ele>45.0</ele><time>2026-04-11T10:55:27.999Z</time></trkpt><trkpt lat="45.07619863662536" lon="9.723679841528313"><ele>46.0</ele><time>2026-04-11T10:55:28.999Z</time></trkpt><trkpt lat="45.07599671355806" lon="9.723880803153797"><ele>47.0</ele><time>2026-04-11T10:55:29.999Z</time></trkpt><trkpt lat="45.07579466747989" lon="9.724080539183623"><ele>46.5</ele><time>2026-04-11T10:55:30.999Z</time></trkpt><trkpt lat="45.07559255577307" lon="9.72427722057478"><ele>46.0</ele><time>2026-04-11T10:55:31.999Z</time></trkpt><trkpt lat="45.07538655946033" lon="9.724478954690614"><ele>47.0</ele><time>2026-04-11T10:55:32.998Z</time></trkpt><trkpt lat="45.07518249856528" lon="9.724679835929019"><ele>48.0</ele><time>2026-04-11T10:55:33.998Z</time></trkpt><trkpt lat="45.07497842703069" lon="9.724878213635273"><ele>48.5</ele><time>2026-04-11T10:55:34.998Z</time></trkpt><trkpt lat="45.07477169926845" lon="9.725078759732785"><ele>49.0</ele><time>2026-04-11T10:55:35.998Z</time></trkpt><trkpt lat="45.07456071670827" lon="9.725282121219065"><ele>49.0</ele><time>2026-04-11T10:55:36.998Z</time></trkpt><trkpt lat="45.074354193377" lon="9.725489237918158"><ele>49.0</ele><time>2026-04-11T10:55:37.998Z</time></trkpt><trkpt lat="45.07413177683684" lon="9.725699302964975"><ele>48.0</ele><time>2026-04-11T10:55:38.998Z</time></trkpt><trkpt lat="45.0739492449982" lon="9.725897947514076"><ele>47.0</ele><time>2026-04-11T10:55:39.998Z</time></trkpt><trkpt lat="45.07375374913995" lon="9.726097142911375"><ele>47.0</ele><time>2026-04-11T10:55:40.998Z</time></trkpt><trkpt lat="45.07355568688799" lon="9.726304125497345"><ele>47.0</ele><time>2026-04-11T10:55:41.998Z</time></trkpt><trkpt lat="45.07336106349394" lon="9.72650502147489"><ele>46.0</ele><time>2026-04-11T10:55:42.998Z</time></trkpt><trkpt lat="45.07316503412122" lon="9.726704334824689"><ele>45.0</ele><time>2026-04-11T10:55:43.998Z</time></trkpt><trkpt lat="45.072967572183124" lon="9.726906671444418"><ele>47.0</ele><time>2026-04-11T10:55:44.998Z</time></trkpt><trkpt lat="45.072771031726035" lon="9.72711030288066"><ele>49.0</ele><time>2026-04-11T10:55:46Z</time></trkpt><trkpt lat="45.07257289119358" lon="9.727316788436168"><ele>49.5</ele><time>2026-04-11T10:55:47Z</time></trkpt><trkpt lat="45.07237034961957" lon="9.727529890444224"><ele>50.0</ele><time>2026-04-11T10:55:48Z</time></trkpt><trkpt lat="45.07217207671429" lon="9.727741035635074"><ele>50.0</ele><time>2026-04-11T10:55:49Z</time></trkpt><trkpt lat="45.07197308231032" lon="9.727949237637855"><ele>50.0</ele><time>2026-04-11T10:55:50Z</time></trkpt><trkpt lat="45.07177388147544" lon="9.728157295889147"><ele>49.5</ele><time>2026-04-11T10:55:51Z</time></trkpt><trkpt lat="45.07157276244802" lon="9.728361671436184"><ele>49.0</ele><time>2026-04-11T10:55:52Z</time></trkpt><trkpt lat="45.07136938064515" lon="9.728566095214038"><ele>49.0</ele><time>2026-04-11T10:55:53Z</time></trkpt><trkpt lat="45.07116424025372" lon="9.728774134290422"><ele>49.0</ele><time>2026-04-11T10:55:54Z</time></trkpt><trkpt lat="45.07095872724348" lon="9.72898092941237"><ele>48.0</ele><time>2026-04-11T10:55:55Z</time></trkpt><trkpt lat="45.07075277157724" lon="9.729186345777096"><ele>47.0</ele><time>2026-04-11T10:55:56Z</time></trkpt><trkpt lat="45.07054902587885" lon="9.729392123384487"><ele>47.0</ele><time>2026-04-11T10:55:57Z</time></trkpt><trkpt lat="45.07034658395728" lon="9.72959589538191"><ele>47.0</ele><time>2026-04-11T10:55:58Z</time></trkpt><trkpt lat="45.070138470695646" lon="9.729795181840553"><ele>46.5</ele><time>2026-04-11T10:55:59Z</time></trkpt><trkpt lat="45.06993715520106" lon="9.729998997655587"><ele>46.0</ele><time>2026-04-11T10:56:00Z</time></trkpt><trkpt lat="45.0697317072277" lon="9.730202733701242"><ele>47.0</ele><time>2026-04-11T10:56:01Z</time></trkpt><trkpt lat="45.06952572791565" lon="9.730402661272826"><ele>48.0</ele><time>2026-04-11T10:56:02Z</time></trkpt><trkpt lat="45.06931900393937" lon="9.730602362973027"><ele>48.0</ele><time>2026-04-11T10:56:03Z</time></trkpt><trkpt lat="45.06911260285173" lon="9.730804357471952"><ele>48.0</ele><time>2026-04-11T10:56:04Z</time></trkpt><trkpt lat="45.068909404750706" lon="9.731005247975485"><ele>48.0</ele><time>2026-04-11T10:56:05Z</time></trkpt><trkpt lat="45.06870374230979" lon="9.731209400460399"><ele>48.0</ele><time>2026-04-11T10:56:06Z</time></trkpt><trkpt lat="45.06849959770239" lon="9.731410006907904"><ele>48.0</ele><time>2026-04-11T10:56:07Z</time></trkpt><trkpt lat="45.068298581056375" lon="9.731613856069709"><ele>48.0</ele><time>2026-04-11T10:56:08Z</time></trkpt><trkpt lat="45.06809580987339" lon="9.731816963563245"><ele>49.5</ele><time>2026-04-11T10:56:09Z</time></trkpt><trkpt lat="45.06788757406702" lon="9.732024590335211"><ele>51.0</ele><time>2026-04-11T10:56:10Z</time></trkpt><trkpt lat="45.06768176258844" lon="9.732226941481825"><ele>51.0</ele><time>2026-04-11T10:56:11Z</time></trkpt><trkpt lat="45.06747478499148" lon="9.73242883137205"><ele>51.0</ele><time>2026-04-11T10:56:12Z</time></trkpt><trkpt lat="45.06726258108611" lon="9.732632950725332"><ele>47.0</ele><time>2026-04-11T10:56:13Z</time></trkpt><trkpt lat="45.06705128715818" lon="9.732839215762315"><ele>43.0</ele><time>2026-04-11T10:56:14Z</time></trkpt><trkpt lat="45.066837281563515" lon="9.733047818560255"><ele>43.0</ele><time>2026-04-11T10:56:15Z</time></trkpt><trkpt lat="45.06662739121184" lon="9.733257242387738"><ele>43.0</ele><time>2026-04-11T10:56:16Z</time></trkpt><trkpt lat="45.06641958574241" lon="9.733464806455368"><ele>42.0</ele><time>2026-04-11T10:56:17Z</time></trkpt><trkpt lat="45.0662103883091" lon="9.733672758339148"><ele>41.0</ele><time>2026-04-11T10:56:18Z</time></trkpt><trkpt lat="45.06599955185852" lon="9.733882762341171"><ele>41.0</ele><time>2026-04-11T10:56:19Z</time></trkpt><trkpt lat="45.065793340122404" lon="9.73409027363577"><ele>41.0</ele><time>2026-04-11T10:56:20Z</time></trkpt><trkpt lat="45.06558989878885" lon="9.734291883231595"><ele>41.0</ele><time>2026-04-11T10:56:21Z</time></trkpt><trkpt lat="45.06538439697217" lon="9.734492677251545"><ele>41.0</ele><time>2026-04-11T10:56:22Z</time></trkpt><trkpt lat="45.06517359650571" lon="9.734701760559831"><ele>41.0</ele><time>2026-04-11T10:56:23Z</time></trkpt><trkpt lat="45.06496493197319" lon="9.734907375646438"><ele>41.0</ele><time>2026-04-11T10:56:24Z</time></trkpt><trkpt lat="45.064759446880785" lon="9.735110419054234"><ele>44.5</ele><time>2026-04-11T10:56:25Z</time></trkpt><trkpt lat="45.064553798626726" lon="9.735311253827414"><ele>48.0</ele><time>2026-04-11T10:56:26Z</time></trkpt><trkpt lat="45.06434923948637" lon="9.735512378813045"><ele>48.0</ele><time>2026-04-11T10:56:27Z</time></trkpt><trkpt lat="45.064143305311426" lon="9.735713895316929"><ele>48.0</ele><time>2026-04-11T10:56:28Z</time></trkpt><trkpt lat="45.06394043975663" lon="9.735913466783465"><ele>48.5</ele><time>2026-04-11T10:56:29Z</time></trkpt><trkpt lat="45.063739585643404" lon="9.736112492561771"><ele>49.0</ele><time>2026-04-11T10:56:29.999Z</time></trkpt><trkpt lat="45.063535078285604" lon="9.736312894816647"><ele>49.0</ele><time>2026-04-11T10:56:30.999Z</time></trkpt><trkpt lat="45.06332730898584" lon="9.73651566254649"><ele>49.0</ele><time>2026-04-11T10:56:31.999Z</time></trkpt><trkpt lat="45.0631192235152" lon="9.73671771322802"><ele>50.5</ele><time>2026-04-11T10:56:32.999Z</time></trkpt><trkpt lat="45.06290932753941" lon="9.736922089141565"><ele>52.0</ele><time>2026-04-11T10:56:33.999Z</time></trkpt><trkpt lat="45.06270041815782" lon="9.737129036639308"><ele>52.0</ele><time>2026-04-11T10:56:34.999Z</time></trkpt><trkpt lat="45.06249392310863" lon="9.737338575984365"><ele>52.0</ele><time>2026-04-11T10:56:35.999Z</time></trkpt><trkpt lat="45.06228900223165" lon="9.737546146102366"><ele>53.5</ele><time>2026-04-11T10:56:36.999Z</time></trkpt><trkpt lat="45.06208185402961" lon="9.737752632572962"><ele>55.0</ele><time>2026-04-11T10:56:37.999Z</time></trkpt><trkpt lat="45.06187401562222" lon="9.737955484451742"><ele>55.0</ele><time>2026-04-11T10:56:38.999Z</time></trkpt><trkpt lat="45.06166422725034" lon="9.73816204380097"><ele>55.0</ele><time>2026-04-11T10:56:39.999Z</time></trkpt><trkpt lat="45.06145108811996" lon="9.738367770862272"><ele>53.5</ele><time>2026-04-11T10:56:40.999Z</time></trkpt><trkpt lat="45.061239039977885" lon="9.738576462833429"><ele>52.0</ele><time>2026-04-11T10:56:41.999Z</time></trkpt><trkpt lat="45.061025104949216" lon="9.738783848908442"><ele>52.0</ele><time>2026-04-11T10:56:42.999Z</time></trkpt><trkpt lat="45.060813324591194" lon="9.73898992861886"><ele>52.0</ele><time>2026-04-11T10:56:43.999Z</time></trkpt><trkpt lat="45.0605961459616" lon="9.739199063127463"><ele>49.5</ele><time>2026-04-11T10:56:44.999Z</time></trkpt><trkpt lat="45.06038136829355" lon="9.73940734027923"><ele>47.0</ele><time>2026-04-11T10:56:45.999Z</time></trkpt><trkpt lat="45.060163741874696" lon="9.739615370492741"><ele>45.5</ele><time>2026-04-11T10:56:46.999Z</time></trkpt><trkpt lat="45.05993694861115" lon="9.739826337545487"><ele>44.0</ele><time>2026-04-11T10:56:47.999Z</time></trkpt><trkpt lat="45.05971179759748" lon="9.7400298058967"><ele>45.0</ele><time>2026-04-11T10:56:48.999Z</time></trkpt><trkpt lat="45.05948928165312" lon="9.740233702681644"><ele>46.0</ele><time>2026-04-11T10:56:49.999Z</time></trkpt><trkpt lat="45.05927294152941" lon="9.74043843091229"><ele>44.5</ele><time>2026-04-11T10:56:50.999Z</time></trkpt><trkpt lat="45.059057728688344" lon="9.740642280755033"><ele>43.0</ele><time>2026-04-11T10:56:51.999Z</time></trkpt><trkpt lat="45.05884373063286" lon="9.740842520229899"><ele>44.5</ele><time>2026-04-11T10:56:52.999Z</time></trkpt><trkpt lat="45.05863191643205" lon="9.741049394723479"><ele>46.0</ele><time>2026-04-11T10:56:53.999Z</time></trkpt><trkpt lat="45.05841544304943" lon="9.74125832992037"><ele>45.5</ele><time>2026-04-11T10:56:54.999Z</time></trkpt><trkpt lat="45.058199131989426" lon="9.741467689333518"><ele>45.0</ele><time>2026-04-11T10:56:55.999Z</time></trkpt><trkpt lat="45.05798400206177" lon="9.741676058902275"><ele>46.5</ele><time>2026-04-11T10:56:56.999Z</time></trkpt><trkpt lat="45.057767522535244" lon="9.741883730986181"><ele>48.0</ele><time>2026-04-11T10:56:57.999Z</time></trkpt><trkpt lat="45.05755226999409" lon="9.742091940143236"><ele>46.0</ele><time>2026-04-11T10:56:58.999Z</time></trkpt><trkpt lat="45.057339343193924" lon="9.742302719393944"><ele>44.0</ele><time>2026-04-11T10:56:59.999Z</time></trkpt><trkpt lat="45.05713003599675" lon="9.742511687676139"><ele>44.5</ele><time>2026-04-11T10:57:00.999Z</time></trkpt><trkpt lat="45.05691678701962" lon="9.742717659437776"><ele>45.0</ele><time>2026-04-11T10:57:01.999Z</time></trkpt><trkpt lat="45.056709212729864" lon="9.742928083289817"><ele>44.5</ele><time>2026-04-11T10:57:02.999Z</time></trkpt><trkpt lat="45.05650426179618" lon="9.743139879559992"><ele>44.0</ele><time>2026-04-11T10:57:03.999Z</time></trkpt><trkpt lat="45.05629814320009" lon="9.743347026862999"><ele>45.0</ele><time>2026-04-11T10:57:04.999Z</time></trkpt><trkpt lat="45.05609082509528" lon="9.74355241262808"><ele>46.0</ele><time>2026-04-11T10:57:05.999Z</time></trkpt><trkpt lat="45.05588115360941" lon="9.743756331115643"><ele>46.0</ele><time>2026-04-11T10:57:06.999Z</time></trkpt><trkpt lat="45.05567477370106" lon="9.743962372429449"><ele>46.0</ele><time>2026-04-11T10:57:07.999Z</time></trkpt><trkpt lat="45.055469450188255" lon="9.744165263176354"><ele>46.0</ele><time>2026-04-11T10:57:08.999Z</time></trkpt><trkpt lat="45.05526444098708" lon="9.744365053191085"><ele>46.0</ele><time>2026-04-11T10:57:09.999Z</time></trkpt><trkpt lat="45.05505597257722" lon="9.744568407688087"><ele>46.5</ele><time>2026-04-11T10:57:10.999Z</time></trkpt><trkpt lat="45.05484874636259" lon="9.744769618773898"><ele>47.0</ele><time>2026-04-11T10:57:11.999Z</time></trkpt><trkpt lat="45.05464636206808" lon="9.744967594731818"><ele>47.0</ele><time>2026-04-11T10:57:12.999Z</time></trkpt><trkpt lat="45.05444055088034" lon="9.74516769960526"><ele>47.0</ele><time>2026-04-11T10:57:13.999Z</time></trkpt><trkpt lat="45.05424182099215" lon="9.745367744627492"><ele>46.5</ele><time>2026-04-11T10:57:14.999Z</time></trkpt><trkpt lat="45.05404291510069" lon="9.74556348591693"><ele>46.0</ele><time>2026-04-11T10:57:15.999Z</time></trkpt><trkpt lat="45.05383817484408" lon="9.745763909094745"><ele>46.0</ele><time>2026-04-11T10:57:16.999Z</time></trkpt><trkpt lat="45.053634663572446" lon="9.745966611320023"><ele>46.0</ele><time>2026-04-11T10:57:17.999Z</time></trkpt><trkpt lat="45.05343509080413" lon="9.746171719450153"><ele>47.5</ele><time>2026-04-11T10:57:18.999Z</time></trkpt><trkpt lat="45.05323764969501" lon="9.746369220661379"><ele>49.0</ele><time>2026-04-11T10:57:19.999Z</time></trkpt><trkpt lat="45.05303716477401" lon="9.746567428447928"><ele>49.0</ele><time>2026-04-11T10:57:20.999Z</time></trkpt><trkpt lat="45.05283142313337" lon="9.746768715831761"><ele>49.0</ele><time>2026-04-11T10:57:21.999Z</time></trkpt><trkpt lat="45.05262544505234" lon="9.746968013791681"><ele>47.5</ele><time>2026-04-11T10:57:22.999Z</time></trkpt><trkpt lat="45.05241778234078" lon="9.747159167163673"><ele>46.0</ele><time>2026-04-11T10:57:23.999Z</time></trkpt><trkpt lat="45.05222108943506" lon="9.747356110057476"><ele>46.0</ele><time>2026-04-11T10:57:24.999Z</time></trkpt><trkpt lat="45.05201632493926" lon="9.747556538706135"><ele>46.0</ele><time>2026-04-11T10:57:25.999Z</time></trkpt><trkpt lat="45.05180731580221" lon="9.747758243283982"><ele>45.5</ele><time>2026-04-11T10:57:26.999Z</time></trkpt><trkpt lat="45.05159667280826" lon="9.747971093594392"><ele>45.0</ele><time>2026-04-11T10:57:27.999Z</time></trkpt><trkpt lat="45.05140189340164" lon="9.748170800819056"><ele>45.0</ele><time>2026-04-11T10:57:28.999Z</time></trkpt><trkpt lat="45.05120252353544" lon="9.748373679783317"><ele>45.0</ele><time>2026-04-11T10:57:29.999Z</time></trkpt><trkpt lat="45.05099669553161" lon="9.748576696663132"><ele>45.0</ele><time>2026-04-11T10:57:30.999Z</time></trkpt><trkpt lat="45.05078953517856" lon="9.748781450572354"><ele>45.0</ele><time>2026-04-11T10:57:31.999Z</time></trkpt><trkpt lat="45.05058474476137" lon="9.748982953356027"><ele>45.0</ele><time>2026-04-11T10:57:32.999Z</time></trkpt><trkpt lat="45.05037862542633" lon="9.749182211735603"><ele>45.0</ele><time>2026-04-11T10:57:33.999Z</time></trkpt><trkpt lat="45.05016893396791" lon="9.749384530944482"><ele>45.5</ele><time>2026-04-11T10:57:34.998Z</time></trkpt><trkpt lat="45.049963395000844" lon="9.749585367240156"><ele>46.0</ele><time>2026-04-11T10:57:35.998Z</time></trkpt><trkpt lat="45.04976195765568" lon="9.749785197487174"><ele>44.5</ele><time>2026-04-11T10:57:36.998Z</time></trkpt><trkpt lat="45.04956200250255" lon="9.74998463756451"><ele>43.0</ele><time>2026-04-11T10:57:37.998Z</time></trkpt><trkpt lat="45.04936019156665" lon="9.750184782237888"><ele>44.0</ele><time>2026-04-11T10:57:38.998Z</time></trkpt><trkpt lat="45.049160760127116" lon="9.750382742943366"><ele>45.0</ele><time>2026-04-11T10:57:39.998Z</time></trkpt><trkpt lat="45.04895830596373" lon="9.750584092174822"><ele>45.0</ele><time>2026-04-11T10:57:40.998Z</time></trkpt><trkpt lat="45.04875728617568" lon="9.750784067723801"><ele>45.0</ele><time>2026-04-11T10:57:41.998Z</time></trkpt><trkpt lat="45.04855467299257" lon="9.750986484993847"><ele>45.5</ele><time>2026-04-11T10:57:42.998Z</time></trkpt><trkpt lat="45.048353582249604" lon="9.751186832619382"><ele>46.0</ele><time>2026-04-11T10:57:43.998Z</time></trkpt><trkpt lat="45.04815390515792" lon="9.751385615369138"><ele>46.0</ele><time>2026-04-11T10:57:44.998Z</time></trkpt><trkpt lat="45.04795024873234" lon="9.751583504247352"><ele>46.0</ele><time>2026-04-11T10:57:45.998Z</time></trkpt><trkpt lat="45.047744165008545" lon="9.7517824892859"><ele>46.0</ele><time>2026-04-11T10:57:46.998Z</time></trkpt><trkpt lat="45.04753920778117" lon="9.751982170233507"><ele>46.0</ele><time>2026-04-11T10:57:47.998Z</time></trkpt><trkpt lat="45.0473374037998" lon="9.752183129542958"><ele>45.5</ele><time>2026-04-11T10:57:48.998Z</time></trkpt><trkpt lat="45.04713736762912" lon="9.75238295874363"><ele>45.0</ele><time>2026-04-11T10:57:49.998Z</time></trkpt><trkpt lat="45.04693539959879" lon="9.752583440488937"><ele>45.0</ele><time>2026-04-11T10:57:50.998Z</time></trkpt><trkpt lat="45.046731383269204" lon="9.752784898701682"><ele>45.0</ele><time>2026-04-11T10:57:52Z</time></trkpt><trkpt lat="45.04653291631234" lon="9.752984983793915"><ele>44.5</ele><time>2026-04-11T10:57:53Z</time></trkpt><trkpt lat="45.04633428104006" lon="9.75318249852535"><ele>44.0</ele><time>2026-04-11T10:57:54Z</time></trkpt><trkpt lat="45.04613151077061" lon="9.753379167534597"><ele>44.5</ele><time>2026-04-11T10:57:55Z</time></trkpt><trkpt lat="45.045923216706335" lon="9.753579035725199"><ele>45.0</ele><time>2026-04-11T10:57:56Z</time></trkpt><trkpt lat="45.04571801399035" lon="9.75378101658123"><ele>45.0</ele><time>2026-04-11T10:57:57Z</time></trkpt><trkpt lat="45.045516947189704" lon="9.75398316508718"><ele>45.0</ele><time>2026-04-11T10:57:58Z</time></trkpt><trkpt lat="45.04531319386241" lon="9.754185602209462"><ele>45.5</ele><time>2026-04-11T10:57:59Z</time></trkpt><trkpt lat="45.045109016283334" lon="9.75438730532133"><ele>46.0</ele><time>2026-04-11T10:58:00Z</time></trkpt><trkpt lat="45.044905065266946" lon="9.754588259089685"><ele>46.0</ele><time>2026-04-11T10:58:01Z</time></trkpt><trkpt lat="45.04470147911202" lon="9.754790043617005"><ele>46.0</ele><time>2026-04-11T10:58:02Z</time></trkpt><trkpt lat="45.044497520495604" lon="9.754991407779164"><ele>46.0</ele><time>2026-04-11T10:58:03Z</time></trkpt><trkpt lat="45.04429645235605" lon="9.755193117569606"><ele>46.0</ele><time>2026-04-11T10:58:04Z</time></trkpt><trkpt lat="45.04409366841528" lon="9.755395015322664"><ele>45.5</ele><time>2026-04-11T10:58:05Z</time></trkpt><trkpt lat="45.043888564537475" lon="9.755599736875471"><ele>45.0</ele><time>2026-04-11T10:58:06Z</time></trkpt><trkpt lat="45.04368525827085" lon="9.75580061961133"><ele>45.0</ele><time>2026-04-11T10:58:07Z</time></trkpt><trkpt lat="45.043476776145496" lon="9.75600192985662"><ele>45.0</ele><time>2026-04-11T10:58:08Z</time></trkpt><trkpt lat="45.04327211156573" lon="9.75620290500996"><ele>44.0</ele><time>2026-04-11T10:58:09Z</time></trkpt><trkpt lat="45.04306569591711" lon="9.756405932646375"><ele>43.0</ele><time>2026-04-11T10:58:10Z</time></trkpt><trkpt lat="45.042861197202065" lon="9.75660927855613"><ele>43.0</ele><time>2026-04-11T10:58:11Z</time></trkpt><trkpt lat="45.0426611212824" lon="9.756813928896976"><ele>43.0</ele><time>2026-04-11T10:58:12Z</time></trkpt><trkpt lat="45.0424598396534" lon="9.75702126327817"><ele>43.5</ele><time>2026-04-11T10:58:13Z</time></trkpt><trkpt lat="45.042257195474896" lon="9.757228787462154"><ele>44.0</ele><time>2026-04-11T10:58:14Z</time></trkpt><trkpt lat="45.04205234224423" lon="9.75742927976815"><ele>44.0</ele><time>2026-04-11T10:58:15Z</time></trkpt><trkpt lat="45.041842150266206" lon="9.75762691113059"><ele>44.0</ele><time>2026-04-11T10:58:16Z</time></trkpt><trkpt lat="45.041631191135245" lon="9.757828884926395"><ele>44.5</ele><time>2026-04-11T10:58:17Z</time></trkpt><trkpt lat="45.041422342817704" lon="9.758032670338862"><ele>45.0</ele><time>2026-04-11T10:58:18Z</time></trkpt><trkpt lat="45.04121303570218" lon="9.758240491346344"><ele>45.0</ele><time>2026-04-11T10:58:19Z</time></trkpt><trkpt lat="45.04100276231039" lon="9.758450221069019"><ele>45.0</ele><time>2026-04-11T10:58:20Z</time></trkpt><trkpt lat="45.04079333269411" lon="9.758661170053035"><ele>45.5</ele><time>2026-04-11T10:58:21Z</time></trkpt><trkpt lat="45.04058344781159" lon="9.758879306960283"><ele>46.0</ele><time>2026-04-11T10:58:22Z</time></trkpt><trkpt lat="45.04037629874084" lon="9.759089405951624"><ele>46.0</ele><time>2026-04-11T10:58:23Z</time></trkpt><trkpt lat="45.040157901578795" lon="9.759297872126997"><ele>46.0</ele><time>2026-04-11T10:58:24Z</time></trkpt><trkpt lat="45.03994462032493" lon="9.759510927901598"><ele>47.5</ele><time>2026-04-11T10:58:25Z</time></trkpt><trkpt lat="45.03971823909624" lon="9.759730794035368"><ele>49.0</ele><time>2026-04-11T10:58:26Z</time></trkpt><trkpt lat="45.03949957881303" lon="9.75995327630524"><ele>49.0</ele><time>2026-04-11T10:58:27Z</time></trkpt><trkpt lat="45.03928045925797" lon="9.760173655730995"><ele>49.0</ele><time>2026-04-11T10:58:28Z</time></trkpt><trkpt lat="45.039065256387836" lon="9.760393014980764"><ele>49.0</ele><time>2026-04-11T10:58:29Z</time></trkpt><trkpt lat="45.03884940855364" lon="9.760606679770122"><ele>49.0</ele><time>2026-04-11T10:58:30Z</time></trkpt><trkpt lat="45.0386341406584" lon="9.76081966445546"><ele>49.5</ele><time>2026-04-11T10:58:31Z</time></trkpt><trkpt lat="45.0384120989562" lon="9.761044554161115"><ele>50.0</ele><time>2026-04-11T10:58:32Z</time></trkpt><trkpt lat="45.03819291092295" lon="9.761266162755389"><ele>50.0</ele><time>2026-04-11T10:58:33Z</time></trkpt><trkpt lat="45.03797186001617" lon="9.761488450821828"><ele>50.0</ele><time>2026-04-11T10:58:34Z</time></trkpt><trkpt lat="45.037749327832216" lon="9.761707311582716"><ele>50.0</ele><time>2026-04-11T10:58:35Z</time></trkpt><trkpt lat="45.037531264819926" lon="9.761925331742482"><ele>50.0</ele><time>2026-04-11T10:58:36Z</time></trkpt><trkpt lat="45.03730998102164" lon="9.76214774391411"><ele>50.0</ele><time>2026-04-11T10:58:37Z</time></trkpt><trkpt lat="45.0370864951961" lon="9.762368009378417"><ele>50.0</ele><time>2026-04-11T10:58:37.999Z</time></trkpt><trkpt lat="45.03686515246503" lon="9.762584534474097"><ele>50.5</ele><time>2026-04-11T10:58:38.999Z</time></trkpt><trkpt lat="45.03664243048133" lon="9.762799389271791"><ele>51.0</ele><time>2026-04-11T10:58:39.999Z</time></trkpt><trkpt lat="45.0364228451094" lon="9.763012571086279"><ele>51.0</ele><time>2026-04-11T10:58:40.999Z</time></trkpt><trkpt lat="45.03620023070475" lon="9.763222954231567"><ele>51.0</ele><time>2026-04-11T10:58:41.999Z</time></trkpt><trkpt lat="45.035980140129354" lon="9.763435853644639"><ele>52.0</ele><time>2026-04-11T10:58:42.999Z</time></trkpt><trkpt lat="45.03576097612082" lon="9.763651744403269"><ele>53.0</ele><time>2026-04-11T10:58:43.999Z</time></trkpt><trkpt lat="45.035538882521514" lon="9.763868964080242"><ele>53.0</ele><time>2026-04-11T10:58:44.999Z</time></trkpt><trkpt lat="45.03531527128716" lon="9.764088072868775"><ele>53.0</ele><time>2026-04-11T10:58:45.999Z</time></trkpt><trkpt lat="45.03509348404866" lon="9.764306379749904"><ele>53.5</ele><time>2026-04-11T10:58:46.999Z</time></trkpt><trkpt lat="45.03487377690659" lon="9.76452453478634"><ele>54.0</ele><time>2026-04-11T10:58:47.999Z</time></trkpt><trkpt lat="45.034655423742514" lon="9.764739718474031"><ele>54.0</ele><time>2026-04-11T10:58:48.999Z</time></trkpt><trkpt lat="45.03443634766601" lon="9.764962073740845"><ele>54.0</ele><time>2026-04-11T10:58:49.999Z</time></trkpt><trkpt lat="45.03421560071428" lon="9.765183602136949"><ele>54.5</ele><time>2026-04-11T10:58:50.999Z</time></trkpt><trkpt lat="45.033993801848595" lon="9.765404701133852"><ele>55.0</ele><time>2026-04-11T10:58:51.999Z</time></trkpt><trkpt lat="45.033769510133716" lon="9.765625532236056"><ele>55.0</ele><time>2026-04-11T10:58:52.999Z</time></trkpt><trkpt lat="45.03354766015916" lon="9.765843642883706"><ele>55.0</ele><time>2026-04-11T10:58:53.999Z</time></trkpt><trkpt lat="45.03332296244162" lon="9.766063584343744"><ele>54.0</ele><time>2026-04-11T10:58:54.999Z</time></trkpt><trkpt lat="45.03309329223709" lon="9.76628381581243"><ele>53.0</ele><time>2026-04-11T10:58:55.999Z</time></trkpt><trkpt lat="45.03286089953093" lon="9.76650792051051"><ele>53.0</ele><time>2026-04-11T10:58:56.999Z</time></trkpt><trkpt lat="45.03265225285689" lon="9.766727088417795"><ele>53.0</ele><time>2026-04-11T10:58:57.999Z</time></trkpt><trkpt lat="45.03242590796882" lon="9.766955116522622"><ele>53.0</ele><time>2026-04-11T10:58:58.999Z</time></trkpt><trkpt lat="45.03220063350207" lon="9.767177245387682"><ele>53.0</ele><time>2026-04-11T10:58:59.999Z</time></trkpt><trkpt lat="45.03196906918801" lon="9.767399638435496"><ele>53.0</ele><time>2026-04-11T10:59:00.999Z</time></trkpt><trkpt lat="45.03173892329046" lon="9.76763227675653"><ele>53.0</ele><time>2026-04-11T10:59:01.999Z</time></trkpt><trkpt lat="45.03150243091543" lon="9.76785676563831"><ele>53.5</ele><time>2026-04-11T10:59:02.999Z</time></trkpt><trkpt lat="45.03127088692431" lon="9.76808571298562"><ele>54.0</ele><time>2026-04-11T10:59:03.999Z</time></trkpt><trkpt lat="45.031040776782504" lon="9.768312606110516"><ele>54.0</ele><time>2026-04-11T10:59:04.999Z</time></trkpt><trkpt lat="45.030810229032255" lon="9.768542039014779"><ele>54.0</ele><time>2026-04-11T10:59:05.999Z</time></trkpt><trkpt lat="45.03057869470197" lon="9.768768979600654"><ele>54.0</ele><time>2026-04-11T10:59:06.999Z</time></trkpt><trkpt lat="45.03034448961053" lon="9.768991102822216"><ele>54.0</ele><time>2026-04-11T10:59:07.999Z</time></trkpt><trkpt lat="45.0301100475378" lon="9.769219818388805"><ele>54.0</ele><time>2026-04-11T10:59:08.999Z</time></trkpt><trkpt lat="45.029879544376755" lon="9.769452158601243"><ele>54.0</ele><time>2026-04-11T10:59:09.999Z</time></trkpt><trkpt lat="45.029646133075424" lon="9.76968470395222"><ele>54.0</ele><time>2026-04-11T10:59:10.999Z</time></trkpt><trkpt lat="45.029411407585734" lon="9.769917659763067"><ele>54.0</ele><time>2026-04-11T10:59:11.999Z</time></trkpt><trkpt lat="45.02917677940146" lon="9.770147706710183"><ele>54.5</ele><time>2026-04-11T10:59:12.999Z</time></trkpt><trkpt lat="45.02894787622305" lon="9.770382236871285"><ele>55.0</ele><time>2026-04-11T10:59:13.999Z</time></trkpt><trkpt lat="45.028713801144704" lon="9.770610339153263"><ele>55.0</ele><time>2026-04-11T10:59:14.999Z</time></trkpt><trkpt lat="45.028477623283656" lon="9.770843242850313"><ele>55.0</ele><time>2026-04-11T10:59:15.999Z</time></trkpt><trkpt lat="45.02824086938044" lon="9.771078720232099"><ele>54.0</ele><time>2026-04-11T10:59:16.999Z</time></trkpt><trkpt lat="45.028007139697685" lon="9.771310386285808"><ele>53.0</ele><time>2026-04-11T10:59:17.999Z</time></trkpt><trkpt lat="45.027771261120954" lon="9.771544384402034"><ele>53.0</ele><time>2026-04-11T10:59:18.999Z</time></trkpt><trkpt lat="45.027539486353305" lon="9.771781764855652"><ele>53.0</ele><time>2026-04-11T10:59:19.999Z</time></trkpt><trkpt lat="45.02730978523083" lon="9.77200138751307"><ele>53.5</ele><time>2026-04-11T10:59:20.999Z</time></trkpt><trkpt lat="45.02707606579204" lon="9.772234374136271"><ele>54.0</ele><time>2026-04-11T10:59:21.999Z</time></trkpt><trkpt lat="45.02684826460696" lon="9.77247139767734"><ele>53.0</ele><time>2026-04-11T10:59:22.999Z</time></trkpt><trkpt lat="45.026616899969994" lon="9.77269642393453"><ele>52.0</ele><time>2026-04-11T10:59:23.999Z</time></trkpt><trkpt lat="45.02638665301211" lon="9.772917933371469"><ele>52.0</ele><time>2026-04-11T10:59:24.999Z</time></trkpt><trkpt lat="45.02615851892048" lon="9.773144008459287"><ele>52.0</ele><time>2026-04-11T10:59:25.999Z</time></trkpt><trkpt lat="45.02593412339389" lon="9.773371821601517"><ele>53.5</ele><time>2026-04-11T10:59:26.999Z</time></trkpt><trkpt lat="45.02570861660295" lon="9.773597833796076"><ele>55.0</ele><time>2026-04-11T10:59:27.999Z</time></trkpt><trkpt lat="45.02548594646132" lon="9.77381079595188"><ele>55.0</ele><time>2026-04-11T10:59:28.999Z</time></trkpt><trkpt lat="45.0252665003885" lon="9.774022558031199"><ele>55.0</ele><time>2026-04-11T10:59:29.999Z</time></trkpt><trkpt lat="45.025051974705185" lon="9.774229621436811"><ele>55.0</ele><time>2026-04-11T10:59:30.999Z</time></trkpt><trkpt lat="45.0248434303814" lon="9.774431693407614"><ele>55.0</ele><time>2026-04-11T10:59:31.999Z</time></trkpt><trkpt lat="45.02463354517541" lon="9.774639594176517"><ele>55.0</ele><time>2026-04-11T10:59:32.999Z</time></trkpt><trkpt lat="45.02442131712261" lon="9.77484624590611"><ele>55.0</ele><time>2026-04-11T10:59:33.999Z</time></trkpt><trkpt lat="45.02421087095016" lon="9.77504724076047"><ele>54.5</ele><time>2026-04-11T10:59:34.999Z</time></trkpt><trkpt lat="45.02399861572664" lon="9.77524367890665"><ele>54.0</ele><time>2026-04-11T10:59:35.999Z</time></trkpt><trkpt lat="45.02378438787454" lon="9.77544344041492"><ele>54.0</ele><time>2026-04-11T10:59:36.999Z</time></trkpt><trkpt lat="45.0235689669204" lon="9.775637720536588"><ele>54.0</ele><time>2026-04-11T10:59:37.999Z</time></trkpt><trkpt lat="45.02335953679768" lon="9.775840796735098"><ele>55.5</ele><time>2026-04-11T10:59:38.999Z</time></trkpt><trkpt lat="45.0231511531064" lon="9.776049469872095"><ele>57.0</ele><time>2026-04-11T10:59:39.999Z</time></trkpt><trkpt lat="45.02294230671629" lon="9.776258936924012"><ele>57.0</ele><time>2026-04-11T10:59:40.999Z</time></trkpt><trkpt lat="45.02272990904305" lon="9.776464232185095"><ele>57.0</ele><time>2026-04-11T10:59:41.998Z</time></trkpt><trkpt lat="45.022517768507164" lon="9.776669188016685"><ele>57.0</ele><time>2026-04-11T10:59:42.998Z</time></trkpt><trkpt lat="45.02230616283228" lon="9.776873856278423"><ele>57.0</ele><time>2026-04-11T10:59:43.998Z</time></trkpt><trkpt lat="45.022097546938454" lon="9.777081764837952"><ele>57.0</ele><time>2026-04-11T10:59:44.998Z</time></trkpt><trkpt lat="45.02188750060251" lon="9.777288157805948"><ele>57.0</ele><time>2026-04-11T10:59:45.998Z</time></trkpt><trkpt lat="45.021680784703214" lon="9.777499985834357"><ele>57.5</ele><time>2026-04-11T10:59:46.998Z</time></trkpt><trkpt lat="45.021474166561475" lon="9.777705879841625"><ele>58.0</ele><time>2026-04-11T10:59:47.998Z</time></trkpt><trkpt lat="45.021262834375975" lon="9.777910431763877"><ele>58.0</ele><time>2026-04-11T10:59:48.998Z</time></trkpt><trkpt lat="45.02105357695556" lon="9.778117089041416"><ele>58.0</ele><time>2026-04-11T10:59:49.998Z</time></trkpt><trkpt lat="45.02084995327239" lon="9.778327453789595"><ele>58.5</ele><time>2026-04-11T10:59:50.998Z</time></trkpt><trkpt lat="45.020637937320096" lon="9.778531071957087"><ele>59.0</ele><time>2026-04-11T10:59:51.998Z</time></trkpt><trkpt lat="45.02042512635552" lon="9.77873320809972"><ele>59.0</ele><time>2026-04-11T10:59:52.998Z</time></trkpt><trkpt lat="45.02021464438361" lon="9.778937039202804"><ele>59.0</ele><time>2026-04-11T10:59:53.998Z</time></trkpt><trkpt lat="45.0200097517807" lon="9.779142986100162"><ele>58.0</ele><time>2026-04-11T10:59:54.998Z</time></trkpt><trkpt lat="45.01980219612475" lon="9.779347136742752"><ele>57.0</ele><time>2026-04-11T10:59:55.998Z</time></trkpt><trkpt lat="45.019596514664585" lon="9.779553168442265"><ele>57.0</ele><time>2026-04-11T10:59:56.998Z</time></trkpt><trkpt lat="45.019387961426915" lon="9.779758625359898"><ele>57.0</ele><time>2026-04-11T10:59:58Z</time></trkpt><trkpt lat="45.01917960158152" lon="9.77996358111097"><ele>57.0</ele><time>2026-04-11T10:59:59Z</time></trkpt><trkpt lat="45.01897515713775" lon="9.780169521779955"><ele>57.0</ele><time>2026-04-11T11:00:00Z</time></trkpt><trkpt lat="45.018768320456886" lon="9.780373977516748"><ele>57.0</ele><time>2026-04-11T11:00:01Z</time></trkpt><trkpt lat="45.01856411793804" lon="9.780576717208598"><ele>57.0</ele><time>2026-04-11T11:00:02Z</time></trkpt><trkpt lat="45.018355208266996" lon="9.780782926645172"><ele>57.0</ele><time>2026-04-11T11:00:03Z</time></trkpt><trkpt lat="45.01814884707288" lon="9.780989482789263"><ele>57.0</ele><time>2026-04-11T11:00:04Z</time></trkpt><trkpt lat="45.0179459195711" lon="9.781191671266054"><ele>57.0</ele><time>2026-04-11T11:00:05Z</time></trkpt><trkpt lat="45.01774447188179" lon="9.781395856462545"><ele>57.0</ele><time>2026-04-11T11:00:06Z</time></trkpt><trkpt lat="45.01754184327987" lon="9.781606736767031"><ele>57.0</ele><time>2026-04-11T11:00:07Z</time></trkpt><trkpt lat="45.01734090813562" lon="9.781816140736247"><ele>57.0</ele><time>2026-04-11T11:00:08Z</time></trkpt><trkpt lat="45.017146933295216" lon="9.782021781572041"><ele>57.0</ele><time>2026-04-11T11:00:09Z</time></trkpt><trkpt lat="45.0169564028956" lon="9.782229542759474"><ele>57.0</ele><time>2026-04-11T11:00:10Z</time></trkpt><trkpt lat="45.01676007874747" lon="9.782445416163949"><ele>56.0</ele><time>2026-04-11T11:00:11Z</time></trkpt><trkpt lat="45.01656781524464" lon="9.78265574398876"><ele>55.0</ele><time>2026-04-11T11:00:12Z</time></trkpt><trkpt lat="45.01637222705438" lon="9.782870133695"><ele>55.0</ele><time>2026-04-11T11:00:13Z</time></trkpt><trkpt lat="45.01617637278279" lon="9.783085282203823"><ele>55.0</ele><time>2026-04-11T11:00:14Z</time></trkpt><trkpt lat="45.01598817454813" lon="9.783302665221612"><ele>57.0</ele><time>2026-04-11T11:00:15Z</time></trkpt><trkpt lat="45.01579548569381" lon="9.78352203259385"><ele>59.0</ele><time>2026-04-11T11:00:16Z</time></trkpt><trkpt lat="45.01560272975802" lon="9.783748891346562"><ele>59.0</ele><time>2026-04-11T11:00:17Z</time></trkpt><trkpt lat="45.01541159546353" lon="9.783974457191633"><ele>59.0</ele><time>2026-04-11T11:00:18Z</time></trkpt><trkpt lat="45.01522272004475" lon="9.784200141798046"><ele>59.5</ele><time>2026-04-11T11:00:19Z</time></trkpt><trkpt lat="45.01503329484714" lon="9.784430405891245"><ele>60.0</ele><time>2026-04-11T11:00:20Z</time></trkpt><trkpt lat="45.01484022345744" lon="9.784660780869627"><ele>59.0</ele><time>2026-04-11T11:00:21Z</time></trkpt><trkpt lat="45.01464762269108" lon="9.78488989528071"><ele>58.0</ele><time>2026-04-11T11:00:22Z</time></trkpt><trkpt lat="45.01445409914421" lon="9.785124777771088"><ele>58.0</ele><time>2026-04-11T11:00:23Z</time></trkpt><trkpt lat="45.014261830193234" lon="9.785364164705538"><ele>58.0</ele><time>2026-04-11T11:00:24Z</time></trkpt><trkpt lat="45.01407207284446" lon="9.785613110620707"><ele>57.5</ele><time>2026-04-11T11:00:25Z</time></trkpt><trkpt lat="45.01388512285394" lon="9.785854091182257"><ele>57.0</ele><time>2026-04-11T11:00:26Z</time></trkpt><trkpt lat="45.01369473228845" lon="9.786098190721868"><ele>57.0</ele><time>2026-04-11T11:00:27Z</time></trkpt><trkpt lat="45.013505211091044" lon="9.78634480913077"><ele>57.0</ele><time>2026-04-11T11:00:28Z</time></trkpt><trkpt lat="45.013317619934284" lon="9.786588045966774"><ele>57.5</ele><time>2026-04-11T11:00:29Z</time></trkpt><trkpt lat="45.01313182554657" lon="9.786838394101709"><ele>58.0</ele><time>2026-04-11T11:00:30Z</time></trkpt><trkpt lat="45.01295024267879" lon="9.787092439143102"><ele>58.0</ele><time>2026-04-11T11:00:31Z</time></trkpt><trkpt lat="45.01276928927903" lon="9.787344979876694"><ele>58.0</ele><time>2026-04-11T11:00:32Z</time></trkpt><trkpt lat="45.01258896174253" lon="9.787594808401522"><ele>58.0</ele><time>2026-04-11T11:00:33Z</time></trkpt><trkpt lat="45.01241011371652" lon="9.787850901265774"><ele>58.0</ele><time>2026-04-11T11:00:34Z</time></trkpt><trkpt lat="45.012228009586984" lon="9.788109868836152"><ele>58.0</ele><time>2026-04-11T11:00:35Z</time></trkpt><trkpt lat="45.01204841826296" lon="9.788365725433133"><ele>58.0</ele><time>2026-04-11T11:00:36Z</time></trkpt><trkpt lat="45.0118708893585" lon="9.788621125838839"><ele>58.0</ele><time>2026-04-11T11:00:37Z</time></trkpt><trkpt lat="45.01169245350912" lon="9.788878031549295"><ele>58.0</ele><time>2026-04-11T11:00:38Z</time></trkpt><trkpt lat="45.01151360204877" lon="9.789139528385041"><ele>58.0</ele><time>2026-04-11T11:00:39Z</time></trkpt><trkpt lat="45.011339217039065" lon="9.789406419221775"><ele>58.0</ele><time>2026-04-11T11:00:40Z</time></trkpt><trkpt lat="45.01116380438714" lon="9.789672237556873"><ele>58.0</ele><time>2026-04-11T11:00:41Z</time></trkpt><trkpt lat="45.010990247517704" lon="9.789935292128035"><ele>58.0</ele><time>2026-04-11T11:00:42Z</time></trkpt><trkpt lat="45.01081739249093" lon="9.790204782390882"><ele>59.0</ele><time>2026-04-11T11:00:43Z</time></trkpt><trkpt lat="45.01064537703273" lon="9.79048269948377"><ele>60.0</ele><time>2026-04-11T11:00:44Z</time></trkpt><trkpt lat="45.010475489475255" lon="9.790752864693058"><ele>60.0</ele><time>2026-04-11T11:00:45Z</time></trkpt><trkpt lat="45.010308489665334" lon="9.791023389887817"><ele>60.0</ele><time>2026-04-11T11:00:46Z</time></trkpt><trkpt lat="45.010139391243584" lon="9.791296065046598"><ele>60.5</ele><time>2026-04-11T11:00:46.999Z</time></trkpt><trkpt lat="45.00997193703529" lon="9.791569923877386"><ele>61.0</ele><time>2026-04-11T11:00:47.999Z</time></trkpt><trkpt lat="45.009805275452976" lon="9.791850253013369"><ele>61.5</ele><time>2026-04-11T11:00:48.999Z</time></trkpt><trkpt lat="45.00964007095772" lon="9.792129971635168"><ele>62.0</ele><time>2026-04-11T11:00:49.999Z</time></trkpt><trkpt lat="45.00947631421426" lon="9.79241037847685"><ele>61.0</ele><time>2026-04-11T11:00:50.999Z</time></trkpt><trkpt lat="45.009317044207826" lon="9.792691062747318"><ele>60.0</ele><time>2026-04-11T11:00:51.999Z</time></trkpt><trkpt lat="45.009156700977336" lon="9.79297160509582"><ele>60.0</ele><time>2026-04-11T11:00:52.999Z</time></trkpt><trkpt lat="45.00899558064925" lon="9.79325755343645"><ele>60.0</ele><time>2026-04-11T11:00:53.999Z</time></trkpt><trkpt lat="45.00883252621738" lon="9.793542240151687"><ele>60.0</ele><time>2026-04-11T11:00:54.999Z</time></trkpt><trkpt lat="45.00867400139626" lon="9.79382804441266"><ele>60.0</ele><time>2026-04-11T11:00:55.999Z</time></trkpt><trkpt lat="45.00851569467856" lon="9.794115845645925"><ele>59.5</ele><time>2026-04-11T11:00:56.999Z</time></trkpt><trkpt lat="45.008361099817186" lon="9.79440301074299"><ele>59.0</ele><time>2026-04-11T11:00:57.999Z</time></trkpt><trkpt lat="45.0082062149978" lon="9.794693621725767"><ele>59.0</ele><time>2026-04-11T11:00:58.999Z</time></trkpt><trkpt lat="45.008050511727525" lon="9.794985984444926"><ele>59.0</ele><time>2026-04-11T11:00:59.999Z</time></trkpt><trkpt lat="45.0079021863718" lon="9.79527695530972"><ele>58.0</ele><time>2026-04-11T11:01:00.999Z</time></trkpt><trkpt lat="45.00775000955833" lon="9.795570132062407"><ele>57.0</ele><time>2026-04-11T11:01:01.999Z</time></trkpt><trkpt lat="45.00759956081883" lon="9.795863061377974"><ele>59.0</ele><time>2026-04-11T11:01:02.999Z</time></trkpt><trkpt lat="45.0074534653483" lon="9.796159326601053"><ele>61.0</ele><time>2026-04-11T11:01:03.999Z</time></trkpt><trkpt lat="45.00730804077987" lon="9.796456913704601"><ele>61.0</ele><time>2026-04-11T11:01:04.999Z</time></trkpt><trkpt lat="45.007162711137525" lon="9.796753346610306"><ele>61.0</ele><time>2026-04-11T11:01:05.999Z</time></trkpt><trkpt lat="45.007017246185605" lon="9.797049418659299"><ele>61.0</ele><time>2026-04-11T11:01:06.999Z</time></trkpt><trkpt lat="45.006870258241676" lon="9.797351674166299"><ele>61.0</ele><time>2026-04-11T11:01:07.999Z</time></trkpt><trkpt lat="45.0067286757677" lon="9.79765248481181"><ele>61.0</ele><time>2026-04-11T11:01:08.999Z</time></trkpt><trkpt lat="45.006587308466734" lon="9.797954963305763"><ele>61.0</ele><time>2026-04-11T11:01:09.999Z</time></trkpt><trkpt lat="45.00645222032428" lon="9.798257080754462"><ele>60.5</ele><time>2026-04-11T11:01:10.999Z</time></trkpt><trkpt lat="45.00631956548206" lon="9.79855838889115"><ele>60.0</ele><time>2026-04-11T11:01:11.999Z</time></trkpt><trkpt lat="45.00618398798642" lon="9.798860627080048"><ele>60.0</ele><time>2026-04-11T11:01:12.999Z</time></trkpt><trkpt lat="45.00604592384529" lon="9.799164238307721"><ele>60.0</ele><time>2026-04-11T11:01:13.999Z</time></trkpt><trkpt lat="45.0059108226643" lon="9.799466508082547"><ele>63.0</ele><time>2026-04-11T11:01:14.999Z</time></trkpt><trkpt lat="45.00577951359196" lon="9.799769596615318"><ele>66.0</ele><time>2026-04-11T11:01:15.999Z</time></trkpt><trkpt lat="45.00564574303856" lon="9.800075715563063"><ele>64.0</ele><time>2026-04-11T11:01:16.999Z</time></trkpt><trkpt lat="45.00551662412221" lon="9.800383815245391"><ele>62.0</ele><time>2026-04-11T11:01:17.999Z</time></trkpt><trkpt lat="45.00538993048952" lon="9.800696631415079"><ele>60.0</ele><time>2026-04-11T11:01:18.999Z</time></trkpt><trkpt lat="45.00526122686886" lon="9.801011732525506"><ele>58.0</ele><time>2026-04-11T11:01:19.999Z</time></trkpt><trkpt lat="45.00513764612936" lon="9.801321088956264"><ele>58.0</ele><time>2026-04-11T11:01:20.999Z</time></trkpt><trkpt lat="45.00501124618314" lon="9.801631429349033"><ele>58.0</ele><time>2026-04-11T11:01:21.999Z</time></trkpt><trkpt lat="45.00488613704659" lon="9.801940339311187"><ele>58.5</ele><time>2026-04-11T11:01:22.999Z</time></trkpt><trkpt lat="45.00476697570046" lon="9.802251376727323"><ele>59.0</ele><time>2026-04-11T11:01:23.999Z</time></trkpt><trkpt lat="45.00464968413283" lon="9.802564627704898"><ele>58.0</ele><time>2026-04-11T11:01:24.999Z</time></trkpt><trkpt lat="45.004527974443036" lon="9.80288389519996"><ele>57.0</ele><time>2026-04-11T11:01:25.999Z</time></trkpt><trkpt lat="45.00441381529499" lon="9.803199302272843"><ele>56.5</ele><time>2026-04-11T11:01:26.999Z</time></trkpt><trkpt lat="45.004284091197036" lon="9.803511311032548"><ele>56.0</ele><time>2026-04-11T11:01:27.999Z</time></trkpt><trkpt lat="45.0041560215073" lon="9.80383441832971"><ele>56.0</ele><time>2026-04-11T11:01:28.999Z</time></trkpt><trkpt lat="45.00403219692767" lon="9.80415333566322"><ele>56.0</ele><time>2026-04-11T11:01:29.999Z</time></trkpt><trkpt lat="45.00391171870178" lon="9.80446961184439"><ele>56.0</ele><time>2026-04-11T11:01:30.999Z</time></trkpt><trkpt lat="45.003790568539294" lon="9.804792792966696"><ele>56.0</ele><time>2026-04-11T11:01:31.999Z</time></trkpt><trkpt lat="45.00367268072186" lon="9.8051182363003"><ele>55.5</ele><time>2026-04-11T11:01:32.999Z</time></trkpt><trkpt lat="45.00355496874699" lon="9.805444958476803"><ele>55.0</ele><time>2026-04-11T11:01:33.999Z</time></trkpt><trkpt lat="45.003436415801225" lon="9.805769346620252"><ele>54.5</ele><time>2026-04-11T11:01:34.999Z</time></trkpt><trkpt lat="45.00331740570038" lon="9.806094096181429"><ele>54.0</ele><time>2026-04-11T11:01:35.999Z</time></trkpt><trkpt lat="45.0031913448408" lon="9.806424189904556"><ele>54.0</ele><time>2026-04-11T11:01:36.999Z</time></trkpt><trkpt lat="45.0030577698044" lon="9.80675019048544"><ele>54.0</ele><time>2026-04-11T11:01:37.999Z</time></trkpt><trkpt lat="45.00291865523006" lon="9.807073013597584"><ele>55.0</ele><time>2026-04-11T11:01:38.999Z</time></trkpt><trkpt lat="45.00278100692755" lon="9.80739552748052"><ele>56.0</ele><time>2026-04-11T11:01:39.999Z</time></trkpt><trkpt lat="45.002646884450556" lon="9.807725857369828"><ele>57.0</ele><time>2026-04-11T11:01:40.999Z</time></trkpt><trkpt lat="45.002515557163974" lon="9.808061060966518"><ele>58.0</ele><time>2026-04-11T11:01:41.999Z</time></trkpt><trkpt lat="45.002384765940256" lon="9.808397785993112"><ele>57.0</ele><time>2026-04-11T11:01:42.999Z</time></trkpt><trkpt lat="45.002253043416644" lon="9.808741071022286"><ele>56.0</ele><time>2026-04-11T11:01:43.999Z</time></trkpt><trkpt lat="45.00211879843117" lon="9.8090873018506"><ele>55.5</ele><time>2026-04-11T11:01:44.999Z</time></trkpt><trkpt lat="45.00198222417245" lon="9.80942914089356"><ele>55.0</ele><time>2026-04-11T11:01:45.999Z</time></trkpt><trkpt lat="45.001858226489986" lon="9.809754225684248"><ele>55.0</ele><time>2026-04-11T11:01:46.999Z</time></trkpt><trkpt lat="45.001727208698604" lon="9.81009482905533"><ele>55.0</ele><time>2026-04-11T11:01:47.999Z</time></trkpt><trkpt lat="45.00159658983511" lon="9.81043018011259"><ele>55.5</ele><time>2026-04-11T11:01:48.998Z</time></trkpt><trkpt lat="45.00146421878859" lon="9.810769311747737"><ele>56.0</ele><time>2026-04-11T11:01:49.998Z</time></trkpt><trkpt lat="45.001332944372855" lon="9.811106930941275"><ele>56.0</ele><time>2026-04-11T11:01:50.998Z</time></trkpt><trkpt lat="45.001200969110585" lon="9.81144170171745"><ele>56.0</ele><time>2026-04-11T11:01:51.998Z</time></trkpt><trkpt lat="45.00107197148135" lon="9.811776336324268"><ele>56.0</ele><time>2026-04-11T11:01:52.998Z</time></trkpt><trkpt lat="45.000941039004594" lon="9.812112135438365"><ele>56.0</ele><time>2026-04-11T11:01:53.998Z</time></trkpt><trkpt lat="45.00081297468022" lon="9.812448004796376"><ele>56.5</ele><time>2026-04-11T11:01:54.998Z</time></trkpt><trkpt lat="45.00068363902826" lon="9.812780544980802"><ele>57.0</ele><time>2026-04-11T11:01:55.998Z</time></trkpt><trkpt lat="45.000553637075015" lon="9.81311333836886"><ele>57.0</ele><time>2026-04-11T11:01:56.998Z</time></trkpt><trkpt lat="45.00042486249652" lon="9.813446032026352"><ele>57.0</ele><time>2026-04-11T11:01:57.998Z</time></trkpt><trkpt lat="45.0002948424813" lon="9.81377855119115"><ele>57.5</ele><time>2026-04-11T11:01:58.998Z</time></trkpt><trkpt lat="45.00016608499891" lon="9.814112760981661"><ele>58.0</ele><time>2026-04-11T11:01:59.998Z</time></trkpt><trkpt lat="45.00003709405914" lon="9.814447394968374"><ele>58.0</ele><time>2026-04-11T11:02:00.998Z</time></trkpt><trkpt lat="44.999905461077105" lon="9.814776545160003"><ele>58.0</ele><time>2026-04-11T11:02:01.998Z</time></trkpt><trkpt lat="44.99977716018067" lon="9.81510822966165"><ele>57.5</ele><time>2026-04-11T11:02:02.998Z</time></trkpt><trkpt lat="44.99965079708116" lon="9.8154422693964"><ele>57.0</ele><time>2026-04-11T11:02:04Z</time></trkpt><trkpt lat="44.99952311743104" lon="9.815771891349085"><ele>56.5</ele><time>2026-04-11T11:02:05Z</time></trkpt><trkpt lat="44.99939486604912" lon="9.816101033203413"><ele>56.0</ele><time>2026-04-11T11:02:06Z</time></trkpt><trkpt lat="44.99926975727062" lon="9.816432591825897"><ele>57.0</ele><time>2026-04-11T11:02:07Z</time></trkpt><trkpt lat="44.999146492680076" lon="9.816763800589266"><ele>58.0</ele><time>2026-04-11T11:02:08Z</time></trkpt><trkpt lat="44.99901857085464" lon="9.81709227937273"><ele>58.0</ele><time>2026-04-11T11:02:09Z</time></trkpt><trkpt lat="44.998891410599505" lon="9.817412115158726"><ele>58.0</ele><time>2026-04-11T11:02:10Z</time></trkpt><trkpt lat="44.99876249904868" lon="9.817736831504464"><ele>58.0</ele><time>2026-04-11T11:02:11Z</time></trkpt><trkpt lat="44.99863633075882" lon="9.818062633954076"><ele>58.0</ele><time>2026-04-11T11:02:12Z</time></trkpt><trkpt lat="44.998510548326834" lon="9.818382722467923"><ele>58.0</ele><time>2026-04-11T11:02:13Z</time></trkpt><trkpt lat="44.99838370796329" lon="9.818705405735555"><ele>58.0</ele><time>2026-04-11T11:02:14Z</time></trkpt><trkpt lat="44.998259652252756" lon="9.8190349371148"><ele>58.5</ele><time>2026-04-11T11:02:15Z</time></trkpt><trkpt lat="44.998133920717436" lon="9.819362387381393"><ele>59.0</ele><time>2026-04-11T11:02:16Z</time></trkpt><trkpt lat="44.998007972042366" lon="9.819685575115926"><ele>59.0</ele><time>2026-04-11T11:02:17Z</time></trkpt><trkpt lat="44.99788302289486" lon="9.820016147264923"><ele>59.0</ele><time>2026-04-11T11:02:18Z</time></trkpt><trkpt lat="44.99775703677904" lon="9.820342925655783"><ele>59.0</ele><time>2026-04-11T11:02:19Z</time></trkpt><trkpt lat="44.997626606117336" lon="9.820666454674221"><ele>59.0</ele><time>2026-04-11T11:02:20Z</time></trkpt><trkpt lat="44.99750017058844" lon="9.820987169251646"><ele>59.0</ele><time>2026-04-11T11:02:21Z</time></trkpt><trkpt lat="44.99737777741982" lon="9.821312406702585"><ele>59.0</ele><time>2026-04-11T11:02:22Z</time></trkpt><trkpt lat="44.99725266439932" lon="9.821641476150738"><ele>58.5</ele><time>2026-04-11T11:02:23Z</time></trkpt><trkpt lat="44.99712950887142" lon="9.821960877947495"><ele>58.0</ele><time>2026-04-11T11:02:24Z</time></trkpt><trkpt lat="44.997002438596574" lon="9.82227958811148"><ele>58.0</ele><time>2026-04-11T11:02:25Z</time></trkpt><trkpt lat="44.99687305329997" lon="9.82260220757126"><ele>58.0</ele><time>2026-04-11T11:02:26Z</time></trkpt><trkpt lat="44.996746016383895" lon="9.822920732594561"><ele>58.5</ele><time>2026-04-11T11:02:27Z</time></trkpt><trkpt lat="44.9966205153651" lon="9.823238695952982"><ele>59.0</ele><time>2026-04-11T11:02:28Z</time></trkpt><trkpt lat="44.996492251446455" lon="9.823563358318168"><ele>59.5</ele><time>2026-04-11T11:02:29Z</time></trkpt><trkpt lat="44.996366540551925" lon="9.823888068492755"><ele>60.0</ele><time>2026-04-11T11:02:30Z</time></trkpt><trkpt lat="44.9962414519774" lon="9.824214403649698"><ele>58.5</ele><time>2026-04-11T11:02:31Z</time></trkpt><trkpt lat="44.99611877197438" lon="9.8245448506833"><ele>57.0</ele><time>2026-04-11T11:02:32Z</time></trkpt><trkpt lat="44.99599058124645" lon="9.824876847239876"><ele>56.0</ele><time>2026-04-11T11:02:33Z</time></trkpt><trkpt lat="44.99586121535925" lon="9.825203562263338"><ele>55.0</ele><time>2026-04-11T11:02:34Z</time></trkpt><trkpt lat="44.99573423293881" lon="9.82553418852946"><ele>55.0</ele><time>2026-04-11T11:02:35Z</time></trkpt><trkpt lat="44.99560807815951" lon="9.825867386607104"><ele>55.0</ele><time>2026-04-11T11:02:36Z</time></trkpt><trkpt lat="44.995480870392356" lon="9.82619915506846"><ele>55.0</ele><time>2026-04-11T11:02:37Z</time></trkpt><trkpt lat="44.995351582003124" lon="9.826531117441787"><ele>55.0</ele><time>2026-04-11T11:02:38Z</time></trkpt><trkpt lat="44.99522297015456" lon="9.826870120290282"><ele>56.0</ele><time>2026-04-11T11:02:39Z</time></trkpt><trkpt lat="44.99508956672128" lon="9.827203250304146"><ele>57.0</ele><time>2026-04-11T11:02:40Z</time></trkpt><trkpt lat="44.99495921321382" lon="9.827533949153143"><ele>57.5</ele><time>2026-04-11T11:02:41Z</time></trkpt><trkpt lat="44.99483063380847" lon="9.827865267212243"><ele>58.0</ele><time>2026-04-11T11:02:42Z</time></trkpt><trkpt lat="44.99470145357425" lon="9.82819827248688"><ele>58.5</ele><time>2026-04-11T11:02:43Z</time></trkpt><trkpt lat="44.99457684777908" lon="9.828533945048084"><ele>59.0</ele><time>2026-04-11T11:02:44Z</time></trkpt><trkpt lat="44.994450704466416" lon="9.828866206246953"><ele>59.0</ele><time>2026-04-11T11:02:45Z</time></trkpt><trkpt lat="44.99432253531332" lon="9.829199006361302"><ele>59.0</ele><time>2026-04-11T11:02:46Z</time></trkpt><trkpt lat="44.99419063958418" lon="9.829528503390396"><ele>58.5</ele><time>2026-04-11T11:02:47Z</time></trkpt><trkpt lat="44.99406135232895" lon="9.829853705880621"><ele>58.0</ele><time>2026-04-11T11:02:48Z</time></trkpt><trkpt lat="44.99393407978659" lon="9.830184750084628"><ele>56.5</ele><time>2026-04-11T11:02:49Z</time></trkpt><trkpt lat="44.99380588774789" lon="9.830511540832333"><ele>55.0</ele><time>2026-04-11T11:02:50Z</time></trkpt><trkpt lat="44.99367710613899" lon="9.830837333882666"><ele>56.0</ele><time>2026-04-11T11:02:50.999Z</time></trkpt><trkpt lat="44.99354949461895" lon="9.831161529594132"><ele>57.0</ele><time>2026-04-11T11:02:51.999Z</time></trkpt><trkpt lat="44.993422701309676" lon="9.83149456530823"><ele>58.0</ele><time>2026-04-11T11:02:52.999Z</time></trkpt><trkpt lat="44.99329695143086" lon="9.831819883414871"><ele>59.0</ele><time>2026-04-11T11:02:53.999Z</time></trkpt><trkpt lat="44.99317082951051" lon="9.83214422981745"><ele>59.0</ele><time>2026-04-11T11:02:54.999Z</time></trkpt><trkpt lat="44.99304320996355" lon="9.832475025505484"><ele>59.0</ele><time>2026-04-11T11:02:55.999Z</time></trkpt><trkpt lat="44.992918932310424" lon="9.832798083720226"><ele>58.0</ele><time>2026-04-11T11:02:56.999Z</time></trkpt><trkpt lat="44.99279376672268" lon="9.833120239688071"><ele>57.0</ele><time>2026-04-11T11:02:57.999Z</time></trkpt><trkpt lat="44.99267269710533" lon="9.833433562533775"><ele>57.0</ele><time>2026-04-11T11:02:58.999Z</time></trkpt><trkpt lat="44.99254991896584" lon="9.833754923287442"><ele>57.0</ele><time>2026-04-11T11:02:59.999Z</time></trkpt><trkpt lat="44.99242556954423" lon="9.834077279567783"><ele>56.5</ele><time>2026-04-11T11:03:00.999Z</time></trkpt><trkpt lat="44.99229977571006" lon="9.834393138224007"><ele>56.0</ele><time>2026-04-11T11:03:01.999Z</time></trkpt><trkpt lat="44.99217614770256" lon="9.834708272038942"><ele>56.0</ele><time>2026-04-11T11:03:02.999Z</time></trkpt><trkpt lat="44.99205060549115" lon="9.835025365133264"><ele>56.0</ele><time>2026-04-11T11:03:03.999Z</time></trkpt><trkpt lat="44.99192818057101" lon="9.835344574482967"><ele>56.0</ele><time>2026-04-11T11:03:04.999Z</time></trkpt><trkpt lat="44.991803057367164" lon="9.835663169411815"><ele>56.0</ele><time>2026-04-11T11:03:05.999Z</time></trkpt><trkpt lat="44.991681053535125" lon="9.835984097660702"><ele>57.0</ele><time>2026-04-11T11:03:06.999Z</time></trkpt><trkpt lat="44.99156145094632" lon="9.83629890583016"><ele>58.0</ele><time>2026-04-11T11:03:07.999Z</time></trkpt><trkpt lat="44.99143659569019" lon="9.836619145661484"><ele>57.5</ele><time>2026-04-11T11:03:08.999Z</time></trkpt><trkpt lat="44.991311302584926" lon="9.836938971768964"><ele>57.0</ele><time>2026-04-11T11:03:09.999Z</time></trkpt><trkpt lat="44.99118623702444" lon="9.83725451556934"><ele>57.0</ele><time>2026-04-11T11:03:10.999Z</time></trkpt><trkpt lat="44.99106383276347" lon="9.837570709686815"><ele>57.0</ele><time>2026-04-11T11:03:11.999Z</time></trkpt><trkpt lat="44.99094199374893" lon="9.837888264193152"><ele>56.5</ele><time>2026-04-11T11:03:12.999Z</time></trkpt><trkpt lat="44.99082241042486" lon="9.838206362905211"><ele>56.0</ele><time>2026-04-11T11:03:13.999Z</time></trkpt><trkpt lat="44.99069981456048" lon="9.838525066017747"><ele>56.0</ele><time>2026-04-11T11:03:14.999Z</time></trkpt><trkpt lat="44.99057610217405" lon="9.838835677302262"><ele>56.0</ele><time>2026-04-11T11:03:15.999Z</time></trkpt><trkpt lat="44.99045015862345" lon="9.839150357648627"><ele>56.5</ele><time>2026-04-11T11:03:16.999Z</time></trkpt><trkpt lat="44.99032857939844" lon="9.839464290084662"><ele>57.0</ele><time>2026-04-11T11:03:17.999Z</time></trkpt><trkpt lat="44.990204817013726" lon="9.839775015316526"><ele>57.0</ele><time>2026-04-11T11:03:18.999Z</time></trkpt><trkpt lat="44.9900820353458" lon="9.840083160319274"><ele>57.0</ele><time>2026-04-11T11:03:19.999Z</time></trkpt><trkpt lat="44.98996205665668" lon="9.840395716268754"><ele>57.0</ele><time>2026-04-11T11:03:20.999Z</time></trkpt><trkpt lat="44.98984343766853" lon="9.840709630932617"><ele>57.0</ele><time>2026-04-11T11:03:21.999Z</time></trkpt><trkpt lat="44.98972383914055" lon="9.841020731650026"><ele>57.0</ele><time>2026-04-11T11:03:22.999Z</time></trkpt><trkpt lat="44.98960126565705" lon="9.841336041470125"><ele>57.0</ele><time>2026-04-11T11:03:23.999Z</time></trkpt><trkpt lat="44.98948069252215" lon="9.841648989435004"><ele>56.5</ele><time>2026-04-11T11:03:24.999Z</time></trkpt><trkpt lat="44.98936325240155" lon="9.841960180234894"><ele>56.0</ele><time>2026-04-11T11:03:25.999Z</time></trkpt><trkpt lat="44.98924067563041" lon="9.842268938874183"><ele>56.5</ele><time>2026-04-11T11:03:26.999Z</time></trkpt><trkpt lat="44.989121361838556" lon="9.842582183250597"><ele>57.0</ele><time>2026-04-11T11:03:27.999Z</time></trkpt><trkpt lat="44.9890006235383" lon="9.842894267225866"><ele>57.0</ele><time>2026-04-11T11:03:28.999Z</time></trkpt><trkpt lat="44.98887780744158" lon="9.843204040883588"><ele>57.0</ele><time>2026-04-11T11:03:29.999Z</time></trkpt><trkpt lat="44.9887551719583" lon="9.843513899285954"><ele>57.0</ele><time>2026-04-11T11:03:30.999Z</time></trkpt><trkpt lat="44.988632052239396" lon="9.843823920388305"><ele>57.0</ele><time>2026-04-11T11:03:31.999Z</time></trkpt><trkpt lat="44.98851289010075" lon="9.8441341085109"><ele>57.0</ele><time>2026-04-11T11:03:32.999Z</time></trkpt><trkpt lat="44.988392434678325" lon="9.844447349300838"><ele>57.0</ele><time>2026-04-11T11:03:33.999Z</time></trkpt><trkpt lat="44.98826985520868" lon="9.844764169260769"><ele>57.0</ele><time>2026-04-11T11:03:34.999Z</time></trkpt><trkpt lat="44.98814614625463" lon="9.845077192994104"><ele>57.0</ele><time>2026-04-11T11:03:35.999Z</time></trkpt><trkpt lat="44.98802524589816" lon="9.845387527038188"><ele>57.0</ele><time>2026-04-11T11:03:36.999Z</time></trkpt><trkpt lat="44.98789603643285" lon="9.845700901249991"><ele>57.0</ele><time>2026-04-11T11:03:37.999Z</time></trkpt><trkpt lat="44.9877670541251" lon="9.846014732803214"><ele>57.0</ele><time>2026-04-11T11:03:38.999Z</time></trkpt><trkpt lat="44.987639359797456" lon="9.846330138268785"><ele>57.0</ele><time>2026-04-11T11:03:39.999Z</time></trkpt><trkpt lat="44.987513865989456" lon="9.846646111002284"><ele>56.5</ele><time>2026-04-11T11:03:40.999Z</time></trkpt><trkpt lat="44.987381773688824" lon="9.84696312866581"><ele>56.0</ele><time>2026-04-11T11:03:41.999Z</time></trkpt><trkpt lat="44.98725318039228" lon="9.847279035794495"><ele>56.0</ele><time>2026-04-11T11:03:42.999Z</time></trkpt><trkpt lat="44.98711722187209" lon="9.847596818376585"><ele>56.0</ele><time>2026-04-11T11:03:43.999Z</time></trkpt><trkpt lat="44.986984347813845" lon="9.847914437715513"><ele>56.0</ele><time>2026-04-11T11:03:44.999Z</time></trkpt><trkpt lat="44.98685464752314" lon="9.84822949644598"><ele>56.0</ele><time>2026-04-11T11:03:45.999Z</time></trkpt><trkpt lat="44.98672103766017" lon="9.848544135733633"><ele>58.5</ele><time>2026-04-11T11:03:46.999Z</time></trkpt><trkpt lat="44.98658616224091" lon="9.848864546931155"><ele>61.0</ele><time>2026-04-11T11:03:47.999Z</time></trkpt><trkpt lat="44.986452856563254" lon="9.849182648595907"><ele>61.0</ele><time>2026-04-11T11:03:48.999Z</time></trkpt><trkpt lat="44.9863144729806" lon="9.849504832655315"><ele>61.0</ele><time>2026-04-11T11:03:49.999Z</time></trkpt><trkpt lat="44.9861758523123" lon="9.84982610518474"><ele>58.0</ele><time>2026-04-11T11:03:50.999Z</time></trkpt><trkpt lat="44.986038651272445" lon="9.850142552749135"><ele>55.0</ele><time>2026-04-11T11:03:51.998Z</time></trkpt><trkpt lat="44.98590438611265" lon="9.850461532182871"><ele>55.5</ele><time>2026-04-11T11:03:52.998Z</time></trkpt><trkpt lat="44.985770844570574" lon="9.850782082901873"><ele>56.0</ele><time>2026-04-11T11:03:53.998Z</time></trkpt><trkpt lat="44.98563624333644" lon="9.851101530547757"><ele>56.0</ele><time>2026-04-11T11:03:54.998Z</time></trkpt><trkpt lat="44.98549852250214" lon="9.851421650916297"><ele>56.0</ele><time>2026-04-11T11:03:55.998Z</time></trkpt><trkpt lat="44.98536009362244" lon="9.851741981002638"><ele>56.0</ele><time>2026-04-11T11:03:56.998Z</time></trkpt><trkpt lat="44.9852233067963" lon="9.852060067287594"><ele>56.0</ele><time>2026-04-11T11:03:57.998Z</time></trkpt><trkpt lat="44.9850888453138" lon="9.852378374270087"><ele>56.5</ele><time>2026-04-11T11:03:58.998Z</time></trkpt><trkpt lat="44.98495336251751" lon="9.852694538660018"><ele>57.0</ele><time>2026-04-11T11:03:59.998Z</time></trkpt><trkpt lat="44.98482121010811" lon="9.853013405529232"><ele>57.0</ele><time>2026-04-11T11:04:00.998Z</time></trkpt><trkpt lat="44.984688133670964" lon="9.853332691978249"><ele>57.0</ele><time>2026-04-11T11:04:01.998Z</time></trkpt><trkpt lat="44.984555750733875" lon="9.85364050995696"><ele>56.5</ele><time>2026-04-11T11:04:02.998Z</time></trkpt><trkpt lat="44.98442208856285" lon="9.853954884749175"><ele>56.0</ele><time>2026-04-11T11:04:03.998Z</time></trkpt><trkpt lat="44.984291206015186" lon="9.854268479973321"><ele>57.0</ele><time>2026-04-11T11:04:04.998Z</time></trkpt><trkpt lat="44.984158234118965" lon="9.854575395562103"><ele>58.0</ele><time>2026-04-11T11:04:05.998Z</time></trkpt><trkpt lat="44.98402573316856" lon="9.854882699780761"><ele>58.5</ele><time>2026-04-11T11:04:06.998Z</time></trkpt><trkpt lat="44.9838971948826" lon="9.855189726308215"><ele>59.0</ele><time>2026-04-11T11:04:07.998Z</time></trkpt><trkpt lat="44.98376935402132" lon="9.855495923659056"><ele>59.0</ele><time>2026-04-11T11:04:08.998Z</time></trkpt><trkpt lat="44.983644643133445" lon="9.855801415678417"><ele>59.0</ele><time>2026-04-11T11:04:10Z</time></trkpt><trkpt lat="44.983516720126424" lon="9.856110799423398"><ele>57.5</ele><time>2026-04-11T11:04:11Z</time></trkpt><trkpt lat="44.98338519073385" lon="9.856417751935652"><ele>56.0</ele><time>2026-04-11T11:04:12Z</time></trkpt><trkpt lat="44.983258325625556" lon="9.856729523755247"><ele>56.5</ele><time>2026-04-11T11:04:13Z</time></trkpt><trkpt lat="44.98313840767434" lon="9.857039500450066"><ele>57.0</ele><time>2026-04-11T11:04:14Z</time></trkpt><trkpt lat="44.98301377187567" lon="9.8573423438824"><ele>57.0</ele><time>2026-04-11T11:04:15Z</time></trkpt><trkpt lat="44.982888581861225" lon="9.857636937760919"><ele>57.0</ele><time>2026-04-11T11:04:16Z</time></trkpt><trkpt lat="44.98276109456156" lon="9.857940474222032"><ele>57.0</ele><time>2026-04-11T11:04:17Z</time></trkpt><trkpt lat="44.9826369922306" lon="9.858241609680405"><ele>57.0</ele><time>2026-04-11T11:04:18Z</time></trkpt><trkpt lat="44.98250434839638" lon="9.858547269300947"><ele>57.0</ele><time>2026-04-11T11:04:19Z</time></trkpt><trkpt lat="44.982374287472055" lon="9.858856660683069"><ele>57.0</ele><time>2026-04-11T11:04:20Z</time></trkpt><trkpt lat="44.98224207742312" lon="9.859168280779278"><ele>56.5</ele><time>2026-04-11T11:04:21Z</time></trkpt><trkpt lat="44.98211573468986" lon="9.859478586437913"><ele>56.0</ele><time>2026-04-11T11:04:22Z</time></trkpt><trkpt lat="44.98199184441266" lon="9.85979517546064"><ele>55.5</ele><time>2026-04-11T11:04:23Z</time></trkpt><trkpt lat="44.98186568726436" lon="9.86012016032663"><ele>55.0</ele><time>2026-04-11T11:04:24Z</time></trkpt><trkpt lat="44.98173543845561" lon="9.86044054137098"><ele>55.5</ele><time>2026-04-11T11:04:25Z</time></trkpt><trkpt lat="44.981602656175745" lon="9.860760325930881"><ele>56.0</ele><time>2026-04-11T11:04:26Z</time></trkpt><trkpt lat="44.981468413805985" lon="9.86107580352503"><ele>56.0</ele><time>2026-04-11T11:04:27Z</time></trkpt><trkpt lat="44.9813355511436" lon="9.861390226348759"><ele>56.0</ele><time>2026-04-11T11:04:28Z</time></trkpt><trkpt lat="44.9812018498386" lon="9.861703775541084"><ele>56.0</ele><time>2026-04-11T11:04:29Z</time></trkpt><trkpt lat="44.98107015859465" lon="9.862018771672208"><ele>56.0</ele><time>2026-04-11T11:04:30Z</time></trkpt><trkpt lat="44.98093635251013" lon="9.862334441724762"><ele>55.0</ele><time>2026-04-11T11:04:31Z</time></trkpt><trkpt lat="44.98080261527603" lon="9.862653441945048"><ele>54.0</ele><time>2026-04-11T11:04:32Z</time></trkpt><trkpt lat="44.980668007143834" lon="9.862973137116711"><ele>54.0</ele><time>2026-04-11T11:04:33Z</time></trkpt><trkpt lat="44.98053169001059" lon="9.863295155615697"><ele>54.0</ele><time>2026-04-11T11:04:34Z</time></trkpt><trkpt lat="44.98039410176829" lon="9.863618556717961"><ele>56.0</ele><time>2026-04-11T11:04:35Z</time></trkpt><trkpt lat="44.98025056772763" lon="9.863938158520043"><ele>58.0</ele><time>2026-04-11T11:04:36Z</time></trkpt><trkpt lat="44.980115698099084" lon="9.864247466046352"><ele>57.5</ele><time>2026-04-11T11:04:37Z</time></trkpt><trkpt lat="44.97997788093838" lon="9.864576294212"><ele>57.0</ele><time>2026-04-11T11:04:38Z</time></trkpt><trkpt lat="44.97983832415027" lon="9.864906021072379"><ele>57.0</ele><time>2026-04-11T11:04:39Z</time></trkpt><trkpt lat="44.97969817683644" lon="9.86523538639292"><ele>57.0</ele><time>2026-04-11T11:04:40Z</time></trkpt><trkpt lat="44.979557846865816" lon="9.865562618848964"><ele>57.0</ele><time>2026-04-11T11:04:41Z</time></trkpt><trkpt lat="44.97941577632162" lon="9.865894811419206"><ele>57.0</ele><time>2026-04-11T11:04:42Z</time></trkpt><trkpt lat="44.979269206426586" lon="9.866222695757711"><ele>56.5</ele><time>2026-04-11T11:04:43Z</time></trkpt><trkpt lat="44.97912203944137" lon="9.866546351738132"><ele>56.0</ele><time>2026-04-11T11:04:44Z</time></trkpt><trkpt lat="44.978978062205" lon="9.866873409680945"><ele>56.0</ele><time>2026-04-11T11:04:45Z</time></trkpt><trkpt lat="44.978847810154136" lon="9.86719990482289"><ele>56.0</ele><time>2026-04-11T11:04:46Z</time></trkpt><trkpt lat="44.978710615065204" lon="9.867518964315012"><ele>54.5</ele><time>2026-04-11T11:04:47Z</time></trkpt><trkpt lat="44.97857134899092" lon="9.867827969373108"><ele>53.0</ele><time>2026-04-11T11:04:48Z</time></trkpt><trkpt lat="44.9784422503442" lon="9.868127598460118"><ele>53.5</ele><time>2026-04-11T11:04:49Z</time></trkpt><trkpt lat="44.97831154053509" lon="9.868430020883089"><ele>54.0</ele><time>2026-04-11T11:04:50Z</time></trkpt><trkpt lat="44.978180818707926" lon="9.868730340080356"><ele>54.0</ele><time>2026-04-11T11:04:51Z</time></trkpt><trkpt lat="44.9780505929303" lon="9.86903272118077"><ele>54.0</ele><time>2026-04-11T11:04:52Z</time></trkpt><trkpt lat="44.977919160630876" lon="9.869337910104594"><ele>54.0</ele><time>2026-04-11T11:04:53Z</time></trkpt><trkpt lat="44.97779008140143" lon="9.869643218222112"><ele>54.0</ele><time>2026-04-11T11:04:53.999Z</time></trkpt><trkpt lat="44.97765866592444" lon="9.86994876470535"><ele>53.0</ele><time>2026-04-11T11:04:54.999Z</time></trkpt><trkpt lat="44.97753208544577" lon="9.870253406917952"><ele>52.0</ele><time>2026-04-11T11:04:55.999Z</time></trkpt><trkpt lat="44.97740463927041" lon="9.870561957885789"><ele>54.0</ele><time>2026-04-11T11:04:56.999Z</time></trkpt><trkpt lat="44.97727504896835" lon="9.870867640890964"><ele>56.0</ele><time>2026-04-11T11:04:57.999Z</time></trkpt><trkpt lat="44.97713845074511" lon="9.871171298325876"><ele>56.5</ele><time>2026-04-11T11:04:58.999Z</time></trkpt><trkpt lat="44.97700626198881" lon="9.871482412195203"><ele>57.0</ele><time>2026-04-11T11:04:59.999Z</time></trkpt><trkpt lat="44.97687887172472" lon="9.871790089633295"><ele>57.0</ele><time>2026-04-11T11:05:00.999Z</time></trkpt><trkpt lat="44.97674928135827" lon="9.87209984866121"><ele>57.0</ele><time>2026-04-11T11:05:01.999Z</time></trkpt><trkpt lat="44.97661264487252" lon="9.872410141389285"><ele>58.0</ele><time>2026-04-11T11:05:02.999Z</time></trkpt><trkpt lat="44.97648033786692" lon="9.87271976524126"><ele>59.0</ele><time>2026-04-11T11:05:03.999Z</time></trkpt><trkpt lat="44.9763529149547" lon="9.873028589991998"><ele>59.0</ele><time>2026-04-11T11:05:04.999Z</time></trkpt><trkpt lat="44.97622027227699" lon="9.873334874582515"><ele>59.0</ele><time>2026-04-11T11:05:05.999Z</time></trkpt><trkpt lat="44.976089866856945" lon="9.873642885509312"><ele>60.0</ele><time>2026-04-11T11:05:06.999Z</time></trkpt><trkpt lat="44.97595729386394" lon="9.873950105931254"><ele>61.0</ele><time>2026-04-11T11:05:07.999Z</time></trkpt><trkpt lat="44.97582304765885" lon="9.87425641715315"><ele>60.0</ele><time>2026-04-11T11:05:08.999Z</time></trkpt><trkpt lat="44.97569033731974" lon="9.874564879350233"><ele>59.0</ele><time>2026-04-11T11:05:09.999Z</time></trkpt><trkpt lat="44.97555967519389" lon="9.874873295614766"><ele>58.5</ele><time>2026-04-11T11:05:10.999Z</time></trkpt><trkpt lat="44.975428195161264" lon="9.875186508881654"><ele>58.0</ele><time>2026-04-11T11:05:11.999Z</time></trkpt><trkpt lat="44.9752958777591" lon="9.875495985938668"><ele>58.0</ele><time>2026-04-11T11:05:12.999Z</time></trkpt><trkpt lat="44.975163840185886" lon="9.875808372371909"><ele>58.0</ele><time>2026-04-11T11:05:13.999Z</time></trkpt><trkpt lat="44.97502724679798" lon="9.876123520810006"><ele>58.0</ele><time>2026-04-11T11:05:14.999Z</time></trkpt><trkpt lat="44.974894761712775" lon="9.876434135360991"><ele>58.0</ele><time>2026-04-11T11:05:15.999Z</time></trkpt><trkpt lat="44.974764080275165" lon="9.876748028707343"><ele>57.5</ele><time>2026-04-11T11:05:16.999Z</time></trkpt><trkpt lat="44.97463433720574" lon="9.87706290810108"><ele>57.0</ele><time>2026-04-11T11:05:17.999Z</time></trkpt><trkpt lat="44.974501940519744" lon="9.877381480893895"><ele>57.0</ele><time>2026-04-11T11:05:18.999Z</time></trkpt><trkpt lat="44.97436804212567" lon="9.877699631505392"><ele>57.0</ele><time>2026-04-11T11:05:19.999Z</time></trkpt><trkpt lat="44.974231766965154" lon="9.878020759124864"><ele>57.0</ele><time>2026-04-11T11:05:20.999Z</time></trkpt><trkpt lat="44.97409462376926" lon="9.87833933300418"><ele>57.0</ele><time>2026-04-11T11:05:21.999Z</time></trkpt><trkpt lat="44.97395393652098" lon="9.878654612335"><ele>57.0</ele><time>2026-04-11T11:05:22.999Z</time></trkpt><trkpt lat="44.97381832731242" lon="9.878972029693182"><ele>57.0</ele><time>2026-04-11T11:05:23.999Z</time></trkpt><trkpt lat="44.97368567974533" lon="9.87928641803978"><ele>56.5</ele><time>2026-04-11T11:05:24.999Z</time></trkpt><trkpt lat="44.97355292378291" lon="9.879604465825361"><ele>56.0</ele><time>2026-04-11T11:05:25.999Z</time></trkpt><trkpt lat="44.97341921559497" lon="9.879922743390814"><ele>55.5</ele><time>2026-04-11T11:05:26.999Z</time></trkpt><trkpt lat="44.97328616247059" lon="9.88023395600498"><ele>55.0</ele><time>2026-04-11T11:05:27.999Z</time></trkpt><trkpt lat="44.97315242327784" lon="9.880546728722672"><ele>55.0</ele><time>2026-04-11T11:05:28.999Z</time></trkpt><trkpt lat="44.97301666156998" lon="9.880859287303844"><ele>55.0</ele><time>2026-04-11T11:05:29.999Z</time></trkpt><trkpt lat="44.972880795461684" lon="9.881175761536294"><ele>55.5</ele><time>2026-04-11T11:05:30.999Z</time></trkpt><trkpt lat="44.97275269041919" lon="9.88148755937868"><ele>56.0</ele><time>2026-04-11T11:05:31.999Z</time></trkpt><trkpt lat="44.972621945750376" lon="9.88179943264773"><ele>56.5</ele><time>2026-04-11T11:05:32.999Z</time></trkpt><trkpt lat="44.972489284026636" lon="9.882112186820667"><ele>57.0</ele><time>2026-04-11T11:05:33.999Z</time></trkpt><trkpt lat="44.97235561431328" lon="9.882423902116642"><ele>57.0</ele><time>2026-04-11T11:05:34.999Z</time></trkpt><trkpt lat="44.97222118127944" lon="9.88273918100271"><ele>57.0</ele><time>2026-04-11T11:05:35.999Z</time></trkpt><trkpt lat="44.97208783239435" lon="9.883054274225541"><ele>57.0</ele><time>2026-04-11T11:05:36.999Z</time></trkpt><trkpt lat="44.97195457230285" lon="9.883367118004136"><ele>57.0</ele><time>2026-04-11T11:05:37.999Z</time></trkpt><trkpt lat="44.97182146124112" lon="9.88368123475286"><ele>57.0</ele><time>2026-04-11T11:05:38.999Z</time></trkpt><trkpt lat="44.97168705044291" lon="9.88399432635834"><ele>57.0</ele><time>2026-04-11T11:05:39.999Z</time></trkpt><trkpt lat="44.97155450457951" lon="9.884306471393334"><ele>56.0</ele><time>2026-04-11T11:05:40.999Z</time></trkpt><trkpt lat="44.971421451922886" lon="9.88462134842106"><ele>55.0</ele><time>2026-04-11T11:05:41.999Z</time></trkpt><trkpt lat="44.97128773719568" lon="9.884935341619729"><ele>56.5</ele><time>2026-04-11T11:05:42.999Z</time></trkpt><trkpt lat="44.97115330793154" lon="9.885243437406325"><ele>58.0</ele><time>2026-04-11T11:05:43.999Z</time></trkpt><trkpt lat="44.97101379548783" lon="9.88555442350236"><ele>58.0</ele><time>2026-04-11T11:05:44.999Z</time></trkpt><trkpt lat="44.970872808644486" lon="9.885871956374956"><ele>58.0</ele><time>2026-04-11T11:05:45.999Z</time></trkpt><trkpt lat="44.97074375111375" lon="9.886182781560827"><ele>58.0</ele><time>2026-04-11T11:05:46.999Z</time></trkpt><trkpt lat="44.97060855127525" lon="9.886499768191575"><ele>58.0</ele><time>2026-04-11T11:05:47.999Z</time></trkpt><trkpt lat="44.970471628191184" lon="9.886817386014165"><ele>58.0</ele><time>2026-04-11T11:05:48.999Z</time></trkpt><trkpt lat="44.97033437137384" lon="9.887135683225884"><ele>58.0</ele><time>2026-04-11T11:05:49.999Z</time></trkpt><trkpt lat="44.97019483797708" lon="9.887453361526088"><ele>57.5</ele><time>2026-04-11T11:05:50.999Z</time></trkpt><trkpt lat="44.97005559845045" lon="9.887765967200894"><ele>57.0</ele><time>2026-04-11T11:05:51.999Z</time></trkpt><trkpt lat="44.96991091931184" lon="9.888077976373754"><ele>57.0</ele><time>2026-04-11T11:05:52.999Z</time></trkpt><trkpt lat="44.96976785490766" lon="9.888389467995621"><ele>57.0</ele><time>2026-04-11T11:05:53.999Z</time></trkpt><trkpt lat="44.969630577262116" lon="9.888700625248877"><ele>56.5</ele><time>2026-04-11T11:05:54.999Z</time></trkpt><trkpt lat="44.96949527621488" lon="9.889020614529263"><ele>56.0</ele><time>2026-04-11T11:05:55.998Z</time></trkpt><trkpt lat="44.96936042151657" lon="9.88933353310149"><ele>56.0</ele><time>2026-04-11T11:05:56.998Z</time></trkpt><trkpt lat="44.96922669501896" lon="9.889643252242829"><ele>56.0</ele><time>2026-04-11T11:05:57.998Z</time></trkpt><trkpt lat="44.96909116014926" lon="9.889963741558516"><ele>58.5</ele><time>2026-04-11T11:05:58.998Z</time></trkpt><trkpt lat="44.96895558284283" lon="9.89028208053936"><ele>61.0</ele><time>2026-04-11T11:05:59.998Z</time></trkpt><trkpt lat="44.96882655545149" lon="9.89058830185558"><ele>61.0</ele><time>2026-04-11T11:06:00.998Z</time></trkpt><trkpt lat="44.96869655876729" lon="9.890894924367126"><ele>61.0</ele><time>2026-04-11T11:06:01.998Z</time></trkpt><trkpt lat="44.96857048582029" lon="9.89118643465408"><ele>61.0</ele><time>2026-04-11T11:06:02.998Z</time></trkpt><trkpt lat="44.96845236051222" lon="9.891467183388917"><ele>61.0</ele><time>2026-04-11T11:06:03.998Z</time></trkpt><trkpt lat="44.96832604111556" lon="9.89175658983685"><ele>59.0</ele><time>2026-04-11T11:06:04.998Z</time></trkpt><trkpt lat="44.96820648179239" lon="9.89204205299412"><ele>57.0</ele><time>2026-04-11T11:06:05.998Z</time></trkpt><trkpt lat="44.96808781334573" lon="9.892327990577776"><ele>56.5</ele><time>2026-04-11T11:06:06.998Z</time></trkpt><trkpt lat="44.96796954992215" lon="9.89261185620843"><ele>56.0</ele><time>2026-04-11T11:06:07.998Z</time></trkpt><trkpt lat="44.96784700075388" lon="9.892897262219911"><ele>56.0</ele><time>2026-04-11T11:06:08.998Z</time></trkpt><trkpt lat="44.96772743817611" lon="9.893172494894923"><ele>56.0</ele><time>2026-04-11T11:06:09.998Z</time></trkpt><trkpt lat="44.967608845057626" lon="9.893454078328139"><ele>57.5</ele><time>2026-04-11T11:06:10.998Z</time></trkpt><trkpt lat="44.96749314475652" lon="9.893734253531735"><ele>59.0</ele><time>2026-04-11T11:06:11.998Z</time></trkpt><trkpt lat="44.96737183989812" lon="9.894011342920875"><ele>59.0</ele><time>2026-04-11T11:06:12.998Z</time></trkpt><trkpt lat="44.96725636913149" lon="9.894278797394435"><ele>59.0</ele><time>2026-04-11T11:06:13.998Z</time></trkpt><trkpt lat="44.96713874557309" lon="9.894557937357698"><ele>59.0</ele><time>2026-04-11T11:06:14.998Z</time></trkpt><trkpt lat="44.96702370556132" lon="9.894832528260423"><ele>59.0</ele><time>2026-04-11T11:06:16Z</time></trkpt><trkpt lat="44.96690806246331" lon="9.895099865571511"><ele>59.0</ele><time>2026-04-11T11:06:17Z</time></trkpt><trkpt lat="44.96679618251309" lon="9.895356126494635"><ele>59.0</ele><time>2026-04-11T11:06:18Z</time></trkpt><trkpt lat="44.9666831503299" lon="9.895620492388316"><ele>59.0</ele><time>2026-04-11T11:06:19Z</time></trkpt><trkpt lat="44.966573864379136" lon="9.895881058413599"><ele>59.0</ele><time>2026-04-11T11:06:20Z</time></trkpt><trkpt lat="44.966466259431165" lon="9.89613957443565"><ele>58.333333333333336</ele><time>2026-04-11T11:06:21Z</time></trkpt><trkpt lat="44.96635424400802" lon="9.896402286405781"><ele>57.66666666666667</ele><time>2026-04-11T11:06:22Z</time></trkpt><trkpt lat="44.966242435428626" lon="9.896665507213017"><ele>57.0</ele><time>2026-04-11T11:06:23Z</time></trkpt><trkpt lat="44.96613072898399" lon="9.896924760269501"><ele>57.0</ele><time>2026-04-11T11:06:24Z</time></trkpt><trkpt lat="44.96601792673378" lon="9.897182073430733"><ele>57.0</ele><time>2026-04-11T11:06:25Z</time></trkpt><trkpt lat="44.96590196548545" lon="9.897446788610006"><ele>57.0</ele><time>2026-04-11T11:06:26Z</time></trkpt><trkpt lat="44.9657917354156" lon="9.897706866584343"><ele>57.33333333333333</ele><time>2026-04-11T11:06:27Z</time></trkpt><trkpt lat="44.9656806500037" lon="9.897968586843342"><ele>57.666666666666664</ele><time>2026-04-11T11:06:28Z</time></trkpt><trkpt lat="44.96556936891891" lon="9.898233768422566"><ele>58.0</ele><time>2026-04-11T11:06:29Z</time></trkpt><trkpt lat="44.96545924860209" lon="9.8984968144727"><ele>58.33333333333333</ele><time>2026-04-11T11:06:30Z</time></trkpt><trkpt lat="44.9653449740627" lon="9.898766015910708"><ele>58.66666666666667</ele><time>2026-04-11T11:06:31Z</time></trkpt><trkpt lat="44.96523115510813" lon="9.899029894288237"><ele>59.0</ele><time>2026-04-11T11:06:32Z</time></trkpt><trkpt lat="44.965117345878824" lon="9.899295137410471"><ele>59.333333333333336</ele><time>2026-04-11T11:06:33Z</time></trkpt><trkpt lat="44.96500032743321" lon="9.899560455474147"><ele>59.66666666666667</ele><time>2026-04-11T11:06:34Z</time></trkpt><trkpt lat="44.9648874320389" lon="9.899819025286035"><ele>60.0</ele><time>2026-04-11T11:06:35Z</time></trkpt><trkpt lat="44.96477043188425" lon="9.900072408025883"><ele>60.33333333333333</ele><time>2026-04-11T11:06:36Z</time></trkpt><trkpt lat="44.96465093926832" lon="9.900331475833681"><ele>60.666666666666664</ele><time>2026-04-11T11:06:37Z</time></trkpt><trkpt lat="44.96455286278548" lon="9.900591862202127"><ele>61.0</ele><time>2026-04-11T11:06:38Z</time></trkpt><trkpt lat="44.964440141125046" lon="9.900856726485157"><ele>61.0</ele><time>2026-04-11T11:06:39Z</time></trkpt><trkpt lat="44.964334483111536" lon="9.901105399744845"><ele>61.0</ele><time>2026-04-11T11:06:40Z</time></trkpt><trkpt lat="44.96422831433921" lon="9.901355275098107"><ele>61.0</ele><time>2026-04-11T11:06:41Z</time></trkpt><trkpt lat="44.96411834020543" lon="9.901614106603184"><ele>60.666666666666664</ele><time>2026-04-11T11:06:42Z</time></trkpt><trkpt lat="44.96401491789241" lon="9.901857517973653"><ele>60.33333333333333</ele><time>2026-04-11T11:06:43Z</time></trkpt><trkpt lat="44.96391003784795" lon="9.902104360200566"><ele>60.0</ele><time>2026-04-11T11:06:44Z</time></trkpt><trkpt lat="44.96380525562723" lon="9.902350972198223"><ele>60.0</ele><time>2026-04-11T11:06:45Z</time></trkpt><trkpt lat="44.9637070982299" lon="9.902581992231116"><ele>60.0</ele><time>2026-04-11T11:06:46Z</time></trkpt><trkpt lat="44.9636164676192" lon="9.902795297459845"><ele>60.0</ele><time>2026-04-11T11:06:47Z</time></trkpt><trkpt lat="44.96352718231361" lon="9.903005436420774"><ele>60.0</ele><time>2026-04-11T11:06:48Z</time></trkpt><trkpt lat="44.963444348287055" lon="9.903200391869651"><ele>60.0</ele><time>2026-04-11T11:06:49Z</time></trkpt><trkpt lat="44.96336551862399" lon="9.903385922775671"><ele>60.0</ele><time>2026-04-11T11:06:50Z</time></trkpt><trkpt lat="44.96329199002624" lon="9.90355897737218"><ele>60.25</ele><time>2026-04-11T11:06:51Z</time></trkpt><trkpt lat="44.96322000190754" lon="9.903728406137201"><ele>60.5</ele><time>2026-04-11T11:06:51.999Z</time></trkpt><trkpt lat="44.96315421866467" lon="9.903883231419396"><ele>60.75</ele><time>2026-04-11T11:06:52.999Z</time></trkpt><trkpt lat="44.963092141956174" lon="9.90402933312108"><ele>61.0</ele><time>2026-04-11T11:06:53.999Z</time></trkpt><trkpt lat="44.96303254736061" lon="9.90416959300759"><ele>61.199999999999996</ele><time>2026-04-11T11:06:54.999Z</time></trkpt><trkpt lat="44.96297291080975" lon="9.90428878059584"><ele>61.39999999999999</ele><time>2026-04-11T11:06:55.999Z</time></trkpt><trkpt lat="44.9629141673345" lon="9.904396602986884"><ele>61.6</ele><time>2026-04-11T11:06:56.999Z</time></trkpt><trkpt lat="44.96285298040074" lon="9.904506945445068"><ele>61.8</ele><time>2026-04-11T11:06:57.999Z</time></trkpt><trkpt lat="44.9628102998952" lon="9.904636733157972"><ele>62.0</ele><time>2026-04-11T11:06:58.999Z</time></trkpt><trkpt lat="44.96277484366069" lon="9.904750956005527"><ele>62.00000000000001</ele><time>2026-04-11T11:06:59.999Z</time></trkpt><trkpt lat="44.96274284853743" lon="9.904851418669274"><ele>62.0</ele><time>2026-04-11T11:07:00.999Z</time></trkpt><trkpt lat="44.96270400635952" lon="9.90494283634079"><ele>62.0</ele><time>2026-04-11T11:07:01.999Z</time></trkpt><trkpt lat="44.96266710872795" lon="9.905029589255474"><ele>62.0</ele><time>2026-04-11T11:07:02.999Z</time></trkpt><trkpt lat="44.96262382822449" lon="9.905131270913401"><ele>62.00000000000001</ele><time>2026-04-11T11:07:03.999Z</time></trkpt><trkpt lat="44.96258161689011" lon="9.905230440694941"><ele>62.0</ele><time>2026-04-11T11:07:04.999Z</time></trkpt><trkpt lat="44.962541064279854" lon="9.905325713528756"><ele>62.400000000000006</ele><time>2026-04-11T11:07:05.999Z</time></trkpt><trkpt lat="44.96250689586946" lon="9.905405987558712"><ele>62.800000000000004</ele><time>2026-04-11T11:07:06.999Z</time></trkpt><trkpt lat="44.96245475667523" lon="9.905528481502467"><ele>63.2</ele><time>2026-04-11T11:07:08.999Z</time></trkpt><trkpt lat="44.962409420639744" lon="9.905612028776721"><ele>63.6</ele><time>2026-04-11T11:07:11.999Z</time></trkpt><trkpt lat="44.96238119518908" lon="9.90570130421603"><ele>64.0</ele><time>2026-04-11T11:07:15.999Z</time></trkpt><trkpt lat="44.962288620562646" lon="9.90544383509941"><ele>63.99999999999999</ele><time>2026-04-11T11:09:55.999Z</time></trkpt><trkpt lat="44.962288934978076" lon="9.90534834441245"><ele>64.0</ele><time>2026-04-11T11:10:05.999Z</time></trkpt><trkpt lat="44.962434695335844" lon="9.905341635692288"><ele>64.0</ele><time>2026-04-11T11:10:09.999Z</time></trkpt><trkpt lat="44.96248151480555" lon="9.9052720040724"><ele>64.0</ele><time>2026-04-11T11:10:21.998Z</time></trkpt><trkpt lat="44.962543928475455" lon="9.905248140518637"><ele>63.99999999999999</ele><time>2026-04-11T11:10:29Z</time></trkpt><trkpt lat="44.96256543234523" lon="9.905154007755199"><ele>64.0</ele><time>2026-04-11T11:11:13Z</time></trkpt><trkpt lat="44.96257250665503" lon="9.905002081168423"><ele>63.71428571428571</ele><time>2026-04-11T11:12:19.998Z</time></trkpt><trkpt lat="44.9626693065461" lon="9.905028844424073"><ele>63.42857142857142</ele><time>2026-04-11T11:12:27.998Z</time></trkpt><trkpt lat="44.962600960053855" lon="9.90500352852753"><ele>63.14285714285714</ele><time>2026-04-11T11:12:32.998Z</time></trkpt><trkpt lat="44.9626697801352" lon="9.905024473332283"><ele>62.85714285714286</ele><time>2026-04-11T11:12:38Z</time></trkpt><trkpt lat="44.96261152426335" lon="9.905076170392858"><ele>62.57142857142858</ele><time>2026-04-11T11:12:40Z</time></trkpt><trkpt lat="44.96260545471171" lon="9.904981054069273"><ele>62.28571428571429</ele><time>2026-04-11T11:12:48.016Z</time></trkpt><trkpt lat="44.96261585179917" lon="9.904890943570113"><ele>62.0</ele><time>2026-04-11T11:12:53.015Z</time></trkpt><trkpt lat="44.962593743032286" lon="9.904766411740987"><ele>62.0</ele><time>2026-04-11T11:12:56.015Z</time></trkpt><trkpt lat="44.962712314868114" lon="9.904943553273535"><ele>62.0</ele><time>2026-04-11T11:12:57.015Z</time></trkpt><trkpt lat="44.96261700571994" lon="9.905116813056775"><ele>62.0</ele><time>2026-04-11T11:12:58.017Z</time></trkpt><trkpt lat="44.962652055515655" lon="9.905028898618857"><ele>62.0</ele><time>2026-04-11T11:13:04.012Z</time></trkpt><trkpt lat="44.96275426220988" lon="9.90474778208465"><ele>62.0</ele><time>2026-04-11T11:13:13.01Z</time></trkpt><trkpt lat="44.962798776003595" lon="9.90467350318315"><ele>62.0</ele><time>2026-04-11T11:13:15.012Z</time></trkpt><trkpt lat="44.96284898579073" lon="9.904591481198752"><ele>62.0</ele><time>2026-04-11T11:13:17.012Z</time></trkpt><trkpt lat="44.962537994890326" lon="9.905185348769834"><ele>62.333333333333336</ele><time>2026-04-11T11:13:18.012Z</time></trkpt><trkpt lat="44.96242266879383" lon="9.90517727680702"><ele>62.66666666666667</ele><time>2026-04-11T11:13:48.999Z</time></trkpt><trkpt lat="44.962493170897204" lon="9.90532024849219"><ele>63.0</ele><time>2026-04-11T11:13:51.999Z</time></trkpt><trkpt lat="44.96244119829873" lon="9.905267060725015"><ele>63.33333333333333</ele><time>2026-04-11T11:14:10.999Z</time></trkpt><trkpt lat="44.96242801009453" lon="9.905356203134383"><ele>63.666666666666664</ele><time>2026-04-11T11:14:19.998Z</time></trkpt><trkpt lat="44.96237359034303" lon="9.905416069312103"><ele>64.0</ele><time>2026-04-11T11:14:26.998Z</time></trkpt><trkpt lat="44.96231139872282" lon="9.90545998001087"><ele>64.0</ele><time>2026-04-11T11:14:33.998Z</time></trkpt><trkpt lat="44.96224432505051" lon="9.905473246214468"><ele>64.0</ele><time>2026-04-11T11:14:41Z</time></trkpt><trkpt lat="44.9621816075962" lon="9.905516516922267"><ele>64.0</ele><time>2026-04-11T11:14:51Z</time></trkpt><trkpt lat="44.962116900758424" lon="9.905537517749153"><ele>64.0</ele><time>2026-04-11T11:14:57Z</time></trkpt><trkpt lat="44.962060288299604" lon="9.905593675880763"><ele>64.0</ele><time>2026-04-11T11:15:04Z</time></trkpt><trkpt lat="44.9620062597852" lon="9.90564709088226"><ele>64.0</ele><time>2026-04-11T11:15:11Z</time></trkpt></trkseg><trkseg><trkpt lat="44.86534879857828" lon="10.232028503298103"><ele>43.0</ele><time>2026-04-11T11:42:14.999Z</time></trkpt><trkpt lat="44.865271546257965" lon="10.232368726410925"><ele>44.0</ele><time>2026-04-11T11:42:15.999Z</time></trkpt><trkpt lat="44.86519174056586" lon="10.232708163552601"><ele>43.0</ele><time>2026-04-11T11:42:16.999Z</time></trkpt><trkpt lat="44.8650295824576" lon="10.2333814093951"><ele>43.0</ele><time>2026-04-11T11:42:18.999Z</time></trkpt><trkpt lat="44.86495074453188" lon="10.233718046964293"><ele>43.0</ele><time>2026-04-11T11:42:19.999Z</time></trkpt><trkpt lat="44.86486993418618" lon="10.234052883655368"><ele>43.5</ele><time>2026-04-11T11:42:20.999Z</time></trkpt><trkpt lat="44.864789226698555" lon="10.234395469695455"><ele>44.0</ele><time>2026-04-11T11:42:21.999Z</time></trkpt><trkpt lat="44.86470647787121" lon="10.234732057461951"><ele>44.5</ele><time>2026-04-11T11:42:22.999Z</time></trkpt><trkpt lat="44.86462427843386" lon="10.235072769790923"><ele>45.0</ele><time>2026-04-11T11:42:23.999Z</time></trkpt><trkpt lat="44.86454099241782" lon="10.235422615001962"><ele>46.0</ele><time>2026-04-11T11:42:24.999Z</time></trkpt><trkpt lat="44.86445751108134" lon="10.235775477674277"><ele>47.0</ele><time>2026-04-11T11:42:25.999Z</time></trkpt><trkpt lat="44.86437109479919" lon="10.23613529696258"><ele>46.0</ele><time>2026-04-11T11:42:26.999Z</time></trkpt><trkpt lat="44.86428689817959" lon="10.236496308469247"><ele>45.0</ele><time>2026-04-11T11:42:27.999Z</time></trkpt><trkpt lat="44.86419832451843" lon="10.236857238179104"><ele>45.0</ele><time>2026-04-11T11:42:28.999Z</time></trkpt><trkpt lat="44.864111196813816" lon="10.237225577709372"><ele>45.0</ele><time>2026-04-11T11:42:29.999Z</time></trkpt><trkpt lat="44.86402805264409" lon="10.237590724606504"><ele>45.0</ele><time>2026-04-11T11:42:30.999Z</time></trkpt><trkpt lat="44.86394559239275" lon="10.237953785238055"><ele>45.0</ele><time>2026-04-11T11:42:31.999Z</time></trkpt><trkpt lat="44.863850416589905" lon="10.238326633773228"><ele>45.0</ele><time>2026-04-11T11:42:32.999Z</time></trkpt><trkpt lat="44.86376549953488" lon="10.238695914734167"><ele>45.0</ele><time>2026-04-11T11:42:33.999Z</time></trkpt><trkpt lat="44.86368018258112" lon="10.239065246284854"><ele>45.0</ele><time>2026-04-11T11:42:34.999Z</time></trkpt><trkpt lat="44.86359514995187" lon="10.23943556245629"><ele>45.0</ele><time>2026-04-11T11:42:35.999Z</time></trkpt><trkpt lat="44.863509707962486" lon="10.239807176758765"><ele>44.5</ele><time>2026-04-11T11:42:36.999Z</time></trkpt><trkpt lat="44.86342607292953" lon="10.240176526797542"><ele>44.0</ele><time>2026-04-11T11:42:37.999Z</time></trkpt><trkpt lat="44.86333729783248" lon="10.240544861236245"><ele>43.0</ele><time>2026-04-11T11:42:38.999Z</time></trkpt><trkpt lat="44.863251098339724" lon="10.240914081687901"><ele>42.0</ele><time>2026-04-11T11:42:39.999Z</time></trkpt><trkpt lat="44.863163261695576" lon="10.241286960979531"><ele>41.5</ele><time>2026-04-11T11:42:40.999Z</time></trkpt><trkpt lat="44.86307483882488" lon="10.241662370971126"><ele>41.0</ele><time>2026-04-11T11:42:41.999Z</time></trkpt><trkpt lat="44.8629836456197" lon="10.24203712867044"><ele>41.0</ele><time>2026-04-11T11:42:42.999Z</time></trkpt><trkpt lat="44.86289515928802" lon="10.242407122103652"><ele>41.0</ele><time>2026-04-11T11:42:43.999Z</time></trkpt><trkpt lat="44.86280907193146" lon="10.242777771506228"><ele>40.5</ele><time>2026-04-11T11:42:44.999Z</time></trkpt><trkpt lat="44.86272519798706" lon="10.243143291345682"><ele>40.0</ele><time>2026-04-11T11:42:45.999Z</time></trkpt><trkpt lat="44.86264264794344" lon="10.243512077608122"><ele>39.5</ele><time>2026-04-11T11:42:46.999Z</time></trkpt><trkpt lat="44.862558936508194" lon="10.243872313328726"><ele>39.0</ele><time>2026-04-11T11:42:47.999Z</time></trkpt><trkpt lat="44.86246463091129" lon="10.244238485857332"><ele>40.5</ele><time>2026-04-11T11:42:48.999Z</time></trkpt><trkpt lat="44.862369663271835" lon="10.244607071161598"><ele>42.0</ele><time>2026-04-11T11:42:49.999Z</time></trkpt><trkpt lat="44.86227365821576" lon="10.244978185064532"><ele>43.0</ele><time>2026-04-11T11:42:50.998Z</time></trkpt><trkpt lat="44.86220957334408" lon="10.245326921061428"><ele>44.0</ele><time>2026-04-11T11:42:51.998Z</time></trkpt><trkpt lat="44.862120672882774" lon="10.24569269398909"><ele>44.0</ele><time>2026-04-11T11:42:52.998Z</time></trkpt><trkpt lat="44.86203492718876" lon="10.246056027235678"><ele>44.0</ele><time>2026-04-11T11:42:53.998Z</time></trkpt><trkpt lat="44.86195088649459" lon="10.246418001306145"><ele>44.0</ele><time>2026-04-11T11:42:54.998Z</time></trkpt><trkpt lat="44.86185826042039" lon="10.246776706463436"><ele>44.0</ele><time>2026-04-11T11:42:55.998Z</time></trkpt><trkpt lat="44.861772070414574" lon="10.24713656504846"><ele>44.5</ele><time>2026-04-11T11:42:56.998Z</time></trkpt><trkpt lat="44.86168411122194" lon="10.247491167407828"><ele>45.0</ele><time>2026-04-11T11:42:57.998Z</time></trkpt><trkpt lat="44.86159319116412" lon="10.247843180845654"><ele>45.0</ele><time>2026-04-11T11:42:58.998Z</time></trkpt><trkpt lat="44.86151086099905" lon="10.248193705238062"><ele>45.0</ele><time>2026-04-11T11:42:59.998Z</time></trkpt><trkpt lat="44.86142331223421" lon="10.248542111649234"><ele>45.0</ele><time>2026-04-11T11:43:00.998Z</time></trkpt><trkpt lat="44.8613348556331" lon="10.248895462002029"><ele>45.0</ele><time>2026-04-11T11:43:01.998Z</time></trkpt><trkpt lat="44.86124959559145" lon="10.249249744637698"><ele>45.0</ele><time>2026-04-11T11:43:02.998Z</time></trkpt><trkpt lat="44.861166309801206" lon="10.249603977594896"><ele>45.0</ele><time>2026-04-11T11:43:03.998Z</time></trkpt><trkpt lat="44.86108362291635" lon="10.249953516913655"><ele>43.5</ele><time>2026-04-11T11:43:04.998Z</time></trkpt><trkpt lat="44.8609960449638" lon="10.250298699424746"><ele>42.0</ele><time>2026-04-11T11:43:05.998Z</time></trkpt><trkpt lat="44.86091225734214" lon="10.250645082947365"><ele>42.0</ele><time>2026-04-11T11:43:06.998Z</time></trkpt><trkpt lat="44.860827123013905" lon="10.25099145255969"><ele>42.0</ele><time>2026-04-11T11:43:07.998Z</time></trkpt><trkpt lat="44.860746271871655" lon="10.251337079205117"><ele>41.5</ele><time>2026-04-11T11:43:08.998Z</time></trkpt><trkpt lat="44.860667409468924" lon="10.25168756209499"><ele>41.0</ele><time>2026-04-11T11:43:09.998Z</time></trkpt><trkpt lat="44.860588089004096" lon="10.252035713571214"><ele>41.0</ele><time>2026-04-11T11:43:10.998Z</time></trkpt><trkpt lat="44.86050669762624" lon="10.252387044423283"><ele>41.0</ele><time>2026-04-11T11:43:11.998Z</time></trkpt><trkpt lat="44.86042103452327" lon="10.25273844406646"><ele>41.0</ele><time>2026-04-11T11:43:12.998Z</time></trkpt><trkpt lat="44.86033912749965" lon="10.253089167832417"><ele>41.0</ele><time>2026-04-11T11:43:13.998Z</time></trkpt><trkpt lat="44.86025112068567" lon="10.253445787808749"><ele>41.0</ele><time>2026-04-11T11:43:14.998Z</time></trkpt><trkpt lat="44.86016698594134" lon="10.253801405174833"><ele>41.0</ele><time>2026-04-11T11:43:15.998Z</time></trkpt><trkpt lat="44.860089665545836" lon="10.25415465715987"><ele>41.0</ele><time>2026-04-11T11:43:16.998Z</time></trkpt><trkpt lat="44.860001848526146" lon="10.254506806605594"><ele>41.0</ele><time>2026-04-11T11:43:18Z</time></trkpt><trkpt lat="44.8599167076063" lon="10.254860394994427"><ele>41.5</ele><time>2026-04-11T11:43:19Z</time></trkpt><trkpt lat="44.85983461779289" lon="10.255211023005408"><ele>42.0</ele><time>2026-04-11T11:43:20Z</time></trkpt><trkpt lat="44.85974578105914" lon="10.255560773798086"><ele>42.0</ele><time>2026-04-11T11:43:21Z</time></trkpt><trkpt lat="44.85966333181543" lon="10.255910985097234"><ele>42.0</ele><time>2026-04-11T11:43:22Z</time></trkpt><trkpt lat="44.859583336226464" lon="10.256269373552712"><ele>42.0</ele><time>2026-04-11T11:43:23Z</time></trkpt><trkpt lat="44.85950488994723" lon="10.256618825780922"><ele>42.0</ele><time>2026-04-11T11:43:24Z</time></trkpt><trkpt lat="44.8594173052683" lon="10.256970644463664"><ele>42.0</ele><time>2026-04-11T11:43:25Z</time></trkpt><trkpt lat="44.8593378280001" lon="10.25731838544698"><ele>42.0</ele><time>2026-04-11T11:43:26Z</time></trkpt><trkpt lat="44.85925243878824" lon="10.257667337364968"><ele>41.0</ele><time>2026-04-11T11:43:27Z</time></trkpt><trkpt lat="44.85916886992451" lon="10.258014638879215"><ele>40.0</ele><time>2026-04-11T11:43:28Z</time></trkpt><trkpt lat="44.859085957134475" lon="10.258358101170236"><ele>40.0</ele><time>2026-04-11T11:43:29Z</time></trkpt><trkpt lat="44.859003900831254" lon="10.258701062173705"><ele>40.0</ele><time>2026-04-11T11:43:30Z</time></trkpt><trkpt lat="44.85892171430205" lon="10.25904326290317"><ele>40.0</ele><time>2026-04-11T11:43:31Z</time></trkpt><trkpt lat="44.858838153799006" lon="10.259381273362424"><ele>40.0</ele><time>2026-04-11T11:43:32Z</time></trkpt><trkpt lat="44.85875603767817" lon="10.259720958878153"><ele>39.5</ele><time>2026-04-11T11:43:33Z</time></trkpt><trkpt lat="44.858678535339365" lon="10.260057869779185"><ele>39.0</ele><time>2026-04-11T11:43:34Z</time></trkpt><trkpt lat="44.85860059475739" lon="10.260395506027299"><ele>39.5</ele><time>2026-04-11T11:43:35Z</time></trkpt><trkpt lat="44.85851734144918" lon="10.260732929380401"><ele>40.0</ele><time>2026-04-11T11:43:36Z</time></trkpt><trkpt lat="44.8584323114113" lon="10.261071335771693"><ele>40.5</ele><time>2026-04-11T11:43:37Z</time></trkpt><trkpt lat="44.858356028183856" lon="10.261404620745887"><ele>41.0</ele><time>2026-04-11T11:43:38Z</time></trkpt><trkpt lat="44.85828000795368" lon="10.261734078080584"><ele>41.0</ele><time>2026-04-11T11:43:39Z</time></trkpt><trkpt lat="44.85819894049399" lon="10.26206843933135"><ele>41.0</ele><time>2026-04-11T11:43:40Z</time></trkpt><trkpt lat="44.858120650747956" lon="10.26240097102097"><ele>40.0</ele><time>2026-04-11T11:43:41Z</time></trkpt><trkpt lat="44.858039544278114" lon="10.262729145841403"><ele>39.0</ele><time>2026-04-11T11:43:42Z</time></trkpt><trkpt lat="44.85795625158532" lon="10.263060251863939"><ele>38.5</ele><time>2026-04-11T11:43:43Z</time></trkpt><trkpt lat="44.85787637750535" lon="10.263387407228183"><ele>38.0</ele><time>2026-04-11T11:43:44Z</time></trkpt><trkpt lat="44.85779908216631" lon="10.263718321329165"><ele>38.0</ele><time>2026-04-11T11:43:45Z</time></trkpt><trkpt lat="44.857724545321" lon="10.264046377551297"><ele>38.0</ele><time>2026-04-11T11:43:46Z</time></trkpt><trkpt lat="44.85765069102052" lon="10.26437322041474"><ele>38.5</ele><time>2026-04-11T11:43:47Z</time></trkpt><trkpt lat="44.85757465309406" lon="10.264699509748441"><ele>39.0</ele><time>2026-04-11T11:43:48Z</time></trkpt><trkpt lat="44.85749702789539" lon="10.265032532556786"><ele>39.0</ele><time>2026-04-11T11:43:49Z</time></trkpt><trkpt lat="44.85742159024637" lon="10.265358741987368"><ele>39.0</ele><time>2026-04-11T11:43:50Z</time></trkpt><trkpt lat="44.85734189491891" lon="10.265683564110422"><ele>39.5</ele><time>2026-04-11T11:43:51Z</time></trkpt><trkpt lat="44.85726092381569" lon="10.266011229506827"><ele>40.0</ele><time>2026-04-11T11:43:52Z</time></trkpt><trkpt lat="44.85718048208578" lon="10.266343681865166"><ele>39.5</ele><time>2026-04-11T11:43:53Z</time></trkpt><trkpt lat="44.85709595317193" lon="10.266683095219516"><ele>39.0</ele><time>2026-04-11T11:43:54Z</time></trkpt><trkpt lat="44.857013674663705" lon="10.2670218572588"><ele>39.0</ele><time>2026-04-11T11:43:55Z</time></trkpt><trkpt lat="44.85693378075176" lon="10.267362194350435"><ele>39.0</ele><time>2026-04-11T11:43:55.999Z</time></trkpt><trkpt lat="44.85685532015954" lon="10.267703931108217"><ele>39.0</ele><time>2026-04-11T11:43:56.999Z</time></trkpt><trkpt lat="44.85677603509002" lon="10.26804779826424"><ele>39.0</ele><time>2026-04-11T11:43:57.999Z</time></trkpt><trkpt lat="44.856689745937196" lon="10.26839835317459"><ele>39.5</ele><time>2026-04-11T11:43:58.999Z</time></trkpt><trkpt lat="44.856605949210426" lon="10.26874261854189"><ele>40.0</ele><time>2026-04-11T11:43:59.999Z</time></trkpt><trkpt lat="44.856523607478955" lon="10.269093403200339"><ele>39.5</ele><time>2026-04-11T11:44:00.999Z</time></trkpt><trkpt lat="44.85643958989303" lon="10.269453699780891"><ele>39.0</ele><time>2026-04-11T11:44:01.999Z</time></trkpt><trkpt lat="44.85635526128805" lon="10.269806664693176"><ele>39.0</ele><time>2026-04-11T11:44:02.999Z</time></trkpt><trkpt lat="44.85627019124831" lon="10.270160179983666"><ele>39.0</ele><time>2026-04-11T11:44:03.999Z</time></trkpt><trkpt lat="44.85617839650567" lon="10.270521723860236"><ele>40.0</ele><time>2026-04-11T11:44:04.999Z</time></trkpt><trkpt lat="44.85609559290488" lon="10.270879234795343"><ele>41.0</ele><time>2026-04-11T11:44:05.999Z</time></trkpt><trkpt lat="44.85601756344179" lon="10.271229932283564"><ele>39.5</ele><time>2026-04-11T11:44:06.999Z</time></trkpt><trkpt lat="44.85593073603955" lon="10.27159099607736"><ele>38.0</ele><time>2026-04-11T11:44:07.999Z</time></trkpt><trkpt lat="44.855845327919454" lon="10.271938799600248"><ele>38.0</ele><time>2026-04-11T11:44:08.999Z</time></trkpt><trkpt lat="44.85575653885559" lon="10.27229460398721"><ele>38.0</ele><time>2026-04-11T11:44:09.999Z</time></trkpt><trkpt lat="44.85567067034329" lon="10.272644816948402"><ele>38.0</ele><time>2026-04-11T11:44:10.999Z</time></trkpt><trkpt lat="44.85558872333538" lon="10.272992185401868"><ele>38.0</ele><time>2026-04-11T11:44:11.999Z</time></trkpt><trkpt lat="44.85550580480039" lon="10.273341374688062"><ele>38.5</ele><time>2026-04-11T11:44:12.999Z</time></trkpt><trkpt lat="44.85541996048697" lon="10.273692126922693"><ele>39.0</ele><time>2026-04-11T11:44:13.999Z</time></trkpt><trkpt lat="44.85533633080891" lon="10.274040103440488"><ele>39.0</ele><time>2026-04-11T11:44:14.999Z</time></trkpt><trkpt lat="44.85525243727709" lon="10.27439297748311"><ele>39.0</ele><time>2026-04-11T11:44:15.999Z</time></trkpt><trkpt lat="44.85516823013046" lon="10.274739553107306"><ele>41.0</ele><time>2026-04-11T11:44:16.999Z</time></trkpt><trkpt lat="44.85508596901337" lon="10.275086365878515"><ele>43.0</ele><time>2026-04-11T11:44:17.999Z</time></trkpt><trkpt lat="44.85500267541165" lon="10.27542765197825"><ele>42.5</ele><time>2026-04-11T11:44:18.999Z</time></trkpt><trkpt lat="44.854920685489496" lon="10.27577737262796"><ele>42.0</ele><time>2026-04-11T11:44:19.999Z</time></trkpt><trkpt lat="44.854837413816966" lon="10.27612359157641"><ele>41.0</ele><time>2026-04-11T11:44:20.999Z</time></trkpt><trkpt lat="44.85475520208524" lon="10.276470346285215"><ele>40.0</ele><time>2026-04-11T11:44:21.999Z</time></trkpt><trkpt lat="44.854669630163315" lon="10.276816160116558"><ele>40.0</ele><time>2026-04-11T11:44:22.999Z</time></trkpt><trkpt lat="44.85458550788847" lon="10.277166046074719"><ele>40.0</ele><time>2026-04-11T11:44:23.999Z</time></trkpt><trkpt lat="44.854501739680714" lon="10.27751252636011"><ele>39.0</ele><time>2026-04-11T11:44:24.999Z</time></trkpt><trkpt lat="44.85441822030336" lon="10.277866044435171"><ele>38.0</ele><time>2026-04-11T11:44:25.999Z</time></trkpt><trkpt lat="44.8543309953478" lon="10.278219631831874"><ele>39.0</ele><time>2026-04-11T11:44:26.999Z</time></trkpt><trkpt lat="44.854248527327165" lon="10.278569774232778"><ele>40.0</ele><time>2026-04-11T11:44:27.999Z</time></trkpt><trkpt lat="44.854162409558185" lon="10.278921885595496"><ele>38.5</ele><time>2026-04-11T11:44:28.999Z</time></trkpt><trkpt lat="44.85408091700426" lon="10.279271014611384"><ele>37.0</ele><time>2026-04-11T11:44:29.999Z</time></trkpt><trkpt lat="44.854000188278604" lon="10.2796240212345"><ele>36.5</ele><time>2026-04-11T11:44:30.999Z</time></trkpt><trkpt lat="44.853915303320285" lon="10.27997656209966"><ele>36.0</ele><time>2026-04-11T11:44:31.999Z</time></trkpt><trkpt lat="44.85382887265434" lon="10.280332324178836"><ele>36.0</ele><time>2026-04-11T11:44:32.999Z</time></trkpt><trkpt lat="44.85374381217366" lon="10.280685987680716"><ele>36.0</ele><time>2026-04-11T11:44:33.999Z</time></trkpt><trkpt lat="44.85365940829188" lon="10.28104091126273"><ele>36.0</ele><time>2026-04-11T11:44:34.999Z</time></trkpt><trkpt lat="44.85357614114697" lon="10.281390669054606"><ele>36.0</ele><time>2026-04-11T11:44:35.999Z</time></trkpt><trkpt lat="44.8534934487052" lon="10.28174605062713"><ele>37.0</ele><time>2026-04-11T11:44:36.999Z</time></trkpt><trkpt lat="44.853414129967305" lon="10.282096708137617"><ele>38.0</ele><time>2026-04-11T11:44:37.999Z</time></trkpt><trkpt lat="44.853330623670196" lon="10.282448854694065"><ele>38.0</ele><time>2026-04-11T11:44:38.999Z</time></trkpt><trkpt lat="44.853245370592006" lon="10.282794994622638"><ele>38.0</ele><time>2026-04-11T11:44:39.999Z</time></trkpt><trkpt lat="44.853156394381834" lon="10.28314348788255"><ele>37.5</ele><time>2026-04-11T11:44:40.999Z</time></trkpt><trkpt lat="44.853072952580895" lon="10.283491484481086"><ele>37.0</ele><time>2026-04-11T11:44:41.999Z</time></trkpt><trkpt lat="44.85299086901441" lon="10.283835941237365"><ele>38.5</ele><time>2026-04-11T11:44:42.999Z</time></trkpt><trkpt lat="44.852906778696735" lon="10.284178789954415"><ele>40.0</ele><time>2026-04-11T11:44:43.999Z</time></trkpt><trkpt lat="44.852822600354244" lon="10.284531756885764"><ele>38.5</ele><time>2026-04-11T11:44:44.999Z</time></trkpt><trkpt lat="44.85273989215631" lon="10.284883749669094"><ele>37.0</ele><time>2026-04-11T11:44:45.999Z</time></trkpt><trkpt lat="44.852656877783886" lon="10.28523049520732"><ele>37.0</ele><time>2026-04-11T11:44:46.999Z</time></trkpt><trkpt lat="44.85257008000972" lon="10.285579951062818"><ele>37.0</ele><time>2026-04-11T11:44:47.999Z</time></trkpt><trkpt lat="44.852485674876434" lon="10.285930138863467"><ele>35.0</ele><time>2026-04-11T11:44:48.999Z</time></trkpt><trkpt lat="44.85240128812952" lon="10.286279229767526"><ele>33.0</ele><time>2026-04-11T11:44:49.999Z</time></trkpt><trkpt lat="44.852321902057064" lon="10.286622693674415"><ele>33.0</ele><time>2026-04-11T11:44:50.999Z</time></trkpt><trkpt lat="44.85223655543794" lon="10.286972756362099"><ele>33.0</ele><time>2026-04-11T11:44:51.999Z</time></trkpt><trkpt lat="44.852150382804595" lon="10.287316801019209"><ele>33.5</ele><time>2026-04-11T11:44:52.999Z</time></trkpt><trkpt lat="44.852064512321974" lon="10.28766398251171"><ele>34.0</ele><time>2026-04-11T11:44:53.998Z</time></trkpt><trkpt lat="44.85198307923256" lon="10.288015397303226"><ele>34.5</ele><time>2026-04-11T11:44:54.998Z</time></trkpt><trkpt lat="44.85190237521647" lon="10.288367980679668"><ele>35.0</ele><time>2026-04-11T11:44:55.998Z</time></trkpt><trkpt lat="44.85181911395462" lon="10.288716917474751"><ele>36.5</ele><time>2026-04-11T11:44:56.998Z</time></trkpt><trkpt lat="44.85173252455026" lon="10.289069070271376"><ele>38.0</ele><time>2026-04-11T11:44:57.998Z</time></trkpt><trkpt lat="44.851649489097596" lon="10.289422844287037"><ele>37.5</ele><time>2026-04-11T11:44:58.998Z</time></trkpt><trkpt lat="44.851564512869366" lon="10.289777970731116"><ele>37.0</ele><time>2026-04-11T11:44:59.998Z</time></trkpt><trkpt lat="44.85148151906794" lon="10.290135479778458"><ele>37.0</ele><time>2026-04-11T11:45:00.998Z</time></trkpt><trkpt lat="44.85140252129414" lon="10.290491671835401"><ele>37.0</ele><time>2026-04-11T11:45:01.998Z</time></trkpt><trkpt lat="44.85131835061833" lon="10.290850536605035"><ele>36.5</ele><time>2026-04-11T11:45:02.998Z</time></trkpt><trkpt lat="44.85122813936254" lon="10.291205699453608"><ele>36.0</ele><time>2026-04-11T11:45:03.998Z</time></trkpt><trkpt lat="44.851144996511266" lon="10.291563150648374"><ele>36.0</ele><time>2026-04-11T11:45:04.998Z</time></trkpt><trkpt lat="44.85105947521707" lon="10.2919187243571"><ele>36.0</ele><time>2026-04-11T11:45:05.998Z</time></trkpt><trkpt lat="44.850972181475036" lon="10.292273815267235"><ele>35.5</ele><time>2026-04-11T11:45:06.998Z</time></trkpt><trkpt lat="44.85088160926756" lon="10.292638360669356"><ele>35.0</ele><time>2026-04-11T11:45:07.998Z</time></trkpt><trkpt lat="44.850791515206865" lon="10.292990015537217"><ele>36.0</ele><time>2026-04-11T11:45:08.998Z</time></trkpt><trkpt lat="44.85070285639599" lon="10.293347472519642"><ele>37.0</ele><time>2026-04-11T11:45:09.998Z</time></trkpt><trkpt lat="44.850617623663304" lon="10.293707988765298"><ele>37.5</ele><time>2026-04-11T11:45:10.998Z</time></trkpt><trkpt lat="44.850535267247764" lon="10.294059539314864"><ele>38.0</ele><time>2026-04-11T11:45:11.998Z</time></trkpt><trkpt lat="44.85045183457474" lon="10.294415869432651"><ele>38.0</ele><time>2026-04-11T11:45:12.998Z</time></trkpt><trkpt lat="44.850368255416484" lon="10.294769098466283"><ele>38.0</ele><time>2026-04-11T11:45:13.998Z</time></trkpt><trkpt lat="44.85028610126022" lon="10.295118272955538"><ele>38.0</ele><time>2026-04-11T11:45:14.998Z</time></trkpt><trkpt lat="44.850199622787436" lon="10.295467820795798"><ele>38.0</ele><time>2026-04-11T11:45:15.998Z</time></trkpt><trkpt lat="44.85011059957862" lon="10.29581747670754"><ele>37.5</ele><time>2026-04-11T11:45:16.998Z</time></trkpt><trkpt lat="44.85002700040375" lon="10.296166054363182"><ele>37.0</ele><time>2026-04-11T11:45:17.998Z</time></trkpt><trkpt lat="44.84994402817052" lon="10.296516400917842"><ele>37.0</ele><time>2026-04-11T11:45:18.998Z</time></trkpt><trkpt lat="44.84986423835537" lon="10.296864367191363"><ele>37.0</ele><time>2026-04-11T11:45:19.998Z</time></trkpt><trkpt lat="44.849779337713116" lon="10.29721667243625"><ele>37.5</ele><time>2026-04-11T11:45:20.998Z</time></trkpt><trkpt lat="44.84969549038793" lon="10.297564413485206"><ele>38.0</ele><time>2026-04-11T11:45:21.998Z</time></trkpt><trkpt lat="44.84961179315651" lon="10.297909634731461"><ele>38.5</ele><time>2026-04-11T11:45:22.998Z</time></trkpt><trkpt lat="44.849526529184715" lon="10.29825854358918"><ele>39.0</ele><time>2026-04-11T11:45:24Z</time></trkpt><trkpt lat="44.849447828531524" lon="10.298602210624024"><ele>39.0</ele><time>2026-04-11T11:45:25Z</time></trkpt><trkpt lat="44.8493695872204" lon="10.298944275725177"><ele>39.0</ele><time>2026-04-11T11:45:26Z</time></trkpt><trkpt lat="44.84928916770842" lon="10.299268677264896"><ele>39.0</ele><time>2026-04-11T11:45:27Z</time></trkpt><trkpt lat="44.84920967017264" lon="10.299586721243044"><ele>39.0</ele><time>2026-04-11T11:45:28Z</time></trkpt><trkpt lat="44.84913524080043" lon="10.299899716311252"><ele>38.5</ele><time>2026-04-11T11:45:29Z</time></trkpt><trkpt lat="44.849061221543124" lon="10.300209622003626"><ele>38.0</ele><time>2026-04-11T11:45:30Z</time></trkpt><trkpt lat="44.848982367890784" lon="10.300527733484131"><ele>38.5</ele><time>2026-04-11T11:45:31Z</time></trkpt><trkpt lat="44.84890153162483" lon="10.30084636282046"><ele>39.0</ele><time>2026-04-11T11:45:32Z</time></trkpt><trkpt lat="44.848822525954326" lon="10.301171772755263"><ele>38.0</ele><time>2026-04-11T11:45:33Z</time></trkpt><trkpt lat="44.84874339869213" lon="10.3014976813032"><ele>37.0</ele><time>2026-04-11T11:45:34Z</time></trkpt><trkpt lat="44.848664265242626" lon="10.30182605103374"><ele>37.0</ele><time>2026-04-11T11:45:35Z</time></trkpt><trkpt lat="44.84858957115046" lon="10.30215491709045"><ele>37.0</ele><time>2026-04-11T11:45:36Z</time></trkpt><trkpt lat="44.8485141582609" lon="10.302490086809824"><ele>37.5</ele><time>2026-04-11T11:45:37Z</time></trkpt><trkpt lat="44.84843455830401" lon="10.302828818346224"><ele>38.0</ele><time>2026-04-11T11:45:38Z</time></trkpt><trkpt lat="44.8483505494256" lon="10.30317284569417"><ele>38.5</ele><time>2026-04-11T11:45:39Z</time></trkpt><trkpt lat="44.84826728995957" lon="10.303525252736316"><ele>39.0</ele><time>2026-04-11T11:45:40Z</time></trkpt><trkpt lat="44.848177751061" lon="10.303871419300027"><ele>39.0</ele><time>2026-04-11T11:45:41Z</time></trkpt><trkpt lat="44.84808683957526" lon="10.304222981476062"><ele>39.0</ele><time>2026-04-11T11:45:42Z</time></trkpt><trkpt lat="44.84799901647803" lon="10.304571902962861"><ele>39.5</ele><time>2026-04-11T11:45:43Z</time></trkpt><trkpt lat="44.84791649645058" lon="10.304927783860542"><ele>40.0</ele><time>2026-04-11T11:45:44Z</time></trkpt><trkpt lat="44.84783509269223" lon="10.305281168572925"><ele>40.5</ele><time>2026-04-11T11:45:45Z</time></trkpt><trkpt lat="44.84775307872357" lon="10.30563637869221"><ele>41.0</ele><time>2026-04-11T11:45:46Z</time></trkpt><trkpt lat="44.847674218147404" lon="10.305996728118165"><ele>41.5</ele><time>2026-04-11T11:45:47Z</time></trkpt><trkpt lat="44.84759962582431" lon="10.30635946935064"><ele>42.0</ele><time>2026-04-11T11:45:48Z</time></trkpt><trkpt lat="44.847525230712726" lon="10.306721311938485"><ele>42.5</ele><time>2026-04-11T11:45:49Z</time></trkpt><trkpt lat="44.84745210249976" lon="10.307085004064758"><ele>43.0</ele><time>2026-04-11T11:45:50Z</time></trkpt><trkpt lat="44.84737015699263" lon="10.30745285777032"><ele>42.0</ele><time>2026-04-11T11:45:51Z</time></trkpt><trkpt lat="44.84728854567016" lon="10.307816002346655"><ele>41.0</ele><time>2026-04-11T11:45:52Z</time></trkpt><trkpt lat="44.84720854205465" lon="10.308183863716886"><ele>41.0</ele><time>2026-04-11T11:45:53Z</time></trkpt><trkpt lat="44.84709379286372" lon="10.308585352334434"><ele>41.0</ele><time>2026-04-11T11:45:54Z</time></trkpt><trkpt lat="44.847004168579694" lon="10.30896441261842"><ele>41.5</ele><time>2026-04-11T11:45:55Z</time></trkpt><trkpt lat="44.84691484104028" lon="10.30934621457115"><ele>42.0</ele><time>2026-04-11T11:45:55.999Z</time></trkpt><trkpt lat="44.84682519518761" lon="10.309717689824147"><ele>42.5</ele><time>2026-04-11T11:45:56.999Z</time></trkpt><trkpt lat="44.84673879344467" lon="10.31009548918418"><ele>43.0</ele><time>2026-04-11T11:45:57.999Z</time></trkpt><trkpt lat="44.84664986315486" lon="10.31046831300653"><ele>42.0</ele><time>2026-04-11T11:45:58.999Z</time></trkpt><trkpt lat="44.84655993175805" lon="10.31084104450496"><ele>41.0</ele><time>2026-04-11T11:45:59.999Z</time></trkpt><trkpt lat="44.84647322826794" lon="10.311210344883449"><ele>40.5</ele><time>2026-04-11T11:46:00.999Z</time></trkpt><trkpt lat="44.84638668190487" lon="10.311581514478437"><ele>40.0</ele><time>2026-04-11T11:46:01.999Z</time></trkpt><trkpt lat="44.846297275626156" lon="10.31194670689541"><ele>40.5</ele><time>2026-04-11T11:46:02.999Z</time></trkpt><trkpt lat="44.84620252950806" lon="10.312306582880538"><ele>41.0</ele><time>2026-04-11T11:46:03.999Z</time></trkpt><trkpt lat="44.84610769020534" lon="10.312673249474196"><ele>41.0</ele><time>2026-04-11T11:46:04.999Z</time></trkpt><trkpt lat="44.846017523177395" lon="10.313032528894784"><ele>41.0</ele><time>2026-04-11T11:46:05.999Z</time></trkpt><trkpt lat="44.845932448807154" lon="10.313394794994206"><ele>41.5</ele><time>2026-04-11T11:46:06.999Z</time></trkpt><trkpt lat="44.84584630523343" lon="10.313756165113356"><ele>42.0</ele><time>2026-04-11T11:46:07.999Z</time></trkpt><trkpt lat="44.84575799299008" lon="10.31411870690009"><ele>42.5</ele><time>2026-04-11T11:46:08.999Z</time></trkpt><trkpt lat="44.84566467847924" lon="10.314480317230982"><ele>43.0</ele><time>2026-04-11T11:46:09.999Z</time></trkpt><trkpt lat="44.845574527642675" lon="10.314840771981737"><ele>43.0</ele><time>2026-04-11T11:46:10.999Z</time></trkpt><trkpt lat="44.84547954601332" lon="10.315204785404799"><ele>43.0</ele><time>2026-04-11T11:46:11.999Z</time></trkpt><trkpt lat="44.84538066035691" lon="10.315562516856932"><ele>42.0</ele><time>2026-04-11T11:46:12.999Z</time></trkpt><trkpt lat="44.84528595022014" lon="10.315921731736797"><ele>41.0</ele><time>2026-04-11T11:46:13.999Z</time></trkpt><trkpt lat="44.84519500609399" lon="10.316266024242406"><ele>41.0</ele><time>2026-04-11T11:46:14.999Z</time></trkpt><trkpt lat="44.84511101289436" lon="10.316615189621892"><ele>41.0</ele><time>2026-04-11T11:46:15.999Z</time></trkpt><trkpt lat="44.84504161342441" lon="10.316959408872954"><ele>41.5</ele><time>2026-04-11T11:46:16.999Z</time></trkpt><trkpt lat="44.844960985590845" lon="10.317301404097933"><ele>42.0</ele><time>2026-04-11T11:46:17.999Z</time></trkpt><trkpt lat="44.8448801933011" lon="10.317636175241798"><ele>42.0</ele><time>2026-04-11T11:46:18.999Z</time></trkpt><trkpt lat="44.844796781717406" lon="10.317967934767008"><ele>42.0</ele><time>2026-04-11T11:46:19.999Z</time></trkpt><trkpt lat="44.84471656811864" lon="10.318297830213394"><ele>41.0</ele><time>2026-04-11T11:46:20.999Z</time></trkpt><trkpt lat="44.84464009667152" lon="10.318619580508155"><ele>40.0</ele><time>2026-04-11T11:46:21.999Z</time></trkpt><trkpt lat="44.84455904884198" lon="10.318948479661824"><ele>40.0</ele><time>2026-04-11T11:46:22.999Z</time></trkpt><trkpt lat="44.84447975557338" lon="10.319274297799453"><ele>40.0</ele><time>2026-04-11T11:46:23.999Z</time></trkpt><trkpt lat="44.84439906714525" lon="10.319598516517443"><ele>40.0</ele><time>2026-04-11T11:46:24.999Z</time></trkpt><trkpt lat="44.84432028881056" lon="10.319922961722845"><ele>40.0</ele><time>2026-04-11T11:46:25.999Z</time></trkpt><trkpt lat="44.844241240633885" lon="10.320245173965588"><ele>40.5</ele><time>2026-04-11T11:46:26.999Z</time></trkpt><trkpt lat="44.84416479110928" lon="10.320567772541924"><ele>41.0</ele><time>2026-04-11T11:46:27.999Z</time></trkpt><trkpt lat="44.844087610336004" lon="10.320889048120437"><ele>41.0</ele><time>2026-04-11T11:46:28.999Z</time></trkpt><trkpt lat="44.844002440098336" lon="10.321215837195002"><ele>41.0</ele><time>2026-04-11T11:46:29.999Z</time></trkpt><trkpt lat="44.84392295996553" lon="10.321544035019718"><ele>41.0</ele><time>2026-04-11T11:46:30.999Z</time></trkpt><trkpt lat="44.84384639918128" lon="10.321872964003767"><ele>41.0</ele><time>2026-04-11T11:46:31.999Z</time></trkpt><trkpt lat="44.843771649468785" lon="10.322201298546895"><ele>42.0</ele><time>2026-04-11T11:46:32.999Z</time></trkpt><trkpt lat="44.84369247683761" lon="10.322537447027065"><ele>43.0</ele><time>2026-04-11T11:46:33.999Z</time></trkpt><trkpt lat="44.8436099359441" lon="10.322869273677782"><ele>42.0</ele><time>2026-04-11T11:46:34.999Z</time></trkpt><trkpt lat="44.843530808654606" lon="10.323205467743557"><ele>41.0</ele><time>2026-04-11T11:46:35.999Z</time></trkpt><trkpt lat="44.843452599615034" lon="10.323531968871963"><ele>41.0</ele><time>2026-04-11T11:46:36.999Z</time></trkpt><trkpt lat="44.84337168539806" lon="10.32387297157055"><ele>41.0</ele><time>2026-04-11T11:46:37.999Z</time></trkpt><trkpt lat="44.84328917359159" lon="10.32421016182891"><ele>40.0</ele><time>2026-04-11T11:46:38.999Z</time></trkpt><trkpt lat="44.84320910241396" lon="10.324544159880414"><ele>39.0</ele><time>2026-04-11T11:46:39.999Z</time></trkpt><trkpt lat="44.84313223970188" lon="10.324875646681578"><ele>39.0</ele><time>2026-04-11T11:46:40.999Z</time></trkpt><trkpt lat="44.84305188487328" lon="10.32520983741095"><ele>39.0</ele><time>2026-04-11T11:46:41.999Z</time></trkpt><trkpt lat="44.84297126195824" lon="10.325545875157538"><ele>39.0</ele><time>2026-04-11T11:46:42.999Z</time></trkpt><trkpt lat="44.842894213015796" lon="10.325879552320309"><ele>39.0</ele><time>2026-04-11T11:46:43.999Z</time></trkpt><trkpt lat="44.84281694908906" lon="10.326215669297769"><ele>39.0</ele><time>2026-04-11T11:46:44.999Z</time></trkpt><trkpt lat="44.84273275492636" lon="10.326550859256002"><ele>39.0</ele><time>2026-04-11T11:46:45.999Z</time></trkpt><trkpt lat="44.8426512296502" lon="10.326887720086333"><ele>39.0</ele><time>2026-04-11T11:46:46.999Z</time></trkpt><trkpt lat="44.842572612539406" lon="10.327218870080747"><ele>39.0</ele><time>2026-04-11T11:46:47.999Z</time></trkpt><trkpt lat="44.8424881356161" lon="10.327554589298225"><ele>39.5</ele><time>2026-04-11T11:46:48.999Z</time></trkpt><trkpt lat="44.84240768970014" lon="10.327886237545545"><ele>40.0</ele><time>2026-04-11T11:46:49.999Z</time></trkpt><trkpt lat="44.842329680810515" lon="10.328217109915466"><ele>40.0</ele><time>2026-04-11T11:46:50.999Z</time></trkpt><trkpt lat="44.8422492046455" lon="10.328553617310323"><ele>40.0</ele><time>2026-04-11T11:46:51.999Z</time></trkpt><trkpt lat="44.84216752678308" lon="10.328885443086964"><ele>39.0</ele><time>2026-04-11T11:46:52.999Z</time></trkpt><trkpt lat="44.84208525120146" lon="10.329219683867333"><ele>38.0</ele><time>2026-04-11T11:46:53.999Z</time></trkpt><trkpt lat="44.842003322254044" lon="10.32955650208165"><ele>37.5</ele><time>2026-04-11T11:46:54.999Z</time></trkpt><trkpt lat="44.84192995926212" lon="10.329889984747023"><ele>37.0</ele><time>2026-04-11T11:46:55.999Z</time></trkpt><trkpt lat="44.84185010435896" lon="10.330226493881835"><ele>37.0</ele><time>2026-04-11T11:46:56.999Z</time></trkpt><trkpt lat="44.841766669043146" lon="10.330565366996128"><ele>37.0</ele><time>2026-04-11T11:46:57.998Z</time></trkpt><trkpt lat="44.841685261188566" lon="10.330900992724352"><ele>37.0</ele><time>2026-04-11T11:46:58.998Z</time></trkpt><trkpt lat="44.841601602553325" lon="10.331240533393904"><ele>37.0</ele><time>2026-04-11T11:46:59.998Z</time></trkpt><trkpt lat="44.84151940206071" lon="10.331581712647004"><ele>36.5</ele><time>2026-04-11T11:47:00.998Z</time></trkpt><trkpt lat="44.84143791207902" lon="10.331924720070429"><ele>36.0</ele><time>2026-04-11T11:47:01.998Z</time></trkpt><trkpt lat="44.84135881865472" lon="10.33226567968637"><ele>37.0</ele><time>2026-04-11T11:47:02.998Z</time></trkpt><trkpt lat="44.841277707463725" lon="10.332608790828532"><ele>38.0</ele><time>2026-04-11T11:47:03.998Z</time></trkpt><trkpt lat="44.841195884069485" lon="10.332960258097419"><ele>39.0</ele><time>2026-04-11T11:47:04.998Z</time></trkpt><trkpt lat="44.84111761320593" lon="10.333303740438106"><ele>40.0</ele><time>2026-04-11T11:47:05.998Z</time></trkpt><trkpt lat="44.84103370370926" lon="10.333650148765457"><ele>38.5</ele><time>2026-04-11T11:47:06.998Z</time></trkpt><trkpt lat="44.840946771633156" lon="10.333998163148907"><ele>37.0</ele><time>2026-04-11T11:47:07.998Z</time></trkpt><trkpt lat="44.84086002531393" lon="10.334348778060782"><ele>37.0</ele><time>2026-04-11T11:47:08.998Z</time></trkpt><trkpt lat="44.840775357258956" lon="10.334696962578173"><ele>37.0</ele><time>2026-04-11T11:47:09.998Z</time></trkpt><trkpt lat="44.84069103587258" lon="10.33504983591634"><ele>37.0</ele><time>2026-04-11T11:47:10.998Z</time></trkpt><trkpt lat="44.84060727818325" lon="10.33540215853826"><ele>37.0</ele><time>2026-04-11T11:47:11.998Z</time></trkpt><trkpt lat="44.840524578808036" lon="10.335751985002275"><ele>37.0</ele><time>2026-04-11T11:47:12.998Z</time></trkpt><trkpt lat="44.840438923960036" lon="10.336105229004795"><ele>37.0</ele><time>2026-04-11T11:47:13.998Z</time></trkpt><trkpt lat="44.84035817912483" lon="10.336446982001448"><ele>37.5</ele><time>2026-04-11T11:47:14.998Z</time></trkpt><trkpt lat="44.840282830986745" lon="10.336797847513786"><ele>38.0</ele><time>2026-04-11T11:47:15.998Z</time></trkpt><trkpt lat="44.84019387197157" lon="10.33714785205368"><ele>38.0</ele><time>2026-04-11T11:47:16.998Z</time></trkpt><trkpt lat="44.84011717298167" lon="10.337501308966662"><ele>38.0</ele><time>2026-04-11T11:47:17.998Z</time></trkpt><trkpt lat="44.84004257427205" lon="10.337849327468454"><ele>38.0</ele><time>2026-04-11T11:47:18.998Z</time></trkpt><trkpt lat="44.83996476790058" lon="10.3381961883019"><ele>38.0</ele><time>2026-04-11T11:47:19.998Z</time></trkpt><trkpt lat="44.839879819125684" lon="10.33854564355509"><ele>39.5</ele><time>2026-04-11T11:47:20.998Z</time></trkpt><trkpt lat="44.83979790947785" lon="10.338892090673195"><ele>41.0</ele><time>2026-04-11T11:47:21.998Z</time></trkpt><trkpt lat="44.83971894904769" lon="10.339235756010655"><ele>41.0</ele><time>2026-04-11T11:47:22.998Z</time></trkpt><trkpt lat="44.83963669064049" lon="10.339579710346703"><ele>41.0</ele><time>2026-04-11T11:47:23.998Z</time></trkpt><trkpt lat="44.839548706751636" lon="10.339919643152774"><ele>40.5</ele><time>2026-04-11T11:47:24.998Z</time></trkpt><trkpt lat="44.839460719862196" lon="10.340261447265112"><ele>40.0</ele><time>2026-04-11T11:47:25.998Z</time></trkpt><trkpt lat="44.83938041118251" lon="10.340596934949932"><ele>39.0</ele><time>2026-04-11T11:47:26.998Z</time></trkpt><trkpt lat="44.839289893541554" lon="10.340936692403334"><ele>38.0</ele><time>2026-04-11T11:47:27.998Z</time></trkpt><trkpt lat="44.83921230419092" lon="10.341283841237482"><ele>37.5</ele><time>2026-04-11T11:47:28.998Z</time></trkpt><trkpt lat="44.83913480021562" lon="10.34161902892515"><ele>37.0</ele><time>2026-04-11T11:47:30Z</time></trkpt><trkpt lat="44.83905433494582" lon="10.341963152219984"><ele>36.5</ele><time>2026-04-11T11:47:31Z</time></trkpt><trkpt lat="44.838974265925785" lon="10.342304975326092"><ele>36.0</ele><time>2026-04-11T11:47:32Z</time></trkpt><trkpt lat="44.8388902239736" lon="10.3426441881886"><ele>36.0</ele><time>2026-04-11T11:47:33Z</time></trkpt><trkpt lat="44.838807792164516" lon="10.34298153683291"><ele>36.0</ele><time>2026-04-11T11:47:34Z</time></trkpt><trkpt lat="44.83872973502053" lon="10.343326372928177"><ele>36.5</ele><time>2026-04-11T11:47:35Z</time></trkpt><trkpt lat="44.83864736264894" lon="10.343666588498753"><ele>37.0</ele><time>2026-04-11T11:47:36Z</time></trkpt><trkpt lat="44.838562438195865" lon="10.344004993817007"><ele>37.0</ele><time>2026-04-11T11:47:37Z</time></trkpt><trkpt lat="44.83848210971758" lon="10.344336262803502"><ele>37.0</ele><time>2026-04-11T11:47:38Z</time></trkpt><trkpt lat="44.838402310265955" lon="10.344669522137075"><ele>37.5</ele><time>2026-04-11T11:47:39Z</time></trkpt><trkpt lat="44.83832443554008" lon="10.344998138732072"><ele>38.0</ele><time>2026-04-11T11:47:40Z</time></trkpt><trkpt lat="44.83824245652585" lon="10.345332951121852"><ele>38.5</ele><time>2026-04-11T11:47:41Z</time></trkpt><trkpt lat="44.83816004570399" lon="10.345667293460584"><ele>39.0</ele><time>2026-04-11T11:47:42Z</time></trkpt><trkpt lat="44.838079712331606" lon="10.345996432510391"><ele>39.0</ele><time>2026-04-11T11:47:43Z</time></trkpt><trkpt lat="44.8380029275614" lon="10.346320692697022"><ele>39.0</ele><time>2026-04-11T11:47:44Z</time></trkpt><trkpt lat="44.83792679234891" lon="10.346643899117439"><ele>39.0</ele><time>2026-04-11T11:47:45Z</time></trkpt><trkpt lat="44.837847153259354" lon="10.34696743245753"><ele>39.0</ele><time>2026-04-11T11:47:46Z</time></trkpt><trkpt lat="44.83776565168353" lon="10.347288609333216"><ele>39.0</ele><time>2026-04-11T11:47:47Z</time></trkpt><trkpt lat="44.83768610110239" lon="10.347613028422142"><ele>39.0</ele><time>2026-04-11T11:47:48Z</time></trkpt><trkpt lat="44.83760683736799" lon="10.34793926503169"><ele>40.5</ele><time>2026-04-11T11:47:49Z</time></trkpt><trkpt lat="44.837526990944475" lon="10.34826548592874"><ele>42.0</ele><time>2026-04-11T11:47:50Z</time></trkpt><trkpt lat="44.83744455406535" lon="10.348589975554729"><ele>41.5</ele><time>2026-04-11T11:47:51Z</time></trkpt><trkpt lat="44.837358624339785" lon="10.348920263599226"><ele>41.0</ele><time>2026-04-11T11:47:52Z</time></trkpt><trkpt lat="44.83727326357717" lon="10.349252147462991"><ele>41.0</ele><time>2026-04-11T11:47:53Z</time></trkpt><trkpt lat="44.83719141314781" lon="10.349582255731123"><ele>41.0</ele><time>2026-04-11T11:47:54Z</time></trkpt><trkpt lat="44.83710316380508" lon="10.349918098581407"><ele>41.0</ele><time>2026-04-11T11:47:55Z</time></trkpt><trkpt lat="44.83701245664912" lon="10.350251034768688"><ele>41.0</ele><time>2026-04-11T11:47:56Z</time></trkpt><trkpt lat="44.836918179691615" lon="10.350580094013392"><ele>40.0</ele><time>2026-04-11T11:47:57Z</time></trkpt><trkpt lat="44.836821468406136" lon="10.350913636355234"><ele>39.0</ele><time>2026-04-11T11:47:58Z</time></trkpt><trkpt lat="44.836722498784056" lon="10.351245202495111"><ele>38.5</ele><time>2026-04-11T11:47:59Z</time></trkpt><trkpt lat="44.83662393489451" lon="10.351575597766825"><ele>38.0</ele><time>2026-04-11T11:48:00Z</time></trkpt><trkpt lat="44.836521837005975" lon="10.35190909352856"><ele>37.0</ele><time>2026-04-11T11:48:01Z</time></trkpt><trkpt lat="44.83641577450341" lon="10.352244365813267"><ele>36.0</ele><time>2026-04-11T11:48:02Z</time></trkpt><trkpt lat="44.836306439488524" lon="10.352581193772407"><ele>36.0</ele><time>2026-04-11T11:48:03Z</time></trkpt><trkpt lat="44.836191023480225" lon="10.352915714256127"><ele>36.0</ele><time>2026-04-11T11:48:04Z</time></trkpt><trkpt lat="44.836072410777554" lon="10.353252522727608"><ele>36.0</ele><time>2026-04-11T11:48:04.999Z</time></trkpt><trkpt lat="44.835958964450825" lon="10.353582519860213"><ele>36.0</ele><time>2026-04-11T11:48:05.999Z</time></trkpt><trkpt lat="44.835844734430246" lon="10.353922643360196"><ele>36.0</ele><time>2026-04-11T11:48:06.999Z</time></trkpt><trkpt lat="44.83572394461154" lon="10.354262391309247"><ele>36.0</ele><time>2026-04-11T11:48:07.999Z</time></trkpt><trkpt lat="44.835597061096955" lon="10.354595195587708"><ele>36.0</ele><time>2026-04-11T11:48:08.999Z</time></trkpt><trkpt lat="44.83547164427856" lon="10.354924598585932"><ele>36.0</ele><time>2026-04-11T11:48:09.999Z</time></trkpt><trkpt lat="44.83534499957919" lon="10.355255590889245"><ele>35.5</ele><time>2026-04-11T11:48:10.999Z</time></trkpt><trkpt lat="44.835220129917026" lon="10.355583909307624"><ele>35.0</ele><time>2026-04-11T11:48:11.999Z</time></trkpt><trkpt lat="44.835094554407725" lon="10.355919208159742"><ele>36.0</ele><time>2026-04-11T11:48:12.999Z</time></trkpt><trkpt lat="44.83496810736395" lon="10.356252258098346"><ele>37.0</ele><time>2026-04-11T11:48:13.999Z</time></trkpt><trkpt lat="44.83484060503306" lon="10.356586620680588"><ele>37.0</ele><time>2026-04-11T11:48:14.999Z</time></trkpt><trkpt lat="44.83471676978756" lon="10.356916739827854"><ele>37.0</ele><time>2026-04-11T11:48:15.999Z</time></trkpt><trkpt lat="44.83459467815545" lon="10.357247950466638"><ele>36.0</ele><time>2026-04-11T11:48:16.999Z</time></trkpt><trkpt lat="44.83447372390675" lon="10.35757928261091"><ele>35.0</ele><time>2026-04-11T11:48:17.999Z</time></trkpt><trkpt lat="44.834356665813814" lon="10.357906200985632"><ele>36.0</ele><time>2026-04-11T11:48:18.999Z</time></trkpt><trkpt lat="44.83423806414171" lon="10.358230322849295"><ele>37.0</ele><time>2026-04-11T11:48:19.999Z</time></trkpt><trkpt lat="44.83411873421259" lon="10.35854988608819"><ele>37.5</ele><time>2026-04-11T11:48:20.999Z</time></trkpt><trkpt lat="44.83400406991618" lon="10.358870102395416"><ele>38.0</ele><time>2026-04-11T11:48:21.999Z</time></trkpt><trkpt lat="44.83388706019812" lon="10.359194282557"><ele>38.0</ele><time>2026-04-11T11:48:22.999Z</time></trkpt><trkpt lat="44.833767893833794" lon="10.35951409607439"><ele>38.0</ele><time>2026-04-11T11:48:23.999Z</time></trkpt><trkpt lat="44.83365082779797" lon="10.359831447987787"><ele>38.5</ele><time>2026-04-11T11:48:24.999Z</time></trkpt><trkpt lat="44.83353683827584" lon="10.360139371358462"><ele>39.0</ele><time>2026-04-11T11:48:25.999Z</time></trkpt><trkpt lat="44.833415395321246" lon="10.36047019454945"><ele>38.5</ele><time>2026-04-11T11:48:26.999Z</time></trkpt><trkpt lat="44.83329637339611" lon="10.360784195720438"><ele>38.0</ele><time>2026-04-11T11:48:27.999Z</time></trkpt><trkpt lat="44.8331770373665" lon="10.361103506821026"><ele>36.0</ele><time>2026-04-11T11:48:28.999Z</time></trkpt><trkpt lat="44.83305468708749" lon="10.361425157026876"><ele>34.0</ele><time>2026-04-11T11:48:29.999Z</time></trkpt><trkpt lat="44.83293542006129" lon="10.361745995141874"><ele>34.0</ele><time>2026-04-11T11:48:30.999Z</time></trkpt><trkpt lat="44.83281549050581" lon="10.362069389295009"><ele>34.0</ele><time>2026-04-11T11:48:31.999Z</time></trkpt><trkpt lat="44.83269617097029" lon="10.36239147475612"><ele>34.0</ele><time>2026-04-11T11:48:32.999Z</time></trkpt><trkpt lat="44.83257831723771" lon="10.362717361058792"><ele>34.0</ele><time>2026-04-11T11:48:33.999Z</time></trkpt><trkpt lat="44.83245732461998" lon="10.363043944216711"><ele>34.0</ele><time>2026-04-11T11:48:34.999Z</time></trkpt><trkpt lat="44.832333034693704" lon="10.36336998650182"><ele>34.0</ele><time>2026-04-11T11:48:35.999Z</time></trkpt><trkpt lat="44.83221236351596" lon="10.363686803231982"><ele>34.0</ele><time>2026-04-11T11:48:36.999Z</time></trkpt><trkpt lat="44.83209639434867" lon="10.364007001785502"><ele>34.0</ele><time>2026-04-11T11:48:37.999Z</time></trkpt><trkpt lat="44.83197941529383" lon="10.364319843975895"><ele>34.0</ele><time>2026-04-11T11:48:38.999Z</time></trkpt><trkpt lat="44.83185890063239" lon="10.364637820591476"><ele>34.0</ele><time>2026-04-11T11:48:39.999Z</time></trkpt><trkpt lat="44.831740721099344" lon="10.36495236799838"><ele>35.0</ele><time>2026-04-11T11:48:40.999Z</time></trkpt><trkpt lat="44.83162403226487" lon="10.36526676053595"><ele>36.0</ele><time>2026-04-11T11:48:41.999Z</time></trkpt><trkpt lat="44.83150660946586" lon="10.365582387245778"><ele>34.0</ele><time>2026-04-11T11:48:42.999Z</time></trkpt><trkpt lat="44.83138660438585" lon="10.36589855126821"><ele>32.0</ele><time>2026-04-11T11:48:43.999Z</time></trkpt><trkpt lat="44.83126761150643" lon="10.366216924068535"><ele>33.0</ele><time>2026-04-11T11:48:44.999Z</time></trkpt><trkpt lat="44.831150625442426" lon="10.366533842077224"><ele>34.0</ele><time>2026-04-11T11:48:45.999Z</time></trkpt><trkpt lat="44.83103347695158" lon="10.36684841608411"><ele>35.0</ele><time>2026-04-11T11:48:46.999Z</time></trkpt><trkpt lat="44.83091606065471" lon="10.3671645602338"><ele>36.0</ele><time>2026-04-11T11:48:47.999Z</time></trkpt><trkpt lat="44.8307989807953" lon="10.3674793233886"><ele>36.0</ele><time>2026-04-11T11:48:48.999Z</time></trkpt><trkpt lat="44.83068370893409" lon="10.367796603411412"><ele>36.0</ele><time>2026-04-11T11:48:49.999Z</time></trkpt><trkpt lat="44.83056925939512" lon="10.36811498685511"><ele>37.0</ele><time>2026-04-11T11:48:50.999Z</time></trkpt><trkpt lat="44.830453337642766" lon="10.36843153238914"><ele>38.0</ele><time>2026-04-11T11:48:51.999Z</time></trkpt><trkpt lat="44.83033982215476" lon="10.368747221321161"><ele>38.0</ele><time>2026-04-11T11:48:52.999Z</time></trkpt><trkpt lat="44.830219914667076" lon="10.369062183634032"><ele>38.0</ele><time>2026-04-11T11:48:53.999Z</time></trkpt><trkpt lat="44.83009984504232" lon="10.369379039437318"><ele>37.0</ele><time>2026-04-11T11:48:54.999Z</time></trkpt><trkpt lat="44.829983148786205" lon="10.36969679927013"><ele>36.0</ele><time>2026-04-11T11:48:55.999Z</time></trkpt><trkpt lat="44.82986938655231" lon="10.370009496674708"><ele>36.0</ele><time>2026-04-11T11:48:56.999Z</time></trkpt><trkpt lat="44.829750867265226" lon="10.37032765160921"><ele>36.0</ele><time>2026-04-11T11:48:57.999Z</time></trkpt><trkpt lat="44.82963006571096" lon="10.370644926296299"><ele>37.0</ele><time>2026-04-11T11:48:58.999Z</time></trkpt><trkpt lat="44.82950932398102" lon="10.370961882030095"><ele>38.0</ele><time>2026-04-11T11:48:59.999Z</time></trkpt><trkpt lat="44.82938892145278" lon="10.371280294874756"><ele>37.5</ele><time>2026-04-11T11:49:00.999Z</time></trkpt><trkpt lat="44.829270820482925" lon="10.371598470759404"><ele>37.0</ele><time>2026-04-11T11:49:01.999Z</time></trkpt><trkpt lat="44.829153080763604" lon="10.371916188011696"><ele>36.5</ele><time>2026-04-11T11:49:02.999Z</time></trkpt><trkpt lat="44.82903904589907" lon="10.372233543899458"><ele>36.0</ele><time>2026-04-11T11:49:03.999Z</time></trkpt><trkpt lat="44.82892177262316" lon="10.372550204857145"><ele>36.0</ele><time>2026-04-11T11:49:04.999Z</time></trkpt><trkpt lat="44.82880066963536" lon="10.372868575880029"><ele>36.0</ele><time>2026-04-11T11:49:05.999Z</time></trkpt><trkpt lat="44.828680268963986" lon="10.373189245130904"><ele>36.0</ele><time>2026-04-11T11:49:06.999Z</time></trkpt><trkpt lat="44.82856089341763" lon="10.373508241523007"><ele>36.0</ele><time>2026-04-11T11:49:07.998Z</time></trkpt><trkpt lat="44.82844126723042" lon="10.373827403154495"><ele>36.5</ele><time>2026-04-11T11:49:08.998Z</time></trkpt><trkpt lat="44.82832459218337" lon="10.374145752364342"><ele>37.0</ele><time>2026-04-11T11:49:09.998Z</time></trkpt><trkpt lat="44.82820959829782" lon="10.374464348437119"><ele>37.0</ele><time>2026-04-11T11:49:10.998Z</time></trkpt><trkpt lat="44.82809488364747" lon="10.374783679613815"><ele>37.0</ele><time>2026-04-11T11:49:11.998Z</time></trkpt><trkpt lat="44.8279767641105" lon="10.375102389469758"><ele>37.0</ele><time>2026-04-11T11:49:12.998Z</time></trkpt><trkpt lat="44.82785909341552" lon="10.375423348978"><ele>37.0</ele><time>2026-04-11T11:49:13.998Z</time></trkpt><trkpt lat="44.82774578196851" lon="10.375740757014453"><ele>37.5</ele><time>2026-04-11T11:49:14.998Z</time></trkpt><trkpt lat="44.82763271048136" lon="10.376055844994081"><ele>38.0</ele><time>2026-04-11T11:49:15.998Z</time></trkpt><trkpt lat="44.8275177237299" lon="10.37637195169995"><ele>38.5</ele><time>2026-04-11T11:49:16.998Z</time></trkpt><trkpt lat="44.82740138975964" lon="10.376690747484648"><ele>39.0</ele><time>2026-04-11T11:49:17.998Z</time></trkpt><trkpt lat="44.8272845520296" lon="10.377007115694795"><ele>38.5</ele><time>2026-04-11T11:49:18.998Z</time></trkpt><trkpt lat="44.82716714804931" lon="10.377324268402978"><ele>38.0</ele><time>2026-04-11T11:49:19.998Z</time></trkpt><trkpt lat="44.82705633277637" lon="10.377642447027721"><ele>38.0</ele><time>2026-04-11T11:49:20.998Z</time></trkpt><trkpt lat="44.826938491644576" lon="10.377963567793579"><ele>38.0</ele><time>2026-04-11T11:49:21.998Z</time></trkpt><trkpt lat="44.8268186921799" lon="10.378278721949782"><ele>38.5</ele><time>2026-04-11T11:49:22.998Z</time></trkpt><trkpt lat="44.82669973045065" lon="10.378591306961585"><ele>39.0</ele><time>2026-04-11T11:49:23.998Z</time></trkpt><trkpt lat="44.82657642041241" lon="10.378899195909455"><ele>39.0</ele><time>2026-04-11T11:49:24.998Z</time></trkpt><trkpt lat="44.82645845826759" lon="10.379214668881497"><ele>39.0</ele><time>2026-04-11T11:49:25.998Z</time></trkpt><trkpt lat="44.82634928261083" lon="10.379535975917378"><ele>39.5</ele><time>2026-04-11T11:49:26.998Z</time></trkpt><trkpt lat="44.82623342912054" lon="10.379852749993908"><ele>40.0</ele><time>2026-04-11T11:49:27.998Z</time></trkpt><trkpt lat="44.82611463897869" lon="10.380168859161403"><ele>40.0</ele><time>2026-04-11T11:49:28.998Z</time></trkpt><trkpt lat="44.825999128171986" lon="10.380480446571914"><ele>40.0</ele><time>2026-04-11T11:49:29.998Z</time></trkpt><trkpt lat="44.82587747086423" lon="10.380787498046766"><ele>39.5</ele><time>2026-04-11T11:49:30.998Z</time></trkpt><trkpt lat="44.825759113801055" lon="10.381092057524949"><ele>39.0</ele><time>2026-04-11T11:49:31.998Z</time></trkpt><trkpt lat="44.825641128263264" lon="10.381401819884431"><ele>38.5</ele><time>2026-04-11T11:49:32.998Z</time></trkpt><trkpt lat="44.825527665446714" lon="10.381709044094523"><ele>38.0</ele><time>2026-04-11T11:49:33.998Z</time></trkpt><trkpt lat="44.82541246515475" lon="10.382014163886229"><ele>38.5</ele><time>2026-04-11T11:49:34.998Z</time></trkpt><trkpt lat="44.82529798957276" lon="10.382317139575262"><ele>39.0</ele><time>2026-04-11T11:49:36Z</time></trkpt><trkpt lat="44.825180692851205" lon="10.382621552183412"><ele>40.0</ele><time>2026-04-11T11:49:37Z</time></trkpt><trkpt lat="44.82506572920644" lon="10.38292727108637"><ele>41.0</ele><time>2026-04-11T11:49:38Z</time></trkpt><trkpt lat="44.82495673617333" lon="10.38323378394642"><ele>41.0</ele><time>2026-04-11T11:49:39Z</time></trkpt><trkpt lat="44.82485141205719" lon="10.383538834594663"><ele>41.0</ele><time>2026-04-11T11:49:40Z</time></trkpt><trkpt lat="44.82473859395679" lon="10.383846357252143"><ele>41.0</ele><time>2026-04-11T11:49:41Z</time></trkpt><trkpt lat="44.82462604455282" lon="10.384152781996198"><ele>41.0</ele><time>2026-04-11T11:49:42Z</time></trkpt><trkpt lat="44.82451805199136" lon="10.384461558878852"><ele>42.0</ele><time>2026-04-11T11:49:43Z</time></trkpt><trkpt lat="44.82440963942953" lon="10.384761655350324"><ele>43.0</ele><time>2026-04-11T11:49:44Z</time></trkpt><trkpt lat="44.824307425343555" lon="10.385040309748566"><ele>41.5</ele><time>2026-04-11T11:49:45Z</time></trkpt><trkpt lat="44.82420502288424" lon="10.38532042830911"><ele>40.0</ele><time>2026-04-11T11:49:46Z</time></trkpt><trkpt lat="44.824102925186246" lon="10.385608427584556"><ele>40.0</ele><time>2026-04-11T11:49:47Z</time></trkpt><trkpt lat="44.82399953273537" lon="10.385910746689968"><ele>40.0</ele><time>2026-04-11T11:49:48Z</time></trkpt><trkpt lat="44.82389647911677" lon="10.38622454181728"><ele>40.0</ele><time>2026-04-11T11:49:49Z</time></trkpt><trkpt lat="44.82378722845692" lon="10.38653337848062"><ele>40.0</ele><time>2026-04-11T11:49:50Z</time></trkpt><trkpt lat="44.823670588233576" lon="10.38684621199902"><ele>40.0</ele><time>2026-04-11T11:49:51Z</time></trkpt><trkpt lat="44.82355073257045" lon="10.387170234533775"><ele>40.0</ele><time>2026-04-11T11:49:52Z</time></trkpt><trkpt lat="44.82343445443148" lon="10.38749031374047"><ele>39.0</ele><time>2026-04-11T11:49:53Z</time></trkpt><trkpt lat="44.823318484798136" lon="10.387816832618146"><ele>38.0</ele><time>2026-04-11T11:49:54Z</time></trkpt><trkpt lat="44.82319816294318" lon="10.388144994182447"><ele>37.0</ele><time>2026-04-11T11:49:55Z</time></trkpt><trkpt lat="44.82307906216512" lon="10.3884758039908"><ele>36.0</ele><time>2026-04-11T11:49:56Z</time></trkpt><trkpt lat="44.82295300290023" lon="10.388803437580417"><ele>36.0</ele><time>2026-04-11T11:49:57Z</time></trkpt><trkpt lat="44.82281543686203" lon="10.38913228932971"><ele>36.0</ele><time>2026-04-11T11:49:58Z</time></trkpt><trkpt lat="44.82267864566721" lon="10.389466180661689"><ele>37.5</ele><time>2026-04-11T11:49:59Z</time></trkpt><trkpt lat="44.822542515458885" lon="10.389789931877328"><ele>39.0</ele><time>2026-04-11T11:50:00Z</time></trkpt><trkpt lat="44.82239875304067" lon="10.39011756809091"><ele>39.0</ele><time>2026-04-11T11:50:01Z</time></trkpt><trkpt lat="44.822276329366574" lon="10.390444064361768"><ele>39.0</ele><time>2026-04-11T11:50:02Z</time></trkpt><trkpt lat="44.8221506283137" lon="10.390776347434478"><ele>39.0</ele><time>2026-04-11T11:50:03Z</time></trkpt><trkpt lat="44.8220353034696" lon="10.391145112862826"><ele>39.0</ele><time>2026-04-11T11:50:04Z</time></trkpt><trkpt lat="44.8219191391692" lon="10.391488444771786"><ele>40.5</ele><time>2026-04-11T11:50:05Z</time></trkpt><trkpt lat="44.82179591352935" lon="10.391825023347776"><ele>42.0</ele><time>2026-04-11T11:50:06Z</time></trkpt><trkpt lat="44.821673770472856" lon="10.392157292166422"><ele>40.0</ele><time>2026-04-11T11:50:07Z</time></trkpt><trkpt lat="44.82154762434105" lon="10.39249681914418"><ele>38.0</ele><time>2026-04-11T11:50:08Z</time></trkpt><trkpt lat="44.82141949893883" lon="10.392832170251062"><ele>36.5</ele><time>2026-04-11T11:50:09Z</time></trkpt><trkpt lat="44.821298105940855" lon="10.393162420439571"><ele>35.0</ele><time>2026-04-11T11:50:10Z</time></trkpt><trkpt lat="44.82118128420391" lon="10.393493939779084"><ele>35.0</ele><time>2026-04-11T11:50:11Z</time></trkpt><trkpt lat="44.821063492876796" lon="10.393825254722472"><ele>35.0</ele><time>2026-04-11T11:50:12Z</time></trkpt><trkpt lat="44.82093925449094" lon="10.394150713976066"><ele>35.0</ele><time>2026-04-11T11:50:13Z</time></trkpt><trkpt lat="44.820818716691534" lon="10.394473299930606"><ele>35.0</ele><time>2026-04-11T11:50:14Z</time></trkpt><trkpt lat="44.820701099532336" lon="10.394796761256753"><ele>35.0</ele><time>2026-04-11T11:50:15Z</time></trkpt><trkpt lat="44.820586236546504" lon="10.395117725662484"><ele>35.0</ele><time>2026-04-11T11:50:16Z</time></trkpt><trkpt lat="44.82046661508291" lon="10.39543829265198"><ele>34.5</ele><time>2026-04-11T11:50:17Z</time></trkpt><trkpt lat="44.82034972356778" lon="10.395754495276837"><ele>34.0</ele><time>2026-04-11T11:50:18Z</time></trkpt><trkpt lat="44.820228807285304" lon="10.396067589882376"><ele>35.0</ele><time>2026-04-11T11:50:18.999Z</time></trkpt><trkpt lat="44.82011258989582" lon="10.396381035437182"><ele>36.0</ele><time>2026-04-11T11:50:19.999Z</time></trkpt><trkpt lat="44.819994386404055" lon="10.396693171410204"><ele>36.0</ele><time>2026-04-11T11:50:20.999Z</time></trkpt><trkpt lat="44.819872434369316" lon="10.397008444508526"><ele>36.0</ele><time>2026-04-11T11:50:21.999Z</time></trkpt><trkpt lat="44.81975881802498" lon="10.397323361923325"><ele>36.0</ele><time>2026-04-11T11:50:22.999Z</time></trkpt><trkpt lat="44.81964525761937" lon="10.397636224530272"><ele>36.0</ele><time>2026-04-11T11:50:23.999Z</time></trkpt><trkpt lat="44.819530351972624" lon="10.397949204195378"><ele>35.5</ele><time>2026-04-11T11:50:24.999Z</time></trkpt><trkpt lat="44.81941323181479" lon="10.398262091147311"><ele>35.0</ele><time>2026-04-11T11:50:25.999Z</time></trkpt><trkpt lat="44.81929205889802" lon="10.398572347550703"><ele>35.5</ele><time>2026-04-11T11:50:26.999Z</time></trkpt><trkpt lat="44.81917414975771" lon="10.398878018183183"><ele>36.0</ele><time>2026-04-11T11:50:27.999Z</time></trkpt><trkpt lat="44.81906386502502" lon="10.399185035057318"><ele>36.0</ele><time>2026-04-11T11:50:28.999Z</time></trkpt><trkpt lat="44.81895188884144" lon="10.399487818445088"><ele>36.0</ele><time>2026-04-11T11:50:29.999Z</time></trkpt><trkpt lat="44.81883521597871" lon="10.399793019764951"><ele>35.5</ele><time>2026-04-11T11:50:30.999Z</time></trkpt><trkpt lat="44.81872060559583" lon="10.400101054101711"><ele>35.0</ele><time>2026-04-11T11:50:31.999Z</time></trkpt><trkpt lat="44.81861396076145" lon="10.400398404491636"><ele>35.0</ele><time>2026-04-11T11:50:32.999Z</time></trkpt><trkpt lat="44.81850020716596" lon="10.40070255090039"><ele>35.0</ele><time>2026-04-11T11:50:33.999Z</time></trkpt><trkpt lat="44.81838789858792" lon="10.401003950428025"><ele>34.0</ele><time>2026-04-11T11:50:34.999Z</time></trkpt><trkpt lat="44.81827677204552" lon="10.40130585400345"><ele>33.0</ele><time>2026-04-11T11:50:35.999Z</time></trkpt><trkpt lat="44.81816593013197" lon="10.401600366597936"><ele>33.0</ele><time>2026-04-11T11:50:36.999Z</time></trkpt><trkpt lat="44.81805122157689" lon="10.401903524795078"><ele>33.0</ele><time>2026-04-11T11:50:37.999Z</time></trkpt><trkpt lat="44.81793837408358" lon="10.402204350663334"><ele>34.5</ele><time>2026-04-11T11:50:38.999Z</time></trkpt><trkpt lat="44.81783105443699" lon="10.402498695559627"><ele>36.0</ele><time>2026-04-11T11:50:39.999Z</time></trkpt><trkpt lat="44.81771753102522" lon="10.402800923060827"><ele>35.0</ele><time>2026-04-11T11:50:40.999Z</time></trkpt><trkpt lat="44.81760475170206" lon="10.403102737103401"><ele>34.0</ele><time>2026-04-11T11:50:41.999Z</time></trkpt><trkpt lat="44.817490696097174" lon="10.403404212877117"><ele>34.0</ele><time>2026-04-11T11:50:42.999Z</time></trkpt><trkpt lat="44.81738113403527" lon="10.403703516400444"><ele>34.0</ele><time>2026-04-11T11:50:43.999Z</time></trkpt><trkpt lat="44.817272644564284" lon="10.404001672238891"><ele>34.0</ele><time>2026-04-11T11:50:44.999Z</time></trkpt><trkpt lat="44.817161671942586" lon="10.404306834560499"><ele>34.0</ele><time>2026-04-11T11:50:45.999Z</time></trkpt><trkpt lat="44.817052234418064" lon="10.404613549404589"><ele>33.5</ele><time>2026-04-11T11:50:46.999Z</time></trkpt><trkpt lat="44.816943607547586" lon="10.40491555634594"><ele>33.0</ele><time>2026-04-11T11:50:47.999Z</time></trkpt><trkpt lat="44.81682690538355" lon="10.4052219202913"><ele>34.0</ele><time>2026-04-11T11:50:48.999Z</time></trkpt><trkpt lat="44.816709502510136" lon="10.405525842545174"><ele>35.0</ele><time>2026-04-11T11:50:49.999Z</time></trkpt><trkpt lat="44.81659569886568" lon="10.405823008290604"><ele>35.0</ele><time>2026-04-11T11:50:50.999Z</time></trkpt><trkpt lat="44.81647901522112" lon="10.406128713291617"><ele>35.0</ele><time>2026-04-11T11:50:51.999Z</time></trkpt><trkpt lat="44.81636835886586" lon="10.406427627934734"><ele>35.0</ele><time>2026-04-11T11:50:52.999Z</time></trkpt><trkpt lat="44.81625613412473" lon="10.406736357629775"><ele>35.0</ele><time>2026-04-11T11:50:53.999Z</time></trkpt><trkpt lat="44.816144693153255" lon="10.40704363593929"><ele>35.0</ele><time>2026-04-11T11:50:54.999Z</time></trkpt><trkpt lat="44.816028689908144" lon="10.407350750463351"><ele>35.0</ele><time>2026-04-11T11:50:55.999Z</time></trkpt><trkpt lat="44.81591420295463" lon="10.407659202047283"><ele>35.0</ele><time>2026-04-11T11:50:56.999Z</time></trkpt><trkpt lat="44.81580180332553" lon="10.407960309627995"><ele>35.0</ele><time>2026-04-11T11:50:57.999Z</time></trkpt><trkpt lat="44.81568521142889" lon="10.408269500514294"><ele>35.0</ele><time>2026-04-11T11:50:58.999Z</time></trkpt><trkpt lat="44.81556862476501" lon="10.408582485014863"><ele>35.0</ele><time>2026-04-11T11:50:59.999Z</time></trkpt><trkpt lat="44.81545358359595" lon="10.408882995573903"><ele>35.0</ele><time>2026-04-11T11:51:00.999Z</time></trkpt><trkpt lat="44.81522998488471" lon="10.409506858454945"><ele>36.5</ele><time>2026-04-11T11:51:02.999Z</time></trkpt><trkpt lat="44.81511911517025" lon="10.409813723246657"><ele>38.0</ele><time>2026-04-11T11:51:03.999Z</time></trkpt><trkpt lat="44.81500676992799" lon="10.41011953213214"><ele>38.0</ele><time>2026-04-11T11:51:04.999Z</time></trkpt><trkpt lat="44.81489387283314" lon="10.410422308751391"><ele>38.0</ele><time>2026-04-11T11:51:05.999Z</time></trkpt><trkpt lat="44.81478148458128" lon="10.410722236083748"><ele>37.5</ele><time>2026-04-11T11:51:06.999Z</time></trkpt><trkpt lat="44.814669819263486" lon="10.411020763128853"><ele>37.0</ele><time>2026-04-11T11:51:07.999Z</time></trkpt><trkpt lat="44.81455449900268" lon="10.411319545139364"><ele>36.5</ele><time>2026-04-11T11:51:08.999Z</time></trkpt><trkpt lat="44.81444042330473" lon="10.411617489269387"><ele>36.0</ele><time>2026-04-11T11:51:09.999Z</time></trkpt><trkpt lat="44.81432720031928" lon="10.411917429679043"><ele>37.0</ele><time>2026-04-11T11:51:10.999Z</time></trkpt><trkpt lat="44.81422216185568" lon="10.412212138760548"><ele>38.0</ele><time>2026-04-11T11:51:11.999Z</time></trkpt><trkpt lat="44.81411516825058" lon="10.412508245504462"><ele>38.0</ele><time>2026-04-11T11:51:12.999Z</time></trkpt><trkpt lat="44.81400712267232" lon="10.412806276628084"><ele>38.0</ele><time>2026-04-11T11:51:13.999Z</time></trkpt><trkpt lat="44.813892844839266" lon="10.413106566374953"><ele>38.0</ele><time>2026-04-11T11:51:14.999Z</time></trkpt><trkpt lat="44.81377910273786" lon="10.413406607284061"><ele>38.0</ele><time>2026-04-11T11:51:15.999Z</time></trkpt><trkpt lat="44.81366514025793" lon="10.413713973985656"><ele>37.5</ele><time>2026-04-11T11:51:16.999Z</time></trkpt><trkpt lat="44.8135515310508" lon="10.414026133607617"><ele>37.0</ele><time>2026-04-11T11:51:17.999Z</time></trkpt><trkpt lat="44.813441663392744" lon="10.41432931045958"><ele>37.0</ele><time>2026-04-11T11:51:18.999Z</time></trkpt><trkpt lat="44.81332436416482" lon="10.414643374543884"><ele>37.0</ele><time>2026-04-11T11:51:19.999Z</time></trkpt><trkpt lat="44.813209157013034" lon="10.414953276077886"><ele>37.5</ele><time>2026-04-11T11:51:20.998Z</time></trkpt><trkpt lat="44.813093992552005" lon="10.41526411066611"><ele>38.0</ele><time>2026-04-11T11:51:21.998Z</time></trkpt><trkpt lat="44.81297795479266" lon="10.415576423574926"><ele>38.0</ele><time>2026-04-11T11:51:22.998Z</time></trkpt><trkpt lat="44.81286260623082" lon="10.415886085256"><ele>38.0</ele><time>2026-04-11T11:51:23.998Z</time></trkpt><trkpt lat="44.81274615266541" lon="10.41620154895995"><ele>36.5</ele><time>2026-04-11T11:51:24.998Z</time></trkpt><trkpt lat="44.812630376983115" lon="10.416519971019937"><ele>35.0</ele><time>2026-04-11T11:51:25.998Z</time></trkpt><trkpt lat="44.81251455849277" lon="10.416839092455694"><ele>35.0</ele><time>2026-04-11T11:51:26.998Z</time></trkpt><trkpt lat="44.81239680714016" lon="10.417154816612545"><ele>35.0</ele><time>2026-04-11T11:51:27.998Z</time></trkpt><trkpt lat="44.81227123270972" lon="10.41747526730051"><ele>35.0</ele><time>2026-04-11T11:51:28.998Z</time></trkpt><trkpt lat="44.8121482115743" lon="10.417796914279323"><ele>35.0</ele><time>2026-04-11T11:51:29.998Z</time></trkpt><trkpt lat="44.812039780066414" lon="10.418113392102876"><ele>35.5</ele><time>2026-04-11T11:51:30.998Z</time></trkpt><trkpt lat="44.81192051458383" lon="10.418441781055815"><ele>36.0</ele><time>2026-04-11T11:51:31.998Z</time></trkpt><trkpt lat="44.81180095538845" lon="10.41876722347556"><ele>36.5</ele><time>2026-04-11T11:51:32.998Z</time></trkpt><trkpt lat="44.811677736366754" lon="10.419093444352983"><ele>37.0</ele><time>2026-04-11T11:51:33.998Z</time></trkpt><trkpt lat="44.81155578751227" lon="10.419420999124737"><ele>37.0</ele><time>2026-04-11T11:51:34.998Z</time></trkpt><trkpt lat="44.81143619181333" lon="10.419743844647503"><ele>37.0</ele><time>2026-04-11T11:51:35.998Z</time></trkpt><trkpt lat="44.81131100701422" lon="10.42007174963281"><ele>37.0</ele><time>2026-04-11T11:51:36.998Z</time></trkpt><trkpt lat="44.811192011382374" lon="10.42039923534124"><ele>37.0</ele><time>2026-04-11T11:51:37.998Z</time></trkpt><trkpt lat="44.81107138904907" lon="10.420727062024683"><ele>37.0</ele><time>2026-04-11T11:51:38.998Z</time></trkpt><trkpt lat="44.81095283482707" lon="10.421052296469147"><ele>37.0</ele><time>2026-04-11T11:51:39.998Z</time></trkpt><trkpt lat="44.81083197146116" lon="10.421381137467703"><ele>36.5</ele><time>2026-04-11T11:51:40.998Z</time></trkpt><trkpt lat="44.81071397068407" lon="10.421703782889713"><ele>36.0</ele><time>2026-04-11T11:51:42Z</time></trkpt><trkpt lat="44.81059411649498" lon="10.422028281037978"><ele>35.5</ele><time>2026-04-11T11:51:43Z</time></trkpt><trkpt lat="44.810473303203985" lon="10.422351865201525"><ele>35.0</ele><time>2026-04-11T11:51:44Z</time></trkpt><trkpt lat="44.810351847822425" lon="10.422674346635564"><ele>35.0</ele><time>2026-04-11T11:51:45Z</time></trkpt><trkpt lat="44.810233253446704" lon="10.422993720573537"><ele>35.0</ele><time>2026-04-11T11:51:46Z</time></trkpt><trkpt lat="44.81011154451336" lon="10.423319900028439"><ele>35.0</ele><time>2026-04-11T11:51:47Z</time></trkpt><trkpt lat="44.80999692771524" lon="10.423640388762575"><ele>35.0</ele><time>2026-04-11T11:51:48Z</time></trkpt><trkpt lat="44.80987834866011" lon="10.423963220476777"><ele>35.0</ele><time>2026-04-11T11:51:49Z</time></trkpt><trkpt lat="44.80975863703984" lon="10.424287671390768"><ele>35.0</ele><time>2026-04-11T11:51:50Z</time></trkpt><trkpt lat="44.809639592919815" lon="10.424606473336162"><ele>35.0</ele><time>2026-04-11T11:51:51Z</time></trkpt><trkpt lat="44.809519093528195" lon="10.424923182991174"><ele>35.0</ele><time>2026-04-11T11:51:52Z</time></trkpt><trkpt lat="44.80940290048824" lon="10.425240435655237"><ele>37.0</ele><time>2026-04-11T11:51:53Z</time></trkpt><trkpt lat="44.80928339875852" lon="10.425560749576844"><ele>39.0</ele><time>2026-04-11T11:51:54Z</time></trkpt><trkpt lat="44.80916320919214" lon="10.425878745640148"><ele>39.0</ele><time>2026-04-11T11:51:55Z</time></trkpt><trkpt lat="44.80904734990726" lon="10.42619708205103"><ele>39.0</ele><time>2026-04-11T11:51:56Z</time></trkpt><trkpt lat="44.80892694886394" lon="10.426518921352159"><ele>39.0</ele><time>2026-04-11T11:51:57Z</time></trkpt><trkpt lat="44.808808646782786" lon="10.42683515828302"><ele>39.0</ele><time>2026-04-11T11:51:58Z</time></trkpt><trkpt lat="44.80869044239168" lon="10.427154746051283"><ele>38.5</ele><time>2026-04-11T11:51:59Z</time></trkpt><trkpt lat="44.80857105697465" lon="10.427472419043482"><ele>38.0</ele><time>2026-04-11T11:52:00Z</time></trkpt><trkpt lat="44.80845465896401" lon="10.427788431103007"><ele>38.0</ele><time>2026-04-11T11:52:01Z</time></trkpt><trkpt lat="44.80833993297117" lon="10.428102049963158"><ele>38.0</ele><time>2026-04-11T11:52:02Z</time></trkpt><trkpt lat="44.808220207885604" lon="10.428412619149134"><ele>38.0</ele><time>2026-04-11T11:52:03Z</time></trkpt><trkpt lat="44.80810339926079" lon="10.42872485783954"><ele>38.0</ele><time>2026-04-11T11:52:04Z</time></trkpt><trkpt lat="44.807985434352425" lon="10.429038735853865"><ele>37.0</ele><time>2026-04-11T11:52:05Z</time></trkpt><trkpt lat="44.80786810899297" lon="10.429354745960776"><ele>36.0</ele><time>2026-04-11T11:52:06Z</time></trkpt><trkpt lat="44.80774987226262" lon="10.42966637464121"><ele>36.5</ele><time>2026-04-11T11:52:07Z</time></trkpt><trkpt lat="44.807639669461935" lon="10.429977520641375"><ele>37.0</ele><time>2026-04-11T11:52:08Z</time></trkpt><trkpt lat="44.80752892788715" lon="10.430290308663837"><ele>37.5</ele><time>2026-04-11T11:52:09Z</time></trkpt><trkpt lat="44.8074148190724" lon="10.43060020856798"><ele>38.0</ele><time>2026-04-11T11:52:10Z</time></trkpt><trkpt lat="44.80729855457661" lon="10.43090857223031"><ele>38.0</ele><time>2026-04-11T11:52:11Z</time></trkpt><trkpt lat="44.80717968072901" lon="10.43121987056633"><ele>38.0</ele><time>2026-04-11T11:52:12Z</time></trkpt><trkpt lat="44.807060622697875" lon="10.431534261473248"><ele>38.5</ele><time>2026-04-11T11:52:13Z</time></trkpt><trkpt lat="44.80694360159339" lon="10.431850442854957"><ele>39.0</ele><time>2026-04-11T11:52:14Z</time></trkpt><trkpt lat="44.80683373240768" lon="10.432163904191784"><ele>39.0</ele><time>2026-04-11T11:52:15Z</time></trkpt><trkpt lat="44.806724838244925" lon="10.432472668222077"><ele>39.0</ele><time>2026-04-11T11:52:16Z</time></trkpt><trkpt lat="44.80660938595674" lon="10.432782682512968"><ele>38.0</ele><time>2026-04-11T11:52:17Z</time></trkpt><trkpt lat="44.80649037781322" lon="10.433099853575015"><ele>37.0</ele><time>2026-04-11T11:52:18Z</time></trkpt><trkpt lat="44.80637207724731" lon="10.433414901954563"><ele>37.0</ele><time>2026-04-11T11:52:19Z</time></trkpt><trkpt lat="44.806251783116224" lon="10.433731041718346"><ele>37.0</ele><time>2026-04-11T11:52:20Z</time></trkpt><trkpt lat="44.80613426869354" lon="10.434050209806264"><ele>37.0</ele><time>2026-04-11T11:52:21Z</time></trkpt><trkpt lat="44.806013952360836" lon="10.43437027909451"><ele>37.0</ele><time>2026-04-11T11:52:22Z</time></trkpt><trkpt lat="44.80589226383756" lon="10.434690713506503"><ele>38.0</ele><time>2026-04-11T11:52:23Z</time></trkpt><trkpt lat="44.80577351517109" lon="10.435013959188785"><ele>39.0</ele><time>2026-04-11T11:52:24Z</time></trkpt><trkpt lat="44.805656165226324" lon="10.435337859135473"><ele>39.0</ele><time>2026-04-11T11:52:25Z</time></trkpt><trkpt lat="44.8055356029719" lon="10.435662053321519"><ele>39.0</ele><time>2026-04-11T11:52:26Z</time></trkpt><trkpt lat="44.80541331281041" lon="10.435983757670622"><ele>38.5</ele><time>2026-04-11T11:52:27Z</time></trkpt><trkpt lat="44.80529053886333" lon="10.436307988513466"><ele>38.0</ele><time>2026-04-11T11:52:28Z</time></trkpt><trkpt lat="44.80517218321183" lon="10.436636636247227"><ele>38.0</ele><time>2026-04-11T11:52:29Z</time></trkpt><trkpt lat="44.805050658920784" lon="10.43696847710659"><ele>38.0</ele><time>2026-04-11T11:52:30Z</time></trkpt><trkpt lat="44.80492949897458" lon="10.437303559887587"><ele>38.0</ele><time>2026-04-11T11:52:30.999Z</time></trkpt><trkpt lat="44.804815632750504" lon="10.43763611369839"><ele>38.0</ele><time>2026-04-11T11:52:31.999Z</time></trkpt><trkpt lat="44.804693422957776" lon="10.437973172868857"><ele>38.0</ele><time>2026-04-11T11:52:32.999Z</time></trkpt><trkpt lat="44.80457042520749" lon="10.438306849341645"><ele>38.0</ele><time>2026-04-11T11:52:33.999Z</time></trkpt><trkpt lat="44.80444466383017" lon="10.438636967162566"><ele>38.0</ele><time>2026-04-11T11:52:34.999Z</time></trkpt><trkpt lat="44.80431735083204" lon="10.438969786060554"><ele>38.0</ele><time>2026-04-11T11:52:35.999Z</time></trkpt><trkpt lat="44.80419273072885" lon="10.439308069365644"><ele>39.0</ele><time>2026-04-11T11:52:36.999Z</time></trkpt><trkpt lat="44.80407041762823" lon="10.439643578729527"><ele>40.0</ele><time>2026-04-11T11:52:37.999Z</time></trkpt><trkpt lat="44.8039450322768" lon="10.43997729596342"><ele>40.0</ele><time>2026-04-11T11:52:38.999Z</time></trkpt><trkpt lat="44.803818680902815" lon="10.440309922359445"><ele>40.0</ele><time>2026-04-11T11:52:39.999Z</time></trkpt><trkpt lat="44.803695428019324" lon="10.44063548578992"><ele>39.5</ele><time>2026-04-11T11:52:40.999Z</time></trkpt><trkpt lat="44.80356923816487" lon="10.440965554728177"><ele>39.0</ele><time>2026-04-11T11:52:41.999Z</time></trkpt><trkpt lat="44.803445263722594" lon="10.441300059535896"><ele>37.5</ele><time>2026-04-11T11:52:42.999Z</time></trkpt><trkpt lat="44.803324666892756" lon="10.441631769793771"><ele>36.0</ele><time>2026-04-11T11:52:43.999Z</time></trkpt><trkpt lat="44.803195384249385" lon="10.441971027950087"><ele>36.5</ele><time>2026-04-11T11:52:44.999Z</time></trkpt><trkpt lat="44.80307142125621" lon="10.442310313687488"><ele>37.0</ele><time>2026-04-11T11:52:45.999Z</time></trkpt><trkpt lat="44.80294477725005" lon="10.442650944079158"><ele>36.5</ele><time>2026-04-11T11:52:46.999Z</time></trkpt><trkpt lat="44.80281441409357" lon="10.44298660413654"><ele>36.0</ele><time>2026-04-11T11:52:47.999Z</time></trkpt><trkpt lat="44.8026876415446" lon="10.44332175251136"><ele>36.0</ele><time>2026-04-11T11:52:48.999Z</time></trkpt><trkpt lat="44.80256253302289" lon="10.443661595291811"><ele>36.0</ele><time>2026-04-11T11:52:49.999Z</time></trkpt><trkpt lat="44.80243459839477" lon="10.444000243518353"><ele>36.0</ele><time>2026-04-11T11:52:50.999Z</time></trkpt><trkpt lat="44.80230809960099" lon="10.444336582621702"><ele>36.0</ele><time>2026-04-11T11:52:51.999Z</time></trkpt><trkpt lat="44.80218519330544" lon="10.44467452803717"><ele>36.0</ele><time>2026-04-11T11:52:52.999Z</time></trkpt><trkpt lat="44.80206359534359" lon="10.445012691736439"><ele>36.0</ele><time>2026-04-11T11:52:53.999Z</time></trkpt><trkpt lat="44.80193812297916" lon="10.445352420623397"><ele>36.0</ele><time>2026-04-11T11:52:54.999Z</time></trkpt><trkpt lat="44.801817594103184" lon="10.445684239957613"><ele>36.0</ele><time>2026-04-11T11:52:55.999Z</time></trkpt><trkpt lat="44.80168971598039" lon="10.446014810369036"><ele>37.0</ele><time>2026-04-11T11:52:56.999Z</time></trkpt><trkpt lat="44.80156297996644" lon="10.446348749707205"><ele>38.0</ele><time>2026-04-11T11:52:57.999Z</time></trkpt><trkpt lat="44.801439813063794" lon="10.446687436711386"><ele>38.0</ele><time>2026-04-11T11:52:58.999Z</time></trkpt><trkpt lat="44.80132465357226" lon="10.447033283971908"><ele>38.0</ele><time>2026-04-11T11:52:59.999Z</time></trkpt><trkpt lat="44.80119997129534" lon="10.447363299389254"><ele>38.5</ele><time>2026-04-11T11:53:00.999Z</time></trkpt><trkpt lat="44.801075942366964" lon="10.447700206997306"><ele>39.0</ele><time>2026-04-11T11:53:01.999Z</time></trkpt><trkpt lat="44.80094965865757" lon="10.448033180400754"><ele>39.0</ele><time>2026-04-11T11:53:02.999Z</time></trkpt><trkpt lat="44.80082743494394" lon="10.4483604604755"><ele>39.0</ele><time>2026-04-11T11:53:03.999Z</time></trkpt><trkpt lat="44.8007093515722" lon="10.448683691318314"><ele>39.5</ele><time>2026-04-11T11:53:04.999Z</time></trkpt><trkpt lat="44.800584440753276" lon="10.449007649457767"><ele>40.0</ele><time>2026-04-11T11:53:05.999Z</time></trkpt><trkpt lat="44.80046642653954" lon="10.449334142310724"><ele>39.5</ele><time>2026-04-11T11:53:06.999Z</time></trkpt><trkpt lat="44.80034485028608" lon="10.449655818657673"><ele>39.0</ele><time>2026-04-11T11:53:07.999Z</time></trkpt><trkpt lat="44.800223742730985" lon="10.449976639704644"><ele>39.0</ele><time>2026-04-11T11:53:08.999Z</time></trkpt><trkpt lat="44.800112530612985" lon="10.450304730619042"><ele>39.0</ele><time>2026-04-11T11:53:09.999Z</time></trkpt><trkpt lat="44.800015489242746" lon="10.450636290725791"><ele>39.0</ele><time>2026-04-11T11:53:10.999Z</time></trkpt><trkpt lat="44.79990913370276" lon="10.450957956634785"><ele>39.0</ele><time>2026-04-11T11:53:11.999Z</time></trkpt><trkpt lat="44.79979237074025" lon="10.451264798347603"><ele>39.5</ele><time>2026-04-11T11:53:12.999Z</time></trkpt><trkpt lat="44.79966755602104" lon="10.451568770294763"><ele>40.0</ele><time>2026-04-11T11:53:13.999Z</time></trkpt><trkpt lat="44.79953994589667" lon="10.45187462609538"><ele>40.5</ele><time>2026-04-11T11:53:14.999Z</time></trkpt><trkpt lat="44.799418325577136" lon="10.452182810303256"><ele>41.0</ele><time>2026-04-11T11:53:15.999Z</time></trkpt><trkpt lat="44.79929309157105" lon="10.452488324072574"><ele>40.5</ele><time>2026-04-11T11:53:16.999Z</time></trkpt><trkpt lat="44.79916618690569" lon="10.452800436681049"><ele>40.0</ele><time>2026-04-11T11:53:17.999Z</time></trkpt><trkpt lat="44.799044147097625" lon="10.453107550789744"><ele>40.0</ele><time>2026-04-11T11:53:18.999Z</time></trkpt><trkpt lat="44.7989214885227" lon="10.453413002557463"><ele>40.0</ele><time>2026-04-11T11:53:19.999Z</time></trkpt><trkpt lat="44.798794805641926" lon="10.453720788123299"><ele>41.0</ele><time>2026-04-11T11:53:20.999Z</time></trkpt><trkpt lat="44.79867430388886" lon="10.454023769149053"><ele>42.0</ele><time>2026-04-11T11:53:21.999Z</time></trkpt><trkpt lat="44.79855119657197" lon="10.454332053863073"><ele>40.5</ele><time>2026-04-11T11:53:22.999Z</time></trkpt><trkpt lat="44.798424883399264" lon="10.454644835244203"><ele>39.0</ele><time>2026-04-11T11:53:23.999Z</time></trkpt><trkpt lat="44.79829574815567" lon="10.454946606460403"><ele>39.0</ele><time>2026-04-11T11:53:24.999Z</time></trkpt><trkpt lat="44.79816715833311" lon="10.455252602438657"><ele>39.0</ele><time>2026-04-11T11:53:25.999Z</time></trkpt><trkpt lat="44.798038053925524" lon="10.455562752960933"><ele>39.5</ele><time>2026-04-11T11:53:26.999Z</time></trkpt><trkpt lat="44.797911293658764" lon="10.455871432828879"><ele>40.0</ele><time>2026-04-11T11:53:27.999Z</time></trkpt><trkpt lat="44.797782543820276" lon="10.45617632276187"><ele>40.0</ele><time>2026-04-11T11:53:28.999Z</time></trkpt><trkpt lat="44.79765217388551" lon="10.456477011341468"><ele>40.0</ele><time>2026-04-11T11:53:29.998Z</time></trkpt><trkpt lat="44.79752229766957" lon="10.456783444341445"><ele>40.0</ele><time>2026-04-11T11:53:30.998Z</time></trkpt><trkpt lat="44.79738517654788" lon="10.457085093999922"><ele>40.0</ele><time>2026-04-11T11:53:31.998Z</time></trkpt><trkpt lat="44.797241307803134" lon="10.457375571414513"><ele>40.0</ele><time>2026-04-11T11:53:32.998Z</time></trkpt><trkpt lat="44.797100201850846" lon="10.457670137474102"><ele>40.0</ele><time>2026-04-11T11:53:33.998Z</time></trkpt><trkpt lat="44.79696625821018" lon="10.457980723528536"><ele>40.5</ele><time>2026-04-11T11:53:34.998Z</time></trkpt><trkpt lat="44.7968357512933" lon="10.458281075984946"><ele>41.0</ele><time>2026-04-11T11:53:35.998Z</time></trkpt><trkpt lat="44.79670440070015" lon="10.458581019618268"><ele>40.5</ele><time>2026-04-11T11:53:36.998Z</time></trkpt><trkpt lat="44.79657211821733" lon="10.458876844781571"><ele>40.0</ele><time>2026-04-11T11:53:37.998Z</time></trkpt><trkpt lat="44.79643882321052" lon="10.459177497672124"><ele>40.0</ele><time>2026-04-11T11:53:38.998Z</time></trkpt><trkpt lat="44.79630729970379" lon="10.459474906880418"><ele>40.0</ele><time>2026-04-11T11:53:39.998Z</time></trkpt><trkpt lat="44.79617400067206" lon="10.459771404186993"><ele>39.5</ele><time>2026-04-11T11:53:40.998Z</time></trkpt><trkpt lat="44.7960341806372" lon="10.460069689396832"><ele>39.0</ele><time>2026-04-11T11:53:41.998Z</time></trkpt><trkpt lat="44.79589712967594" lon="10.460363018851398"><ele>40.0</ele><time>2026-04-11T11:53:42.998Z</time></trkpt><trkpt lat="44.79575912011146" lon="10.460672246034422"><ele>41.0</ele><time>2026-04-11T11:53:43.998Z</time></trkpt><trkpt lat="44.79562241252578" lon="10.460965025616586"><ele>41.0</ele><time>2026-04-11T11:53:44.998Z</time></trkpt><trkpt lat="44.79548711813517" lon="10.46125484089167"><ele>41.0</ele><time>2026-04-11T11:53:45.998Z</time></trkpt><trkpt lat="44.79534911915836" lon="10.46154881699783"><ele>40.0</ele><time>2026-04-11T11:53:46.998Z</time></trkpt><trkpt lat="44.79521117792551" lon="10.461846972611108"><ele>39.0</ele><time>2026-04-11T11:53:48Z</time></trkpt><trkpt lat="44.795076206614795" lon="10.462144893936017"><ele>39.0</ele><time>2026-04-11T11:53:49Z</time></trkpt><trkpt lat="44.79494346085705" lon="10.462434180225278"><ele>39.0</ele><time>2026-04-11T11:53:50Z</time></trkpt><trkpt lat="44.7948045702827" lon="10.462719893708533"><ele>38.0</ele><time>2026-04-11T11:53:51Z</time></trkpt><trkpt lat="44.79466489204064" lon="10.463007638108529"><ele>37.0</ele><time>2026-04-11T11:53:52Z</time></trkpt><trkpt lat="44.79452583255101" lon="10.463302532240998"><ele>37.0</ele><time>2026-04-11T11:53:53Z</time></trkpt><trkpt lat="44.79439811321775" lon="10.463586217478541"><ele>37.0</ele><time>2026-04-11T11:53:54Z</time></trkpt><trkpt lat="44.794260284026905" lon="10.46388203556931"><ele>38.5</ele><time>2026-04-11T11:53:55Z</time></trkpt><trkpt lat="44.794117310384316" lon="10.46417766089146"><ele>40.0</ele><time>2026-04-11T11:53:56Z</time></trkpt><trkpt lat="44.793976005034516" lon="10.464472442337112"><ele>38.5</ele><time>2026-04-11T11:53:57Z</time></trkpt><trkpt lat="44.79383444830471" lon="10.464770723115429"><ele>37.0</ele><time>2026-04-11T11:53:58Z</time></trkpt><trkpt lat="44.79369422669039" lon="10.465069619407824"><ele>37.0</ele><time>2026-04-11T11:53:59Z</time></trkpt><trkpt lat="44.793552323366804" lon="10.465371686483609"><ele>37.0</ele><time>2026-04-11T11:54:00Z</time></trkpt><trkpt lat="44.79341363699519" lon="10.46567320589863"><ele>38.0</ele><time>2026-04-11T11:54:01Z</time></trkpt><trkpt lat="44.79327162769341" lon="10.465978848394167"><ele>39.0</ele><time>2026-04-11T11:54:02Z</time></trkpt><trkpt lat="44.7931248301776" lon="10.466282993317272"><ele>39.0</ele><time>2026-04-11T11:54:03Z</time></trkpt><trkpt lat="44.79298118933696" lon="10.46658669137713"><ele>39.0</ele><time>2026-04-11T11:54:04Z</time></trkpt><trkpt lat="44.792837803062895" lon="10.466892026147237"><ele>39.0</ele><time>2026-04-11T11:54:05Z</time></trkpt><trkpt lat="44.792693290056015" lon="10.46719493318113"><ele>39.0</ele><time>2026-04-11T11:54:06Z</time></trkpt><trkpt lat="44.792550849052546" lon="10.467496248797085"><ele>39.0</ele><time>2026-04-11T11:54:07Z</time></trkpt><trkpt lat="44.792405542408815" lon="10.467798447514697"><ele>39.0</ele><time>2026-04-11T11:54:08Z</time></trkpt><trkpt lat="44.792258142206684" lon="10.468104875046542"><ele>39.0</ele><time>2026-04-11T11:54:09Z</time></trkpt><trkpt lat="44.79211849324106" lon="10.468406738235187"><ele>39.0</ele><time>2026-04-11T11:54:10Z</time></trkpt><trkpt lat="44.791972107693645" lon="10.468711431191453"><ele>40.5</ele><time>2026-04-11T11:54:11Z</time></trkpt><trkpt lat="44.791829943905455" lon="10.469011679596194"><ele>42.0</ele><time>2026-04-11T11:54:12Z</time></trkpt><trkpt lat="44.7916865642799" lon="10.46931412067354"><ele>41.5</ele><time>2026-04-11T11:54:13Z</time></trkpt><trkpt lat="44.79154896104071" lon="10.469619366972438"><ele>41.0</ele><time>2026-04-11T11:54:14Z</time></trkpt><trkpt lat="44.79141096146728" lon="10.46992077292492"><ele>41.0</ele><time>2026-04-11T11:54:15Z</time></trkpt><trkpt lat="44.791272609497916" lon="10.470214245598568"><ele>41.0</ele><time>2026-04-11T11:54:16Z</time></trkpt><trkpt lat="44.7911316682314" lon="10.470507514805258"><ele>42.0</ele><time>2026-04-11T11:54:17Z</time></trkpt><trkpt lat="44.790990823601575" lon="10.470801949113229"><ele>43.0</ele><time>2026-04-11T11:54:18Z</time></trkpt><trkpt lat="44.790851656805266" lon="10.471098686976392"><ele>43.5</ele><time>2026-04-11T11:54:19Z</time></trkpt><trkpt lat="44.79071556538581" lon="10.471398837890364"><ele>44.0</ele><time>2026-04-11T11:54:20Z</time></trkpt><trkpt lat="44.7905691557802" lon="10.471695778801093"><ele>44.0</ele><time>2026-04-11T11:54:21Z</time></trkpt><trkpt lat="44.79043158931792" lon="10.471988909402103"><ele>44.0</ele><time>2026-04-11T11:54:22Z</time></trkpt><trkpt lat="44.79029021815324" lon="10.472285968240406"><ele>43.5</ele><time>2026-04-11T11:54:23Z</time></trkpt><trkpt lat="44.79014162145432" lon="10.47259279988676"><ele>43.0</ele><time>2026-04-11T11:54:24Z</time></trkpt><trkpt lat="44.790008300005034" lon="10.472889757357708"><ele>42.0</ele><time>2026-04-11T11:54:25Z</time></trkpt><trkpt lat="44.789867380285436" lon="10.473186234573173"><ele>41.0</ele><time>2026-04-11T11:54:26Z</time></trkpt><trkpt lat="44.78972358012027" lon="10.47348871829752"><ele>40.5</ele><time>2026-04-11T11:54:27Z</time></trkpt><trkpt lat="44.789581491890765" lon="10.47378967121351"><ele>40.0</ele><time>2026-04-11T11:54:28Z</time></trkpt><trkpt lat="44.78944005515929" lon="10.474093934997237"><ele>41.0</ele><time>2026-04-11T11:54:29Z</time></trkpt><trkpt lat="44.78929839163931" lon="10.474397845844667"><ele>42.0</ele><time>2026-04-11T11:54:30Z</time></trkpt><trkpt lat="44.789155211759024" lon="10.474703332983108"><ele>42.0</ele><time>2026-04-11T11:54:31Z</time></trkpt><trkpt lat="44.78900669717396" lon="10.475009632780925"><ele>42.0</ele><time>2026-04-11T11:54:32Z</time></trkpt><trkpt lat="44.78886512607874" lon="10.475315086692753"><ele>41.0</ele><time>2026-04-11T11:54:33Z</time></trkpt><trkpt lat="44.78871805637471" lon="10.475622655746754"><ele>40.0</ele><time>2026-04-11T11:54:34Z</time></trkpt><trkpt lat="44.78857257501812" lon="10.475933347978062"><ele>40.0</ele><time>2026-04-11T11:54:35Z</time></trkpt><trkpt lat="44.78842677876281" lon="10.476242450005724"><ele>40.0</ele><time>2026-04-11T11:54:36Z</time></trkpt><trkpt lat="44.78828069551488" lon="10.47655213373342"><ele>39.5</ele><time>2026-04-11T11:54:37Z</time></trkpt><trkpt lat="44.788136150179355" lon="10.476862894322078"><ele>39.0</ele><time>2026-04-11T11:54:37.999Z</time></trkpt><trkpt lat="44.78799243041908" lon="10.477171503338718"><ele>39.0</ele><time>2026-04-11T11:54:38.999Z</time></trkpt><trkpt lat="44.787840212710655" lon="10.477481370999248"><ele>39.0</ele><time>2026-04-11T11:54:39.999Z</time></trkpt><trkpt lat="44.7876918517464" lon="10.477791461991103"><ele>39.0</ele><time>2026-04-11T11:54:40.999Z</time></trkpt><trkpt lat="44.787553529111825" lon="10.478096301799498"><ele>39.0</ele><time>2026-04-11T11:54:41.999Z</time></trkpt><trkpt lat="44.787408050289216" lon="10.478404481446681"><ele>39.0</ele><time>2026-04-11T11:54:42.999Z</time></trkpt><trkpt lat="44.7872587765809" lon="10.47871803236008"><ele>39.0</ele><time>2026-04-11T11:54:43.999Z</time></trkpt><trkpt lat="44.787116816250126" lon="10.479020699178987"><ele>39.0</ele><time>2026-04-11T11:54:44.999Z</time></trkpt><trkpt lat="44.786972612502886" lon="10.479330784069143"><ele>39.0</ele><time>2026-04-11T11:54:45.999Z</time></trkpt><trkpt lat="44.78682828091777" lon="10.47964182628349"><ele>40.5</ele><time>2026-04-11T11:54:46.999Z</time></trkpt><trkpt lat="44.78668118979408" lon="10.479955698300083"><ele>42.0</ele><time>2026-04-11T11:54:47.999Z</time></trkpt><trkpt lat="44.786530726980736" lon="10.480269796442247"><ele>41.5</ele><time>2026-04-11T11:54:48.999Z</time></trkpt><trkpt lat="44.786385319706284" lon="10.480579922473847"><ele>41.0</ele><time>2026-04-11T11:54:49.999Z</time></trkpt><trkpt lat="44.78624063405883" lon="10.480892044914032"><ele>41.0</ele><time>2026-04-11T11:54:50.999Z</time></trkpt><trkpt lat="44.78609528561002" lon="10.481202880633916"><ele>41.0</ele><time>2026-04-11T11:54:51.999Z</time></trkpt><trkpt lat="44.78594607595488" lon="10.481520076421164"><ele>40.0</ele><time>2026-04-11T11:54:52.999Z</time></trkpt><trkpt lat="44.78580158470345" lon="10.481826240045017"><ele>39.0</ele><time>2026-04-11T11:54:53.999Z</time></trkpt><trkpt lat="44.785657182502625" lon="10.48213228489696"><ele>39.0</ele><time>2026-04-11T11:54:54.999Z</time></trkpt><trkpt lat="44.785515333027924" lon="10.48243734061547"><ele>39.0</ele><time>2026-04-11T11:54:55.999Z</time></trkpt><trkpt lat="44.785371849400164" lon="10.482747304949894"><ele>39.0</ele><time>2026-04-11T11:54:56.999Z</time></trkpt><trkpt lat="44.78522628128996" lon="10.483058871833917"><ele>39.0</ele><time>2026-04-11T11:54:57.999Z</time></trkpt><trkpt lat="44.785081629189726" lon="10.483367286486454"><ele>39.0</ele><time>2026-04-11T11:54:58.999Z</time></trkpt><trkpt lat="44.78493808558468" lon="10.483675249135283"><ele>39.0</ele><time>2026-04-11T11:54:59.999Z</time></trkpt><trkpt lat="44.784798612162255" lon="10.483981832755314"><ele>39.5</ele><time>2026-04-11T11:55:00.999Z</time></trkpt><trkpt lat="44.78465529129716" lon="10.484287319569695"><ele>40.0</ele><time>2026-04-11T11:55:01.999Z</time></trkpt><trkpt lat="44.784510407763676" lon="10.484587746944444"><ele>40.5</ele><time>2026-04-11T11:55:02.999Z</time></trkpt><trkpt lat="44.78436309604523" lon="10.484891153618948"><ele>41.0</ele><time>2026-04-11T11:55:03.999Z</time></trkpt><trkpt lat="44.78421549802505" lon="10.48519600471392"><ele>40.5</ele><time>2026-04-11T11:55:04.999Z</time></trkpt><trkpt lat="44.784070193191226" lon="10.485500662497534"><ele>40.0</ele><time>2026-04-11T11:55:05.999Z</time></trkpt><trkpt lat="44.78392676049609" lon="10.485810422878464"><ele>40.0</ele><time>2026-04-11T11:55:06.999Z</time></trkpt><trkpt lat="44.78378377040598" lon="10.486110666437076"><ele>40.0</ele><time>2026-04-11T11:55:07.999Z</time></trkpt><trkpt lat="44.78364232163046" lon="10.486414932273862"><ele>40.0</ele><time>2026-04-11T11:55:08.999Z</time></trkpt><trkpt lat="44.7835003908091" lon="10.486719292606459"><ele>40.0</ele><time>2026-04-11T11:55:09.999Z</time></trkpt><trkpt lat="44.78335725582059" lon="10.487012877714843"><ele>38.5</ele><time>2026-04-11T11:55:10.999Z</time></trkpt><trkpt lat="44.78321743186775" lon="10.487310405656592"><ele>37.0</ele><time>2026-04-11T11:55:11.999Z</time></trkpt><trkpt lat="44.78307772239088" lon="10.487606907150827"><ele>37.0</ele><time>2026-04-11T11:55:12.999Z</time></trkpt><trkpt lat="44.782930315790004" lon="10.487897793585203"><ele>37.0</ele><time>2026-04-11T11:55:13.999Z</time></trkpt><trkpt lat="44.782780805407604" lon="10.488187901028953"><ele>37.5</ele><time>2026-04-11T11:55:14.999Z</time></trkpt><trkpt lat="44.782630962602425" lon="10.488485827730237"><ele>38.0</ele><time>2026-04-11T11:55:15.999Z</time></trkpt><trkpt lat="44.78249811378988" lon="10.488777921086365"><ele>38.0</ele><time>2026-04-11T11:55:16.999Z</time></trkpt><trkpt lat="44.7823770032963" lon="10.489045007261563"><ele>38.0</ele><time>2026-04-11T11:55:17.999Z</time></trkpt><trkpt lat="44.78226238604179" lon="10.48930386834108"><ele>38.0</ele><time>2026-04-11T11:55:18.999Z</time></trkpt><trkpt lat="44.78216830195854" lon="10.489536401936343"><ele>37.666666666666664</ele><time>2026-04-11T11:55:19.999Z</time></trkpt><trkpt lat="44.78208109695576" lon="10.489768431163968"><ele>37.333333333333336</ele><time>2026-04-11T11:55:20.999Z</time></trkpt><trkpt lat="44.78190774351142" lon="10.489986371155863"><ele>37.0</ele><time>2026-04-11T11:55:21.999Z</time></trkpt><trkpt lat="44.781786431800256" lon="10.490182369696265"><ele>38.0</ele><time>2026-04-11T11:55:22.999Z</time></trkpt><trkpt lat="44.781649368295184" lon="10.490363605627856"><ele>39.0</ele><time>2026-04-11T11:55:23.999Z</time></trkpt><trkpt lat="44.78147784791795" lon="10.490526947051793"><ele>40.0</ele><time>2026-04-11T11:55:24.999Z</time></trkpt><trkpt lat="44.78129138382635" lon="10.49067142437963"><ele>40.0</ele><time>2026-04-11T11:55:25.999Z</time></trkpt><trkpt lat="44.78109419783262" lon="10.490790011793226"><ele>40.0</ele><time>2026-04-11T11:55:26.999Z</time></trkpt><trkpt lat="44.780885941385634" lon="10.490867189791816"><ele>40.0</ele><time>2026-04-11T11:55:27.999Z</time></trkpt><trkpt lat="44.78067116914858" lon="10.490906935423936"><ele>39.66666666666667</ele><time>2026-04-11T11:55:28.999Z</time></trkpt><trkpt lat="44.78046262071735" lon="10.49096013415512"><ele>39.333333333333336</ele><time>2026-04-11T11:55:29.999Z</time></trkpt><trkpt lat="44.78025164075352" lon="10.491032883992053"><ele>39.0</ele><time>2026-04-11T11:55:30.999Z</time></trkpt><trkpt lat="44.780040469465746" lon="10.491113187411448"><ele>39.0</ele><time>2026-04-11T11:55:31.999Z</time></trkpt><trkpt lat="44.77983171340852" lon="10.491216024030688"><ele>39.0</ele><time>2026-04-11T11:55:32.999Z</time></trkpt><trkpt lat="44.779624406157524" lon="10.49135718957258"><ele>39.0</ele><time>2026-04-11T11:55:33.998Z</time></trkpt><trkpt lat="44.779429261665044" lon="10.491486002349433"><ele>39.0</ele><time>2026-04-11T11:55:34.998Z</time></trkpt><trkpt lat="44.779236061839484" lon="10.491602295091988"><ele>39.0</ele><time>2026-04-11T11:55:35.998Z</time></trkpt><trkpt lat="44.77905623901989" lon="10.491718272248791"><ele>39.0</ele><time>2026-04-11T11:55:36.998Z</time></trkpt><trkpt lat="44.778889586811296" lon="10.491823397235084"><ele>39.0</ele><time>2026-04-11T11:55:37.998Z</time></trkpt><trkpt lat="44.77873597964906" lon="10.491910321940253"><ele>39.0</ele><time>2026-04-11T11:55:38.998Z</time></trkpt><trkpt lat="44.778588260000404" lon="10.491987344031799"><ele>39.0</ele><time>2026-04-11T11:55:39.998Z</time></trkpt><trkpt lat="44.778441879673636" lon="10.492071597584776"><ele>39.0</ele><time>2026-04-11T11:55:40.998Z</time></trkpt><trkpt lat="44.77829998363595" lon="10.492155604192655"><ele>39.0</ele><time>2026-04-11T11:55:41.998Z</time></trkpt><trkpt lat="44.77817987231146" lon="10.492230901284888"><ele>39.0</ele><time>2026-04-11T11:55:42.998Z</time></trkpt><trkpt lat="44.77809081269809" lon="10.492290315845025"><ele>39.0</ele><time>2026-04-11T11:55:43.998Z</time></trkpt><trkpt lat="44.77800791766593" lon="10.492345170112584"><ele>39.0</ele><time>2026-04-11T11:55:44.998Z</time></trkpt><trkpt lat="44.77793553758073" lon="10.492393596136527"><ele>39.0</ele><time>2026-04-11T11:55:45.998Z</time></trkpt><trkpt lat="44.7778782848889" lon="10.492430886509421"><ele>39.0</ele><time>2026-04-11T11:55:46.998Z</time></trkpt><trkpt lat="44.777770433925554" lon="10.492495379833214"><ele>39.0</ele><time>2026-04-11T11:55:48.998Z</time></trkpt><trkpt lat="44.77766939086429" lon="10.492559367486392"><ele>39.0</ele><time>2026-04-11T11:55:50.998Z</time></trkpt><trkpt lat="44.777582768817986" lon="10.492611832084641"><ele>39.0</ele><time>2026-04-11T11:55:52.998Z</time></trkpt><trkpt lat="44.77745602907288" lon="10.492611748891342"><ele>39.0</ele><time>2026-04-11T11:56:34Z</time></trkpt><trkpt lat="44.77739969253999" lon="10.492670624234364"><ele>39.0</ele><time>2026-04-11T11:56:36Z</time></trkpt><trkpt lat="44.77733422246392" lon="10.492722743742707"><ele>39.0</ele><time>2026-04-11T11:56:37Z</time></trkpt><trkpt lat="44.77726694730511" lon="10.49277719976899"><ele>39.0</ele><time>2026-04-11T11:56:38Z</time></trkpt><trkpt lat="44.777206990784855" lon="10.492825027159286"><ele>39.0</ele><time>2026-04-11T11:56:39Z</time></trkpt><trkpt lat="44.777120329708744" lon="10.49288138101612"><ele>39.0</ele><time>2026-04-11T11:56:40Z</time></trkpt><trkpt lat="44.777033065383065" lon="10.492946590828156"><ele>39.0</ele><time>2026-04-11T11:56:41Z</time></trkpt><trkpt lat="44.77694358685585" lon="10.493012795307052"><ele>39.0</ele><time>2026-04-11T11:56:42Z</time></trkpt><trkpt lat="44.776849254582125" lon="10.493079422457255"><ele>39.0</ele><time>2026-04-11T11:56:42.999Z</time></trkpt><trkpt lat="44.77675186675322" lon="10.493149480704348"><ele>38.75</ele><time>2026-04-11T11:56:43.999Z</time></trkpt><trkpt lat="44.7766565878411" lon="10.493215378365806"><ele>38.5</ele><time>2026-04-11T11:56:44.999Z</time></trkpt><trkpt lat="44.776553134926566" lon="10.493278966943619"><ele>38.25</ele><time>2026-04-11T11:56:45.999Z</time></trkpt><trkpt lat="44.77644048212711" lon="10.493349731321874"><ele>38.0</ele><time>2026-04-11T11:56:46.999Z</time></trkpt><trkpt lat="44.7763210683584" lon="10.49342108878135"><ele>38.0</ele><time>2026-04-11T11:56:47.999Z</time></trkpt><trkpt lat="44.77620102768125" lon="10.493483977106694"><ele>38.0</ele><time>2026-04-11T11:56:48.999Z</time></trkpt><trkpt lat="44.77609319101085" lon="10.493545164232229"><ele>38.0</ele><time>2026-04-11T11:56:49.999Z</time></trkpt><trkpt lat="44.77600026555955" lon="10.493601874608851"><ele>38.0</ele><time>2026-04-11T11:56:50.999Z</time></trkpt><trkpt lat="44.77591533601432" lon="10.493651356181648"><ele>38.0</ele><time>2026-04-11T11:56:51.999Z</time></trkpt><trkpt lat="44.77584175855538" lon="10.49368998355634"><ele>38.33333333333333</ele><time>2026-04-11T11:56:52.999Z</time></trkpt><trkpt lat="44.77577483928093" lon="10.493681073715313"><ele>38.666666666666664</ele><time>2026-04-11T11:56:54.999Z</time></trkpt><trkpt lat="44.77570722922041" lon="10.493627596017836"><ele>39.0</ele><time>2026-04-11T11:56:57.999Z</time></trkpt><trkpt lat="44.77562302596844" lon="10.493507782279705"><ele>39.333333333333336</ele><time>2026-04-11T11:56:59.999Z</time></trkpt><trkpt lat="44.7755865369633" lon="10.493416673691453"><ele>39.66666666666667</ele><time>2026-04-11T11:57:00.999Z</time></trkpt><trkpt lat="44.77552543181938" lon="10.493301998178207"><ele>40.0</ele><time>2026-04-11T11:57:02.999Z</time></trkpt><trkpt lat="44.77540603545271" lon="10.493223352866465"><ele>40.0</ele><time>2026-04-11T11:57:04.999Z</time></trkpt><trkpt lat="44.77533141479161" lon="10.493230430055995"><ele>40.0</ele><time>2026-04-11T11:57:05.999Z</time></trkpt><trkpt lat="44.77521779472748" lon="10.493337226717925"><ele>40.0</ele><time>2026-04-11T11:57:07.999Z</time></trkpt><trkpt lat="44.775169045015" lon="10.493428540918135"><ele>40.0</ele><time>2026-04-11T11:57:08.999Z</time></trkpt><trkpt lat="44.77514529343825" lon="10.493566213150043"><ele>40.0</ele><time>2026-04-11T11:57:10.999Z</time></trkpt><trkpt lat="44.77515620960067" lon="10.493660290729824"><ele>40.0</ele><time>2026-04-11T11:57:48.998Z</time></trkpt><trkpt lat="44.77518076801324" lon="10.493813161841613"><ele>40.0</ele><time>2026-04-11T11:57:50.998Z</time></trkpt><trkpt lat="44.77520759375727" lon="10.493953549658318"><ele>40.0</ele><time>2026-04-11T11:57:52.998Z</time></trkpt><trkpt lat="44.775230546039076" lon="10.494052476319432"><ele>40.0</ele><time>2026-04-11T11:57:53.998Z</time></trkpt><trkpt lat="44.77526888262294" lon="10.494162899742765"><ele>40.0</ele><time>2026-04-11T11:57:54.998Z</time></trkpt><trkpt lat="44.77531421669292" lon="10.49427124939064"><ele>40.0</ele><time>2026-04-11T11:57:55.998Z</time></trkpt><trkpt lat="44.77536944153763" lon="10.494377177600649"><ele>40.0</ele><time>2026-04-11T11:57:56.998Z</time></trkpt><trkpt lat="44.775475868985154" lon="10.494561140386661"><ele>40.0</ele><time>2026-04-11T11:57:58.998Z</time></trkpt><trkpt lat="44.77552117279893" lon="10.494643845364093"><ele>40.0</ele><time>2026-04-11T11:58:00Z</time></trkpt><trkpt lat="44.77556651334499" lon="10.49473813766322"><ele>40.0</ele><time>2026-04-11T11:58:01Z</time></trkpt><trkpt lat="44.77559451007287" lon="10.494847121167346"><ele>39.8</ele><time>2026-04-11T11:58:02Z</time></trkpt><trkpt lat="44.77560495611914" lon="10.494979307670565"><ele>39.6</ele><time>2026-04-11T11:58:03Z</time></trkpt><trkpt lat="44.77558196780859" lon="10.495127005450968"><ele>39.4</ele><time>2026-04-11T11:58:04Z</time></trkpt><trkpt lat="44.775514352184295" lon="10.495263251621774"><ele>39.2</ele><time>2026-04-11T11:58:05Z</time></trkpt><trkpt lat="44.77543867508363" lon="10.49537598094512"><ele>39.0</ele><time>2026-04-11T11:58:06Z</time></trkpt><trkpt lat="44.77533699515473" lon="10.495442164995945"><ele>38.75</ele><time>2026-04-11T11:58:07Z</time></trkpt><trkpt lat="44.77524616219175" lon="10.495508360825344"><ele>38.5</ele><time>2026-04-11T11:58:08Z</time></trkpt><trkpt lat="44.77513918669747" lon="10.495594801581817"><ele>38.25</ele><time>2026-04-11T11:58:09Z</time></trkpt><trkpt lat="44.77501940251187" lon="10.495674246953588"><ele>38.0</ele><time>2026-04-11T11:58:10Z</time></trkpt><trkpt lat="44.77488735161858" lon="10.495767333933122"><ele>38.0</ele><time>2026-04-11T11:58:11Z</time></trkpt><trkpt lat="44.7747400085808" lon="10.495883784143947"><ele>38.0</ele><time>2026-04-11T11:58:12Z</time></trkpt><trkpt lat="44.77461144230338" lon="10.49597644999627"><ele>38.0</ele><time>2026-04-11T11:58:13Z</time></trkpt><trkpt lat="44.77448999932789" lon="10.496050905347024"><ele>38.0</ele><time>2026-04-11T11:58:14Z</time></trkpt><trkpt lat="44.77435266961301" lon="10.496143542467758"><ele>38.0</ele><time>2026-04-11T11:58:15Z</time></trkpt><trkpt lat="44.774212001709344" lon="10.496237827705976"><ele>38.0</ele><time>2026-04-11T11:58:16Z</time></trkpt><trkpt lat="44.774057622204005" lon="10.49633267728179"><ele>38.0</ele><time>2026-04-11T11:58:17Z</time></trkpt><trkpt lat="44.7738921578532" lon="10.496430873900342"><ele>38.0</ele><time>2026-04-11T11:58:18Z</time></trkpt><trkpt lat="44.773723163686725" lon="10.496530602777757"><ele>38.0</ele><time>2026-04-11T11:58:19Z</time></trkpt><trkpt lat="44.773547508249486" lon="10.496637999004028"><ele>38.0</ele><time>2026-04-11T11:58:20Z</time></trkpt><trkpt lat="44.77336272926646" lon="10.496733193451838"><ele>38.33333333333333</ele><time>2026-04-11T11:58:21Z</time></trkpt><trkpt lat="44.77317077682546" lon="10.496826774006493"><ele>38.666666666666664</ele><time>2026-04-11T11:58:22Z</time></trkpt><trkpt lat="44.7729895679668" lon="10.496919676721726"><ele>39.0</ele><time>2026-04-11T11:58:23Z</time></trkpt><trkpt lat="44.77279444768094" lon="10.497018539550542"><ele>39.0</ele><time>2026-04-11T11:58:24Z</time></trkpt><trkpt lat="44.77259480090981" lon="10.497120674278928"><ele>39.0</ele><time>2026-04-11T11:58:25Z</time></trkpt><trkpt lat="44.77239480993685" lon="10.497227025518992"><ele>39.0</ele><time>2026-04-11T11:58:26Z</time></trkpt><trkpt lat="44.772188962880904" lon="10.497330807170385"><ele>39.0</ele><time>2026-04-11T11:58:27Z</time></trkpt><trkpt lat="44.77198261477825" lon="10.497432090282942"><ele>39.0</ele><time>2026-04-11T11:58:28Z</time></trkpt><trkpt lat="44.77177084671909" lon="10.497538284401983"><ele>39.0</ele><time>2026-04-11T11:58:29Z</time></trkpt><trkpt lat="44.77156081496277" lon="10.49764818074437"><ele>39.0</ele><time>2026-04-11T11:58:30Z</time></trkpt><trkpt lat="44.771347239585566" lon="10.497758740115907"><ele>39.0</ele><time>2026-04-11T11:58:31Z</time></trkpt><trkpt lat="44.771136441186385" lon="10.497870943799343"><ele>38.0</ele><time>2026-04-11T11:58:31.999Z</time></trkpt><trkpt lat="44.770927094719546" lon="10.497978446184481"><ele>37.0</ele><time>2026-04-11T11:58:32.999Z</time></trkpt><trkpt lat="44.77071374020985" lon="10.498086135732326"><ele>36.0</ele><time>2026-04-11T11:58:33.999Z</time></trkpt><trkpt lat="44.77049810219051" lon="10.498190425397237"><ele>36.0</ele><time>2026-04-11T11:58:34.999Z</time></trkpt><trkpt lat="44.770290691096385" lon="10.498299487646243"><ele>36.0</ele><time>2026-04-11T11:58:35.999Z</time></trkpt><trkpt lat="44.77008377044708" lon="10.498406368535951"><ele>36.0</ele><time>2026-04-11T11:58:36.999Z</time></trkpt><trkpt lat="44.7698747587687" lon="10.498516272234225"><ele>36.333333333333336</ele><time>2026-04-11T11:58:37.999Z</time></trkpt><trkpt lat="44.769664503126876" lon="10.498622340227016"><ele>36.66666666666667</ele><time>2026-04-11T11:58:38.999Z</time></trkpt><trkpt lat="44.769462915102196" lon="10.49873183913296"><ele>37.0</ele><time>2026-04-11T11:58:39.999Z</time></trkpt><trkpt lat="44.76926130269688" lon="10.498836323600257"><ele>37.0</ele><time>2026-04-11T11:58:40.999Z</time></trkpt><trkpt lat="44.76905997623019" lon="10.498935568994813"><ele>37.0</ele><time>2026-04-11T11:58:41.999Z</time></trkpt><trkpt lat="44.768849513439825" lon="10.499032880145107"><ele>37.0</ele><time>2026-04-11T11:58:42.999Z</time></trkpt><trkpt lat="44.76864505754567" lon="10.499142107311187"><ele>37.0</ele><time>2026-04-11T11:58:43.999Z</time></trkpt><trkpt lat="44.76843704405459" lon="10.499247876633737"><ele>37.0</ele><time>2026-04-11T11:58:44.999Z</time></trkpt><trkpt lat="44.76822380744259" lon="10.499347800411048"><ele>37.0</ele><time>2026-04-11T11:58:45.999Z</time></trkpt><trkpt lat="44.76800960440941" lon="10.49945077084172"><ele>37.0</ele><time>2026-04-11T11:58:46.999Z</time></trkpt><trkpt lat="44.76779655210867" lon="10.499562251431179"><ele>37.0</ele><time>2026-04-11T11:58:47.999Z</time></trkpt><trkpt lat="44.76757925140024" lon="10.499672492056478"><ele>37.0</ele><time>2026-04-11T11:58:48.999Z</time></trkpt><trkpt lat="44.76736005244697" lon="10.499785026538449"><ele>37.0</ele><time>2026-04-11T11:58:49.999Z</time></trkpt><trkpt lat="44.76713873116977" lon="10.499908805851456"><ele>37.0</ele><time>2026-04-11T11:58:50.999Z</time></trkpt><trkpt lat="44.76692329353993" lon="10.500022996495124"><ele>37.0</ele><time>2026-04-11T11:58:51.999Z</time></trkpt><trkpt lat="44.76672515050501" lon="10.500134063884891"><ele>37.0</ele><time>2026-04-11T11:58:52.999Z</time></trkpt><trkpt lat="44.766540085665845" lon="10.500232027567357"><ele>36.66666666666667</ele><time>2026-04-11T11:58:53.999Z</time></trkpt><trkpt lat="44.766352649152864" lon="10.500338416615913"><ele>36.333333333333336</ele><time>2026-04-11T11:58:54.999Z</time></trkpt><trkpt lat="44.766152692876695" lon="10.500439495135872"><ele>36.0</ele><time>2026-04-11T11:58:55.999Z</time></trkpt><trkpt lat="44.765950626086294" lon="10.500528612789685"><ele>36.666666666666664</ele><time>2026-04-11T11:58:56.999Z</time></trkpt><trkpt lat="44.76574483881421" lon="10.500570871245401"><ele>37.33333333333333</ele><time>2026-04-11T11:58:57.999Z</time></trkpt><trkpt lat="44.76553518169064" lon="10.50053206509189"><ele>38.0</ele><time>2026-04-11T11:58:58.999Z</time></trkpt><trkpt lat="44.765320816030076" lon="10.500482218389223"><ele>38.0</ele><time>2026-04-11T11:58:59.999Z</time></trkpt><trkpt lat="44.765106595997736" lon="10.500437771519579"><ele>38.0</ele><time>2026-04-11T11:59:00.999Z</time></trkpt><trkpt lat="44.76488968817521" lon="10.50039198956543"><ele>38.0</ele><time>2026-04-11T11:59:01.999Z</time></trkpt><trkpt lat="44.76467626858372" lon="10.500341079058238"><ele>38.33333333333333</ele><time>2026-04-11T11:59:02.999Z</time></trkpt><trkpt lat="44.764456421915156" lon="10.500284145832477"><ele>38.666666666666664</ele><time>2026-04-11T11:59:03.999Z</time></trkpt><trkpt lat="44.76424194066349" lon="10.500227126600887"><ele>39.0</ele><time>2026-04-11T11:59:04.999Z</time></trkpt><trkpt lat="44.76401792079364" lon="10.500173813351758"><ele>39.0</ele><time>2026-04-11T11:59:05.999Z</time></trkpt><trkpt lat="44.76379977951718" lon="10.500122291291218"><ele>39.0</ele><time>2026-04-11T11:59:06.999Z</time></trkpt><trkpt lat="44.76357833267884" lon="10.500065448387083"><ele>39.0</ele><time>2026-04-11T11:59:07.999Z</time></trkpt><trkpt lat="44.76335450325091" lon="10.499996635403983"><ele>38.5</ele><time>2026-04-11T11:59:08.999Z</time></trkpt><trkpt lat="44.763132794169564" lon="10.499919638465931"><ele>38.0</ele><time>2026-04-11T11:59:09.999Z</time></trkpt><trkpt lat="44.762916072584034" lon="10.499839833586723"><ele>38.0</ele><time>2026-04-11T11:59:10.999Z</time></trkpt><trkpt lat="44.76270478996181" lon="10.49975504487695"><ele>38.0</ele><time>2026-04-11T11:59:11.999Z</time></trkpt><trkpt lat="44.76249672949348" lon="10.499659321331114"><ele>38.0</ele><time>2026-04-11T11:59:12.999Z</time></trkpt><trkpt lat="44.762286088505284" lon="10.499542735157844"><ele>39.0</ele><time>2026-04-11T11:59:13.999Z</time></trkpt><trkpt lat="44.76208288936359" lon="10.499416374076956"><ele>40.0</ele><time>2026-04-11T11:59:14.999Z</time></trkpt><trkpt lat="44.761877135940864" lon="10.499277940659397"><ele>40.0</ele><time>2026-04-11T11:59:15.999Z</time></trkpt><trkpt lat="44.761673679659516" lon="10.499147510809474"><ele>40.0</ele><time>2026-04-11T11:59:16.999Z</time></trkpt><trkpt lat="44.76146757867208" lon="10.499011761856433"><ele>40.0</ele><time>2026-04-11T11:59:17.999Z</time></trkpt><trkpt lat="44.7612603872795" lon="10.498879963735973"><ele>40.0</ele><time>2026-04-11T11:59:18.999Z</time></trkpt><trkpt lat="44.76104825232283" lon="10.49874335277336"><ele>41.0</ele><time>2026-04-11T11:59:19.999Z</time></trkpt><trkpt lat="44.76083737546074" lon="10.498602425875088"><ele>42.0</ele><time>2026-04-11T11:59:20.999Z</time></trkpt><trkpt lat="44.760627250443925" lon="10.498471455929515"><ele>42.0</ele><time>2026-04-11T11:59:21.999Z</time></trkpt><trkpt lat="44.76042185612875" lon="10.49834815245899"><ele>42.0</ele><time>2026-04-11T11:59:22.999Z</time></trkpt><trkpt lat="44.76020847717187" lon="10.498234035019118"><ele>43.0</ele><time>2026-04-11T11:59:23.999Z</time></trkpt><trkpt lat="44.759992159689375" lon="10.498132298879405"><ele>44.0</ele><time>2026-04-11T11:59:24.999Z</time></trkpt><trkpt lat="44.759769744088125" lon="10.49804391813368"><ele>44.0</ele><time>2026-04-11T11:59:25.999Z</time></trkpt><trkpt lat="44.759551683766766" lon="10.497958341370662"><ele>44.0</ele><time>2026-04-11T11:59:26.999Z</time></trkpt><trkpt lat="44.75933239294844" lon="10.497873409777542"><ele>43.0</ele><time>2026-04-11T11:59:27.999Z</time></trkpt><trkpt lat="44.7591131163917" lon="10.49778522377119"><ele>42.0</ele><time>2026-04-11T11:59:28.999Z</time></trkpt><trkpt lat="44.75889389106245" lon="10.497687309149303"><ele>42.0</ele><time>2026-04-11T11:59:29.998Z</time></trkpt><trkpt lat="44.75867839635878" lon="10.497568591978805"><ele>42.0</ele><time>2026-04-11T11:59:30.998Z</time></trkpt><trkpt lat="44.758472679261864" lon="10.49743063412021"><ele>42.5</ele><time>2026-04-11T11:59:31.998Z</time></trkpt><trkpt lat="44.75826275228927" lon="10.497287151624148"><ele>43.0</ele><time>2026-04-11T11:59:32.998Z</time></trkpt><trkpt lat="44.75805055626377" lon="10.497147972965971"><ele>43.0</ele><time>2026-04-11T11:59:33.998Z</time></trkpt><trkpt lat="44.75784394846375" lon="10.497010687571256"><ele>43.0</ele><time>2026-04-11T11:59:34.998Z</time></trkpt><trkpt lat="44.75763513950149" lon="10.496874212003055"><ele>44.5</ele><time>2026-04-11T11:59:35.998Z</time></trkpt><trkpt lat="44.75742351437816" lon="10.49674747493356"><ele>46.0</ele><time>2026-04-11T11:59:36.998Z</time></trkpt><trkpt lat="44.757210793033295" lon="10.496614470472068"><ele>46.0</ele><time>2026-04-11T11:59:37.998Z</time></trkpt><trkpt lat="44.75700046112221" lon="10.496479904921088"><ele>46.0</ele><time>2026-04-11T11:59:38.998Z</time></trkpt><trkpt lat="44.75678652258249" lon="10.496356713469105"><ele>45.5</ele><time>2026-04-11T11:59:39.998Z</time></trkpt><trkpt lat="44.756573284928024" lon="10.49625541172169"><ele>45.0</ele><time>2026-04-11T11:59:40.998Z</time></trkpt><trkpt lat="44.75635894669171" lon="10.496145956485604"><ele>45.0</ele><time>2026-04-11T11:59:41.998Z</time></trkpt><trkpt lat="44.75614482024624" lon="10.496025730749826"><ele>45.0</ele><time>2026-04-11T11:59:42.998Z</time></trkpt><trkpt lat="44.7559333788295" lon="10.495904216010397"><ele>44.5</ele><time>2026-04-11T11:59:43.998Z</time></trkpt><trkpt lat="44.75571483112746" lon="10.495784613650262"><ele>44.0</ele><time>2026-04-11T11:59:44.998Z</time></trkpt><trkpt lat="44.75550139390113" lon="10.495665182851793"><ele>44.0</ele><time>2026-04-11T11:59:45.998Z</time></trkpt><trkpt lat="44.75529816468981" lon="10.495550484370685"><ele>44.0</ele><time>2026-04-11T11:59:46.998Z</time></trkpt><trkpt lat="44.755110723232846" lon="10.495449849151118"><ele>44.0</ele><time>2026-04-11T11:59:47.998Z</time></trkpt><trkpt lat="44.754936100411335" lon="10.495358141837075"><ele>44.33333333333333</ele><time>2026-04-11T11:59:48.998Z</time></trkpt><trkpt lat="44.75477429072659" lon="10.495271083198027"><ele>44.666666666666664</ele><time>2026-04-11T11:59:49.998Z</time></trkpt><trkpt lat="44.75462301167541" lon="10.495182033335912"><ele>45.0</ele><time>2026-04-11T11:59:50.998Z</time></trkpt><trkpt lat="44.754488132409946" lon="10.4951016629248"><ele>45.0</ele><time>2026-04-11T11:59:51.998Z</time></trkpt><trkpt lat="44.75438556522223" lon="10.495031118801307"><ele>45.0</ele><time>2026-04-11T11:59:52.998Z</time></trkpt><trkpt lat="44.75429724400498" lon="10.494935794654152"><ele>45.0</ele><time>2026-04-11T11:59:53.998Z</time></trkpt><trkpt lat="44.754234941838" lon="10.49479865986115"><ele>45.0</ele><time>2026-04-11T11:59:54.998Z</time></trkpt><trkpt lat="44.754165612373185" lon="10.494699654052662"><ele>45.0</ele><time>2026-04-11T11:59:55.998Z</time></trkpt><trkpt lat="44.754064913447905" lon="10.494657206337639"><ele>45.25</ele><time>2026-04-11T11:59:56.998Z</time></trkpt><trkpt lat="44.753934060420896" lon="10.494670909501178"><ele>45.5</ele><time>2026-04-11T11:59:57.998Z</time></trkpt><trkpt lat="44.75378437668308" lon="10.494669432429692"><ele>45.75</ele><time>2026-04-11T11:59:58.998Z</time></trkpt><trkpt lat="44.75363419993056" lon="10.49458553674795"><ele>46.0</ele><time>2026-04-11T11:59:59.998Z</time></trkpt><trkpt lat="44.75348300342758" lon="10.494469470701086"><ele>46.0</ele><time>2026-04-11T12:00:00.998Z</time></trkpt><trkpt lat="44.75331995198443" lon="10.494363424304902"><ele>46.0</ele><time>2026-04-11T12:00:01.998Z</time></trkpt><trkpt lat="44.75315478013948" lon="10.494253722281456"><ele>46.0</ele><time>2026-04-11T12:00:02.998Z</time></trkpt><trkpt lat="44.75298547630018" lon="10.494138178464846"><ele>46.0</ele><time>2026-04-11T12:00:03.998Z</time></trkpt><trkpt lat="44.7528034405913" lon="10.494026282246184"><ele>46.0</ele><time>2026-04-11T12:00:04.998Z</time></trkpt><trkpt lat="44.75261784096634" lon="10.493914438068687"><ele>46.0</ele><time>2026-04-11T12:00:05.999Z</time></trkpt><trkpt lat="44.752435103796714" lon="10.493802104529783"><ele>46.333333333333336</ele><time>2026-04-11T12:00:06.999Z</time></trkpt><trkpt lat="44.75224967872356" lon="10.493681321991954"><ele>46.666666666666664</ele><time>2026-04-11T12:00:07.999Z</time></trkpt><trkpt lat="44.75206021998534" lon="10.493557553816368"><ele>47.0</ele><time>2026-04-11T12:00:08.999Z</time></trkpt><trkpt lat="44.75186841462069" lon="10.493441867842957"><ele>47.666666666666664</ele><time>2026-04-11T12:00:09.999Z</time></trkpt><trkpt lat="44.751682500247504" lon="10.493321235946441"><ele>48.33333333333333</ele><time>2026-04-11T12:00:10.999Z</time></trkpt><trkpt lat="44.75148885069772" lon="10.493202769581108"><ele>49.0</ele><time>2026-04-11T12:00:11.999Z</time></trkpt><trkpt lat="44.75129916537907" lon="10.493081521310957"><ele>49.0</ele><time>2026-04-11T12:00:12.999Z</time></trkpt><trkpt lat="44.75111569549776" lon="10.492971057765061"><ele>49.0</ele><time>2026-04-11T12:00:13.999Z</time></trkpt><trkpt lat="44.75094650424494" lon="10.49285718964922"><ele>49.0</ele><time>2026-04-11T12:00:14.999Z</time></trkpt><trkpt lat="44.750777508570295" lon="10.49275111056445"><ele>49.0</ele><time>2026-04-11T12:00:15.999Z</time></trkpt><trkpt lat="44.75060693650105" lon="10.492638024220907"><ele>49.0</ele><time>2026-04-11T12:00:16.999Z</time></trkpt><trkpt lat="44.75043920154947" lon="10.492528147928907"><ele>49.0</ele><time>2026-04-11T12:00:17.999Z</time></trkpt><trkpt lat="44.750271298344" lon="10.492425952236907"><ele>49.0</ele><time>2026-04-11T12:00:18.999Z</time></trkpt><trkpt lat="44.75010356139709" lon="10.492331531191452"><ele>49.0</ele><time>2026-04-11T12:00:19.999Z</time></trkpt><trkpt lat="44.749928207511104" lon="10.492221720983705"><ele>49.0</ele><time>2026-04-11T12:00:20.999Z</time></trkpt><trkpt lat="44.749755697558776" lon="10.492113269534084"><ele>49.33333333333333</ele><time>2026-04-11T12:00:21.999Z</time></trkpt><trkpt lat="44.749583144923896" lon="10.491997888913101"><ele>49.66666666666667</ele><time>2026-04-11T12:00:22.999Z</time></trkpt><trkpt lat="44.74939778833473" lon="10.491871817215209"><ele>50.0</ele><time>2026-04-11T12:00:23.999Z</time></trkpt><trkpt lat="44.74921863598491" lon="10.491745730553557"><ele>50.66666666666667</ele><time>2026-04-11T12:00:24.999Z</time></trkpt><trkpt lat="44.74903179083176" lon="10.49161751157752"><ele>51.33333333333333</ele><time>2026-04-11T12:00:25.999Z</time></trkpt><trkpt lat="44.74884116897484" lon="10.491491581654751"><ele>52.0</ele><time>2026-04-11T12:00:26.999Z</time></trkpt><trkpt lat="44.74864093905003" lon="10.491366964462657"><ele>51.33333333333333</ele><time>2026-04-11T12:00:27.999Z</time></trkpt><trkpt lat="44.748450669380745" lon="10.491245816755818"><ele>50.66666666666667</ele><time>2026-04-11T12:00:28.999Z</time></trkpt><trkpt lat="44.74825338519538" lon="10.49112495313564"><ele>50.0</ele><time>2026-04-11T12:00:29.999Z</time></trkpt><trkpt lat="44.7480936845986" lon="10.491015016217132"><ele>50.0</ele><time>2026-04-11T12:00:30.999Z</time></trkpt><trkpt lat="44.74794553529295" lon="10.490917230521458"><ele>50.0</ele><time>2026-04-11T12:00:31.999Z</time></trkpt><trkpt lat="44.747808216455226" lon="10.490825503300679"><ele>50.0</ele><time>2026-04-11T12:00:32.999Z</time></trkpt><trkpt lat="44.74768662565921" lon="10.490742678148358"><ele>50.25</ele><time>2026-04-11T12:00:33.999Z</time></trkpt><trkpt lat="44.747581997694" lon="10.49066816075034"><ele>50.5</ele><time>2026-04-11T12:00:34.999Z</time></trkpt><trkpt lat="44.7474841160554" lon="10.490591327999228"><ele>50.75</ele><time>2026-04-11T12:00:35.999Z</time></trkpt><trkpt lat="44.747387290649684" lon="10.490492681965094"><ele>51.0</ele><time>2026-04-11T12:00:36.999Z</time></trkpt><trkpt lat="44.74729395819619" lon="10.49037252598699"><ele>51.5</ele><time>2026-04-11T12:00:37.999Z</time></trkpt><trkpt lat="44.74718216720413" lon="10.490294189660347"><ele>52.0</ele><time>2026-04-11T12:00:38.999Z</time></trkpt><trkpt lat="44.74703856059298" lon="10.490251421092582"><ele>52.5</ele><time>2026-04-11T12:00:39.999Z</time></trkpt><trkpt lat="44.74687554857922" lon="10.490206925137791"><ele>53.0</ele><time>2026-04-11T12:00:40.999Z</time></trkpt><trkpt lat="44.746706899994976" lon="10.490103693200004"><ele>53.333333333333336</ele><time>2026-04-11T12:00:41.999Z</time></trkpt><trkpt lat="44.74654465467252" lon="10.489963339697981"><ele>53.66666666666667</ele><time>2026-04-11T12:00:42.999Z</time></trkpt><trkpt lat="44.746392983825565" lon="10.489843739428089"><ele>54.0</ele><time>2026-04-11T12:00:43.999Z</time></trkpt><trkpt lat="44.746237604998676" lon="10.489728476948482"><ele>54.0</ele><time>2026-04-11T12:00:44.999Z</time></trkpt><trkpt lat="44.74606790440282" lon="10.489605039910826"><ele>54.0</ele><time>2026-04-11T12:00:45.999Z</time></trkpt><trkpt lat="44.745891678160795" lon="10.489478125869665"><ele>54.0</ele><time>2026-04-11T12:00:46.999Z</time></trkpt><trkpt lat="44.74571250773707" lon="10.489350231886366"><ele>54.0</ele><time>2026-04-11T12:00:47.999Z</time></trkpt><trkpt lat="44.74553288530416" lon="10.489219431760201"><ele>54.0</ele><time>2026-04-11T12:00:48.999Z</time></trkpt><trkpt lat="44.74534951692415" lon="10.489085999710886"><ele>54.0</ele><time>2026-04-11T12:00:49.999Z</time></trkpt><trkpt lat="44.745156145624556" lon="10.48894596591639"><ele>53.66666666666667</ele><time>2026-04-11T12:00:50.999Z</time></trkpt><trkpt lat="44.74496232244428" lon="10.488805304163785"><ele>53.333333333333336</ele><time>2026-04-11T12:00:51.999Z</time></trkpt><trkpt lat="44.74476696595711" lon="10.488666350246453"><ele>53.0</ele><time>2026-04-11T12:00:52.999Z</time></trkpt><trkpt lat="44.74458204567621" lon="10.488544740130521"><ele>53.333333333333336</ele><time>2026-04-11T12:00:53.999Z</time></trkpt><trkpt lat="44.74439596504093" lon="10.488417251076443"><ele>53.66666666666667</ele><time>2026-04-11T12:00:54.999Z</time></trkpt><trkpt lat="44.744203045866165" lon="10.488280935117661"><ele>54.0</ele><time>2026-04-11T12:00:55.999Z</time></trkpt><trkpt lat="44.74400850604321" lon="10.488153419873006"><ele>54.0</ele><time>2026-04-11T12:00:56.999Z</time></trkpt><trkpt lat="44.74380909729717" lon="10.48801498501963"><ele>54.0</ele><time>2026-04-11T12:00:57.999Z</time></trkpt><trkpt lat="44.7436078085054" lon="10.487876014698122"><ele>54.0</ele><time>2026-04-11T12:00:58.999Z</time></trkpt><trkpt lat="44.74340374694696" lon="10.487735783990392"><ele>53.0</ele><time>2026-04-11T12:00:59.999Z</time></trkpt><trkpt lat="44.743211997952045" lon="10.487586977576267"><ele>52.0</ele><time>2026-04-11T12:01:00.999Z</time></trkpt><trkpt lat="44.74303103035339" lon="10.487435430884043"><ele>51.0</ele><time>2026-04-11T12:01:01.999Z</time></trkpt><trkpt lat="44.742862688405175" lon="10.487252182876302"><ele>51.33333333333333</ele><time>2026-04-11T12:01:02.999Z</time></trkpt><trkpt lat="44.74271533052897" lon="10.487019726725402"><ele>51.666666666666664</ele><time>2026-04-11T12:01:03.999Z</time></trkpt><trkpt lat="44.74258461867573" lon="10.486761744466941"><ele>52.0</ele><time>2026-04-11T12:01:04.999Z</time></trkpt><trkpt lat="44.742458341205605" lon="10.486497783110929"><ele>52.5</ele><time>2026-04-11T12:01:05.999Z</time></trkpt><trkpt lat="44.742332104935244" lon="10.486232315356848"><ele>53.0</ele><time>2026-04-11T12:01:06.999Z</time></trkpt><trkpt lat="44.74220427378685" lon="10.485967449696625"><ele>53.0</ele><time>2026-04-11T12:01:07.999Z</time></trkpt><trkpt lat="44.7420666529349" lon="10.485712566741691"><ele>53.0</ele><time>2026-04-11T12:01:08.999Z</time></trkpt><trkpt lat="44.74191041302402" lon="10.48548525532443"><ele>54.0</ele><time>2026-04-11T12:01:09.999Z</time></trkpt><trkpt lat="44.741734260294756" lon="10.485293168220872"><ele>55.0</ele><time>2026-04-11T12:01:10.999Z</time></trkpt><trkpt lat="44.741540792459794" lon="10.485118647927287"><ele>55.0</ele><time>2026-04-11T12:01:11.999Z</time></trkpt><trkpt lat="44.741334420526" lon="10.484963260100852"><ele>55.0</ele><time>2026-04-11T12:01:12.999Z</time></trkpt><trkpt lat="44.74112642215458" lon="10.484825828810129"><ele>55.5</ele><time>2026-04-11T12:01:13.999Z</time></trkpt><trkpt lat="44.7409201834586" lon="10.484681481514896"><ele>56.0</ele><time>2026-04-11T12:01:14.999Z</time></trkpt><trkpt lat="44.740711322817916" lon="10.484525786150662"><ele>56.0</ele><time>2026-04-11T12:01:15.999Z</time></trkpt><trkpt lat="44.74050480612939" lon="10.484378077942724"><ele>56.0</ele><time>2026-04-11T12:01:16.999Z</time></trkpt><trkpt lat="44.7402912649828" lon="10.48422527389241"><ele>56.0</ele><time>2026-04-11T12:01:17.999Z</time></trkpt><trkpt lat="44.74008098486357" lon="10.484063293525411"><ele>56.0</ele><time>2026-04-11T12:01:18.999Z</time></trkpt><trkpt lat="44.73986939667804" lon="10.483900897672566"><ele>56.5</ele><time>2026-04-11T12:01:19.999Z</time></trkpt><trkpt lat="44.73966650327907" lon="10.483727570727202"><ele>57.0</ele><time>2026-04-11T12:01:20.999Z</time></trkpt><trkpt lat="44.73947145091726" lon="10.483544285869494"><ele>57.0</ele><time>2026-04-11T12:01:21.999Z</time></trkpt><trkpt lat="44.73927809805379" lon="10.483353919564415"><ele>57.0</ele><time>2026-04-11T12:01:22.999Z</time></trkpt><trkpt lat="44.73909089561328" lon="10.48315241529639"><ele>57.0</ele><time>2026-04-11T12:01:23.999Z</time></trkpt><trkpt lat="44.73890440675106" lon="10.482947322931942"><ele>57.0</ele><time>2026-04-11T12:01:24.999Z</time></trkpt><trkpt lat="44.73872130086344" lon="10.482732573981327"><ele>57.0</ele><time>2026-04-11T12:01:25.999Z</time></trkpt><trkpt lat="44.73854347246583" lon="10.48250725594846"><ele>57.0</ele><time>2026-04-11T12:01:26.999Z</time></trkpt><trkpt lat="44.738362140733834" lon="10.482288095176516"><ele>56.5</ele><time>2026-04-11T12:01:27.999Z</time></trkpt><trkpt lat="44.738180198548676" lon="10.482079154170462"><ele>56.0</ele><time>2026-04-11T12:01:28.999Z</time></trkpt><trkpt lat="44.73799455702016" lon="10.48187518703801"><ele>56.0</ele><time>2026-04-11T12:01:29.999Z</time></trkpt><trkpt lat="44.737807666991806" lon="10.481687855863992"><ele>56.0</ele><time>2026-04-11T12:01:30.999Z</time></trkpt><trkpt lat="44.737621802482444" lon="10.481499609163643"><ele>56.333333333333336</ele><time>2026-04-11T12:01:31.999Z</time></trkpt><trkpt lat="44.73743697153751" lon="10.481308442572551"><ele>56.66666666666667</ele><time>2026-04-11T12:01:32.998Z</time></trkpt><trkpt lat="44.737260436307686" lon="10.481126786092041"><ele>57.0</ele><time>2026-04-11T12:01:33.998Z</time></trkpt><trkpt lat="44.737093465671336" lon="10.480982298829153"><ele>57.33333333333333</ele><time>2026-04-11T12:01:34.998Z</time></trkpt><trkpt lat="44.73693624711361" lon="10.480848631913535"><ele>57.666666666666664</ele><time>2026-04-11T12:01:35.998Z</time></trkpt><trkpt lat="44.73678118712231" lon="10.480741169145478"><ele>58.0</ele><time>2026-04-11T12:01:36.998Z</time></trkpt><trkpt lat="44.736637277436856" lon="10.480657980041798"><ele>58.0</ele><time>2026-04-11T12:01:37.998Z</time></trkpt><trkpt lat="44.736220770809496" lon="10.480302825745868"><ele>58.0</ele><time>2026-04-11T12:01:38.998Z</time></trkpt><trkpt lat="44.73600184392619" lon="10.480184486796412"><ele>58.0</ele><time>2026-04-11T12:01:39.998Z</time></trkpt><trkpt lat="44.73577090758098" lon="10.480079385446524"><ele>58.0</ele><time>2026-04-11T12:01:40.998Z</time></trkpt><trkpt lat="44.73553140761901" lon="10.479990843047586"><ele>58.0</ele><time>2026-04-11T12:01:41.998Z</time></trkpt><trkpt lat="44.73529171900228" lon="10.479890581104158"><ele>58.5</ele><time>2026-04-11T12:01:42.998Z</time></trkpt><trkpt lat="44.735060517663" lon="10.479755390366961"><ele>59.0</ele><time>2026-04-11T12:01:43.998Z</time></trkpt><trkpt lat="44.73483012881" lon="10.479597622630843"><ele>59.0</ele><time>2026-04-11T12:01:44.998Z</time></trkpt><trkpt lat="44.73460817393398" lon="10.479422208094379"><ele>59.0</ele><time>2026-04-11T12:01:45.998Z</time></trkpt><trkpt lat="44.73438584977405" lon="10.479236737295185"><ele>59.5</ele><time>2026-04-11T12:01:46.998Z</time></trkpt><trkpt lat="44.73416817966811" lon="10.479051123212743"><ele>60.0</ele><time>2026-04-11T12:01:47.998Z</time></trkpt><trkpt lat="44.733951371424574" lon="10.478866746780003"><ele>60.5</ele><time>2026-04-11T12:01:48.998Z</time></trkpt><trkpt lat="44.733744084415726" lon="10.478678081534051"><ele>61.0</ele><time>2026-04-11T12:01:49.998Z</time></trkpt><trkpt lat="44.733538770826755" lon="10.478499561302872"><ele>62.0</ele><time>2026-04-11T12:01:50.998Z</time></trkpt><trkpt lat="44.73334066510516" lon="10.478324524396756"><ele>63.0</ele><time>2026-04-11T12:01:51.998Z</time></trkpt><trkpt lat="44.73314558615689" lon="10.478155531112776"><ele>63.0</ele><time>2026-04-11T12:01:52.998Z</time></trkpt><trkpt lat="44.73295694340978" lon="10.477989939791007"><ele>63.0</ele><time>2026-04-11T12:01:53.998Z</time></trkpt><trkpt lat="44.732778535773896" lon="10.477843294264472"><ele>63.0</ele><time>2026-04-11T12:01:54.998Z</time></trkpt><trkpt lat="44.73261347420223" lon="10.477703779833538"><ele>63.33333333333333</ele><time>2026-04-11T12:01:55.998Z</time></trkpt><trkpt lat="44.732447753599665" lon="10.477573124846984"><ele>63.666666666666664</ele><time>2026-04-11T12:01:56.998Z</time></trkpt><trkpt lat="44.732267907538784" lon="10.477438095051117"><ele>64.0</ele><time>2026-04-11T12:01:57.998Z</time></trkpt><trkpt lat="44.7320794155021" lon="10.477294255744923"><ele>64.0</ele><time>2026-04-11T12:01:58.998Z</time></trkpt><trkpt lat="44.73188151762314" lon="10.477166006915327"><ele>64.0</ele><time>2026-04-11T12:01:59.998Z</time></trkpt><trkpt lat="44.73166939581401" lon="10.477045495414648"><ele>64.0</ele><time>2026-04-11T12:02:00.998Z</time></trkpt><trkpt lat="44.731230225057324" lon="10.476799181950131"><ele>64.5</ele><time>2026-04-11T12:02:02.998Z</time></trkpt><trkpt lat="44.7310079395463" lon="10.476666574452494"><ele>65.0</ele><time>2026-04-11T12:02:03.998Z</time></trkpt><trkpt lat="44.73078728943319" lon="10.476537021455911"><ele>65.0</ele><time>2026-04-11T12:02:04.998Z</time></trkpt><trkpt lat="44.730569095126434" lon="10.476415855323413"><ele>65.0</ele><time>2026-04-11T12:02:05.998Z</time></trkpt><trkpt lat="44.730382212120304" lon="10.476285259338688"><ele>65.0</ele><time>2026-04-11T12:02:06.998Z</time></trkpt><trkpt lat="44.730230648860825" lon="10.476158799152254"><ele>65.0</ele><time>2026-04-11T12:02:07.998Z</time></trkpt><trkpt lat="44.73012889085952" lon="10.476014331226635"><ele>65.0</ele><time>2026-04-11T12:02:08.998Z</time></trkpt><trkpt lat="44.73005631043842" lon="10.475864903341416"><ele>65.0</ele><time>2026-04-11T12:02:09.998Z</time></trkpt><trkpt lat="44.72999938161708" lon="10.475716588974826"><ele>65.0</ele><time>2026-04-11T12:02:10.998Z</time></trkpt><trkpt lat="44.729969695897" lon="10.475558295257303"><ele>64.8</ele><time>2026-04-11T12:02:11.999Z</time></trkpt><trkpt lat="44.72998917834548" lon="10.475404005700568"><ele>64.6</ele><time>2026-04-11T12:02:12.999Z</time></trkpt><trkpt lat="44.7300253399916" lon="10.475265762911901"><ele>64.4</ele><time>2026-04-11T12:02:13.999Z</time></trkpt><trkpt lat="44.73000037360032" lon="10.475138166840386"><ele>64.2</ele><time>2026-04-11T12:02:14.999Z</time></trkpt><trkpt lat="44.729919944652906" lon="10.475048637786"><ele>64.0</ele><time>2026-04-11T12:02:15.999Z</time></trkpt><trkpt lat="44.72980611610707" lon="10.475012264151664"><ele>64.0</ele><time>2026-04-11T12:02:16.999Z</time></trkpt><trkpt lat="44.729663097693326" lon="10.47503944493651"><ele>64.0</ele><time>2026-04-11T12:02:17.999Z</time></trkpt><trkpt lat="44.72952309132654" lon="10.475055099528404"><ele>64.0</ele><time>2026-04-11T12:02:18.999Z</time></trkpt><trkpt lat="44.72937877955981" lon="10.475014029798565"><ele>64.0</ele><time>2026-04-11T12:02:19.999Z</time></trkpt><trkpt lat="44.72924010284611" lon="10.47494221484189"><ele>64.0</ele><time>2026-04-11T12:02:20.999Z</time></trkpt><trkpt lat="44.72911707627313" lon="10.474866634646046"><ele>64.0</ele><time>2026-04-11T12:02:21.999Z</time></trkpt><trkpt lat="44.728980950562956" lon="10.47479191749237"><ele>64.0</ele><time>2026-04-11T12:02:22.999Z</time></trkpt><trkpt lat="44.72884043922588" lon="10.474698655909258"><ele>64.0</ele><time>2026-04-11T12:02:23.999Z</time></trkpt><trkpt lat="44.7286976802511" lon="10.474593223950809"><ele>64.66666666666666</ele><time>2026-04-11T12:02:24.999Z</time></trkpt><trkpt lat="44.72855177284582" lon="10.474492379120578"><ele>65.33333333333333</ele><time>2026-04-11T12:02:25.999Z</time></trkpt><trkpt lat="44.72841400656221" lon="10.474362596175824"><ele>66.0</ele><time>2026-04-11T12:02:26.999Z</time></trkpt><trkpt lat="44.728281736991114" lon="10.47421023555861"><ele>66.0</ele><time>2026-04-11T12:02:27.999Z</time></trkpt><trkpt lat="44.728147913343776" lon="10.474049788075844"><ele>66.0</ele><time>2026-04-11T12:02:28.999Z</time></trkpt><trkpt lat="44.72800562417747" lon="10.473893944874893"><ele>66.0</ele><time>2026-04-11T12:02:29.999Z</time></trkpt><trkpt lat="44.72785554723017" lon="10.473761570210328"><ele>66.0</ele><time>2026-04-11T12:02:30.999Z</time></trkpt><trkpt lat="44.727710797386386" lon="10.473644346004091"><ele>66.0</ele><time>2026-04-11T12:02:31.999Z</time></trkpt><trkpt lat="44.7275724856166" lon="10.473537453986618"><ele>66.0</ele><time>2026-04-11T12:02:32.999Z</time></trkpt><trkpt lat="44.72744170438217" lon="10.47344006121074"><ele>66.0</ele><time>2026-04-11T12:02:33.999Z</time></trkpt><trkpt lat="44.727307126754354" lon="10.473345760581772"><ele>66.0</ele><time>2026-04-11T12:02:34.999Z</time></trkpt><trkpt lat="44.727172093150834" lon="10.4732509957711"><ele>66.0</ele><time>2026-04-11T12:02:35.999Z</time></trkpt><trkpt lat="44.727040563981284" lon="10.47315646063487"><ele>66.0</ele><time>2026-04-11T12:02:36.999Z</time></trkpt><trkpt lat="44.72691306996028" lon="10.473091228192594"><ele>66.5</ele><time>2026-04-11T12:02:37.999Z</time></trkpt><trkpt lat="44.726779499387895" lon="10.47303927414361"><ele>67.0</ele><time>2026-04-11T12:02:38.999Z</time></trkpt><trkpt lat="44.726644787574514" lon="10.472995785030571"><ele>67.5</ele><time>2026-04-11T12:02:39.999Z</time></trkpt><trkpt lat="44.72651152355284" lon="10.47295357896259"><ele>68.0</ele><time>2026-04-11T12:02:40.999Z</time></trkpt><trkpt lat="44.726380339648514" lon="10.472917005069966"><ele>68.0</ele><time>2026-04-11T12:02:41.999Z</time></trkpt><trkpt lat="44.72624772335681" lon="10.472903333370207"><ele>68.0</ele><time>2026-04-11T12:02:42.999Z</time></trkpt><trkpt lat="44.7261137291773" lon="10.47288956576525"><ele>68.0</ele><time>2026-04-11T12:02:43.999Z</time></trkpt><trkpt lat="44.72598016853641" lon="10.47287782729836"><ele>68.0</ele><time>2026-04-11T12:02:44.999Z</time></trkpt><trkpt lat="44.72583435236762" lon="10.472881280073588"><ele>68.0</ele><time>2026-04-11T12:02:45.999Z</time></trkpt><trkpt lat="44.7256830234177" lon="10.472897829920495"><ele>68.0</ele><time>2026-04-11T12:02:46.999Z</time></trkpt><trkpt lat="44.72553261813041" lon="10.472927007528355"><ele>68.0</ele><time>2026-04-11T12:02:47.999Z</time></trkpt><trkpt lat="44.72537475432121" lon="10.472952231112691"><ele>68.33333333333334</ele><time>2026-04-11T12:02:48.999Z</time></trkpt><trkpt lat="44.725216927575104" lon="10.47297597768277"><ele>68.66666666666667</ele><time>2026-04-11T12:02:49.999Z</time></trkpt><trkpt lat="44.72505620275858" lon="10.4730049723446"><ele>69.0</ele><time>2026-04-11T12:02:50.999Z</time></trkpt><trkpt lat="44.724893394134604" lon="10.473034898543025"><ele>69.0</ele><time>2026-04-11T12:02:51.999Z</time></trkpt><trkpt lat="44.72472899651689" lon="10.473060289281847"><ele>69.0</ele><time>2026-04-11T12:02:52.999Z</time></trkpt><trkpt lat="44.724567309884335" lon="10.473092821757513"><ele>69.0</ele><time>2026-04-11T12:02:53.999Z</time></trkpt><trkpt lat="44.72440165277972" lon="10.473129373141523"><ele>68.66666666666667</ele><time>2026-04-11T12:02:54.999Z</time></trkpt><trkpt lat="44.72423884232509" lon="10.473156753546002"><ele>68.33333333333334</ele><time>2026-04-11T12:02:55.999Z</time></trkpt><trkpt lat="44.72407293719703" lon="10.473175289273366"><ele>68.0</ele><time>2026-04-11T12:02:56.999Z</time></trkpt><trkpt lat="44.72390579075371" lon="10.473181156931034"><ele>68.0</ele><time>2026-04-11T12:02:57.999Z</time></trkpt><trkpt lat="44.72374567776087" lon="10.473166188064772"><ele>68.0</ele><time>2026-04-11T12:02:58.999Z</time></trkpt><trkpt lat="44.723601993175606" lon="10.473153933899432"><ele>68.0</ele><time>2026-04-11T12:02:59.999Z</time></trkpt><trkpt lat="44.72345901641567" lon="10.473132107583682"><ele>68.0</ele><time>2026-04-11T12:03:00.999Z</time></trkpt><trkpt lat="44.72331173652045" lon="10.47308987436467"><ele>68.0</ele><time>2026-04-11T12:03:01.999Z</time></trkpt><trkpt lat="44.72316601001994" lon="10.473048687216197"><ele>68.0</ele><time>2026-04-11T12:03:02.999Z</time></trkpt><trkpt lat="44.723020498035204" lon="10.473006833781525"><ele>68.0</ele><time>2026-04-11T12:03:03.999Z</time></trkpt><trkpt lat="44.722869969575136" lon="10.47295513850264"><ele>69.0</ele><time>2026-04-11T12:03:04.999Z</time></trkpt><trkpt lat="44.722720138654346" lon="10.47289621214507"><ele>70.0</ele><time>2026-04-11T12:03:05.999Z</time></trkpt><trkpt lat="44.722562289314595" lon="10.472840232418925"><ele>71.0</ele><time>2026-04-11T12:03:06.999Z</time></trkpt><trkpt lat="44.722394969318174" lon="10.4727825228606"><ele>71.0</ele><time>2026-04-11T12:03:07.999Z</time></trkpt><trkpt lat="44.722212884945996" lon="10.472731956760086"><ele>71.0</ele><time>2026-04-11T12:03:08.999Z</time></trkpt><trkpt lat="44.72201563849117" lon="10.472667303529905"><ele>71.0</ele><time>2026-04-11T12:03:09.999Z</time></trkpt><trkpt lat="44.721807012535294" lon="10.47258843838676"><ele>71.0</ele><time>2026-04-11T12:03:10.999Z</time></trkpt><trkpt lat="44.72159246067328" lon="10.472516931832109"><ele>71.0</ele><time>2026-04-11T12:03:11.999Z</time></trkpt><trkpt lat="44.72137538205123" lon="10.47244740331223"><ele>71.0</ele><time>2026-04-11T12:03:12.999Z</time></trkpt><trkpt lat="44.72114693909135" lon="10.472371490039347"><ele>70.5</ele><time>2026-04-11T12:03:13.999Z</time></trkpt><trkpt lat="44.72089840866781" lon="10.472274458077889"><ele>70.0</ele><time>2026-04-11T12:03:14.999Z</time></trkpt><trkpt lat="44.72063955406217" lon="10.472178324364046"><ele>70.5</ele><time>2026-04-11T12:03:15.999Z</time></trkpt><trkpt lat="44.72036976379852" lon="10.472086048392871"><ele>71.0</ele><time>2026-04-11T12:03:16.999Z</time></trkpt><trkpt lat="44.72012499069171" lon="10.471995618405874"><ele>71.33333333333334</ele><time>2026-04-11T12:03:17.999Z</time></trkpt><trkpt lat="44.71989785042625" lon="10.47191589475867"><ele>71.66666666666667</ele><time>2026-04-11T12:03:18.999Z</time></trkpt><trkpt lat="44.7196929109906" lon="10.471844724854487"><ele>72.0</ele><time>2026-04-11T12:03:19.999Z</time></trkpt><trkpt lat="44.71951144514027" lon="10.471776570148409"><ele>72.0</ele><time>2026-04-11T12:03:20.999Z</time></trkpt><trkpt lat="44.7193456418496" lon="10.47171429208664"><ele>72.0</ele><time>2026-04-11T12:03:21.999Z</time></trkpt><trkpt lat="44.71920249936877" lon="10.471645527472242"><ele>72.0</ele><time>2026-04-11T12:03:22.999Z</time></trkpt><trkpt lat="44.71908445455087" lon="10.47157023172569"><ele>72.0</ele><time>2026-04-11T12:03:23.999Z</time></trkpt><trkpt lat="44.71897167830885" lon="10.471501761456325"><ele>72.0</ele><time>2026-04-11T12:03:24.999Z</time></trkpt><trkpt lat="44.71886035850023" lon="10.471431831840183"><ele>72.0</ele><time>2026-04-11T12:03:25.999Z</time></trkpt><trkpt lat="44.71873741693756" lon="10.471351002850183"><ele>72.0</ele><time>2026-04-11T12:03:26.999Z</time></trkpt><trkpt lat="44.71861421717887" lon="10.471273028787826"><ele>72.2</ele><time>2026-04-11T12:03:27.999Z</time></trkpt><trkpt lat="44.718509011724684" lon="10.471207297216491"><ele>72.4</ele><time>2026-04-11T12:03:28.999Z</time></trkpt><trkpt lat="44.71841483602331" lon="10.471149060295556"><ele>72.6</ele><time>2026-04-11T12:03:29.999Z</time></trkpt><trkpt lat="44.71832564650751" lon="10.471095245459592"><ele>72.8</ele><time>2026-04-11T12:03:30.999Z</time></trkpt><trkpt lat="44.71824834437229" lon="10.471043030780917"><ele>73.0</ele><time>2026-04-11T12:03:31.999Z</time></trkpt><trkpt lat="44.718176521897" lon="10.470994306422627"><ele>73.0</ele><time>2026-04-11T12:03:32.999Z</time></trkpt><trkpt lat="44.71811058375248" lon="10.470951612283512"><ele>73.0</ele><time>2026-04-11T12:03:33.999Z</time></trkpt><trkpt lat="44.71804408671346" lon="10.4708867976311"><ele>73.0</ele><time>2026-04-11T12:03:34.999Z</time></trkpt><trkpt lat="44.71799148512045" lon="10.470780101654203"><ele>73.0</ele><time>2026-04-11T12:03:35.999Z</time></trkpt><trkpt lat="44.71795975613947" lon="10.470652961842207"><ele>73.0</ele><time>2026-04-11T12:03:36.999Z</time></trkpt><trkpt lat="44.71793242884187" lon="10.470548977925777"><ele>73.0</ele><time>2026-04-11T12:03:37.999Z</time></trkpt><trkpt lat="44.71786739416382" lon="10.470463162465961"><ele>73.0</ele><time>2026-04-11T12:03:38.999Z</time></trkpt><trkpt lat="44.71777416884368" lon="10.470422764434039"><ele>73.0</ele><time>2026-04-11T12:03:39.999Z</time></trkpt><trkpt lat="44.71768105406937" lon="10.470378588032938"><ele>73.0</ele><time>2026-04-11T12:03:40.999Z</time></trkpt><trkpt lat="44.71760478087052" lon="10.470291029553925"><ele>73.0</ele><time>2026-04-11T12:03:41.999Z</time></trkpt><trkpt lat="44.71755763918172" lon="10.470166693466288"><ele>73.0</ele><time>2026-04-11T12:03:42.999Z</time></trkpt><trkpt lat="44.71749324147419" lon="10.47005566045876"><ele>73.75</ele><time>2026-04-11T12:03:43.999Z</time></trkpt><trkpt lat="44.71738699028511" lon="10.470006391739513"><ele>74.5</ele><time>2026-04-11T12:03:44.999Z</time></trkpt><trkpt lat="44.71726458453438" lon="10.469999846810087"><ele>75.25</ele><time>2026-04-11T12:03:45.999Z</time></trkpt><trkpt lat="44.71713527924506" lon="10.470004241938309"><ele>76.0</ele><time>2026-04-11T12:03:46.999Z</time></trkpt><trkpt lat="44.71700894764628" lon="10.46998847195693"><ele>76.25</ele><time>2026-04-11T12:03:47.999Z</time></trkpt><trkpt lat="44.71688730039439" lon="10.469955146465466"><ele>76.5</ele><time>2026-04-11T12:03:48.999Z</time></trkpt><trkpt lat="44.71676228809133" lon="10.469900982638707"><ele>76.75</ele><time>2026-04-11T12:03:49.999Z</time></trkpt><trkpt lat="44.7166595158994" lon="10.46978440094547"><ele>77.0</ele><time>2026-04-11T12:03:50.999Z</time></trkpt><trkpt lat="44.716575465351035" lon="10.469617297310766"><ele>76.75</ele><time>2026-04-11T12:03:51.999Z</time></trkpt><trkpt lat="44.71649411507559" lon="10.469450662887635"><ele>76.5</ele><time>2026-04-11T12:03:52.999Z</time></trkpt><trkpt lat="44.71640403820001" lon="10.469294514095669"><ele>76.25</ele><time>2026-04-11T12:03:53.999Z</time></trkpt><trkpt lat="44.71631431270786" lon="10.469134026594816"><ele>76.0</ele><time>2026-04-11T12:03:54.999Z</time></trkpt><trkpt lat="44.71623403394888" lon="10.468959697485774"><ele>76.0</ele><time>2026-04-11T12:03:55.998Z</time></trkpt><trkpt lat="44.71615500853773" lon="10.468783676740125"><ele>76.0</ele><time>2026-04-11T12:03:56.998Z</time></trkpt><trkpt lat="44.71608049936222" lon="10.468619642312447"><ele>76.0</ele><time>2026-04-11T12:03:57.998Z</time></trkpt><trkpt lat="44.71600785906878" lon="10.468460262944344"><ele>76.0</ele><time>2026-04-11T12:03:58.998Z</time></trkpt><trkpt lat="44.715941365116414" lon="10.468291834859556"><ele>76.75</ele><time>2026-04-11T12:03:59.998Z</time></trkpt><trkpt lat="44.71587283406374" lon="10.46812300757161"><ele>77.5</ele><time>2026-04-11T12:04:00.998Z</time></trkpt><trkpt lat="44.71580383758996" lon="10.46795407335766"><ele>78.25</ele><time>2026-04-11T12:04:01.998Z</time></trkpt><trkpt lat="44.71573735662654" lon="10.467788887999875"><ele>79.0</ele><time>2026-04-11T12:04:02.998Z</time></trkpt><trkpt lat="44.71566949803137" lon="10.46761106536232"><ele>79.25</ele><time>2026-04-11T12:04:03.998Z</time></trkpt><trkpt lat="44.715607466861044" lon="10.467424473594042"><ele>79.5</ele><time>2026-04-11T12:04:04.998Z</time></trkpt><trkpt lat="44.71554423652255" lon="10.467241040978822"><ele>79.75</ele><time>2026-04-11T12:04:05.998Z</time></trkpt><trkpt lat="44.71547583026973" lon="10.467054421658796"><ele>80.0</ele><time>2026-04-11T12:04:06.998Z</time></trkpt><trkpt lat="44.71540603149491" lon="10.466867484609438"><ele>80.0</ele><time>2026-04-11T12:04:07.998Z</time></trkpt><trkpt lat="44.71533650355917" lon="10.466689630475653"><ele>80.0</ele><time>2026-04-11T12:04:08.998Z</time></trkpt><trkpt lat="44.715269427704555" lon="10.466520491243072"><ele>80.0</ele><time>2026-04-11T12:04:09.998Z</time></trkpt><trkpt lat="44.71520644595177" lon="10.466351558321586"><ele>80.0</ele><time>2026-04-11T12:04:10.998Z</time></trkpt><trkpt lat="44.715157791586435" lon="10.466213339753255"><ele>80.16666666666667</ele><time>2026-04-11T12:04:11.998Z</time></trkpt><trkpt lat="44.71512060277642" lon="10.46611406126853"><ele>80.33333333333334</ele><time>2026-04-11T12:04:12.998Z</time></trkpt><trkpt lat="44.71508589996154" lon="10.466029180871043"><ele>80.5</ele><time>2026-04-11T12:04:13.998Z</time></trkpt><trkpt lat="44.71503689997033" lon="10.465926775847507"><ele>80.66666666666667</ele><time>2026-04-11T12:04:14.998Z</time></trkpt><trkpt lat="44.714974968259305" lon="10.465822388909645"><ele>80.83333333333333</ele><time>2026-04-11T12:04:15.998Z</time></trkpt><trkpt lat="44.71489579053752" lon="10.46570774350719"><ele>81.0</ele><time>2026-04-11T12:04:16.998Z</time></trkpt><trkpt lat="44.714803554507704" lon="10.465585349212859"><ele>81.0</ele><time>2026-04-11T12:04:17.999Z</time></trkpt><trkpt lat="44.71470027268894" lon="10.46547028742128"><ele>81.0</ele><time>2026-04-11T12:04:18.999Z</time></trkpt><trkpt lat="44.714596056263" lon="10.465342938457853"><ele>81.0</ele><time>2026-04-11T12:04:19.999Z</time></trkpt><trkpt lat="44.71449335328194" lon="10.465217847092765"><ele>81.0</ele><time>2026-04-11T12:04:20.999Z</time></trkpt><trkpt lat="44.714387599156574" lon="10.465084454336152"><ele>81.25</ele><time>2026-04-11T12:04:21.999Z</time></trkpt><trkpt lat="44.714276582189754" lon="10.464944421760988"><ele>81.5</ele><time>2026-04-11T12:04:22.999Z</time></trkpt><trkpt lat="44.7142000686662" lon="10.46484493661823"><ele>81.75</ele><time>2026-04-11T12:04:24Z</time></trkpt><trkpt lat="44.714097875069996" lon="10.464716485530284"><ele>82.0</ele><time>2026-04-11T12:04:25Z</time></trkpt><trkpt lat="44.71399249407016" lon="10.46458767897105"><ele>82.0</ele><time>2026-04-11T12:04:26Z</time></trkpt><trkpt lat="44.7138848491324" lon="10.4644594516307"><ele>82.0</ele><time>2026-04-11T12:04:27Z</time></trkpt><trkpt lat="44.71377586152075" lon="10.464335890133336"><ele>82.0</ele><time>2026-04-11T12:04:28Z</time></trkpt><trkpt lat="44.71366023473239" lon="10.464206074231319"><ele>82.0</ele><time>2026-04-11T12:04:29Z</time></trkpt><trkpt lat="44.71354701635315" lon="10.464074651280226"><ele>82.66666666666666</ele><time>2026-04-11T12:04:30Z</time></trkpt><trkpt lat="44.71343342939823" lon="10.463925875722177"><ele>83.33333333333333</ele><time>2026-04-11T12:04:31Z</time></trkpt><trkpt lat="44.713314691375714" lon="10.463772884882925"><ele>84.0</ele><time>2026-04-11T12:04:32Z</time></trkpt><trkpt lat="44.71318734162096" lon="10.463609296772809"><ele>84.0</ele><time>2026-04-11T12:04:33Z</time></trkpt><trkpt lat="44.71306997063255" lon="10.463455083152885"><ele>84.0</ele><time>2026-04-11T12:04:34Z</time></trkpt><trkpt lat="44.71294959040247" lon="10.463282490983755"><ele>84.0</ele><time>2026-04-11T12:04:35Z</time></trkpt><trkpt lat="44.71283070231347" lon="10.46310012296649"><ele>84.0</ele><time>2026-04-11T12:04:36Z</time></trkpt><trkpt lat="44.7127148192282" lon="10.462917745196444"><ele>84.0</ele><time>2026-04-11T12:04:37Z</time></trkpt><trkpt lat="44.71261038273646" lon="10.462730938628734"><ele>84.0</ele><time>2026-04-11T12:04:38Z</time></trkpt><trkpt lat="44.712516822148444" lon="10.46254342204286"><ele>84.0</ele><time>2026-04-11T12:04:39Z</time></trkpt><trkpt lat="44.71243259006807" lon="10.462355991988158"><ele>84.0</ele><time>2026-04-11T12:04:40Z</time></trkpt><trkpt lat="44.71234598660643" lon="10.462158030582016"><ele>84.0</ele><time>2026-04-11T12:04:41Z</time></trkpt><trkpt lat="44.71224472892748" lon="10.461963729518075"><ele>83.66666666666667</ele><time>2026-04-11T12:04:42Z</time></trkpt><trkpt lat="44.71214849675393" lon="10.461770264250282"><ele>83.33333333333334</ele><time>2026-04-11T12:04:43Z</time></trkpt><trkpt lat="44.71205163394417" lon="10.461572515523983"><ele>83.0</ele><time>2026-04-11T12:04:44Z</time></trkpt><trkpt lat="44.71195247486419" lon="10.46138365136534"><ele>83.66666666666667</ele><time>2026-04-11T12:04:45Z</time></trkpt><trkpt lat="44.71184278272472" lon="10.461200561868434"><ele>84.33333333333333</ele><time>2026-04-11T12:04:46Z</time></trkpt><trkpt lat="44.71172897922325" lon="10.460997561659239"><ele>85.0</ele><time>2026-04-11T12:04:47Z</time></trkpt><trkpt lat="44.711613940599555" lon="10.460784097832702"><ele>85.0</ele><time>2026-04-11T12:04:48Z</time></trkpt><trkpt lat="44.71148561165027" lon="10.460571631581416"><ele>85.0</ele><time>2026-04-11T12:04:48.999Z</time></trkpt><trkpt lat="44.71135644033386" lon="10.460369068381208"><ele>85.0</ele><time>2026-04-11T12:04:49.999Z</time></trkpt><trkpt lat="44.71122625267713" lon="10.460184229953981"><ele>85.0</ele><time>2026-04-11T12:04:50.999Z</time></trkpt><trkpt lat="44.71112763099125" lon="10.459987010811407"><ele>85.0</ele><time>2026-04-11T12:04:51.999Z</time></trkpt><trkpt lat="44.71102754592892" lon="10.459789512451568"><ele>85.0</ele><time>2026-04-11T12:04:52.999Z</time></trkpt><trkpt lat="44.71092988834276" lon="10.459605302630335"><ele>84.66666666666666</ele><time>2026-04-11T12:04:53.999Z</time></trkpt><trkpt lat="44.71081958645736" lon="10.459444049079814"><ele>84.33333333333333</ele><time>2026-04-11T12:04:54.999Z</time></trkpt><trkpt lat="44.71071809115958" lon="10.459292639265112"><ele>84.0</ele><time>2026-04-11T12:04:55.999Z</time></trkpt><trkpt lat="44.71061656280314" lon="10.459119284455179"><ele>84.0</ele><time>2026-04-11T12:04:56.999Z</time></trkpt><trkpt lat="44.7105136639039" lon="10.458936418626173"><ele>84.0</ele><time>2026-04-11T12:04:57.999Z</time></trkpt><trkpt lat="44.71040156778884" lon="10.45875887803522"><ele>84.0</ele><time>2026-04-11T12:04:58.999Z</time></trkpt><trkpt lat="44.71026563109938" lon="10.45860129397817"><ele>85.33333333333333</ele><time>2026-04-11T12:04:59.999Z</time></trkpt><trkpt lat="44.710104658108875" lon="10.458470974771839"><ele>86.66666666666666</ele><time>2026-04-11T12:05:00.999Z</time></trkpt><trkpt lat="44.70992549656417" lon="10.458348755029364"><ele>88.0</ele><time>2026-04-11T12:05:01.999Z</time></trkpt><trkpt lat="44.70978049844197" lon="10.45819866086872"><ele>88.0</ele><time>2026-04-11T12:05:02.999Z</time></trkpt><trkpt lat="44.709720559228224" lon="10.458061189247264"><ele>88.0</ele><time>2026-04-11T12:05:03.999Z</time></trkpt><trkpt lat="44.70962374847519" lon="10.457937160676954"><ele>88.0</ele><time>2026-04-11T12:05:04.999Z</time></trkpt><trkpt lat="44.709513592517446" lon="10.457845641250376"><ele>88.0</ele><time>2026-04-11T12:05:05.999Z</time></trkpt><trkpt lat="44.70942627837732" lon="10.45774908535135"><ele>88.0</ele><time>2026-04-11T12:05:06.999Z</time></trkpt><trkpt lat="44.70934924795988" lon="10.457667959687546"><ele>88.0</ele><time>2026-04-11T12:05:07.999Z</time></trkpt><trkpt lat="44.70928099028403" lon="10.457596463388574"><ele>88.0</ele><time>2026-04-11T12:05:08.999Z</time></trkpt><trkpt lat="44.70923021584971" lon="10.457506109549545"><ele>88.0</ele><time>2026-04-11T12:05:09.999Z</time></trkpt><trkpt lat="44.709181748076354" lon="10.457371867637594"><ele>88.0</ele><time>2026-04-11T12:05:10.999Z</time></trkpt><trkpt lat="44.70909835255515" lon="10.457274450084977"><ele>88.0</ele><time>2026-04-11T12:05:11.999Z</time></trkpt><trkpt lat="44.70902985127631" lon="10.45724765720614"><ele>88.0</ele><time>2026-04-11T12:05:12.999Z</time></trkpt><trkpt lat="44.70893318288964" lon="10.457258802800313"><ele>88.0</ele><time>2026-04-11T12:05:14.999Z</time></trkpt><trkpt lat="44.70886154085226" lon="10.457198084267317"><ele>88.0</ele><time>2026-04-11T12:05:15.999Z</time></trkpt><trkpt lat="44.70878725435246" lon="10.457100571122377"><ele>88.0</ele><time>2026-04-11T12:05:16.999Z</time></trkpt><trkpt lat="44.70870129585109" lon="10.457003448207985"><ele>87.80000000000001</ele><time>2026-04-11T12:05:17.999Z</time></trkpt><trkpt lat="44.70860391300985" lon="10.456912611114449"><ele>87.6</ele><time>2026-04-11T12:05:18.999Z</time></trkpt><trkpt lat="44.70851855747832" lon="10.456825269597374"><ele>87.4</ele><time>2026-04-11T12:05:19.999Z</time></trkpt><trkpt lat="44.70844025976097" lon="10.456745688845738"><ele>87.19999999999999</ele><time>2026-04-11T12:05:20.999Z</time></trkpt><trkpt lat="44.708386230260025" lon="10.456671113030835"><ele>87.0</ele><time>2026-04-11T12:05:21.999Z</time></trkpt><trkpt lat="44.708325299997476" lon="10.456603535563621"><ele>87.6</ele><time>2026-04-11T12:05:22.999Z</time></trkpt><trkpt lat="44.70825259015592" lon="10.456550579709118"><ele>88.19999999999999</ele><time>2026-04-11T12:05:23.999Z</time></trkpt><trkpt lat="44.70818635859096" lon="10.456497155945588"><ele>88.8</ele><time>2026-04-11T12:05:24.999Z</time></trkpt><trkpt lat="44.70809762083737" lon="10.456425069445043"><ele>89.4</ele><time>2026-04-11T12:05:25.999Z</time></trkpt><trkpt lat="44.70800589787985" lon="10.456356916473489"><ele>90.0</ele><time>2026-04-11T12:05:26.999Z</time></trkpt><trkpt lat="44.70791951390814" lon="10.456281433689528"><ele>90.0</ele><time>2026-04-11T12:05:27.999Z</time></trkpt><trkpt lat="44.707827152545434" lon="10.456203629078525"><ele>90.0</ele><time>2026-04-11T12:05:28.999Z</time></trkpt><trkpt lat="44.707733614057425" lon="10.45612447841353"><ele>90.0</ele><time>2026-04-11T12:05:29.999Z</time></trkpt><trkpt lat="44.70763443363072" lon="10.456046692321951"><ele>90.0</ele><time>2026-04-11T12:05:30.999Z</time></trkpt><trkpt lat="44.707531254831565" lon="10.455965428952682"><ele>90.0</ele><time>2026-04-11T12:05:31.999Z</time></trkpt><trkpt lat="44.707432957346505" lon="10.455872634286598"><ele>90.25</ele><time>2026-04-11T12:05:32.999Z</time></trkpt><trkpt lat="44.707333958131336" lon="10.455780669383138"><ele>90.5</ele><time>2026-04-11T12:05:33.999Z</time></trkpt><trkpt lat="44.707232438349926" lon="10.455687759603402"><ele>90.75</ele><time>2026-04-11T12:05:34.999Z</time></trkpt><trkpt lat="44.70712737017202" lon="10.455581556143592"><ele>91.0</ele><time>2026-04-11T12:05:35.999Z</time></trkpt><trkpt lat="44.70701707793991" lon="10.455475867095423"><ele>91.5</ele><time>2026-04-11T12:05:36.999Z</time></trkpt><trkpt lat="44.70691504030389" lon="10.455378607327452"><ele>92.0</ele><time>2026-04-11T12:05:37.999Z</time></trkpt><trkpt lat="44.70681723973477" lon="10.455278203053258"><ele>92.5</ele><time>2026-04-11T12:05:38.999Z</time></trkpt><trkpt lat="44.7067166779086" lon="10.455179282037236"><ele>93.0</ele><time>2026-04-11T12:05:39.999Z</time></trkpt><trkpt lat="44.706601305478856" lon="10.455074834696267"><ele>93.25</ele><time>2026-04-11T12:05:40.999Z</time></trkpt><trkpt lat="44.70646954123463" lon="10.454952429092009"><ele>93.5</ele><time>2026-04-11T12:05:41.999Z</time></trkpt><trkpt lat="44.70635335412226" lon="10.454851340370219"><ele>93.75</ele><time>2026-04-11T12:05:42.999Z</time></trkpt><trkpt lat="44.706250819149815" lon="10.45475082140232"><ele>94.0</ele><time>2026-04-11T12:05:43.999Z</time></trkpt><trkpt lat="44.70615008215619" lon="10.45465565017298"><ele>94.0</ele><time>2026-04-11T12:05:44.999Z</time></trkpt><trkpt lat="44.70604405152529" lon="10.4545605429564"><ele>94.0</ele><time>2026-04-11T12:05:45.999Z</time></trkpt><trkpt lat="44.7059393864425" lon="10.454455210782017"><ele>94.0</ele><time>2026-04-11T12:05:46.999Z</time></trkpt><trkpt lat="44.705845183801415" lon="10.454373051125486"><ele>94.0</ele><time>2026-04-11T12:05:47.999Z</time></trkpt><trkpt lat="44.705741287068555" lon="10.454286472972843"><ele>94.0</ele><time>2026-04-11T12:05:48.999Z</time></trkpt><trkpt lat="44.705631698532606" lon="10.45418950763123"><ele>94.0</ele><time>2026-04-11T12:05:49.999Z</time></trkpt><trkpt lat="44.70552742991859" lon="10.45407581208056"><ele>94.0</ele><time>2026-04-11T12:05:50.999Z</time></trkpt><trkpt lat="44.70543347504266" lon="10.453898280488461"><ele>94.0</ele><time>2026-04-11T12:05:51.999Z</time></trkpt><trkpt lat="44.70535922516104" lon="10.453695474328036"><ele>93.75</ele><time>2026-04-11T12:05:52.999Z</time></trkpt><trkpt lat="44.705276178662274" lon="10.453517239289678"><ele>93.5</ele><time>2026-04-11T12:05:53.999Z</time></trkpt><trkpt lat="44.705198837069815" lon="10.453360125881444"><ele>93.25</ele><time>2026-04-11T12:05:54.999Z</time></trkpt><trkpt lat="44.705122922115535" lon="10.453198046279345"><ele>93.0</ele><time>2026-04-11T12:05:55.999Z</time></trkpt><trkpt lat="44.70504956666241" lon="10.453027501043692"><ele>92.75</ele><time>2026-04-11T12:05:56.999Z</time></trkpt><trkpt lat="44.70497201985285" lon="10.45285554821708"><ele>92.5</ele><time>2026-04-11T12:05:57.999Z</time></trkpt><trkpt lat="44.704901899556106" lon="10.452681502253723"><ele>92.25</ele><time>2026-04-11T12:05:58.999Z</time></trkpt><trkpt lat="44.70482629514234" lon="10.452509801163732"><ele>92.0</ele><time>2026-04-11T12:05:59.999Z</time></trkpt><trkpt lat="44.70475006020769" lon="10.452343587929148"><ele>92.0</ele><time>2026-04-11T12:06:00.999Z</time></trkpt><trkpt lat="44.70468359063613" lon="10.452202202249719"><ele>92.0</ele><time>2026-04-11T12:06:01.999Z</time></trkpt><trkpt lat="44.70461998771831" lon="10.452067002466501"><ele>92.0</ele><time>2026-04-11T12:06:02.999Z</time></trkpt><trkpt lat="44.70456970448189" lon="10.451956060354307"><ele>92.0</ele><time>2026-04-11T12:06:03.999Z</time></trkpt><trkpt lat="44.70454125547946" lon="10.451846394234737"><ele>92.0</ele><time>2026-04-11T12:06:04.999Z</time></trkpt><trkpt lat="44.70454424807159" lon="10.45172654509248"><ele>92.0</ele><time>2026-04-11T12:06:05.999Z</time></trkpt><trkpt lat="44.70451724542247" lon="10.451627795702993"><ele>92.0</ele><time>2026-04-11T12:06:06.999Z</time></trkpt><trkpt lat="44.70443911689576" lon="10.451543500963574"><ele>92.0</ele><time>2026-04-11T12:06:07.999Z</time></trkpt><trkpt lat="44.70433886599955" lon="10.451460666301697"><ele>92.0</ele><time>2026-04-11T12:06:08.999Z</time></trkpt><trkpt lat="44.704239899784234" lon="10.451346342544118"><ele>92.0</ele><time>2026-04-11T12:06:09.999Z</time></trkpt><trkpt lat="44.704140657131056" lon="10.451222777642306"><ele>91.8</ele><time>2026-04-11T12:06:10.999Z</time></trkpt><trkpt lat="44.70404663574535" lon="10.451119551432297"><ele>91.6</ele><time>2026-04-11T12:06:11.999Z</time></trkpt><trkpt lat="44.70396589810991" lon="10.451029999129513"><ele>91.39999999999999</ele><time>2026-04-11T12:06:12.999Z</time></trkpt><trkpt lat="44.70388942338879" lon="10.450947860116576"><ele>91.19999999999999</ele><time>2026-04-11T12:06:13.999Z</time></trkpt><trkpt lat="44.70381321573744" lon="10.45087089891535"><ele>91.0</ele><time>2026-04-11T12:06:14.999Z</time></trkpt><trkpt lat="44.70374400553665" lon="10.450786361782372"><ele>91.0</ele><time>2026-04-11T12:06:15.999Z</time></trkpt><trkpt lat="44.70368677499848" lon="10.450690526796125"><ele>91.0</ele><time>2026-04-11T12:06:16.999Z</time></trkpt><trkpt lat="44.703618476683985" lon="10.450655480010665"><ele>91.0</ele><time>2026-04-11T12:06:17.998Z</time></trkpt><trkpt lat="44.703535492900926" lon="10.450669079108144"><ele>91.0</ele><time>2026-04-11T12:06:18.998Z</time></trkpt><trkpt lat="44.70343292428403" lon="10.450669633298514"><ele>91.0</ele><time>2026-04-11T12:06:19.998Z</time></trkpt><trkpt lat="44.70333280849155" lon="10.450616459602983"><ele>91.5</ele><time>2026-04-11T12:06:20.998Z</time></trkpt><trkpt lat="44.70321860742719" lon="10.45054453155363"><ele>92.0</ele><time>2026-04-11T12:06:21.998Z</time></trkpt><trkpt lat="44.703096086559825" lon="10.450471288020427"><ele>92.5</ele><time>2026-04-11T12:06:22.998Z</time></trkpt><trkpt lat="44.70298077298165" lon="10.450383932438227"><ele>93.0</ele><time>2026-04-11T12:06:23.999Z</time></trkpt><trkpt lat="44.70287021751043" lon="10.45029784677796"><ele>93.0</ele><time>2026-04-11T12:06:24.999Z</time></trkpt><trkpt lat="44.702767070702215" lon="10.450220454648697"><ele>93.0</ele><time>2026-04-11T12:06:25.999Z</time></trkpt><trkpt lat="44.702652852005095" lon="10.450135803708338"><ele>93.0</ele><time>2026-04-11T12:06:26.999Z</time></trkpt><trkpt lat="44.70253776406714" lon="10.450041125906177"><ele>93.0</ele><time>2026-04-11T12:06:27.999Z</time></trkpt><trkpt lat="44.70242407701889" lon="10.449960455973"><ele>93.25</ele><time>2026-04-11T12:06:28.999Z</time></trkpt><trkpt lat="44.70232626646378" lon="10.449882254722777"><ele>93.5</ele><time>2026-04-11T12:06:29.999Z</time></trkpt><trkpt lat="44.70221677058691" lon="10.44981161364483"><ele>93.75</ele><time>2026-04-11T12:06:30.999Z</time></trkpt><trkpt lat="44.70210199931838" lon="10.449755046759128"><ele>94.0</ele><time>2026-04-11T12:06:31.999Z</time></trkpt><trkpt lat="44.70198758570843" lon="10.449701238244986"><ele>94.0</ele><time>2026-04-11T12:06:32.999Z</time></trkpt><trkpt lat="44.70186874284719" lon="10.449654293317412"><ele>94.0</ele><time>2026-04-11T12:06:33.999Z</time></trkpt><trkpt lat="44.70174604957866" lon="10.449597166555046"><ele>94.0</ele><time>2026-04-11T12:06:34.999Z</time></trkpt><trkpt lat="44.70161921367782" lon="10.449534824805042"><ele>94.0</ele><time>2026-04-11T12:06:35.999Z</time></trkpt><trkpt lat="44.70148978475792" lon="10.44947904409454"><ele>94.2</ele><time>2026-04-11T12:06:36.999Z</time></trkpt><trkpt lat="44.70136341721872" lon="10.449424248181824"><ele>94.4</ele><time>2026-04-11T12:06:37.999Z</time></trkpt><trkpt lat="44.701261394527904" lon="10.44938109058528"><ele>94.6</ele><time>2026-04-11T12:06:38.999Z</time></trkpt><trkpt lat="44.701166799498615" lon="10.449337294762087"><ele>94.8</ele><time>2026-04-11T12:06:39.999Z</time></trkpt><trkpt lat="44.7010782560808" lon="10.449299778918899"><ele>95.0</ele><time>2026-04-11T12:06:40.999Z</time></trkpt><trkpt lat="44.70100199492269" lon="10.449266174088182"><ele>95.6</ele><time>2026-04-11T12:06:41.999Z</time></trkpt><trkpt lat="44.70091505501789" lon="10.44925759323962"><ele>96.2</ele><time>2026-04-11T12:06:42.999Z</time></trkpt><trkpt lat="44.70082498634463" lon="10.449261336513766"><ele>96.80000000000001</ele><time>2026-04-11T12:06:43.999Z</time></trkpt><trkpt lat="44.70074112413515" lon="10.449282568377798"><ele>97.4</ele><time>2026-04-11T12:06:44.999Z</time></trkpt><trkpt lat="44.700673515863755" lon="10.44929514232903"><ele>98.0</ele><time>2026-04-11T12:06:45.999Z</time></trkpt><trkpt lat="44.700541715489784" lon="10.449293490816576"><ele>98.0</ele><time>2026-04-11T12:06:47.999Z</time></trkpt><trkpt lat="44.70046129154579" lon="10.4493159545288"><ele>98.0</ele><time>2026-04-11T12:06:48.999Z</time></trkpt><trkpt lat="44.7003803722083" lon="10.449332006545337"><ele>98.0</ele><time>2026-04-11T12:06:49.999Z</time></trkpt><trkpt lat="44.70031387382535" lon="10.449311447640232"><ele>98.0</ele><time>2026-04-11T12:06:54.999Z</time></trkpt><trkpt lat="44.70024863923161" lon="10.449296341011308"><ele>98.0</ele><time>2026-04-11T12:06:55.999Z</time></trkpt><trkpt lat="44.70017788512376" lon="10.449282453004418"><ele>98.0</ele><time>2026-04-11T12:06:56.999Z</time></trkpt><trkpt lat="44.70010569382464" lon="10.44927227257699"><ele>98.0</ele><time>2026-04-11T12:06:57.999Z</time></trkpt><trkpt lat="44.70003682017689" lon="10.449247729167245"><ele>98.33333333333333</ele><time>2026-04-11T12:06:58.999Z</time></trkpt><trkpt lat="44.69996418569941" lon="10.449223147462327"><ele>98.66666666666666</ele><time>2026-04-11T12:06:59.999Z</time></trkpt><trkpt lat="44.69988693537149" lon="10.449202502151007"><ele>99.0</ele><time>2026-04-11T12:07:00.999Z</time></trkpt><trkpt lat="44.69980135625162" lon="10.44918340629909"><ele>99.33333333333334</ele><time>2026-04-11T12:07:01.999Z</time></trkpt><trkpt lat="44.69970973084826" lon="10.44916143260028"><ele>99.66666666666667</ele><time>2026-04-11T12:07:02.999Z</time></trkpt><trkpt lat="44.699614383905455" lon="10.44912831228854"><ele>100.0</ele><time>2026-04-11T12:07:03.999Z</time></trkpt><trkpt lat="44.69952188905471" lon="10.449086216585322"><ele>100.0</ele><time>2026-04-11T12:07:04.999Z</time></trkpt><trkpt lat="44.699422110844246" lon="10.449050337538244"><ele>100.0</ele><time>2026-04-11T12:07:05.999Z</time></trkpt><trkpt lat="44.69933068212317" lon="10.449015605365474"><ele>100.0</ele><time>2026-04-11T12:07:06.999Z</time></trkpt><trkpt lat="44.699246137959996" lon="10.448967938125193"><ele>100.0</ele><time>2026-04-11T12:07:07.999Z</time></trkpt><trkpt lat="44.69916078709584" lon="10.448926866574645"><ele>100.0</ele><time>2026-04-11T12:07:08.999Z</time></trkpt><trkpt lat="44.69906882800824" lon="10.448895959861542"><ele>100.00000000000001</ele><time>2026-04-11T12:07:09.999Z</time></trkpt><trkpt lat="44.69897297840316" lon="10.448872819690779"><ele>100.0</ele><time>2026-04-11T12:07:10.999Z</time></trkpt><trkpt lat="44.69888363828661" lon="10.448849196010894"><ele>100.0</ele><time>2026-04-11T12:07:11.999Z</time></trkpt><trkpt lat="44.698804414385094" lon="10.448815768201634"><ele>100.0</ele><time>2026-04-11T12:07:12.999Z</time></trkpt><trkpt lat="44.69872619810637" lon="10.448786960684965"><ele>100.00000000000001</ele><time>2026-04-11T12:07:13.999Z</time></trkpt><trkpt lat="44.698660311423595" lon="10.44876001111948"><ele>100.0</ele><time>2026-04-11T12:07:14.999Z</time></trkpt><trkpt lat="44.698568769375136" lon="10.448644821006608"><ele>99.8</ele><time>2026-04-11T12:07:16.999Z</time></trkpt><trkpt lat="44.69853104026036" lon="10.448547214659358"><ele>99.6</ele><time>2026-04-11T12:07:17.999Z</time></trkpt><trkpt lat="44.69850214747063" lon="10.448429159242307"><ele>99.4</ele><time>2026-04-11T12:07:18.999Z</time></trkpt><trkpt lat="44.69849225368671" lon="10.448289530001274"><ele>99.2</ele><time>2026-04-11T12:07:19.999Z</time></trkpt><trkpt lat="44.698511379151675" lon="10.44812212082406"><ele>99.0</ele><time>2026-04-11T12:07:20.999Z</time></trkpt><trkpt lat="44.69855457247525" lon="10.447963381767446"><ele>99.25</ele><time>2026-04-11T12:07:21.999Z</time></trkpt><trkpt lat="44.6985967692276" lon="10.447795679491342"><ele>99.5</ele><time>2026-04-11T12:07:22.999Z</time></trkpt><trkpt lat="44.69863275676472" lon="10.447624485411762"><ele>99.75</ele><time>2026-04-11T12:07:23.999Z</time></trkpt><trkpt lat="44.69867763349078" lon="10.447459218041084"><ele>100.0</ele><time>2026-04-11T12:07:24.999Z</time></trkpt><trkpt lat="44.698724068711044" lon="10.447288925827158"><ele>100.0</ele><time>2026-04-11T12:07:25.999Z</time></trkpt><trkpt lat="44.69876480836885" lon="10.447129833202183"><ele>100.0</ele><time>2026-04-11T12:07:26.999Z</time></trkpt><trkpt lat="44.698817086485825" lon="10.446954071658359"><ele>100.0</ele><time>2026-04-11T12:07:27.999Z</time></trkpt><trkpt lat="44.69886736403563" lon="10.446770728727811"><ele>100.0</ele><time>2026-04-11T12:07:28.999Z</time></trkpt><trkpt lat="44.698910011480116" lon="10.44657977645474"><ele>99.66666666666667</ele><time>2026-04-11T12:07:29.999Z</time></trkpt><trkpt lat="44.69895598691216" lon="10.446380518899156"><ele>99.33333333333334</ele><time>2026-04-11T12:07:30.999Z</time></trkpt><trkpt lat="44.69900695022193" lon="10.446179352684757"><ele>99.0</ele><time>2026-04-11T12:07:31.999Z</time></trkpt><trkpt lat="44.69905533751886" lon="10.445979792222627"><ele>99.0</ele><time>2026-04-11T12:07:32.999Z</time></trkpt><trkpt lat="44.69910485781127" lon="10.445786134770001"><ele>99.0</ele><time>2026-04-11T12:07:33.999Z</time></trkpt><trkpt lat="44.69914768761814" lon="10.44559736318955"><ele>99.0</ele><time>2026-04-11T12:07:34.999Z</time></trkpt><trkpt lat="44.699192347732996" lon="10.445406492459131"><ele>99.0</ele><time>2026-04-11T12:07:35.999Z</time></trkpt><trkpt lat="44.699236958471225" lon="10.445214340968645"><ele>99.0</ele><time>2026-04-11T12:07:36.999Z</time></trkpt><trkpt lat="44.69928511737338" lon="10.445021375429851"><ele>99.0</ele><time>2026-04-11T12:07:37.999Z</time></trkpt><trkpt lat="44.6993397062365" lon="10.444820379869327"><ele>99.0</ele><time>2026-04-11T12:07:38.999Z</time></trkpt><trkpt lat="44.69939319374329" lon="10.44461805070111"><ele>98.33333333333334</ele><time>2026-04-11T12:07:39.999Z</time></trkpt><trkpt lat="44.69944594575949" lon="10.444408610881927"><ele>97.66666666666667</ele><time>2026-04-11T12:07:40.999Z</time></trkpt><trkpt lat="44.69949516580776" lon="10.444197783513138"><ele>97.0</ele><time>2026-04-11T12:07:41.999Z</time></trkpt><trkpt lat="44.69953394941094" lon="10.443996681749534"><ele>97.0</ele><time>2026-04-11T12:07:42.999Z</time></trkpt><trkpt lat="44.699566922608284" lon="10.443804903096868"><ele>97.0</ele><time>2026-04-11T12:07:43.999Z</time></trkpt><trkpt lat="44.69958757476319" lon="10.443630848532411"><ele>97.0</ele><time>2026-04-11T12:07:44.999Z</time></trkpt><trkpt lat="44.69960545682723" lon="10.443454032740854"><ele>97.0</ele><time>2026-04-11T12:07:45.999Z</time></trkpt><trkpt lat="44.69962275878773" lon="10.44325757717578"><ele>97.0</ele><time>2026-04-11T12:07:46.999Z</time></trkpt><trkpt lat="44.69963240368268" lon="10.443047977704348"><ele>97.0</ele><time>2026-04-11T12:07:47.999Z</time></trkpt><trkpt lat="44.69963405686044" lon="10.442834343290825"><ele>97.0</ele><time>2026-04-11T12:07:48.999Z</time></trkpt><trkpt lat="44.69962800919103" lon="10.442610064481142"><ele>97.0</ele><time>2026-04-11T12:07:49.999Z</time></trkpt><trkpt lat="44.69961484713275" lon="10.442391317237684"><ele>97.0</ele><time>2026-04-11T12:07:50.999Z</time></trkpt><trkpt lat="44.69958929475277" lon="10.442191986619113"><ele>97.0</ele><time>2026-04-11T12:07:51.999Z</time></trkpt><trkpt lat="44.699558642876426" lon="10.442019293368991"><ele>97.0</ele><time>2026-04-11T12:07:52.999Z</time></trkpt><trkpt lat="44.69951662803781" lon="10.441843332032132"><ele>97.0</ele><time>2026-04-11T12:07:53.999Z</time></trkpt><trkpt lat="44.699482765239274" lon="10.441639667620375"><ele>97.0</ele><time>2026-04-11T12:07:54.999Z</time></trkpt><trkpt lat="44.699434977922365" lon="10.441416320913538"><ele>97.0</ele><time>2026-04-11T12:07:55.999Z</time></trkpt><trkpt lat="44.69938345228935" lon="10.441226605416865"><ele>97.33333333333334</ele><time>2026-04-11T12:07:56.999Z</time></trkpt><trkpt lat="44.69932054358338" lon="10.441031841427654"><ele>97.66666666666666</ele><time>2026-04-11T12:07:57.999Z</time></trkpt><trkpt lat="44.699260869753424" lon="10.44083696788739"><ele>98.0</ele><time>2026-04-11T12:07:58.999Z</time></trkpt><trkpt lat="44.69920129202401" lon="10.44063927251741"><ele>98.0</ele><time>2026-04-11T12:07:59.999Z</time></trkpt><trkpt lat="44.69913820057437" lon="10.440430303904717"><ele>98.0</ele><time>2026-04-11T12:08:00.999Z</time></trkpt><trkpt lat="44.699082000087685" lon="10.440241092562443"><ele>98.0</ele><time>2026-04-11T12:08:01.999Z</time></trkpt><trkpt lat="44.69902443450304" lon="10.440054011120864"><ele>98.0</ele><time>2026-04-11T12:08:02.999Z</time></trkpt><trkpt lat="44.69897378319582" lon="10.43986911364665"><ele>98.0</ele><time>2026-04-11T12:08:03.999Z</time></trkpt><trkpt lat="44.698924606655176" lon="10.43969450063863"><ele>98.0</ele><time>2026-04-11T12:08:04.999Z</time></trkpt><trkpt lat="44.69887004499017" lon="10.43952526189224"><ele>98.0</ele><time>2026-04-11T12:08:05.999Z</time></trkpt><trkpt lat="44.698826544302705" lon="10.439369076391422"><ele>98.0</ele><time>2026-04-11T12:08:06.999Z</time></trkpt><trkpt lat="44.69878690708942" lon="10.439224281445586"><ele>98.0</ele><time>2026-04-11T12:08:07.999Z</time></trkpt><trkpt lat="44.69873956699863" lon="10.439073387156586"><ele>98.0</ele><time>2026-04-11T12:08:08.999Z</time></trkpt><trkpt lat="44.698693177539745" lon="10.438921365917105"><ele>98.0</ele><time>2026-04-11T12:08:09.999Z</time></trkpt><trkpt lat="44.69864854586929" lon="10.438772166478367"><ele>98.0</ele><time>2026-04-11T12:08:10.999Z</time></trkpt><trkpt lat="44.69860749604134" lon="10.438614827940023"><ele>98.0</ele><time>2026-04-11T12:08:11.999Z</time></trkpt><trkpt lat="44.69856984358503" lon="10.438458366174157"><ele>98.0</ele><time>2026-04-11T12:08:12.999Z</time></trkpt><trkpt lat="44.69854277039776" lon="10.438295853747189"><ele>98.0</ele><time>2026-04-11T12:08:13.999Z</time></trkpt><trkpt lat="44.69851346499681" lon="10.438133378670148"><ele>98.0</ele><time>2026-04-11T12:08:14.999Z</time></trkpt><trkpt lat="44.698496675381286" lon="10.437978636616643"><ele>98.0</ele><time>2026-04-11T12:08:15.999Z</time></trkpt><trkpt lat="44.69847829239031" lon="10.43784234235057"><ele>98.0</ele><time>2026-04-11T12:08:16.999Z</time></trkpt><trkpt lat="44.698463287906755" lon="10.437720511880709"><ele>98.0</ele><time>2026-04-11T12:08:17.999Z</time></trkpt><trkpt lat="44.69845027380334" lon="10.4376019687197"><ele>98.0</ele><time>2026-04-11T12:08:18.999Z</time></trkpt><trkpt lat="44.698470066239125" lon="10.437502862118539"><ele>98.60000000000001</ele><time>2026-04-11T12:08:19.999Z</time></trkpt><trkpt lat="44.698465935418355" lon="10.43740624807264"><ele>99.2</ele><time>2026-04-11T12:08:22.999Z</time></trkpt><trkpt lat="44.698461550474065" lon="10.437303690377869"><ele>99.8</ele><time>2026-04-11T12:08:24.999Z</time></trkpt><trkpt lat="44.69834243237328" lon="10.43717674030981"><ele>100.4</ele><time>2026-04-11T12:08:26.999Z</time></trkpt><trkpt lat="44.69831330923589" lon="10.437054967408274"><ele>101.0</ele><time>2026-04-11T12:08:27.999Z</time></trkpt><trkpt lat="44.698324061038846" lon="10.436910398089704"><ele>101.0</ele><time>2026-04-11T12:08:28.999Z</time></trkpt><trkpt lat="44.69833757328653" lon="10.436778839893767"><ele>101.0</ele><time>2026-04-11T12:08:29.999Z</time></trkpt><trkpt lat="44.698347496225765" lon="10.43666790456315"><ele>101.0</ele><time>2026-04-11T12:08:30.999Z</time></trkpt><trkpt lat="44.698355271433606" lon="10.43654960437865"><ele>101.0</ele><time>2026-04-11T12:08:31.999Z</time></trkpt><trkpt lat="44.698360334669395" lon="10.436426883182735"><ele>101.0</ele><time>2026-04-11T12:08:32.999Z</time></trkpt><trkpt lat="44.69837268531224" lon="10.436252679857732"><ele>101.19999999999999</ele><time>2026-04-11T12:08:35Z</time></trkpt><trkpt lat="44.698416351132316" lon="10.436145925775062"><ele>101.39999999999999</ele><time>2026-04-11T12:08:37Z</time></trkpt><trkpt lat="44.6983795166587" lon="10.435958012391822"><ele>101.6</ele><time>2026-04-11T12:08:39Z</time></trkpt><trkpt lat="44.69835992702596" lon="10.435777412186598"><ele>101.8</ele><time>2026-04-11T12:08:41Z</time></trkpt><trkpt lat="44.69833423715713" lon="10.435681354824299"><ele>102.0</ele><time>2026-04-11T12:08:42Z</time></trkpt><trkpt lat="44.6983147555496" lon="10.4355739367137"><ele>102.0</ele><time>2026-04-11T12:08:43Z</time></trkpt><trkpt lat="44.698277417598916" lon="10.435477966238322"><ele>102.0</ele><time>2026-04-11T12:08:44Z</time></trkpt><trkpt lat="44.698239464349314" lon="10.435388922725627"><ele>102.0</ele><time>2026-04-11T12:08:45Z</time></trkpt><trkpt lat="44.69815421519136" lon="10.435232174265156"><ele>102.0</ele><time>2026-04-11T12:08:47Z</time></trkpt><trkpt lat="44.69810544173682" lon="10.435125889064857"><ele>102.0</ele><time>2026-04-11T12:08:48Z</time></trkpt><trkpt lat="44.69803099317767" lon="10.43498876691673"><ele>101.8</ele><time>2026-04-11T12:08:49Z</time></trkpt><trkpt lat="44.69795570829842" lon="10.434861412677513"><ele>101.6</ele><time>2026-04-11T12:08:50Z</time></trkpt><trkpt lat="44.69789143453181" lon="10.434759622137529"><ele>101.39999999999999</ele><time>2026-04-11T12:08:51Z</time></trkpt><trkpt lat="44.69784127732526" lon="10.434662678295199"><ele>101.19999999999999</ele><time>2026-04-11T12:08:52Z</time></trkpt><trkpt lat="44.697791378891175" lon="10.434578361112601"><ele>101.0</ele><time>2026-04-11T12:08:53Z</time></trkpt><trkpt lat="44.697738182224974" lon="10.434458576392036"><ele>100.25</ele><time>2026-04-11T12:08:54Z</time></trkpt><trkpt lat="44.69763451846558" lon="10.434356408939175"><ele>99.5</ele><time>2026-04-11T12:08:55Z</time></trkpt><trkpt lat="44.69753114083391" lon="10.43427068611229"><ele>98.75</ele><time>2026-04-11T12:08:56Z</time></trkpt><trkpt lat="44.697421666087116" lon="10.43419989490169"><ele>98.0</ele><time>2026-04-11T12:08:57Z</time></trkpt><trkpt lat="44.69732146504972" lon="10.434129815432154"><ele>98.0</ele><time>2026-04-11T12:08:58Z</time></trkpt><trkpt lat="44.697199505119656" lon="10.434034178896669"><ele>98.0</ele><time>2026-04-11T12:08:59Z</time></trkpt><trkpt lat="44.69704756461704" lon="10.433933774545903"><ele>98.0</ele><time>2026-04-11T12:09:01Z</time></trkpt><trkpt lat="44.6969459475302" lon="10.433861869557353"><ele>98.0</ele><time>2026-04-11T12:09:02Z</time></trkpt><trkpt lat="44.69682825426786" lon="10.433775860450433"><ele>98.33333333333333</ele><time>2026-04-11T12:09:03Z</time></trkpt><trkpt lat="44.69668079601176" lon="10.433673720297406"><ele>98.66666666666666</ele><time>2026-04-11T12:09:04Z</time></trkpt><trkpt lat="44.69649940671476" lon="10.433553253476429"><ele>99.0</ele><time>2026-04-11T12:09:05Z</time></trkpt><trkpt lat="44.69631462202765" lon="10.433422436385404"><ele>99.0</ele><time>2026-04-11T12:09:06Z</time></trkpt><trkpt lat="44.69612741144641" lon="10.433320460604726"><ele>99.0</ele><time>2026-04-11T12:09:07Z</time></trkpt><trkpt lat="44.696064553809755" lon="10.433299776066706"><ele>99.0</ele><time>2026-04-11T12:09:08Z</time></trkpt><trkpt lat="44.695918213602766" lon="10.433217779793031"><ele>99.0</ele><time>2026-04-11T12:09:09Z</time></trkpt><trkpt lat="44.6957680576567" lon="10.433136820264936"><ele>99.25</ele><time>2026-04-11T12:09:10Z</time></trkpt><trkpt lat="44.695625655880704" lon="10.433049539254668"><ele>99.5</ele><time>2026-04-11T12:09:11Z</time></trkpt><trkpt lat="44.69549715376068" lon="10.432973641070008"><ele>99.75</ele><time>2026-04-11T12:09:12Z</time></trkpt><trkpt lat="44.6953830171188" lon="10.432904596651493"><ele>100.0</ele><time>2026-04-11T12:09:13Z</time></trkpt><trkpt lat="44.69528462792627" lon="10.432829799151675"><ele>99.6</ele><time>2026-04-11T12:09:14Z</time></trkpt><trkpt lat="44.69519860675271" lon="10.432763552959155"><ele>99.2</ele><time>2026-04-11T12:09:15Z</time></trkpt><trkpt lat="44.69511448346051" lon="10.432700352193834"><ele>98.80000000000001</ele><time>2026-04-11T12:09:15.999Z</time></trkpt><trkpt lat="44.69502522167682" lon="10.432633728568616"><ele>98.4</ele><time>2026-04-11T12:09:16.999Z</time></trkpt><trkpt lat="44.69494908738126" lon="10.43257684204339"><ele>98.0</ele><time>2026-04-11T12:09:17.999Z</time></trkpt><trkpt lat="44.69488254258965" lon="10.43251520003425"><ele>98.0</ele><time>2026-04-11T12:09:18.999Z</time></trkpt><trkpt lat="44.69479773446858" lon="10.432460047651054"><ele>98.0</ele><time>2026-04-11T12:09:19.999Z</time></trkpt><trkpt lat="44.69471489737464" lon="10.432382578015572"><ele>98.0</ele><time>2026-04-11T12:09:20.999Z</time></trkpt><trkpt lat="44.69461414689696" lon="10.432354251475598"><ele>98.0</ele><time>2026-04-11T12:09:21.999Z</time></trkpt><trkpt lat="44.69452287892009" lon="10.432329892742068"><ele>98.0</ele><time>2026-04-11T12:09:22.999Z</time></trkpt><trkpt lat="44.69442361247426" lon="10.432329229857846"><ele>98.16666666666666</ele><time>2026-04-11T12:09:23.999Z</time></trkpt><trkpt lat="44.69434163599224" lon="10.43236196304788"><ele>98.33333333333333</ele><time>2026-04-11T12:09:24.999Z</time></trkpt><trkpt lat="44.69427955746608" lon="10.43240156659737"><ele>98.5</ele><time>2026-04-11T12:09:25.999Z</time></trkpt><trkpt lat="44.69422227395988" lon="10.432453037106312"><ele>98.66666666666666</ele><time>2026-04-11T12:09:26.999Z</time></trkpt><trkpt lat="44.694167695694894" lon="10.432512811929858"><ele>98.83333333333333</ele><time>2026-04-11T12:09:27.999Z</time></trkpt><trkpt lat="44.694102680666816" lon="10.432578548081416"><ele>99.0</ele><time>2026-04-11T12:09:28.999Z</time></trkpt><trkpt lat="44.694040172156875" lon="10.432727203779567"><ele>99.0</ele><time>2026-04-11T12:09:30.999Z</time></trkpt><trkpt lat="44.694043942798174" lon="10.432857339379773"><ele>99.0</ele><time>2026-04-11T12:09:33.999Z</time></trkpt><trkpt lat="44.694010095651635" lon="10.433009357502472"><ele>99.0</ele><time>2026-04-11T12:09:35.999Z</time></trkpt><trkpt lat="44.69399064731879" lon="10.433118671780404"><ele>99.0</ele><time>2026-04-11T12:09:37.999Z</time></trkpt><trkpt lat="44.69395739156702" lon="10.433194978354337"><ele>99.0</ele><time>2026-04-11T12:09:41.999Z</time></trkpt><trkpt lat="44.693690111194805" lon="10.433069098032293"><ele>99.0</ele><time>2026-04-11T12:09:46.999Z</time></trkpt><trkpt lat="44.693729099307006" lon="10.432999378690214"><ele>99.0</ele><time>2026-04-11T12:09:47.999Z</time></trkpt><trkpt lat="44.69376944263444" lon="10.432900487052162"><ele>99.0</ele><time>2026-04-11T12:09:48.999Z</time></trkpt><trkpt lat="44.69382135964447" lon="10.43281502725372"><ele>99.0</ele><time>2026-04-11T12:09:49.999Z</time></trkpt><trkpt lat="44.69387380881677" lon="10.432755796577931"><ele>99.0</ele><time>2026-04-11T12:09:50.999Z</time></trkpt><trkpt lat="44.69392938258888" lon="10.432689554318886"><ele>99.0</ele><time>2026-04-11T12:09:51.999Z</time></trkpt><trkpt lat="44.6939808614647" lon="10.432619620784898"><ele>99.0</ele><time>2026-04-11T12:09:52.999Z</time></trkpt><trkpt lat="44.694031957277915" lon="10.432559612751312"><ele>99.0</ele><time>2026-04-11T12:09:53.999Z</time></trkpt><trkpt lat="44.69417844956098" lon="10.432559491338779"><ele>99.0</ele><time>2026-04-11T12:09:55.999Z</time></trkpt><trkpt lat="44.69427582145943" lon="10.432465048955349"><ele>99.0</ele><time>2026-04-11T12:09:57.999Z</time></trkpt><trkpt lat="44.694345009101035" lon="10.432420097515237"><ele>99.0</ele><time>2026-04-11T12:09:59.999Z</time></trkpt><trkpt lat="44.69442069913961" lon="10.432370280293727"><ele>99.0</ele><time>2026-04-11T12:10:01.999Z</time></trkpt><trkpt lat="44.69441783927949" lon="10.432140758403378"><ele>98.83333333333333</ele><time>2026-04-11T12:10:04.999Z</time></trkpt><trkpt lat="44.694373447835666" lon="10.432064736434906"><ele>98.66666666666666</ele><time>2026-04-11T12:10:06.999Z</time></trkpt><trkpt lat="44.694328947377336" lon="10.431987342535525"><ele>98.5</ele><time>2026-04-11T12:10:08.999Z</time></trkpt><trkpt lat="44.69428366964572" lon="10.431913592037764"><ele>98.33333333333333</ele><time>2026-04-11T12:10:11.999Z</time></trkpt><trkpt lat="44.694230209447156" lon="10.431826513635572"><ele>98.16666666666666</ele><time>2026-04-11T12:10:13.999Z</time></trkpt><trkpt lat="44.69414688121534" lon="10.431715164262787"><ele>98.0</ele><time>2026-04-11T12:10:15.999Z</time></trkpt><trkpt lat="44.69409815388091" lon="10.431656266967995"><ele>97.99999999999999</ele><time>2026-04-11T12:10:16.999Z</time></trkpt><trkpt lat="44.69403972857669" lon="10.43158672132432"><ele>98.0</ele><time>2026-04-11T12:10:17.999Z</time></trkpt><trkpt lat="44.69398887187631" lon="10.431524731934383"><ele>98.0</ele><time>2026-04-11T12:10:18.999Z</time></trkpt><trkpt lat="44.69395188777207" lon="10.43144696433567"><ele>98.0</ele><time>2026-04-11T12:10:20.999Z</time></trkpt><trkpt lat="44.69389202987215" lon="10.431369176405866"><ele>97.99999999999999</ele><time>2026-04-11T12:10:22.999Z</time></trkpt><trkpt lat="44.693792844316334" lon="10.431275211061903"><ele>98.0</ele><time>2026-04-11T12:10:24.999Z</time></trkpt><trkpt lat="44.69371262544653" lon="10.431178775117786"><ele>97.83333333333333</ele><time>2026-04-11T12:10:26.999Z</time></trkpt><trkpt lat="44.69364658753016" lon="10.43114310226054"><ele>97.66666666666666</ele><time>2026-04-11T12:10:27.999Z</time></trkpt><trkpt lat="44.69356996708597" lon="10.431143671352121"><ele>97.5</ele><time>2026-04-11T12:10:28.999Z</time></trkpt><trkpt lat="44.693504186729996" lon="10.431116173119706"><ele>97.33333333333334</ele><time>2026-04-11T12:10:29.999Z</time></trkpt><trkpt lat="44.69339471049952" lon="10.431152124369284"><ele>97.16666666666667</ele><time>2026-04-11T12:10:31.999Z</time></trkpt><trkpt lat="44.693282747483984" lon="10.431158552890496"><ele>97.0</ele><time>2026-04-11T12:10:33.999Z</time></trkpt><trkpt lat="44.69320495350178" lon="10.431163019537443"><ele>97.00000000000001</ele><time>2026-04-11T12:10:34.999Z</time></trkpt><trkpt lat="44.69312694344921" lon="10.431144791659039"><ele>97.0</ele><time>2026-04-11T12:10:36Z</time></trkpt><trkpt lat="44.69304918157687" lon="10.431163320333631"><ele>97.0</ele><time>2026-04-11T12:10:37Z</time></trkpt><trkpt lat="44.69297700147985" lon="10.431173037917668"><ele>97.0</ele><time>2026-04-11T12:10:38Z</time></trkpt><trkpt lat="44.69291292778386" lon="10.431184612933652"><ele>97.00000000000001</ele><time>2026-04-11T12:10:39Z</time></trkpt><trkpt lat="44.69279809674608" lon="10.43118798591144"><ele>97.0</ele><time>2026-04-11T12:10:41Z</time></trkpt><trkpt lat="44.692681167339714" lon="10.431188811534096"><ele>97.50000000000001</ele><time>2026-04-11T12:10:43Z</time></trkpt><trkpt lat="44.69260357603392" lon="10.431192717822055"><ele>98.0</ele><time>2026-04-11T12:10:44Z</time></trkpt><trkpt lat="44.69252509647847" lon="10.431189923607613"><ele>98.5</ele><time>2026-04-11T12:10:45Z</time></trkpt><trkpt lat="44.692448039290355" lon="10.43117683740465"><ele>99.0</ele><time>2026-04-11T12:10:46Z</time></trkpt><trkpt lat="44.69237511448589" lon="10.431188123874549"><ele>99.50000000000001</ele><time>2026-04-11T12:10:47Z</time></trkpt><trkpt lat="44.692312211607614" lon="10.431209816682017"><ele>100.0</ele><time>2026-04-11T12:10:48Z</time></trkpt><trkpt lat="44.692228647326274" lon="10.431259225085475"><ele>100.00000000000001</ele><time>2026-04-11T12:10:49Z</time></trkpt><trkpt lat="44.69215448697803" lon="10.431300597315694"><ele>100.0</ele><time>2026-04-11T12:10:50Z</time></trkpt><trkpt lat="44.69208107897467" lon="10.431346869788282"><ele>100.0</ele><time>2026-04-11T12:10:51Z</time></trkpt><trkpt lat="44.69200629917314" lon="10.431384876822586"><ele>100.0</ele><time>2026-04-11T12:10:52Z</time></trkpt><trkpt lat="44.69193900498244" lon="10.431401965760365"><ele>100.0</ele><time>2026-04-11T12:10:53Z</time></trkpt><trkpt lat="44.691874575809955" lon="10.431425588968962"><ele>100.00000000000001</ele><time>2026-04-11T12:10:54Z</time></trkpt><trkpt lat="44.6918049955321" lon="10.431432876410371"><ele>100.0</ele><time>2026-04-11T12:10:55Z</time></trkpt><trkpt lat="44.6917343072305" lon="10.431430415948144"><ele>99.6</ele><time>2026-04-11T12:10:56Z</time></trkpt><trkpt lat="44.69161190430781" lon="10.43137638353197"><ele>99.2</ele><time>2026-04-11T12:10:58Z</time></trkpt><trkpt lat="44.69154967396091" lon="10.431337278574842"><ele>98.80000000000001</ele><time>2026-04-11T12:10:59Z</time></trkpt><trkpt lat="44.69145278717485" lon="10.43126111736734"><ele>98.4</ele><time>2026-04-11T12:11:01Z</time></trkpt><trkpt lat="44.69138392833606" lon="10.431194033033707"><ele>98.0</ele><time>2026-04-11T12:11:04Z</time></trkpt><trkpt lat="44.69131717372527" lon="10.43118659950559"><ele>98.0</ele><time>2026-04-11T12:13:45Z</time></trkpt><trkpt lat="44.691248630826664" lon="10.43114360611413"><ele>98.0</ele><time>2026-04-11T12:13:56Z</time></trkpt><trkpt lat="44.69112812585666" lon="10.43105888609457"><ele>98.0</ele><time>2026-04-11T12:13:58Z</time></trkpt><trkpt lat="44.69106157255649" lon="10.431005368250815"><ele>98.0</ele><time>2026-04-11T12:13:59Z</time></trkpt><trkpt lat="44.690961565395924" lon="10.430953421559144"><ele>98.0</ele><time>2026-04-11T12:14:01Z</time></trkpt><trkpt lat="44.69087343153854" lon="10.43092231769184"><ele>98.49999999999999</ele><time>2026-04-11T12:14:03Z</time></trkpt><trkpt lat="44.69074262799039" lon="10.43091961178484"><ele>99.0</ele><time>2026-04-11T12:14:05Z</time></trkpt><trkpt lat="44.69067129784975" lon="10.430920880881004"><ele>99.5</ele><time>2026-04-11T12:14:05.999Z</time></trkpt><trkpt lat="44.69059865735068" lon="10.430944219058746"><ele>100.0</ele><time>2026-04-11T12:14:06.999Z</time></trkpt><trkpt lat="44.690525192477935" lon="10.430932185710452"><ele>100.49999999999999</ele><time>2026-04-11T12:14:07.999Z</time></trkpt><trkpt lat="44.690452015667326" lon="10.430907142434771"><ele>101.0</ele><time>2026-04-11T12:14:08.999Z</time></trkpt><trkpt lat="44.69037861709532" lon="10.430872204327942"><ele>100.99999999999999</ele><time>2026-04-11T12:14:09.999Z</time></trkpt><trkpt lat="44.69030618690729" lon="10.430830400386684"><ele>101.0</ele><time>2026-04-11T12:14:10.999Z</time></trkpt><trkpt lat="44.690237099418766" lon="10.430778709814168"><ele>101.0</ele><time>2026-04-11T12:14:11.999Z</time></trkpt><trkpt lat="44.690194609095194" lon="10.430680829323583"><ele>101.0</ele><time>2026-04-11T12:14:12.999Z</time></trkpt><trkpt lat="44.69012867541879" lon="10.430602324866776"><ele>100.99999999999999</ele><time>2026-04-11T12:14:13.999Z</time></trkpt><trkpt lat="44.69005898965927" lon="10.430539949794424"><ele>101.0</ele><time>2026-04-11T12:14:14.999Z</time></trkpt><trkpt lat="44.68997853790286" lon="10.430480400012424"><ele>101.4</ele><time>2026-04-11T12:14:15.999Z</time></trkpt><trkpt lat="44.689893215637284" lon="10.430418984775244"><ele>101.8</ele><time>2026-04-11T12:14:16.999Z</time></trkpt><trkpt lat="44.68981651685811" lon="10.430364309472978"><ele>102.2</ele><time>2026-04-11T12:14:17.999Z</time></trkpt><trkpt lat="44.689736087878806" lon="10.43030697506272"><ele>102.60000000000001</ele><time>2026-04-11T12:14:18.999Z</time></trkpt><trkpt lat="44.68965545612936" lon="10.430247414510363"><ele>103.0</ele><time>2026-04-11T12:14:19.999Z</time></trkpt><trkpt lat="44.689579088016416" lon="10.430184913150825"><ele>103.0</ele><time>2026-04-11T12:14:20.999Z</time></trkpt><trkpt lat="44.689501059580365" lon="10.430115116495493"><ele>103.0</ele><time>2026-04-11T12:14:21.999Z</time></trkpt><trkpt lat="44.68942311925866" lon="10.43004083744583"><ele>103.0</ele><time>2026-04-11T12:14:22.999Z</time></trkpt><trkpt lat="44.68934123848715" lon="10.4299596940723"><ele>103.0</ele><time>2026-04-11T12:14:23.999Z</time></trkpt><trkpt lat="44.68925292727724" lon="10.429870167129842"><ele>103.0</ele><time>2026-04-11T12:14:24.999Z</time></trkpt><trkpt lat="44.689169260130335" lon="10.429779803246118"><ele>103.00000000000001</ele><time>2026-04-11T12:14:25.999Z</time></trkpt><trkpt lat="44.68909172409304" lon="10.42969610410858"><ele>103.0</ele><time>2026-04-11T12:14:26.999Z</time></trkpt><trkpt lat="44.68901400875158" lon="10.42964153501562"><ele>103.0</ele><time>2026-04-11T12:14:27.999Z</time></trkpt><trkpt lat="44.68894704236036" lon="10.42956010097866"><ele>103.0</ele><time>2026-04-11T12:14:28.999Z</time></trkpt><trkpt lat="44.68887338485737" lon="10.429479293817048"><ele>103.00000000000001</ele><time>2026-04-11T12:14:29.999Z</time></trkpt><trkpt lat="44.68881340744885" lon="10.429407237428197"><ele>103.0</ele><time>2026-04-11T12:14:30.999Z</time></trkpt><trkpt lat="44.688754314896435" lon="10.4293687528412"><ele>103.00000000000001</ele><time>2026-04-11T12:14:31.999Z</time></trkpt><trkpt lat="44.68868753275868" lon="10.429337346511927"><ele>103.0</ele><time>2026-04-11T12:14:32.999Z</time></trkpt><trkpt lat="44.68861876786815" lon="10.429297094852348"><ele>103.0</ele><time>2026-04-11T12:14:33.999Z</time></trkpt><trkpt lat="44.68855601120739" lon="10.429241171385232"><ele>103.0</ele><time>2026-04-11T12:14:34.999Z</time></trkpt><trkpt lat="44.68846258132892" lon="10.429186663095908"><ele>103.00000000000001</ele><time>2026-04-11T12:14:36.999Z</time></trkpt><trkpt lat="44.688402789866004" lon="10.42914501553495"><ele>103.0</ele><time>2026-04-11T12:14:37.999Z</time></trkpt><trkpt lat="44.68835167537349" lon="10.42908769741281"><ele>103.60000000000001</ele><time>2026-04-11T12:14:39.999Z</time></trkpt><trkpt lat="44.68826938310489" lon="10.428956980174558"><ele>104.2</ele><time>2026-04-11T12:14:41.999Z</time></trkpt><trkpt lat="44.688193116047636" lon="10.428862458911201"><ele>104.8</ele><time>2026-04-11T12:14:42.999Z</time></trkpt><trkpt lat="44.68811125841301" lon="10.428795649781465"><ele>105.4</ele><time>2026-04-11T12:14:43.999Z</time></trkpt><trkpt lat="44.68805847149111" lon="10.428736071761609"><ele>106.0</ele><time>2026-04-11T12:14:44.999Z</time></trkpt><trkpt lat="44.687986371823555" lon="10.428669231762333"><ele>106.0</ele><time>2026-04-11T12:14:46.999Z</time></trkpt><trkpt lat="44.68791142100961" lon="10.428799156639702"><ele>106.0</ele><time>2026-04-11T12:14:53.001Z</time></trkpt><trkpt lat="44.68788595656851" lon="10.428898686369894"><ele>106.0</ele><time>2026-04-11T12:15:07Z</time></trkpt><trkpt lat="44.687854416788284" lon="10.428987390653555"><ele>106.0</ele><time>2026-04-11T12:15:08Z</time></trkpt><trkpt lat="44.687826588512" lon="10.429074897660854"><ele>106.0</ele><time>2026-04-11T12:15:09Z</time></trkpt><trkpt lat="44.68779725625413" lon="10.42923879846103"><ele>105.66666666666667</ele><time>2026-04-11T12:15:11Z</time></trkpt><trkpt lat="44.68776019813141" lon="10.429344728461858"><ele>105.33333333333334</ele><time>2026-04-11T12:15:12Z</time></trkpt><trkpt lat="44.68772089328152" lon="10.429457986662387"><ele>105.0</ele><time>2026-04-11T12:15:13Z</time></trkpt><trkpt lat="44.687671806594274" lon="10.42955912975824"><ele>104.66666666666666</ele><time>2026-04-11T12:15:14Z</time></trkpt><trkpt lat="44.68762550144827" lon="10.429660365879137"><ele>104.33333333333333</ele><time>2026-04-11T12:15:15Z</time></trkpt><trkpt lat="44.687588605573545" lon="10.429772225518606"><ele>104.0</ele><time>2026-04-11T12:15:16Z</time></trkpt><trkpt lat="44.68753956465292" lon="10.429862819561505"><ele>103.80000000000001</ele><time>2026-04-11T12:15:17Z</time></trkpt><trkpt lat="44.687483919357575" lon="10.429988031123171"><ele>103.60000000000001</ele><time>2026-04-11T12:15:18Z</time></trkpt><trkpt lat="44.68742640804314" lon="10.43011616947678"><ele>103.4</ele><time>2026-04-11T12:15:19Z</time></trkpt><trkpt lat="44.68735627352807" lon="10.43024514116536"><ele>103.2</ele><time>2026-04-11T12:15:20Z</time></trkpt><trkpt lat="44.68729716623821" lon="10.4303677840941"><ele>103.0</ele><time>2026-04-11T12:15:21Z</time></trkpt><trkpt lat="44.68722997963355" lon="10.430467187211894"><ele>103.00000000000001</ele><time>2026-04-11T12:15:22Z</time></trkpt><trkpt lat="44.68717960490275" lon="10.430566069233409"><ele>103.0</ele><time>2026-04-11T12:15:23Z</time></trkpt><trkpt lat="44.687136251118524" lon="10.430651169613428"><ele>103.0</ele><time>2026-04-11T12:15:24Z</time></trkpt><trkpt lat="44.68710497778036" lon="10.430745920592729"><ele>103.0</ele><time>2026-04-11T12:15:25Z</time></trkpt><trkpt lat="44.68705975657201" lon="10.430846710952153"><ele>103.00000000000001</ele><time>2026-04-11T12:15:26Z</time></trkpt><trkpt lat="44.68699595754444" lon="10.430937556632065"><ele>103.0</ele><time>2026-04-11T12:15:27Z</time></trkpt><trkpt lat="44.6869471343802" lon="10.43103842940675"><ele>103.2</ele><time>2026-04-11T12:15:28Z</time></trkpt><trkpt lat="44.68691315655783" lon="10.431144146864174"><ele>103.4</ele><time>2026-04-11T12:15:29Z</time></trkpt><trkpt lat="44.6868560624119" lon="10.43125237513989"><ele>103.60000000000001</ele><time>2026-04-11T12:15:30Z</time></trkpt><trkpt lat="44.686796335148436" lon="10.43138316592617"><ele>103.80000000000001</ele><time>2026-04-11T12:15:31Z</time></trkpt><trkpt lat="44.68673209225341" lon="10.431502179308895"><ele>104.0</ele><time>2026-04-11T12:15:32Z</time></trkpt><trkpt lat="44.686668440272044" lon="10.431602638321746"><ele>104.2</ele><time>2026-04-11T12:15:33Z</time></trkpt><trkpt lat="44.68662577397403" lon="10.431717761235616"><ele>104.4</ele><time>2026-04-11T12:15:34Z</time></trkpt><trkpt lat="44.68658705691355" lon="10.431800372161089"><ele>104.6</ele><time>2026-04-11T12:15:35Z</time></trkpt><trkpt lat="44.686516827918325" lon="10.431899061380841"><ele>104.8</ele><time>2026-04-11T12:15:37Z</time></trkpt><trkpt lat="44.686475788496196" lon="10.431989276179266"><ele>105.0</ele><time>2026-04-11T12:15:39Z</time></trkpt><trkpt lat="44.6863191208857" lon="10.431869917761698"><ele>105.0</ele><time>2026-04-11T12:15:42Z</time></trkpt><trkpt lat="44.686245725281346" lon="10.431797477428258"><ele>105.0</ele><time>2026-04-11T12:15:43Z</time></trkpt><trkpt lat="44.68615913328522" lon="10.43172421328284"><ele>105.0</ele><time>2026-04-11T12:15:44Z</time></trkpt><trkpt lat="44.686072837038544" lon="10.431650473461646"><ele>105.0</ele><time>2026-04-11T12:15:45Z</time></trkpt><trkpt lat="44.6859916755978" lon="10.431578640842217"><ele>105.0</ele><time>2026-04-11T12:15:46Z</time></trkpt><trkpt lat="44.685917528677884" lon="10.431517082961724"><ele>105.0</ele><time>2026-04-11T12:15:47Z</time></trkpt><trkpt lat="44.6858476904519" lon="10.431457194825775"><ele>105.0</ele><time>2026-04-11T12:15:48Z</time></trkpt><trkpt lat="44.685763968986315" lon="10.431388347771595"><ele>105.0</ele><time>2026-04-11T12:15:49Z</time></trkpt><trkpt lat="44.68567841166253" lon="10.431318711675246"><ele>105.0</ele><time>2026-04-11T12:15:50Z</time></trkpt><trkpt lat="44.68559279253148" lon="10.431245378066698"><ele>105.0</ele><time>2026-04-11T12:15:51Z</time></trkpt><trkpt lat="44.685500609503734" lon="10.43116642769728"><ele>105.0</ele><time>2026-04-11T12:15:52Z</time></trkpt><trkpt lat="44.68540490703592" lon="10.431090345969121"><ele>105.0</ele><time>2026-04-11T12:15:53Z</time></trkpt><trkpt lat="44.68531665641061" lon="10.431017010700627"><ele>105.0</ele><time>2026-04-11T12:15:53.999Z</time></trkpt><trkpt lat="44.68522563507544" lon="10.430935091808045"><ele>105.0</ele><time>2026-04-11T12:15:54.999Z</time></trkpt><trkpt lat="44.68514041160486" lon="10.430861798242146"><ele>105.0</ele><time>2026-04-11T12:15:55.999Z</time></trkpt><trkpt lat="44.685028758123266" lon="10.430771509050409"><ele>105.0</ele><time>2026-04-11T12:15:56.999Z</time></trkpt><trkpt lat="44.68493464543081" lon="10.430687325397775"><ele>105.0</ele><time>2026-04-11T12:15:57.999Z</time></trkpt><trkpt lat="44.68483643814457" lon="10.430598871166115"><ele>105.0</ele><time>2026-04-11T12:15:58.999Z</time></trkpt><trkpt lat="44.68473932375775" lon="10.430515009191408"><ele>105.0</ele><time>2026-04-11T12:15:59.999Z</time></trkpt><trkpt lat="44.68464531087195" lon="10.430429524301573"><ele>105.2</ele><time>2026-04-11T12:16:00.999Z</time></trkpt><trkpt lat="44.684557962757836" lon="10.430340337574902"><ele>105.4</ele><time>2026-04-11T12:16:01.999Z</time></trkpt><trkpt lat="44.68448322011514" lon="10.430239445151924"><ele>105.6</ele><time>2026-04-11T12:16:02.999Z</time></trkpt><trkpt lat="44.68439304223984" lon="10.43014002115038"><ele>105.8</ele><time>2026-04-11T12:16:03.999Z</time></trkpt><trkpt lat="44.68429081301931" lon="10.430053785852035"><ele>106.0</ele><time>2026-04-11T12:16:04.999Z</time></trkpt><trkpt lat="44.68418598510851" lon="10.42996628575459"><ele>106.0</ele><time>2026-04-11T12:16:05.999Z</time></trkpt><trkpt lat="44.68407167984672" lon="10.429874151656692"><ele>106.0</ele><time>2026-04-11T12:16:06.999Z</time></trkpt><trkpt lat="44.683961420890846" lon="10.429779023139776"><ele>106.0</ele><time>2026-04-11T12:16:07.999Z</time></trkpt><trkpt lat="44.68384642468746" lon="10.429681821888295"><ele>106.0</ele><time>2026-04-11T12:16:08.999Z</time></trkpt><trkpt lat="44.683744306557024" lon="10.429607591176078"><ele>106.25</ele><time>2026-04-11T12:16:09.999Z</time></trkpt><trkpt lat="44.68362963529043" lon="10.429513396967645"><ele>106.5</ele><time>2026-04-11T12:16:10.999Z</time></trkpt><trkpt lat="44.683512390299924" lon="10.429400592405427"><ele>106.75</ele><time>2026-04-11T12:16:11.999Z</time></trkpt><trkpt lat="44.6834024462968" lon="10.429294935966425"><ele>107.0</ele><time>2026-04-11T12:16:12.999Z</time></trkpt><trkpt lat="44.68328106381185" lon="10.429192608261088"><ele>107.0</ele><time>2026-04-11T12:16:13.999Z</time></trkpt><trkpt lat="44.68315060566623" lon="10.429081709467226"><ele>107.0</ele><time>2026-04-11T12:16:14.999Z</time></trkpt><trkpt lat="44.68302664827289" lon="10.428967434443898"><ele>107.0</ele><time>2026-04-11T12:16:15.999Z</time></trkpt><trkpt lat="44.682905925657444" lon="10.428869421465901"><ele>107.0</ele><time>2026-04-11T12:16:16.999Z</time></trkpt><trkpt lat="44.682790435090745" lon="10.428765810025526"><ele>107.0</ele><time>2026-04-11T12:16:17.999Z</time></trkpt><trkpt lat="44.6826628355336" lon="10.428660117636683"><ele>107.0</ele><time>2026-04-11T12:16:18.999Z</time></trkpt><trkpt lat="44.682547109271816" lon="10.428549794331198"><ele>107.0</ele><time>2026-04-11T12:16:19.999Z</time></trkpt><trkpt lat="44.68242495408449" lon="10.428442520488566"><ele>107.0</ele><time>2026-04-11T12:16:20.999Z</time></trkpt><trkpt lat="44.682302496479814" lon="10.428340362252513"><ele>107.0</ele><time>2026-04-11T12:16:21.999Z</time></trkpt><trkpt lat="44.682179497264954" lon="10.428232988229313"><ele>107.0</ele><time>2026-04-11T12:16:22.999Z</time></trkpt><trkpt lat="44.68206062961547" lon="10.428129544323358"><ele>107.0</ele><time>2026-04-11T12:16:23.999Z</time></trkpt><trkpt lat="44.681942003155875" lon="10.428028955318577"><ele>107.0</ele><time>2026-04-11T12:16:24.999Z</time></trkpt><trkpt lat="44.681821834536954" lon="10.427930475674078"><ele>107.0</ele><time>2026-04-11T12:16:25.999Z</time></trkpt><trkpt lat="44.681705545316234" lon="10.427832072932336"><ele>107.0</ele><time>2026-04-11T12:16:26.999Z</time></trkpt><trkpt lat="44.68158472447362" lon="10.427727601565303"><ele>107.0</ele><time>2026-04-11T12:16:27.999Z</time></trkpt><trkpt lat="44.6814720701942" lon="10.427628293773543"><ele>107.0</ele><time>2026-04-11T12:16:28.999Z</time></trkpt><trkpt lat="44.68134553538021" lon="10.427520805241016"><ele>107.0</ele><time>2026-04-11T12:16:29.999Z</time></trkpt><trkpt lat="44.68122492493515" lon="10.42743038842841"><ele>107.0</ele><time>2026-04-11T12:16:30.999Z</time></trkpt><trkpt lat="44.681095324383605" lon="10.42732413393247"><ele>107.0</ele><time>2026-04-11T12:16:31.999Z</time></trkpt><trkpt lat="44.68097244593931" lon="10.427210951276157"><ele>107.0</ele><time>2026-04-11T12:16:32.999Z</time></trkpt><trkpt lat="44.68085445485452" lon="10.427104190071395"><ele>107.25</ele><time>2026-04-11T12:16:33.999Z</time></trkpt><trkpt lat="44.68073316502411" lon="10.426992432256835"><ele>107.5</ele><time>2026-04-11T12:16:34.999Z</time></trkpt><trkpt lat="44.68060756300692" lon="10.426882993852571"><ele>107.75</ele><time>2026-04-11T12:16:35.999Z</time></trkpt><trkpt lat="44.680499426318285" lon="10.426791558282362"><ele>108.0</ele><time>2026-04-11T12:16:36.999Z</time></trkpt><trkpt lat="44.68040800468204" lon="10.42671482458814"><ele>108.0</ele><time>2026-04-11T12:16:37.999Z</time></trkpt><trkpt lat="44.68031872497959" lon="10.42665058791738"><ele>108.0</ele><time>2026-04-11T12:16:38.999Z</time></trkpt><trkpt lat="44.680206523959455" lon="10.426611277379928"><ele>108.0</ele><time>2026-04-11T12:16:39.999Z</time></trkpt><trkpt lat="44.680088689988644" lon="10.42656603381284"><ele>108.0</ele><time>2026-04-11T12:16:40.999Z</time></trkpt><trkpt lat="44.679955516366576" lon="10.426512220905845"><ele>108.0</ele><time>2026-04-11T12:16:41.999Z</time></trkpt><trkpt lat="44.67982410724432" lon="10.426449255649256"><ele>108.0</ele><time>2026-04-11T12:16:42.999Z</time></trkpt><trkpt lat="44.67969329732061" lon="10.426383208363182"><ele>108.0</ele><time>2026-04-11T12:16:43.999Z</time></trkpt><trkpt lat="44.67956701996458" lon="10.426316322837918"><ele>108.0</ele><time>2026-04-11T12:16:44.999Z</time></trkpt><trkpt lat="44.67944067695612" lon="10.426257182419326"><ele>109.0</ele><time>2026-04-11T12:16:45.999Z</time></trkpt><trkpt lat="44.67930978143758" lon="10.426194881930664"><ele>110.0</ele><time>2026-04-11T12:16:46.999Z</time></trkpt><trkpt lat="44.679184602552915" lon="10.426134032314307"><ele>111.0</ele><time>2026-04-11T12:16:47.999Z</time></trkpt><trkpt lat="44.67905013804427" lon="10.426072842516342"><ele>112.0</ele><time>2026-04-11T12:16:48.999Z</time></trkpt><trkpt lat="44.678918974553156" lon="10.426004885756909"><ele>112.0</ele><time>2026-04-11T12:16:49.999Z</time></trkpt><trkpt lat="44.67879109678489" lon="10.425940019709243"><ele>112.0</ele><time>2026-04-11T12:16:50.999Z</time></trkpt><trkpt lat="44.678658931116196" lon="10.42587518385625"><ele>112.0</ele><time>2026-04-11T12:16:51.999Z</time></trkpt><trkpt lat="44.678523174913586" lon="10.425807094691605"><ele>112.0</ele><time>2026-04-11T12:16:52.999Z</time></trkpt><trkpt lat="44.67838617126447" lon="10.42574316248227"><ele>112.25</ele><time>2026-04-11T12:16:53.999Z</time></trkpt><trkpt lat="44.67824965753436" lon="10.42567431800803"><ele>112.5</ele><time>2026-04-11T12:16:55Z</time></trkpt><trkpt lat="44.67811366711593" lon="10.425618439450693"><ele>112.75</ele><time>2026-04-11T12:16:56Z</time></trkpt><trkpt lat="44.67798676378348" lon="10.425553927726874"><ele>113.0</ele><time>2026-04-11T12:16:57Z</time></trkpt><trkpt lat="44.67784667624512" lon="10.425487762420492"><ele>112.75</ele><time>2026-04-11T12:16:58Z</time></trkpt><trkpt lat="44.67771269672434" lon="10.425420213298962"><ele>112.5</ele><time>2026-04-11T12:16:59Z</time></trkpt><trkpt lat="44.67757878434283" lon="10.425353574236825"><ele>112.25</ele><time>2026-04-11T12:17:00Z</time></trkpt><trkpt lat="44.67744745980361" lon="10.425293008913558"><ele>112.0</ele><time>2026-04-11T12:17:01Z</time></trkpt><trkpt lat="44.67732650785733" lon="10.425232435335662"><ele>112.0</ele><time>2026-04-11T12:17:02Z</time></trkpt><trkpt lat="44.67719909526373" lon="10.425163997719618"><ele>112.0</ele><time>2026-04-11T12:17:03Z</time></trkpt><trkpt lat="44.67708270322213" lon="10.425109214196409"><ele>112.0</ele><time>2026-04-11T12:17:04Z</time></trkpt><trkpt lat="44.67698529355694" lon="10.425066290618698"><ele>112.0</ele><time>2026-04-11T12:17:05Z</time></trkpt><trkpt lat="44.676895942779424" lon="10.42502283711543"><ele>112.19999999999999</ele><time>2026-04-11T12:17:06Z</time></trkpt><trkpt lat="44.676818930498094" lon="10.424982625534042"><ele>112.39999999999999</ele><time>2026-04-11T12:17:07Z</time></trkpt><trkpt lat="44.67674316033079" lon="10.424953792979434"><ele>112.60000000000001</ele><time>2026-04-11T12:17:08Z</time></trkpt><trkpt lat="44.676626494325724" lon="10.424901395809984"><ele>112.80000000000001</ele><time>2026-04-11T12:17:10Z</time></trkpt><trkpt lat="44.676564684875174" lon="10.42486497134189"><ele>113.0</ele><time>2026-04-11T12:17:11Z</time></trkpt><trkpt lat="44.676459743470396" lon="10.424817927463454"><ele>113.0</ele><time>2026-04-11T12:17:13Z</time></trkpt><trkpt lat="44.67634994044988" lon="10.424758522786389"><ele>113.00000000000001</ele><time>2026-04-11T12:17:15Z</time></trkpt><trkpt lat="44.67628665767464" lon="10.424733690834433"><ele>113.00000000000001</ele><time>2026-04-11T12:17:16Z</time></trkpt><trkpt lat="44.676177927579126" lon="10.42468609660887"><ele>113.0</ele><time>2026-04-11T12:17:18Z</time></trkpt><trkpt lat="44.676065280768945" lon="10.424633232676053"><ele>113.0</ele><time>2026-04-11T12:17:20Z</time></trkpt><trkpt lat="44.675954894535444" lon="10.424572804156362"><ele>113.75</ele><time>2026-04-11T12:17:22Z</time></trkpt><trkpt lat="44.675838483992614" lon="10.424528799181111"><ele>114.5</ele><time>2026-04-11T12:17:24Z</time></trkpt><trkpt lat="44.675726524853054" lon="10.42446476729179"><ele>115.25</ele><time>2026-04-11T12:17:26Z</time></trkpt><trkpt lat="44.67561815795043" lon="10.42439652224155"><ele>116.0</ele><time>2026-04-11T12:17:28Z</time></trkpt><trkpt lat="44.67551717624336" lon="10.424330590619732"><ele>116.0</ele><time>2026-04-11T12:17:30Z</time></trkpt><trkpt lat="44.67542353099824" lon="10.424340073877453"><ele>116.0</ele><time>2026-04-11T12:17:32Z</time></trkpt><trkpt lat="44.67534731817988" lon="10.424467572026556"><ele>116.0</ele><time>2026-04-11T12:17:34Z</time></trkpt><trkpt lat="44.675323205131605" lon="10.424558060591245"><ele>116.0</ele><time>2026-04-11T12:17:35Z</time></trkpt><trkpt lat="44.67530084002207" lon="10.424681981041143"><ele>116.0</ele><time>2026-04-11T12:17:36Z</time></trkpt><trkpt lat="44.67527291218776" lon="10.424804917254637"><ele>115.75</ele><time>2026-04-11T12:17:37Z</time></trkpt><trkpt lat="44.67524258148012" lon="10.424961210540516"><ele>115.5</ele><time>2026-04-11T12:17:38Z</time></trkpt><trkpt lat="44.67521973920115" lon="10.425110598356556"><ele>115.25</ele><time>2026-04-11T12:17:38.999Z</time></trkpt><trkpt lat="44.675197019715085" lon="10.425275256659942"><ele>115.0</ele><time>2026-04-11T12:17:39.999Z</time></trkpt><trkpt lat="44.67518027279" lon="10.425428753790653"><ele>114.8</ele><time>2026-04-11T12:17:40.999Z</time></trkpt><trkpt lat="44.67515687296091" lon="10.425560942416203"><ele>114.6</ele><time>2026-04-11T12:17:41.999Z</time></trkpt><trkpt lat="44.67513571445993" lon="10.42570304745509"><ele>114.4</ele><time>2026-04-11T12:17:42.999Z</time></trkpt><trkpt lat="44.675117000874074" lon="10.425864953818587"><ele>114.2</ele><time>2026-04-11T12:17:43.999Z</time></trkpt><trkpt lat="44.675096762735066" lon="10.426041679072952"><ele>114.0</ele><time>2026-04-11T12:17:44.999Z</time></trkpt><trkpt lat="44.67507870902298" lon="10.42622962656378"><ele>114.5</ele><time>2026-04-11T12:17:45.999Z</time></trkpt><trkpt lat="44.67505724480911" lon="10.426421526579423"><ele>115.0</ele><time>2026-04-11T12:17:46.999Z</time></trkpt><trkpt lat="44.67503137627894" lon="10.426623935892321"><ele>115.5</ele><time>2026-04-11T12:17:47.999Z</time></trkpt><trkpt lat="44.675006671738075" lon="10.426825968684305"><ele>116.0</ele><time>2026-04-11T12:17:48.999Z</time></trkpt><trkpt lat="44.67498070715414" lon="10.427024191372544"><ele>116.0</ele><time>2026-04-11T12:17:49.999Z</time></trkpt><trkpt lat="44.67494971892899" lon="10.427242512522124"><ele>116.0</ele><time>2026-04-11T12:17:50.999Z</time></trkpt><trkpt lat="44.67492406162045" lon="10.427481433149909"><ele>116.0</ele><time>2026-04-11T12:17:51.999Z</time></trkpt><trkpt lat="44.67489906847267" lon="10.427710272283644"><ele>116.0</ele><time>2026-04-11T12:17:52.999Z</time></trkpt><trkpt lat="44.6748745355392" lon="10.427920713926735"><ele>116.0</ele><time>2026-04-11T12:17:53.999Z</time></trkpt><trkpt lat="44.67484954771505" lon="10.428137339217157"><ele>116.0</ele><time>2026-04-11T12:17:54.999Z</time></trkpt><trkpt lat="44.67482768153567" lon="10.428363692317683"><ele>116.0</ele><time>2026-04-11T12:17:55.999Z</time></trkpt><trkpt lat="44.67480971642369" lon="10.428585470013715"><ele>116.0</ele><time>2026-04-11T12:17:56.999Z</time></trkpt><trkpt lat="44.67479298193485" lon="10.428792858089015"><ele>116.0</ele><time>2026-04-11T12:17:57.999Z</time></trkpt><trkpt lat="44.67476729476996" lon="10.42900382412519"><ele>116.0</ele><time>2026-04-11T12:17:58.999Z</time></trkpt><trkpt lat="44.67474826655613" lon="10.429206888270935"><ele>116.0</ele><time>2026-04-11T12:17:59.999Z</time></trkpt><trkpt lat="44.674723238570465" lon="10.429388133057769"><ele>116.0</ele><time>2026-04-11T12:18:00.999Z</time></trkpt><trkpt lat="44.67469972989704" lon="10.429552290356929"><ele>116.0</ele><time>2026-04-11T12:18:01.999Z</time></trkpt><trkpt lat="44.674674946777024" lon="10.429712841260983"><ele>115.75</ele><time>2026-04-11T12:18:02.999Z</time></trkpt><trkpt lat="44.674646948802604" lon="10.42987632125722"><ele>115.5</ele><time>2026-04-11T12:18:03.999Z</time></trkpt><trkpt lat="44.6746054561527" lon="10.430036201926555"><ele>115.25</ele><time>2026-04-11T12:18:04.999Z</time></trkpt><trkpt lat="44.67457062622749" lon="10.430188266435904"><ele>115.0</ele><time>2026-04-11T12:18:05.999Z</time></trkpt><trkpt lat="44.67454744102496" lon="10.430325151302963"><ele>115.00000000000001</ele><time>2026-04-11T12:18:06.999Z</time></trkpt><trkpt lat="44.674525244414355" lon="10.430447763454877"><ele>115.0</ele><time>2026-04-11T12:18:07.999Z</time></trkpt><trkpt lat="44.674498222764896" lon="10.430545453314872"><ele>115.0</ele><time>2026-04-11T12:18:08.999Z</time></trkpt><trkpt lat="44.67447300856799" lon="10.430628457003813"><ele>115.0</ele><time>2026-04-11T12:18:09.999Z</time></trkpt><trkpt lat="44.674397676842126" lon="10.43068821814876"><ele>115.00000000000001</ele><time>2026-04-11T12:18:11.999Z</time></trkpt><trkpt lat="44.67433222690974" lon="10.430691796323794"><ele>115.0</ele><time>2026-04-11T12:18:12.999Z</time></trkpt><trkpt lat="44.67424530509497" lon="10.430670677512483"><ele>115.8</ele><time>2026-04-11T12:18:13.999Z</time></trkpt><trkpt lat="44.67415253482778" lon="10.430633415196404"><ele>116.6</ele><time>2026-04-11T12:18:14.999Z</time></trkpt><trkpt lat="44.67406598700402" lon="10.430595091166449"><ele>117.4</ele><time>2026-04-11T12:18:15.999Z</time></trkpt><trkpt lat="44.6739564495855" lon="10.430562833611864"><ele>118.2</ele><time>2026-04-11T12:18:16.999Z</time></trkpt><trkpt lat="44.673851605422286" lon="10.430535560996221"><ele>119.0</ele><time>2026-04-11T12:18:17.999Z</time></trkpt><trkpt lat="44.67373434365925" lon="10.43048521463054"><ele>118.75</ele><time>2026-04-11T12:18:18.999Z</time></trkpt><trkpt lat="44.67361412175226" lon="10.43043458164475"><ele>118.5</ele><time>2026-04-11T12:18:19.999Z</time></trkpt><trkpt lat="44.673499572455334" lon="10.430386547867363"><ele>118.25</ele><time>2026-04-11T12:18:20.999Z</time></trkpt><trkpt lat="44.67337361327479" lon="10.430345924295372"><ele>118.0</ele><time>2026-04-11T12:18:21.999Z</time></trkpt><trkpt lat="44.67324197672326" lon="10.430302588457298"><ele>118.0</ele><time>2026-04-11T12:18:22.999Z</time></trkpt><trkpt lat="44.67310218383606" lon="10.430251006254501"><ele>118.0</ele><time>2026-04-11T12:18:23.999Z</time></trkpt><trkpt lat="44.67295394081329" lon="10.430195685863476"><ele>118.0</ele><time>2026-04-11T12:18:24.999Z</time></trkpt><trkpt lat="44.672790413052375" lon="10.4301359436684"><ele>119.0</ele><time>2026-04-11T12:18:25.999Z</time></trkpt><trkpt lat="44.67262739302938" lon="10.43008167827901"><ele>120.0</ele><time>2026-04-11T12:18:26.999Z</time></trkpt><trkpt lat="44.67247387908039" lon="10.430027560181427"><ele>121.0</ele><time>2026-04-11T12:18:27.999Z</time></trkpt><trkpt lat="44.67231344276115" lon="10.429967197103421"><ele>121.0</ele><time>2026-04-11T12:18:28.999Z</time></trkpt><trkpt lat="44.672145669633124" lon="10.42990963178721"><ele>121.0</ele><time>2026-04-11T12:18:29.999Z</time></trkpt><trkpt lat="44.67196910184951" lon="10.429855778091946"><ele>121.0</ele><time>2026-04-11T12:18:30.999Z</time></trkpt><trkpt lat="44.671792063972475" lon="10.429810494104089"><ele>120.33333333333334</ele><time>2026-04-11T12:18:31.999Z</time></trkpt><trkpt lat="44.671613138136976" lon="10.429775672974465"><ele>119.66666666666666</ele><time>2026-04-11T12:18:32.999Z</time></trkpt><trkpt lat="44.671430949591866" lon="10.429757300039455"><ele>119.0</ele><time>2026-04-11T12:18:33.999Z</time></trkpt><trkpt lat="44.67123724117197" lon="10.429742603226998"><ele>119.66666666666666</ele><time>2026-04-11T12:18:34.999Z</time></trkpt><trkpt lat="44.67104651904478" lon="10.429720431943709"><ele>120.33333333333334</ele><time>2026-04-11T12:18:35.999Z</time></trkpt><trkpt lat="44.670874791503614" lon="10.429702656779517"><ele>121.0</ele><time>2026-04-11T12:18:36.999Z</time></trkpt><trkpt lat="44.670712563771815" lon="10.429688599416231"><ele>121.0</ele><time>2026-04-11T12:18:37.999Z</time></trkpt><trkpt lat="44.67057870348876" lon="10.429677134820988"><ele>121.0</ele><time>2026-04-11T12:18:38.999Z</time></trkpt><trkpt lat="44.670477235033786" lon="10.429669287633388"><ele>121.0</ele><time>2026-04-11T12:18:39.999Z</time></trkpt><trkpt lat="44.67040001157976" lon="10.42965022144128"><ele>121.0</ele><time>2026-04-11T12:18:41.999Z</time></trkpt><trkpt lat="44.67028689078989" lon="10.42964603536688"><ele>121.0</ele><time>2026-04-11T12:18:58.999Z</time></trkpt><trkpt lat="44.67021278493541" lon="10.429641087068608"><ele>121.19999999999999</ele><time>2026-04-11T12:18:59.999Z</time></trkpt><trkpt lat="44.67013725853629" lon="10.42964413728012"><ele>121.39999999999999</ele><time>2026-04-11T12:19:00.999Z</time></trkpt><trkpt lat="44.67004843257271" lon="10.429641074309187"><ele>121.6</ele><time>2026-04-11T12:19:01.999Z</time></trkpt><trkpt lat="44.66996527774925" lon="10.429626838110774"><ele>121.8</ele><time>2026-04-11T12:19:02.999Z</time></trkpt><trkpt lat="44.66986288672745" lon="10.42961250742586"><ele>122.0</ele><time>2026-04-11T12:19:03.999Z</time></trkpt><trkpt lat="44.669753214980354" lon="10.429598292560753"><ele>122.0</ele><time>2026-04-11T12:19:04.999Z</time></trkpt><trkpt lat="44.669639747367654" lon="10.429580151369539"><ele>122.0</ele><time>2026-04-11T12:19:05.999Z</time></trkpt><trkpt lat="44.6695289819659" lon="10.429565010070869"><ele>122.0</ele><time>2026-04-11T12:19:06.999Z</time></trkpt><trkpt lat="44.66940782622924" lon="10.42955440820716"><ele>122.0</ele><time>2026-04-11T12:19:07.999Z</time></trkpt><trkpt lat="44.669277625069014" lon="10.42954523830814"><ele>122.25</ele><time>2026-04-11T12:19:08.999Z</time></trkpt><trkpt lat="44.66913589913247" lon="10.42953090275342"><ele>122.5</ele><time>2026-04-11T12:19:09.999Z</time></trkpt><trkpt lat="44.66898799198653" lon="10.429516833713262"><ele>122.75</ele><time>2026-04-11T12:19:10.999Z</time></trkpt><trkpt lat="44.66883553913759" lon="10.429496423564006"><ele>123.0</ele><time>2026-04-11T12:19:11.999Z</time></trkpt><trkpt lat="44.6686844100317" lon="10.429476423416792"><ele>123.5</ele><time>2026-04-11T12:19:12.999Z</time></trkpt><trkpt lat="44.668545858195905" lon="10.429467164987992"><ele>124.0</ele><time>2026-04-11T12:19:13.999Z</time></trkpt><trkpt lat="44.6684031932074" lon="10.429453023422226"><ele>124.5</ele><time>2026-04-11T12:19:14.999Z</time></trkpt><trkpt lat="44.66825755929662" lon="10.429434118583815"><ele>125.0</ele><time>2026-04-11T12:19:15.999Z</time></trkpt><trkpt lat="44.66810837313206" lon="10.42941153285657"><ele>125.0</ele><time>2026-04-11T12:19:16.999Z</time></trkpt><trkpt lat="44.66796427564816" lon="10.429390032108714"><ele>125.0</ele><time>2026-04-11T12:19:17.999Z</time></trkpt><trkpt lat="44.667815017383575" lon="10.429364968621627"><ele>125.0</ele><time>2026-04-11T12:19:18.999Z</time></trkpt><trkpt lat="44.667664603866214" lon="10.429327445580842"><ele>125.0</ele><time>2026-04-11T12:19:19.999Z</time></trkpt><trkpt lat="44.667516239577786" lon="10.429275677595443"><ele>125.0</ele><time>2026-04-11T12:19:20.999Z</time></trkpt><trkpt lat="44.66737798442842" lon="10.42921896929221"><ele>125.0</ele><time>2026-04-11T12:19:21.999Z</time></trkpt><trkpt lat="44.667244042706194" lon="10.429171065620057"><ele>125.0</ele><time>2026-04-11T12:19:22.999Z</time></trkpt><trkpt lat="44.66711040991241" lon="10.429114050779779"><ele>125.0</ele><time>2026-04-11T12:19:23.999Z</time></trkpt><trkpt lat="44.66697163619027" lon="10.429047842405867"><ele>124.66666666666666</ele><time>2026-04-11T12:19:24.999Z</time></trkpt><trkpt lat="44.66683037535052" lon="10.42898546948164"><ele>124.33333333333334</ele><time>2026-04-11T12:19:25.999Z</time></trkpt><trkpt lat="44.66668176437278" lon="10.428921019776908"><ele>124.0</ele><time>2026-04-11T12:19:26.999Z</time></trkpt><trkpt lat="44.666532418401445" lon="10.428857718357738"><ele>124.0</ele><time>2026-04-11T12:19:27.999Z</time></trkpt><trkpt lat="44.66638401941045" lon="10.428788179539417"><ele>124.0</ele><time>2026-04-11T12:19:28.999Z</time></trkpt><trkpt lat="44.666227836683206" lon="10.428721692211388"><ele>124.0</ele><time>2026-04-11T12:19:29.999Z</time></trkpt><trkpt lat="44.6660732127335" lon="10.42865472047023"><ele>124.33333333333334</ele><time>2026-04-11T12:19:30.999Z</time></trkpt><trkpt lat="44.66591723764497" lon="10.4285874844424"><ele>124.66666666666666</ele><time>2026-04-11T12:19:31.999Z</time></trkpt><trkpt lat="44.665763182500385" lon="10.428514972878515"><ele>125.0</ele><time>2026-04-11T12:19:32.999Z</time></trkpt><trkpt lat="44.66561694929609" lon="10.428452485970205"><ele>125.0</ele><time>2026-04-11T12:19:33.999Z</time></trkpt><trkpt lat="44.66546725637826" lon="10.428388471835735"><ele>125.0</ele><time>2026-04-11T12:19:34.999Z</time></trkpt><trkpt lat="44.66531580369347" lon="10.428342463609015"><ele>125.0</ele><time>2026-04-11T12:19:35.999Z</time></trkpt><trkpt lat="44.66517671386505" lon="10.428325556893535"><ele>124.75</ele><time>2026-04-11T12:19:36.999Z</time></trkpt><trkpt lat="44.66505681138499" lon="10.428323201495536"><ele>124.5</ele><time>2026-04-11T12:19:37.999Z</time></trkpt><trkpt lat="44.66495494876583" lon="10.42832915263001"><ele>124.25</ele><time>2026-04-11T12:19:38.999Z</time></trkpt><trkpt lat="44.66483263263924" lon="10.428346704209726"><ele>124.0</ele><time>2026-04-11T12:19:39.999Z</time></trkpt><trkpt lat="44.66468939905967" lon="10.42836409873366"><ele>124.0</ele><time>2026-04-11T12:19:40.999Z</time></trkpt><trkpt lat="44.664545120164654" lon="10.42836904284134"><ele>124.0</ele><time>2026-04-11T12:19:41.999Z</time></trkpt><trkpt lat="44.66441427190977" lon="10.428375580934864"><ele>124.0</ele><time>2026-04-11T12:19:42.999Z</time></trkpt><trkpt lat="44.66428420069512" lon="10.428380140289834"><ele>124.0</ele><time>2026-04-11T12:19:43.999Z</time></trkpt><trkpt lat="44.66414970893348" lon="10.428386686827826"><ele>124.0</ele><time>2026-04-11T12:19:44.999Z</time></trkpt><trkpt lat="44.664007855680225" lon="10.428392924191042"><ele>124.0</ele><time>2026-04-11T12:19:45.999Z</time></trkpt><trkpt lat="44.663860935852746" lon="10.428401312615636"><ele>124.0</ele><time>2026-04-11T12:19:46.999Z</time></trkpt><trkpt lat="44.66370602526627" lon="10.428407026245134"><ele>124.0</ele><time>2026-04-11T12:19:47.999Z</time></trkpt><trkpt lat="44.663550805536204" lon="10.428400114103471"><ele>124.66666666666667</ele><time>2026-04-11T12:19:48.999Z</time></trkpt><trkpt lat="44.66340188207549" lon="10.428368202388667"><ele>125.33333333333334</ele><time>2026-04-11T12:19:49.999Z</time></trkpt><trkpt lat="44.663253657710676" lon="10.428312519206012"><ele>126.0</ele><time>2026-04-11T12:19:50.999Z</time></trkpt><trkpt lat="44.66310592171785" lon="10.428231702577799"><ele>126.0</ele><time>2026-04-11T12:19:51.999Z</time></trkpt><trkpt lat="44.66296004744429" lon="10.428138656807272"><ele>126.0</ele><time>2026-04-11T12:19:52.999Z</time></trkpt><trkpt lat="44.66281620096896" lon="10.42804711166079"><ele>126.0</ele><time>2026-04-11T12:19:53.999Z</time></trkpt><trkpt lat="44.66266791331491" lon="10.427957659734908"><ele>126.0</ele><time>2026-04-11T12:19:54.999Z</time></trkpt><trkpt lat="44.66251231549169" lon="10.427866716491797"><ele>126.0</ele><time>2026-04-11T12:19:55.999Z</time></trkpt><trkpt lat="44.6623532089671" lon="10.427782411208627"><ele>126.0</ele><time>2026-04-11T12:19:56.999Z</time></trkpt><trkpt lat="44.66218801063627" lon="10.427707694151854"><ele>126.0</ele><time>2026-04-11T12:19:57.999Z</time></trkpt><trkpt lat="44.66201493780737" lon="10.427664975285058"><ele>126.0</ele><time>2026-04-11T12:19:58.999Z</time></trkpt><trkpt lat="44.66183147354966" lon="10.42765191473457"><ele>126.0</ele><time>2026-04-11T12:19:59.999Z</time></trkpt><trkpt lat="44.66164668298513" lon="10.427651992358017"><ele>125.66666666666666</ele><time>2026-04-11T12:20:00.999Z</time></trkpt><trkpt lat="44.661463695261894" lon="10.42765074093559"><ele>125.33333333333333</ele><time>2026-04-11T12:20:01.999Z</time></trkpt><trkpt lat="44.66128892632347" lon="10.427649989443966"><ele>125.0</ele><time>2026-04-11T12:20:02.999Z</time></trkpt><trkpt lat="44.66111804476777" lon="10.427647713808533"><ele>125.5</ele><time>2026-04-11T12:20:03.999Z</time></trkpt><trkpt lat="44.66095452175923" lon="10.427645007958766"><ele>126.0</ele><time>2026-04-11T12:20:04.999Z</time></trkpt><trkpt lat="44.66080721988907" lon="10.427642149257071"><ele>126.5</ele><time>2026-04-11T12:20:05.999Z</time></trkpt><trkpt lat="44.660673335779535" lon="10.42764113611391"><ele>127.0</ele><time>2026-04-11T12:20:06.999Z</time></trkpt><trkpt lat="44.66056281137611" lon="10.427639003495653"><ele>127.00000000000001</ele><time>2026-04-11T12:20:07.999Z</time></trkpt><trkpt lat="44.66046354579657" lon="10.427641953591765"><ele>127.0</ele><time>2026-04-11T12:20:08.999Z</time></trkpt><trkpt lat="44.66037925100847" lon="10.427638700044632"><ele>127.0</ele><time>2026-04-11T12:20:09.999Z</time></trkpt><trkpt lat="44.66029557128228" lon="10.427637982299371"><ele>127.0</ele><time>2026-04-11T12:20:10.999Z</time></trkpt><trkpt lat="44.660224406392665" lon="10.427639877141493"><ele>127.00000000000001</ele><time>2026-04-11T12:20:11.999Z</time></trkpt><trkpt lat="44.66015985887782" lon="10.427628200884989"><ele>127.0</ele><time>2026-04-11T12:20:12.999Z</time></trkpt><trkpt lat="44.66009700853262" lon="10.427606439433502"><ele>127.33333333333334</ele><time>2026-04-11T12:20:13.999Z</time></trkpt><trkpt lat="44.660019404698794" lon="10.427573892989434"><ele>127.66666666666667</ele><time>2026-04-11T12:20:14.999Z</time></trkpt><trkpt lat="44.659943008971055" lon="10.42754192489217"><ele>128.0</ele><time>2026-04-11T12:20:15.999Z</time></trkpt><trkpt lat="44.65987169543384" lon="10.427514648449527"><ele>128.33333333333334</ele><time>2026-04-11T12:20:16.999Z</time></trkpt><trkpt lat="44.659785330563096" lon="10.427486560730516"><ele>128.66666666666666</ele><time>2026-04-11T12:20:17.999Z</time></trkpt><trkpt lat="44.65969999920671" lon="10.427458946357593"><ele>129.0</ele><time>2026-04-11T12:20:18.999Z</time></trkpt><trkpt lat="44.65961365509862" lon="10.427429350603463"><ele>129.0</ele><time>2026-04-11T12:20:19.999Z</time></trkpt><trkpt lat="44.659529304134864" lon="10.4274055850716"><ele>129.0</ele><time>2026-04-11T12:20:20.999Z</time></trkpt><trkpt lat="44.65944534629647" lon="10.427371934780568"><ele>129.0</ele><time>2026-04-11T12:20:21.999Z</time></trkpt><trkpt lat="44.65936422207448" lon="10.427337797221375"><ele>129.0</ele><time>2026-04-11T12:20:22.999Z</time></trkpt><trkpt lat="44.65927941956841" lon="10.427303658868327"><ele>129.0</ele><time>2026-04-11T12:20:23.999Z</time></trkpt><trkpt lat="44.659193998274134" lon="10.427268963750866"><ele>129.0</ele><time>2026-04-11T12:20:24.999Z</time></trkpt><trkpt lat="44.65911333458266" lon="10.427238962072442"><ele>129.2</ele><time>2026-04-11T12:20:25.999Z</time></trkpt><trkpt lat="44.65904312412124" lon="10.427211272589972"><ele>129.4</ele><time>2026-04-11T12:20:26.999Z</time></trkpt><trkpt lat="44.65893047594024" lon="10.427169311952845"><ele>129.6</ele><time>2026-04-11T12:20:28.999Z</time></trkpt><trkpt lat="44.65884974013766" lon="10.427205829093442"><ele>129.8</ele><time>2026-04-11T12:20:30.999Z</time></trkpt><trkpt lat="44.658827000315185" lon="10.427319738002852"><ele>130.0</ele><time>2026-04-11T12:20:32.999Z</time></trkpt><trkpt lat="44.65888147148814" lon="10.42747774969328"><ele>130.0</ele><time>2026-04-11T12:20:34.999Z</time></trkpt><trkpt lat="44.658908472306926" lon="10.42757461721828"><ele>130.0</ele><time>2026-04-11T12:20:35.999Z</time></trkpt><trkpt lat="44.65893432684547" lon="10.427678675418289"><ele>130.0</ele><time>2026-04-11T12:20:36.999Z</time></trkpt><trkpt lat="44.658954074414574" lon="10.427775174192918"><ele>130.0</ele><time>2026-04-11T12:20:37.999Z</time></trkpt><trkpt lat="44.658982360601165" lon="10.427963829949308"><ele>130.0</ele><time>2026-04-11T12:20:39.999Z</time></trkpt><trkpt lat="44.65897096584973" lon="10.42812326744455"><ele>130.4</ele><time>2026-04-11T12:20:41.999Z</time></trkpt><trkpt lat="44.65895283019231" lon="10.428280492763399"><ele>130.8</ele><time>2026-04-11T12:20:43.999Z</time></trkpt><trkpt lat="44.65896020935579" lon="10.428369669060825"><ele>131.2</ele><time>2026-04-11T12:20:44.999Z</time></trkpt><trkpt lat="44.65897498755711" lon="10.428496461923842"><ele>131.6</ele><time>2026-04-11T12:20:46.999Z</time></trkpt><trkpt lat="44.65891354895658" lon="10.428569382927535"><ele>132.0</ele><time>2026-04-11T12:20:48.999Z</time></trkpt><trkpt lat="44.658802659007016" lon="10.42856421437812"><ele>132.0</ele><time>2026-04-11T12:20:50.999Z</time></trkpt><trkpt lat="44.658676767823536" lon="10.428503282572525"><ele>132.0</ele><time>2026-04-11T12:20:52.999Z</time></trkpt><trkpt lat="44.65860458135612" lon="10.428466870235374"><ele>132.0</ele><time>2026-04-11T12:20:53.999Z</time></trkpt><trkpt lat="44.65853247864476" lon="10.428425131654613"><ele>132.0</ele><time>2026-04-11T12:20:54.999Z</time></trkpt><trkpt lat="44.65846351705012" lon="10.428387971607673"><ele>132.0</ele><time>2026-04-11T12:20:55.999Z</time></trkpt><trkpt lat="44.658357019578276" lon="10.428330748551895"><ele>132.6</ele><time>2026-04-11T12:20:57.999Z</time></trkpt><trkpt lat="44.65827642241158" lon="10.428339056694636"><ele>133.2</ele><time>2026-04-11T12:20:59.999Z</time></trkpt><trkpt lat="44.6582337032154" lon="10.428445955797152"><ele>133.8</ele><time>2026-04-11T12:21:01.999Z</time></trkpt><trkpt lat="44.658198047594645" lon="10.428573397173137"><ele>134.4</ele><time>2026-04-11T12:21:03.999Z</time></trkpt><trkpt lat="44.658140155489285" lon="10.428738624040394"><ele>135.0</ele><time>2026-04-11T12:21:06Z</time></trkpt><trkpt lat="44.65810730816684" lon="10.428848124521524"><ele>135.0</ele><time>2026-04-11T12:21:07Z</time></trkpt><trkpt lat="44.658073881316646" lon="10.428968240218069"><ele>135.0</ele><time>2026-04-11T12:21:08Z</time></trkpt><trkpt lat="44.65804619337295" lon="10.429092716922684"><ele>135.0</ele><time>2026-04-11T12:21:09Z</time></trkpt><trkpt lat="44.65801633397747" lon="10.429234435858053"><ele>135.0</ele><time>2026-04-11T12:21:10Z</time></trkpt><trkpt lat="44.65796897734713" lon="10.429381087288455"><ele>135.0</ele><time>2026-04-11T12:21:11Z</time></trkpt><trkpt lat="44.65790657173764" lon="10.42951743302888"><ele>134.75</ele><time>2026-04-11T12:21:12Z</time></trkpt><trkpt lat="44.65784476761988" lon="10.429682090103986"><ele>134.5</ele><time>2026-04-11T12:21:13Z</time></trkpt><trkpt lat="44.657779774804645" lon="10.429863622634459"><ele>134.25</ele><time>2026-04-11T12:21:14Z</time></trkpt><trkpt lat="44.65769958585803" lon="10.430007657808016"><ele>134.0</ele><time>2026-04-11T12:21:17Z</time></trkpt><trkpt lat="44.65765445547598" lon="10.430110275973476"><ele>134.0</ele><time>2026-04-11T12:21:18Z</time></trkpt><trkpt lat="44.657604513182484" lon="10.43022389932916"><ele>134.0</ele><time>2026-04-11T12:21:19Z</time></trkpt><trkpt lat="44.657554739656895" lon="10.430341226151958"><ele>134.0</ele><time>2026-04-11T12:21:20Z</time></trkpt><trkpt lat="44.65751055031903" lon="10.430455236609124"><ele>134.0</ele><time>2026-04-11T12:21:21Z</time></trkpt><trkpt lat="44.65746720515589" lon="10.430560854333258"><ele>134.0</ele><time>2026-04-11T12:21:22Z</time></trkpt><trkpt lat="44.65743230300866" lon="10.430650614525465"><ele>134.0</ele><time>2026-04-11T12:21:23Z</time></trkpt><trkpt lat="44.657401699970514" lon="10.430739276225053"><ele>134.0</ele><time>2026-04-11T12:21:24Z</time></trkpt><trkpt lat="44.657368522538206" lon="10.430838032286566"><ele>134.0</ele><time>2026-04-11T12:21:25Z</time></trkpt><trkpt lat="44.657334792041645" lon="10.43094027412733"><ele>134.0</ele><time>2026-04-11T12:21:26Z</time></trkpt><trkpt lat="44.657306773841015" lon="10.431053649301925"><ele>134.0</ele><time>2026-04-11T12:21:27Z</time></trkpt><trkpt lat="44.65727451720486" lon="10.431161134097815"><ele>134.0</ele><time>2026-04-11T12:21:28Z</time></trkpt><trkpt lat="44.6572315541571" lon="10.43127276002765"><ele>134.0</ele><time>2026-04-11T12:21:29Z</time></trkpt><trkpt lat="44.6571792451799" lon="10.431393407844425"><ele>134.0</ele><time>2026-04-11T12:21:30Z</time></trkpt><trkpt lat="44.65711098538268" lon="10.431548034208554"><ele>134.0</ele><time>2026-04-11T12:21:31Z</time></trkpt><trkpt lat="44.65704289581115" lon="10.431697724077326"><ele>134.0</ele><time>2026-04-11T12:21:32Z</time></trkpt><trkpt lat="44.65698240327005" lon="10.431812430347392"><ele>134.0</ele><time>2026-04-11T12:21:33Z</time></trkpt><trkpt lat="44.65692153757926" lon="10.431923349883245"><ele>134.0</ele><time>2026-04-11T12:21:34Z</time></trkpt><trkpt lat="44.656863402090316" lon="10.43204576760289"><ele>134.0</ele><time>2026-04-11T12:21:35Z</time></trkpt><trkpt lat="44.656818792680056" lon="10.432140770188807"><ele>134.0</ele><time>2026-04-11T12:21:36Z</time></trkpt><trkpt lat="44.65676111254907" lon="10.432278731307646"><ele>134.0</ele><time>2026-04-11T12:21:38Z</time></trkpt><trkpt lat="44.656720428032365" lon="10.432357605750774"><ele>134.0</ele><time>2026-04-11T12:21:39Z</time></trkpt><trkpt lat="44.6566801981276" lon="10.43245775008812"><ele>133.8</ele><time>2026-04-11T12:21:40Z</time></trkpt><trkpt lat="44.65665238082987" lon="10.432551362009509"><ele>133.60000000000002</ele><time>2026-04-11T12:21:41Z</time></trkpt><trkpt lat="44.65662158025924" lon="10.432673786816228"><ele>133.4</ele><time>2026-04-11T12:21:42Z</time></trkpt><trkpt lat="44.65657464986564" lon="10.4328071719061"><ele>133.20000000000002</ele><time>2026-04-11T12:21:43Z</time></trkpt><trkpt lat="44.65652522622932" lon="10.432950462757413"><ele>133.0</ele><time>2026-04-11T12:21:44Z</time></trkpt><trkpt lat="44.65647325003028" lon="10.433091627357214"><ele>132.25</ele><time>2026-04-11T12:21:45Z</time></trkpt><trkpt lat="44.65641160921524" lon="10.433249872990082"><ele>131.5</ele><time>2026-04-11T12:21:46Z</time></trkpt><trkpt lat="44.65634956662048" lon="10.433424855737828"><ele>130.75</ele><time>2026-04-11T12:21:47Z</time></trkpt><trkpt lat="44.65628902371767" lon="10.433595252191276"><ele>130.0</ele><time>2026-04-11T12:21:48Z</time></trkpt><trkpt lat="44.65623897877175" lon="10.433767763192396"><ele>130.25</ele><time>2026-04-11T12:21:49Z</time></trkpt><trkpt lat="44.65619738908805" lon="10.433942928093145"><ele>130.5</ele><time>2026-04-11T12:21:50Z</time></trkpt><trkpt lat="44.656159679625254" lon="10.434091428570959"><ele>130.75</ele><time>2026-04-11T12:21:51Z</time></trkpt><trkpt lat="44.65612582790469" lon="10.434251347187196"><ele>131.0</ele><time>2026-04-11T12:21:52Z</time></trkpt><trkpt lat="44.65608641973502" lon="10.434449724022661"><ele>131.5</ele><time>2026-04-11T12:21:53Z</time></trkpt><trkpt lat="44.65605443875799" lon="10.43463640279099"><ele>132.0</ele><time>2026-04-11T12:21:54Z</time></trkpt><trkpt lat="44.65602535826979" lon="10.434819018561347"><ele>132.5</ele><time>2026-04-11T12:21:55Z</time></trkpt><trkpt lat="44.655995155246934" lon="10.435025649334117"><ele>133.0</ele><time>2026-04-11T12:21:56Z</time></trkpt><trkpt lat="44.65596400708893" lon="10.435228600054614"><ele>133.0</ele><time>2026-04-11T12:21:57Z</time></trkpt><trkpt lat="44.655938916943036" lon="10.435414166131423"><ele>133.0</ele><time>2026-04-11T12:21:58Z</time></trkpt><trkpt lat="44.65591663719525" lon="10.435571186835618"><ele>133.0</ele><time>2026-04-11T12:21:59Z</time></trkpt><trkpt lat="44.65589703327434" lon="10.435694283535838"><ele>133.0</ele><time>2026-04-11T12:22:00Z</time></trkpt><trkpt lat="44.65587844582346" lon="10.435799216031649"><ele>133.0</ele><time>2026-04-11T12:22:01Z</time></trkpt><trkpt lat="44.65586312048316" lon="10.43589713688952"><ele>132.5</ele><time>2026-04-11T12:22:02Z</time></trkpt><trkpt lat="44.655848253074254" lon="10.435993138679969"><ele>132.0</ele><time>2026-04-11T12:22:03Z</time></trkpt><trkpt lat="44.655832429238146" lon="10.436093111265603"><ele>131.5</ele><time>2026-04-11T12:22:04Z</time></trkpt><trkpt lat="44.65582036362055" lon="10.436192759090334"><ele>131.0</ele><time>2026-04-11T12:22:06Z</time></trkpt><trkpt lat="44.65576690095401" lon="10.43624339480524"><ele>130.5</ele><time>2026-04-11T12:22:08Z</time></trkpt><trkpt lat="44.65562031571935" lon="10.436250318933725"><ele>130.0</ele><time>2026-04-11T12:22:10Z</time></trkpt><trkpt lat="44.655506227504866" lon="10.43622819828407"><ele>130.0</ele><time>2026-04-11T12:22:11Z</time></trkpt><trkpt lat="44.655398860702" lon="10.43620792265436"><ele>130.0</ele><time>2026-04-11T12:22:12Z</time></trkpt><trkpt lat="44.65527871325399" lon="10.436190609501828"><ele>130.0</ele><time>2026-04-11T12:22:13Z</time></trkpt><trkpt lat="44.65513661811829" lon="10.436169811925142"><ele>130.0</ele><time>2026-04-11T12:22:14Z</time></trkpt><trkpt lat="44.65497807469227" lon="10.43614035337984"><ele>130.66666666666669</ele><time>2026-04-11T12:22:15Z</time></trkpt><trkpt lat="44.65482428226954" lon="10.436102255206526"><ele>131.33333333333334</ele><time>2026-04-11T12:22:16Z</time></trkpt><trkpt lat="44.65467475472588" lon="10.436073755712572"><ele>132.0</ele><time>2026-04-11T12:22:17Z</time></trkpt><trkpt lat="44.65451706727536" lon="10.436038483409613"><ele>132.25</ele><time>2026-04-11T12:22:18Z</time></trkpt><trkpt lat="44.65435972592648" lon="10.436000131277313"><ele>132.5</ele><time>2026-04-11T12:22:19Z</time></trkpt><trkpt lat="44.65422052112374" lon="10.435976635744971"><ele>132.75</ele><time>2026-04-11T12:22:20Z</time></trkpt><trkpt lat="44.654092888734404" lon="10.435948165010188"><ele>133.0</ele><time>2026-04-11T12:22:21Z</time></trkpt><trkpt lat="44.65396437855548" lon="10.435913941744202"><ele>133.0</ele><time>2026-04-11T12:22:22Z</time></trkpt><trkpt lat="44.653846359145746" lon="10.435891858944798"><ele>133.0</ele><time>2026-04-11T12:22:23Z</time></trkpt><trkpt lat="44.65373654382953" lon="10.435886255787041"><ele>133.0</ele><time>2026-04-11T12:22:24Z</time></trkpt><trkpt lat="44.6536216617301" lon="10.435897083625916"><ele>133.0</ele><time>2026-04-11T12:22:25Z</time></trkpt><trkpt lat="44.65349962404227" lon="10.435928839201011"><ele>133.0</ele><time>2026-04-11T12:22:26Z</time></trkpt><trkpt lat="44.65337557347859" lon="10.435957171881256"><ele>133.0</ele><time>2026-04-11T12:22:27Z</time></trkpt><trkpt lat="44.653239979862526" lon="10.435946241838014"><ele>133.0</ele><time>2026-04-11T12:22:28Z</time></trkpt><trkpt lat="44.65309158858387" lon="10.435913549795112"><ele>133.0</ele><time>2026-04-11T12:22:29Z</time></trkpt><trkpt lat="44.65296192870595" lon="10.43587314399107"><ele>133.0</ele><time>2026-04-11T12:22:30Z</time></trkpt><trkpt lat="44.65284281492532" lon="10.435844695992579"><ele>133.0</ele><time>2026-04-11T12:22:31Z</time></trkpt><trkpt lat="44.652737497149886" lon="10.435842195478505"><ele>133.0</ele><time>2026-04-11T12:22:32Z</time></trkpt><trkpt lat="44.65264853285829" lon="10.435830644050311"><ele>133.0</ele><time>2026-04-11T12:22:33Z</time></trkpt><trkpt lat="44.65257560198634" lon="10.435784347542151"><ele>133.0</ele><time>2026-04-11T12:22:34Z</time></trkpt><trkpt lat="44.65252738050266" lon="10.435682412359034"><ele>133.5</ele><time>2026-04-11T12:22:34.999Z</time></trkpt><trkpt lat="44.652490417029156" lon="10.43553060631536"><ele>134.0</ele><time>2026-04-11T12:22:35.999Z</time></trkpt><trkpt lat="44.65244173995064" lon="10.435401847928594"><ele>134.5</ele><time>2026-04-11T12:22:36.999Z</time></trkpt><trkpt lat="44.65233947707547" lon="10.435329388698564"><ele>135.0</ele><time>2026-04-11T12:22:37.999Z</time></trkpt><trkpt lat="44.6522111778864" lon="10.435286241848189"><ele>135.0</ele><time>2026-04-11T12:22:38.999Z</time></trkpt><trkpt lat="44.652079460611034" lon="10.435237880328772"><ele>135.0</ele><time>2026-04-11T12:22:39.999Z</time></trkpt><trkpt lat="44.65194672074995" lon="10.435180332599494"><ele>135.0</ele><time>2026-04-11T12:22:40.999Z</time></trkpt><trkpt lat="44.65182057561256" lon="10.43512652870252"><ele>135.0</ele><time>2026-04-11T12:22:41.999Z</time></trkpt><trkpt lat="44.65169529764339" lon="10.435076436463795"><ele>135.5</ele><time>2026-04-11T12:22:42.999Z</time></trkpt><trkpt lat="44.65156405793763" lon="10.435023046057987"><ele>136.0</ele><time>2026-04-11T12:22:43.999Z</time></trkpt><trkpt lat="44.651438603240166" lon="10.434974348966563"><ele>136.5</ele><time>2026-04-11T12:22:44.999Z</time></trkpt><trkpt lat="44.65132396694495" lon="10.43493213328622"><ele>137.0</ele><time>2026-04-11T12:22:45.999Z</time></trkpt><trkpt lat="44.651214149632004" lon="10.434892750853642"><ele>137.5</ele><time>2026-04-11T12:22:46.999Z</time></trkpt><trkpt lat="44.65109742197637" lon="10.434854748485126"><ele>138.0</ele><time>2026-04-11T12:22:47.999Z</time></trkpt><trkpt lat="44.650975091525716" lon="10.434816449465984"><ele>138.5</ele><time>2026-04-11T12:22:48.999Z</time></trkpt><trkpt lat="44.650850098116926" lon="10.434781810314416"><ele>139.0</ele><time>2026-04-11T12:22:49.999Z</time></trkpt><trkpt lat="44.65072061798082" lon="10.434749647841414"><ele>139.0</ele><time>2026-04-11T12:22:50.999Z</time></trkpt><trkpt lat="44.65058902982318" lon="10.434722370882588"><ele>139.0</ele><time>2026-04-11T12:22:51.999Z</time></trkpt><trkpt lat="44.65045638584726" lon="10.434688917145362"><ele>139.0</ele><time>2026-04-11T12:22:52.999Z</time></trkpt><trkpt lat="44.650323540128475" lon="10.434653651544037"><ele>139.0</ele><time>2026-04-11T12:22:53.999Z</time></trkpt><trkpt lat="44.65018682829681" lon="10.43461769558775"><ele>139.25</ele><time>2026-04-11T12:22:54.999Z</time></trkpt><trkpt lat="44.65004731752158" lon="10.434587916279442"><ele>139.5</ele><time>2026-04-11T12:22:55.999Z</time></trkpt><trkpt lat="44.64990642260758" lon="10.434556226024538"><ele>139.75</ele><time>2026-04-11T12:22:56.999Z</time></trkpt><trkpt lat="44.6497612423959" lon="10.434517320969423"><ele>140.0</ele><time>2026-04-11T12:22:57.999Z</time></trkpt><trkpt lat="44.64961902789587" lon="10.43447587294371"><ele>140.0</ele><time>2026-04-11T12:22:58.999Z</time></trkpt><trkpt lat="44.649470362740814" lon="10.434434905000323"><ele>140.0</ele><time>2026-04-11T12:22:59.999Z</time></trkpt><trkpt lat="44.64931641740888" lon="10.434384988946931"><ele>140.0</ele><time>2026-04-11T12:23:00.999Z</time></trkpt><trkpt lat="44.64916018686798" lon="10.434324699787338"><ele>140.0</ele><time>2026-04-11T12:23:01.999Z</time></trkpt><trkpt lat="44.649004580005666" lon="10.434254476751008"><ele>140.0</ele><time>2026-04-11T12:23:02.999Z</time></trkpt><trkpt lat="44.64884346214713" lon="10.434186449687653"><ele>140.0</ele><time>2026-04-11T12:23:03.999Z</time></trkpt><trkpt lat="44.648679081364996" lon="10.434120979817264"><ele>140.0</ele><time>2026-04-11T12:23:04.999Z</time></trkpt><trkpt lat="44.648514628192224" lon="10.434056639429812"><ele>140.0</ele><time>2026-04-11T12:23:05.999Z</time></trkpt><trkpt lat="44.6483474104754" lon="10.433980443801074"><ele>140.0</ele><time>2026-04-11T12:23:06.999Z</time></trkpt><trkpt lat="44.64818343071143" lon="10.433898840276035"><ele>140.0</ele><time>2026-04-11T12:23:07.999Z</time></trkpt><trkpt lat="44.64801473197052" lon="10.433816758951304"><ele>140.0</ele><time>2026-04-11T12:23:08.999Z</time></trkpt><trkpt lat="44.64784669789556" lon="10.433728702525695"><ele>140.0</ele><time>2026-04-11T12:23:09.999Z</time></trkpt><trkpt lat="44.647678758904384" lon="10.433640793369934"><ele>140.66666666666666</ele><time>2026-04-11T12:23:10.999Z</time></trkpt><trkpt lat="44.647512064235514" lon="10.43356215843133"><ele>141.33333333333334</ele><time>2026-04-11T12:23:12Z</time></trkpt><trkpt lat="44.6473606682327" lon="10.43349223229325"><ele>142.0</ele><time>2026-04-11T12:23:13Z</time></trkpt><trkpt lat="44.64722639314798" lon="10.433436119140202"><ele>142.0</ele><time>2026-04-11T12:23:14Z</time></trkpt><trkpt lat="44.647096562880634" lon="10.433380620892395"><ele>142.0</ele><time>2026-04-11T12:23:15Z</time></trkpt><trkpt lat="44.64698439479639" lon="10.433332987271761"><ele>142.0</ele><time>2026-04-11T12:23:16Z</time></trkpt><trkpt lat="44.646889016219355" lon="10.433292949697185"><ele>142.0</ele><time>2026-04-11T12:23:17Z</time></trkpt><trkpt lat="44.646811844666985" lon="10.433213834433747"><ele>142.0</ele><time>2026-04-11T12:23:18Z</time></trkpt><trkpt lat="44.64673451143595" lon="10.433117822532992"><ele>142.0</ele><time>2026-04-11T12:23:19Z</time></trkpt><trkpt lat="44.64662587951855" lon="10.433040806721953"><ele>142.0</ele><time>2026-04-11T12:23:20Z</time></trkpt><trkpt lat="44.64649299113017" lon="10.4329629455362"><ele>142.0</ele><time>2026-04-11T12:23:21Z</time></trkpt><trkpt lat="44.64634831188416" lon="10.432869412486133"><ele>142.0</ele><time>2026-04-11T12:23:22Z</time></trkpt><trkpt lat="44.64620932093157" lon="10.432784968891124"><ele>141.75</ele><time>2026-04-11T12:23:23Z</time></trkpt><trkpt lat="44.64607944015617" lon="10.432703828295242"><ele>141.5</ele><time>2026-04-11T12:23:24Z</time></trkpt><trkpt lat="44.6459491176153" lon="10.432621663978747"><ele>141.25</ele><time>2026-04-11T12:23:25Z</time></trkpt><trkpt lat="44.64581142931466" lon="10.432534862767154"><ele>141.0</ele><time>2026-04-11T12:23:26Z</time></trkpt><trkpt lat="44.645669548329124" lon="10.432449445297962"><ele>141.0</ele><time>2026-04-11T12:23:27Z</time></trkpt><trkpt lat="44.64552769558083" lon="10.432363669848483"><ele>141.0</ele><time>2026-04-11T12:23:28Z</time></trkpt><trkpt lat="44.645382976968904" lon="10.432281968218392"><ele>141.0</ele><time>2026-04-11T12:23:29Z</time></trkpt><trkpt lat="44.64524076979738" lon="10.432205006338659"><ele>142.0</ele><time>2026-04-11T12:23:30Z</time></trkpt><trkpt lat="44.64509544372283" lon="10.432129007283077"><ele>143.0</ele><time>2026-04-11T12:23:31Z</time></trkpt><trkpt lat="44.64495028033889" lon="10.432041468988368"><ele>144.0</ele><time>2026-04-11T12:23:32Z</time></trkpt><trkpt lat="44.64480275985128" lon="10.431954975466338"><ele>144.0</ele><time>2026-04-11T12:23:33Z</time></trkpt><trkpt lat="44.64466097036634" lon="10.431877043130093"><ele>144.0</ele><time>2026-04-11T12:23:34Z</time></trkpt><trkpt lat="44.644531871701666" lon="10.431799649936009"><ele>144.0</ele><time>2026-04-11T12:23:35Z</time></trkpt><trkpt lat="44.64440473948191" lon="10.431728761543882"><ele>144.0</ele><time>2026-04-11T12:23:36Z</time></trkpt><trkpt lat="44.64428516279097" lon="10.431660468540768"><ele>145.0</ele><time>2026-04-11T12:23:37Z</time></trkpt><trkpt lat="44.644165527179" lon="10.431596491554904"><ele>146.0</ele><time>2026-04-11T12:23:38Z</time></trkpt><trkpt lat="44.64404282844049" lon="10.431539455573912"><ele>147.0</ele><time>2026-04-11T12:23:39Z</time></trkpt><trkpt lat="44.64390955275111" lon="10.431471972636782"><ele>148.0</ele><time>2026-04-11T12:23:40Z</time></trkpt><trkpt lat="44.64377231575622" lon="10.431433769971795"><ele>147.75</ele><time>2026-04-11T12:23:41Z</time></trkpt><trkpt lat="44.64362797517734" lon="10.431394972066112"><ele>147.5</ele><time>2026-04-11T12:23:42Z</time></trkpt><trkpt lat="44.64347987948339" lon="10.43135981522544"><ele>147.25</ele><time>2026-04-11T12:23:43Z</time></trkpt><trkpt lat="44.643332934915044" lon="10.431309996525657"><ele>147.0</ele><time>2026-04-11T12:23:44Z</time></trkpt><trkpt lat="44.64318478112273" lon="10.431265867088452"><ele>147.25</ele><time>2026-04-11T12:23:45Z</time></trkpt><trkpt lat="44.64303739059769" lon="10.431232387157197"><ele>147.5</ele><time>2026-04-11T12:23:46Z</time></trkpt><trkpt lat="44.64288477603836" lon="10.431205330527895"><ele>147.75</ele><time>2026-04-11T12:23:47Z</time></trkpt><trkpt lat="44.642745919956596" lon="10.431175532341298"><ele>148.0</ele><time>2026-04-11T12:23:48Z</time></trkpt><trkpt lat="44.64261801719705" lon="10.431149438281619"><ele>148.0</ele><time>2026-04-11T12:23:49Z</time></trkpt><trkpt lat="44.64250251845832" lon="10.431118225284333"><ele>148.0</ele><time>2026-04-11T12:23:50Z</time></trkpt><trkpt lat="44.64239587664711" lon="10.431090030116922"><ele>148.0</ele><time>2026-04-11T12:23:51Z</time></trkpt><trkpt lat="44.642287742962296" lon="10.431061255761634"><ele>148.0</ele><time>2026-04-11T12:23:52Z</time></trkpt><trkpt lat="44.64216616681426" lon="10.43102349093057"><ele>148.0</ele><time>2026-04-11T12:23:53Z</time></trkpt><trkpt lat="44.64203796238315" lon="10.4309929847138"><ele>148.0</ele><time>2026-04-11T12:23:54Z</time></trkpt><trkpt lat="44.641910761302384" lon="10.430953184655298"><ele>148.0</ele><time>2026-04-11T12:23:55Z</time></trkpt><trkpt lat="44.64178859368349" lon="10.430911847435594"><ele>148.0</ele><time>2026-04-11T12:23:56Z</time></trkpt><trkpt lat="44.641671715032345" lon="10.430870610252619"><ele>148.4</ele><time>2026-04-11T12:23:57Z</time></trkpt><trkpt lat="44.64156016365881" lon="10.430825963254723"><ele>148.8</ele><time>2026-04-11T12:23:58Z</time></trkpt><trkpt lat="44.64145090397595" lon="10.430787645911085"><ele>149.2</ele><time>2026-04-11T12:23:59Z</time></trkpt><trkpt lat="44.64134560565941" lon="10.430754830638984"><ele>149.6</ele><time>2026-04-11T12:24:00Z</time></trkpt><trkpt lat="44.641254543661944" lon="10.430719041102105"><ele>150.0</ele><time>2026-04-11T12:24:01Z</time></trkpt><trkpt lat="44.64117382856468" lon="10.430688370147159"><ele>150.0</ele><time>2026-04-11T12:24:02Z</time></trkpt><trkpt lat="44.64110589602426" lon="10.430658282458403"><ele>150.0</ele><time>2026-04-11T12:24:03Z</time></trkpt><trkpt lat="44.64100967700254" lon="10.430566193322855"><ele>150.0</ele><time>2026-04-11T12:24:05Z</time></trkpt><trkpt lat="44.640992650171384" lon="10.430457893229434"><ele>150.0</ele><time>2026-04-11T12:24:06Z</time></trkpt><trkpt lat="44.64098670466649" lon="10.43032714756454"><ele>150.0</ele><time>2026-04-11T12:24:07Z</time></trkpt><trkpt lat="44.64093653161654" lon="10.430039406684747"><ele>150.0</ele><time>2026-04-11T12:24:09Z</time></trkpt><trkpt lat="44.640883213314865" lon="10.429918430952705"><ele>150.0</ele><time>2026-04-11T12:24:10Z</time></trkpt><trkpt lat="44.64080954681374" lon="10.42984277124398"><ele>150.0</ele><time>2026-04-11T12:24:11Z</time></trkpt><trkpt lat="44.64071612460271" lon="10.429786957940593"><ele>150.0</ele><time>2026-04-11T12:24:12Z</time></trkpt><trkpt lat="44.640600025892624" lon="10.429730326027721"><ele>150.0</ele><time>2026-04-11T12:24:13Z</time></trkpt><trkpt lat="44.64046517123318" lon="10.429667797204097"><ele>150.0</ele><time>2026-04-11T12:24:14Z</time></trkpt><trkpt lat="44.640318540948165" lon="10.429592686862344"><ele>150.0</ele><time>2026-04-11T12:24:15Z</time></trkpt><trkpt lat="44.640179411288415" lon="10.429530815278367"><ele>150.0</ele><time>2026-04-11T12:24:16Z</time></trkpt><trkpt lat="44.64004453478616" lon="10.42946838935339"><ele>150.0</ele><time>2026-04-11T12:24:17Z</time></trkpt><trkpt lat="44.63990272886519" lon="10.429407592732153"><ele>150.25</ele><time>2026-04-11T12:24:18Z</time></trkpt><trkpt lat="44.639756692330195" lon="10.429344006815858"><ele>150.5</ele><time>2026-04-11T12:24:19Z</time></trkpt><trkpt lat="44.63961992790877" lon="10.429286756942815"><ele>150.75</ele><time>2026-04-11T12:24:20Z</time></trkpt><trkpt lat="44.63948866493281" lon="10.429222645040953"><ele>151.0</ele><time>2026-04-11T12:24:21Z</time></trkpt><trkpt lat="44.63935320261109" lon="10.429159434467522"><ele>151.4</ele><time>2026-04-11T12:24:22Z</time></trkpt><trkpt lat="44.63924345812195" lon="10.429116007457289"><ele>151.8</ele><time>2026-04-11T12:24:23Z</time></trkpt><trkpt lat="44.639167252370484" lon="10.429074321305615"><ele>152.20000000000002</ele><time>2026-04-11T12:24:24Z</time></trkpt><trkpt lat="44.63912172988651" lon="10.429160662231265"><ele>152.6</ele><time>2026-04-11T12:24:27Z</time></trkpt><trkpt lat="44.63910883540149" lon="10.429269933168191"><ele>153.0</ele><time>2026-04-11T12:24:28Z</time></trkpt><trkpt lat="44.63910911008791" lon="10.429411265029577"><ele>153.0</ele><time>2026-04-11T12:24:29Z</time></trkpt><trkpt lat="44.639114860344414" lon="10.429577640736849"><ele>153.0</ele><time>2026-04-11T12:24:30Z</time></trkpt><trkpt lat="44.639109606455676" lon="10.429756518739852"><ele>153.0</ele><time>2026-04-11T12:24:31Z</time></trkpt><trkpt lat="44.639102464931796" lon="10.429930007429117"><ele>153.0</ele><time>2026-04-11T12:24:32Z</time></trkpt><trkpt lat="44.63908497572681" lon="10.43010867939408"><ele>153.0</ele><time>2026-04-11T12:24:32.999Z</time></trkpt><trkpt lat="44.63904826577232" lon="10.430289004079437"><ele>153.0</ele><time>2026-04-11T12:24:33.999Z</time></trkpt><trkpt lat="44.63900621947442" lon="10.430468882097326"><ele>153.0</ele><time>2026-04-11T12:24:34.999Z</time></trkpt><trkpt lat="44.63896504142827" lon="10.430645269425959"><ele>153.0</ele><time>2026-04-11T12:24:35.999Z</time></trkpt><trkpt lat="44.638918733252126" lon="10.43081113347145"><ele>153.0</ele><time>2026-04-11T12:24:36.999Z</time></trkpt><trkpt lat="44.63887083669771" lon="10.430969797240143"><ele>153.0</ele><time>2026-04-11T12:24:37.999Z</time></trkpt><trkpt lat="44.63882469590529" lon="10.431130433955987"><ele>153.0</ele><time>2026-04-11T12:24:38.999Z</time></trkpt><trkpt lat="44.63877550021731" lon="10.431300773615968"><ele>153.0</ele><time>2026-04-11T12:24:39.999Z</time></trkpt><trkpt lat="44.638721522098216" lon="10.43147404378231"><ele>153.75</ele><time>2026-04-11T12:24:40.999Z</time></trkpt><trkpt lat="44.6386752822288" lon="10.431647053853798"><ele>154.5</ele><time>2026-04-11T12:24:41.999Z</time></trkpt><trkpt lat="44.638627698923955" lon="10.431827087349763"><ele>155.25</ele><time>2026-04-11T12:24:42.999Z</time></trkpt><trkpt lat="44.63857732379184" lon="10.432001093410106"><ele>156.0</ele><time>2026-04-11T12:24:43.999Z</time></trkpt><trkpt lat="44.638522211247206" lon="10.432171404428223"><ele>156.0</ele><time>2026-04-11T12:24:44.999Z</time></trkpt><trkpt lat="44.63846945868887" lon="10.432313871966775"><ele>156.0</ele><time>2026-04-11T12:24:45.999Z</time></trkpt><trkpt lat="44.6384210988523" lon="10.43243562872067"><ele>156.0</ele><time>2026-04-11T12:24:46.999Z</time></trkpt><trkpt lat="44.63837272443702" lon="10.432523228621415"><ele>156.0</ele><time>2026-04-11T12:24:47.999Z</time></trkpt><trkpt lat="44.63833425808632" lon="10.432615451348935"><ele>156.0</ele><time>2026-04-11T12:24:48.999Z</time></trkpt><trkpt lat="44.63831290101661" lon="10.432701446218347"><ele>156.0</ele><time>2026-04-11T12:24:49.999Z</time></trkpt><trkpt lat="44.638189055906246" lon="10.432776946963243"><ele>156.0</ele><time>2026-04-11T12:24:51.999Z</time></trkpt><trkpt lat="44.63808722450066" lon="10.432757974370098"><ele>156.0</ele><time>2026-04-11T12:24:52.999Z</time></trkpt><trkpt lat="44.63797115161695" lon="10.43273342943407"><ele>156.0</ele><time>2026-04-11T12:24:53.999Z</time></trkpt><trkpt lat="44.637860460490344" lon="10.432722853179731"><ele>156.0</ele><time>2026-04-11T12:24:54.999Z</time></trkpt><trkpt lat="44.637749948173195" lon="10.432714909954967"><ele>156.0</ele><time>2026-04-11T12:24:55.999Z</time></trkpt><trkpt lat="44.6376326468051" lon="10.43269630062231"><ele>156.25</ele><time>2026-04-11T12:24:56.999Z</time></trkpt><trkpt lat="44.63751432331863" lon="10.432669516985722"><ele>156.5</ele><time>2026-04-11T12:24:57.999Z</time></trkpt><trkpt lat="44.63739735220065" lon="10.432644248757997"><ele>156.75</ele><time>2026-04-11T12:24:58.999Z</time></trkpt><trkpt lat="44.637273940128715" lon="10.432619225883927"><ele>157.0</ele><time>2026-04-11T12:24:59.999Z</time></trkpt><trkpt lat="44.63713794899493" lon="10.432596989503434"><ele>157.0</ele><time>2026-04-11T12:25:00.999Z</time></trkpt><trkpt lat="44.63699947332723" lon="10.4325613699519"><ele>157.0</ele><time>2026-04-11T12:25:01.999Z</time></trkpt><trkpt lat="44.636857931486006" lon="10.432519219649267"><ele>157.0</ele><time>2026-04-11T12:25:02.999Z</time></trkpt><trkpt lat="44.63671613667476" lon="10.432474849689685"><ele>157.0</ele><time>2026-04-11T12:25:03.999Z</time></trkpt><trkpt lat="44.63656827353928" lon="10.43243055543956"><ele>157.66666666666669</ele><time>2026-04-11T12:25:04.999Z</time></trkpt><trkpt lat="44.6364128628332" lon="10.43237585966944"><ele>158.33333333333334</ele><time>2026-04-11T12:25:05.999Z</time></trkpt><trkpt lat="44.6362612782434" lon="10.432318725132186"><ele>159.0</ele><time>2026-04-11T12:25:06.999Z</time></trkpt><trkpt lat="44.63612504203314" lon="10.432262941332587"><ele>159.0</ele><time>2026-04-11T12:25:07.999Z</time></trkpt><trkpt lat="44.63598739183374" lon="10.432213919783385"><ele>159.0</ele><time>2026-04-11T12:25:08.999Z</time></trkpt><trkpt lat="44.63584927322958" lon="10.432160180318892"><ele>159.0</ele><time>2026-04-11T12:25:09.999Z</time></trkpt><trkpt lat="44.63570833148439" lon="10.432102600661155"><ele>159.0</ele><time>2026-04-11T12:25:10.999Z</time></trkpt><trkpt lat="44.63558060451965" lon="10.432058130416166"><ele>159.0</ele><time>2026-04-11T12:25:11.999Z</time></trkpt><trkpt lat="44.635466888413184" lon="10.432023038423877"><ele>159.0</ele><time>2026-04-11T12:25:12.999Z</time></trkpt><trkpt lat="44.6353644933751" lon="10.431994586485638"><ele>159.0</ele><time>2026-04-11T12:25:13.999Z</time></trkpt><trkpt lat="44.635272081284285" lon="10.43196723642755"><ele>159.0</ele><time>2026-04-11T12:25:14.999Z</time></trkpt><trkpt lat="44.6351926017325" lon="10.431954014119803"><ele>159.0</ele><time>2026-04-11T12:25:15.999Z</time></trkpt><trkpt lat="44.6351216468106" lon="10.431939080420175"><ele>159.16666666666666</ele><time>2026-04-11T12:25:16.999Z</time></trkpt><trkpt lat="44.63506369590823" lon="10.431886613597339"><ele>159.33333333333334</ele><time>2026-04-11T12:25:18Z</time></trkpt><trkpt lat="44.63502090370464" lon="10.431799851319909"><ele>159.5</ele><time>2026-04-11T12:25:19Z</time></trkpt><trkpt lat="44.635020224663684" lon="10.431675551996777"><ele>159.66666666666669</ele><time>2026-04-11T12:25:21Z</time></trkpt><trkpt lat="44.63504398985289" lon="10.43154820540022"><ele>159.83333333333334</ele><time>2026-04-11T12:25:30Z</time></trkpt><trkpt lat="44.635084987708034" lon="10.431453363309473"><ele>160.0</ele><time>2026-04-11T12:25:32Z</time></trkpt><trkpt lat="44.635136155231145" lon="10.431374194520986"><ele>160.0</ele><time>2026-04-11T12:25:34Z</time></trkpt><trkpt lat="44.63521895510113" lon="10.43129177724946"><ele>160.0</ele><time>2026-04-11T12:25:36Z</time></trkpt><trkpt lat="44.63527576285206" lon="10.43117778952709"><ele>160.0</ele><time>2026-04-11T12:25:38Z</time></trkpt><trkpt lat="44.63533235062272" lon="10.431080383619962"><ele>160.0</ele><time>2026-04-11T12:25:40Z</time></trkpt><trkpt lat="44.63537501244618" lon="10.430986009844128"><ele>160.0</ele><time>2026-04-11T12:25:58Z</time></trkpt><trkpt lat="44.63530143336281" lon="10.430982310788616"><ele>160.0</ele><time>2026-04-11T12:26:02Z</time></trkpt><trkpt lat="44.635259901823225" lon="10.43108007306316"><ele>160.0</ele><time>2026-04-11T12:26:04Z</time></trkpt><trkpt lat="44.63521671942769" lon="10.431163872597992"><ele>160.0</ele><time>2026-04-11T12:26:07Z</time></trkpt><trkpt lat="44.63518014869215" lon="10.431241953146948"><ele>160.0</ele><time>2026-04-11T12:26:09Z</time></trkpt><trkpt lat="44.63511036999755" lon="10.431362783636843"><ele>160.0</ele><time>2026-04-11T12:26:11Z</time></trkpt><trkpt lat="44.635060283908416" lon="10.431427903669745"><ele>160.0</ele><time>2026-04-11T12:26:12Z</time></trkpt><trkpt lat="44.63501512803979" lon="10.431497810393015"><ele>160.0</ele><time>2026-04-11T12:26:13Z</time></trkpt><trkpt lat="44.63496683688042" lon="10.43157572525554"><ele>160.0</ele><time>2026-04-11T12:26:14Z</time></trkpt><trkpt lat="44.63490518458511" lon="10.431664174345402"><ele>160.0</ele><time>2026-04-11T12:26:15Z</time></trkpt><trkpt lat="44.634841639228384" lon="10.431741754187698"><ele>160.0</ele><time>2026-04-11T12:26:16Z</time></trkpt><trkpt lat="44.63478350371623" lon="10.431807557084085"><ele>160.0</ele><time>2026-04-11T12:26:17Z</time></trkpt><trkpt lat="44.63472401779101" lon="10.431873434454957"><ele>160.0</ele><time>2026-04-11T12:26:18Z</time></trkpt><trkpt lat="44.634657319017755" lon="10.431947841652535"><ele>160.0</ele><time>2026-04-11T12:26:19Z</time></trkpt><trkpt lat="44.63458066686644" lon="10.432030984450607"><ele>160.0</ele><time>2026-04-11T12:26:20Z</time></trkpt><trkpt lat="44.63450588750609" lon="10.432112937756898"><ele>160.0</ele><time>2026-04-11T12:26:21Z</time></trkpt><trkpt lat="44.63443780930074" lon="10.432186511918184"><ele>160.0</ele><time>2026-04-11T12:26:22Z</time></trkpt><trkpt lat="44.63437591598167" lon="10.432258891382537"><ele>160.0</ele><time>2026-04-11T12:26:23Z</time></trkpt><trkpt lat="44.63431761316977" lon="10.432328918658884"><ele>160.0</ele><time>2026-04-11T12:26:24Z</time></trkpt><trkpt lat="44.63425736156325" lon="10.432398732805817"><ele>160.0</ele><time>2026-04-11T12:26:25Z</time></trkpt><trkpt lat="44.63419880532923" lon="10.432467638788806"><ele>160.33333333333334</ele><time>2026-04-11T12:26:26Z</time></trkpt><trkpt lat="44.63414278352327" lon="10.432528375408857"><ele>160.66666666666669</ele><time>2026-04-11T12:26:27Z</time></trkpt><trkpt lat="44.63408262982629" lon="10.432592859626267"><ele>161.0</ele><time>2026-04-11T12:26:28Z</time></trkpt><trkpt lat="44.63402314899394" lon="10.432660076869878"><ele>161.33333333333334</ele><time>2026-04-11T12:26:29Z</time></trkpt><trkpt lat="44.6339628197315" lon="10.43273047295479"><ele>161.66666666666666</ele><time>2026-04-11T12:26:30Z</time></trkpt><trkpt lat="44.63390475896479" lon="10.43279622089357"><ele>162.0</ele><time>2026-04-11T12:26:31Z</time></trkpt><trkpt lat="44.633846726375864" lon="10.432863928256742"><ele>162.0</ele><time>2026-04-11T12:26:32Z</time></trkpt><trkpt lat="44.6337835710593" lon="10.43293765185638"><ele>162.0</ele><time>2026-04-11T12:26:33Z</time></trkpt><trkpt lat="44.633720281343564" lon="10.433003039628275"><ele>162.0</ele><time>2026-04-11T12:26:34Z</time></trkpt><trkpt lat="44.63365509437539" lon="10.43307470168793"><ele>162.0</ele><time>2026-04-11T12:26:34.999Z</time></trkpt><trkpt lat="44.633589614465336" lon="10.433143316370202"><ele>162.0</ele><time>2026-04-11T12:26:35.999Z</time></trkpt><trkpt lat="44.63352315314047" lon="10.433207835390691"><ele>162.0</ele><time>2026-04-11T12:26:36.999Z</time></trkpt><trkpt lat="44.63345679003585" lon="10.433269804872705"><ele>162.83333333333334</ele><time>2026-04-11T12:26:37.999Z</time></trkpt><trkpt lat="44.63339313178271" lon="10.433337122823582"><ele>163.66666666666666</ele><time>2026-04-11T12:26:38.999Z</time></trkpt><trkpt lat="44.63332955527599" lon="10.433403821511842"><ele>164.5</ele><time>2026-04-11T12:26:39.999Z</time></trkpt><trkpt lat="44.633268562572084" lon="10.433467119847803"><ele>165.33333333333331</ele><time>2026-04-11T12:26:40.999Z</time></trkpt><trkpt lat="44.63321238235688" lon="10.433510466580843"><ele>166.16666666666666</ele><time>2026-04-11T12:26:41.999Z</time></trkpt><trkpt lat="44.633079950268055" lon="10.43349992370412"><ele>167.0</ele><time>2026-04-11T12:26:43.999Z</time></trkpt><trkpt lat="44.633011871649046" lon="10.433448590816589"><ele>167.0</ele><time>2026-04-11T12:26:44.999Z</time></trkpt><trkpt lat="44.63293316328237" lon="10.433378586691946"><ele>167.0</ele><time>2026-04-11T12:26:45.999Z</time></trkpt><trkpt lat="44.632849938962806" lon="10.433289036923684"><ele>167.0</ele><time>2026-04-11T12:26:46.999Z</time></trkpt><trkpt lat="44.632767091943876" lon="10.433193572189316"><ele>167.0</ele><time>2026-04-11T12:26:47.999Z</time></trkpt><trkpt lat="44.63267847049607" lon="10.433099092665767"><ele>167.0</ele><time>2026-04-11T12:26:48.999Z</time></trkpt><trkpt lat="44.632587193743646" lon="10.433006899067822"><ele>167.2</ele><time>2026-04-11T12:26:49.999Z</time></trkpt><trkpt lat="44.63249936646139" lon="10.432918582680026"><ele>167.39999999999998</ele><time>2026-04-11T12:26:50.999Z</time></trkpt><trkpt lat="44.63241433301666" lon="10.432830001044534"><ele>167.60000000000002</ele><time>2026-04-11T12:26:51.999Z</time></trkpt><trkpt lat="44.63233202744242" lon="10.432735678375415"><ele>167.8</ele><time>2026-04-11T12:26:52.999Z</time></trkpt><trkpt lat="44.632243941325605" lon="10.432641467769658"><ele>168.0</ele><time>2026-04-11T12:26:53.999Z</time></trkpt><trkpt lat="44.63214860016712" lon="10.432540188146982"><ele>168.0</ele><time>2026-04-11T12:26:54.999Z</time></trkpt><trkpt lat="44.63204315332416" lon="10.432429051092955"><ele>168.0</ele><time>2026-04-11T12:26:55.999Z</time></trkpt><trkpt lat="44.63193414956821" lon="10.432315556173467"><ele>168.0</ele><time>2026-04-11T12:26:56.999Z</time></trkpt><trkpt lat="44.63182151672712" lon="10.432202052299383"><ele>168.0</ele><time>2026-04-11T12:26:57.999Z</time></trkpt><trkpt lat="44.6316857736853" lon="10.432066502746345"><ele>167.66666666666666</ele><time>2026-04-11T12:26:58.999Z</time></trkpt><trkpt lat="44.63154361503465" lon="10.431917852372928"><ele>167.33333333333331</ele><time>2026-04-11T12:26:59.999Z</time></trkpt><trkpt lat="44.63138594653341" lon="10.43175100263384"><ele>167.0</ele><time>2026-04-11T12:27:00.999Z</time></trkpt><trkpt lat="44.631252332268765" lon="10.431611438845241"><ele>167.0</ele><time>2026-04-11T12:27:01.999Z</time></trkpt><trkpt lat="44.63111145953082" lon="10.431458309288779"><ele>167.0</ele><time>2026-04-11T12:27:02.999Z</time></trkpt><trkpt lat="44.63097146960602" lon="10.431308632221144"><ele>167.0</ele><time>2026-04-11T12:27:03.999Z</time></trkpt><trkpt lat="44.630832455168104" lon="10.431158248825337"><ele>167.0</ele><time>2026-04-11T12:27:04.999Z</time></trkpt><trkpt lat="44.63069888658324" lon="10.431012776364446"><ele>167.0</ele><time>2026-04-11T12:27:05.999Z</time></trkpt><trkpt lat="44.630567321029496" lon="10.430863315272743"><ele>167.0</ele><time>2026-04-11T12:27:06.999Z</time></trkpt><trkpt lat="44.63044437585201" lon="10.430724371159174"><ele>167.0</ele><time>2026-04-11T12:27:07.999Z</time></trkpt><trkpt lat="44.630335880166875" lon="10.430598733224516"><ele>167.0</ele><time>2026-04-11T12:27:08.999Z</time></trkpt><trkpt lat="44.63024029770788" lon="10.430497534972286"><ele>167.0</ele><time>2026-04-11T12:27:09.999Z</time></trkpt><trkpt lat="44.63015826851992" lon="10.430407105619677"><ele>167.0</ele><time>2026-04-11T12:27:10.999Z</time></trkpt><trkpt lat="44.63009200826703" lon="10.430337670581421"><ele>167.0</ele><time>2026-04-11T12:27:11.999Z</time></trkpt><trkpt lat="44.630039014144415" lon="10.43028466264442"><ele>167.0</ele><time>2026-04-11T12:27:12.999Z</time></trkpt><trkpt lat="44.62998078126742" lon="10.430234353342877"><ele>167.0</ele><time>2026-04-11T12:27:14.999Z</time></trkpt><trkpt lat="44.62992598899507" lon="10.430151599253096"><ele>167.0</ele><time>2026-04-11T12:27:16.999Z</time></trkpt><trkpt lat="44.62992715354338" lon="10.430013400723404"><ele>167.0</ele><time>2026-04-11T12:27:18.999Z</time></trkpt><trkpt lat="44.62990346790153" lon="10.429883109253433"><ele>167.0</ele><time>2026-04-11T12:27:20.999Z</time></trkpt><trkpt lat="44.62988770024348" lon="10.429796838618408"><ele>167.0</ele><time>2026-04-11T12:27:21.999Z</time></trkpt><trkpt lat="44.62988145810313" lon="10.429653464595516"><ele>166.83333333333331</ele><time>2026-04-11T12:27:24Z</time></trkpt><trkpt lat="44.62981498996546" lon="10.429537849782657"><ele>166.66666666666666</ele><time>2026-04-11T12:27:26Z</time></trkpt><trkpt lat="44.62973877414041" lon="10.429503079915547"><ele>166.5</ele><time>2026-04-11T12:27:27Z</time></trkpt><trkpt lat="44.62967101527846" lon="10.429464215334837"><ele>166.33333333333334</ele><time>2026-04-11T12:27:28Z</time></trkpt><trkpt lat="44.62956456431347" lon="10.429388975519897"><ele>166.16666666666669</ele><time>2026-04-11T12:27:30Z</time></trkpt><trkpt lat="44.62950613516389" lon="10.429339159610535"><ele>166.0</ele><time>2026-04-11T12:27:31Z</time></trkpt><trkpt lat="44.629434233645114" lon="10.429285613233318"><ele>166.8</ele><time>2026-04-11T12:27:32Z</time></trkpt><trkpt lat="44.629360613381806" lon="10.429234180468683"><ele>167.60000000000002</ele><time>2026-04-11T12:27:33Z</time></trkpt><trkpt lat="44.62928153790782" lon="10.429182085724639"><ele>168.4</ele><time>2026-04-11T12:27:34Z</time></trkpt><trkpt lat="44.629197586825576" lon="10.429129106006"><ele>169.2</ele><time>2026-04-11T12:27:35Z</time></trkpt><trkpt lat="44.62911022147393" lon="10.429069391817949"><ele>170.0</ele><time>2026-04-11T12:27:36Z</time></trkpt><trkpt lat="44.62901843947489" lon="10.429003133932875"><ele>170.0</ele><time>2026-04-11T12:27:37Z</time></trkpt><trkpt lat="44.628926066893236" lon="10.428933820653704"><ele>170.0</ele><time>2026-04-11T12:27:38Z</time></trkpt><trkpt lat="44.62883167000864" lon="10.428863802146857"><ele>170.0</ele><time>2026-04-11T12:27:39Z</time></trkpt><trkpt lat="44.62873648082989" lon="10.428792716925726"><ele>170.0</ele><time>2026-04-11T12:27:40Z</time></trkpt><trkpt lat="44.62863964612783" lon="10.428722405840652"><ele>170.0</ele><time>2026-04-11T12:27:41Z</time></trkpt><trkpt lat="44.628544031011145" lon="10.428650206381187"><ele>170.2</ele><time>2026-04-11T12:27:42Z</time></trkpt><trkpt lat="44.628450214786874" lon="10.42858828533645"><ele>170.4</ele><time>2026-04-11T12:27:43Z</time></trkpt><trkpt lat="44.62835501536019" lon="10.428523637777626"><ele>170.60000000000002</ele><time>2026-04-11T12:27:44Z</time></trkpt><trkpt lat="44.628262461095126" lon="10.428455897755676"><ele>170.8</ele><time>2026-04-11T12:27:45Z</time></trkpt><trkpt lat="44.6281691426565" lon="10.428388361238193"><ele>171.0</ele><time>2026-04-11T12:27:46Z</time></trkpt><trkpt lat="44.628073236201494" lon="10.428320826402098"><ele>171.0</ele><time>2026-04-11T12:27:47Z</time></trkpt><trkpt lat="44.627973878222186" lon="10.42825372134854"><ele>171.0</ele><time>2026-04-11T12:27:48Z</time></trkpt><trkpt lat="44.627873457469825" lon="10.42818302432234"><ele>171.0</ele><time>2026-04-11T12:27:49Z</time></trkpt><trkpt lat="44.627773959385415" lon="10.428127059091457"><ele>171.0</ele><time>2026-04-11T12:27:50Z</time></trkpt><trkpt lat="44.62766771128439" lon="10.428107303430298"><ele>171.0</ele><time>2026-04-11T12:27:51Z</time></trkpt><trkpt lat="44.62756193729392" lon="10.428090296117528"><ele>171.8</ele><time>2026-04-11T12:27:52Z</time></trkpt><trkpt lat="44.62745552995186" lon="10.428069573280323"><ele>172.60000000000002</ele><time>2026-04-11T12:27:53Z</time></trkpt><trkpt lat="44.62734905069232" lon="10.428050542409734"><ele>173.4</ele><time>2026-04-11T12:27:54Z</time></trkpt><trkpt lat="44.62724373076317" lon="10.428030175805082"><ele>174.2</ele><time>2026-04-11T12:27:55Z</time></trkpt><trkpt lat="44.62713683626322" lon="10.428009883689835"><ele>175.0</ele><time>2026-04-11T12:27:56Z</time></trkpt><trkpt lat="44.627029647042804" lon="10.42798910201034"><ele>174.8</ele><time>2026-04-11T12:27:57Z</time></trkpt><trkpt lat="44.62692058450845" lon="10.427961478206585"><ele>174.6</ele><time>2026-04-11T12:27:58Z</time></trkpt><trkpt lat="44.62680886081084" lon="10.427933600793486"><ele>174.39999999999998</ele><time>2026-04-11T12:27:59Z</time></trkpt><trkpt lat="44.626700419741276" lon="10.427907821988066"><ele>174.2</ele><time>2026-04-11T12:28:00Z</time></trkpt><trkpt lat="44.6265976218955" lon="10.427879694118403"><ele>174.0</ele><time>2026-04-11T12:28:01Z</time></trkpt><trkpt lat="44.626493616582216" lon="10.427847954085939"><ele>174.0</ele><time>2026-04-11T12:28:02Z</time></trkpt><trkpt lat="44.62638365586632" lon="10.427829919733234"><ele>174.0</ele><time>2026-04-11T12:28:03Z</time></trkpt><trkpt lat="44.626277133113526" lon="10.427805074043656"><ele>174.0</ele><time>2026-04-11T12:28:04Z</time></trkpt><trkpt lat="44.62616990401389" lon="10.427776200119279"><ele>174.0</ele><time>2026-04-11T12:28:05Z</time></trkpt><trkpt lat="44.626060411647735" lon="10.427744665771343"><ele>174.0</ele><time>2026-04-11T12:28:06Z</time></trkpt><trkpt lat="44.6259527864537" lon="10.427718982164276"><ele>174.6</ele><time>2026-04-11T12:28:07Z</time></trkpt><trkpt lat="44.625848389783805" lon="10.427697129215993"><ele>175.2</ele><time>2026-04-11T12:28:08Z</time></trkpt><trkpt lat="44.62576219069854" lon="10.427662488887693"><ele>175.79999999999998</ele><time>2026-04-11T12:28:09Z</time></trkpt><trkpt lat="44.62568049962054" lon="10.42759971336904"><ele>176.39999999999998</ele><time>2026-04-11T12:28:10Z</time></trkpt><trkpt lat="44.62561576630343" lon="10.427463145321765"><ele>177.0</ele><time>2026-04-11T12:28:11Z</time></trkpt><trkpt lat="44.62556270946472" lon="10.427311211817793"><ele>177.0</ele><time>2026-04-11T12:28:12Z</time></trkpt><trkpt lat="44.62550909696293" lon="10.427214672733662"><ele>177.0</ele><time>2026-04-11T12:28:13Z</time></trkpt><trkpt lat="44.62544545945134" lon="10.427153895088104"><ele>177.0</ele><time>2026-04-11T12:28:14Z</time></trkpt><trkpt lat="44.62537663301404" lon="10.427138741317973"><ele>177.0</ele><time>2026-04-11T12:28:15Z</time></trkpt><trkpt lat="44.62531113746075" lon="10.427139292683078"><ele>177.0</ele><time>2026-04-11T12:28:18Z</time></trkpt><trkpt lat="44.625252492883256" lon="10.42729610956827"><ele>177.0</ele><time>2026-04-11T12:28:20Z</time></trkpt><trkpt lat="44.62524642426915" lon="10.427431500823683"><ele>177.6</ele><time>2026-04-11T12:28:21Z</time></trkpt><trkpt lat="44.625232466936716" lon="10.42754120298172"><ele>178.2</ele><time>2026-04-11T12:28:22Z</time></trkpt><trkpt lat="44.625216381195074" lon="10.427672548228038"><ele>178.8</ele><time>2026-04-11T12:28:23Z</time></trkpt><trkpt lat="44.62520693564259" lon="10.427814101756551"><ele>179.4</ele><time>2026-04-11T12:28:24Z</time></trkpt><trkpt lat="44.62519458729444" lon="10.427964616975764"><ele>180.0</ele><time>2026-04-11T12:28:25Z</time></trkpt><trkpt lat="44.62518522774313" lon="10.428118403909366"><ele>180.25</ele><time>2026-04-11T12:28:26Z</time></trkpt><trkpt lat="44.625171305509504" lon="10.428274845016638"><ele>180.5</ele><time>2026-04-11T12:28:27Z</time></trkpt><trkpt lat="44.62515840308486" lon="10.428435684964116"><ele>180.75</ele><time>2026-04-11T12:28:28Z</time></trkpt><trkpt lat="44.625146268225606" lon="10.428592256568074"><ele>181.0</ele><time>2026-04-11T12:28:29Z</time></trkpt><trkpt lat="44.62512895858773" lon="10.42875928064117"><ele>181.4</ele><time>2026-04-11T12:28:30Z</time></trkpt><trkpt lat="44.62511042917301" lon="10.428923263232027"><ele>181.8</ele><time>2026-04-11T12:28:31Z</time></trkpt><trkpt lat="44.62509079265842" lon="10.429083378912068"><ele>182.20000000000002</ele><time>2026-04-11T12:28:32Z</time></trkpt><trkpt lat="44.625072562277985" lon="10.429214926853522"><ele>182.60000000000002</ele><time>2026-04-11T12:28:32.999Z</time></trkpt><trkpt lat="44.62505758798673" lon="10.429333221543585"><ele>183.0</ele><time>2026-04-11T12:28:33.999Z</time></trkpt><trkpt lat="44.625048639813556" lon="10.429436713559479"><ele>183.0</ele><time>2026-04-11T12:28:34.999Z</time></trkpt><trkpt lat="44.62502266125627" lon="10.429571803571587"><ele>183.0</ele><time>2026-04-11T12:28:36.999Z</time></trkpt><trkpt lat="44.62494329654699" lon="10.429574894360872"><ele>183.0</ele><time>2026-04-11T12:28:38.999Z</time></trkpt><trkpt lat="44.62488386956821" lon="10.429523343085831"><ele>183.0</ele><time>2026-04-11T12:28:39.999Z</time></trkpt><trkpt lat="44.62481967985312" lon="10.429455399490434"><ele>183.0</ele><time>2026-04-11T12:28:40.999Z</time></trkpt><trkpt lat="44.62474470312903" lon="10.429417323764943"><ele>183.0</ele><time>2026-04-11T12:28:41.999Z</time></trkpt><trkpt lat="44.62468782179375" lon="10.429372540706497"><ele>183.0</ele><time>2026-04-11T12:28:42.999Z</time></trkpt><trkpt lat="44.624625809271635" lon="10.42933558776899"><ele>183.0</ele><time>2026-04-11T12:28:43.999Z</time></trkpt><trkpt lat="44.62456302340573" lon="10.429285154184347"><ele>183.0</ele><time>2026-04-11T12:28:44.999Z</time></trkpt><trkpt lat="44.62450224814077" lon="10.429243283946304"><ele>183.0</ele><time>2026-04-11T12:28:45.999Z</time></trkpt><trkpt lat="44.624393573437715" lon="10.429207561275158"><ele>183.0</ele><time>2026-04-11T12:28:47.999Z</time></trkpt><trkpt lat="44.62432820998488" lon="10.42921360692378"><ele>183.0</ele><time>2026-04-11T12:28:48.999Z</time></trkpt><trkpt lat="44.62425131116975" lon="10.429224588369257"><ele>183.5</ele><time>2026-04-11T12:28:49.999Z</time></trkpt><trkpt lat="44.62417825251353" lon="10.429246856928184"><ele>184.0</ele><time>2026-04-11T12:28:50.999Z</time></trkpt><trkpt lat="44.624104561201165" lon="10.429269285550436"><ele>184.5</ele><time>2026-04-11T12:28:51.999Z</time></trkpt><trkpt lat="44.624031235918984" lon="10.429290162288643"><ele>185.0</ele><time>2026-04-11T12:28:52.999Z</time></trkpt><trkpt lat="44.62395287809704" lon="10.429308254990232"><ele>185.5</ele><time>2026-04-11T12:28:53.999Z</time></trkpt><trkpt lat="44.62387347772886" lon="10.429328338902707"><ele>186.0</ele><time>2026-04-11T12:28:54.999Z</time></trkpt><trkpt lat="44.62378033122141" lon="10.429347784482625"><ele>186.0</ele><time>2026-04-11T12:28:55.999Z</time></trkpt><trkpt lat="44.6236833082951" lon="10.429360098029575"><ele>186.0</ele><time>2026-04-11T12:28:56.999Z</time></trkpt><trkpt lat="44.623602041017065" lon="10.429379795673874"><ele>186.0</ele><time>2026-04-11T12:28:57.999Z</time></trkpt><trkpt lat="44.623521269356274" lon="10.429388497759591"><ele>186.0</ele><time>2026-04-11T12:28:58.999Z</time></trkpt><trkpt lat="44.62343238087551" lon="10.42939109681062"><ele>186.0</ele><time>2026-04-11T12:28:59.999Z</time></trkpt><trkpt lat="44.623346377503886" lon="10.429382160317992"><ele>186.0</ele><time>2026-04-11T12:29:00.999Z</time></trkpt><trkpt lat="44.62325392460046" lon="10.429360459284187"><ele>186.16666666666666</ele><time>2026-04-11T12:29:01.999Z</time></trkpt><trkpt lat="44.62315563484181" lon="10.429326534217166"><ele>186.33333333333334</ele><time>2026-04-11T12:29:02.999Z</time></trkpt><trkpt lat="44.62305999862355" lon="10.42930394072338"><ele>186.5</ele><time>2026-04-11T12:29:03.999Z</time></trkpt><trkpt lat="44.622974302255756" lon="10.429302407175273"><ele>186.66666666666669</ele><time>2026-04-11T12:29:04.999Z</time></trkpt><trkpt lat="44.6229023861149" lon="10.429302928751438"><ele>186.83333333333334</ele><time>2026-04-11T12:29:05.999Z</time></trkpt><trkpt lat="44.62283798493217" lon="10.429304914242298"><ele>187.0</ele><time>2026-04-11T12:29:06.999Z</time></trkpt><trkpt lat="44.62272413959305" lon="10.429297649069811"><ele>188.0</ele><time>2026-04-11T12:29:08.999Z</time></trkpt><trkpt lat="44.62261341535821" lon="10.429314919848153"><ele>189.0</ele><time>2026-04-11T12:29:10.999Z</time></trkpt><trkpt lat="44.62256498598773" lon="10.429378255969127"><ele>190.0</ele><time>2026-04-11T12:29:11.999Z</time></trkpt><trkpt lat="44.62252443196203" lon="10.42946407156668"><ele>191.0</ele><time>2026-04-11T12:29:12.999Z</time></trkpt><trkpt lat="44.622418252779326" lon="10.429536739281087"><ele>192.0</ele><time>2026-04-11T12:29:14.999Z</time></trkpt><trkpt lat="44.62228287997094" lon="10.429452386801218"><ele>192.0</ele><time>2026-04-11T12:29:16.999Z</time></trkpt><trkpt lat="44.62220106287066" lon="10.429407239974198"><ele>192.0</ele><time>2026-04-11T12:29:18.999Z</time></trkpt><trkpt lat="44.62207888617715" lon="10.42940411504342"><ele>192.0</ele><time>2026-04-11T12:29:20.999Z</time></trkpt><trkpt lat="44.62200153474299" lon="10.429382907914341"><ele>192.0</ele><time>2026-04-11T12:29:21.999Z</time></trkpt><trkpt lat="44.621924424332036" lon="10.429387016176614"><ele>192.0</ele><time>2026-04-11T12:29:22.999Z</time></trkpt><trkpt lat="44.62184825219499" lon="10.429393437366723"><ele>192.0</ele><time>2026-04-11T12:29:23.999Z</time></trkpt><trkpt lat="44.62177649755955" lon="10.42941456538922"><ele>192.5</ele><time>2026-04-11T12:29:24.999Z</time></trkpt><trkpt lat="44.62170366174943" lon="10.429439155840347"><ele>193.0</ele><time>2026-04-11T12:29:25.999Z</time></trkpt><trkpt lat="44.62163439623469" lon="10.429429957613971"><ele>193.5</ele><time>2026-04-11T12:29:26.999Z</time></trkpt><trkpt lat="44.62153764099886" lon="10.42944794760481"><ele>194.0</ele><time>2026-04-11T12:29:28.999Z</time></trkpt><trkpt lat="44.62146459617243" lon="10.429457115729763"><ele>194.5</ele><time>2026-04-11T12:29:31Z</time></trkpt><trkpt lat="44.62145025988133" lon="10.429318728864336"><ele>195.0</ele><time>2026-04-11T12:29:33Z</time></trkpt><trkpt lat="44.62139568268137" lon="10.429167394820828"><ele>195.0</ele><time>2026-04-11T12:29:35Z</time></trkpt><trkpt lat="44.62139329181109" lon="10.429063903317068"><ele>195.0</ele><time>2026-04-11T12:29:36Z</time></trkpt><trkpt lat="44.62144317770501" lon="10.428910366196973"><ele>195.0</ele><time>2026-04-11T12:29:38Z</time></trkpt><trkpt lat="44.62149679695566" lon="10.428850624336652"><ele>195.0</ele><time>2026-04-11T12:29:39Z</time></trkpt><trkpt lat="44.62155217993516" lon="10.428774418534525"><ele>195.0</ele><time>2026-04-11T12:29:41Z</time></trkpt><trkpt lat="44.62159499098133" lon="10.428686938391467"><ele>195.0</ele><time>2026-04-11T12:29:43Z</time></trkpt><trkpt lat="44.621606266798324" lon="10.428588664138855"><ele>196.0</ele><time>2026-04-11T12:29:45Z</time></trkpt><trkpt lat="44.62161289866154" lon="10.428434122036299"><ele>197.0</ele><time>2026-04-11T12:29:47Z</time></trkpt><trkpt lat="44.621617283256754" lon="10.428280098819624"><ele>198.0</ele><time>2026-04-11T12:29:49Z</time></trkpt><trkpt lat="44.62147275308651" lon="10.428184902117525"><ele>199.0</ele><time>2026-04-11T12:29:50Z</time></trkpt><trkpt lat="44.62143589819428" lon="10.428085720272225"><ele>198.99999999999997</ele><time>2026-04-11T12:29:51Z</time></trkpt><trkpt lat="44.621409276341716" lon="10.42799624104283"><ele>199.0</ele><time>2026-04-11T12:29:52Z</time></trkpt><trkpt lat="44.621376138632954" lon="10.427905520010057"><ele>199.0</ele><time>2026-04-11T12:29:53Z</time></trkpt><trkpt lat="44.62133614215744" lon="10.427812276468133"><ele>199.0</ele><time>2026-04-11T12:29:54Z</time></trkpt><trkpt lat="44.621292044724676" lon="10.427723330551405"><ele>199.0</ele><time>2026-04-11T12:29:55Z</time></trkpt><trkpt lat="44.62125032557319" lon="10.427638926792511"><ele>198.99999999999997</ele><time>2026-04-11T12:29:56Z</time></trkpt><trkpt lat="44.621215493883085" lon="10.427538778725566"><ele>199.0</ele><time>2026-04-11T12:29:57Z</time></trkpt><trkpt lat="44.62116750667781" lon="10.427432389104744"><ele>199.16666666666666</ele><time>2026-04-11T12:29:58Z</time></trkpt><trkpt lat="44.62112615237084" lon="10.427332134837718"><ele>199.33333333333331</ele><time>2026-04-11T12:29:59Z</time></trkpt><trkpt lat="44.62108695639198" lon="10.427233909960178"><ele>199.5</ele><time>2026-04-11T12:30:00Z</time></trkpt><trkpt lat="44.621049554799924" lon="10.42713701095227"><ele>199.66666666666669</ele><time>2026-04-11T12:30:01Z</time></trkpt><trkpt lat="44.621022764506364" lon="10.427043066677983"><ele>199.83333333333334</ele><time>2026-04-11T12:30:02Z</time></trkpt><trkpt lat="44.6209914495542" lon="10.4269566677348"><ele>200.0</ele><time>2026-04-11T12:30:03Z</time></trkpt><trkpt lat="44.62096101993049" lon="10.426871658734632"><ele>200.0</ele><time>2026-04-11T12:30:04Z</time></trkpt><trkpt lat="44.62092727867774" lon="10.426795312375457"><ele>200.0</ele><time>2026-04-11T12:30:05Z</time></trkpt><trkpt lat="44.62084028091106" lon="10.42665392676191"><ele>200.0</ele><time>2026-04-11T12:30:07Z</time></trkpt><trkpt lat="44.62079169606734" lon="10.426569321424749"><ele>200.0</ele><time>2026-04-11T12:30:08Z</time></trkpt><trkpt lat="44.62072867591853" lon="10.426481569385238"><ele>200.0</ele><time>2026-04-11T12:30:09Z</time></trkpt><trkpt lat="44.620667000419616" lon="10.426388615151307"><ele>198.00000000000003</ele><time>2026-04-11T12:30:10Z</time></trkpt><trkpt lat="44.6206198858228" lon="10.426309894948938"><ele>196.0</ele><time>2026-04-11T12:30:11Z</time></trkpt><trkpt lat="44.6205682947738" lon="10.426227158397682"><ele>194.0</ele><time>2026-04-11T12:30:12Z</time></trkpt><trkpt lat="44.6205188580415" lon="10.426135641938872"><ele>192.0</ele><time>2026-04-11T12:30:13Z</time></trkpt><trkpt lat="44.62047790858968" lon="10.426032005221138"><ele>190.0</ele><time>2026-04-11T12:30:14Z</time></trkpt><trkpt lat="44.620441608734566" lon="10.425943875318866"><ele>188.0</ele><time>2026-04-11T12:30:15Z</time></trkpt><trkpt lat="44.620367682215004" lon="10.425810651484664"><ele>188.0</ele><time>2026-04-11T12:30:17Z</time></trkpt><trkpt lat="44.62031698708923" lon="10.425740051110905"><ele>188.0</ele><time>2026-04-11T12:30:18Z</time></trkpt><trkpt lat="44.6202405777924" lon="10.425595690261835"><ele>188.0</ele><time>2026-04-11T12:30:20Z</time></trkpt><trkpt lat="44.6202181054853" lon="10.425488206467127"><ele>188.0</ele><time>2026-04-11T12:30:21Z</time></trkpt><trkpt lat="44.620190903437596" lon="10.425380989620555"><ele>188.0</ele><time>2026-04-11T12:30:22Z</time></trkpt><trkpt lat="44.620177603508935" lon="10.425257880324024"><ele>188.0</ele><time>2026-04-11T12:30:23Z</time></trkpt><trkpt lat="44.62015902140597" lon="10.425154093419428"><ele>187.83333333333331</ele><time>2026-04-11T12:30:24Z</time></trkpt><trkpt lat="44.620137265991566" lon="10.425045338087216"><ele>187.66666666666666</ele><time>2026-04-11T12:30:25Z</time></trkpt><trkpt lat="44.620098543894656" lon="10.424937997490643"><ele>187.5</ele><time>2026-04-11T12:30:26Z</time></trkpt><trkpt lat="44.62006234392525" lon="10.424841122452102"><ele>187.33333333333334</ele><time>2026-04-11T12:30:27Z</time></trkpt><trkpt lat="44.62001695120259" lon="10.424743901245268"><ele>187.16666666666669</ele><time>2026-04-11T12:30:28Z</time></trkpt><trkpt lat="44.61997133728696" lon="10.424659219295435"><ele>187.0</ele><time>2026-04-11T12:30:29Z</time></trkpt><trkpt lat="44.61993251300549" lon="10.424535642662613"><ele>187.0</ele><time>2026-04-11T12:30:30Z</time></trkpt><trkpt lat="44.61991123017841" lon="10.4244049831166"><ele>187.0</ele><time>2026-04-11T12:30:31Z</time></trkpt><trkpt lat="44.61988143696434" lon="10.424280289482857"><ele>187.0</ele><time>2026-04-11T12:30:32Z</time></trkpt><trkpt lat="44.6198439260422" lon="10.424179268860131"><ele>187.0</ele><time>2026-04-11T12:30:33Z</time></trkpt><trkpt lat="44.6197904005172" lon="10.42407317782218"><ele>187.0</ele><time>2026-04-11T12:30:33.999Z</time></trkpt><trkpt lat="44.61972402708691" lon="10.423956363791556"><ele>187.0</ele><time>2026-04-11T12:30:34.999Z</time></trkpt><trkpt lat="44.619679213816966" lon="10.423854705688866"><ele>187.0</ele><time>2026-04-11T12:30:35.999Z</time></trkpt><trkpt lat="44.61964144559169" lon="10.423766765322538"><ele>187.0</ele><time>2026-04-11T12:30:36.999Z</time></trkpt><trkpt lat="44.61961528280945" lon="10.423668065472931"><ele>187.0</ele><time>2026-04-11T12:30:37.999Z</time></trkpt><trkpt lat="44.61961837663674" lon="10.423569862065452"><ele>187.0</ele><time>2026-04-11T12:30:38.999Z</time></trkpt><trkpt lat="44.619610656304566" lon="10.423480212273974"><ele>187.0</ele><time>2026-04-11T12:30:39.999Z</time></trkpt><trkpt lat="44.61959807817354" lon="10.423377072600763"><ele>187.0</ele><time>2026-04-11T12:30:40.999Z</time></trkpt><trkpt lat="44.61955720080547" lon="10.423246667627756"><ele>186.0</ele><time>2026-04-11T12:30:42.999Z</time></trkpt><trkpt lat="44.61950792092812" lon="10.423172311525928"><ele>185.0</ele><time>2026-04-11T12:30:43.999Z</time></trkpt><trkpt lat="44.61951034878361" lon="10.423061824287139"><ele>184.0</ele><time>2026-04-11T12:30:46.999Z</time></trkpt><trkpt lat="44.61956866198816" lon="10.422854217432294"><ele>183.0</ele><time>2026-04-11T12:30:48.999Z</time></trkpt><trkpt lat="44.61961440389797" lon="10.422759894378444"><ele>182.0</ele><time>2026-04-11T12:30:49.999Z</time></trkpt><trkpt lat="44.619654704691165" lon="10.42265475187343"><ele>182.0</ele><time>2026-04-11T12:30:50.999Z</time></trkpt><trkpt lat="44.61970158597785" lon="10.422534856003137"><ele>182.0</ele><time>2026-04-11T12:30:51.999Z</time></trkpt><trkpt lat="44.61974122250924" lon="10.42243052048498"><ele>182.0</ele><time>2026-04-11T12:30:52.999Z</time></trkpt><trkpt lat="44.619773099170644" lon="10.422341361594258"><ele>182.0</ele><time>2026-04-11T12:30:53.999Z</time></trkpt><trkpt lat="44.61980041127687" lon="10.422258675476364"><ele>182.0</ele><time>2026-04-11T12:30:54.999Z</time></trkpt><trkpt lat="44.61984169749637" lon="10.422155161574459"><ele>182.0</ele><time>2026-04-11T12:30:56.999Z</time></trkpt><trkpt lat="44.61990230780459" lon="10.422104510131666"><ele>183.0</ele><time>2026-04-11T12:30:59.999Z</time></trkpt><trkpt lat="44.619939146972726" lon="10.421258303857602"><ele>183.0</ele><time>2026-04-11T12:31:02.999Z</time></trkpt><trkpt lat="44.61986794141576" lon="10.421219150321974"><ele>183.0</ele><time>2026-04-11T12:31:03.999Z</time></trkpt><trkpt lat="44.61979631696387" lon="10.421179766449265"><ele>183.0</ele><time>2026-04-11T12:31:04.999Z</time></trkpt><trkpt lat="44.61972303807079" lon="10.421139472867571"><ele>183.0</ele><time>2026-04-11T12:31:05.999Z</time></trkpt><trkpt lat="44.619647754868474" lon="10.421098077184096"><ele>183.0</ele><time>2026-04-11T12:31:06.999Z</time></trkpt><trkpt lat="44.61952528023113" lon="10.421027957751757"><ele>183.0</ele><time>2026-04-11T12:31:08.999Z</time></trkpt><trkpt lat="44.61945921659988" lon="10.420988594742632"><ele>183.0</ele><time>2026-04-11T12:31:09.999Z</time></trkpt><trkpt lat="44.61939241793042" lon="10.420948793771355"><ele>183.0</ele><time>2026-04-11T12:31:10.999Z</time></trkpt><trkpt lat="44.619324645708" lon="10.420908412810375"><ele>183.0</ele><time>2026-04-11T12:31:11.999Z</time></trkpt><trkpt lat="44.61925948955113" lon="10.420869590623612"><ele>183.0</ele><time>2026-04-11T12:31:12.999Z</time></trkpt><trkpt lat="44.6191898215612" lon="10.4208280801358"><ele>183.0</ele><time>2026-04-11T12:31:13.999Z</time></trkpt><trkpt lat="44.619117935926354" lon="10.420785248298474"><ele>183.0</ele><time>2026-04-11T12:31:14.999Z</time></trkpt><trkpt lat="44.6188178242632" lon="10.421476863563468"><ele>183.0</ele><time>2026-04-11T12:31:15.999Z</time></trkpt><trkpt lat="44.61873157095745" lon="10.421436187019173"><ele>183.0</ele><time>2026-04-11T12:31:16.999Z</time></trkpt><trkpt lat="44.618658552809016" lon="10.421382645571391"><ele>183.0</ele><time>2026-04-11T12:31:17.999Z</time></trkpt><trkpt lat="44.61858858513293" lon="10.421338417622545"><ele>183.0</ele><time>2026-04-11T12:31:18.999Z</time></trkpt><trkpt lat="44.6185284419606" lon="10.421291616795786"><ele>183.0</ele><time>2026-04-11T12:31:19.999Z</time></trkpt><trkpt lat="44.618453525150386" lon="10.42125108591634"><ele>183.0</ele><time>2026-04-11T12:31:20.999Z</time></trkpt><trkpt lat="44.6183808539265" lon="10.421229591789539"><ele>183.4</ele><time>2026-04-11T12:31:21.999Z</time></trkpt><trkpt lat="44.61830080308737" lon="10.421163602676431"><ele>183.8</ele><time>2026-04-11T12:31:22.999Z</time></trkpt><trkpt lat="44.61820592314478" lon="10.421100236208174"><ele>184.2</ele><time>2026-04-11T12:31:23.999Z</time></trkpt><trkpt lat="44.61809940171158" lon="10.42105030957862"><ele>184.6</ele><time>2026-04-11T12:31:24.999Z</time></trkpt><trkpt lat="44.618003633687245" lon="10.420991570664771"><ele>185.0</ele><time>2026-04-11T12:31:25.999Z</time></trkpt><trkpt lat="44.61790581166641" lon="10.42094632338467"><ele>185.5</ele><time>2026-04-11T12:31:26.999Z</time></trkpt><trkpt lat="44.61778874644979" lon="10.42089542790121"><ele>186.0</ele><time>2026-04-11T12:31:27.999Z</time></trkpt><trkpt lat="44.617644226742634" lon="10.420834761706715"><ele>186.5</ele><time>2026-04-11T12:31:28.999Z</time></trkpt><trkpt lat="44.61750332960133" lon="10.420781182335697"><ele>187.0</ele><time>2026-04-11T12:31:29.999Z</time></trkpt><trkpt lat="44.61736484213898" lon="10.42073331781802"><ele>187.0</ele><time>2026-04-11T12:31:30.999Z</time></trkpt><trkpt lat="44.6172423755277" lon="10.420694978329704"><ele>187.0</ele><time>2026-04-11T12:31:31.999Z</time></trkpt><trkpt lat="44.617141965911806" lon="10.420661326158566"><ele>187.0</ele><time>2026-04-11T12:31:32.999Z</time></trkpt><trkpt lat="44.61705176128202" lon="10.420628160293333"><ele>187.0</ele><time>2026-04-11T12:31:33.999Z</time></trkpt><trkpt lat="44.616951090815185" lon="10.420592839488194"><ele>187.0</ele><time>2026-04-11T12:31:34.999Z</time></trkpt><trkpt lat="44.616856473729015" lon="10.420559786919748"><ele>187.66666666666669</ele><time>2026-04-11T12:31:36Z</time></trkpt><trkpt lat="44.61679345431454" lon="10.420534661626872"><ele>188.33333333333334</ele><time>2026-04-11T12:31:37Z</time></trkpt><trkpt lat="44.61672076127639" lon="10.42054185933779"><ele>189.0</ele><time>2026-04-11T12:31:39Z</time></trkpt><trkpt lat="44.61669290922949" lon="10.420630308086812"><ele>189.66666666666666</ele><time>2026-04-11T12:31:41Z</time></trkpt><trkpt lat="44.61667905868701" lon="10.42074626016963"><ele>190.33333333333331</ele><time>2026-04-11T12:31:43Z</time></trkpt><trkpt lat="44.616602013742295" lon="10.420804135523701"><ele>191.0</ele><time>2026-04-11T12:31:53Z</time></trkpt><trkpt lat="44.616495245398966" lon="10.420796881865561"><ele>191.0</ele><time>2026-04-11T12:31:55Z</time></trkpt><trkpt lat="44.616421431479125" lon="10.420774980658406"><ele>191.0</ele><time>2026-04-11T12:31:56Z</time></trkpt><trkpt lat="44.61635230140286" lon="10.420758345989121"><ele>191.0</ele><time>2026-04-11T12:31:57Z</time></trkpt><trkpt lat="44.61626283898386" lon="10.420737932009901"><ele>191.0</ele><time>2026-04-11T12:31:58Z</time></trkpt><trkpt lat="44.616175873099856" lon="10.420717410817488"><ele>191.0</ele><time>2026-04-11T12:31:59Z</time></trkpt><trkpt lat="44.61608970599906" lon="10.42069382093314"><ele>191.0</ele><time>2026-04-11T12:32:00Z</time></trkpt><trkpt lat="44.616007578695466" lon="10.42067394205144"><ele>191.20000000000002</ele><time>2026-04-11T12:32:01Z</time></trkpt><trkpt lat="44.615921614537896" lon="10.420651503192149"><ele>191.4</ele><time>2026-04-11T12:32:02Z</time></trkpt><trkpt lat="44.615829704693844" lon="10.420634596556818"><ele>191.6</ele><time>2026-04-11T12:32:03Z</time></trkpt><trkpt lat="44.61574939282229" lon="10.420611567701474"><ele>191.8</ele><time>2026-04-11T12:32:04Z</time></trkpt><trkpt lat="44.61565188828977" lon="10.420593273851678"><ele>192.0</ele><time>2026-04-11T12:32:05Z</time></trkpt><trkpt lat="44.61554589192908" lon="10.420570349549067"><ele>192.0</ele><time>2026-04-11T12:32:06Z</time></trkpt><trkpt lat="44.61543965329573" lon="10.420553921229686"><ele>192.0</ele><time>2026-04-11T12:32:07Z</time></trkpt><trkpt lat="44.61533570965659" lon="10.420548127821332"><ele>192.0</ele><time>2026-04-11T12:32:08Z</time></trkpt><trkpt lat="44.61523634683794" lon="10.420552188894272"><ele>192.0</ele><time>2026-04-11T12:32:09Z</time></trkpt><trkpt lat="44.61513448836723" lon="10.420575259195745"><ele>192.0</ele><time>2026-04-11T12:32:10Z</time></trkpt><trkpt lat="44.61504139319563" lon="10.420595034288938"><ele>192.8</ele><time>2026-04-11T12:32:11Z</time></trkpt><trkpt lat="44.61495033207292" lon="10.420601253390462"><ele>193.6</ele><time>2026-04-11T12:32:12Z</time></trkpt><trkpt lat="44.61485383612067" lon="10.420620197109749"><ele>194.4</ele><time>2026-04-11T12:32:13Z</time></trkpt><trkpt lat="44.614771029846885" lon="10.42063591602196"><ele>195.20000000000002</ele><time>2026-04-11T12:32:14Z</time></trkpt><trkpt lat="44.61466894040845" lon="10.420656206787385"><ele>196.0</ele><time>2026-04-11T12:32:15Z</time></trkpt><trkpt lat="44.61456863992089" lon="10.420693563428095"><ele>196.0</ele><time>2026-04-11T12:32:16Z</time></trkpt><trkpt lat="44.61447424675751" lon="10.420732402526497"><ele>196.0</ele><time>2026-04-11T12:32:17Z</time></trkpt><trkpt lat="44.614366489692536" lon="10.420768110027048"><ele>196.0</ele><time>2026-04-11T12:32:18Z</time></trkpt><trkpt lat="44.614249030493234" lon="10.42078732990865"><ele>196.0</ele><time>2026-04-11T12:32:19Z</time></trkpt><trkpt lat="44.614137530230664" lon="10.420813616291067"><ele>196.0</ele><time>2026-04-11T12:32:20Z</time></trkpt><trkpt lat="44.61403420499609" lon="10.420838664203549"><ele>196.0</ele><time>2026-04-11T12:32:21Z</time></trkpt><trkpt lat="44.61391223347696" lon="10.420870156634882"><ele>196.0</ele><time>2026-04-11T12:32:22Z</time></trkpt><trkpt lat="44.61377862399595" lon="10.42090533457347"><ele>196.0</ele><time>2026-04-11T12:32:23Z</time></trkpt><trkpt lat="44.61364505430371" lon="10.420941702264908"><ele>196.0</ele><time>2026-04-11T12:32:24Z</time></trkpt><trkpt lat="44.61351134871236" lon="10.420966544488213"><ele>196.60000000000002</ele><time>2026-04-11T12:32:25Z</time></trkpt><trkpt lat="44.613395444420554" lon="10.420999056219078"><ele>197.2</ele><time>2026-04-11T12:32:26Z</time></trkpt><trkpt lat="44.61328242128116" lon="10.421029862115969"><ele>197.8</ele><time>2026-04-11T12:32:27Z</time></trkpt><trkpt lat="44.61317609231194" lon="10.421063006182887"><ele>198.39999999999998</ele><time>2026-04-11T12:32:28Z</time></trkpt><trkpt lat="44.613074866280265" lon="10.421094679624368"><ele>199.0</ele><time>2026-04-11T12:32:29Z</time></trkpt><trkpt lat="44.612979801608994" lon="10.421123961723065"><ele>198.99999999999997</ele><time>2026-04-11T12:32:30Z</time></trkpt><trkpt lat="44.6129036594003" lon="10.42114815838613"><ele>199.0</ele><time>2026-04-11T12:32:31Z</time></trkpt><trkpt lat="44.61282555510158" lon="10.421153606094748"><ele>199.0</ele><time>2026-04-11T12:32:32Z</time></trkpt><trkpt lat="44.61274732954606" lon="10.421153212187074"><ele>199.0</ele><time>2026-04-11T12:32:33Z</time></trkpt><trkpt lat="44.612669665201054" lon="10.421153836147017"><ele>198.99999999999997</ele><time>2026-04-11T12:32:34Z</time></trkpt><trkpt lat="44.61260344905528" lon="10.421163687617979"><ele>199.0</ele><time>2026-04-11T12:32:35Z</time></trkpt><trkpt lat="44.61249705644206" lon="10.421184173843779"><ele>199.2</ele><time>2026-04-11T12:32:37Z</time></trkpt><trkpt lat="44.61240682964913" lon="10.421202611372337"><ele>199.39999999999998</ele><time>2026-04-11T12:32:38Z</time></trkpt><trkpt lat="44.612296402986466" lon="10.421210412200502"><ele>199.6</ele><time>2026-04-11T12:32:39Z</time></trkpt><trkpt lat="44.612180718104305" lon="10.421226307167403"><ele>199.8</ele><time>2026-04-11T12:32:39.999Z</time></trkpt><trkpt lat="44.61207262092053" lon="10.421240070640772"><ele>200.0</ele><time>2026-04-11T12:32:40.999Z</time></trkpt><trkpt lat="44.61197453181984" lon="10.421270137950076"><ele>200.75</ele><time>2026-04-11T12:32:41.999Z</time></trkpt><trkpt lat="44.61189708934988" lon="10.421289123009549"><ele>201.5</ele><time>2026-04-11T12:32:42.999Z</time></trkpt><trkpt lat="44.611813379362694" lon="10.421295038010744"><ele>202.25</ele><time>2026-04-11T12:32:43.999Z</time></trkpt><trkpt lat="44.611615353506686" lon="10.4212292053189"><ele>203.0</ele><time>2026-04-11T12:32:45.999Z</time></trkpt><trkpt lat="44.61151716470163" lon="10.421182622078202"><ele>203.0</ele><time>2026-04-11T12:32:46.999Z</time></trkpt><trkpt lat="44.61140950168228" lon="10.421138894847378"><ele>203.0</ele><time>2026-04-11T12:32:47.999Z</time></trkpt><trkpt lat="44.61130280092557" lon="10.42109972609206"><ele>203.0</ele><time>2026-04-11T12:32:48.999Z</time></trkpt><trkpt lat="44.61119781172916" lon="10.42105683216242"><ele>203.0</ele><time>2026-04-11T12:32:49.999Z</time></trkpt><trkpt lat="44.61109407052356" lon="10.42098640177781"><ele>203.0</ele><time>2026-04-11T12:32:50.999Z</time></trkpt><trkpt lat="44.61099736064265" lon="10.420901098108189"><ele>205.0</ele><time>2026-04-11T12:32:51.999Z</time></trkpt><trkpt lat="44.61089895457515" lon="10.420819381243883"><ele>207.0</ele><time>2026-04-11T12:32:52.999Z</time></trkpt><trkpt lat="44.61079994998112" lon="10.420722128100776"><ele>209.0</ele><time>2026-04-11T12:32:53.999Z</time></trkpt><trkpt lat="44.610711128775826" lon="10.420617853847093"><ele>211.0</ele><time>2026-04-11T12:32:54.999Z</time></trkpt><trkpt lat="44.610627703493336" lon="10.420516302340959"><ele>209.25</ele><time>2026-04-11T12:32:55.999Z</time></trkpt><trkpt lat="44.610541370680785" lon="10.42041751622742"><ele>207.5</ele><time>2026-04-11T12:32:56.999Z</time></trkpt><trkpt lat="44.610439237959525" lon="10.420314988213251"><ele>205.75</ele><time>2026-04-11T12:32:57.999Z</time></trkpt><trkpt lat="44.610320947952985" lon="10.420214998647442"><ele>204.0</ele><time>2026-04-11T12:32:58.999Z</time></trkpt><trkpt lat="44.61019679449563" lon="10.420134362433542"><ele>204.0</ele><time>2026-04-11T12:32:59.999Z</time></trkpt><trkpt lat="44.610071024251894" lon="10.42004594205924"><ele>204.0</ele><time>2026-04-11T12:33:00.999Z</time></trkpt><trkpt lat="44.609966507290444" lon="10.419953418513087"><ele>204.0</ele><time>2026-04-11T12:33:01.999Z</time></trkpt><trkpt lat="44.609859986194245" lon="10.419863120210872"><ele>204.0</ele><time>2026-04-11T12:33:02.999Z</time></trkpt><trkpt lat="44.60975338860999" lon="10.41976721429985"><ele>204.0</ele><time>2026-04-11T12:33:03.999Z</time></trkpt><trkpt lat="44.60965374558826" lon="10.419682963625428"><ele>204.0</ele><time>2026-04-11T12:33:04.999Z</time></trkpt><trkpt lat="44.60955518073008" lon="10.41961265821346"><ele>204.0</ele><time>2026-04-11T12:33:05.999Z</time></trkpt><trkpt lat="44.60945291601614" lon="10.419557559647638"><ele>204.0</ele><time>2026-04-11T12:33:06.999Z</time></trkpt><trkpt lat="44.60934693597795" lon="10.419496825815314"><ele>202.79999999999998</ele><time>2026-04-11T12:33:07.999Z</time></trkpt><trkpt lat="44.60924036395277" lon="10.419444881701416"><ele>201.6</ele><time>2026-04-11T12:33:08.999Z</time></trkpt><trkpt lat="44.60914590896741" lon="10.419387370404648"><ele>200.4</ele><time>2026-04-11T12:33:09.999Z</time></trkpt><trkpt lat="44.60906276850811" lon="10.419335569825453"><ele>199.2</ele><time>2026-04-11T12:33:10.999Z</time></trkpt><trkpt lat="44.60897583476464" lon="10.419276343267883"><ele>198.0</ele><time>2026-04-11T12:33:11.999Z</time></trkpt><trkpt lat="44.60888391455097" lon="10.419213330739911"><ele>198.0</ele><time>2026-04-11T12:33:12.999Z</time></trkpt><trkpt lat="44.6087851200035" lon="10.419152706358021"><ele>198.0</ele><time>2026-04-11T12:33:13.999Z</time></trkpt><trkpt lat="44.6086973831936" lon="10.419095617309894"><ele>198.0</ele><time>2026-04-11T12:33:14.999Z</time></trkpt><trkpt lat="44.60862884211835" lon="10.419049984466502"><ele>198.0</ele><time>2026-04-11T12:33:15.999Z</time></trkpt><trkpt lat="44.60855961391763" lon="10.41900247452086"><ele>198.0</ele><time>2026-04-11T12:33:16.999Z</time></trkpt><trkpt lat="44.608442780141985" lon="10.418923424342978"><ele>198.16666666666666</ele><time>2026-04-11T12:33:18.999Z</time></trkpt><trkpt lat="44.608384499972594" lon="10.418886376552617"><ele>198.33333333333331</ele><time>2026-04-11T12:33:19.999Z</time></trkpt><trkpt lat="44.60830346048383" lon="10.418839832977326"><ele>198.5</ele><time>2026-04-11T12:33:21.999Z</time></trkpt><trkpt lat="44.60822523621361" lon="10.418819106133183"><ele>198.66666666666666</ele><time>2026-04-11T12:33:24.999Z</time></trkpt><trkpt lat="44.60816251432257" lon="10.41875915596219"><ele>198.83333333333331</ele><time>2026-04-11T12:33:26.999Z</time></trkpt><trkpt lat="44.6080532124071" lon="10.418752778108919"><ele>199.0</ele><time>2026-04-11T12:33:28.999Z</time></trkpt><trkpt lat="44.60796681654324" lon="10.418781431136797"><ele>198.83333333333331</ele><time>2026-04-11T12:33:30.999Z</time></trkpt><trkpt lat="44.60786891416843" lon="10.418820753653778"><ele>198.66666666666666</ele><time>2026-04-11T12:33:33.999Z</time></trkpt><trkpt lat="44.6077755536829" lon="10.418847508220159"><ele>198.5</ele><time>2026-04-11T12:33:35.999Z</time></trkpt><trkpt lat="44.60771061684961" lon="10.418853277356334"><ele>198.33333333333331</ele><time>2026-04-11T12:33:36.999Z</time></trkpt><trkpt lat="44.60759313822432" lon="10.418853297873921"><ele>198.16666666666666</ele><time>2026-04-11T12:33:38.999Z</time></trkpt><trkpt lat="44.60752827369299" lon="10.418882505371391"><ele>198.0</ele><time>2026-04-11T12:33:40.999Z</time></trkpt><trkpt lat="44.60745483414819" lon="10.41886372444621"><ele>198.0</ele><time>2026-04-11T12:34:03Z</time></trkpt><trkpt lat="44.60739400703387" lon="10.418794418602085"><ele>198.0</ele><time>2026-04-11T12:34:05Z</time></trkpt><trkpt lat="44.607331880073495" lon="10.41872423308326"><ele>198.0</ele><time>2026-04-11T12:34:08Z</time></trkpt><trkpt lat="44.60725848679394" lon="10.418762322985415"><ele>198.0</ele><time>2026-04-11T12:34:11Z</time></trkpt><trkpt lat="44.60721132696578" lon="10.41885752806316"><ele>198.0</ele><time>2026-04-11T12:34:13Z</time></trkpt><trkpt lat="44.60716293419485" lon="10.418960840716835"><ele>198.0</ele><time>2026-04-11T12:34:15Z</time></trkpt><trkpt lat="44.607086223843176" lon="10.419017534491969"><ele>198.0</ele><time>2026-04-11T12:34:17Z</time></trkpt><trkpt lat="44.60700668953497" lon="10.419054048095395"><ele>198.0</ele><time>2026-04-11T12:34:19Z</time></trkpt><trkpt lat="44.60693870463256" lon="10.419023991231345"><ele>198.0</ele><time>2026-04-11T12:34:21Z</time></trkpt><trkpt lat="44.60690523776959" lon="10.418942251612657"><ele>198.0</ele><time>2026-04-11T12:34:51.999Z</time></trkpt><trkpt lat="44.606844415401746" lon="10.418917780708675"><ele>198.0</ele><time>2026-04-11T12:34:59.999Z</time></trkpt><trkpt lat="44.60676164576254" lon="10.41886998293228"><ele>198.0</ele><time>2026-04-11T12:35:02.999Z</time></trkpt><trkpt lat="44.60668927342807" lon="10.418885330763413"><ele>198.0</ele><time>2026-04-11T12:35:04.999Z</time></trkpt><trkpt lat="44.60662800598662" lon="10.418841502900905"><ele>198.2</ele><time>2026-04-11T12:35:06.999Z</time></trkpt><trkpt lat="44.60656907667494" lon="10.418787790802238"><ele>198.4</ele><time>2026-04-11T12:35:09.999Z</time></trkpt><trkpt lat="44.60652891351322" lon="10.41869469838404"><ele>198.6</ele><time>2026-04-11T12:35:11.999Z</time></trkpt><trkpt lat="44.60650075569998" lon="10.418559493005874"><ele>198.79999999999998</ele><time>2026-04-11T12:35:14.999Z</time></trkpt><trkpt lat="44.606548500667515" lon="10.418451577227472"><ele>199.0</ele><time>2026-04-11T12:35:15.999Z</time></trkpt><trkpt lat="44.606519849682805" lon="10.418275473726652"><ele>198.99999999999997</ele><time>2026-04-11T12:35:17.999Z</time></trkpt><trkpt lat="44.60650904130116" lon="10.41816571228606"><ele>199.0</ele><time>2026-04-11T12:35:18.999Z</time></trkpt><trkpt lat="44.60647702265132" lon="10.418083659022594"><ele>199.0</ele><time>2026-04-11T12:35:19.999Z</time></trkpt><trkpt lat="44.60639725457968" lon="10.417955138932788"><ele>199.0</ele><time>2026-04-11T12:35:21.999Z</time></trkpt><trkpt lat="44.606339510942206" lon="10.417906460127284"><ele>198.99999999999997</ele><time>2026-04-11T12:35:22.999Z</time></trkpt><trkpt lat="44.606276027732605" lon="10.417860498708524"><ele>199.0</ele><time>2026-04-11T12:35:23.999Z</time></trkpt><trkpt lat="44.60619770980256" lon="10.417823121920078"><ele>199.6</ele><time>2026-04-11T12:35:24.999Z</time></trkpt><trkpt lat="44.606113640908774" lon="10.417794549121181"><ele>200.2</ele><time>2026-04-11T12:35:25.999Z</time></trkpt><trkpt lat="44.60601754260866" lon="10.417766830603638"><ele>200.79999999999998</ele><time>2026-04-11T12:35:26.999Z</time></trkpt><trkpt lat="44.605911624914384" lon="10.417720568918284"><ele>201.39999999999998</ele><time>2026-04-11T12:35:27.999Z</time></trkpt><trkpt lat="44.605823225690514" lon="10.41768333712742"><ele>202.0</ele><time>2026-04-11T12:35:28.999Z</time></trkpt><trkpt lat="44.60575730462412" lon="10.41765835208064"><ele>202.0</ele><time>2026-04-11T12:35:29.999Z</time></trkpt><trkpt lat="44.60566254357507" lon="10.417567189015953"><ele>202.0</ele><time>2026-04-11T12:35:31.999Z</time></trkpt><trkpt lat="44.60559741507614" lon="10.417509951316687"><ele>202.0</ele><time>2026-04-11T12:35:32.999Z</time></trkpt><trkpt lat="44.605520224668545" lon="10.417500929983557"><ele>202.0</ele><time>2026-04-11T12:35:33.999Z</time></trkpt><trkpt lat="44.6054586060048" lon="10.417465227568941"><ele>202.0</ele><time>2026-04-11T12:35:34.999Z</time></trkpt><trkpt lat="44.60534226848582" lon="10.417461045007029"><ele>202.0</ele><time>2026-04-11T12:35:36.999Z</time></trkpt><trkpt lat="44.605214823690396" lon="10.417418997064695"><ele>202.0</ele><time>2026-04-11T12:35:38.999Z</time></trkpt><trkpt lat="44.60517921477634" lon="10.417324867399728"><ele>202.0</ele><time>2026-04-11T12:35:39.999Z</time></trkpt><trkpt lat="44.605099011667114" lon="10.41720414424976"><ele>202.0</ele><time>2026-04-11T12:35:41.999Z</time></trkpt><trkpt lat="44.605016626721635" lon="10.417045700040722"><ele>202.0</ele><time>2026-04-11T12:35:43.999Z</time></trkpt><trkpt lat="44.60498737792466" lon="10.416941753852063"><ele>202.0</ele><time>2026-04-11T12:35:44.999Z</time></trkpt><trkpt lat="44.6048526615305" lon="10.416912737375181"><ele>202.0</ele><time>2026-04-11T12:35:45.999Z</time></trkpt><trkpt lat="44.60476205957951" lon="10.416853086837138"><ele>202.0</ele><time>2026-04-11T12:35:46.999Z</time></trkpt><trkpt lat="44.604676422469055" lon="10.416775575835315"><ele>202.0</ele><time>2026-04-11T12:35:48Z</time></trkpt><trkpt lat="44.604587492275435" lon="10.41668993101163"><ele>202.0</ele><time>2026-04-11T12:35:49Z</time></trkpt><trkpt lat="44.604498255747984" lon="10.416601857994197"><ele>202.0</ele><time>2026-04-11T12:35:50Z</time></trkpt><trkpt lat="44.604407575403556" lon="10.416510891343675"><ele>202.0</ele><time>2026-04-11T12:35:51Z</time></trkpt><trkpt lat="44.604327974810126" lon="10.416427651229782"><ele>202.0</ele><time>2026-04-11T12:35:52Z</time></trkpt><trkpt lat="44.604255601506566" lon="10.416345124411633"><ele>202.0</ele><time>2026-04-11T12:35:53Z</time></trkpt><trkpt lat="44.60418817839166" lon="10.416259496416723"><ele>202.2</ele><time>2026-04-11T12:35:54Z</time></trkpt><trkpt lat="44.60411411773704" lon="10.416172074804452"><ele>202.39999999999998</ele><time>2026-04-11T12:35:55Z</time></trkpt><trkpt lat="44.60403751238128" lon="10.416079689187004"><ele>202.60000000000002</ele><time>2026-04-11T12:35:56Z</time></trkpt><trkpt lat="44.603955735366526" lon="10.415987595823431"><ele>202.8</ele><time>2026-04-11T12:35:57Z</time></trkpt><trkpt lat="44.603862881907006" lon="10.415896240968536"><ele>203.0</ele><time>2026-04-11T12:35:58Z</time></trkpt><trkpt lat="44.60376133270899" lon="10.415799713460299"><ele>203.25</ele><time>2026-04-11T12:35:59Z</time></trkpt><trkpt lat="44.60365819809465" lon="10.41571721842465"><ele>203.5</ele><time>2026-04-11T12:36:00Z</time></trkpt><trkpt lat="44.603561744752696" lon="10.415643168583516"><ele>203.75</ele><time>2026-04-11T12:36:01Z</time></trkpt><trkpt lat="44.603467261278766" lon="10.415575419932532"><ele>204.0</ele><time>2026-04-11T12:36:02Z</time></trkpt><trkpt lat="44.60327663943461" lon="10.415432898192988"><ele>204.0</ele><time>2026-04-11T12:36:04Z</time></trkpt><trkpt lat="44.6031842474403" lon="10.415333520941088"><ele>204.0</ele><time>2026-04-11T12:36:05Z</time></trkpt><trkpt lat="44.60307423828595" lon="10.415253986891605"><ele>204.0</ele><time>2026-04-11T12:36:06Z</time></trkpt><trkpt lat="44.60297507750473" lon="10.415142769389393"><ele>204.0</ele><time>2026-04-11T12:36:07Z</time></trkpt><trkpt lat="44.60287974652073" lon="10.415045001940719"><ele>204.5</ele><time>2026-04-11T12:36:08Z</time></trkpt><trkpt lat="44.60278380800793" lon="10.414960742736746"><ele>205.0</ele><time>2026-04-11T12:36:09Z</time></trkpt><trkpt lat="44.60268853420761" lon="10.414885492039712"><ele>205.5</ele><time>2026-04-11T12:36:10Z</time></trkpt><trkpt lat="44.602580803158496" lon="10.414824948866979"><ele>206.0</ele><time>2026-04-11T12:36:11Z</time></trkpt><trkpt lat="44.60247565130321" lon="10.414745254021973"><ele>206.0</ele><time>2026-04-11T12:36:12Z</time></trkpt><trkpt lat="44.6023630547208" lon="10.414679312293941"><ele>206.0</ele><time>2026-04-11T12:36:13Z</time></trkpt><trkpt lat="44.60224958958591" lon="10.414610778405056"><ele>206.0</ele><time>2026-04-11T12:36:14Z</time></trkpt><trkpt lat="44.602148275890045" lon="10.414548542403796"><ele>206.0</ele><time>2026-04-11T12:36:15Z</time></trkpt><trkpt lat="44.60206068020479" lon="10.41448039710994"><ele>205.66666666666669</ele><time>2026-04-11T12:36:16Z</time></trkpt><trkpt lat="44.6019890544067" lon="10.414408974457283"><ele>205.33333333333334</ele><time>2026-04-11T12:36:17Z</time></trkpt><trkpt lat="44.60192761389312" lon="10.414342773791176"><ele>205.0</ele><time>2026-04-11T12:36:18Z</time></trkpt><trkpt lat="44.6018661678751" lon="10.414273725566057"><ele>204.66666666666669</ele><time>2026-04-11T12:36:19Z</time></trkpt><trkpt lat="44.601806903446196" lon="10.414209695931305"><ele>204.33333333333334</ele><time>2026-04-11T12:36:20Z</time></trkpt><trkpt lat="44.601748321935744" lon="10.414148863343211"><ele>204.0</ele><time>2026-04-11T12:36:21Z</time></trkpt><trkpt lat="44.601688823077346" lon="10.414087078171647"><ele>204.0</ele><time>2026-04-11T12:36:22Z</time></trkpt><trkpt lat="44.60163053880188" lon="10.414025052315415"><ele>204.0</ele><time>2026-04-11T12:36:23Z</time></trkpt><trkpt lat="44.60157677457236" lon="10.413966510438918"><ele>204.0</ele><time>2026-04-11T12:36:24Z</time></trkpt><trkpt lat="44.601518500705524" lon="10.413903058138358"><ele>204.0</ele><time>2026-04-11T12:36:25Z</time></trkpt><trkpt lat="44.60146514825366" lon="10.413846937532487"><ele>204.0</ele><time>2026-04-11T12:36:26Z</time></trkpt><trkpt lat="44.60136773947732" lon="10.413758359455972"><ele>204.0</ele><time>2026-04-11T12:36:28Z</time></trkpt><trkpt lat="44.60131064703348" lon="10.413667079301037"><ele>203.5</ele><time>2026-04-11T12:36:30Z</time></trkpt><trkpt lat="44.60133839617297" lon="10.413569802777426"><ele>203.0</ele><time>2026-04-11T12:36:31Z</time></trkpt><trkpt lat="44.60140663189076" lon="10.413480040074946"><ele>202.5</ele><time>2026-04-11T12:36:32Z</time></trkpt><trkpt lat="44.60143962740235" lon="10.413367015534494"><ele>202.0</ele><time>2026-04-11T12:36:33Z</time></trkpt><trkpt lat="44.60148171911055" lon="10.413249999498534"><ele>201.5</ele><time>2026-04-11T12:36:34Z</time></trkpt><trkpt lat="44.60151446641871" lon="10.413148092599052"><ele>201.0</ele><time>2026-04-11T12:36:35Z</time></trkpt><trkpt lat="44.601551156803126" lon="10.41307419954231"><ele>201.0</ele><time>2026-04-11T12:36:36Z</time></trkpt><trkpt lat="44.60158575184705" lon="10.412999589394687"><ele>201.0</ele><time>2026-04-11T12:36:37Z</time></trkpt><trkpt lat="44.60161488944431" lon="10.4129110492482"><ele>201.0</ele><time>2026-04-11T12:36:38Z</time></trkpt><trkpt lat="44.60166663862206" lon="10.412770485782369"><ele>201.0</ele><time>2026-04-11T12:36:40Z</time></trkpt><trkpt lat="44.6017067870028" lon="10.412682992699441"><ele>201.0</ele><time>2026-04-11T12:36:42Z</time></trkpt><trkpt lat="44.60171201810073" lon="10.412579533872396"><ele>201.0</ele><time>2026-04-11T12:36:47Z</time></trkpt><trkpt lat="44.60151213522432" lon="10.412632201191126"><ele>200.4</ele><time>2026-04-11T12:36:48Z</time></trkpt><trkpt lat="44.60143513531893" lon="10.412652682181161"><ele>199.8</ele><time>2026-04-11T12:36:49Z</time></trkpt><trkpt lat="44.60136060799517" lon="10.412673132493735"><ele>199.20000000000002</ele><time>2026-04-11T12:36:50Z</time></trkpt><trkpt lat="44.60122489124621" lon="10.412706727889653"><ele>198.60000000000002</ele><time>2026-04-11T12:36:52Z</time></trkpt><trkpt lat="44.60113480681676" lon="10.412723942580689"><ele>198.0</ele><time>2026-04-11T12:36:53Z</time></trkpt><trkpt lat="44.60102725190997" lon="10.412732631514643"><ele>198.0</ele><time>2026-04-11T12:36:54Z</time></trkpt><trkpt lat="44.60093693813727" lon="10.412718435419416"><ele>198.0</ele><time>2026-04-11T12:36:55Z</time></trkpt><trkpt lat="44.60084815961892" lon="10.412677137867501"><ele>198.0</ele><time>2026-04-11T12:36:56Z</time></trkpt><trkpt lat="44.600753215352775" lon="10.412615398116023"><ele>198.0</ele><time>2026-04-11T12:36:57Z</time></trkpt><trkpt lat="44.60066399566097" lon="10.412542128789276"><ele>198.0</ele><time>2026-04-11T12:36:58Z</time></trkpt><trkpt lat="44.60058934778604" lon="10.412471259450582"><ele>198.0</ele><time>2026-04-11T12:36:59Z</time></trkpt><trkpt lat="44.600521173875144" lon="10.41242017367923"><ele>198.0</ele><time>2026-04-11T12:37:00Z</time></trkpt><trkpt lat="44.600444737749584" lon="10.412387820747142"><ele>198.0</ele><time>2026-04-11T12:37:01Z</time></trkpt><trkpt lat="44.600372131662056" lon="10.412352972939075"><ele>198.0</ele><time>2026-04-11T12:37:02Z</time></trkpt><trkpt lat="44.600314854269314" lon="10.412312135333393"><ele>198.0</ele><time>2026-04-11T12:37:03Z</time></trkpt><trkpt lat="44.60022825822944" lon="10.412193037300506"><ele>198.0</ele><time>2026-04-11T12:37:05Z</time></trkpt><trkpt lat="44.600176600499765" lon="10.412129927373963"><ele>198.5</ele><time>2026-04-11T12:37:06Z</time></trkpt><trkpt lat="44.600053112280015" lon="10.412123262008683"><ele>199.0</ele><time>2026-04-11T12:37:08Z</time></trkpt><trkpt lat="44.59999903956849" lon="10.412194957503184"><ele>199.5</ele><time>2026-04-11T12:37:09Z</time></trkpt><trkpt lat="44.5999775967805" lon="10.4122905887568"><ele>200.0</ele><time>2026-04-11T12:37:10Z</time></trkpt><trkpt lat="44.59998151317628" lon="10.412381642747842"><ele>200.5</ele><time>2026-04-11T12:37:11Z</time></trkpt><trkpt lat="44.600009001217934" lon="10.412504831605794"><ele>201.0</ele><time>2026-04-11T12:37:13Z</time></trkpt><trkpt lat="44.60007425359353" lon="10.41250513375924"><ele>201.16666666666666</ele><time>2026-04-11T12:37:58Z</time></trkpt><trkpt lat="44.60013775699977" lon="10.412518286051215"><ele>201.33333333333331</ele><time>2026-04-11T12:38:11Z</time></trkpt><trkpt lat="44.60007363993562" lon="10.412494143011905"><ele>201.5</ele><time>2026-04-11T12:38:33Z</time></trkpt><trkpt lat="44.60015947964969" lon="10.41246754173327"><ele>201.66666666666666</ele><time>2026-04-11T12:39:12Z</time></trkpt><trkpt lat="44.60021183137731" lon="10.412415095324885"><ele>201.83333333333331</ele><time>2026-04-11T12:39:14Z</time></trkpt><trkpt lat="44.600308013695404" lon="10.412347332066085"><ele>202.0</ele><time>2026-04-11T12:39:16Z</time></trkpt><trkpt lat="44.6004386694626" lon="10.4123923552169"><ele>201.33333333333331</ele><time>2026-04-11T12:39:18Z</time></trkpt><trkpt lat="44.60051394711282" lon="10.412440718779106"><ele>200.66666666666666</ele><time>2026-04-11T12:39:19Z</time></trkpt><trkpt lat="44.60058490340119" lon="10.412491867891504"><ele>200.0</ele><time>2026-04-11T12:39:20Z</time></trkpt><trkpt lat="44.60064918998531" lon="10.412553236946394"><ele>199.33333333333331</ele><time>2026-04-11T12:39:21Z</time></trkpt><trkpt lat="44.60072845212034" lon="10.412617120237567"><ele>198.66666666666666</ele><time>2026-04-11T12:39:22Z</time></trkpt><trkpt lat="44.60080335890538" lon="10.412682500126943"><ele>198.0</ele><time>2026-04-11T12:39:23Z</time></trkpt><trkpt lat="44.60088017239647" lon="10.412732913163556"><ele>198.0</ele><time>2026-04-11T12:39:24Z</time></trkpt><trkpt lat="44.600987706903645" lon="10.412759616313691"><ele>198.0</ele><time>2026-04-11T12:39:25Z</time></trkpt><trkpt lat="44.60110946044481" lon="10.412760910224872"><ele>198.0</ele><time>2026-04-11T12:39:26Z</time></trkpt><trkpt lat="44.60124073133701" lon="10.412731930016294"><ele>198.0</ele><time>2026-04-11T12:39:27Z</time></trkpt><trkpt lat="44.60137403215044" lon="10.412694086300053"><ele>197.5</ele><time>2026-04-11T12:39:28Z</time></trkpt><trkpt lat="44.60150862755768" lon="10.412656459090352"><ele>197.0</ele><time>2026-04-11T12:39:29Z</time></trkpt><trkpt lat="44.601636473901024" lon="10.412621982386117"><ele>196.5</ele><time>2026-04-11T12:39:30Z</time></trkpt><trkpt lat="44.60175728277911" lon="10.412599594929866"><ele>196.0</ele><time>2026-04-11T12:39:31Z</time></trkpt><trkpt lat="44.60187597955069" lon="10.41257795867832"><ele>196.0</ele><time>2026-04-11T12:39:32Z</time></trkpt><trkpt lat="44.60198465822051" lon="10.412564632771547"><ele>196.0</ele><time>2026-04-11T12:39:33Z</time></trkpt><trkpt lat="44.60209618335058" lon="10.412565111844627"><ele>196.0</ele><time>2026-04-11T12:39:34Z</time></trkpt><trkpt lat="44.60220860902093" lon="10.41257132272123"><ele>196.0</ele><time>2026-04-11T12:39:35Z</time></trkpt><trkpt lat="44.60232175486994" lon="10.41257156187874"><ele>196.0</ele><time>2026-04-11T12:39:36Z</time></trkpt><trkpt lat="44.60242887893464" lon="10.412572827234092"><ele>197.0</ele><time>2026-04-11T12:39:36.999Z</time></trkpt><trkpt lat="44.60253375756417" lon="10.41257292204893"><ele>198.0</ele><time>2026-04-11T12:39:37.999Z</time></trkpt><trkpt lat="44.60263842983494" lon="10.412580809679795"><ele>199.0</ele><time>2026-04-11T12:39:38.999Z</time></trkpt><trkpt lat="44.60274342924708" lon="10.412589474151345"><ele>200.0</ele><time>2026-04-11T12:39:39.999Z</time></trkpt><trkpt lat="44.602848886302425" lon="10.412600691569876"><ele>201.0</ele><time>2026-04-11T12:39:40.999Z</time></trkpt><trkpt lat="44.60295840881916" lon="10.412610930061444"><ele>201.5</ele><time>2026-04-11T12:39:41.999Z</time></trkpt><trkpt lat="44.60308172325327" lon="10.412617506674318"><ele>202.0</ele><time>2026-04-11T12:39:42.999Z</time></trkpt><trkpt lat="44.60321332021239" lon="10.412628980539614"><ele>202.5</ele><time>2026-04-11T12:39:43.999Z</time></trkpt><trkpt lat="44.603347368098575" lon="10.412645575549531"><ele>203.0</ele><time>2026-04-11T12:39:44.999Z</time></trkpt><trkpt lat="44.60348481748045" lon="10.412661964360128"><ele>203.0</ele><time>2026-04-11T12:39:45.999Z</time></trkpt><trkpt lat="44.60362486609127" lon="10.412676919596738"><ele>203.0</ele><time>2026-04-11T12:39:46.999Z</time></trkpt><trkpt lat="44.60375470693165" lon="10.412696739105193"><ele>203.0</ele><time>2026-04-11T12:39:47.999Z</time></trkpt><trkpt lat="44.603890697881866" lon="10.412722540409701"><ele>203.0</ele><time>2026-04-11T12:39:48.999Z</time></trkpt><trkpt lat="44.60401574047142" lon="10.412746575032903"><ele>202.25</ele><time>2026-04-11T12:39:49.999Z</time></trkpt><trkpt lat="44.604144096610256" lon="10.412772322034156"><ele>201.5</ele><time>2026-04-11T12:39:50.999Z</time></trkpt><trkpt lat="44.6042786475889" lon="10.412803406687415"><ele>200.75</ele><time>2026-04-11T12:39:51.999Z</time></trkpt><trkpt lat="44.6044161138929" lon="10.412841110994039"><ele>200.0</ele><time>2026-04-11T12:39:52.999Z</time></trkpt><trkpt lat="44.60456049827494" lon="10.412879180378747"><ele>199.75</ele><time>2026-04-11T12:39:53.999Z</time></trkpt><trkpt lat="44.60471015724228" lon="10.412920934389641"><ele>199.5</ele><time>2026-04-11T12:39:54.999Z</time></trkpt><trkpt lat="44.604857648841296" lon="10.41296320233221"><ele>199.25</ele><time>2026-04-11T12:39:55.999Z</time></trkpt><trkpt lat="44.60499809994361" lon="10.413005037755047"><ele>199.0</ele><time>2026-04-11T12:39:56.999Z</time></trkpt><trkpt lat="44.60513870301761" lon="10.413039449762273"><ele>199.0</ele><time>2026-04-11T12:39:57.999Z</time></trkpt><trkpt lat="44.605283668447214" lon="10.413076515651097"><ele>199.0</ele><time>2026-04-11T12:39:58.999Z</time></trkpt><trkpt lat="44.60542657548792" lon="10.413116327654103"><ele>199.0</ele><time>2026-04-11T12:40:00Z</time></trkpt><trkpt lat="44.6055646690949" lon="10.413150263761224"><ele>199.0</ele><time>2026-04-11T12:40:01Z</time></trkpt><trkpt lat="44.60569869616832" lon="10.41318364611431"><ele>199.0</ele><time>2026-04-11T12:40:02Z</time></trkpt><trkpt lat="44.60583083459316" lon="10.413225043562079"><ele>199.0</ele><time>2026-04-11T12:40:03Z</time></trkpt><trkpt lat="44.605960211767915" lon="10.413259422776786"><ele>199.0</ele><time>2026-04-11T12:40:04Z</time></trkpt><trkpt lat="44.606082608986924" lon="10.413293950530841"><ele>199.0</ele><time>2026-04-11T12:40:05Z</time></trkpt><trkpt lat="44.606192641661636" lon="10.41332760072073"><ele>198.6</ele><time>2026-04-11T12:40:06Z</time></trkpt><trkpt lat="44.60629483761237" lon="10.413366765789211"><ele>198.2</ele><time>2026-04-11T12:40:07Z</time></trkpt><trkpt lat="44.606390229694" lon="10.413399094848476"><ele>197.79999999999998</ele><time>2026-04-11T12:40:08Z</time></trkpt><trkpt lat="44.606481348257894" lon="10.41344965554287"><ele>197.39999999999998</ele><time>2026-04-11T12:40:09Z</time></trkpt><trkpt lat="44.60659167102214" lon="10.41352235262905"><ele>197.0</ele><time>2026-04-11T12:40:10Z</time></trkpt><trkpt lat="44.60670660461798" lon="10.413576057689813"><ele>197.00000000000003</ele><time>2026-04-11T12:40:11Z</time></trkpt><trkpt lat="44.60682629884928" lon="10.413527207517557"><ele>197.0</ele><time>2026-04-11T12:40:12Z</time></trkpt><trkpt lat="44.60692370706214" lon="10.413538487585619"><ele>197.0</ele><time>2026-04-11T12:40:13Z</time></trkpt><trkpt lat="44.606997567853305" lon="10.413564630633047"><ele>197.0</ele><time>2026-04-11T12:40:14Z</time></trkpt><trkpt lat="44.607060507909495" lon="10.41360760538777"><ele>197.00000000000003</ele><time>2026-04-11T12:40:15Z</time></trkpt><trkpt lat="44.60710374573458" lon="10.413672713333515"><ele>197.0</ele><time>2026-04-11T12:40:16Z</time></trkpt><trkpt lat="44.60716623154977" lon="10.413788030808083"><ele>196.66666666666669</ele><time>2026-04-11T12:40:18Z</time></trkpt><trkpt lat="44.607223556282" lon="10.41383981998729"><ele>196.33333333333334</ele><time>2026-04-11T12:40:20Z</time></trkpt><trkpt lat="44.60728614223095" lon="10.413735742392397"><ele>196.0</ele><time>2026-04-11T12:40:22Z</time></trkpt><trkpt lat="44.60726147978951" lon="10.413849425061349"><ele>195.66666666666669</ele><time>2026-04-11T12:40:24Z</time></trkpt><trkpt lat="44.607300150520615" lon="10.413924258479776"><ele>195.33333333333334</ele><time>2026-04-11T12:40:35Z</time></trkpt><trkpt lat="44.60735174779005" lon="10.413985922665299"><ele>195.0</ele><time>2026-04-11T12:50:45.001Z</time></trkpt><trkpt lat="44.60742562281837" lon="10.414003375038556"><ele>195.0</ele><time>2026-04-11T12:50:47Z</time></trkpt><trkpt lat="44.60748126727832" lon="10.41390646471826"><ele>195.0</ele><time>2026-04-11T12:50:49Z</time></trkpt><trkpt lat="44.60750300381252" lon="10.413797740151415"><ele>195.0</ele><time>2026-04-11T12:50:51Z</time></trkpt><trkpt lat="44.60743808533317" lon="10.413667819144461"><ele>195.0</ele><time>2026-04-11T12:50:58Z</time></trkpt><trkpt lat="44.60734694649929" lon="10.413645579943747"><ele>195.0</ele><time>2026-04-11T12:50:59Z</time></trkpt><trkpt lat="44.60723944351978" lon="10.41362056863325"><ele>195.0</ele><time>2026-04-11T12:51:00Z</time></trkpt><trkpt lat="44.60715844546084" lon="10.413587357176736"><ele>195.0</ele><time>2026-04-11T12:51:01Z</time></trkpt><trkpt lat="44.60707171364981" lon="10.413558832283744"><ele>195.0</ele><time>2026-04-11T12:51:02Z</time></trkpt><trkpt lat="44.60700088510036" lon="10.41354065364819"><ele>195.0</ele><time>2026-04-11T12:51:03Z</time></trkpt><trkpt lat="44.606930023483" lon="10.413520269487002"><ele>195.0</ele><time>2026-04-11T12:51:04Z</time></trkpt><trkpt lat="44.60687043834519" lon="10.41348374973095"><ele>195.0</ele><time>2026-04-11T12:51:05Z</time></trkpt><trkpt lat="44.606801785965295" lon="10.413414035460178"><ele>195.4</ele><time>2026-04-11T12:51:06Z</time></trkpt><trkpt lat="44.606737612153275" lon="10.413350437508235"><ele>195.8</ele><time>2026-04-11T12:51:07Z</time></trkpt><trkpt lat="44.606644663139846" lon="10.413292090716334"><ele>196.2</ele><time>2026-04-11T12:51:08Z</time></trkpt><trkpt lat="44.60653197607736" lon="10.41329752994577"><ele>196.6</ele><time>2026-04-11T12:51:09Z</time></trkpt><trkpt lat="44.60638438697669" lon="10.413341861886742"><ele>197.0</ele><time>2026-04-11T12:51:10Z</time></trkpt><trkpt lat="44.6062428091141" lon="10.413309288112584"><ele>197.66666666666669</ele><time>2026-04-11T12:51:11Z</time></trkpt><trkpt lat="44.60610896968686" lon="10.413287569261714"><ele>198.33333333333331</ele><time>2026-04-11T12:51:12Z</time></trkpt><trkpt lat="44.605954046368836" lon="10.413234487995723"><ele>199.0</ele><time>2026-04-11T12:51:13Z</time></trkpt><trkpt lat="44.60579521230436" lon="10.413189581579262"><ele>199.0</ele><time>2026-04-11T12:51:14Z</time></trkpt><trkpt lat="44.605645961481564" lon="10.413150343817453"><ele>199.0</ele><time>2026-04-11T12:51:15Z</time></trkpt><trkpt lat="44.60549877185313" lon="10.413111560010842"><ele>199.0</ele><time>2026-04-11T12:51:16Z</time></trkpt><trkpt lat="44.605345905216296" lon="10.413073557079406"><ele>199.0</ele><time>2026-04-11T12:51:17Z</time></trkpt><trkpt lat="44.60518994712445" lon="10.413027208938685"><ele>199.0</ele><time>2026-04-11T12:51:18Z</time></trkpt><trkpt lat="44.60503249726729" lon="10.412977439409389"><ele>199.0</ele><time>2026-04-11T12:51:19Z</time></trkpt><trkpt lat="44.604867928149595" lon="10.412930543530733"><ele>199.0</ele><time>2026-04-11T12:51:20Z</time></trkpt><trkpt lat="44.604705941841914" lon="10.41288331426277"><ele>199.0</ele><time>2026-04-11T12:51:21Z</time></trkpt><trkpt lat="44.60456308409178" lon="10.412847434244458"><ele>199.0</ele><time>2026-04-11T12:51:22Z</time></trkpt><trkpt lat="44.60443228207479" lon="10.412810980484672"><ele>199.0</ele><time>2026-04-11T12:51:22.999Z</time></trkpt><trkpt lat="44.6043116879337" lon="10.412773012301116"><ele>199.25</ele><time>2026-04-11T12:51:23.999Z</time></trkpt><trkpt lat="44.60420561581372" lon="10.412751069473877"><ele>199.5</ele><time>2026-04-11T12:51:24.999Z</time></trkpt><trkpt lat="44.604104747610585" lon="10.412726875285792"><ele>199.75</ele><time>2026-04-11T12:51:25.999Z</time></trkpt><trkpt lat="44.603989110013735" lon="10.412691706197"><ele>200.0</ele><time>2026-04-11T12:51:26.999Z</time></trkpt><trkpt lat="44.603856446466416" lon="10.412661517329656"><ele>200.0</ele><time>2026-04-11T12:51:27.999Z</time></trkpt><trkpt lat="44.603719218062466" lon="10.412639264576953"><ele>200.0</ele><time>2026-04-11T12:51:28.999Z</time></trkpt><trkpt lat="44.60356266963781" lon="10.412626190082912"><ele>200.0</ele><time>2026-04-11T12:51:29.999Z</time></trkpt><trkpt lat="44.60340665748844" lon="10.412604823860159"><ele>201.0</ele><time>2026-04-11T12:51:30.999Z</time></trkpt><trkpt lat="44.60323987789327" lon="10.412589007744076"><ele>202.0</ele><time>2026-04-11T12:51:31.999Z</time></trkpt><trkpt lat="44.60307850724268" lon="10.41257756968814"><ele>203.0</ele><time>2026-04-11T12:51:32.999Z</time></trkpt><trkpt lat="44.602925622738134" lon="10.412564705439259"><ele>202.5</ele><time>2026-04-11T12:51:33.999Z</time></trkpt><trkpt lat="44.60278057368702" lon="10.412554697353855"><ele>202.0</ele><time>2026-04-11T12:51:34.999Z</time></trkpt><trkpt lat="44.60263157698138" lon="10.412546480637918"><ele>201.5</ele><time>2026-04-11T12:51:35.999Z</time></trkpt><trkpt lat="44.60248598930722" lon="10.412539293843865"><ele>201.0</ele><time>2026-04-11T12:51:36.999Z</time></trkpt><trkpt lat="44.602336673452506" lon="10.412540355142003"><ele>201.0</ele><time>2026-04-11T12:51:37.999Z</time></trkpt><trkpt lat="44.60218779293297" lon="10.41255039190985"><ele>201.0</ele><time>2026-04-11T12:51:38.999Z</time></trkpt><trkpt lat="44.6020318603582" lon="10.412552172561913"><ele>201.0</ele><time>2026-04-11T12:51:39.999Z</time></trkpt><trkpt lat="44.60188506857103" lon="10.412553179110345"><ele>199.33333333333331</ele><time>2026-04-11T12:51:40.999Z</time></trkpt><trkpt lat="44.601744155858384" lon="10.412574727923829"><ele>197.66666666666666</ele><time>2026-04-11T12:51:41.999Z</time></trkpt><trkpt lat="44.6016056637888" lon="10.412606452884637"><ele>196.0</ele><time>2026-04-11T12:51:42.999Z</time></trkpt><trkpt lat="44.60134888193969" lon="10.412673828465458"><ele>196.0</ele><time>2026-04-11T12:51:44.999Z</time></trkpt><trkpt lat="44.6012282446119" lon="10.412705141790882"><ele>196.0</ele><time>2026-04-11T12:51:45.999Z</time></trkpt><trkpt lat="44.601106433375556" lon="10.412732700691118"><ele>196.0</ele><time>2026-04-11T12:51:46.999Z</time></trkpt><trkpt lat="44.60097494648251" lon="10.412742127835386"><ele>196.0</ele><time>2026-04-11T12:51:47.999Z</time></trkpt><trkpt lat="44.60084562617691" lon="10.412701255454586"><ele>196.5</ele><time>2026-04-11T12:51:48.999Z</time></trkpt><trkpt lat="44.60074056643995" lon="10.412587141473356"><ele>197.0</ele><time>2026-04-11T12:51:49.999Z</time></trkpt><trkpt lat="44.600633810521295" lon="10.412507184569698"><ele>197.5</ele><time>2026-04-11T12:51:50.999Z</time></trkpt><trkpt lat="44.600541186128694" lon="10.41242716734244"><ele>198.0</ele><time>2026-04-11T12:51:51.999Z</time></trkpt><trkpt lat="44.60045396146147" lon="10.412368519563639"><ele>198.0</ele><time>2026-04-11T12:51:52.999Z</time></trkpt><trkpt lat="44.600372387204686" lon="10.412323865268444"><ele>198.0</ele><time>2026-04-11T12:51:53.999Z</time></trkpt><trkpt lat="44.60026461016104" lon="10.412249055895561"><ele>198.0</ele><time>2026-04-11T12:51:55.999Z</time></trkpt><trkpt lat="44.60020967368291" lon="10.412169776404074"><ele>198.0</ele><time>2026-04-11T12:51:56.999Z</time></trkpt><trkpt lat="44.60012570812507" lon="10.412111509287055"><ele>198.0</ele><time>2026-04-11T12:51:57.999Z</time></trkpt><trkpt lat="44.60005241514504" lon="10.412125814950523"><ele>198.8</ele><time>2026-04-11T12:51:58.999Z</time></trkpt><trkpt lat="44.5999882386924" lon="10.412183563816495"><ele>199.60000000000002</ele><time>2026-04-11T12:51:59.999Z</time></trkpt><trkpt lat="44.599984947745284" lon="10.412329885634943"><ele>200.39999999999998</ele><time>2026-04-11T12:52:00.999Z</time></trkpt><trkpt lat="44.6000276763112" lon="10.412439175082321"><ele>201.2</ele><time>2026-04-11T12:52:01.999Z</time></trkpt><trkpt lat="44.600083356181635" lon="10.412508798724394"><ele>202.0</ele><time>2026-04-11T12:52:02.999Z</time></trkpt><trkpt lat="44.60010749935257" lon="10.412657271850602"><ele>201.99999999999997</ele><time>2026-04-11T12:52:04.999Z</time></trkpt><trkpt lat="44.6000538844145" lon="10.41273223106096"><ele>202.0</ele><time>2026-04-11T12:52:05.999Z</time></trkpt><trkpt lat="44.600008356465985" lon="10.412886573710228"><ele>202.0</ele><time>2026-04-11T12:52:07.999Z</time></trkpt><trkpt lat="44.59998449583956" lon="10.412979077194265"><ele>202.0</ele><time>2026-04-11T12:52:08.999Z</time></trkpt><trkpt lat="44.59995222136216" lon="10.413074838548146"><ele>201.99999999999997</ele><time>2026-04-11T12:52:09.999Z</time></trkpt><trkpt lat="44.59993226013556" lon="10.413172995957398"><ele>202.0</ele><time>2026-04-11T12:52:10.999Z</time></trkpt><trkpt lat="44.59990646948164" lon="10.413272290462102"><ele>201.83333333333331</ele><time>2026-04-11T12:52:11.999Z</time></trkpt><trkpt lat="44.59986761697503" lon="10.413375766542588"><ele>201.66666666666666</ele><time>2026-04-11T12:52:12.999Z</time></trkpt><trkpt lat="44.599856316369255" lon="10.413491168392401"><ele>201.5</ele><time>2026-04-11T12:52:13.999Z</time></trkpt><trkpt lat="44.599834032049344" lon="10.413589360992122"><ele>201.33333333333331</ele><time>2026-04-11T12:52:14.999Z</time></trkpt><trkpt lat="44.59981441199865" lon="10.413684017934257"><ele>201.16666666666666</ele><time>2026-04-11T12:52:15.999Z</time></trkpt><trkpt lat="44.59978449540324" lon="10.413840253676222"><ele>201.0</ele><time>2026-04-11T12:52:17.999Z</time></trkpt><trkpt lat="44.59975836062766" lon="10.413982605475335"><ele>201.0</ele><time>2026-04-11T12:52:19.998Z</time></trkpt><trkpt lat="44.59972673242752" lon="10.414151785467407"><ele>201.0</ele><time>2026-04-11T12:52:21.998Z</time></trkpt><trkpt lat="44.59970529643774" lon="10.41423650553124"><ele>201.0</ele><time>2026-04-11T12:52:22.998Z</time></trkpt><trkpt lat="44.599675082517095" lon="10.414315645251202"><ele>201.0</ele><time>2026-04-11T12:52:23.998Z</time></trkpt><trkpt lat="44.59962699884546" lon="10.414434302275504"><ele>201.0</ele><time>2026-04-11T12:52:25.998Z</time></trkpt><trkpt lat="44.599575871024555" lon="10.41453703011553"><ele>201.0</ele><time>2026-04-11T12:52:27.998Z</time></trkpt><trkpt lat="44.59956436859152" lon="10.41462396456615"><ele>200.8</ele><time>2026-04-11T12:52:29.998Z</time></trkpt><trkpt lat="44.59964589117044" lon="10.414739814369382"><ele>200.60000000000002</ele><time>2026-04-11T12:52:31.998Z</time></trkpt><trkpt lat="44.5997111385033" lon="10.414783803429446"><ele>200.4</ele><time>2026-04-11T12:52:32.998Z</time></trkpt><trkpt lat="44.599777297693066" lon="10.414843792205442"><ele>200.2</ele><time>2026-04-11T12:52:33.998Z</time></trkpt><trkpt lat="44.599835069434704" lon="10.414900246657496"><ele>200.0</ele><time>2026-04-11T12:52:34.998Z</time></trkpt><trkpt lat="44.59992807050032" lon="10.414992445358262"><ele>200.00000000000003</ele><time>2026-04-11T12:52:37Z</time></trkpt><trkpt lat="44.59998157833573" lon="10.415041539221"><ele>200.0</ele><time>2026-04-11T12:52:38Z</time></trkpt><trkpt lat="44.600067171766334" lon="10.415113975128584"><ele>200.0</ele><time>2026-04-11T12:52:40Z</time></trkpt><trkpt lat="44.60011930934285" lon="10.415184334795718"><ele>200.0</ele><time>2026-04-11T12:52:42Z</time></trkpt><trkpt lat="44.600067643030535" lon="10.41529435712918"><ele>200.00000000000003</ele><time>2026-04-11T12:52:43Z</time></trkpt><trkpt lat="44.600031309437774" lon="10.415396284667045"><ele>200.0</ele><time>2026-04-11T12:52:44Z</time></trkpt><trkpt lat="44.600001384898206" lon="10.41551979035002"><ele>199.6</ele><time>2026-04-11T12:52:45Z</time></trkpt><trkpt lat="44.59995465792916" lon="10.415639647439505"><ele>199.2</ele><time>2026-04-11T12:52:46Z</time></trkpt><trkpt lat="44.59988592639605" lon="10.415760092137779"><ele>198.8</ele><time>2026-04-11T12:52:47Z</time></trkpt><trkpt lat="44.59983033244507" lon="10.415894877041088"><ele>198.4</ele><time>2026-04-11T12:52:48Z</time></trkpt><trkpt lat="44.599778425352206" lon="10.416020723314361"><ele>198.0</ele><time>2026-04-11T12:52:49Z</time></trkpt><trkpt lat="44.59972227141323" lon="10.416156865988874"><ele>198.0</ele><time>2026-04-11T12:52:50Z</time></trkpt><trkpt lat="44.59966559930473" lon="10.416296805480346"><ele>198.0</ele><time>2026-04-11T12:52:51Z</time></trkpt><trkpt lat="44.59962425219362" lon="10.41644853026697"><ele>198.0</ele><time>2026-04-11T12:52:52Z</time></trkpt><trkpt lat="44.599565516764386" lon="10.416580907098274"><ele>198.0</ele><time>2026-04-11T12:52:53Z</time></trkpt><trkpt lat="44.599513364167585" lon="10.416706178564162"><ele>198.0</ele><time>2026-04-11T12:52:54Z</time></trkpt><trkpt lat="44.5994691424948" lon="10.416829997591991"><ele>198.60000000000002</ele><time>2026-04-11T12:52:55Z</time></trkpt><trkpt lat="44.59943342708543" lon="10.416954273266912"><ele>199.20000000000002</ele><time>2026-04-11T12:52:56Z</time></trkpt><trkpt lat="44.59939755507641" lon="10.417104358586414"><ele>199.8</ele><time>2026-04-11T12:52:57Z</time></trkpt><trkpt lat="44.59933986025282" lon="10.417226000164257"><ele>200.4</ele><time>2026-04-11T12:52:58Z</time></trkpt><trkpt lat="44.599309399267206" lon="10.417343721248324"><ele>201.0</ele><time>2026-04-11T12:52:59Z</time></trkpt><trkpt lat="44.59926376681439" lon="10.41742815716707"><ele>201.0</ele><time>2026-04-11T12:53:00Z</time></trkpt><trkpt lat="44.5992028108589" lon="10.417518452281932"><ele>201.0</ele><time>2026-04-11T12:53:02Z</time></trkpt><trkpt lat="44.59910121428927" lon="10.41761130495289"><ele>201.0</ele><time>2026-04-11T12:53:04Z</time></trkpt><trkpt lat="44.59900231829541" lon="10.417627864521403"><ele>201.0</ele><time>2026-04-11T12:53:05.999Z</time></trkpt><trkpt lat="44.598896645183196" lon="10.417648670230022"><ele>201.0</ele><time>2026-04-11T12:53:07.999Z</time></trkpt><trkpt lat="44.598822532607436" lon="10.41764758373916"><ele>201.0</ele><time>2026-04-11T12:53:08.999Z</time></trkpt><trkpt lat="44.59873262324474" lon="10.41764464642732"><ele>201.0</ele><time>2026-04-11T12:53:09.999Z</time></trkpt><trkpt lat="44.59863127464714" lon="10.417648285665233"><ele>201.0</ele><time>2026-04-11T12:53:10.999Z</time></trkpt><trkpt lat="44.59853806781055" lon="10.417684417662523"><ele>201.0</ele><time>2026-04-11T12:53:11.999Z</time></trkpt><trkpt lat="44.59845109211996" lon="10.4177135502747"><ele>201.0</ele><time>2026-04-11T12:53:12.999Z</time></trkpt><trkpt lat="44.59837513498667" lon="10.417759809295724"><ele>201.4</ele><time>2026-04-11T12:53:13.999Z</time></trkpt><trkpt lat="44.598297078564045" lon="10.417819355851664"><ele>201.8</ele><time>2026-04-11T12:53:14.999Z</time></trkpt><trkpt lat="44.59822150291517" lon="10.417884755817248"><ele>202.20000000000002</ele><time>2026-04-11T12:53:15.999Z</time></trkpt><trkpt lat="44.59815708825463" lon="10.417922869323336"><ele>202.60000000000002</ele><time>2026-04-11T12:53:16.999Z</time></trkpt><trkpt lat="44.59807030738666" lon="10.417998502770224"><ele>203.0</ele><time>2026-04-11T12:53:18.999Z</time></trkpt><trkpt lat="44.59796758814227" lon="10.41812327971959"><ele>203.33333333333334</ele><time>2026-04-11T12:53:20.999Z</time></trkpt><trkpt lat="44.59793273401356" lon="10.418207263592219"><ele>203.66666666666669</ele><time>2026-04-11T12:53:21.999Z</time></trkpt><trkpt lat="44.597895909001835" lon="10.418304738319023"><ele>204.0</ele><time>2026-04-11T12:53:22.999Z</time></trkpt><trkpt lat="44.59786892142575" lon="10.418405671072357"><ele>204.33333333333331</ele><time>2026-04-11T12:53:23.999Z</time></trkpt><trkpt lat="44.59785829353218" lon="10.418504372492638"><ele>204.66666666666666</ele><time>2026-04-11T12:53:24.999Z</time></trkpt><trkpt lat="44.59785374132018" lon="10.418615222775962"><ele>205.0</ele><time>2026-04-11T12:53:25.999Z</time></trkpt><trkpt lat="44.59784405323306" lon="10.41873553351687"><ele>205.66666666666666</ele><time>2026-04-11T12:53:26.999Z</time></trkpt><trkpt lat="44.597825922165555" lon="10.418851730861947"><ele>206.33333333333331</ele><time>2026-04-11T12:53:27.999Z</time></trkpt><trkpt lat="44.59781500997743" lon="10.418954841809605"><ele>207.0</ele><time>2026-04-11T12:53:28.999Z</time></trkpt><trkpt lat="44.597797706116296" lon="10.419042458435475"><ele>207.66666666666669</ele><time>2026-04-11T12:53:29.999Z</time></trkpt><trkpt lat="44.59777976479371" lon="10.419140028849132"><ele>208.33333333333334</ele><time>2026-04-11T12:53:30.999Z</time></trkpt><trkpt lat="44.59775618056106" lon="10.419250305739999"><ele>209.0</ele><time>2026-04-11T12:53:31.999Z</time></trkpt><trkpt lat="44.59773173628231" lon="10.419373753193652"><ele>209.0</ele><time>2026-04-11T12:53:32.999Z</time></trkpt><trkpt lat="44.59771783746749" lon="10.419485197353083"><ele>209.0</ele><time>2026-04-11T12:53:33.999Z</time></trkpt><trkpt lat="44.59770798479165" lon="10.419587829026396"><ele>209.0</ele><time>2026-04-11T12:53:34.999Z</time></trkpt><trkpt lat="44.597703392886764" lon="10.419680668819602"><ele>209.0</ele><time>2026-04-11T12:53:35.999Z</time></trkpt><trkpt lat="44.597691114458" lon="10.41977023805837"><ele>209.0</ele><time>2026-04-11T12:53:36.999Z</time></trkpt><trkpt lat="44.59767779914232" lon="10.419866670151475"><ele>209.0</ele><time>2026-04-11T12:53:37.999Z</time></trkpt><trkpt lat="44.59765936109868" lon="10.419963657189852"><ele>209.0</ele><time>2026-04-11T12:53:38.999Z</time></trkpt><trkpt lat="44.59762898633727" lon="10.420093367259893"><ele>209.0</ele><time>2026-04-11T12:53:39.999Z</time></trkpt><trkpt lat="44.59758566957345" lon="10.420222634424166"><ele>209.0</ele><time>2026-04-11T12:53:40.999Z</time></trkpt><trkpt lat="44.597534965933264" lon="10.420337905921553"><ele>209.0</ele><time>2026-04-11T12:53:41.999Z</time></trkpt><trkpt lat="44.597481649889566" lon="10.42044953913297"><ele>209.0</ele><time>2026-04-11T12:53:42.999Z</time></trkpt><trkpt lat="44.59742950379177" lon="10.420561636187907"><ele>209.0</ele><time>2026-04-11T12:53:43.999Z</time></trkpt><trkpt lat="44.5973816047439" lon="10.420654054245821"><ele>209.16666666666669</ele><time>2026-04-11T12:53:44.999Z</time></trkpt><trkpt lat="44.59732974688486" lon="10.420747832071614"><ele>209.33333333333334</ele><time>2026-04-11T12:53:45.999Z</time></trkpt><trkpt lat="44.597261714542476" lon="10.42083916068204"><ele>209.5</ele><time>2026-04-11T12:53:46.999Z</time></trkpt><trkpt lat="44.59718846699743" lon="10.420905731763051"><ele>209.66666666666669</ele><time>2026-04-11T12:53:47.999Z</time></trkpt><trkpt lat="44.5971133631105" lon="10.420966884025876"><ele>209.83333333333334</ele><time>2026-04-11T12:53:48.999Z</time></trkpt><trkpt lat="44.597042537002444" lon="10.421023420205806"><ele>210.0</ele><time>2026-04-11T12:53:49.999Z</time></trkpt><trkpt lat="44.59694264487317" lon="10.42108196910819"><ele>210.33333333333334</ele><time>2026-04-11T12:53:51.999Z</time></trkpt><trkpt lat="44.59686990756101" lon="10.4211230274221"><ele>210.66666666666669</ele><time>2026-04-11T12:53:53.999Z</time></trkpt><trkpt lat="44.59680027699078" lon="10.421154750615402"><ele>211.0</ele><time>2026-04-11T12:53:55.999Z</time></trkpt><trkpt lat="44.596699909625016" lon="10.421183543725643"><ele>211.33333333333334</ele><time>2026-04-11T12:53:57.999Z</time></trkpt><trkpt lat="44.596625907683894" lon="10.421197970304952"><ele>211.66666666666669</ele><time>2026-04-11T12:53:58.999Z</time></trkpt><trkpt lat="44.596537552921916" lon="10.421216944899244"><ele>212.0</ele><time>2026-04-11T12:53:59.999Z</time></trkpt><trkpt lat="44.59646555129536" lon="10.421238643777725"><ele>212.00000000000003</ele><time>2026-04-11T12:54:00.999Z</time></trkpt><trkpt lat="44.596384846985714" lon="10.421266817452976"><ele>212.0</ele><time>2026-04-11T12:54:01.999Z</time></trkpt><trkpt lat="44.59629209747087" lon="10.421318621493283"><ele>212.0</ele><time>2026-04-11T12:54:02.999Z</time></trkpt><trkpt lat="44.5962231819739" lon="10.421385291153209"><ele>212.0</ele><time>2026-04-11T12:54:03.999Z</time></trkpt><trkpt lat="44.596149982937234" lon="10.42144844794851"><ele>212.00000000000003</ele><time>2026-04-11T12:54:04.999Z</time></trkpt><trkpt lat="44.59610945242022" lon="10.421551760901227"><ele>212.0</ele><time>2026-04-11T12:54:05.999Z</time></trkpt><trkpt lat="44.59605710100381" lon="10.42165386472148"><ele>213.2</ele><time>2026-04-11T12:54:06.999Z</time></trkpt><trkpt lat="44.59601176455568" lon="10.421748051225535"><ele>214.39999999999998</ele><time>2026-04-11T12:54:07.999Z</time></trkpt><trkpt lat="44.59597378434641" lon="10.421887843319643"><ele>215.60000000000002</ele><time>2026-04-11T12:54:09.998Z</time></trkpt><trkpt lat="44.59596667784648" lon="10.421977998174974"><ele>216.8</ele><time>2026-04-11T12:54:12.998Z</time></trkpt><trkpt lat="44.59581475846607" lon="10.422032320031864"><ele>218.0</ele><time>2026-04-11T12:54:21.998Z</time></trkpt><trkpt lat="44.59574718990796" lon="10.42207743254136"><ele>218.00000000000003</ele><time>2026-04-11T12:54:22.998Z</time></trkpt><trkpt lat="44.59567595114118" lon="10.422141368902647"><ele>218.0</ele><time>2026-04-11T12:54:23.998Z</time></trkpt><trkpt lat="44.59559604820037" lon="10.422189369129274"><ele>218.0</ele><time>2026-04-11T12:54:24.998Z</time></trkpt><trkpt lat="44.59552954434888" lon="10.422209501031269"><ele>218.0</ele><time>2026-04-11T12:54:25.998Z</time></trkpt><trkpt lat="44.59542606844785" lon="10.422246207762933"><ele>218.00000000000003</ele><time>2026-04-11T12:54:27.998Z</time></trkpt><trkpt lat="44.595328245853146" lon="10.422288231284135"><ele>218.0</ele><time>2026-04-11T12:54:29.998Z</time></trkpt><trkpt lat="44.59526530808846" lon="10.422334718976577"><ele>217.33333333333334</ele><time>2026-04-11T12:54:43.999Z</time></trkpt><trkpt lat="44.59532757417729" lon="10.422434574363729"><ele>216.66666666666669</ele><time>2026-04-11T12:55:35.999Z</time></trkpt><trkpt lat="44.595380684108754" lon="10.422512756416207"><ele>216.0</ele><time>2026-04-11T12:55:37.999Z</time></trkpt><trkpt lat="44.595327459625665" lon="10.422607176911084"><ele>215.33333333333331</ele><time>2026-04-11T12:55:40.999Z</time></trkpt><trkpt lat="44.595219403218735" lon="10.422558319708406"><ele>214.66666666666666</ele><time>2026-04-11T12:55:41.999Z</time></trkpt><trkpt lat="44.59517264575459" lon="10.422645923613109"><ele>214.0</ele><time>2026-04-11T12:55:43.999Z</time></trkpt><trkpt lat="44.59516525218273" lon="10.422751890878873"><ele>215.66666666666666</ele><time>2026-04-11T12:55:44.999Z</time></trkpt><trkpt lat="44.59516181925164" lon="10.422842399611444"><ele>217.33333333333331</ele><time>2026-04-11T12:55:45.999Z</time></trkpt><trkpt lat="44.59511272309047" lon="10.422984487267737"><ele>219.0</ele><time>2026-04-11T12:55:47.999Z</time></trkpt><trkpt lat="44.595085573887836" lon="10.423081235844307"><ele>220.66666666666669</ele><time>2026-04-11T12:55:48.999Z</time></trkpt><trkpt lat="44.59503093760243" lon="10.42316576109824"><ele>222.33333333333334</ele><time>2026-04-11T12:55:49.999Z</time></trkpt><trkpt lat="44.594962383525015" lon="10.423204391289342"><ele>224.0</ele><time>2026-04-11T12:55:50.999Z</time></trkpt><trkpt lat="44.5948527485767" lon="10.423294457198862"><ele>225.39999999999998</ele><time>2026-04-11T12:55:52.999Z</time></trkpt><trkpt lat="44.59478082759967" lon="10.42334431520013"><ele>226.79999999999998</ele><time>2026-04-11T12:55:53.999Z</time></trkpt><trkpt lat="44.594671907350126" lon="10.423418039117184"><ele>228.20000000000002</ele><time>2026-04-11T12:55:55.999Z</time></trkpt><trkpt lat="44.59460226751265" lon="10.423441325327783"><ele>229.60000000000002</ele><time>2026-04-11T12:55:57.999Z</time></trkpt><trkpt lat="44.59448919739003" lon="10.423512577523699"><ele>231.0</ele><time>2026-04-11T12:55:59.999Z</time></trkpt><trkpt lat="44.59440131199528" lon="10.423614043044159"><ele>233.5</ele><time>2026-04-11T12:56:01.999Z</time></trkpt><trkpt lat="44.594272409506026" lon="10.423658298830322"><ele>236.0</ele><time>2026-04-11T12:56:03.999Z</time></trkpt><trkpt lat="44.59420263809746" lon="10.423697899422752"><ele>238.5</ele><time>2026-04-11T12:56:04.999Z</time></trkpt><trkpt lat="44.594129547012756" lon="10.423743729576577"><ele>241.0</ele><time>2026-04-11T12:56:05.999Z</time></trkpt><trkpt lat="44.59406692802036" lon="10.423790152783067"><ele>243.5</ele><time>2026-04-11T12:56:06.999Z</time></trkpt><trkpt lat="44.59401360476299" lon="10.423853075152564"><ele>246.0</ele><time>2026-04-11T12:56:07.999Z</time></trkpt><trkpt lat="44.59395132508187" lon="10.423894690203984"><ele>248.16666666666666</ele><time>2026-04-11T12:56:08.999Z</time></trkpt><trkpt lat="44.59389103614475" lon="10.42394095843797"><ele>250.33333333333331</ele><time>2026-04-11T12:56:09.999Z</time></trkpt><trkpt lat="44.59382726784342" lon="10.423989571153058"><ele>252.5</ele><time>2026-04-11T12:56:10.998Z</time></trkpt><trkpt lat="44.59376792830796" lon="10.424035709155527"><ele>254.66666666666666</ele><time>2026-04-11T12:56:11.998Z</time></trkpt><trkpt lat="44.593708117146114" lon="10.424087973992263"><ele>256.8333333333333</ele><time>2026-04-11T12:56:12.998Z</time></trkpt><trkpt lat="44.59361454396164" lon="10.424189500716553"><ele>259.0</ele><time>2026-04-11T12:56:14.998Z</time></trkpt><trkpt lat="44.59356585300295" lon="10.424253342153811"><ele>260.14285714285717</ele><time>2026-04-11T12:56:15.998Z</time></trkpt><trkpt lat="44.59351086964009" lon="10.424309671530915"><ele>261.2857142857143</ele><time>2026-04-11T12:56:16.998Z</time></trkpt><trkpt lat="44.59344041789126" lon="10.424344295797916"><ele>262.42857142857144</ele><time>2026-04-11T12:56:17.998Z</time></trkpt><trkpt lat="44.59337494407371" lon="10.424382832092007"><ele>263.57142857142856</ele><time>2026-04-11T12:56:18.998Z</time></trkpt><trkpt lat="44.59331068311654" lon="10.424421651232196"><ele>264.7142857142857</ele><time>2026-04-11T12:56:19.998Z</time></trkpt><trkpt lat="44.59324196226827" lon="10.424452563845128"><ele>265.8571428571429</ele><time>2026-04-11T12:56:20.998Z</time></trkpt><trkpt lat="44.593179472049094" lon="10.424477892960127"><ele>267.0</ele><time>2026-04-11T12:56:21.998Z</time></trkpt><trkpt lat="44.59311215264201" lon="10.424490981818746"><ele>267.0</ele><time>2026-04-11T12:56:22.998Z</time></trkpt><trkpt lat="44.59299248260769" lon="10.424497269235575"><ele>267.0</ele><time>2026-04-11T12:56:24.998Z</time></trkpt><trkpt lat="44.59288117600517" lon="10.424578357009494"><ele>267.0</ele><time>2026-04-11T12:56:26.998Z</time></trkpt><trkpt lat="44.592840451790906" lon="10.424652517066317"><ele>267.0</ele><time>2026-04-11T12:56:27.998Z</time></trkpt><trkpt lat="44.5927875745548" lon="10.424718351742754"><ele>267.0</ele><time>2026-04-11T12:56:28.998Z</time></trkpt><trkpt lat="44.59271878867252" lon="10.424765006106588"><ele>270.4</ele><time>2026-04-11T12:56:29.998Z</time></trkpt><trkpt lat="44.59265115899064" lon="10.42481236471964"><ele>273.79999999999995</ele><time>2026-04-11T12:56:30.998Z</time></trkpt><trkpt lat="44.59259704816944" lon="10.424868612745417"><ele>277.2</ele><time>2026-04-11T12:56:31.998Z</time></trkpt><trkpt lat="44.59248836527936" lon="10.424915517711888"><ele>280.59999999999997</ele><time>2026-04-11T12:56:33.998Z</time></trkpt><trkpt lat="44.59235557541203" lon="10.424918985633727"><ele>284.0</ele><time>2026-04-11T12:56:35.998Z</time></trkpt><trkpt lat="44.592280855203484" lon="10.424949955790986"><ele>284.0</ele><time>2026-04-11T12:56:36.998Z</time></trkpt><trkpt lat="44.59220961583466" lon="10.424945822903865"><ele>284.0</ele><time>2026-04-11T12:56:37.998Z</time></trkpt><trkpt lat="44.59214381478227" lon="10.42495765944115"><ele>284.0</ele><time>2026-04-11T12:56:38.998Z</time></trkpt><trkpt lat="44.59206362127441" lon="10.424962431893132"><ele>284.0</ele><time>2026-04-11T12:56:39.998Z</time></trkpt><trkpt lat="44.59198962547165" lon="10.424992411930093"><ele>284.0</ele><time>2026-04-11T12:56:40.998Z</time></trkpt><trkpt lat="44.591924080392076" lon="10.425018353733108"><ele>284.0</ele><time>2026-04-11T12:56:41.998Z</time></trkpt><trkpt lat="44.59184381847646" lon="10.42504778833635"><ele>284.0</ele><time>2026-04-11T12:56:42.998Z</time></trkpt><trkpt lat="44.59177440424145" lon="10.425052001988485"><ele>285.7142857142857</ele><time>2026-04-11T12:56:43.998Z</time></trkpt><trkpt lat="44.59169600646991" lon="10.425077176671616"><ele>287.4285714285714</ele><time>2026-04-11T12:56:44.998Z</time></trkpt><trkpt lat="44.591617076445644" lon="10.425089635226518"><ele>289.1428571428571</ele><time>2026-04-11T12:56:45.998Z</time></trkpt><trkpt lat="44.59154951135395" lon="10.425096503538239"><ele>290.85714285714283</ele><time>2026-04-11T12:56:46.998Z</time></trkpt><trkpt lat="44.59148162617047" lon="10.42510137009487"><ele>292.57142857142856</ele><time>2026-04-11T12:56:47.999Z</time></trkpt><trkpt lat="44.59140728801021" lon="10.425113509310304"><ele>294.2857142857143</ele><time>2026-04-11T12:56:48.999Z</time></trkpt><trkpt lat="44.591335762055074" lon="10.425127922142067"><ele>296.0</ele><time>2026-04-11T12:56:49.999Z</time></trkpt><trkpt lat="44.59126037116183" lon="10.425131316015888"><ele>296.0</ele><time>2026-04-11T12:56:50.999Z</time></trkpt><trkpt lat="44.59119141015076" lon="10.425138383502992"><ele>296.0</ele><time>2026-04-11T12:56:51.999Z</time></trkpt><trkpt lat="44.591131596682914" lon="10.425186160306998"><ele>296.0</ele><time>2026-04-11T12:56:52.999Z</time></trkpt><trkpt lat="44.59104693328701" lon="10.425194946109112"><ele>296.0</ele><time>2026-04-11T12:56:53.999Z</time></trkpt><trkpt lat="44.590983860661986" lon="10.425217775066528"><ele>296.0</ele><time>2026-04-11T12:56:54.999Z</time></trkpt><trkpt lat="44.59086981969037" lon="10.425278413771522"><ele>296.0</ele><time>2026-04-11T12:56:56.999Z</time></trkpt><trkpt lat="44.59080653552235" lon="10.425322269030401"><ele>299.0</ele><time>2026-04-11T12:56:57.999Z</time></trkpt><trkpt lat="44.590690692722774" lon="10.425408812302754"><ele>302.0</ele><time>2026-04-11T12:56:59.999Z</time></trkpt><trkpt lat="44.590625343170515" lon="10.425444751565449"><ele>305.0</ele><time>2026-04-11T12:57:00.999Z</time></trkpt><trkpt lat="44.59056690010113" lon="10.425485434660118"><ele>308.0</ele><time>2026-04-11T12:57:01.999Z</time></trkpt><trkpt lat="44.59048817125425" lon="10.425482658769269"><ele>311.0</ele><time>2026-04-11T12:57:02.999Z</time></trkpt><trkpt lat="44.59037547988832" lon="10.425531428774509"><ele>314.33333333333337</ele><time>2026-04-11T12:57:04.999Z</time></trkpt><trkpt lat="44.59027070915765" lon="10.425596660742945"><ele>317.6666666666667</ele><time>2026-04-11T12:57:06.999Z</time></trkpt><trkpt lat="44.59021068894978" lon="10.425639112437727"><ele>321.0</ele><time>2026-04-11T12:57:07.999Z</time></trkpt><trkpt lat="44.59014406111502" lon="10.425691952181626"><ele>324.3333333333333</ele><time>2026-04-11T12:57:08.999Z</time></trkpt><trkpt lat="44.590042098034615" lon="10.425749323622847"><ele>327.66666666666663</ele><time>2026-04-11T12:57:10.999Z</time></trkpt><trkpt lat="44.58997148471631" lon="10.425805079251552"><ele>331.0</ele><time>2026-04-11T12:57:13.999Z</time></trkpt><trkpt lat="44.589900307138215" lon="10.425934945155644"><ele>331.0</ele><time>2026-04-11T12:57:15.999Z</time></trkpt><trkpt lat="44.589799130249105" lon="10.426042383696686"><ele>331.0</ele><time>2026-04-11T12:57:17.999Z</time></trkpt><trkpt lat="44.589737276468874" lon="10.426086373757084"><ele>331.0</ele><time>2026-04-11T12:57:18.999Z</time></trkpt><trkpt lat="44.58961864200306" lon="10.4261171589215"><ele>331.0</ele><time>2026-04-11T12:57:20.999Z</time></trkpt><trkpt lat="44.58951139985389" lon="10.426061164906029"><ele>331.0</ele><time>2026-04-11T12:57:22.999Z</time></trkpt><trkpt lat="44.589398993995076" lon="10.426065462094236"><ele>333.4</ele><time>2026-04-11T12:57:24.999Z</time></trkpt><trkpt lat="44.58930604983811" lon="10.426114392967314"><ele>335.8</ele><time>2026-04-11T12:57:26.999Z</time></trkpt><trkpt lat="44.58923302612817" lon="10.426159810276378"><ele>338.2</ele><time>2026-04-11T12:57:28.999Z</time></trkpt><trkpt lat="44.58913003916308" lon="10.426146821297136"><ele>340.59999999999997</ele><time>2026-04-11T12:57:31.999Z</time></trkpt><trkpt lat="44.58903372844498" lon="10.426071531036248"><ele>343.0</ele><time>2026-04-11T12:57:33.999Z</time></trkpt><trkpt lat="44.588932179064265" lon="10.426053152215808"><ele>343.0</ele><time>2026-04-11T12:57:35.999Z</time></trkpt><trkpt lat="44.58882136450122" lon="10.426029870982545"><ele>343.0</ele><time>2026-04-11T12:57:37.999Z</time></trkpt><trkpt lat="44.58872810867984" lon="10.426017981446734"><ele>343.0</ele><time>2026-04-11T12:57:39.999Z</time></trkpt><trkpt lat="44.588628242311636" lon="10.426001481252694"><ele>343.0</ele><time>2026-04-11T12:57:41.999Z</time></trkpt><trkpt lat="44.588544075007526" lon="10.425974145754255"><ele>343.0</ele><time>2026-04-11T12:57:44.999Z</time></trkpt><trkpt lat="44.58848124509354" lon="10.42595404523283"><ele>344.3333333333333</ele><time>2026-04-11T12:57:48.999Z</time></trkpt><trkpt lat="44.58837185115123" lon="10.425896113246148"><ele>345.66666666666663</ele><time>2026-04-11T12:58:42.999Z</time></trkpt><trkpt lat="44.588300935327915" lon="10.425862363991373"><ele>347.0</ele><time>2026-04-11T12:58:43.999Z</time></trkpt><trkpt lat="44.58823531293568" lon="10.425857118736529"><ele>348.3333333333333</ele><time>2026-04-11T12:58:44.999Z</time></trkpt><trkpt lat="44.58815401637839" lon="10.42583473980034"><ele>349.6666666666667</ele><time>2026-04-11T12:58:45.999Z</time></trkpt><trkpt lat="44.58805472145572" lon="10.425795534260134"><ele>351.0</ele><time>2026-04-11T12:58:46.999Z</time></trkpt><trkpt lat="44.58795577125772" lon="10.42576927437516"><ele>351.0</ele><time>2026-04-11T12:58:47.999Z</time></trkpt><trkpt lat="44.58786253003783" lon="10.425771788663122"><ele>351.0</ele><time>2026-04-11T12:58:48.999Z</time></trkpt><trkpt lat="44.587739984512446" lon="10.425769868664403"><ele>351.0</ele><time>2026-04-11T12:58:50.998Z</time></trkpt><trkpt lat="44.58765810995808" lon="10.425755301767511"><ele>351.0</ele><time>2026-04-11T12:58:51.998Z</time></trkpt><trkpt lat="44.58758075111517" lon="10.425747286610743"><ele>351.0</ele><time>2026-04-11T12:58:52.998Z</time></trkpt><trkpt lat="44.58748837145296" lon="10.425725691715645"><ele>353.0</ele><time>2026-04-11T12:58:54Z</time></trkpt><trkpt lat="44.58739533439591" lon="10.425662938795615"><ele>355.0</ele><time>2026-04-11T12:58:55Z</time></trkpt><trkpt lat="44.58730391203972" lon="10.42569375589466"><ele>357.0</ele><time>2026-04-11T12:58:56Z</time></trkpt><trkpt lat="44.587220612799925" lon="10.42567557470576"><ele>359.0</ele><time>2026-04-11T12:58:57Z</time></trkpt><trkpt lat="44.587141695364366" lon="10.425667894790793"><ele>361.0</ele><time>2026-04-11T12:58:58Z</time></trkpt><trkpt lat="44.587055939148584" lon="10.425670470533046"><ele>363.0</ele><time>2026-04-11T12:58:59Z</time></trkpt><trkpt lat="44.586966480066174" lon="10.425692998782278"><ele>365.5</ele><time>2026-04-11T12:59:00Z</time></trkpt><trkpt lat="44.58688154408044" lon="10.425719454329233"><ele>368.0</ele><time>2026-04-11T12:59:01Z</time></trkpt><trkpt lat="44.586804944803355" lon="10.425758919707064"><ele>370.5</ele><time>2026-04-11T12:59:02Z</time></trkpt><trkpt lat="44.58673166561051" lon="10.42581459278548"><ele>373.0</ele><time>2026-04-11T12:59:03Z</time></trkpt><trkpt lat="44.586655931821745" lon="10.425881847851844"><ele>375.5</ele><time>2026-04-11T12:59:04Z</time></trkpt><trkpt lat="44.58657902245192" lon="10.425949028327443"><ele>378.0</ele><time>2026-04-11T12:59:05Z</time></trkpt><trkpt lat="44.58650374296387" lon="10.426011335126459"><ele>378.0</ele><time>2026-04-11T12:59:06Z</time></trkpt><trkpt lat="44.58642788429028" lon="10.42607483435534"><ele>378.0</ele><time>2026-04-11T12:59:07Z</time></trkpt><trkpt lat="44.58636648041628" lon="10.42613631006692"><ele>378.0</ele><time>2026-04-11T12:59:08Z</time></trkpt><trkpt lat="44.58631420927667" lon="10.426191575868124"><ele>378.0</ele><time>2026-04-11T12:59:09Z</time></trkpt><trkpt lat="44.58625225968993" lon="10.426248535880257"><ele>378.0</ele><time>2026-04-11T12:59:10Z</time></trkpt><trkpt lat="44.58619358580993" lon="10.426295203375906"><ele>378.0</ele><time>2026-04-11T12:59:11Z</time></trkpt><trkpt lat="44.586080255706875" lon="10.426279884492102"><ele>380.3333333333333</ele><time>2026-04-11T12:59:13Z</time></trkpt><trkpt lat="44.58601450238767" lon="10.426284893998748"><ele>382.66666666666663</ele><time>2026-04-11T12:59:14Z</time></trkpt><trkpt lat="44.585937070102126" lon="10.426285199582336"><ele>385.0</ele><time>2026-04-11T12:59:15Z</time></trkpt><trkpt lat="44.585856435641126" lon="10.42628371532491"><ele>387.3333333333333</ele><time>2026-04-11T12:59:16Z</time></trkpt><trkpt lat="44.585772135718685" lon="10.426279246233507"><ele>389.66666666666663</ele><time>2026-04-11T12:59:17Z</time></trkpt><trkpt lat="44.585689619044764" lon="10.426272561895106"><ele>392.0</ele><time>2026-04-11T12:59:18Z</time></trkpt><trkpt lat="44.58560955117816" lon="10.42626746771999"><ele>391.99999999999994</ele><time>2026-04-11T12:59:19Z</time></trkpt><trkpt lat="44.58553200050244" lon="10.426254671971664"><ele>392.0</ele><time>2026-04-11T12:59:20Z</time></trkpt><trkpt lat="44.585436264397835" lon="10.426261339456381"><ele>392.0</ele><time>2026-04-11T12:59:21Z</time></trkpt><trkpt lat="44.58536170348663" lon="10.426248474605694"><ele>392.0</ele><time>2026-04-11T12:59:22Z</time></trkpt><trkpt lat="44.58528744652376" lon="10.42622234482377"><ele>391.99999999999994</ele><time>2026-04-11T12:59:23Z</time></trkpt><trkpt lat="44.58520893629752" lon="10.426220746545543"><ele>392.0</ele><time>2026-04-11T12:59:24Z</time></trkpt><trkpt lat="44.58512870338961" lon="10.426177941889312"><ele>392.57142857142856</ele><time>2026-04-11T12:59:25Z</time></trkpt><trkpt lat="44.58506750631212" lon="10.426122003282858"><ele>393.1428571428571</ele><time>2026-04-11T12:59:26Z</time></trkpt><trkpt lat="44.58499483354489" lon="10.426084681878683"><ele>393.7142857142857</ele><time>2026-04-11T12:59:27Z</time></trkpt><trkpt lat="44.58492574655636" lon="10.42608954370809"><ele>394.2857142857143</ele><time>2026-04-11T12:59:28Z</time></trkpt><trkpt lat="44.584854870512736" lon="10.426110467882113"><ele>394.85714285714283</ele><time>2026-04-11T12:59:29Z</time></trkpt><trkpt lat="44.58479191318922" lon="10.42615392765876"><ele>395.42857142857144</ele><time>2026-04-11T12:59:30Z</time></trkpt><trkpt lat="44.58474073682487" lon="10.426219450157319"><ele>396.0</ele><time>2026-04-11T12:59:31Z</time></trkpt><trkpt lat="44.58470657922068" lon="10.426300960777544"><ele>395.3333333333333</ele><time>2026-04-11T12:59:32Z</time></trkpt><trkpt lat="44.58466854491217" lon="10.426400601906582"><ele>394.66666666666663</ele><time>2026-04-11T12:59:33Z</time></trkpt><trkpt lat="44.584597052485634" lon="10.426520497794698"><ele>394.0</ele><time>2026-04-11T12:59:35Z</time></trkpt><trkpt lat="44.58453390824741" lon="10.426550281354363"><ele>393.3333333333333</ele><time>2026-04-11T12:59:48.999Z</time></trkpt><trkpt lat="44.58447432056956" lon="10.426636881896785"><ele>392.66666666666663</ele><time>2026-04-11T12:59:50.999Z</time></trkpt><trkpt lat="44.58442294797584" lon="10.426693495826779"><ele>392.0</ele><time>2026-04-11T12:59:53.999Z</time></trkpt><trkpt lat="44.584368270566415" lon="10.426746628442242"><ele>393.66666666666663</ele><time>2026-04-11T12:59:54.999Z</time></trkpt><trkpt lat="44.58430747028711" lon="10.42679822779512"><ele>395.3333333333333</ele><time>2026-04-11T12:59:55.999Z</time></trkpt><trkpt lat="44.58424984673211" lon="10.42685612591262"><ele>397.0</ele><time>2026-04-11T12:59:56.999Z</time></trkpt><trkpt lat="44.58419975481674" lon="10.426922872740072"><ele>398.66666666666663</ele><time>2026-04-11T12:59:57.999Z</time></trkpt><trkpt lat="44.584129807213166" lon="10.42701888708953"><ele>400.3333333333333</ele><time>2026-04-11T12:59:59.999Z</time></trkpt><trkpt lat="44.584058918572644" lon="10.427105384862715"><ele>402.0</ele><time>2026-04-11T13:00:01.999Z</time></trkpt><trkpt lat="44.58395898933325" lon="10.427168868264697"><ele>402.0</ele><time>2026-04-11T13:00:03.999Z</time></trkpt><trkpt lat="44.58385991899764" lon="10.427229552063826"><ele>402.0</ele><time>2026-04-11T13:00:05.999Z</time></trkpt><trkpt lat="44.58379396241947" lon="10.427241648214439"><ele>402.0</ele><time>2026-04-11T13:00:06.999Z</time></trkpt><trkpt lat="44.58371303971931" lon="10.427264915410392"><ele>402.0</ele><time>2026-04-11T13:00:07.999Z</time></trkpt><trkpt lat="44.58365288104491" lon="10.427305541463356"><ele>402.0</ele><time>2026-04-11T13:00:08.999Z</time></trkpt><trkpt lat="44.583583548894424" lon="10.427356788696999"><ele>402.0</ele><time>2026-04-11T13:00:11.999Z</time></trkpt><trkpt lat="44.58350740647832" lon="10.427291239657112"><ele>405.0</ele><time>2026-04-11T13:00:13.999Z</time></trkpt><trkpt lat="44.58343011291294" lon="10.427211013165566"><ele>408.0</ele><time>2026-04-11T13:00:15.999Z</time></trkpt><trkpt lat="44.58334314271877" lon="10.427113194251769"><ele>411.0</ele><time>2026-04-11T13:00:17.999Z</time></trkpt><trkpt lat="44.58325734432641" lon="10.426995822230145"><ele>414.0</ele><time>2026-04-11T13:00:19.999Z</time></trkpt><trkpt lat="44.58320015195831" lon="10.426885571306503"><ele>417.0</ele><time>2026-04-11T13:00:21.999Z</time></trkpt><trkpt lat="44.583149941450294" lon="10.426815020698468"><ele>417.8333333333333</ele><time>2026-04-11T13:00:23.999Z</time></trkpt><trkpt lat="44.58306883861809" lon="10.426707462780122"><ele>418.66666666666663</ele><time>2026-04-11T13:00:25.999Z</time></trkpt><trkpt lat="44.58300980630837" lon="10.426667791992982"><ele>419.5</ele><time>2026-04-11T13:00:26.999Z</time></trkpt><trkpt lat="44.5829378066566" lon="10.426663403855867"><ele>420.3333333333333</ele><time>2026-04-11T13:00:27.999Z</time></trkpt><trkpt lat="44.58286459507485" lon="10.426635428834983"><ele>421.16666666666663</ele><time>2026-04-11T13:00:28.999Z</time></trkpt><trkpt lat="44.58278915118419" lon="10.426619918979386"><ele>422.0</ele><time>2026-04-11T13:00:29.999Z</time></trkpt><trkpt lat="44.582721183704834" lon="10.42660062828117"><ele>423.99999999999994</ele><time>2026-04-11T13:00:30.999Z</time></trkpt><trkpt lat="44.58264684697371" lon="10.42658354057069"><ele>426.0</ele><time>2026-04-11T13:00:31.999Z</time></trkpt><trkpt lat="44.582577703431944" lon="10.426559803078554"><ele>428.0</ele><time>2026-04-11T13:00:32.999Z</time></trkpt><trkpt lat="44.58250676945021" lon="10.426533483967436"><ele>430.0</ele><time>2026-04-11T13:00:33.999Z</time></trkpt><trkpt lat="44.58243831820861" lon="10.426502351593705"><ele>431.99999999999994</ele><time>2026-04-11T13:00:34.999Z</time></trkpt><trkpt lat="44.58235929495815" lon="10.426480397307259"><ele>434.0</ele><time>2026-04-11T13:00:35.999Z</time></trkpt><trkpt lat="44.5822766356405" lon="10.426469382314819"><ele>433.99999999999994</ele><time>2026-04-11T13:00:36.999Z</time></trkpt><trkpt lat="44.58219126829704" lon="10.42647369053371"><ele>434.0</ele><time>2026-04-11T13:00:37.999Z</time></trkpt><trkpt lat="44.58210407134633" lon="10.426471210744815"><ele>434.0</ele><time>2026-04-11T13:00:38.999Z</time></trkpt><trkpt lat="44.58200828224644" lon="10.426471761358524"><ele>434.0</ele><time>2026-04-11T13:00:39.999Z</time></trkpt><trkpt lat="44.58193827463738" lon="10.426457949880394"><ele>433.99999999999994</ele><time>2026-04-11T13:00:40.999Z</time></trkpt><trkpt lat="44.58186947235124" lon="10.426433179085528"><ele>434.0</ele><time>2026-04-11T13:00:41.999Z</time></trkpt><trkpt lat="44.58180715150312" lon="10.42641654385972"><ele>434.49999999999994</ele><time>2026-04-11T13:00:42.999Z</time></trkpt><trkpt lat="44.581715476981856" lon="10.426408875697005"><ele>435.0</ele><time>2026-04-11T13:00:43.999Z</time></trkpt><trkpt lat="44.581661800455784" lon="10.426358632723426"><ele>435.5</ele><time>2026-04-11T13:00:44.999Z</time></trkpt><trkpt lat="44.581597215316734" lon="10.426273023719578"><ele>436.0</ele><time>2026-04-11T13:00:46.999Z</time></trkpt><trkpt lat="44.58155392252604" lon="10.426194482683895"><ele>436.49999999999994</ele><time>2026-04-11T13:00:48.999Z</time></trkpt><trkpt lat="44.581451007775655" lon="10.426254924743938"><ele>437.0</ele><time>2026-04-11T13:00:50.999Z</time></trkpt><trkpt lat="44.5813970363966" lon="10.426305123354307"><ele>437.0</ele><time>2026-04-11T13:00:51.999Z</time></trkpt><trkpt lat="44.58133278129887" lon="10.42636951390989"><ele>437.0</ele><time>2026-04-11T13:00:52.999Z</time></trkpt><trkpt lat="44.581273704423765" lon="10.42641900500537"><ele>437.0</ele><time>2026-04-11T13:00:53.999Z</time></trkpt><trkpt lat="44.58120329795894" lon="10.426473883689113"><ele>437.0</ele><time>2026-04-11T13:00:54.999Z</time></trkpt><trkpt lat="44.58113668196774" lon="10.42653278626885"><ele>437.0</ele><time>2026-04-11T13:00:55.999Z</time></trkpt><trkpt lat="44.58107953631484" lon="10.426586063060975"><ele>437.0</ele><time>2026-04-11T13:00:56.999Z</time></trkpt><trkpt lat="44.58102605990596" lon="10.426636789357115"><ele>437.0</ele><time>2026-04-11T13:00:57.999Z</time></trkpt><trkpt lat="44.58092331069331" lon="10.426715645374358"><ele>436.6</ele><time>2026-04-11T13:00:59.999Z</time></trkpt><trkpt lat="44.58081478818402" lon="10.426821749402581"><ele>436.20000000000005</ele><time>2026-04-11T13:01:01.999Z</time></trkpt><trkpt lat="44.58075731827729" lon="10.42687656549189"><ele>435.8</ele><time>2026-04-11T13:01:02.999Z</time></trkpt><trkpt lat="44.58069818586902" lon="10.426912610702171"><ele>435.4</ele><time>2026-04-11T13:01:03.999Z</time></trkpt><trkpt lat="44.580603077708304" lon="10.42695104414456"><ele>435.0</ele><time>2026-04-11T13:01:06Z</time></trkpt><trkpt lat="44.580501002313355" lon="10.427047140095862"><ele>433.6</ele><time>2026-04-11T13:01:11Z</time></trkpt><trkpt lat="44.58042743887715" lon="10.42720061045907"><ele>432.2</ele><time>2026-04-11T13:01:13Z</time></trkpt><trkpt lat="44.580399745318715" lon="10.427293412717056"><ele>430.79999999999995</ele><time>2026-04-11T13:01:14Z</time></trkpt><trkpt lat="44.58036885040342" lon="10.427422318067084"><ele>429.4</ele><time>2026-04-11T13:01:15Z</time></trkpt><trkpt lat="44.58032294242853" lon="10.42756500220679"><ele>428.0</ele><time>2026-04-11T13:01:16Z</time></trkpt><trkpt lat="44.5802774241225" lon="10.427711323747829"><ele>427.25</ele><time>2026-04-11T13:01:17Z</time></trkpt><trkpt lat="44.58023362788532" lon="10.42785431993832"><ele>426.5</ele><time>2026-04-11T13:01:18Z</time></trkpt><trkpt lat="44.58015201124677" lon="10.428108691894314"><ele>425.75</ele><time>2026-04-11T13:01:20Z</time></trkpt><trkpt lat="44.58011184045736" lon="10.42822600742667"><ele>425.0</ele><time>2026-04-11T13:01:21Z</time></trkpt><trkpt lat="44.58007415207527" lon="10.428336187971038"><ele>424.99999999999994</ele><time>2026-04-11T13:01:22Z</time></trkpt><trkpt lat="44.58003503258129" lon="10.428446154498198"><ele>425.0</ele><time>2026-04-11T13:01:23Z</time></trkpt><trkpt lat="44.579995411710314" lon="10.428555995548775"><ele>425.0</ele><time>2026-04-11T13:01:24Z</time></trkpt><trkpt lat="44.57996163260003" lon="10.428655723507406"><ele>425.0</ele><time>2026-04-11T13:01:25Z</time></trkpt><trkpt lat="44.57993430706645" lon="10.428749433685475"><ele>424.99999999999994</ele><time>2026-04-11T13:01:26Z</time></trkpt><trkpt lat="44.57991134612745" lon="10.428836816937679"><ele>425.0</ele><time>2026-04-11T13:01:27Z</time></trkpt><trkpt lat="44.57988375391189" lon="10.428967017095639"><ele>425.0</ele><time>2026-04-11T13:01:29Z</time></trkpt><trkpt lat="44.5798602486106" lon="10.429131952869541"><ele>425.0</ele><time>2026-04-11T13:01:31Z</time></trkpt><trkpt lat="44.57981489644102" lon="10.42929052609282"><ele>425.0</ele><time>2026-04-11T13:01:33Z</time></trkpt><trkpt lat="44.57975504743843" lon="10.429436574838618"><ele>425.0</ele><time>2026-04-11T13:01:35Z</time></trkpt><trkpt lat="44.57968433153589" lon="10.429502441784813"><ele>425.0</ele><time>2026-04-11T13:01:37Z</time></trkpt><trkpt lat="44.579652605364025" lon="10.42939011954978"><ele>425.0</ele><time>2026-04-11T13:01:39Z</time></trkpt><trkpt lat="44.57973383239139" lon="10.429306512251403"><ele>425.0</ele><time>2026-04-11T13:01:40Z</time></trkpt><trkpt lat="44.57976826761877" lon="10.429206595937627"><ele>425.0</ele><time>2026-04-11T13:01:40.999Z</time></trkpt><trkpt lat="44.57978441386988" lon="10.429087134336179"><ele>425.0</ele><time>2026-04-11T13:01:41.999Z</time></trkpt><trkpt lat="44.57977829269075" lon="10.428942920361038"><ele>425.0</ele><time>2026-04-11T13:01:42.999Z</time></trkpt><trkpt lat="44.57978514819853" lon="10.428824306479221"><ele>425.0</ele><time>2026-04-11T13:01:43.999Z</time></trkpt><trkpt lat="44.579794719146804" lon="10.428732224057324"><ele>425.0</ele><time>2026-04-11T13:01:44.999Z</time></trkpt><trkpt lat="44.579803838634355" lon="10.428578537377781"><ele>425.0</ele><time>2026-04-11T13:01:46.999Z</time></trkpt><trkpt lat="44.57976008024121" lon="10.428490560871387"><ele>425.0</ele><time>2026-04-11T13:01:48.999Z</time></trkpt><trkpt lat="44.579695439279384" lon="10.42844229136371"><ele>425.0</ele><time>2026-04-11T13:01:50.999Z</time></trkpt><trkpt lat="44.57965177196132" lon="10.428615658888264"><ele>425.0</ele><time>2026-04-11T13:01:51.999Z</time></trkpt><trkpt lat="44.579602266973566" lon="10.428754967542167"><ele>425.0</ele><time>2026-04-11T13:01:53.999Z</time></trkpt><trkpt lat="44.579562075979936" lon="10.428895147472858"><ele>425.0</ele><time>2026-04-11T13:01:55.999Z</time></trkpt><trkpt lat="44.579523476816625" lon="10.429003023048134"><ele>425.0</ele><time>2026-04-11T13:01:57.999Z</time></trkpt><trkpt lat="44.57945060571045" lon="10.429103931218629"><ele>425.0</ele><time>2026-04-11T13:01:59.999Z</time></trkpt><trkpt lat="44.57934507376634" lon="10.429171021686912"><ele>423.3333333333333</ele><time>2026-04-11T13:02:01.999Z</time></trkpt><trkpt lat="44.57924377718674" lon="10.429241941619662"><ele>421.66666666666663</ele><time>2026-04-11T13:02:03.999Z</time></trkpt><trkpt lat="44.57918471260121" lon="10.429296738652068"><ele>420.0</ele><time>2026-04-11T13:02:05.999Z</time></trkpt><trkpt lat="44.579104156582105" lon="10.429356411067218"><ele>418.33333333333337</ele><time>2026-04-11T13:02:08.999Z</time></trkpt><trkpt lat="44.57904553283807" lon="10.429411273297779"><ele>416.6666666666667</ele><time>2026-04-11T13:02:10.999Z</time></trkpt><trkpt lat="44.57898230005633" lon="10.42947461170195"><ele>415.0</ele><time>2026-04-11T13:02:12.999Z</time></trkpt><trkpt lat="44.57890941730934" lon="10.429526870082803"><ele>415.00000000000006</ele><time>2026-04-11T13:02:14.999Z</time></trkpt><trkpt lat="44.578821835460374" lon="10.429554336865504"><ele>415.0</ele><time>2026-04-11T13:02:16.999Z</time></trkpt><trkpt lat="44.578731353459915" lon="10.429596353691583"><ele>415.0</ele><time>2026-04-11T13:02:18.999Z</time></trkpt><trkpt lat="44.5786428113843" lon="10.429649906204508"><ele>415.0</ele><time>2026-04-11T13:02:20.999Z</time></trkpt><trkpt lat="44.578564525425804" lon="10.429692314711051"><ele>415.00000000000006</ele><time>2026-04-11T13:02:22.999Z</time></trkpt><trkpt lat="44.57848765213937" lon="10.429730820697134"><ele>415.0</ele><time>2026-04-11T13:02:24.999Z</time></trkpt><trkpt lat="44.57840636884167" lon="10.429764952800685"><ele>413.4</ele><time>2026-04-11T13:02:26.999Z</time></trkpt><trkpt lat="44.57832396723328" lon="10.429802060176458"><ele>411.8</ele><time>2026-04-11T13:02:28.999Z</time></trkpt><trkpt lat="44.57824838257788" lon="10.429836882385297"><ele>410.20000000000005</ele><time>2026-04-11T13:02:30.999Z</time></trkpt><trkpt lat="44.57816285399723" lon="10.429860294116327"><ele>408.6</ele><time>2026-04-11T13:02:32.999Z</time></trkpt><trkpt lat="44.57806312831932" lon="10.42989827821773"><ele>407.0</ele><time>2026-04-11T13:02:34.999Z</time></trkpt><trkpt lat="44.57796440359835" lon="10.429967848988749"><ele>407.0</ele><time>2026-04-11T13:02:36.999Z</time></trkpt><trkpt lat="44.5778746064339" lon="10.43004305436888"><ele>407.0</ele><time>2026-04-11T13:02:38.999Z</time></trkpt><trkpt lat="44.57778720490791" lon="10.430116763165431"><ele>407.0</ele><time>2026-04-11T13:02:40.999Z</time></trkpt><trkpt lat="44.577699942553444" lon="10.4301723582075"><ele>407.0</ele><time>2026-04-11T13:02:42.999Z</time></trkpt><trkpt lat="44.577597286742495" lon="10.430216458482157"><ele>407.0</ele><time>2026-04-11T13:02:44.999Z</time></trkpt><trkpt lat="44.57749095400248" lon="10.43027591909423"><ele>405.75</ele><time>2026-04-11T13:02:46.999Z</time></trkpt><trkpt lat="44.577384879130214" lon="10.430347394883235"><ele>404.5</ele><time>2026-04-11T13:02:48.999Z</time></trkpt><trkpt lat="44.57728886690427" lon="10.43044146986451"><ele>403.25</ele><time>2026-04-11T13:02:50.999Z</time></trkpt><trkpt lat="44.57720608091468" lon="10.430557882255302"><ele>402.0</ele><time>2026-04-11T13:02:52.999Z</time></trkpt><trkpt lat="44.57713963659275" lon="10.430698136058068"><ele>402.0</ele><time>2026-04-11T13:02:54.999Z</time></trkpt><trkpt lat="44.57711274546073" lon="10.430786609489703"><ele>402.0</ele><time>2026-04-11T13:02:55.999Z</time></trkpt><trkpt lat="44.57708831063331" lon="10.430880793816288"><ele>402.0</ele><time>2026-04-11T13:02:56.999Z</time></trkpt><trkpt lat="44.57704999747288" lon="10.430980848896237"><ele>402.0</ele><time>2026-04-11T13:02:57.999Z</time></trkpt><trkpt lat="44.57702757996404" lon="10.43109803652872"><ele>402.0</ele><time>2026-04-11T13:02:58.999Z</time></trkpt><trkpt lat="44.57700864214126" lon="10.431224041446319"><ele>402.0</ele><time>2026-04-11T13:02:59.999Z</time></trkpt><trkpt lat="44.576989976195094" lon="10.43134767401496"><ele>400.1666666666667</ele><time>2026-04-11T13:03:00.999Z</time></trkpt><trkpt lat="44.576967185899896" lon="10.431456941151144"><ele>398.33333333333337</ele><time>2026-04-11T13:03:01.999Z</time></trkpt><trkpt lat="44.576938621731166" lon="10.431558791158704"><ele>396.5</ele><time>2026-04-11T13:03:02.999Z</time></trkpt><trkpt lat="44.57688403073705" lon="10.431637971887936"><ele>394.6666666666667</ele><time>2026-04-11T13:03:03.999Z</time></trkpt><trkpt lat="44.57681251573182" lon="10.431713382754566"><ele>392.83333333333337</ele><time>2026-04-11T13:03:04.999Z</time></trkpt><trkpt lat="44.57671571989081" lon="10.431728651876005"><ele>391.0</ele><time>2026-04-11T13:03:05.999Z</time></trkpt><trkpt lat="44.57661301537978" lon="10.431703165460215"><ele>391.0</ele><time>2026-04-11T13:03:06.999Z</time></trkpt><trkpt lat="44.576520814509465" lon="10.431650916660004"><ele>391.0</ele><time>2026-04-11T13:03:07.999Z</time></trkpt><trkpt lat="44.576442351474306" lon="10.431596375341783"><ele>391.0</ele><time>2026-04-11T13:03:08.999Z</time></trkpt><trkpt lat="44.57636499005785" lon="10.43155447299067"><ele>391.0</ele><time>2026-04-11T13:03:09.999Z</time></trkpt><trkpt lat="44.576271693289826" lon="10.431543095787651"><ele>391.0</ele><time>2026-04-11T13:03:10.999Z</time></trkpt><trkpt lat="44.57617283696991" lon="10.431560200935245"><ele>390.1666666666667</ele><time>2026-04-11T13:03:11.999Z</time></trkpt><trkpt lat="44.576072594774914" lon="10.431590014545531"><ele>389.33333333333337</ele><time>2026-04-11T13:03:12.999Z</time></trkpt><trkpt lat="44.57598832932789" lon="10.431621045821764"><ele>388.5</ele><time>2026-04-11T13:03:13.999Z</time></trkpt><trkpt lat="44.57590695053104" lon="10.43166298446455"><ele>387.66666666666663</ele><time>2026-04-11T13:03:14.999Z</time></trkpt><trkpt lat="44.57583005411991" lon="10.4317086202268"><ele>386.8333333333333</ele><time>2026-04-11T13:03:15.999Z</time></trkpt><trkpt lat="44.57576490236766" lon="10.431754595553398"><ele>386.0</ele><time>2026-04-11T13:03:16.999Z</time></trkpt><trkpt lat="44.57570422144549" lon="10.431809826555082"><ele>385.99999999999994</ele><time>2026-04-11T13:03:17.999Z</time></trkpt><trkpt lat="44.575644237735496" lon="10.431857181234378"><ele>386.0</ele><time>2026-04-11T13:03:18.999Z</time></trkpt><trkpt lat="44.57558670355724" lon="10.43191087703376"><ele>386.0</ele><time>2026-04-11T13:03:19.999Z</time></trkpt><trkpt lat="44.57548344610483" lon="10.431977341772384"><ele>386.0</ele><time>2026-04-11T13:03:21.999Z</time></trkpt><trkpt lat="44.57537031976413" lon="10.431952112466657"><ele>385.99999999999994</ele><time>2026-04-11T13:03:23.999Z</time></trkpt><trkpt lat="44.575306216171484" lon="10.431950288255283"><ele>386.0</ele><time>2026-04-11T13:03:24.999Z</time></trkpt><trkpt lat="44.57519350554014" lon="10.431973215888146"><ele>384.8</ele><time>2026-04-11T13:03:27Z</time></trkpt><trkpt lat="44.575098334996206" lon="10.431914986159846"><ele>383.6</ele><time>2026-04-11T13:03:29Z</time></trkpt><trkpt lat="44.57500028088335" lon="10.431818365685482"><ele>382.4</ele><time>2026-04-11T13:03:31Z</time></trkpt><trkpt lat="44.574917168342786" lon="10.431745045148775"><ele>381.2</ele><time>2026-04-11T13:03:33Z</time></trkpt><trkpt lat="44.57484556788342" lon="10.43167099765683"><ele>380.0</ele><time>2026-04-11T13:03:39Z</time></trkpt><trkpt lat="44.57478919807784" lon="10.431619832859736"><ele>380.0</ele><time>2026-04-11T13:03:40Z</time></trkpt><trkpt lat="44.57471841296411" lon="10.43155838821855"><ele>380.0</ele><time>2026-04-11T13:03:41Z</time></trkpt><trkpt lat="44.57464803389189" lon="10.431491516431139"><ele>380.0</ele><time>2026-04-11T13:03:42Z</time></trkpt><trkpt lat="44.574564384091296" lon="10.431413767284742"><ele>380.0</ele><time>2026-04-11T13:03:43Z</time></trkpt><trkpt lat="44.57448450460134" lon="10.43135151652995"><ele>380.0</ele><time>2026-04-11T13:03:43.999Z</time></trkpt><trkpt lat="44.574398113198534" lon="10.431292928011748"><ele>376.25</ele><time>2026-04-11T13:03:44.999Z</time></trkpt><trkpt lat="44.574286917862054" lon="10.431238542568154"><ele>372.5</ele><time>2026-04-11T13:03:45.999Z</time></trkpt><trkpt lat="44.57416517643962" lon="10.431207764320831"><ele>368.75</ele><time>2026-04-11T13:03:46.999Z</time></trkpt><trkpt lat="44.57403258492745" lon="10.431154285977476"><ele>365.0</ele><time>2026-04-11T13:03:47.999Z</time></trkpt><trkpt lat="44.57390949581394" lon="10.431079544729236"><ele>365.0</ele><time>2026-04-11T13:03:48.999Z</time></trkpt><trkpt lat="44.573848955039146" lon="10.430950904938694"><ele>365.0</ele><time>2026-04-11T13:03:50.999Z</time></trkpt><trkpt lat="44.573745948035736" lon="10.430860223333722"><ele>365.0</ele><time>2026-04-11T13:03:51.999Z</time></trkpt><trkpt lat="44.573652729956216" lon="10.430769915876281"><ele>365.0</ele><time>2026-04-11T13:03:52.999Z</time></trkpt><trkpt lat="44.57358168373725" lon="10.430682857673087"><ele>365.0</ele><time>2026-04-11T13:03:53.999Z</time></trkpt><trkpt lat="44.57352368511129" lon="10.43057375365674"><ele>365.0</ele><time>2026-04-11T13:03:54.999Z</time></trkpt><trkpt lat="44.573461310586495" lon="10.430449901206702"><ele>365.0</ele><time>2026-04-11T13:03:55.999Z</time></trkpt><trkpt lat="44.573401351197724" lon="10.430349677485546"><ele>365.0</ele><time>2026-04-11T13:03:56.999Z</time></trkpt><trkpt lat="44.57335360924916" lon="10.43025426485622"><ele>365.0</ele><time>2026-04-11T13:03:57.999Z</time></trkpt><trkpt lat="44.57330779162226" lon="10.430160624479782"><ele>365.0</ele><time>2026-04-11T13:03:58.999Z</time></trkpt><trkpt lat="44.57327020058768" lon="10.430077657134158"><ele>365.0</ele><time>2026-04-11T13:03:59.999Z</time></trkpt><trkpt lat="44.57320248110956" lon="10.42997588368822"><ele>365.0</ele><time>2026-04-11T13:04:01.999Z</time></trkpt><trkpt lat="44.573167354460956" lon="10.429833200683523"><ele>365.0</ele><time>2026-04-11T13:04:03.999Z</time></trkpt><trkpt lat="44.57317799455116" lon="10.429673202794831"><ele>365.0</ele><time>2026-04-11T13:04:05.999Z</time></trkpt><trkpt lat="44.57320148189096" lon="10.429588941891994"><ele>365.0</ele><time>2026-04-11T13:04:06.999Z</time></trkpt><trkpt lat="44.57323256600496" lon="10.429495537781134"><ele>365.0</ele><time>2026-04-11T13:04:07.999Z</time></trkpt><trkpt lat="44.5732669470231" lon="10.42939311359314"><ele>365.0</ele><time>2026-04-11T13:04:08.999Z</time></trkpt><trkpt lat="44.573298642392594" lon="10.429297211781858"><ele>363.0</ele><time>2026-04-11T13:04:09.999Z</time></trkpt><trkpt lat="44.57332109618235" lon="10.429205375908388"><ele>361.0</ele><time>2026-04-11T13:04:10.999Z</time></trkpt><trkpt lat="44.57334245579019" lon="10.429104798838658"><ele>359.0</ele><time>2026-04-11T13:04:11.999Z</time></trkpt><trkpt lat="44.57335856472864" lon="10.428995659759238"><ele>357.0</ele><time>2026-04-11T13:04:12.999Z</time></trkpt><trkpt lat="44.573375935731825" lon="10.428891453981178"><ele>355.0</ele><time>2026-04-11T13:04:13.999Z</time></trkpt><trkpt lat="44.57339379838972" lon="10.428785132888775"><ele>353.0</ele><time>2026-04-11T13:04:14.999Z</time></trkpt><trkpt lat="44.5734246282233" lon="10.428690233726838"><ele>350.59999999999997</ele><time>2026-04-11T13:04:15.999Z</time></trkpt><trkpt lat="44.57345836985743" lon="10.42859215719998"><ele>348.2</ele><time>2026-04-11T13:04:16.999Z</time></trkpt><trkpt lat="44.57349436380696" lon="10.42850617933727"><ele>345.8</ele><time>2026-04-11T13:04:17.999Z</time></trkpt><trkpt lat="44.57352992495195" lon="10.42834132580233"><ele>343.4</ele><time>2026-04-11T13:04:19.999Z</time></trkpt><trkpt lat="44.57350044550938" lon="10.428174556979931"><ele>341.0</ele><time>2026-04-11T13:04:21.999Z</time></trkpt><trkpt lat="44.57346404751305" lon="10.428098659861584"><ele>341.0</ele><time>2026-04-11T13:04:22.999Z</time></trkpt><trkpt lat="44.57341948898613" lon="10.42803497003178"><ele>341.0</ele><time>2026-04-11T13:04:23.999Z</time></trkpt><trkpt lat="44.57334395280397" lon="10.427913236892238"><ele>341.0</ele><time>2026-04-11T13:04:25.999Z</time></trkpt><trkpt lat="44.57330450116775" lon="10.427831293950984"><ele>341.0</ele><time>2026-04-11T13:04:27.999Z</time></trkpt><trkpt lat="44.573242303039954" lon="10.427716903771065"><ele>341.0</ele><time>2026-04-11T13:04:29.999Z</time></trkpt><trkpt lat="44.573183604387786" lon="10.427628466330114"><ele>341.0</ele><time>2026-04-11T13:04:31.999Z</time></trkpt><trkpt lat="44.57309896759442" lon="10.427548575823646"><ele>338.8</ele><time>2026-04-11T13:04:33.999Z</time></trkpt><trkpt lat="44.57299554874865" lon="10.427545147337964"><ele>336.6</ele><time>2026-04-11T13:04:35.999Z</time></trkpt><trkpt lat="44.57290134315645" lon="10.42757002054788"><ele>334.4</ele><time>2026-04-11T13:04:37.999Z</time></trkpt><trkpt lat="44.572815045842916" lon="10.427604759247656"><ele>332.2</ele><time>2026-04-11T13:04:39.999Z</time></trkpt><trkpt lat="44.57275445506375" lon="10.427691063699964"><ele>330.0</ele><time>2026-04-11T13:04:42.999Z</time></trkpt><trkpt lat="44.5727123224571" lon="10.427792963417376"><ele>328.6666666666667</ele><time>2026-04-11T13:04:45.999Z</time></trkpt><trkpt lat="44.5726494586985" lon="10.42785523401691"><ele>327.3333333333333</ele><time>2026-04-11T13:04:48.999Z</time></trkpt><trkpt lat="44.57258407416932" lon="10.427900573851563"><ele>326.0</ele><time>2026-04-11T13:04:50.999Z</time></trkpt><trkpt lat="44.57252213662775" lon="10.427995478815252"><ele>324.66666666666663</ele><time>2026-04-11T13:04:52.999Z</time></trkpt><trkpt lat="44.57248932476901" lon="10.428101250658552"><ele>323.3333333333333</ele><time>2026-04-11T13:04:54.999Z</time></trkpt><trkpt lat="44.57242782903008" lon="10.428138385737393"><ele>322.0</ele><time>2026-04-11T13:04:56.999Z</time></trkpt><trkpt lat="44.572336301731546" lon="10.428144129112061"><ele>322.0</ele><time>2026-04-11T13:04:59.999Z</time></trkpt><trkpt lat="44.57227125489028" lon="10.428152647808165"><ele>322.0</ele><time>2026-04-11T13:05:01.999Z</time></trkpt><trkpt lat="44.57219954966853" lon="10.428181289476237"><ele>322.0</ele><time>2026-04-11T13:05:04.999Z</time></trkpt><trkpt lat="44.57212330555064" lon="10.428187602406625"><ele>322.0</ele><time>2026-04-11T13:05:07.999Z</time></trkpt><trkpt lat="44.57205693506905" lon="10.42819100325169"><ele>322.0</ele><time>2026-04-11T13:05:09.999Z</time></trkpt><trkpt lat="44.57196660617089" lon="10.428202211762931"><ele>322.0</ele><time>2026-04-11T13:05:12.999Z</time></trkpt><trkpt lat="44.57189631930111" lon="10.428198628578398"><ele>322.0</ele><time>2026-04-11T13:05:15.999Z</time></trkpt><trkpt lat="44.571830151492804" lon="10.42820073541974"><ele>318.0</ele><time>2026-04-11T13:05:17.999Z</time></trkpt><trkpt lat="44.571756585887485" lon="10.428212125897193"><ele>314.0</ele><time>2026-04-11T13:05:19.999Z</time></trkpt><trkpt lat="44.57167611103898" lon="10.428211966163117"><ele>310.0</ele><time>2026-04-11T13:05:22.999Z</time></trkpt><trkpt lat="44.5716070773032" lon="10.428266008997937"><ele>306.0</ele><time>2026-04-11T13:05:24.999Z</time></trkpt><trkpt lat="44.57155692168385" lon="10.428351071370978"><ele>302.0</ele><time>2026-04-11T13:05:26.999Z</time></trkpt><trkpt lat="44.571524190842865" lon="10.428481934493702"><ele>298.0</ele><time>2026-04-11T13:05:29Z</time></trkpt><trkpt lat="44.571483680886715" lon="10.428605354383397"><ele>298.0</ele><time>2026-04-11T13:05:31Z</time></trkpt><trkpt lat="44.57143463940432" lon="10.428700456241845"><ele>298.0</ele><time>2026-04-11T13:05:33Z</time></trkpt><trkpt lat="44.571384075582664" lon="10.428785440171485"><ele>298.0</ele><time>2026-04-11T13:05:35Z</time></trkpt><trkpt lat="44.57132769471522" lon="10.428854469720442"><ele>298.0</ele><time>2026-04-11T13:05:37Z</time></trkpt><trkpt lat="44.571287074241006" lon="10.428941321313895"><ele>298.0</ele><time>2026-04-11T13:05:39Z</time></trkpt><trkpt lat="44.571233887828875" lon="10.429042661000478"><ele>298.0</ele><time>2026-04-11T13:05:41Z</time></trkpt><trkpt lat="44.57115152948507" lon="10.429118245696012"><ele>298.66666666666663</ele><time>2026-04-11T13:05:43Z</time></trkpt><trkpt lat="44.57107578938007" lon="10.42917611497682"><ele>299.3333333333333</ele><time>2026-04-11T13:05:45Z</time></trkpt><trkpt lat="44.57101091110104" lon="10.429207675794373"><ele>300.0</ele><time>2026-04-11T13:05:47Z</time></trkpt><trkpt lat="44.570946419686166" lon="10.429223548718953"><ele>300.6666666666667</ele><time>2026-04-11T13:05:49Z</time></trkpt><trkpt lat="44.570884554829824" lon="10.4292865111734"><ele>301.33333333333337</ele><time>2026-04-11T13:05:51Z</time></trkpt><trkpt lat="44.570821034928585" lon="10.429367131338955"><ele>302.0</ele><time>2026-04-11T13:05:53Z</time></trkpt><trkpt lat="44.57072393854016" lon="10.429418267756414"><ele>302.0</ele><time>2026-04-11T13:05:55Z</time></trkpt><trkpt lat="44.57065700837515" lon="10.429436029501007"><ele>302.0</ele><time>2026-04-11T13:05:56Z</time></trkpt><trkpt lat="44.570592185948975" lon="10.429462310819394"><ele>302.0</ele><time>2026-04-11T13:05:57Z</time></trkpt><trkpt lat="44.57053101007571" lon="10.4294855063022"><ele>302.0</ele><time>2026-04-11T13:05:58Z</time></trkpt><trkpt lat="44.5704646637129" lon="10.429491294456732"><ele>302.0</ele><time>2026-04-11T13:05:59Z</time></trkpt><trkpt lat="44.57034837966945" lon="10.429475275864055"><ele>302.0</ele><time>2026-04-11T13:06:01Z</time></trkpt><trkpt lat="44.57026056039162" lon="10.429500910686112"><ele>305.25</ele><time>2026-04-11T13:06:03Z</time></trkpt><trkpt lat="44.57014824757635" lon="10.42956269291359"><ele>308.5</ele><time>2026-04-11T13:06:05Z</time></trkpt><trkpt lat="44.57004139639846" lon="10.429520473517734"><ele>311.75</ele><time>2026-04-11T13:06:08Z</time></trkpt><trkpt lat="44.5699642767889" lon="10.42943254243415"><ele>315.0</ele><time>2026-04-11T13:06:10Z</time></trkpt><trkpt lat="44.56987072928585" lon="10.42930616104975"><ele>315.0</ele><time>2026-04-11T13:06:12Z</time></trkpt><trkpt lat="44.56983286020551" lon="10.429229308206285"><ele>315.0</ele><time>2026-04-11T13:06:13Z</time></trkpt><trkpt lat="44.56977789471928" lon="10.429172227102478"><ele>315.0</ele><time>2026-04-11T13:06:14Z</time></trkpt><trkpt lat="44.569775601379426" lon="10.429018180151202"><ele>315.0</ele><time>2026-04-11T13:06:16Z</time></trkpt><trkpt lat="44.56983944028501" lon="10.428921900072"><ele>315.0</ele><time>2026-04-11T13:06:18Z</time></trkpt><trkpt lat="44.569890185836186" lon="10.428859226702551"><ele>315.0</ele><time>2026-04-11T13:06:18.999Z</time></trkpt><trkpt lat="44.56993972359977" lon="10.428791134042246"><ele>318.0</ele><time>2026-04-11T13:06:19.999Z</time></trkpt><trkpt lat="44.569987144161296" lon="10.428716772121646"><ele>321.0</ele><time>2026-04-11T13:06:20.999Z</time></trkpt><trkpt lat="44.570041670366884" lon="10.428634485228027"><ele>324.0</ele><time>2026-04-11T13:06:21.999Z</time></trkpt><trkpt lat="44.57009908307409" lon="10.42852484834436"><ele>327.0</ele><time>2026-04-11T13:06:23.999Z</time></trkpt><trkpt lat="44.57015345223378" lon="10.428407740309598"><ele>330.0</ele><time>2026-04-11T13:06:25.999Z</time></trkpt><trkpt lat="44.57016016830327" lon="10.428256485848424"><ele>330.0</ele><time>2026-04-11T13:06:27.999Z</time></trkpt><trkpt lat="44.57009453684323" lon="10.428098562681058"><ele>330.0</ele><time>2026-04-11T13:06:29.999Z</time></trkpt><trkpt lat="44.5700280207913" lon="10.428046395085529"><ele>330.0</ele><time>2026-04-11T13:06:30.999Z</time></trkpt><trkpt lat="44.56993379170254" lon="10.42798394523775"><ele>330.0</ele><time>2026-04-11T13:06:32.999Z</time></trkpt><trkpt lat="44.56992679863877" lon="10.427816042874607"><ele>330.0</ele><time>2026-04-11T13:06:34.999Z</time></trkpt><trkpt lat="44.56992438018192" lon="10.427722193511062"><ele>330.8</ele><time>2026-04-11T13:06:35.999Z</time></trkpt><trkpt lat="44.56985539151284" lon="10.427641439452"><ele>331.6</ele><time>2026-04-11T13:06:37.999Z</time></trkpt><trkpt lat="44.56975487075696" lon="10.427595519886927"><ele>332.4</ele><time>2026-04-11T13:06:39.999Z</time></trkpt><trkpt lat="44.56964238912941" lon="10.427513702561194"><ele>333.2</ele><time>2026-04-11T13:06:41.999Z</time></trkpt><trkpt lat="44.56955756244553" lon="10.427485330963334"><ele>334.0</ele><time>2026-04-11T13:06:43.999Z</time></trkpt><trkpt lat="44.56944744547241" lon="10.427489282316085"><ele>338.0</ele><time>2026-04-11T13:06:45.999Z</time></trkpt><trkpt lat="44.56936414508626" lon="10.42748422859812"><ele>342.0</ele><time>2026-04-11T13:06:47.999Z</time></trkpt><trkpt lat="44.569280272345054" lon="10.42746052113549"><ele>346.0</ele><time>2026-04-11T13:06:49.999Z</time></trkpt><trkpt lat="44.56918255276936" lon="10.427484516227782"><ele>350.0</ele><time>2026-04-11T13:06:51.999Z</time></trkpt><trkpt lat="44.569103968994035" lon="10.427555205979603"><ele>354.0</ele><time>2026-04-11T13:06:53.999Z</time></trkpt><trkpt lat="44.569014519307544" lon="10.427606237283323"><ele>354.0</ele><time>2026-04-11T13:06:55.999Z</time></trkpt><trkpt lat="44.5688881549279" lon="10.427599483378023"><ele>354.0</ele><time>2026-04-11T13:06:57.999Z</time></trkpt><trkpt lat="44.56882261959523" lon="10.427604133331851"><ele>354.0</ele><time>2026-04-11T13:06:58.999Z</time></trkpt><trkpt lat="44.5687590113129" lon="10.427606101337194"><ele>354.0</ele><time>2026-04-11T13:06:59.999Z</time></trkpt><trkpt lat="44.568685354833505" lon="10.427607005155476"><ele>354.0</ele><time>2026-04-11T13:07:00.999Z</time></trkpt><trkpt lat="44.56862033849975" lon="10.427595422724178"><ele>354.0</ele><time>2026-04-11T13:07:01.999Z</time></trkpt><trkpt lat="44.56852697211999" lon="10.42754922175235"><ele>357.4</ele><time>2026-04-11T13:07:03.999Z</time></trkpt><trkpt lat="44.56841895602421" lon="10.42755537763851"><ele>360.79999999999995</ele><time>2026-04-11T13:07:05.999Z</time></trkpt><trkpt lat="44.56832063365915" lon="10.427610925851871"><ele>364.20000000000005</ele><time>2026-04-11T13:07:07.999Z</time></trkpt><trkpt lat="44.568248850735024" lon="10.427626713557686"><ele>367.6</ele><time>2026-04-11T13:07:09.999Z</time></trkpt><trkpt lat="44.5681706337282" lon="10.427627951628553"><ele>371.0</ele><time>2026-04-11T13:07:11.999Z</time></trkpt><trkpt lat="44.56807482788681" lon="10.427590894862819"><ele>371.0</ele><time>2026-04-11T13:07:13.999Z</time></trkpt><trkpt lat="44.568012282892596" lon="10.427527869114515"><ele>371.0</ele><time>2026-04-11T13:07:15.999Z</time></trkpt><trkpt lat="44.567935519113234" lon="10.42748693841857"><ele>371.0</ele><time>2026-04-11T13:07:22Z</time></trkpt><trkpt lat="44.56788913793494" lon="10.427404230279869"><ele>371.0</ele><time>2026-04-11T13:07:24Z</time></trkpt><trkpt lat="44.567829415631685" lon="10.427369284148366"><ele>371.0</ele><time>2026-04-11T13:09:02Z</time></trkpt><trkpt lat="44.56771552395695" lon="10.42731338145939"><ele>371.0</ele><time>2026-04-11T13:09:04Z</time></trkpt><trkpt lat="44.56763631425208" lon="10.427201675094283"><ele>374.0</ele><time>2026-04-11T13:09:06Z</time></trkpt><trkpt lat="44.56753518241245" lon="10.427164242491965"><ele>377.0</ele><time>2026-04-11T13:09:07.999Z</time></trkpt><trkpt lat="44.56741744226983" lon="10.427116028046207"><ele>380.0</ele><time>2026-04-11T13:09:09.999Z</time></trkpt><trkpt lat="44.56736154496217" lon="10.427010570161162"><ele>383.0</ele><time>2026-04-11T13:09:11.999Z</time></trkpt><trkpt lat="44.56730619339506" lon="10.426943812607139"><ele>386.0</ele><time>2026-04-11T13:09:13.999Z</time></trkpt><trkpt lat="44.5672670370411" lon="10.426826943749617"><ele>387.3333333333333</ele><time>2026-04-11T13:09:16.999Z</time></trkpt><trkpt lat="44.56725519035958" lon="10.42673688392588"><ele>388.66666666666663</ele><time>2026-04-11T13:09:17.999Z</time></trkpt><trkpt lat="44.56717736799422" lon="10.426599460414304"><ele>390.0</ele><time>2026-04-11T13:09:19.999Z</time></trkpt><trkpt lat="44.56711966013267" lon="10.426517317366066"><ele>391.33333333333337</ele><time>2026-04-11T13:09:20.999Z</time></trkpt><trkpt lat="44.56706579677139" lon="10.426432041475175"><ele>392.6666666666667</ele><time>2026-04-11T13:09:21.999Z</time></trkpt><trkpt lat="44.56700771940126" lon="10.426360560001761"><ele>394.0</ele><time>2026-04-11T13:09:22.999Z</time></trkpt><trkpt lat="44.56694634685287" lon="10.426279350103538"><ele>395.6666666666667</ele><time>2026-04-11T13:09:24.001Z</time></trkpt><trkpt lat="44.56687602992597" lon="10.426176577668988"><ele>397.33333333333337</ele><time>2026-04-11T13:09:25.001Z</time></trkpt><trkpt lat="44.56680827536761" lon="10.426082726018693"><ele>399.0</ele><time>2026-04-11T13:09:26.001Z</time></trkpt><trkpt lat="44.56673695655542" lon="10.426018692741778"><ele>400.66666666666663</ele><time>2026-04-11T13:09:27.001Z</time></trkpt><trkpt lat="44.5666807662724" lon="10.425975440920421"><ele>402.3333333333333</ele><time>2026-04-11T13:09:28.001Z</time></trkpt><trkpt lat="44.5666325531433" lon="10.425911367134342"><ele>404.0</ele><time>2026-04-11T13:09:29.001Z</time></trkpt><trkpt lat="44.56661953781044" lon="10.425804749621753"><ele>403.99999999999994</ele><time>2026-04-11T13:09:30.001Z</time></trkpt><trkpt lat="44.56660202695413" lon="10.425685056824912"><ele>404.0</ele><time>2026-04-11T13:09:31.001Z</time></trkpt><trkpt lat="44.56658438590403" lon="10.42558420239377"><ele>404.0</ele><time>2026-04-11T13:09:32.001Z</time></trkpt><trkpt lat="44.56653990470339" lon="10.425487911062227"><ele>404.0</ele><time>2026-04-11T13:09:33.001Z</time></trkpt><trkpt lat="44.56650212132689" lon="10.425392251856884"><ele>403.99999999999994</ele><time>2026-04-11T13:09:34.001Z</time></trkpt><trkpt lat="44.56648151957031" lon="10.425290351711208"><ele>404.0</ele><time>2026-04-11T13:09:35.001Z</time></trkpt><trkpt lat="44.56646289768761" lon="10.425178588986567"><ele>403.75</ele><time>2026-04-11T13:09:36.001Z</time></trkpt><trkpt lat="44.56643642110747" lon="10.425009681951655"><ele>403.5</ele><time>2026-04-11T13:09:38.001Z</time></trkpt><trkpt lat="44.566434361796446" lon="10.42486121565794"><ele>403.25</ele><time>2026-04-11T13:09:40.001Z</time></trkpt><trkpt lat="44.56648333810761" lon="10.424660247396599"><ele>403.0</ele><time>2026-04-11T13:09:42.001Z</time></trkpt><trkpt lat="44.56653026238862" lon="10.424537333302563"><ele>403.4</ele><time>2026-04-11T13:09:43.001Z</time></trkpt><trkpt lat="44.56656537792358" lon="10.424409674623998"><ele>403.79999999999995</ele><time>2026-04-11T13:09:44.001Z</time></trkpt><trkpt lat="44.56659121632675" lon="10.424277229291645"><ele>404.2</ele><time>2026-04-11T13:09:45.001Z</time></trkpt><trkpt lat="44.56660886540596" lon="10.424121104839816"><ele>404.6</ele><time>2026-04-11T13:09:46.001Z</time></trkpt><trkpt lat="44.566631170774016" lon="10.423952966463407"><ele>405.0</ele><time>2026-04-11T13:09:47.001Z</time></trkpt><trkpt lat="44.56665838398348" lon="10.423821315758513"><ele>405.0</ele><time>2026-04-11T13:09:48Z</time></trkpt><trkpt lat="44.56668254883231" lon="10.423723455403902"><ele>405.0</ele><time>2026-04-11T13:09:49Z</time></trkpt><trkpt lat="44.56672127673336" lon="10.42361645407998"><ele>405.0</ele><time>2026-04-11T13:09:51Z</time></trkpt><trkpt lat="44.56675603448258" lon="10.42353005209294"><ele>405.0</ele><time>2026-04-11T13:09:53Z</time></trkpt><trkpt lat="44.566785189549115" lon="10.423393458228414"><ele>405.0</ele><time>2026-04-11T13:09:55Z</time></trkpt><trkpt lat="44.566848199629725" lon="10.42328121265469"><ele>405.0</ele><time>2026-04-11T13:09:57Z</time></trkpt><trkpt lat="44.566945554307765" lon="10.423223499607706"><ele>405.0</ele><time>2026-04-11T13:09:59Z</time></trkpt><trkpt lat="44.56699911786573" lon="10.42317558691424"><ele>405.0</ele><time>2026-04-11T13:10:00Z</time></trkpt><trkpt lat="44.567100871039656" lon="10.423103897161978"><ele>405.0</ele><time>2026-04-11T13:10:02Z</time></trkpt><trkpt lat="44.56721102873342" lon="10.423044547669829"><ele>405.0</ele><time>2026-04-11T13:10:04Z</time></trkpt><trkpt lat="44.56726555291751" lon="10.422937644826844"><ele>405.0</ele><time>2026-04-11T13:10:06Z</time></trkpt><trkpt lat="44.56727321876098" lon="10.422769022595562"><ele>405.0</ele><time>2026-04-11T13:10:08Z</time></trkpt><trkpt lat="44.56728894002677" lon="10.422649039904165"><ele>405.0</ele><time>2026-04-11T13:10:09Z</time></trkpt><trkpt lat="44.56730734395362" lon="10.422529307502707"><ele>405.0</ele><time>2026-04-11T13:10:10Z</time></trkpt><trkpt lat="44.56732975864791" lon="10.422426214900264"><ele>405.0</ele><time>2026-04-11T13:10:11Z</time></trkpt><trkpt lat="44.56735718329547" lon="10.422325543950697"><ele>405.0</ele><time>2026-04-11T13:10:12Z</time></trkpt><trkpt lat="44.56738035654573" lon="10.42223101908604"><ele>405.0</ele><time>2026-04-11T13:10:13Z</time></trkpt><trkpt lat="44.56740311517034" lon="10.422130368881827"><ele>404.99999999999994</ele><time>2026-04-11T13:10:14Z</time></trkpt><trkpt lat="44.567444221229174" lon="10.422028943525723"><ele>405.0</ele><time>2026-04-11T13:10:15Z</time></trkpt><trkpt lat="44.56748710517842" lon="10.421923989461435"><ele>405.0</ele><time>2026-04-11T13:10:16Z</time></trkpt><trkpt lat="44.567527616220005" lon="10.42183120673833"><ele>405.0</ele><time>2026-04-11T13:10:17Z</time></trkpt><trkpt lat="44.56756169290522" lon="10.421746795505067"><ele>405.0</ele><time>2026-04-11T13:10:18Z</time></trkpt><trkpt lat="44.567593499611014" lon="10.42166229010702"><ele>404.99999999999994</ele><time>2026-04-11T13:10:19Z</time></trkpt><trkpt lat="44.567624112405625" lon="10.421584885707881"><ele>405.0</ele><time>2026-04-11T13:10:20Z</time></trkpt><trkpt lat="44.567645970935025" lon="10.421500030623983"><ele>405.0</ele><time>2026-04-11T13:10:21Z</time></trkpt><trkpt lat="44.567639807607875" lon="10.421401671481924"><ele>405.0</ele><time>2026-04-11T13:10:22Z</time></trkpt><trkpt lat="44.567596410907356" lon="10.42130383303299"><ele>405.0</ele><time>2026-04-11T13:10:23Z</time></trkpt><trkpt lat="44.567518372149934" lon="10.42122794517845"><ele>405.0</ele><time>2026-04-11T13:10:24Z</time></trkpt><trkpt lat="44.56743674826934" lon="10.421174953213356"><ele>405.0</ele><time>2026-04-11T13:10:25Z</time></trkpt><trkpt lat="44.567363177636686" lon="10.421124318091199"><ele>405.0</ele><time>2026-04-11T13:10:26Z</time></trkpt><trkpt lat="44.567285864378476" lon="10.421070041358412"><ele>405.2</ele><time>2026-04-11T13:10:27Z</time></trkpt><trkpt lat="44.567208407180864" lon="10.421000926463428"><ele>405.4</ele><time>2026-04-11T13:10:28Z</time></trkpt><trkpt lat="44.56712794992915" lon="10.420935680123861"><ele>405.6</ele><time>2026-04-11T13:10:29Z</time></trkpt><trkpt lat="44.56704253375298" lon="10.420863147223907"><ele>405.8</ele><time>2026-04-11T13:10:30Z</time></trkpt><trkpt lat="44.56697628310668" lon="10.420751823277303"><ele>406.0</ele><time>2026-04-11T13:10:31Z</time></trkpt><trkpt lat="44.56693408961445" lon="10.420615755496312"><ele>408.0</ele><time>2026-04-11T13:10:32Z</time></trkpt><trkpt lat="44.56691771933295" lon="10.420459912267127"><ele>410.0</ele><time>2026-04-11T13:10:33Z</time></trkpt><trkpt lat="44.56691303597203" lon="10.420301205598534"><ele>412.0</ele><time>2026-04-11T13:10:34Z</time></trkpt><trkpt lat="44.56691746004824" lon="10.420141152075697"><ele>414.0</ele><time>2026-04-11T13:10:35Z</time></trkpt><trkpt lat="44.56692145770947" lon="10.419969235644858"><ele>414.0</ele><time>2026-04-11T13:10:36Z</time></trkpt><trkpt lat="44.56694363400247" lon="10.419810321800048"><ele>414.0</ele><time>2026-04-11T13:10:37Z</time></trkpt><trkpt lat="44.56698430763393" lon="10.419687761930271"><ele>414.0</ele><time>2026-04-11T13:10:38Z</time></trkpt><trkpt lat="44.56702685019037" lon="10.419585255880913"><ele>414.0</ele><time>2026-04-11T13:10:39Z</time></trkpt><trkpt lat="44.56706309120568" lon="10.419498939573941"><ele>414.0</ele><time>2026-04-11T13:10:40Z</time></trkpt><trkpt lat="44.56708615802242" lon="10.419416521400727"><ele>414.0</ele><time>2026-04-11T13:10:41Z</time></trkpt><trkpt lat="44.567073974201534" lon="10.419246875671007"><ele>415.0</ele><time>2026-04-11T13:10:43Z</time></trkpt><trkpt lat="44.56701300658159" lon="10.4191520430241"><ele>416.0</ele><time>2026-04-11T13:10:45Z</time></trkpt><trkpt lat="44.56687632787718" lon="10.419153355836686"><ele>417.0</ele><time>2026-04-11T13:10:47Z</time></trkpt><trkpt lat="44.566776941733316" lon="10.419187996710612"><ele>418.0</ele><time>2026-04-11T13:10:48Z</time></trkpt><trkpt lat="44.566658543747565" lon="10.419209475147872"><ele>419.0</ele><time>2026-04-11T13:10:49Z</time></trkpt><trkpt lat="44.566532746339185" lon="10.419212091232367"><ele>419.0</ele><time>2026-04-11T13:10:50Z</time></trkpt><trkpt lat="44.566417345559444" lon="10.41921159265528"><ele>419.0</ele><time>2026-04-11T13:10:51Z</time></trkpt><trkpt lat="44.56630027825819" lon="10.41921692214327"><ele>419.0</ele><time>2026-04-11T13:10:52Z</time></trkpt><trkpt lat="44.56618197768463" lon="10.4192240014382"><ele>419.0</ele><time>2026-04-11T13:10:53Z</time></trkpt><trkpt lat="44.56608156320722" lon="10.419230121619306"><ele>418.99999999999994</ele><time>2026-04-11T13:10:54Z</time></trkpt><trkpt lat="44.56598714951058" lon="10.419232103431822"><ele>419.0</ele><time>2026-04-11T13:10:55Z</time></trkpt><trkpt lat="44.565904475705146" lon="10.419236559026153"><ele>419.0</ele><time>2026-04-11T13:10:56Z</time></trkpt><trkpt lat="44.56583089244655" lon="10.419234009316437"><ele>419.0</ele><time>2026-04-11T13:10:57Z</time></trkpt><trkpt lat="44.565763755999356" lon="10.419229848176606"><ele>418.99999999999994</ele><time>2026-04-11T13:10:58Z</time></trkpt><trkpt lat="44.56566376010546" lon="10.41911586762105"><ele>419.0</ele><time>2026-04-11T13:11:00Z</time></trkpt><trkpt lat="44.565623195218166" lon="10.419000491223102"><ele>419.0</ele><time>2026-04-11T13:11:01Z</time></trkpt><trkpt lat="44.565588448337465" lon="10.418846261248794"><ele>419.0</ele><time>2026-04-11T13:11:02Z</time></trkpt><trkpt lat="44.56553868160273" lon="10.418678781882978"><ele>419.0</ele><time>2026-04-11T13:11:03Z</time></trkpt><trkpt lat="44.56548025410222" lon="10.418511106298393"><ele>419.0</ele><time>2026-04-11T13:11:04Z</time></trkpt><trkpt lat="44.56542416583915" lon="10.418334483217222"><ele>421.0</ele><time>2026-04-11T13:11:05Z</time></trkpt><trkpt lat="44.565364079087395" lon="10.418146425380607"><ele>423.0</ele><time>2026-04-11T13:11:06Z</time></trkpt><trkpt lat="44.56530136116122" lon="10.417954065073008"><ele>425.0</ele><time>2026-04-11T13:11:07Z</time></trkpt><trkpt lat="44.5652390016154" lon="10.417755089428782"><ele>426.66666666666663</ele><time>2026-04-11T13:11:08Z</time></trkpt><trkpt lat="44.56517521369101" lon="10.417544630489035"><ele>428.33333333333337</ele><time>2026-04-11T13:11:09Z</time></trkpt><trkpt lat="44.56511013586034" lon="10.417336633920886"><ele>430.0</ele><time>2026-04-11T13:11:10Z</time></trkpt><trkpt lat="44.56505284869379" lon="10.417132862196178"><ele>431.5</ele><time>2026-04-11T13:11:11Z</time></trkpt><trkpt lat="44.564987973129455" lon="10.416931100556713"><ele>433.0</ele><time>2026-04-11T13:11:12Z</time></trkpt><trkpt lat="44.56493305544414" lon="10.416742464490905"><ele>434.5</ele><time>2026-04-11T13:11:13Z</time></trkpt><trkpt lat="44.564880149177334" lon="10.41655759014264"><ele>436.0</ele><time>2026-04-11T13:11:14Z</time></trkpt><trkpt lat="44.564830279422836" lon="10.416385766685865"><ele>436.6</ele><time>2026-04-11T13:11:15Z</time></trkpt><trkpt lat="44.56478832621077" lon="10.416231504392663"><ele>437.20000000000005</ele><time>2026-04-11T13:11:16Z</time></trkpt><trkpt lat="44.56475083556359" lon="10.416111852743299"><ele>437.79999999999995</ele><time>2026-04-11T13:11:17Z</time></trkpt><trkpt lat="44.56469686891771" lon="10.41602032071931"><ele>438.4</ele><time>2026-04-11T13:11:18Z</time></trkpt><trkpt lat="44.56461002069421" lon="10.415962836785216"><ele>439.0</ele><time>2026-04-11T13:11:19Z</time></trkpt><trkpt lat="44.56450579041878" lon="10.415963082660076"><ele>440.0</ele><time>2026-04-11T13:11:20Z</time></trkpt><trkpt lat="44.564387915444506" lon="10.41598418984691"><ele>441.0</ele><time>2026-04-11T13:11:21Z</time></trkpt><trkpt lat="44.56429410145846" lon="10.41598956218304"><ele>442.0</ele><time>2026-04-11T13:11:22Z</time></trkpt><trkpt lat="44.564225089621694" lon="10.4159725672401"><ele>443.0</ele><time>2026-04-11T13:11:23Z</time></trkpt><trkpt lat="44.56413057246354" lon="10.415890548242192"><ele>444.0</ele><time>2026-04-11T13:11:25Z</time></trkpt><trkpt lat="44.564050181862186" lon="10.415897292827383"><ele>444.0</ele><time>2026-04-11T13:11:27Z</time></trkpt><trkpt lat="44.56394033635551" lon="10.416008605716423"><ele>444.0</ele><time>2026-04-11T13:11:29Z</time></trkpt><trkpt lat="44.56386269762587" lon="10.41606178272272"><ele>444.0</ele><time>2026-04-11T13:11:30.001Z</time></trkpt><trkpt lat="44.563785178711264" lon="10.416104663956062"><ele>444.0</ele><time>2026-04-11T13:11:31.001Z</time></trkpt><trkpt lat="44.56371382222514" lon="10.416140221244675"><ele>444.0</ele><time>2026-04-11T13:11:32.001Z</time></trkpt><trkpt lat="44.563597633507456" lon="10.416194094737067"><ele>444.0</ele><time>2026-04-11T13:11:34.001Z</time></trkpt><trkpt lat="44.56348282998957" lon="10.416226566554231"><ele>444.0</ele><time>2026-04-11T13:11:36.001Z</time></trkpt><trkpt lat="44.56341467172631" lon="10.41624311458992"><ele>444.0</ele><time>2026-04-11T13:11:37.001Z</time></trkpt><trkpt lat="44.56334957691713" lon="10.416272281167666"><ele>444.0</ele><time>2026-04-11T13:11:38.001Z</time></trkpt><trkpt lat="44.56328218084421" lon="10.416312444899955"><ele>444.0</ele><time>2026-04-11T13:11:39.001Z</time></trkpt><trkpt lat="44.56321445950582" lon="10.416348799313536"><ele>444.0</ele><time>2026-04-11T13:11:40.001Z</time></trkpt><trkpt lat="44.563093859815" lon="10.416393611327699"><ele>442.6666666666667</ele><time>2026-04-11T13:11:42Z</time></trkpt><trkpt lat="44.56301455828201" lon="10.416412179779638"><ele>441.33333333333337</ele><time>2026-04-11T13:11:43Z</time></trkpt><trkpt lat="44.56293930239725" lon="10.416441529676723"><ele>440.0</ele><time>2026-04-11T13:11:44Z</time></trkpt><trkpt lat="44.56286531771383" lon="10.416467303203367"><ele>438.6666666666667</ele><time>2026-04-11T13:11:45Z</time></trkpt><trkpt lat="44.562784418957314" lon="10.416495953942508"><ele>437.33333333333337</ele><time>2026-04-11T13:11:46Z</time></trkpt><trkpt lat="44.56270426292349" lon="10.416524999900743"><ele>436.0</ele><time>2026-04-11T13:11:47Z</time></trkpt><trkpt lat="44.56262740374922" lon="10.416555989278296"><ele>436.0</ele><time>2026-04-11T13:11:48Z</time></trkpt><trkpt lat="44.562562930764955" lon="10.416582519747756"><ele>436.0</ele><time>2026-04-11T13:11:49Z</time></trkpt><trkpt lat="44.562464330193286" lon="10.416632302582828"><ele>436.0</ele><time>2026-04-11T13:11:51Z</time></trkpt><trkpt lat="44.56233399287711" lon="10.416702737946359"><ele>436.0</ele><time>2026-04-11T13:11:53Z</time></trkpt><trkpt lat="44.56226001750153" lon="10.416746573175585"><ele>436.0</ele><time>2026-04-11T13:11:54Z</time></trkpt><trkpt lat="44.56213694278559" lon="10.416832184254767"><ele>436.00000000000006</ele><time>2026-04-11T13:11:56Z</time></trkpt><trkpt lat="44.562068495710115" lon="10.416879433300084"><ele>436.0</ele><time>2026-04-11T13:11:57Z</time></trkpt><trkpt lat="44.56198262793529" lon="10.41694820479307"><ele>436.0</ele><time>2026-04-11T13:11:58Z</time></trkpt><trkpt lat="44.56190590392973" lon="10.417018484582556"><ele>436.0</ele><time>2026-04-11T13:11:59Z</time></trkpt><trkpt lat="44.561838390747745" lon="10.417085594487425"><ele>436.00000000000006</ele><time>2026-04-11T13:12:00Z</time></trkpt><trkpt lat="44.56178285386664" lon="10.41714461584762"><ele>436.0</ele><time>2026-04-11T13:12:01Z</time></trkpt><trkpt lat="44.56171788682901" lon="10.417216589118492"><ele>436.00000000000006</ele><time>2026-04-11T13:12:02Z</time></trkpt><trkpt lat="44.56164985572793" lon="10.417289153899018"><ele>436.0</ele><time>2026-04-11T13:12:03Z</time></trkpt><trkpt lat="44.56159018623948" lon="10.417359941357569"><ele>436.0</ele><time>2026-04-11T13:12:04Z</time></trkpt><trkpt lat="44.56153096231332" lon="10.417437132184949"><ele>436.0</ele><time>2026-04-11T13:12:05Z</time></trkpt><trkpt lat="44.561476135333656" lon="10.41752055903023"><ele>436.00000000000006</ele><time>2026-04-11T13:12:06Z</time></trkpt><trkpt lat="44.56141410641524" lon="10.41760798721552"><ele>436.0</ele><time>2026-04-11T13:12:07Z</time></trkpt><trkpt lat="44.56135301563755" lon="10.417697653702458"><ele>436.00000000000006</ele><time>2026-04-11T13:12:08Z</time></trkpt><trkpt lat="44.56129974710583" lon="10.417784546124214"><ele>436.0</ele><time>2026-04-11T13:12:09Z</time></trkpt><trkpt lat="44.56124866936918" lon="10.41787008026921"><ele>436.0</ele><time>2026-04-11T13:12:10Z</time></trkpt><trkpt lat="44.561196755430814" lon="10.417948694519577"><ele>436.0</ele><time>2026-04-11T13:12:11Z</time></trkpt><trkpt lat="44.5611440078729" lon="10.418025731476122"><ele>436.00000000000006</ele><time>2026-04-11T13:12:12Z</time></trkpt><trkpt lat="44.561086801058735" lon="10.418096122462646"><ele>436.0</ele><time>2026-04-11T13:12:13Z</time></trkpt><trkpt lat="44.560977344072434" lon="10.418189358784593"><ele>437.4</ele><time>2026-04-11T13:12:15Z</time></trkpt><trkpt lat="44.56092377655337" lon="10.418246826241313"><ele>438.8</ele><time>2026-04-11T13:12:16Z</time></trkpt><trkpt lat="44.56083644204179" lon="10.418322962445805"><ele>440.19999999999993</ele><time>2026-04-11T13:12:18Z</time></trkpt><trkpt lat="44.56072138401819" lon="10.418372033357473"><ele>441.59999999999997</ele><time>2026-04-11T13:12:20Z</time></trkpt><trkpt lat="44.560605560645016" lon="10.418399907815061"><ele>443.0</ele><time>2026-04-11T13:12:22Z</time></trkpt><trkpt lat="44.560486972367165" lon="10.418415425419923"><ele>442.99999999999994</ele><time>2026-04-11T13:12:24Z</time></trkpt><trkpt lat="44.56042160366896" lon="10.41842601741634"><ele>443.0</ele><time>2026-04-11T13:12:25Z</time></trkpt><trkpt lat="44.560354652765795" lon="10.41842787396852"><ele>443.0</ele><time>2026-04-11T13:12:26Z</time></trkpt><trkpt lat="44.560290394527236" lon="10.418434903071567"><ele>443.0</ele><time>2026-04-11T13:12:27Z</time></trkpt><trkpt lat="44.560196546054556" lon="10.418439939278377"><ele>442.99999999999994</ele><time>2026-04-11T13:12:29Z</time></trkpt><trkpt lat="44.56013054639097" lon="10.418436042314916"><ele>443.0</ele><time>2026-04-11T13:12:31Z</time></trkpt><trkpt lat="44.560116100838265" lon="10.418300150191563"><ele>443.7142857142857</ele><time>2026-04-11T13:12:57Z</time></trkpt><trkpt lat="44.560119072353444" lon="10.418195668784136"><ele>444.42857142857144</ele><time>2026-04-11T13:12:58Z</time></trkpt><trkpt lat="44.56012804734437" lon="10.418097473652633"><ele>445.1428571428571</ele><time>2026-04-11T13:12:59Z</time></trkpt><trkpt lat="44.56012443464068" lon="10.417992305015051"><ele>445.8571428571429</ele><time>2026-04-11T13:13:00Z</time></trkpt><trkpt lat="44.560108122121385" lon="10.417885999597065"><ele>446.57142857142856</ele><time>2026-04-11T13:13:01Z</time></trkpt><trkpt lat="44.56009181593117" lon="10.417784310237494"><ele>447.2857142857143</ele><time>2026-04-11T13:13:02Z</time></trkpt><trkpt lat="44.56007692331574" lon="10.417693871352583"><ele>448.0</ele><time>2026-04-11T13:13:03Z</time></trkpt><trkpt lat="44.560062728220906" lon="10.417587512034697"><ele>449.50000000000006</ele><time>2026-04-11T13:13:04Z</time></trkpt><trkpt lat="44.56005182649226" lon="10.417464063135965"><ele>451.0</ele><time>2026-04-11T13:13:05Z</time></trkpt><trkpt lat="44.560089020624446" lon="10.417316594566909"><ele>452.5</ele><time>2026-04-11T13:13:07Z</time></trkpt><trkpt lat="44.56011654537146" lon="10.417228313964177"><ele>454.0</ele><time>2026-04-11T13:13:07.999Z</time></trkpt><trkpt lat="44.560166604083584" lon="10.417167349551839"><ele>455.50000000000006</ele><time>2026-04-11T13:13:08.999Z</time></trkpt><trkpt lat="44.560202846432176" lon="10.41708157880752"><ele>457.0</ele><time>2026-04-11T13:13:09.999Z</time></trkpt><trkpt lat="44.56021949813309" lon="10.416981398794961"><ele>457.83333333333337</ele><time>2026-04-11T13:13:10.999Z</time></trkpt><trkpt lat="44.560215633011076" lon="10.4168807549925"><ele>458.6666666666667</ele><time>2026-04-11T13:13:11.999Z</time></trkpt><trkpt lat="44.560196134574994" lon="10.416786361439186"><ele>459.5</ele><time>2026-04-11T13:13:12.999Z</time></trkpt><trkpt lat="44.56015731740059" lon="10.416703078642849"><ele>460.33333333333337</ele><time>2026-04-11T13:13:13.999Z</time></trkpt><trkpt lat="44.56014428060842" lon="10.416555961177139"><ele>461.1666666666667</ele><time>2026-04-11T13:13:15.999Z</time></trkpt><trkpt lat="44.56010745906701" lon="10.416470716017177"><ele>462.0</ele><time>2026-04-11T13:13:17.999Z</time></trkpt><trkpt lat="44.559971993157035" lon="10.416477274375621"><ele>462.0</ele><time>2026-04-11T13:13:19.999Z</time></trkpt><trkpt lat="44.559863402796545" lon="10.416496169795927"><ele>462.00000000000006</ele><time>2026-04-11T13:13:20.999Z</time></trkpt><trkpt lat="44.55976547099973" lon="10.41650411786603"><ele>462.00000000000006</ele><time>2026-04-11T13:13:21.999Z</time></trkpt><trkpt lat="44.55966417552119" lon="10.416509779551376"><ele>462.0</ele><time>2026-04-11T13:13:22.999Z</time></trkpt><trkpt lat="44.55955464740713" lon="10.416506658653004"><ele>462.0</ele><time>2026-04-11T13:13:23.999Z</time></trkpt><trkpt lat="44.559443143475086" lon="10.416512550615543"><ele>462.0</ele><time>2026-04-11T13:13:24.999Z</time></trkpt><trkpt lat="44.55933510906265" lon="10.41650810948513"><ele>462.00000000000006</ele><time>2026-04-11T13:13:25.999Z</time></trkpt><trkpt lat="44.5592246951496" lon="10.416499888231002"><ele>462.00000000000006</ele><time>2026-04-11T13:13:26.999Z</time></trkpt><trkpt lat="44.55911389747077" lon="10.416496532983125"><ele>462.0</ele><time>2026-04-11T13:13:27.999Z</time></trkpt><trkpt lat="44.55901025744273" lon="10.416495124078498"><ele>462.0</ele><time>2026-04-11T13:13:28.999Z</time></trkpt><trkpt lat="44.55893334613852" lon="10.416501754355654"><ele>462.0</ele><time>2026-04-11T13:13:29.999Z</time></trkpt><trkpt lat="44.55884909339189" lon="10.416503450820809"><ele>462.0</ele><time>2026-04-11T13:13:31.999Z</time></trkpt><trkpt lat="44.55882230785843" lon="10.416379100698194"><ele>462.0</ele><time>2026-04-11T13:13:33.999Z</time></trkpt><trkpt lat="44.55884353619693" lon="10.416266567624783"><ele>462.0</ele><time>2026-04-11T13:13:36Z</time></trkpt><trkpt lat="44.55884931679355" lon="10.416157877289866"><ele>462.0</ele><time>2026-04-11T13:13:57Z</time></trkpt><trkpt lat="44.5588582660424" lon="10.416058706598204"><ele>462.0</ele><time>2026-04-11T13:13:59Z</time></trkpt><trkpt lat="44.55885914691358" lon="10.415936840541708"><ele>460.8333333333333</ele><time>2026-04-11T13:14:01Z</time></trkpt><trkpt lat="44.558823299373124" lon="10.415803411067746"><ele>459.66666666666663</ele><time>2026-04-11T13:14:03Z</time></trkpt><trkpt lat="44.55877543341059" lon="10.415723736287005"><ele>458.5</ele><time>2026-04-11T13:14:05Z</time></trkpt><trkpt lat="44.55871172850058" lon="10.415694955810642"><ele>457.3333333333333</ele><time>2026-04-11T13:14:07Z</time></trkpt><trkpt lat="44.55864073249866" lon="10.41566374462307"><ele>456.16666666666663</ele><time>2026-04-11T13:14:18Z</time></trkpt><trkpt lat="44.55859116391513" lon="10.415582335502421"><ele>455.0</ele><time>2026-04-11T13:14:23Z</time></trkpt><trkpt lat="44.55851969450128" lon="10.415482551005706"><ele>451.2</ele><time>2026-04-11T13:14:25Z</time></trkpt><trkpt lat="44.55846395166872" lon="10.415343855003325"><ele>447.4</ele><time>2026-04-11T13:14:27Z</time></trkpt><trkpt lat="44.558425827838605" lon="10.415271977781666"><ele>443.6</ele><time>2026-04-11T13:14:28Z</time></trkpt><trkpt lat="44.558385709828954" lon="10.415192324755386"><ele>439.8</ele><time>2026-04-11T13:14:29Z</time></trkpt><trkpt lat="44.5583321273805" lon="10.415065902495881"><ele>436.0</ele><time>2026-04-11T13:14:31Z</time></trkpt><trkpt lat="44.5582848601738" lon="10.414938269443844"><ele>436.00000000000006</ele><time>2026-04-11T13:14:33Z</time></trkpt><trkpt lat="44.55825158173695" lon="10.414820392636088"><ele>436.0</ele><time>2026-04-11T13:14:35Z</time></trkpt><trkpt lat="44.558225828377225" lon="10.414702062774507"><ele>436.0</ele><time>2026-04-11T13:14:37Z</time></trkpt><trkpt lat="44.558211095683234" lon="10.414586605050081"><ele>436.0</ele><time>2026-04-11T13:14:39Z</time></trkpt><trkpt lat="44.5581555118435" lon="10.414515928852541"><ele>436.00000000000006</ele><time>2026-04-11T13:14:42Z</time></trkpt><trkpt lat="44.5580942898492" lon="10.414456942147549"><ele>436.0</ele><time>2026-04-11T13:14:44Z</time></trkpt><trkpt lat="44.558098319119516" lon="10.414339507485291"><ele>433.83333333333337</ele><time>2026-04-11T13:14:46Z</time></trkpt><trkpt lat="44.55813756765056" lon="10.414202057377485"><ele>431.6666666666667</ele><time>2026-04-11T13:14:48Z</time></trkpt><trkpt lat="44.55814592927732" lon="10.414101616296035"><ele>429.5</ele><time>2026-04-11T13:14:51Z</time></trkpt><trkpt lat="44.55809314686219" lon="10.414033007291913"><ele>427.33333333333337</ele><time>2026-04-11T13:14:53.999Z</time></trkpt><trkpt lat="44.558012539567144" lon="10.414100649981313"><ele>425.1666666666667</ele><time>2026-04-11T13:14:56.999Z</time></trkpt><trkpt lat="44.557947022693874" lon="10.41415738250839"><ele>423.0</ele><time>2026-04-11T13:14:58.999Z</time></trkpt><trkpt lat="44.55786512442201" lon="10.414176071328528"><ele>421.79999999999995</ele><time>2026-04-11T13:15:00.999Z</time></trkpt><trkpt lat="44.557773506432696" lon="10.41423347438158"><ele>420.6</ele><time>2026-04-11T13:15:02.999Z</time></trkpt><trkpt lat="44.557686214088385" lon="10.414284736826017"><ele>419.4</ele><time>2026-04-11T13:15:04.999Z</time></trkpt><trkpt lat="44.55759295160408" lon="10.414358217211237"><ele>418.20000000000005</ele><time>2026-04-11T13:15:06.999Z</time></trkpt><trkpt lat="44.55750931271879" lon="10.414363838257685"><ele>417.0</ele><time>2026-04-11T13:15:08.999Z</time></trkpt><trkpt lat="44.55744515891358" lon="10.414350343264369"><ele>417.0</ele><time>2026-04-11T13:15:13.999Z</time></trkpt><trkpt lat="44.55738125827402" lon="10.41435124646578"><ele>417.0</ele><time>2026-04-11T13:15:21.999Z</time></trkpt><trkpt lat="44.55730916250226" lon="10.414349175780226"><ele>417.0</ele><time>2026-04-11T13:15:23.999Z</time></trkpt><trkpt lat="44.55720435502944" lon="10.414312928819767"><ele>417.0</ele><time>2026-04-11T13:15:25.999Z</time></trkpt><trkpt lat="44.55711861743226" lon="10.414286950547504"><ele>417.0</ele><time>2026-04-11T13:15:27.999Z</time></trkpt><trkpt lat="44.55704218496582" lon="10.414252247611003"><ele>417.0</ele><time>2026-04-11T13:15:29.999Z</time></trkpt><trkpt lat="44.55696634116208" lon="10.414199075396985"><ele>415.6</ele><time>2026-04-11T13:15:32.999Z</time></trkpt><trkpt lat="44.556866189291455" lon="10.414259126567574"><ele>414.20000000000005</ele><time>2026-04-11T13:15:34.999Z</time></trkpt><trkpt lat="44.5567660836205" lon="10.414272674523765"><ele>412.8</ele><time>2026-04-11T13:15:36.999Z</time></trkpt><trkpt lat="44.55667907071415" lon="10.414245785121814"><ele>411.4</ele><time>2026-04-11T13:15:38.999Z</time></trkpt><trkpt lat="44.556583713697044" lon="10.414242155421974"><ele>410.0</ele><time>2026-04-11T13:15:41Z</time></trkpt><trkpt lat="44.55650338839427" lon="10.414265385981436"><ele>409.99999999999994</ele><time>2026-04-11T13:15:43Z</time></trkpt><trkpt lat="44.55642642125916" lon="10.414301726024696"><ele>410.0</ele><time>2026-04-11T13:15:45Z</time></trkpt><trkpt lat="44.55634021431554" lon="10.414319366888673"><ele>410.0</ele><time>2026-04-11T13:15:47Z</time></trkpt><trkpt lat="44.55625336935386" lon="10.414285174200808"><ele>410.0</ele><time>2026-04-11T13:15:49Z</time></trkpt><trkpt lat="44.556178971546075" lon="10.414286707456158"><ele>409.99999999999994</ele><time>2026-04-11T13:15:51Z</time></trkpt><trkpt lat="44.55610632952834" lon="10.414302266486454"><ele>410.0</ele><time>2026-04-11T13:15:53Z</time></trkpt><trkpt lat="44.55603850154022" lon="10.41435076051344"><ele>410.49999999999994</ele><time>2026-04-11T13:15:55Z</time></trkpt><trkpt lat="44.55598859320199" lon="10.414441725486217"><ele>411.0</ele><time>2026-04-11T13:15:57Z</time></trkpt><trkpt lat="44.5559209265888" lon="10.414470315853675"><ele>411.5</ele><time>2026-04-11T13:16:00Z</time></trkpt><trkpt lat="44.55585945354676" lon="10.414402035664168"><ele>412.0</ele><time>2026-04-11T13:16:09Z</time></trkpt><trkpt lat="44.55580274296199" lon="10.414320024422393"><ele>412.49999999999994</ele><time>2026-04-11T13:16:11Z</time></trkpt><trkpt lat="44.555735841094396" lon="10.414240692932735"><ele>413.0</ele><time>2026-04-11T13:16:13Z</time></trkpt><trkpt lat="44.55563854726508" lon="10.414250341213169"><ele>412.99999999999994</ele><time>2026-04-11T13:16:16Z</time></trkpt><trkpt lat="44.55553554342949" lon="10.414242376651982"><ele>413.0</ele><time>2026-04-11T13:16:18Z</time></trkpt><trkpt lat="44.555475912699244" lon="10.414210824258502"><ele>413.0</ele><time>2026-04-11T13:16:19Z</time></trkpt><trkpt lat="44.5554083340424" lon="10.414114083203009"><ele>413.0</ele><time>2026-04-11T13:16:21Z</time></trkpt><trkpt lat="44.55537397919268" lon="10.414036486279107"><ele>412.99999999999994</ele><time>2026-04-11T13:16:22Z</time></trkpt><trkpt lat="44.55533935186741" lon="10.41394276665247"><ele>413.0</ele><time>2026-04-11T13:16:23Z</time></trkpt><trkpt lat="44.5553047545649" lon="10.413852682158659"><ele>417.16666666666663</ele><time>2026-04-11T13:16:24Z</time></trkpt><trkpt lat="44.55527459921622" lon="10.413759258151867"><ele>421.3333333333333</ele><time>2026-04-11T13:16:25Z</time></trkpt><trkpt lat="44.55525370332136" lon="10.413666057618178"><ele>425.5</ele><time>2026-04-11T13:16:26Z</time></trkpt><trkpt lat="44.55525745973395" lon="10.413569748567443"><ele>429.66666666666663</ele><time>2026-04-11T13:16:27Z</time></trkpt><trkpt lat="44.555265677979314" lon="10.413481865842359"><ele>433.8333333333333</ele><time>2026-04-11T13:16:28Z</time></trkpt><trkpt lat="44.55528062310968" lon="10.41338269084491"><ele>438.0</ele><time>2026-04-11T13:16:29Z</time></trkpt><trkpt lat="44.55530119348589" lon="10.413239896446623"><ele>438.0</ele><time>2026-04-11T13:16:31Z</time></trkpt><trkpt lat="44.55528989750777" lon="10.413134294699137"><ele>438.0</ele><time>2026-04-11T13:16:32Z</time></trkpt><trkpt lat="44.55525622267892" lon="10.413031332800397"><ele>438.0</ele><time>2026-04-11T13:16:33Z</time></trkpt><trkpt lat="44.55522241215178" lon="10.412925679738"><ele>438.0</ele><time>2026-04-11T13:16:34Z</time></trkpt><trkpt lat="44.55519461992433" lon="10.412842052903661"><ele>438.0</ele><time>2026-04-11T13:16:35Z</time></trkpt><trkpt lat="44.55514720876778" lon="10.412777049987167"><ele>438.0</ele><time>2026-04-11T13:16:36Z</time></trkpt><trkpt lat="44.55502017223281" lon="10.41271584161641"><ele>437.0</ele><time>2026-04-11T13:16:37.999Z</time></trkpt><trkpt lat="44.55494247997604" lon="10.41271294268458"><ele>436.0</ele><time>2026-04-11T13:16:38.999Z</time></trkpt><trkpt lat="44.55486169315288" lon="10.412707645437688"><ele>435.0</ele><time>2026-04-11T13:16:39.999Z</time></trkpt><trkpt lat="44.55478297493653" lon="10.412699934689437"><ele>434.0</ele><time>2026-04-11T13:16:40.999Z</time></trkpt><trkpt lat="44.55470182518731" lon="10.412694288361818"><ele>433.0</ele><time>2026-04-11T13:16:41.999Z</time></trkpt><trkpt lat="44.554618516134006" lon="10.41268298787323"><ele>432.0</ele><time>2026-04-11T13:16:42.999Z</time></trkpt><trkpt lat="44.55453842313786" lon="10.412681994928775"><ele>432.2857142857143</ele><time>2026-04-11T13:16:43.999Z</time></trkpt><trkpt lat="44.55446548992914" lon="10.412684506631383"><ele>432.57142857142856</ele><time>2026-04-11T13:16:44.999Z</time></trkpt><trkpt lat="44.55438710393735" lon="10.412690707198689"><ele>432.8571428571429</ele><time>2026-04-11T13:16:45.999Z</time></trkpt><trkpt lat="44.55431353391765" lon="10.412696396237838"><ele>433.1428571428571</ele><time>2026-04-11T13:16:46.999Z</time></trkpt><trkpt lat="44.55424290822554" lon="10.412708770246681"><ele>433.42857142857144</ele><time>2026-04-11T13:16:47.999Z</time></trkpt><trkpt lat="44.55417210842087" lon="10.412716041834843"><ele>433.7142857142857</ele><time>2026-04-11T13:16:48.999Z</time></trkpt><trkpt lat="44.55409297345348" lon="10.4127362970452"><ele>434.0</ele><time>2026-04-11T13:16:49.999Z</time></trkpt><trkpt lat="44.554020867165136" lon="10.412753605774137"><ele>433.99999999999994</ele><time>2026-04-11T13:16:50.999Z</time></trkpt><trkpt lat="44.55395081482131" lon="10.412776994270436"><ele>434.0</ele><time>2026-04-11T13:16:51.999Z</time></trkpt><trkpt lat="44.553881562416315" lon="10.412812897485253"><ele>434.0</ele><time>2026-04-11T13:16:52.999Z</time></trkpt><trkpt lat="44.55381800853434" lon="10.412844132916804"><ele>434.0</ele><time>2026-04-11T13:16:53.999Z</time></trkpt><trkpt lat="44.553721642733514" lon="10.412901152651955"><ele>433.99999999999994</ele><time>2026-04-11T13:16:55.999Z</time></trkpt><trkpt lat="44.55365387900739" lon="10.412951729684897"><ele>434.0</ele><time>2026-04-11T13:16:57.999Z</time></trkpt><trkpt lat="44.55357963094393" lon="10.412900728937247"><ele>436.79999999999995</ele><time>2026-04-11T13:16:59.999Z</time></trkpt><trkpt lat="44.55354687215467" lon="10.412759232452196"><ele>439.59999999999997</ele><time>2026-04-11T13:17:01.999Z</time></trkpt><trkpt lat="44.55351114710418" lon="10.412612770742507"><ele>442.4</ele><time>2026-04-11T13:17:03.999Z</time></trkpt><trkpt lat="44.55348803935158" lon="10.412518924118363"><ele>445.2</ele><time>2026-04-11T13:17:04.999Z</time></trkpt><trkpt lat="44.553460690397415" lon="10.4124117830934"><ele>448.0</ele><time>2026-04-11T13:17:05.999Z</time></trkpt><trkpt lat="44.55344969218719" lon="10.412289319391215"><ele>448.00000000000006</ele><time>2026-04-11T13:17:06.999Z</time></trkpt><trkpt lat="44.55342665821333" lon="10.412176185715234"><ele>448.0</ele><time>2026-04-11T13:17:07.999Z</time></trkpt><trkpt lat="44.553410006936886" lon="10.412078504491646"><ele>448.0</ele><time>2026-04-11T13:17:08.999Z</time></trkpt><trkpt lat="44.553393515358344" lon="10.411966986442266"><ele>448.0</ele><time>2026-04-11T13:17:09.999Z</time></trkpt><trkpt lat="44.55337982871279" lon="10.411877405793366"><ele>448.00000000000006</ele><time>2026-04-11T13:17:10.999Z</time></trkpt><trkpt lat="44.55341540238435" lon="10.411719678484152"><ele>448.0</ele><time>2026-04-11T13:17:12.999Z</time></trkpt><trkpt lat="44.55344741793072" lon="10.411631059262444"><ele>447.59999999999997</ele><time>2026-04-11T13:17:13.999Z</time></trkpt><trkpt lat="44.553493069025876" lon="10.411547471404653"><ele>447.19999999999993</ele><time>2026-04-11T13:17:14.999Z</time></trkpt><trkpt lat="44.55355660677202" lon="10.41150006697435"><ele>446.8</ele><time>2026-04-11T13:17:15.999Z</time></trkpt><trkpt lat="44.553631121004116" lon="10.41136935731115"><ele>446.4</ele><time>2026-04-11T13:17:17.999Z</time></trkpt><trkpt lat="44.55362390109348" lon="10.41123151756051"><ele>446.0</ele><time>2026-04-11T13:17:19.999Z</time></trkpt><trkpt lat="44.55352513085793" lon="10.411131520106295"><ele>445.99999999999994</ele><time>2026-04-11T13:17:21.999Z</time></trkpt><trkpt lat="44.55346541110377" lon="10.411033671845248"><ele>446.0</ele><time>2026-04-11T13:17:22.999Z</time></trkpt><trkpt lat="44.553388042915316" lon="10.41096408566698"><ele>446.0</ele><time>2026-04-11T13:17:23.999Z</time></trkpt><trkpt lat="44.55331056022858" lon="10.410900716278876"><ele>446.0</ele><time>2026-04-11T13:17:24.999Z</time></trkpt><trkpt lat="44.55325299167049" lon="10.410851073674264"><ele>445.99999999999994</ele><time>2026-04-11T13:17:25.999Z</time></trkpt><trkpt lat="44.55317350153811" lon="10.410768486990529"><ele>446.0</ele><time>2026-04-11T13:17:27.999Z</time></trkpt><trkpt lat="44.55311280094362" lon="10.410706020013365"><ele>446.0</ele><time>2026-04-11T13:17:29.999Z</time></trkpt><trkpt lat="44.55303522012508" lon="10.410604043611642"><ele>446.0</ele><time>2026-04-11T13:17:32.999Z</time></trkpt><trkpt lat="44.553009514688185" lon="10.410491766583869"><ele>446.0</ele><time>2026-04-11T13:17:35.999Z</time></trkpt><trkpt lat="44.55305081260095" lon="10.410377855928415"><ele>446.0</ele><time>2026-04-11T13:17:37.999Z</time></trkpt><trkpt lat="44.55312699544943" lon="10.41019193734874"><ele>446.0</ele><time>2026-04-11T13:17:39.999Z</time></trkpt><trkpt lat="44.553169700151" lon="10.410090992660098"><ele>446.8</ele><time>2026-04-11T13:17:40.999Z</time></trkpt><trkpt lat="44.553209679696884" lon="10.410010192213747"><ele>447.6</ele><time>2026-04-11T13:17:41.999Z</time></trkpt><trkpt lat="44.55324980509929" lon="10.409939611873119"><ele>448.4</ele><time>2026-04-11T13:17:42.999Z</time></trkpt><trkpt lat="44.55333812973106" lon="10.409822718690956"><ele>449.2</ele><time>2026-04-11T13:17:44.999Z</time></trkpt><trkpt lat="44.553424940117075" lon="10.409724459249967"><ele>450.0</ele><time>2026-04-11T13:17:47Z</time></trkpt><trkpt lat="44.55347021696365" lon="10.409589643623896"><ele>452.4</ele><time>2026-04-11T13:17:49Z</time></trkpt><trkpt lat="44.553420269457206" lon="10.409490149965725"><ele>454.8</ele><time>2026-04-11T13:17:52Z</time></trkpt><trkpt lat="44.553445008187495" lon="10.409340076254086"><ele>457.20000000000005</ele><time>2026-04-11T13:17:55Z</time></trkpt><trkpt lat="44.55347898642342" lon="10.40916116987693"><ele>459.6</ele><time>2026-04-11T13:17:57Z</time></trkpt><trkpt lat="44.55348748336786" lon="10.409016128928002"><ele>462.0</ele><time>2026-04-11T13:17:59Z</time></trkpt><trkpt lat="44.55348263786288" lon="10.4089228872207"><ele>463.20000000000005</ele><time>2026-04-11T13:18:01Z</time></trkpt><trkpt lat="44.55343619709218" lon="10.408797147699635"><ele>464.40000000000003</ele><time>2026-04-11T13:18:09Z</time></trkpt><trkpt lat="44.55333146136995" lon="10.40872773410447"><ele>465.59999999999997</ele><time>2026-04-11T13:18:11Z</time></trkpt><trkpt lat="44.55321276493704" lon="10.408657587741223"><ele>466.79999999999995</ele><time>2026-04-11T13:18:13Z</time></trkpt><trkpt lat="44.55313293911476" lon="10.40861737341763"><ele>468.0</ele><time>2026-04-11T13:18:14Z</time></trkpt><trkpt lat="44.55302896416021" lon="10.408578338029978"><ele>468.0</ele><time>2026-04-11T13:18:15Z</time></trkpt><trkpt lat="44.5529300186607" lon="10.408534990200254"><ele>468.0</ele><time>2026-04-11T13:18:17Z</time></trkpt><trkpt lat="44.552864122032034" lon="10.40851069948688"><ele>468.0</ele><time>2026-04-11T13:18:18Z</time></trkpt><trkpt lat="44.552802065242176" lon="10.408449115836369"><ele>468.0</ele><time>2026-04-11T13:18:20Z</time></trkpt><trkpt lat="44.55280442577935" lon="10.40834494631773"><ele>468.0</ele><time>2026-04-11T13:18:22Z</time></trkpt><trkpt lat="44.5527473590539" lon="10.408232682686217"><ele>468.0</ele><time>2026-04-11T13:18:24Z</time></trkpt><trkpt lat="44.55270966596291" lon="10.408118190365432"><ele>470.4</ele><time>2026-04-11T13:18:26Z</time></trkpt><trkpt lat="44.55270121168131" lon="10.40798607011039"><ele>472.79999999999995</ele><time>2026-04-11T13:18:28Z</time></trkpt><trkpt lat="44.55268942064168" lon="10.40786400291322"><ele>475.2</ele><time>2026-04-11T13:18:30Z</time></trkpt><trkpt lat="44.55258119685492" lon="10.407841848466198"><ele>477.6</ele><time>2026-04-11T13:18:32Z</time></trkpt><trkpt lat="44.5524830561615" lon="10.40780972127757"><ele>480.0</ele><time>2026-04-11T13:18:34Z</time></trkpt><trkpt lat="44.552394843857435" lon="10.407801635696728"><ele>480.0</ele><time>2026-04-11T13:18:37Z</time></trkpt><trkpt lat="44.552281187371086" lon="10.407824207364607"><ele>480.0</ele><time>2026-04-11T13:18:39Z</time></trkpt><trkpt lat="44.55219642308532" lon="10.407814833866514"><ele>480.0</ele><time>2026-04-11T13:18:41Z</time></trkpt><trkpt lat="44.55210500733342" lon="10.407828481271878"><ele>480.0</ele><time>2026-04-11T13:18:43Z</time></trkpt><trkpt lat="44.552037814376696" lon="10.407828285219622"><ele>480.0</ele><time>2026-04-11T13:18:45Z</time></trkpt><trkpt lat="44.551983109951244" lon="10.407881864883429"><ele>480.0</ele><time>2026-04-11T13:18:47Z</time></trkpt><trkpt lat="44.55199117077506" lon="10.408012075013831"><ele>484.5</ele><time>2026-04-11T13:18:49Z</time></trkpt><trkpt lat="44.5519796913857" lon="10.408103366042933"><ele>489.0</ele><time>2026-04-11T13:18:50Z</time></trkpt><trkpt lat="44.5519010740793" lon="10.408230316239223"><ele>493.5</ele><time>2026-04-11T13:18:52Z</time></trkpt><trkpt lat="44.5518430027561" lon="10.408269966807282"><ele>498.0</ele><time>2026-04-11T13:18:53Z</time></trkpt><trkpt lat="44.55178348067534" lon="10.408312577569916"><ele>502.5</ele><time>2026-04-11T13:18:54Z</time></trkpt><trkpt lat="44.55170108027208" lon="10.408369942575733"><ele>507.0</ele><time>2026-04-11T13:18:56Z</time></trkpt><trkpt lat="44.551624721364725" lon="10.408394788790432"><ele>507.0</ele><time>2026-04-11T13:18:58Z</time></trkpt><trkpt lat="44.55150666229337" lon="10.408288830111154"><ele>507.00000000000006</ele><time>2026-04-11T13:19:00Z</time></trkpt><trkpt lat="44.551407195328736" lon="10.408221204041093"><ele>507.00000000000006</ele><time>2026-04-11T13:19:01.999Z</time></trkpt><trkpt lat="44.551304398614874" lon="10.408186314034257"><ele>507.0</ele><time>2026-04-11T13:19:03.999Z</time></trkpt><trkpt lat="44.55123701954048" lon="10.408195662516354"><ele>507.0</ele><time>2026-04-11T13:19:04.999Z</time></trkpt><trkpt lat="44.551168949582824" lon="10.408221105473205"><ele>509.6666666666667</ele><time>2026-04-11T13:19:05.999Z</time></trkpt><trkpt lat="44.5511062310057" lon="10.408243100971013"><ele>512.3333333333334</ele><time>2026-04-11T13:19:06.999Z</time></trkpt><trkpt lat="44.55103945915745" lon="10.408248433637054"><ele>515.0</ele><time>2026-04-11T13:19:08.999Z</time></trkpt><trkpt lat="44.55094303397856" lon="10.408204227041054"><ele>517.6666666666667</ele><time>2026-04-11T13:19:10.999Z</time></trkpt><trkpt lat="44.550922927765576" lon="10.408066616256972"><ele>520.3333333333334</ele><time>2026-04-11T13:19:12.999Z</time></trkpt><trkpt lat="44.55087741652417" lon="10.407997318995644"><ele>523.0</ele><time>2026-04-11T13:19:14.999Z</time></trkpt><trkpt lat="44.550773146927746" lon="10.408112977120672"><ele>523.0</ele><time>2026-04-11T13:19:16.999Z</time></trkpt><trkpt lat="44.55069999453841" lon="10.408190732324002"><ele>523.0</ele><time>2026-04-11T13:19:17.999Z</time></trkpt><trkpt lat="44.55062782397938" lon="10.408249145230705"><ele>523.0</ele><time>2026-04-11T13:19:18.999Z</time></trkpt><trkpt lat="44.55054640724918" lon="10.408306239591989"><ele>523.0</ele><time>2026-04-11T13:19:19.999Z</time></trkpt><trkpt lat="44.55047947181344" lon="10.408371179133372"><ele>523.0</ele><time>2026-04-11T13:19:20.999Z</time></trkpt><trkpt lat="44.550423876429974" lon="10.408424350134279"><ele>523.0</ele><time>2026-04-11T13:19:21.999Z</time></trkpt><trkpt lat="44.55036827912737" lon="10.408472402767293"><ele>526.8</ele><time>2026-04-11T13:19:22.999Z</time></trkpt><trkpt lat="44.5502605562747" lon="10.408566498190522"><ele>530.5999999999999</ele><time>2026-04-11T13:19:24.999Z</time></trkpt><trkpt lat="44.55017226414188" lon="10.408674377291506"><ele>534.4000000000001</ele><time>2026-04-11T13:19:26.999Z</time></trkpt><trkpt lat="44.550072458666655" lon="10.408755614787545"><ele>538.2</ele><time>2026-04-11T13:19:28.999Z</time></trkpt><trkpt lat="44.55000125837145" lon="10.408781931162272"><ele>542.0</ele><time>2026-04-11T13:19:29.999Z</time></trkpt><trkpt lat="44.54993338557337" lon="10.408790124963126"><ele>541.0</ele><time>2026-04-11T13:19:30.999Z</time></trkpt><trkpt lat="44.54985075364183" lon="10.40882617790467"><ele>540.0</ele><time>2026-04-11T13:19:32.999Z</time></trkpt><trkpt lat="44.54978366248661" lon="10.408883221520734"><ele>539.0</ele><time>2026-04-11T13:19:33.999Z</time></trkpt><trkpt lat="44.54972267276364" lon="10.408964137244881"><ele>538.0</ele><time>2026-04-11T13:19:34.999Z</time></trkpt><trkpt lat="44.54963414901697" lon="10.40906736802003"><ele>537.0</ele><time>2026-04-11T13:19:35.999Z</time></trkpt><trkpt lat="44.54958507515627" lon="10.40914544526489"><ele>536.0</ele><time>2026-04-11T13:19:36.999Z</time></trkpt><trkpt lat="44.54949785313343" lon="10.409235297823674"><ele>540.1666666666666</ele><time>2026-04-11T13:19:38.999Z</time></trkpt><trkpt lat="44.54944817579835" lon="10.409301713968654"><ele>544.3333333333333</ele><time>2026-04-11T13:19:40.999Z</time></trkpt><trkpt lat="44.549386097868556" lon="10.409411446151564"><ele>548.5</ele><time>2026-04-11T13:19:42.999Z</time></trkpt><trkpt lat="44.54932038400829" lon="10.409453670541406"><ele>552.6666666666666</ele><time>2026-04-11T13:19:43.999Z</time></trkpt><trkpt lat="44.54925976899102" lon="10.40947836648908"><ele>556.8333333333334</ele><time>2026-04-11T13:19:44.999Z</time></trkpt><trkpt lat="44.549190588337126" lon="10.409521819337083"><ele>561.0</ele><time>2026-04-11T13:19:45.999Z</time></trkpt><trkpt lat="44.54911534349486" lon="10.409538089397946"><ele>561.0</ele><time>2026-04-11T13:19:46.999Z</time></trkpt><trkpt lat="44.5490377763646" lon="10.409571052278528"><ele>561.0</ele><time>2026-04-11T13:19:47.999Z</time></trkpt><trkpt lat="44.54895497389731" lon="10.409602578284268"><ele>561.0</ele><time>2026-04-11T13:19:48.999Z</time></trkpt><trkpt lat="44.5488673184118" lon="10.409636404018194"><ele>561.0</ele><time>2026-04-11T13:19:49.999Z</time></trkpt><trkpt lat="44.548802013636255" lon="10.409670162353335"><ele>561.0</ele><time>2026-04-11T13:19:50.999Z</time></trkpt><trkpt lat="44.54871702219476" lon="10.409701876603892"><ele>561.0</ele><time>2026-04-11T13:19:51.999Z</time></trkpt><trkpt lat="44.54862573178599" lon="10.409731840172377"><ele>561.5</ele><time>2026-04-11T13:19:53Z</time></trkpt><trkpt lat="44.54853403195893" lon="10.409770096751602"><ele>562.0</ele><time>2026-04-11T13:19:54Z</time></trkpt><trkpt lat="44.548452508606886" lon="10.409812760972661"><ele>562.5</ele><time>2026-04-11T13:19:55Z</time></trkpt><trkpt lat="44.548364229205475" lon="10.409878260524515"><ele>563.0</ele><time>2026-04-11T13:19:56Z</time></trkpt><trkpt lat="44.54829489525822" lon="10.40994766381505"><ele>563.5</ele><time>2026-04-11T13:19:57Z</time></trkpt><trkpt lat="44.548230375360134" lon="10.410012360177502"><ele>564.0</ele><time>2026-04-11T13:19:58Z</time></trkpt><trkpt lat="44.54817738944126" lon="10.410081766600136"><ele>564.0</ele><time>2026-04-11T13:19:59Z</time></trkpt><trkpt lat="44.54810353637881" lon="10.410153590832993"><ele>564.0</ele><time>2026-04-11T13:20:00Z</time></trkpt><trkpt lat="44.54802181288842" lon="10.410239775049213"><ele>564.0</ele><time>2026-04-11T13:20:01Z</time></trkpt><trkpt lat="44.54795668677034" lon="10.41035060333087"><ele>564.0</ele><time>2026-04-11T13:20:02Z</time></trkpt><trkpt lat="44.54788019397236" lon="10.41046756103841"><ele>564.0</ele><time>2026-04-11T13:20:03Z</time></trkpt><trkpt lat="44.54780372997182" lon="10.410566868075904"><ele>565.0</ele><time>2026-04-11T13:20:04Z</time></trkpt><trkpt lat="44.54773953069892" lon="10.410663495434939"><ele>566.0</ele><time>2026-04-11T13:20:05Z</time></trkpt><trkpt lat="44.54766602201419" lon="10.410766414501127"><ele>567.0</ele><time>2026-04-11T13:20:06Z</time></trkpt><trkpt lat="44.54759453487349" lon="10.410833246474265"><ele>568.0</ele><time>2026-04-11T13:20:07Z</time></trkpt><trkpt lat="44.54753371539142" lon="10.410889525498805"><ele>569.0</ele><time>2026-04-11T13:20:08Z</time></trkpt><trkpt lat="44.54747673426294" lon="10.410952846278805"><ele>570.0</ele><time>2026-04-11T13:20:09Z</time></trkpt><trkpt lat="44.547381787618164" lon="10.411017011967333"><ele>570.0</ele><time>2026-04-11T13:20:11Z</time></trkpt><trkpt lat="44.54729522909372" lon="10.411043766314235"><ele>570.0</ele><time>2026-04-11T13:20:12Z</time></trkpt><trkpt lat="44.54721124580434" lon="10.411045035169213"><ele>570.0</ele><time>2026-04-11T13:20:13Z</time></trkpt><trkpt lat="44.54713053309085" lon="10.411065947239877"><ele>570.0</ele><time>2026-04-11T13:20:14Z</time></trkpt><trkpt lat="44.54704801290051" lon="10.411108509231033"><ele>570.0</ele><time>2026-04-11T13:20:15Z</time></trkpt><trkpt lat="44.54697851426444" lon="10.41115812693804"><ele>570.0</ele><time>2026-04-11T13:20:16Z</time></trkpt><trkpt lat="44.54689555999745" lon="10.411226511395373"><ele>569.8333333333334</ele><time>2026-04-11T13:20:17Z</time></trkpt><trkpt lat="44.546815047653126" lon="10.411282777967605"><ele>569.6666666666666</ele><time>2026-04-11T13:20:18Z</time></trkpt><trkpt lat="44.54673364721692" lon="10.411342845886784"><ele>569.5</ele><time>2026-04-11T13:20:19Z</time></trkpt><trkpt lat="44.546651802628595" lon="10.411408068807875"><ele>569.3333333333333</ele><time>2026-04-11T13:20:20Z</time></trkpt><trkpt lat="44.54658302378563" lon="10.411459251416682"><ele>569.1666666666666</ele><time>2026-04-11T13:20:21Z</time></trkpt><trkpt lat="44.546513352384686" lon="10.411503805699496"><ele>569.0</ele><time>2026-04-11T13:20:22Z</time></trkpt><trkpt lat="44.54643307731129" lon="10.411556795306804"><ele>569.0</ele><time>2026-04-11T13:20:23Z</time></trkpt><trkpt lat="44.54636637889038" lon="10.411591472672258"><ele>569.0</ele><time>2026-04-11T13:20:24Z</time></trkpt><trkpt lat="44.54631049647688" lon="10.411634831645951"><ele>569.0</ele><time>2026-04-11T13:20:25Z</time></trkpt><trkpt lat="44.546247045592196" lon="10.411708112149732"><ele>569.0</ele><time>2026-04-11T13:20:26Z</time></trkpt><trkpt lat="44.54619686413893" lon="10.411799986475385"><ele>569.0</ele><time>2026-04-11T13:20:27Z</time></trkpt><trkpt lat="44.546129467434156" lon="10.411863844295548"><ele>569.0</ele><time>2026-04-11T13:20:28Z</time></trkpt><trkpt lat="44.54599822475988" lon="10.41189571705118"><ele>570.1666666666666</ele><time>2026-04-11T13:20:30Z</time></trkpt><trkpt lat="44.54593088721992" lon="10.411869717068134"><ele>571.3333333333333</ele><time>2026-04-11T13:20:31Z</time></trkpt><trkpt lat="44.54585188056135" lon="10.411812919403236"><ele>572.5</ele><time>2026-04-11T13:20:32Z</time></trkpt><trkpt lat="44.54577513681051" lon="10.411739857864223"><ele>573.6666666666666</ele><time>2026-04-11T13:20:33Z</time></trkpt><trkpt lat="44.54569575283811" lon="10.411689600675116"><ele>574.8333333333334</ele><time>2026-04-11T13:20:34Z</time></trkpt><trkpt lat="44.54559573071384" lon="10.411668193326346"><ele>576.0</ele><time>2026-04-11T13:20:35Z</time></trkpt><trkpt lat="44.545508201717816" lon="10.411652313392816"><ele>576.0</ele><time>2026-04-11T13:20:36Z</time></trkpt><trkpt lat="44.545406764413485" lon="10.411655210125595"><ele>576.0</ele><time>2026-04-11T13:20:37Z</time></trkpt><trkpt lat="44.54529803202267" lon="10.411644199299204"><ele>576.0</ele><time>2026-04-11T13:20:38Z</time></trkpt><trkpt lat="44.54518512839008" lon="10.411625528082649"><ele>576.0</ele><time>2026-04-11T13:20:39Z</time></trkpt><trkpt lat="44.545079655179784" lon="10.411605799747056"><ele>576.0</ele><time>2026-04-11T13:20:40Z</time></trkpt><trkpt lat="44.544998872264486" lon="10.411577678386132"><ele>576.8333333333334</ele><time>2026-04-11T13:20:41Z</time></trkpt><trkpt lat="44.54493354210265" lon="10.411553767659333"><ele>577.6666666666666</ele><time>2026-04-11T13:20:42Z</time></trkpt><trkpt lat="44.544868030049656" lon="10.41152611483175"><ele>578.5</ele><time>2026-04-11T13:20:43Z</time></trkpt><trkpt lat="44.544803598322105" lon="10.41148478764627"><ele>579.3333333333333</ele><time>2026-04-11T13:20:44Z</time></trkpt><trkpt lat="44.54474444192141" lon="10.411448903379567"><ele>580.1666666666666</ele><time>2026-04-11T13:20:45Z</time></trkpt><trkpt lat="44.54465169570831" lon="10.411433973927593"><ele>581.0</ele><time>2026-04-11T13:20:47Z</time></trkpt><trkpt lat="44.54454369157148" lon="10.41143740439779"><ele>581.0</ele><time>2026-04-11T13:20:49Z</time></trkpt><trkpt lat="44.54442311058617" lon="10.411448504908277"><ele>581.0</ele><time>2026-04-11T13:20:51Z</time></trkpt><trkpt lat="44.544348218895415" lon="10.411432380879884"><ele>581.0</ele><time>2026-04-11T13:20:53Z</time></trkpt><trkpt lat="44.544287353675045" lon="10.411486588564603"><ele>581.0</ele><time>2026-04-11T13:20:55Z</time></trkpt><trkpt lat="44.544293273288176" lon="10.411637893052813"><ele>581.0</ele><time>2026-04-11T13:20:57Z</time></trkpt><trkpt lat="44.544312048196176" lon="10.411756113005097"><ele>581.0</ele><time>2026-04-11T13:20:58Z</time></trkpt><trkpt lat="44.54432060363228" lon="10.41187497234847"><ele>581.0</ele><time>2026-04-11T13:20:59Z</time></trkpt><trkpt lat="44.54432485264898" lon="10.411997545541855"><ele>581.0</ele><time>2026-04-11T13:21:00Z</time></trkpt><trkpt lat="44.54432803125621" lon="10.41213864526549"><ele>581.0</ele><time>2026-04-11T13:21:01Z</time></trkpt><trkpt lat="44.544327365072014" lon="10.41228275045142"><ele>581.0</ele><time>2026-04-11T13:21:02Z</time></trkpt><trkpt lat="44.54432975474167" lon="10.412409956061584"><ele>580.5714285714286</ele><time>2026-04-11T13:21:03Z</time></trkpt><trkpt lat="44.54433224089043" lon="10.412521635503893"><ele>580.1428571428571</ele><time>2026-04-11T13:21:04Z</time></trkpt><trkpt lat="44.54433290803199" lon="10.412623595408283"><ele>579.7142857142858</ele><time>2026-04-11T13:21:05Z</time></trkpt><trkpt lat="44.54433629807946" lon="10.412721664898493"><ele>579.2857142857142</ele><time>2026-04-11T13:21:06Z</time></trkpt><trkpt lat="44.544337504617474" lon="10.412817911637129"><ele>578.8571428571429</ele><time>2026-04-11T13:21:07Z</time></trkpt><trkpt lat="44.5443374068868" lon="10.412914200783625"><ele>578.4285714285714</ele><time>2026-04-11T13:21:08Z</time></trkpt><trkpt lat="44.54433477571685" lon="10.413012681869816"><ele>578.0</ele><time>2026-04-11T13:21:09Z</time></trkpt><trkpt lat="44.54433615031204" lon="10.413117545513357"><ele>577.3333333333333</ele><time>2026-04-11T13:21:10Z</time></trkpt><trkpt lat="44.544339922158784" lon="10.41321802112066"><ele>576.6666666666666</ele><time>2026-04-11T13:21:11Z</time></trkpt><trkpt lat="44.5443489329706" lon="10.413319383681912"><ele>576.0</ele><time>2026-04-11T13:21:12Z</time></trkpt><trkpt lat="44.54434751719049" lon="10.413421625500447"><ele>575.3333333333334</ele><time>2026-04-11T13:21:13Z</time></trkpt><trkpt lat="44.54431295786516" lon="10.413511351851096"><ele>574.6666666666667</ele><time>2026-04-11T13:21:14Z</time></trkpt><trkpt lat="44.54424044320018" lon="10.413563264241022"><ele>574.0</ele><time>2026-04-11T13:21:15Z</time></trkpt><trkpt lat="44.54414154985732" lon="10.413555131635135"><ele>574.0</ele><time>2026-04-11T13:21:16Z</time></trkpt><trkpt lat="44.54403508849886" lon="10.41351602803335"><ele>574.0</ele><time>2026-04-11T13:21:17Z</time></trkpt><trkpt lat="44.54393004571141" lon="10.413465933961803"><ele>574.0</ele><time>2026-04-11T13:21:18Z</time></trkpt><trkpt lat="44.5438259338913" lon="10.413411520517569"><ele>574.0</ele><time>2026-04-11T13:21:19Z</time></trkpt><trkpt lat="44.54373085971376" lon="10.413359262551031"><ele>574.0</ele><time>2026-04-11T13:21:20Z</time></trkpt><trkpt lat="44.54364519916971" lon="10.413321705078657"><ele>572.2</ele><time>2026-04-11T13:21:21Z</time></trkpt><trkpt lat="44.54357190773735" lon="10.413285299236032"><ele>570.4</ele><time>2026-04-11T13:21:22Z</time></trkpt><trkpt lat="44.54345929965461" lon="10.413221109462755"><ele>568.6</ele><time>2026-04-11T13:21:24Z</time></trkpt><trkpt lat="44.54336093184938" lon="10.413157558424588"><ele>566.8</ele><time>2026-04-11T13:21:26Z</time></trkpt><trkpt lat="44.543293660550795" lon="10.413121335315545"><ele>565.0</ele><time>2026-04-11T13:21:27Z</time></trkpt><trkpt lat="44.543211282012614" lon="10.413079085311356"><ele>565.0</ele><time>2026-04-11T13:21:28Z</time></trkpt><trkpt lat="44.54310847813039" lon="10.413052721860188"><ele>565.0</ele><time>2026-04-11T13:21:29Z</time></trkpt><trkpt lat="44.543000456245586" lon="10.413025346062675"><ele>565.0</ele><time>2026-04-11T13:21:30Z</time></trkpt><trkpt lat="44.54290027350734" lon="10.41299955312494"><ele>565.0</ele><time>2026-04-11T13:21:31Z</time></trkpt><trkpt lat="44.542802029408854" lon="10.41297626031384"><ele>565.0</ele><time>2026-04-11T13:21:32Z</time></trkpt><trkpt lat="44.54270867797462" lon="10.412968605180202"><ele>563.3333333333334</ele><time>2026-04-11T13:21:32.999Z</time></trkpt><trkpt lat="44.54262645173959" lon="10.412967810358296"><ele>561.6666666666667</ele><time>2026-04-11T13:21:33.999Z</time></trkpt><trkpt lat="44.542550292299815" lon="10.412971289269157"><ele>560.0</ele><time>2026-04-11T13:21:34.999Z</time></trkpt><trkpt lat="44.54247309633985" lon="10.412970085977557"><ele>558.3333333333334</ele><time>2026-04-11T13:21:35.999Z</time></trkpt><trkpt lat="44.54239730430377" lon="10.412962672123333"><ele>556.6666666666666</ele><time>2026-04-11T13:21:36.999Z</time></trkpt><trkpt lat="44.5423151962536" lon="10.412943133546587"><ele>555.0</ele><time>2026-04-11T13:21:37.999Z</time></trkpt><trkpt lat="44.54222945121831" lon="10.412915411410996"><ele>555.0</ele><time>2026-04-11T13:21:38.999Z</time></trkpt><trkpt lat="44.54214842256232" lon="10.41287122468963"><ele>555.0</ele><time>2026-04-11T13:21:39.999Z</time></trkpt><trkpt lat="44.542068277234534" lon="10.412815561287028"><ele>555.0</ele><time>2026-04-11T13:21:40.999Z</time></trkpt><trkpt lat="44.54197738498075" lon="10.412764686721559"><ele>555.0</ele><time>2026-04-11T13:21:41.999Z</time></trkpt><trkpt lat="44.541893171910516" lon="10.412700795935562"><ele>555.0</ele><time>2026-04-11T13:21:42.999Z</time></trkpt><trkpt lat="44.541810442589984" lon="10.412622220468831"><ele>553.0</ele><time>2026-04-11T13:21:43.999Z</time></trkpt><trkpt lat="44.54171794583996" lon="10.412541947603424"><ele>551.0</ele><time>2026-04-11T13:21:44.999Z</time></trkpt><trkpt lat="44.54162201958148" lon="10.41247767311598"><ele>549.0</ele><time>2026-04-11T13:21:45.999Z</time></trkpt><trkpt lat="44.54152420632542" lon="10.412428761385707"><ele>547.0</ele><time>2026-04-11T13:21:46.999Z</time></trkpt><trkpt lat="44.54141942684879" lon="10.412387763002299"><ele>545.0</ele><time>2026-04-11T13:21:47.999Z</time></trkpt><trkpt lat="44.54133141882935" lon="10.41235739614211"><ele>545.0</ele><time>2026-04-11T13:21:48.999Z</time></trkpt><trkpt lat="44.54125495525549" lon="10.412329172035914"><ele>545.0</ele><time>2026-04-11T13:21:49.999Z</time></trkpt><trkpt lat="44.54116650120826" lon="10.412296769696098"><ele>545.0</ele><time>2026-04-11T13:21:50.999Z</time></trkpt><trkpt lat="44.5410887393854" lon="10.412255880029816"><ele>545.0</ele><time>2026-04-11T13:21:51.999Z</time></trkpt><trkpt lat="44.541026768408955" lon="10.412180831774581"><ele>545.0</ele><time>2026-04-11T13:21:52.999Z</time></trkpt><trkpt lat="44.540956060696836" lon="10.412082980470034"><ele>545.0</ele><time>2026-04-11T13:21:53.999Z</time></trkpt><trkpt lat="44.540904187649296" lon="10.41196525932774"><ele>542.3333333333333</ele><time>2026-04-11T13:21:54.999Z</time></trkpt><trkpt lat="44.540867332291505" lon="10.411877679473946"><ele>539.6666666666666</ele><time>2026-04-11T13:21:55.999Z</time></trkpt><trkpt lat="44.540772260754615" lon="10.411780525881019"><ele>537.0</ele><time>2026-04-11T13:21:57.999Z</time></trkpt><trkpt lat="44.54065380978646" lon="10.411802092846635"><ele>534.3333333333334</ele><time>2026-04-11T13:22:00Z</time></trkpt><trkpt lat="44.540589161635296" lon="10.41182982446963"><ele>531.6666666666667</ele><time>2026-04-11T13:22:01Z</time></trkpt><trkpt lat="44.5405211812282" lon="10.411855325897005"><ele>529.0</ele><time>2026-04-11T13:22:02Z</time></trkpt><trkpt lat="44.5403957087168" lon="10.411881214421433"><ele>527.6666666666667</ele><time>2026-04-11T13:22:04Z</time></trkpt><trkpt lat="44.54033151040291" lon="10.411822938512472"><ele>526.3333333333334</ele><time>2026-04-11T13:22:05Z</time></trkpt><trkpt lat="44.54026764900461" lon="10.411763184726349"><ele>525.0</ele><time>2026-04-11T13:22:06Z</time></trkpt><trkpt lat="44.54019279468726" lon="10.411672771474036"><ele>523.6666666666666</ele><time>2026-04-11T13:22:07Z</time></trkpt><trkpt lat="44.54012011051239" lon="10.411594153589112"><ele>522.3333333333333</ele><time>2026-04-11T13:22:08Z</time></trkpt><trkpt lat="44.54004339704683" lon="10.411532228918318"><ele>521.0</ele><time>2026-04-11T13:22:09Z</time></trkpt><trkpt lat="44.53997696174859" lon="10.411490388119148"><ele>521.0</ele><time>2026-04-11T13:22:10Z</time></trkpt><trkpt lat="44.53990374515276" lon="10.41146646863975"><ele>521.0</ele><time>2026-04-11T13:22:11Z</time></trkpt><trkpt lat="44.539787211002945" lon="10.411445242866957"><ele>521.0</ele><time>2026-04-11T13:22:13Z</time></trkpt><trkpt lat="44.53967061109103" lon="10.411491971821242"><ele>521.0</ele><time>2026-04-11T13:22:15Z</time></trkpt><trkpt lat="44.53961254825444" lon="10.41153520344828"><ele>521.0</ele><time>2026-04-11T13:22:16Z</time></trkpt><trkpt lat="44.539557820691556" lon="10.411598016355958"><ele>520.5</ele><time>2026-04-11T13:22:17Z</time></trkpt><trkpt lat="44.53945534923052" lon="10.411698648387231"><ele>520.0</ele><time>2026-04-11T13:22:19Z</time></trkpt><trkpt lat="44.53934706333526" lon="10.411762197490656"><ele>519.5</ele><time>2026-04-11T13:22:21Z</time></trkpt><trkpt lat="44.539224348403664" lon="10.41172128071396"><ele>519.0</ele><time>2026-04-11T13:22:23Z</time></trkpt><trkpt lat="44.53914151051071" lon="10.411677197054665"><ele>519.0</ele><time>2026-04-11T13:22:24Z</time></trkpt><trkpt lat="44.53903066194575" lon="10.41163043488307"><ele>519.0</ele><time>2026-04-11T13:22:26Z</time></trkpt><trkpt lat="44.53896416561389" lon="10.411611538969739"><ele>519.0</ele><time>2026-04-11T13:22:27Z</time></trkpt><trkpt lat="44.53888463483078" lon="10.411594568242254"><ele>519.0</ele><time>2026-04-11T13:22:28Z</time></trkpt><trkpt lat="44.53880910761777" lon="10.41157567768026"><ele>519.0</ele><time>2026-04-11T13:22:29Z</time></trkpt><trkpt lat="44.538726286029856" lon="10.411553500549296"><ele>519.0</ele><time>2026-04-11T13:22:30Z</time></trkpt><trkpt lat="44.538654364862815" lon="10.411525041143296"><ele>518.6</ele><time>2026-04-11T13:22:31Z</time></trkpt><trkpt lat="44.53858607529075" lon="10.411485919390682"><ele>518.2</ele><time>2026-04-11T13:22:32Z</time></trkpt><trkpt lat="44.53849465677302" lon="10.41144340970257"><ele>517.8000000000001</ele><time>2026-04-11T13:22:34Z</time></trkpt><trkpt lat="44.538384333163265" lon="10.411439467460541"><ele>517.4</ele><time>2026-04-11T13:22:36Z</time></trkpt><trkpt lat="44.53826518895514" lon="10.41145347999852"><ele>517.0</ele><time>2026-04-11T13:22:38Z</time></trkpt><trkpt lat="44.53819959253146" lon="10.411456359142338"><ele>517.0</ele><time>2026-04-11T13:22:39Z</time></trkpt><trkpt lat="44.53809349234804" lon="10.411467488111562"><ele>517.0</ele><time>2026-04-11T13:22:41Z</time></trkpt><trkpt lat="44.53800039895723" lon="10.411480621159907"><ele>517.0</ele><time>2026-04-11T13:22:43Z</time></trkpt><trkpt lat="44.5379349044677" lon="10.41147317967981"><ele>517.0</ele><time>2026-04-11T13:22:50Z</time></trkpt><trkpt lat="44.53785040775574" lon="10.411457026635118"><ele>517.0</ele><time>2026-04-11T13:22:55Z</time></trkpt><trkpt lat="44.537738745219464" lon="10.41143861298433"><ele>516.5</ele><time>2026-04-11T13:22:57Z</time></trkpt><trkpt lat="44.53766758410196" lon="10.411441407407867"><ele>516.0</ele><time>2026-04-11T13:22:59Z</time></trkpt><trkpt lat="44.53757410551917" lon="10.411507684768681"><ele>515.5</ele><time>2026-04-11T13:23:02Z</time></trkpt><trkpt lat="44.537495900349086" lon="10.411559370213475"><ele>515.0</ele><time>2026-04-11T13:23:04Z</time></trkpt><trkpt lat="44.537425214276226" lon="10.411602447297238"><ele>514.5</ele><time>2026-04-11T13:23:06Z</time></trkpt><trkpt lat="44.537350073737535" lon="10.411607453407846"><ele>514.0</ele><time>2026-04-11T13:23:08Z</time></trkpt><trkpt lat="44.537254545538424" lon="10.411593748060563"><ele>514.0</ele><time>2026-04-11T13:23:10Z</time></trkpt><trkpt lat="44.53718671659183" lon="10.411587559638583"><ele>514.0</ele><time>2026-04-11T13:23:18Z</time></trkpt><trkpt lat="44.53712265596392" lon="10.411567931619139"><ele>514.0</ele><time>2026-04-11T13:23:22Z</time></trkpt><trkpt lat="44.53705652605855" lon="10.411570884348441"><ele>514.0</ele><time>2026-04-11T13:24:12Z</time></trkpt><trkpt lat="44.53696689518252" lon="10.411592975073496"><ele>514.0</ele><time>2026-04-11T13:24:50Z</time></trkpt><trkpt lat="44.536895893604566" lon="10.411614023860597"><ele>514.0</ele><time>2026-04-11T13:26:47Z</time></trkpt><trkpt lat="44.53681422267515" lon="10.411603622572754"><ele>514.0</ele><time>2026-04-11T13:27:11Z</time></trkpt><trkpt lat="44.53675735089666" lon="10.411642468307093"><ele>514.5</ele><time>2026-04-11T13:32:01.999Z</time></trkpt><trkpt lat="44.536728739300266" lon="10.411768534931632"><ele>515.0</ele><time>2026-04-11T13:32:03.999Z</time></trkpt><trkpt lat="44.53672881392932" lon="10.41186430719763"><ele>515.5</ele><time>2026-04-11T13:32:04.999Z</time></trkpt><trkpt lat="44.53672837589205" lon="10.411974810794135"><ele>516.0</ele><time>2026-04-11T13:32:05.999Z</time></trkpt><trkpt lat="44.536726514785755" lon="10.412082174032687"><ele>516.5</ele><time>2026-04-11T13:32:06.999Z</time></trkpt><trkpt lat="44.536724333598414" lon="10.412178452404117"><ele>517.0</ele><time>2026-04-11T13:32:07.999Z</time></trkpt><trkpt lat="44.53672269314362" lon="10.41233719801237"><ele>517.8333333333334</ele><time>2026-04-11T13:32:09.999Z</time></trkpt><trkpt lat="44.536729623748386" lon="10.412449588567116"><ele>518.6666666666667</ele><time>2026-04-11T13:32:10.999Z</time></trkpt><trkpt lat="44.536732557517716" lon="10.412575173165653"><ele>519.5</ele><time>2026-04-11T13:32:11.999Z</time></trkpt><trkpt lat="44.53673689847476" lon="10.412693740593399"><ele>520.3333333333334</ele><time>2026-04-11T13:32:12.999Z</time></trkpt><trkpt lat="44.53674021982272" lon="10.412790657260391"><ele>521.1666666666666</ele><time>2026-04-11T13:32:13.999Z</time></trkpt><trkpt lat="44.53679672489444" lon="10.412940811443777"><ele>522.0</ele><time>2026-04-11T13:32:15.999Z</time></trkpt><trkpt lat="44.53684317734601" lon="10.413026747009367"><ele>523.8333333333334</ele><time>2026-04-11T13:32:16.999Z</time></trkpt><trkpt lat="44.53688968318988" lon="10.413119556884684"><ele>525.6666666666666</ele><time>2026-04-11T13:32:17.999Z</time></trkpt><trkpt lat="44.53693652506432" lon="10.413226300842256"><ele>527.5</ele><time>2026-04-11T13:32:18.999Z</time></trkpt><trkpt lat="44.53697960650847" lon="10.413336967139136"><ele>529.3333333333333</ele><time>2026-04-11T13:32:19.999Z</time></trkpt><trkpt lat="44.53702007139178" lon="10.41345271662916"><ele>531.1666666666666</ele><time>2026-04-11T13:32:20.999Z</time></trkpt><trkpt lat="44.53706130881907" lon="10.413568672493813"><ele>533.0</ele><time>2026-04-11T13:32:21.999Z</time></trkpt><trkpt lat="44.537102983341725" lon="10.413681521936581"><ele>533.0</ele><time>2026-04-11T13:32:22.999Z</time></trkpt><trkpt lat="44.537145414402374" lon="10.41379245781963"><ele>533.0</ele><time>2026-04-11T13:32:24.999Z</time></trkpt><trkpt lat="44.53706650411773" lon="10.413840246389524"><ele>533.0</ele><time>2026-04-11T13:32:27.999Z</time></trkpt><trkpt lat="44.53697384767875" lon="10.413795591894171"><ele>533.0</ele><time>2026-04-11T13:32:30.001Z</time></trkpt><trkpt lat="44.536850206569426" lon="10.413836880716286"><ele>533.0</ele><time>2026-04-11T13:32:32.001Z</time></trkpt><trkpt lat="44.536769291638954" lon="10.413892640145528"><ele>535.1999999999999</ele><time>2026-04-11T13:32:33.001Z</time></trkpt><trkpt lat="44.53667912437415" lon="10.41395487117902"><ele>537.4</ele><time>2026-04-11T13:32:34.001Z</time></trkpt><trkpt lat="44.53660297370124" lon="10.413997081296136"><ele>539.5999999999999</ele><time>2026-04-11T13:32:35.001Z</time></trkpt><trkpt lat="44.53651324813979" lon="10.41396217934785"><ele>541.8</ele><time>2026-04-11T13:32:37.001Z</time></trkpt><trkpt lat="44.53641949162099" lon="10.413950154230413"><ele>544.0</ele><time>2026-04-11T13:32:39Z</time></trkpt><trkpt lat="44.536326019496364" lon="10.413953643302735"><ele>544.0</ele><time>2026-04-11T13:32:41Z</time></trkpt><trkpt lat="44.53626344920677" lon="10.413967500342654"><ele>544.0</ele><time>2026-04-11T13:32:42Z</time></trkpt><trkpt lat="44.536194023774264" lon="10.413988199773998"><ele>544.0</ele><time>2026-04-11T13:32:45Z</time></trkpt><trkpt lat="44.536132443150485" lon="10.414011468294019"><ele>544.0</ele><time>2026-04-11T13:32:51Z</time></trkpt><trkpt lat="44.5360001856835" lon="10.414019905230665"><ele>544.0</ele><time>2026-04-11T13:32:53Z</time></trkpt><trkpt lat="44.53592740668484" lon="10.414016234724015"><ele>544.0</ele><time>2026-04-11T13:32:54Z</time></trkpt><trkpt lat="44.53580683941002" lon="10.414022462576932"><ele>544.2</ele><time>2026-04-11T13:32:56Z</time></trkpt><trkpt lat="44.5357316751009" lon="10.414038972373177"><ele>544.4</ele><time>2026-04-11T13:32:57Z</time></trkpt><trkpt lat="44.535651241619874" lon="10.414036175256687"><ele>544.6</ele><time>2026-04-11T13:32:58Z</time></trkpt><trkpt lat="44.535563135202516" lon="10.414019479419206"><ele>544.8</ele><time>2026-04-11T13:32:59Z</time></trkpt><trkpt lat="44.53544132617333" lon="10.414033975569646"><ele>545.0</ele><time>2026-04-11T13:33:01Z</time></trkpt><trkpt lat="44.535330105934555" lon="10.414056124344022"><ele>545.8</ele><time>2026-04-11T13:33:03Z</time></trkpt><trkpt lat="44.53523170476887" lon="10.414049426243107"><ele>546.6</ele><time>2026-04-11T13:33:06Z</time></trkpt><trkpt lat="44.53518311413979" lon="10.413987795226902"><ele>547.4</ele><time>2026-04-11T13:33:08Z</time></trkpt><trkpt lat="44.53509556785932" lon="10.413856055126463"><ele>548.2</ele><time>2026-04-11T13:33:10Z</time></trkpt><trkpt lat="44.53504113069416" lon="10.413805772808816"><ele>549.0</ele><time>2026-04-11T13:33:11Z</time></trkpt><trkpt lat="44.5349340028327" lon="10.413743425206222"><ele>546.4</ele><time>2026-04-11T13:33:13Z</time></trkpt><trkpt lat="44.5348046911679" lon="10.413709636525695"><ele>543.8</ele><time>2026-04-11T13:33:15Z</time></trkpt><trkpt lat="44.53472054628839" lon="10.413709506439336"><ele>541.2</ele><time>2026-04-11T13:33:16Z</time></trkpt><trkpt lat="44.534630117532124" lon="10.413736362511512"><ele>538.6</ele><time>2026-04-11T13:33:17Z</time></trkpt><trkpt lat="44.53453540668227" lon="10.413766164327745"><ele>536.0</ele><time>2026-04-11T13:33:18Z</time></trkpt><trkpt lat="44.5344566024912" lon="10.413787294057302"><ele>536.0</ele><time>2026-04-11T13:33:19Z</time></trkpt><trkpt lat="44.534369015683545" lon="10.413820874783582"><ele>536.0</ele><time>2026-04-11T13:33:20Z</time></trkpt><trkpt lat="44.53430225998941" lon="10.41384396927112"><ele>536.0</ele><time>2026-04-11T13:33:21Z</time></trkpt><trkpt lat="44.53416569753878" lon="10.413897140079374"><ele>536.0</ele><time>2026-04-11T13:33:23Z</time></trkpt><trkpt lat="44.53407359534136" lon="10.413893317410805"><ele>536.0</ele><time>2026-04-11T13:33:24Z</time></trkpt><trkpt lat="44.53398628965843" lon="10.413852619695565"><ele>536.0</ele><time>2026-04-11T13:33:25Z</time></trkpt><trkpt lat="44.53391088135951" lon="10.413802848699236"><ele>536.0</ele><time>2026-04-11T13:33:26Z</time></trkpt><trkpt lat="44.533850952417936" lon="10.413767439016341"><ele>536.0</ele><time>2026-04-11T13:33:27Z</time></trkpt><trkpt lat="44.533789352419376" lon="10.413734422896134"><ele>536.0</ele><time>2026-04-11T13:33:28Z</time></trkpt><trkpt lat="44.53367541977893" lon="10.41370893024323"><ele>536.0</ele><time>2026-04-11T13:33:29.999Z</time></trkpt><trkpt lat="44.53356068784828" lon="10.413693264128803"><ele>536.0</ele><time>2026-04-11T13:33:31.999Z</time></trkpt><trkpt lat="44.533496325793315" lon="10.413694951912206"><ele>537.0</ele><time>2026-04-11T13:33:32.999Z</time></trkpt><trkpt lat="44.533426871058964" lon="10.41371119357162"><ele>538.0</ele><time>2026-04-11T13:33:33.999Z</time></trkpt><trkpt lat="44.53333891343026" lon="10.413727842762837"><ele>539.0</ele><time>2026-04-11T13:33:34.999Z</time></trkpt><trkpt lat="44.53324972957253" lon="10.413751346886368"><ele>540.0</ele><time>2026-04-11T13:33:35.999Z</time></trkpt><trkpt lat="44.53317192636857" lon="10.41376746787389"><ele>541.0</ele><time>2026-04-11T13:33:36.999Z</time></trkpt><trkpt lat="44.53309102891945" lon="10.413784274546028"><ele>542.0</ele><time>2026-04-11T13:33:37.999Z</time></trkpt><trkpt lat="44.53301224526967" lon="10.413798634093618"><ele>542.0</ele><time>2026-04-11T13:33:38.999Z</time></trkpt><trkpt lat="44.53293539925656" lon="10.413819504077633"><ele>542.0</ele><time>2026-04-11T13:33:39.999Z</time></trkpt><trkpt lat="44.53286360139022" lon="10.413839111658838"><ele>542.0</ele><time>2026-04-11T13:33:40.999Z</time></trkpt><trkpt lat="44.53278963086712" lon="10.413856311024604"><ele>542.0</ele><time>2026-04-11T13:33:41.999Z</time></trkpt><trkpt lat="44.53267123968786" lon="10.413841149795141"><ele>542.0</ele><time>2026-04-11T13:33:43.999Z</time></trkpt><trkpt lat="44.532609200028524" lon="10.41379322003688"><ele>542.0</ele><time>2026-04-11T13:33:44.999Z</time></trkpt><trkpt lat="44.53254254622918" lon="10.413731516379915"><ele>542.3333333333333</ele><time>2026-04-11T13:33:45.999Z</time></trkpt><trkpt lat="44.532479933023836" lon="10.413669900521441"><ele>542.6666666666666</ele><time>2026-04-11T13:33:46.999Z</time></trkpt><trkpt lat="44.53241068470319" lon="10.41360157619707"><ele>543.0</ele><time>2026-04-11T13:33:47.999Z</time></trkpt><trkpt lat="44.53233234545139" lon="10.413537445863003"><ele>543.3333333333334</ele><time>2026-04-11T13:33:48.999Z</time></trkpt><trkpt lat="44.532254146164924" lon="10.413485216302456"><ele>543.6666666666667</ele><time>2026-04-11T13:33:49.999Z</time></trkpt><trkpt lat="44.53217134640075" lon="10.413430048534254"><ele>544.0</ele><time>2026-04-11T13:33:50.999Z</time></trkpt><trkpt lat="44.53208673829203" lon="10.41337068981646"><ele>545.0</ele><time>2026-04-11T13:33:51.999Z</time></trkpt><trkpt lat="44.53202930898778" lon="10.413326132030706"><ele>546.0</ele><time>2026-04-11T13:33:52.999Z</time></trkpt><trkpt lat="44.53193447617604" lon="10.413235402721117"><ele>547.0</ele><time>2026-04-11T13:33:54.999Z</time></trkpt><trkpt lat="44.53187279072341" lon="10.413172384804042"><ele>548.0</ele><time>2026-04-11T13:33:55.999Z</time></trkpt><trkpt lat="44.531808305282155" lon="10.413107834370754"><ele>549.0</ele><time>2026-04-11T13:33:56.999Z</time></trkpt><trkpt lat="44.53174739998404" lon="10.413052234169886"><ele>550.0</ele><time>2026-04-11T13:33:57.999Z</time></trkpt><trkpt lat="44.53168130147662" lon="10.412992841859056"><ele>547.8333333333334</ele><time>2026-04-11T13:33:58.999Z</time></trkpt><trkpt lat="44.5316227930277" lon="10.412929287325241"><ele>545.6666666666667</ele><time>2026-04-11T13:33:59.999Z</time></trkpt><trkpt lat="44.53156464588643" lon="10.412858374558486"><ele>543.5</ele><time>2026-04-11T13:34:00.999Z</time></trkpt><trkpt lat="44.53149321282704" lon="10.412785293325278"><ele>541.3333333333334</ele><time>2026-04-11T13:34:01.999Z</time></trkpt><trkpt lat="44.531421541902425" lon="10.412715300589038"><ele>539.1666666666666</ele><time>2026-04-11T13:34:02.999Z</time></trkpt><trkpt lat="44.531357085716635" lon="10.412639282173732"><ele>537.0</ele><time>2026-04-11T13:34:03.999Z</time></trkpt><trkpt lat="44.53129879824937" lon="10.41254059086027"><ele>537.0</ele><time>2026-04-11T13:34:04.999Z</time></trkpt><trkpt lat="44.531255452334136" lon="10.412432554967173"><ele>537.0</ele><time>2026-04-11T13:34:05.999Z</time></trkpt><trkpt lat="44.53120523721085" lon="10.412334934038428"><ele>537.0</ele><time>2026-04-11T13:34:06.999Z</time></trkpt><trkpt lat="44.53115690932662" lon="10.412262856152052"><ele>537.0</ele><time>2026-04-11T13:34:07.999Z</time></trkpt><trkpt lat="44.531087011856044" lon="10.412177697897798"><ele>537.0</ele><time>2026-04-11T13:34:08.999Z</time></trkpt><trkpt lat="44.531030537203335" lon="10.412102086756528"><ele>537.0</ele><time>2026-04-11T13:34:09.999Z</time></trkpt><trkpt lat="44.53097028785358" lon="10.412030694539702"><ele>538.2</ele><time>2026-04-11T13:34:10.999Z</time></trkpt><trkpt lat="44.530921729269664" lon="10.41196851361657"><ele>539.4000000000001</ele><time>2026-04-11T13:34:11.999Z</time></trkpt><trkpt lat="44.53085261683569" lon="10.41183818758383"><ele>540.5999999999999</ele><time>2026-04-11T13:34:13.999Z</time></trkpt><trkpt lat="44.5308239202219" lon="10.411666866570558"><ele>541.8</ele><time>2026-04-11T13:34:15.999Z</time></trkpt><trkpt lat="44.530800275825136" lon="10.411572536132109"><ele>543.0</ele><time>2026-04-11T13:34:16.999Z</time></trkpt><trkpt lat="44.53079903288717" lon="10.41145346681283"><ele>543.0</ele><time>2026-04-11T13:34:17.999Z</time></trkpt><trkpt lat="44.53080074838432" lon="10.411347338052966"><ele>543.0</ele><time>2026-04-11T13:34:18.999Z</time></trkpt><trkpt lat="44.53078574594918" lon="10.411251317885569"><ele>543.0</ele><time>2026-04-11T13:34:19.999Z</time></trkpt><trkpt lat="44.53076105365057" lon="10.411141636553104"><ele>543.0</ele><time>2026-04-11T13:34:20.999Z</time></trkpt><trkpt lat="44.53075497408059" lon="10.411049464150423"><ele>543.0</ele><time>2026-04-11T13:34:21.999Z</time></trkpt><trkpt lat="44.53075819505887" lon="10.410924026481897"><ele>543.0</ele><time>2026-04-11T13:34:22.999Z</time></trkpt><trkpt lat="44.53075715525676" lon="10.410785275786415"><ele>542.6666666666666</ele><time>2026-04-11T13:34:23.999Z</time></trkpt><trkpt lat="44.53075216123596" lon="10.410674883802338"><ele>542.3333333333334</ele><time>2026-04-11T13:34:24.999Z</time></trkpt><trkpt lat="44.53075010936732" lon="10.410569129169359"><ele>542.0</ele><time>2026-04-11T13:34:25.999Z</time></trkpt><trkpt lat="44.53074658622582" lon="10.41041812883469"><ele>541.6666666666667</ele><time>2026-04-11T13:34:26.999Z</time></trkpt><trkpt lat="44.53073525356839" lon="10.410261934963707"><ele>541.3333333333334</ele><time>2026-04-11T13:34:27.999Z</time></trkpt><trkpt lat="44.530725999481724" lon="10.410167060108305"><ele>541.0</ele><time>2026-04-11T13:34:28.999Z</time></trkpt><trkpt lat="44.53071739566888" lon="10.410038072907936"><ele>542.6</ele><time>2026-04-11T13:34:29.999Z</time></trkpt><trkpt lat="44.530707798922016" lon="10.409905270539246"><ele>544.2</ele><time>2026-04-11T13:34:30.999Z</time></trkpt><trkpt lat="44.53070171677303" lon="10.409770784089469"><ele>545.8</ele><time>2026-04-11T13:34:31.999Z</time></trkpt><trkpt lat="44.530691888449375" lon="10.40963396838985"><ele>547.4</ele><time>2026-04-11T13:34:32.999Z</time></trkpt><trkpt lat="44.53068874366795" lon="10.409500174144226"><ele>549.0</ele><time>2026-04-11T13:34:33.999Z</time></trkpt><trkpt lat="44.53066867296205" lon="10.409366845411451"><ele>550.8333333333334</ele><time>2026-04-11T13:34:35Z</time></trkpt><trkpt lat="44.53063968159837" lon="10.409242568949677"><ele>552.6666666666666</ele><time>2026-04-11T13:34:36Z</time></trkpt><trkpt lat="44.53061220863134" lon="10.409115095233332"><ele>554.5</ele><time>2026-04-11T13:34:37Z</time></trkpt><trkpt lat="44.53059880416219" lon="10.409004054117888"><ele>556.3333333333333</ele><time>2026-04-11T13:34:38Z</time></trkpt><trkpt lat="44.530584268035724" lon="10.408903381070294"><ele>558.1666666666666</ele><time>2026-04-11T13:34:39Z</time></trkpt><trkpt lat="44.53056117707283" lon="10.408810177104074"><ele>560.0</ele><time>2026-04-11T13:34:40Z</time></trkpt><trkpt lat="44.530513788175014" lon="10.408719115059615"><ele>560.3333333333333</ele><time>2026-04-11T13:34:41Z</time></trkpt><trkpt lat="44.530458890657634" lon="10.408626447325762"><ele>560.6666666666666</ele><time>2026-04-11T13:34:42Z</time></trkpt><trkpt lat="44.53041120537644" lon="10.408527128914967"><ele>561.0</ele><time>2026-04-11T13:34:44Z</time></trkpt><trkpt lat="44.53034538035468" lon="10.408521324148257"><ele>561.3333333333334</ele><time>2026-04-11T13:34:47Z</time></trkpt><trkpt lat="44.53026948110214" lon="10.408655067797632"><ele>561.6666666666667</ele><time>2026-04-11T13:34:49Z</time></trkpt><trkpt lat="44.53019493516141" lon="10.408715606742085"><ele>562.0</ele><time>2026-04-11T13:34:50Z</time></trkpt><trkpt lat="44.53012389368569" lon="10.408753827184185"><ele>563.5</ele><time>2026-04-11T13:34:51Z</time></trkpt><trkpt lat="44.530039056558266" lon="10.408779648349658"><ele>565.0</ele><time>2026-04-11T13:34:52Z</time></trkpt><trkpt lat="44.52996183652611" lon="10.408816086919675"><ele>566.5</ele><time>2026-04-11T13:34:53Z</time></trkpt><trkpt lat="44.52987927212584" lon="10.408843964661463"><ele>568.0</ele><time>2026-04-11T13:34:54Z</time></trkpt><trkpt lat="44.5297886273079" lon="10.408886615099291"><ele>569.5</ele><time>2026-04-11T13:34:55Z</time></trkpt><trkpt lat="44.52969279333746" lon="10.408897086479653"><ele>571.0</ele><time>2026-04-11T13:34:56Z</time></trkpt><trkpt lat="44.52959431937578" lon="10.408918188913663"><ele>573.0</ele><time>2026-04-11T13:34:57Z</time></trkpt><trkpt lat="44.529493496376034" lon="10.408895239026767"><ele>575.0</ele><time>2026-04-11T13:34:58Z</time></trkpt><trkpt lat="44.5293852010899" lon="10.408880579882245"><ele>577.0</ele><time>2026-04-11T13:34:59Z</time></trkpt><trkpt lat="44.52927709323456" lon="10.408884480030482"><ele>579.0</ele><time>2026-04-11T13:35:00Z</time></trkpt><trkpt lat="44.52919219081617" lon="10.408865903770096"><ele>581.0</ele><time>2026-04-11T13:35:01Z</time></trkpt><trkpt lat="44.529090888000354" lon="10.408820147238535"><ele>581.6</ele><time>2026-04-11T13:35:03Z</time></trkpt><trkpt lat="44.52897921157357" lon="10.408772352462647"><ele>582.2</ele><time>2026-04-11T13:35:05Z</time></trkpt><trkpt lat="44.52890794059055" lon="10.408705496547089"><ele>582.8</ele><time>2026-04-11T13:35:06Z</time></trkpt><trkpt lat="44.52882537269879" lon="10.408668086669278"><ele>583.4</ele><time>2026-04-11T13:35:07Z</time></trkpt><trkpt lat="44.52876510253389" lon="10.408607644472875"><ele>584.0</ele><time>2026-04-11T13:35:08Z</time></trkpt><trkpt lat="44.52866053520823" lon="10.408673167292221"><ele>585.6666666666666</ele><time>2026-04-11T13:35:09Z</time></trkpt><trkpt lat="44.52857453067325" lon="10.408703275806506"><ele>587.3333333333333</ele><time>2026-04-11T13:35:10Z</time></trkpt><trkpt lat="44.52848893433683" lon="10.408714877720303"><ele>589.0</ele><time>2026-04-11T13:35:11Z</time></trkpt><trkpt lat="44.52840705159296" lon="10.408730903509841"><ele>590.6666666666666</ele><time>2026-04-11T13:35:12Z</time></trkpt><trkpt lat="44.52832306735765" lon="10.408742607422452"><ele>592.3333333333334</ele><time>2026-04-11T13:35:13Z</time></trkpt><trkpt lat="44.52823549252518" lon="10.408748016548838"><ele>594.0</ele><time>2026-04-11T13:35:14Z</time></trkpt><trkpt lat="44.528144625153196" lon="10.40875447006049"><ele>594.0</ele><time>2026-04-11T13:35:15Z</time></trkpt><trkpt lat="44.52805583537867" lon="10.408759556997774"><ele>594.0</ele><time>2026-04-11T13:35:15.999Z</time></trkpt><trkpt lat="44.52797072798034" lon="10.408769877587252"><ele>594.0</ele><time>2026-04-11T13:35:16.999Z</time></trkpt><trkpt lat="44.527877752962716" lon="10.408773557092534"><ele>594.0</ele><time>2026-04-11T13:35:17.999Z</time></trkpt><trkpt lat="44.52778256774645" lon="10.408772361737634"><ele>594.0</ele><time>2026-04-11T13:35:18.999Z</time></trkpt><trkpt lat="44.52768899711752" lon="10.408774715328455"><ele>595.8</ele><time>2026-04-11T13:35:19.999Z</time></trkpt><trkpt lat="44.52759200180598" lon="10.4087736223183"><ele>597.5999999999999</ele><time>2026-04-11T13:35:20.999Z</time></trkpt><trkpt lat="44.5274941069761" lon="10.40877597591806"><ele>599.4</ele><time>2026-04-11T13:35:21.999Z</time></trkpt><trkpt lat="44.52740363600285" lon="10.408779162725956"><ele>601.1999999999999</ele><time>2026-04-11T13:35:22.999Z</time></trkpt><trkpt lat="44.52734037881388" lon="10.408781381048271"><ele>603.0</ele><time>2026-04-11T13:35:23.999Z</time></trkpt><trkpt lat="44.52722596501436" lon="10.408786362809696"><ele>603.0</ele><time>2026-04-11T13:35:25.999Z</time></trkpt><trkpt lat="44.527147510320624" lon="10.408786101505699"><ele>603.0</ele><time>2026-04-11T13:35:26.999Z</time></trkpt><trkpt lat="44.52706339188284" lon="10.408784563516269"><ele>603.0</ele><time>2026-04-11T13:35:27.999Z</time></trkpt><trkpt lat="44.52697967573327" lon="10.408772461313996"><ele>603.0</ele><time>2026-04-11T13:35:28.999Z</time></trkpt><trkpt lat="44.526892215109186" lon="10.408751143617337"><ele>603.0</ele><time>2026-04-11T13:35:29.999Z</time></trkpt><trkpt lat="44.52680222968865" lon="10.408738176779796"><ele>603.0</ele><time>2026-04-11T13:35:30.999Z</time></trkpt><trkpt lat="44.526721138427376" lon="10.408762099342496"><ele>604.1666666666666</ele><time>2026-04-11T13:35:31.999Z</time></trkpt><trkpt lat="44.52665442499318" lon="10.408800582380264"><ele>605.3333333333334</ele><time>2026-04-11T13:35:32.999Z</time></trkpt><trkpt lat="44.52657696490493" lon="10.408840319468094"><ele>606.5</ele><time>2026-04-11T13:35:34.999Z</time></trkpt><trkpt lat="44.526483250275454" lon="10.408841396154724"><ele>607.6666666666667</ele><time>2026-04-11T13:35:38.999Z</time></trkpt><trkpt lat="44.52655965379771" lon="10.408843305314965"><ele>608.8333333333334</ele><time>2026-04-11T13:36:45.999Z</time></trkpt><trkpt lat="44.526629673713586" lon="10.40884146009676"><ele>610.0</ele><time>2026-04-11T13:36:48.999Z</time></trkpt><trkpt lat="44.5267088545171" lon="10.408816387624906"><ele>610.0</ele><time>2026-04-11T13:36:51Z</time></trkpt><trkpt lat="44.52680192367246" lon="10.40878607584282"><ele>610.0</ele><time>2026-04-11T13:36:53Z</time></trkpt><trkpt lat="44.52689221843749" lon="10.408775809910965"><ele>610.0</ele><time>2026-04-11T13:36:55Z</time></trkpt><trkpt lat="44.52695657740496" lon="10.408792509811738"><ele>610.0</ele><time>2026-04-11T13:36:59Z</time></trkpt><trkpt lat="44.526901013769525" lon="10.408975568631696"><ele>610.0</ele><time>2026-04-11T13:37:12.999Z</time></trkpt><trkpt lat="44.52686922858423" lon="10.409098310397797"><ele>610.4</ele><time>2026-04-11T13:37:14.999Z</time></trkpt><trkpt lat="44.526824234445805" lon="10.409220111578184"><ele>610.8</ele><time>2026-04-11T13:37:16.999Z</time></trkpt><trkpt lat="44.526775929531155" lon="10.40934329834598"><ele>611.2</ele><time>2026-04-11T13:37:18.999Z</time></trkpt><trkpt lat="44.52673765932794" lon="10.409476060598378"><ele>611.6</ele><time>2026-04-11T13:37:20.999Z</time></trkpt><trkpt lat="44.526716231571584" lon="10.409622432950258"><ele>612.0</ele><time>2026-04-11T13:37:22.999Z</time></trkpt><trkpt lat="44.52670882038403" lon="10.409776106835805"><ele>612.8000000000001</ele><time>2026-04-11T13:37:24.999Z</time></trkpt><trkpt lat="44.526710426859786" lon="10.409931402376676"><ele>613.6</ele><time>2026-04-11T13:37:26.999Z</time></trkpt><trkpt lat="44.526716557499604" lon="10.410091882133306"><ele>614.4000000000001</ele><time>2026-04-11T13:37:28.999Z</time></trkpt><trkpt lat="44.526727460155875" lon="10.410216846847728"><ele>615.2</ele><time>2026-04-11T13:37:30.999Z</time></trkpt><trkpt lat="44.52674464029919" lon="10.410330668691586"><ele>616.0</ele><time>2026-04-11T13:37:33.999Z</time></trkpt><trkpt lat="44.5268134834011" lon="10.41028531787062"><ele>616.0</ele><time>2026-04-11T13:38:14.999Z</time></trkpt><trkpt lat="44.52676953475927" lon="10.4101653032186"><ele>616.0</ele><time>2026-04-11T13:38:18.999Z</time></trkpt><trkpt lat="44.52672972719337" lon="10.410030910538026"><ele>616.0</ele><time>2026-04-11T13:38:20.999Z</time></trkpt><trkpt lat="44.526730387287984" lon="10.409916770768323"><ele>616.0</ele><time>2026-04-11T13:38:21.999Z</time></trkpt><trkpt lat="44.52673668417427" lon="10.409731606861953"><ele>616.0</ele><time>2026-04-11T13:38:23.999Z</time></trkpt><trkpt lat="44.52674324409005" lon="10.409617172604978"><ele>615.4285714285714</ele><time>2026-04-11T13:38:24.999Z</time></trkpt><trkpt lat="44.526755104816466" lon="10.409522029670933"><ele>614.8571428571429</ele><time>2026-04-11T13:38:25.999Z</time></trkpt><trkpt lat="44.52677539279378" lon="10.409432052661431"><ele>614.2857142857142</ele><time>2026-04-11T13:38:26.999Z</time></trkpt><trkpt lat="44.52680849714175" lon="10.409325626134663"><ele>613.7142857142858</ele><time>2026-04-11T13:38:27.999Z</time></trkpt><trkpt lat="44.52684672216504" lon="10.409218200273276"><ele>613.1428571428571</ele><time>2026-04-11T13:38:28.999Z</time></trkpt><trkpt lat="44.52688278873234" lon="10.409129356278585"><ele>612.5714285714286</ele><time>2026-04-11T13:38:29.999Z</time></trkpt><trkpt lat="44.52691439107091" lon="10.40904623701722"><ele>612.0</ele><time>2026-04-11T13:38:30.999Z</time></trkpt><trkpt lat="44.526937908696716" lon="10.408943422063363"><ele>611.6666666666666</ele><time>2026-04-11T13:38:31.999Z</time></trkpt><trkpt lat="44.52695513896644" lon="10.408821255552171"><ele>611.3333333333334</ele><time>2026-04-11T13:38:33.998Z</time></trkpt><trkpt lat="44.527033487481255" lon="10.408744181035699"><ele>611.0</ele><time>2026-04-11T13:38:35.998Z</time></trkpt><trkpt lat="44.527095135853365" lon="10.408763074350706"><ele>610.6666666666667</ele><time>2026-04-11T13:38:36.998Z</time></trkpt><trkpt lat="44.52717748919316" lon="10.408827682734492"><ele>610.3333333333334</ele><time>2026-04-11T13:38:37.998Z</time></trkpt><trkpt lat="44.52726907209886" lon="10.40882811954048"><ele>610.0</ele><time>2026-04-11T13:38:38.998Z</time></trkpt><trkpt lat="44.52737185801618" lon="10.408808533439146"><ele>608.6</ele><time>2026-04-11T13:38:39.998Z</time></trkpt><trkpt lat="44.52748525298276" lon="10.408814077540224"><ele>607.2</ele><time>2026-04-11T13:38:40.998Z</time></trkpt><trkpt lat="44.52759065276853" lon="10.408810506096993"><ele>605.8</ele><time>2026-04-11T13:38:41.998Z</time></trkpt><trkpt lat="44.52768937297858" lon="10.408807951281396"><ele>604.4</ele><time>2026-04-11T13:38:42.998Z</time></trkpt><trkpt lat="44.52778537381053" lon="10.408805466841406"><ele>603.0</ele><time>2026-04-11T13:38:43.998Z</time></trkpt><trkpt lat="44.52787755368624" lon="10.408804587888469"><ele>601.5</ele><time>2026-04-11T13:38:44.998Z</time></trkpt><trkpt lat="44.52797166594881" lon="10.408806237839471"><ele>600.0</ele><time>2026-04-11T13:38:45.998Z</time></trkpt><trkpt lat="44.52806198264836" lon="10.408797515368708"><ele>598.5</ele><time>2026-04-11T13:38:46.999Z</time></trkpt><trkpt lat="44.52814124661686" lon="10.408788111786652"><ele>597.0</ele><time>2026-04-11T13:38:48Z</time></trkpt><trkpt lat="44.528215566990454" lon="10.408779294693657"><ele>595.5</ele><time>2026-04-11T13:38:49Z</time></trkpt><trkpt lat="44.528285937152226" lon="10.408771816113932"><ele>594.0</ele><time>2026-04-11T13:38:50Z</time></trkpt><trkpt lat="44.52835361770857" lon="10.408764917335832"><ele>594.0</ele><time>2026-04-11T13:38:51Z</time></trkpt><trkpt lat="44.52842068617105" lon="10.408757451028826"><ele>594.0</ele><time>2026-04-11T13:38:52Z</time></trkpt><trkpt lat="44.52848831029818" lon="10.408729549532188"><ele>594.0</ele><time>2026-04-11T13:38:53Z</time></trkpt><trkpt lat="44.52856098096936" lon="10.408717336196846"><ele>594.0</ele><time>2026-04-11T13:38:54Z</time></trkpt><trkpt lat="44.52863379810518" lon="10.408719176272314"><ele>594.0</ele><time>2026-04-11T13:38:55Z</time></trkpt><trkpt lat="44.52875156366464" lon="10.408700460993543"><ele>594.0</ele><time>2026-04-11T13:38:57Z</time></trkpt><trkpt lat="44.528874975798736" lon="10.408726989396978"><ele>592.5714285714286</ele><time>2026-04-11T13:38:59Z</time></trkpt><trkpt lat="44.52893189059399" lon="10.408787149551795"><ele>591.1428571428572</ele><time>2026-04-11T13:39:00Z</time></trkpt><trkpt lat="44.528999980959405" lon="10.408838089144126"><ele>589.7142857142858</ele><time>2026-04-11T13:39:01Z</time></trkpt><trkpt lat="44.52907624115434" lon="10.408845102876038"><ele>588.2857142857143</ele><time>2026-04-11T13:39:02Z</time></trkpt><trkpt lat="44.529139757542154" lon="10.408882083603284"><ele>586.8571428571429</ele><time>2026-04-11T13:39:03Z</time></trkpt><trkpt lat="44.529204861635975" lon="10.408895650090665"><ele>585.4285714285714</ele><time>2026-04-11T13:39:04Z</time></trkpt><trkpt lat="44.52927227343762" lon="10.40890883758368"><ele>584.0</ele><time>2026-04-11T13:39:05Z</time></trkpt><trkpt lat="44.52934823736983" lon="10.4089224597954"><ele>583.5</ele><time>2026-04-11T13:39:06Z</time></trkpt><trkpt lat="44.52942382276226" lon="10.408911051322391"><ele>583.0</ele><time>2026-04-11T13:39:07Z</time></trkpt><trkpt lat="44.52950662215404" lon="10.408929451300422"><ele>582.5</ele><time>2026-04-11T13:39:08Z</time></trkpt><trkpt lat="44.52958787305077" lon="10.408933739649061"><ele>582.0</ele><time>2026-04-11T13:39:09Z</time></trkpt><trkpt lat="44.52966231879752" lon="10.408927471414103"><ele>581.5</ele><time>2026-04-11T13:39:10Z</time></trkpt><trkpt lat="44.52978393875742" lon="10.408913435323342"><ele>581.0</ele><time>2026-04-11T13:39:12Z</time></trkpt><trkpt lat="44.52989855190752" lon="10.408884693706042"><ele>579.4</ele><time>2026-04-11T13:39:14Z</time></trkpt><trkpt lat="44.53000283252329" lon="10.408846647411442"><ele>577.8</ele><time>2026-04-11T13:39:16Z</time></trkpt><trkpt lat="44.53010516286711" lon="10.40879296896853"><ele>576.1999999999999</ele><time>2026-04-11T13:39:18Z</time></trkpt><trkpt lat="44.530201412963045" lon="10.408735008383978"><ele>574.6</ele><time>2026-04-11T13:39:20Z</time></trkpt><trkpt lat="44.53028332368138" lon="10.408692218204568"><ele>573.0</ele><time>2026-04-11T13:39:21.999Z</time></trkpt><trkpt lat="44.53029506648955" lon="10.408780489840296"><ele>572.6666666666666</ele><time>2026-04-11T13:39:23.999Z</time></trkpt><trkpt lat="44.53023668158747" lon="10.408842238816082"><ele>572.3333333333334</ele><time>2026-04-11T13:39:25.999Z</time></trkpt><trkpt lat="44.530151310680836" lon="10.40898636319463"><ele>572.0</ele><time>2026-04-11T13:40:23.999Z</time></trkpt><trkpt lat="44.530097336516235" lon="10.40907251675492"><ele>571.6666666666667</ele><time>2026-04-11T13:40:24.999Z</time></trkpt><trkpt lat="44.53004659306719" lon="10.409146134604109"><ele>571.3333333333334</ele><time>2026-04-11T13:40:25.999Z</time></trkpt><trkpt lat="44.52999279426929" lon="10.409214120726649"><ele>571.0</ele><time>2026-04-11T13:40:26.999Z</time></trkpt><trkpt lat="44.52993464751636" lon="10.4092877089431"><ele>571.0</ele><time>2026-04-11T13:40:27.999Z</time></trkpt><trkpt lat="44.52987413853655" lon="10.409358925435496"><ele>571.0</ele><time>2026-04-11T13:40:28.999Z</time></trkpt><trkpt lat="44.529807123743794" lon="10.40942163055808"><ele>571.0</ele><time>2026-04-11T13:40:29.999Z</time></trkpt><trkpt lat="44.52974831841212" lon="10.409478820829165"><ele>571.0</ele><time>2026-04-11T13:40:30.999Z</time></trkpt><trkpt lat="44.529654018177766" lon="10.409581074258881"><ele>571.0</ele><time>2026-04-11T13:40:32.999Z</time></trkpt><trkpt lat="44.529563544164745" lon="10.409678144343996"><ele>571.0</ele><time>2026-04-11T13:40:34.999Z</time></trkpt><trkpt lat="44.52950643366742" lon="10.409722319246415"><ele>571.0</ele><time>2026-04-11T13:40:35.999Z</time></trkpt><trkpt lat="44.529443077542794" lon="10.409763058676125"><ele>571.0</ele><time>2026-04-11T13:40:36.999Z</time></trkpt><trkpt lat="44.529374038583285" lon="10.409808841423466"><ele>571.0</ele><time>2026-04-11T13:40:37.999Z</time></trkpt><trkpt lat="44.52930532374667" lon="10.409846916347671"><ele>571.0</ele><time>2026-04-11T13:40:38.999Z</time></trkpt><trkpt lat="44.52917639211963" lon="10.409894736042377"><ele>571.0</ele><time>2026-04-11T13:40:40.999Z</time></trkpt><trkpt lat="44.529102687279796" lon="10.409900133551867"><ele>571.0</ele><time>2026-04-11T13:40:41.999Z</time></trkpt><trkpt lat="44.52903402996495" lon="10.409922077355574"><ele>571.0</ele><time>2026-04-11T13:40:42.999Z</time></trkpt><trkpt lat="44.52895930196155" lon="10.40995353766088"><ele>571.0</ele><time>2026-04-11T13:40:43.999Z</time></trkpt><trkpt lat="44.528896004573355" lon="10.409988996404495"><ele>571.0</ele><time>2026-04-11T13:40:44.999Z</time></trkpt><trkpt lat="44.52880988883293" lon="10.410048631426145"><ele>571.0</ele><time>2026-04-11T13:40:46.999Z</time></trkpt><trkpt lat="44.52874025811333" lon="10.41010577716745"><ele>571.0</ele><time>2026-04-11T13:40:48.999Z</time></trkpt><trkpt lat="44.52867878913142" lon="10.410158839601918"><ele>573.3333333333334</ele><time>2026-04-11T13:40:50.999Z</time></trkpt><trkpt lat="44.528601279165294" lon="10.410205405915807"><ele>575.6666666666667</ele><time>2026-04-11T13:40:54Z</time></trkpt><trkpt lat="44.52853629552097" lon="10.410232065963214"><ele>578.0</ele><time>2026-04-11T13:40:58Z</time></trkpt><trkpt lat="44.52845617666386" lon="10.410232018332943"><ele>580.3333333333334</ele><time>2026-04-11T13:41:03Z</time></trkpt><trkpt lat="44.52835582351079" lon="10.410240069371564"><ele>582.6666666666666</ele><time>2026-04-11T13:41:05Z</time></trkpt><trkpt lat="44.5282421827457" lon="10.41026726975756"><ele>585.0</ele><time>2026-04-11T13:41:07Z</time></trkpt><trkpt lat="44.528195590763495" lon="10.41032676491321"><ele>585.0</ele><time>2026-04-11T13:41:08Z</time></trkpt><trkpt lat="44.52817352015825" lon="10.410411163059344"><ele>585.0</ele><time>2026-04-11T13:41:09Z</time></trkpt><trkpt lat="44.52816705264446" lon="10.410603416806255"><ele>585.0</ele><time>2026-04-11T13:41:11Z</time></trkpt><trkpt lat="44.52817638262123" lon="10.410710968241855"><ele>585.0</ele><time>2026-04-11T13:41:12Z</time></trkpt><trkpt lat="44.52818316689599" lon="10.410817226360017"><ele>585.0</ele><time>2026-04-11T13:41:13Z</time></trkpt><trkpt lat="44.528172947357255" lon="10.41092895286229"><ele>585.0</ele><time>2026-04-11T13:41:14Z</time></trkpt><trkpt lat="44.52816041873881" lon="10.411035129604132"><ele>584.1666666666666</ele><time>2026-04-11T13:41:15Z</time></trkpt><trkpt lat="44.52815127508459" lon="10.41113320727985"><ele>583.3333333333334</ele><time>2026-04-11T13:41:16Z</time></trkpt><trkpt lat="44.52814008080281" lon="10.41124381384654"><ele>582.5</ele><time>2026-04-11T13:41:17Z</time></trkpt><trkpt lat="44.52812907833587" lon="10.411366356969806"><ele>581.6666666666667</ele><time>2026-04-11T13:41:18Z</time></trkpt><trkpt lat="44.52812479744204" lon="10.411490693913855"><ele>580.8333333333334</ele><time>2026-04-11T13:41:19Z</time></trkpt><trkpt lat="44.52811808891996" lon="10.411621671467545"><ele>580.0</ele><time>2026-04-11T13:41:20Z</time></trkpt><trkpt lat="44.52810772408832" lon="10.411750333684013"><ele>580.0</ele><time>2026-04-11T13:41:21Z</time></trkpt><trkpt lat="44.52810154879786" lon="10.41185979664654"><ele>580.0</ele><time>2026-04-11T13:41:22Z</time></trkpt><trkpt lat="44.528093302810326" lon="10.411963484658992"><ele>580.0</ele><time>2026-04-11T13:41:23Z</time></trkpt><trkpt lat="44.528094255466534" lon="10.412069375660277"><ele>580.0</ele><time>2026-04-11T13:41:24Z</time></trkpt><trkpt lat="44.528114257431184" lon="10.41218008819965"><ele>580.0</ele><time>2026-04-11T13:41:25Z</time></trkpt><trkpt lat="44.5281510142765" lon="10.41228434956504"><ele>580.0</ele><time>2026-04-11T13:41:26Z</time></trkpt><trkpt lat="44.528204426606585" lon="10.41238599619108"><ele>581.0</ele><time>2026-04-11T13:41:27Z</time></trkpt><trkpt lat="44.52824791767603" lon="10.412502804966644"><ele>582.0</ele><time>2026-04-11T13:41:28Z</time></trkpt><trkpt lat="44.52830962821099" lon="10.412614424414677"><ele>583.0</ele><time>2026-04-11T13:41:29Z</time></trkpt><trkpt lat="44.52838413727088" lon="10.412716192425338"><ele>584.0</ele><time>2026-04-11T13:41:30Z</time></trkpt><trkpt lat="44.52844396817278" lon="10.412822000018046"><ele>585.0</ele><time>2026-04-11T13:41:31Z</time></trkpt><trkpt lat="44.528500576356656" lon="10.412919726684967"><ele>584.1666666666666</ele><time>2026-04-11T13:41:32Z</time></trkpt><trkpt lat="44.52855230025116" lon="10.413015277550938"><ele>583.3333333333334</ele><time>2026-04-11T13:41:33Z</time></trkpt><trkpt lat="44.528600676008665" lon="10.413108019043865"><ele>582.5</ele><time>2026-04-11T13:41:34Z</time></trkpt><trkpt lat="44.52864929504267" lon="10.413202372443237"><ele>581.6666666666667</ele><time>2026-04-11T13:41:35Z</time></trkpt><trkpt lat="44.52869092893299" lon="10.413294021379905"><ele>580.8333333333334</ele><time>2026-04-11T13:41:36Z</time></trkpt><trkpt lat="44.52873550686964" lon="10.413376494915273"><ele>580.0</ele><time>2026-04-11T13:41:37Z</time></trkpt><trkpt lat="44.528782265636124" lon="10.413452565584187"><ele>580.0</ele><time>2026-04-11T13:41:38Z</time></trkpt><trkpt lat="44.52882766283804" lon="10.413532095380907"><ele>580.0</ele><time>2026-04-11T13:41:39Z</time></trkpt><trkpt lat="44.52887119044841" lon="10.413607708272753"><ele>580.0</ele><time>2026-04-11T13:41:40Z</time></trkpt><trkpt lat="44.528917400953176" lon="10.413682512596175"><ele>580.0</ele><time>2026-04-11T13:41:40.999Z</time></trkpt><trkpt lat="44.52896652000264" lon="10.413758831243323"><ele>580.0</ele><time>2026-04-11T13:41:41.999Z</time></trkpt><trkpt lat="44.52901961799888" lon="10.413830307080532"><ele>580.0</ele><time>2026-04-11T13:41:42.999Z</time></trkpt><trkpt lat="44.529075032849676" lon="10.41389505233282"><ele>580.0</ele><time>2026-04-11T13:41:43.999Z</time></trkpt><trkpt lat="44.529128091940535" lon="10.413960868058377"><ele>582.0</ele><time>2026-04-11T13:41:44.999Z</time></trkpt><trkpt lat="44.52917813242269" lon="10.41403140791696"><ele>584.0</ele><time>2026-04-11T13:41:45.999Z</time></trkpt><trkpt lat="44.52923658494318" lon="10.41410001198128"><ele>586.0</ele><time>2026-04-11T13:41:46.999Z</time></trkpt><trkpt lat="44.529302428638495" lon="10.414158607055302"><ele>588.0</ele><time>2026-04-11T13:41:47.999Z</time></trkpt><trkpt lat="44.52936950549014" lon="10.414200746607436"><ele>590.0</ele><time>2026-04-11T13:41:48.999Z</time></trkpt><trkpt lat="44.529441935871084" lon="10.414237981928506"><ele>592.0</ele><time>2026-04-11T13:41:49.999Z</time></trkpt><trkpt lat="44.52952070852992" lon="10.414277119723803"><ele>591.4</ele><time>2026-04-11T13:41:50.999Z</time></trkpt><trkpt lat="44.529596551844854" lon="10.414315499064429"><ele>590.8000000000001</ele><time>2026-04-11T13:41:51.999Z</time></trkpt><trkpt lat="44.529660929463155" lon="10.41436053720283"><ele>590.2</ele><time>2026-04-11T13:41:52.999Z</time></trkpt><trkpt lat="44.52975406962942" lon="10.414460725372885"><ele>589.6</ele><time>2026-04-11T13:41:54.999Z</time></trkpt><trkpt lat="44.52984130486471" lon="10.414588288453407"><ele>589.0</ele><time>2026-04-11T13:41:56.999Z</time></trkpt><trkpt lat="44.52988837308699" lon="10.414663679439673"><ele>589.0</ele><time>2026-04-11T13:41:57.999Z</time></trkpt><trkpt lat="44.52993519165057" lon="10.414732358865628"><ele>589.0</ele><time>2026-04-11T13:41:58.999Z</time></trkpt><trkpt lat="44.52998116841341" lon="10.414798670401112"><ele>589.0</ele><time>2026-04-11T13:41:59.999Z</time></trkpt><trkpt lat="44.530031426409685" lon="10.41485738786157"><ele>589.0</ele><time>2026-04-11T13:42:00.999Z</time></trkpt><trkpt lat="44.530084118218205" lon="10.414917304369078"><ele>589.0</ele><time>2026-04-11T13:42:01.999Z</time></trkpt><trkpt lat="44.53012559800707" lon="10.414992683169164"><ele>589.0</ele><time>2026-04-11T13:42:02.999Z</time></trkpt><trkpt lat="44.530214045008" lon="10.415082837918916"><ele>589.0</ele><time>2026-04-11T13:42:04.999Z</time></trkpt><trkpt lat="44.53024653247856" lon="10.415177568820914"><ele>589.0</ele><time>2026-04-11T13:42:07.999Z</time></trkpt><trkpt lat="44.53015075546706" lon="10.415167063765095"><ele>589.0</ele><time>2026-04-11T13:42:09.999Z</time></trkpt><trkpt lat="44.53008520314459" lon="10.415161616446913"><ele>589.0</ele><time>2026-04-11T13:42:10.999Z</time></trkpt><trkpt lat="44.53001692423646" lon="10.415160659681966"><ele>589.0</ele><time>2026-04-11T13:42:11.999Z</time></trkpt><trkpt lat="44.52994225901671" lon="10.41516137046419"><ele>589.0</ele><time>2026-04-11T13:42:12.999Z</time></trkpt><trkpt lat="44.52987316315309" lon="10.415175509702042"><ele>589.0</ele><time>2026-04-11T13:42:13.999Z</time></trkpt><trkpt lat="44.52975504243579" lon="10.415231413228945"><ele>589.0</ele><time>2026-04-11T13:42:16.999Z</time></trkpt><trkpt lat="44.529702352917184" lon="10.41513606654541"><ele>589.0</ele><time>2026-04-11T13:42:18.999Z</time></trkpt><trkpt lat="44.5296594548822" lon="10.415069739763453"><ele>589.0</ele><time>2026-04-11T13:42:20.999Z</time></trkpt><trkpt lat="44.52961433482704" lon="10.414982334541422"><ele>589.0</ele><time>2026-04-11T13:42:23.999Z</time></trkpt><trkpt lat="44.5295649231304" lon="10.414878366228434"><ele>589.0</ele><time>2026-04-11T13:42:25.999Z</time></trkpt><trkpt lat="44.529499846035456" lon="10.41468149553377"><ele>589.6</ele><time>2026-04-11T13:42:27.999Z</time></trkpt><trkpt lat="44.52943933997808" lon="10.41462107213186"><ele>590.2</ele><time>2026-04-11T13:42:28.999Z</time></trkpt><trkpt lat="44.52936925250168" lon="10.4145637188145"><ele>590.8000000000001</ele><time>2026-04-11T13:42:29.999Z</time></trkpt><trkpt lat="44.529294558034586" lon="10.414514211614419"><ele>591.4</ele><time>2026-04-11T13:42:31.999Z</time></trkpt><trkpt lat="44.52919204837489" lon="10.414442338434501"><ele>592.0</ele><time>2026-04-11T13:42:33.999Z</time></trkpt><trkpt lat="44.52909349658972" lon="10.414355878404981"><ele>592.0</ele><time>2026-04-11T13:42:35.999Z</time></trkpt><trkpt lat="44.52903819240962" lon="10.414307392990747"><ele>592.0</ele><time>2026-04-11T13:42:36.999Z</time></trkpt><trkpt lat="44.52893232876194" lon="10.414210610787864"><ele>592.0</ele><time>2026-04-11T13:42:38.999Z</time></trkpt><trkpt lat="44.52887764519573" lon="10.414157386472839"><ele>592.0</ele><time>2026-04-11T13:42:39.999Z</time></trkpt><trkpt lat="44.528775528234455" lon="10.414050050969298"><ele>592.0</ele><time>2026-04-11T13:42:41.999Z</time></trkpt><trkpt lat="44.52872210452729" lon="10.413990791722291"><ele>592.3333333333334</ele><time>2026-04-11T13:42:42.999Z</time></trkpt><trkpt lat="44.52866512316426" lon="10.413928624556785"><ele>592.6666666666667</ele><time>2026-04-11T13:42:43.999Z</time></trkpt><trkpt lat="44.528607202347615" lon="10.413863604352027"><ele>593.0</ele><time>2026-04-11T13:42:44.999Z</time></trkpt><trkpt lat="44.52854344604147" lon="10.41379157860152"><ele>593.3333333333334</ele><time>2026-04-11T13:42:45.999Z</time></trkpt><trkpt lat="44.528483406570345" lon="10.413722543106305"><ele>593.6666666666666</ele><time>2026-04-11T13:42:46.999Z</time></trkpt><trkpt lat="44.52842430276843" lon="10.413652931322133"><ele>594.0</ele><time>2026-04-11T13:42:47.999Z</time></trkpt><trkpt lat="44.52836387315501" lon="10.413578953991724"><ele>594.0</ele><time>2026-04-11T13:42:48.999Z</time></trkpt><trkpt lat="44.528303882225416" lon="10.413505542959012"><ele>594.0</ele><time>2026-04-11T13:42:49.999Z</time></trkpt><trkpt lat="44.52823936061017" lon="10.413427245016708"><ele>594.0</ele><time>2026-04-11T13:42:50.999Z</time></trkpt><trkpt lat="44.52815859437558" lon="10.4133363044235"><ele>594.0</ele><time>2026-04-11T13:42:51.999Z</time></trkpt><trkpt lat="44.52809637752156" lon="10.413270244056216"><ele>594.0</ele><time>2026-04-11T13:42:52.999Z</time></trkpt><trkpt lat="44.52804095208195" lon="10.413211394608314"><ele>594.0</ele><time>2026-04-11T13:42:53.999Z</time></trkpt><trkpt lat="44.52796341037855" lon="10.413117257947048"><ele>602.0</ele><time>2026-04-11T13:42:55.999Z</time></trkpt><trkpt lat="44.52784137817227" lon="10.413078315028246"><ele>610.0</ele><time>2026-04-11T13:42:57.999Z</time></trkpt><trkpt lat="44.5272646033938" lon="10.413610713650286"><ele>610.0</ele><time>2026-04-11T13:43:00.999Z</time></trkpt><trkpt lat="44.52714841512672" lon="10.413549428835434"><ele>610.0</ele><time>2026-04-11T13:43:03Z</time></trkpt><trkpt lat="44.527083550323496" lon="10.413489310641264"><ele>610.0</ele><time>2026-04-11T13:43:04Z</time></trkpt><trkpt lat="44.52702367236847" lon="10.413420328412325"><ele>610.0</ele><time>2026-04-11T13:43:05Z</time></trkpt><trkpt lat="44.52695618967927" lon="10.413347316934802"><ele>610.0</ele><time>2026-04-11T13:43:06Z</time></trkpt><trkpt lat="44.52688924584637" lon="10.41329979870398"><ele>610.0</ele><time>2026-04-11T13:43:07Z</time></trkpt><trkpt lat="44.526763251736284" lon="10.413262685590345"><ele>612.0</ele><time>2026-04-11T13:43:09Z</time></trkpt><trkpt lat="44.526695617349084" lon="10.41326745503482"><ele>614.0</ele><time>2026-04-11T13:43:10Z</time></trkpt><trkpt lat="44.526612123444636" lon="10.413278098284827"><ele>616.0</ele><time>2026-04-11T13:43:11Z</time></trkpt><trkpt lat="44.52650653615811" lon="10.413248093677169"><ele>618.0</ele><time>2026-04-11T13:43:13Z</time></trkpt><trkpt lat="44.52641516093042" lon="10.413201733139784"><ele>620.0</ele><time>2026-04-11T13:43:15Z</time></trkpt><trkpt lat="44.52635768029434" lon="10.413121405793204"><ele>622.0</ele><time>2026-04-11T13:43:17Z</time></trkpt><trkpt lat="44.52623804591639" lon="10.413093410388498"><ele>622.5</ele><time>2026-04-11T13:43:19Z</time></trkpt><trkpt lat="44.52614411013619" lon="10.413065565377075"><ele>623.0</ele><time>2026-04-11T13:43:20Z</time></trkpt><trkpt lat="44.52605267738336" lon="10.413012052550032"><ele>623.5</ele><time>2026-04-11T13:43:21Z</time></trkpt><trkpt lat="44.52597729656005" lon="10.412967883133401"><ele>624.0</ele><time>2026-04-11T13:43:23Z</time></trkpt><trkpt lat="44.52588603587416" lon="10.412968747081585"><ele>624.5</ele><time>2026-04-11T13:43:25Z</time></trkpt><trkpt lat="44.525811095683" lon="10.412964063757789"><ele>625.0</ele><time>2026-04-11T13:43:32.999Z</time></trkpt><trkpt lat="44.52571912436645" lon="10.412960000652866"><ele>627.6</ele><time>2026-04-11T13:43:34.999Z</time></trkpt><trkpt lat="44.525603633733326" lon="10.412924628188906"><ele>630.2</ele><time>2026-04-11T13:43:36.999Z</time></trkpt><trkpt lat="44.52552320265499" lon="10.412896582886855"><ele>632.8</ele><time>2026-04-11T13:43:38.999Z</time></trkpt><trkpt lat="44.525423487211725" lon="10.41284517078612"><ele>635.4</ele><time>2026-04-11T13:43:40.999Z</time></trkpt><trkpt lat="44.5253518667396" lon="10.412809110795552"><ele>638.0</ele><time>2026-04-11T13:43:41.999Z</time></trkpt><trkpt lat="44.525238987622316" lon="10.412777392778839"><ele>638.8333333333333</ele><time>2026-04-11T13:43:43.999Z</time></trkpt><trkpt lat="44.52517756435049" lon="10.412754158288648"><ele>639.6666666666666</ele><time>2026-04-11T13:43:44.999Z</time></trkpt><trkpt lat="44.52508595894044" lon="10.41273798108663"><ele>640.5</ele><time>2026-04-11T13:43:46.999Z</time></trkpt><trkpt lat="44.5249762892343" lon="10.41275836974069"><ele>641.3333333333334</ele><time>2026-04-11T13:43:48.999Z</time></trkpt><trkpt lat="44.5248697906906" lon="10.41274142861669"><ele>642.1666666666667</ele><time>2026-04-11T13:43:50.999Z</time></trkpt><trkpt lat="44.52479873721849" lon="10.412728263641158"><ele>643.0</ele><time>2026-04-11T13:43:51.999Z</time></trkpt><trkpt lat="44.524713465223094" lon="10.412736350845355"><ele>643.0</ele><time>2026-04-11T13:43:52.999Z</time></trkpt><trkpt lat="44.52463776492802" lon="10.412757123042208"><ele>643.0</ele><time>2026-04-11T13:43:53.999Z</time></trkpt><trkpt lat="44.52456610149442" lon="10.4127637482642"><ele>643.0</ele><time>2026-04-11T13:43:54.999Z</time></trkpt><trkpt lat="44.52450025931984" lon="10.412747972960771"><ele>643.0</ele><time>2026-04-11T13:43:55.999Z</time></trkpt><trkpt lat="44.52442005099755" lon="10.412734672035617"><ele>643.0</ele><time>2026-04-11T13:43:56.999Z</time></trkpt><trkpt lat="44.5243556969375" lon="10.412732144027558"><ele>643.0</ele><time>2026-04-11T13:43:57.999Z</time></trkpt><trkpt lat="44.52428149677552" lon="10.412714200996765"><ele>643.0</ele><time>2026-04-11T13:43:58.999Z</time></trkpt><trkpt lat="44.524213460052174" lon="10.412683840964092"><ele>642.5999999999999</ele><time>2026-04-11T13:43:59.999Z</time></trkpt><trkpt lat="44.52411078108051" lon="10.412612171572286"><ele>642.1999999999999</ele><time>2026-04-11T13:44:01.999Z</time></trkpt><trkpt lat="44.52403160347368" lon="10.41252374329485"><ele>641.8</ele><time>2026-04-11T13:44:03.999Z</time></trkpt><trkpt lat="44.52394195747255" lon="10.412495990805423"><ele>641.4</ele><time>2026-04-11T13:44:05.999Z</time></trkpt><trkpt lat="44.52381833959323" lon="10.412519438234135"><ele>641.0</ele><time>2026-04-11T13:44:07.999Z</time></trkpt><trkpt lat="44.52372063486671" lon="10.412552860199229"><ele>641.8333333333333</ele><time>2026-04-11T13:44:09.999Z</time></trkpt><trkpt lat="44.523648975402324" lon="10.4125607079585"><ele>642.6666666666666</ele><time>2026-04-11T13:44:10.999Z</time></trkpt><trkpt lat="44.523556712929064" lon="10.412594828959188"><ele>643.5</ele><time>2026-04-11T13:44:12.999Z</time></trkpt><trkpt lat="44.52346555652411" lon="10.41262935717212"><ele>644.3333333333334</ele><time>2026-04-11T13:44:14.999Z</time></trkpt><trkpt lat="44.52343102346096" lon="10.412726243973491"><ele>645.1666666666667</ele><time>2026-04-11T13:44:45.999Z</time></trkpt><trkpt lat="44.52338323746098" lon="10.412807423560503"><ele>646.0</ele><time>2026-04-11T13:44:47.999Z</time></trkpt><trkpt lat="44.523310202400886" lon="10.412858672709199"><ele>646.0</ele><time>2026-04-11T13:44:50.999Z</time></trkpt><trkpt lat="44.52327160373415" lon="10.412936813964864"><ele>646.0</ele><time>2026-04-11T13:44:52.999Z</time></trkpt><trkpt lat="44.523214444442885" lon="10.413034672063095"><ele>646.0</ele><time>2026-04-11T13:45:24Z</time></trkpt><trkpt lat="44.52313692190317" lon="10.4131546545533"><ele>646.0</ele><time>2026-04-11T13:45:26Z</time></trkpt><trkpt lat="44.52310374653972" lon="10.413230339848589"><ele>646.0</ele><time>2026-04-11T13:45:27Z</time></trkpt><trkpt lat="44.523057013878876" lon="10.413300392683675"><ele>646.0</ele><time>2026-04-11T13:45:28Z</time></trkpt><trkpt lat="44.52293442634366" lon="10.413388499646238"><ele>646.8333333333334</ele><time>2026-04-11T13:45:30Z</time></trkpt><trkpt lat="44.52287795005457" lon="10.413454864082935"><ele>647.6666666666667</ele><time>2026-04-11T13:45:31Z</time></trkpt><trkpt lat="44.522834565553815" lon="10.413559253540127"><ele>648.5</ele><time>2026-04-11T13:45:32Z</time></trkpt><trkpt lat="44.522778776093034" lon="10.413665570317129"><ele>649.3333333333334</ele><time>2026-04-11T13:45:33Z</time></trkpt><trkpt lat="44.52273374539803" lon="10.413775328837877"><ele>650.1666666666666</ele><time>2026-04-11T13:45:34Z</time></trkpt><trkpt lat="44.52264700020274" lon="10.413714060880817"><ele>651.0</ele><time>2026-04-11T13:45:37Z</time></trkpt><trkpt lat="44.522542331428426" lon="10.41365987775817"><ele>651.0</ele><time>2026-04-11T13:45:39Z</time></trkpt><trkpt lat="44.5224857265356" lon="10.413559452920262"><ele>651.0</ele><time>2026-04-11T13:45:41Z</time></trkpt><trkpt lat="44.52246083061372" lon="10.41345328316376"><ele>651.0</ele><time>2026-04-11T13:45:43Z</time></trkpt><trkpt lat="44.522365050644" lon="10.41333940860516"><ele>651.0</ele><time>2026-04-11T13:45:45Z</time></trkpt><trkpt lat="44.52229981154934" lon="10.413262448394397"><ele>651.0</ele><time>2026-04-11T13:45:47Z</time></trkpt><trkpt lat="44.52220265975179" lon="10.413315357822432"><ele>651.0</ele><time>2026-04-11T13:45:49Z</time></trkpt><trkpt lat="44.52210779814773" lon="10.413372544863849"><ele>651.0</ele><time>2026-04-11T13:45:51Z</time></trkpt><trkpt lat="44.52202289601399" lon="10.413336913087385"><ele>651.0</ele><time>2026-04-11T13:45:52.999Z</time></trkpt><trkpt lat="44.52189059584752" lon="10.41329514169385"><ele>651.0</ele><time>2026-04-11T13:45:54.999Z</time></trkpt><trkpt lat="44.5218130170948" lon="10.413280434646497"><ele>651.0</ele><time>2026-04-11T13:45:55.999Z</time></trkpt><trkpt lat="44.52175124383422" lon="10.413252226137157"><ele>650.5999999999999</ele><time>2026-04-11T13:45:56.999Z</time></trkpt><trkpt lat="44.521677785518634" lon="10.413203754670258"><ele>650.2</ele><time>2026-04-11T13:45:57.999Z</time></trkpt><trkpt lat="44.521581313263326" lon="10.413133706093024"><ele>649.8</ele><time>2026-04-11T13:45:59.999Z</time></trkpt><trkpt lat="44.52148338930473" lon="10.413076009191402"><ele>649.4000000000001</ele><time>2026-04-11T13:46:01.999Z</time></trkpt><trkpt lat="44.521408639426205" lon="10.412992454401481"><ele>649.0</ele><time>2026-04-11T13:46:03.999Z</time></trkpt><trkpt lat="44.521357481297784" lon="10.41293444339295"><ele>649.0</ele><time>2026-04-11T13:46:04.999Z</time></trkpt><trkpt lat="44.5212869485261" lon="10.412810163357843"><ele>649.0</ele><time>2026-04-11T13:46:06.999Z</time></trkpt><trkpt lat="44.52122694720745" lon="10.412721576185023"><ele>649.0</ele><time>2026-04-11T13:46:08.999Z</time></trkpt><trkpt lat="44.52114749822013" lon="10.412639891869876"><ele>649.0</ele><time>2026-04-11T13:46:10.999Z</time></trkpt><trkpt lat="44.521124290232365" lon="10.412531362760127"><ele>649.0</ele><time>2026-04-11T13:46:12.999Z</time></trkpt><trkpt lat="44.521085781046565" lon="10.412386156475844"><ele>646.4000000000001</ele><time>2026-04-11T13:46:14.999Z</time></trkpt><trkpt lat="44.521016631601995" lon="10.412326937266991"><ele>643.8000000000001</ele><time>2026-04-11T13:46:16.999Z</time></trkpt><trkpt lat="44.52092447589203" lon="10.41221945402615"><ele>641.2</ele><time>2026-04-11T13:46:18.999Z</time></trkpt><trkpt lat="44.52080239308047" lon="10.412180167319432"><ele>638.6</ele><time>2026-04-11T13:46:20.999Z</time></trkpt><trkpt lat="44.52073899419809" lon="10.412201113283142"><ele>636.0</ele><time>2026-04-11T13:46:21.999Z</time></trkpt><trkpt lat="44.52066049429132" lon="10.412243462314855"><ele>636.0</ele><time>2026-04-11T13:46:23.999Z</time></trkpt><trkpt lat="44.52055206181959" lon="10.412260502401603"><ele>636.0</ele><time>2026-04-11T13:46:25.999Z</time></trkpt><trkpt lat="44.52048030594831" lon="10.412281793005052"><ele>636.0</ele><time>2026-04-11T13:46:26.999Z</time></trkpt><trkpt lat="44.520401696605695" lon="10.412337825262954"><ele>636.0</ele><time>2026-04-11T13:46:28.999Z</time></trkpt><trkpt lat="44.52031254556293" lon="10.41242980556374"><ele>636.0</ele><time>2026-04-11T13:46:30.999Z</time></trkpt><trkpt lat="44.52022756650359" lon="10.412499414767813"><ele>635.6666666666666</ele><time>2026-04-11T13:46:32.999Z</time></trkpt><trkpt lat="44.52013997393594" lon="10.41256049057525"><ele>635.3333333333334</ele><time>2026-04-11T13:46:34.999Z</time></trkpt><trkpt lat="44.52004973879855" lon="10.41257611706187"><ele>635.0</ele><time>2026-04-11T13:46:36.999Z</time></trkpt><trkpt lat="44.51996599179784" lon="10.412556785136767"><ele>634.6666666666667</ele><time>2026-04-11T13:46:38.999Z</time></trkpt><trkpt lat="44.51987005010091" lon="10.412541195635704"><ele>634.3333333333334</ele><time>2026-04-11T13:46:40.999Z</time></trkpt><trkpt lat="44.51979560855164" lon="10.412514584862663"><ele>634.0</ele><time>2026-04-11T13:46:43.999Z</time></trkpt><trkpt lat="44.51970693815778" lon="10.41249872729702"><ele>634.0</ele><time>2026-04-11T13:46:45.999Z</time></trkpt><trkpt lat="44.51959019407392" lon="10.412494680690788"><ele>634.0</ele><time>2026-04-11T13:46:47.999Z</time></trkpt><trkpt lat="44.51952585231242" lon="10.412497284066168"><ele>634.0</ele><time>2026-04-11T13:46:48.999Z</time></trkpt><trkpt lat="44.51945532113586" lon="10.412509112426976"><ele>634.0</ele><time>2026-04-11T13:46:49.999Z</time></trkpt><trkpt lat="44.519367870141" lon="10.412546369543161"><ele>634.0</ele><time>2026-04-11T13:46:51.999Z</time></trkpt><trkpt lat="44.51926603941814" lon="10.412633401965099"><ele>634.8333333333334</ele><time>2026-04-11T13:46:53.999Z</time></trkpt><trkpt lat="44.51920968081998" lon="10.412687778894231"><ele>635.6666666666667</ele><time>2026-04-11T13:46:54.999Z</time></trkpt><trkpt lat="44.51912044440297" lon="10.412761836116372"><ele>636.5</ele><time>2026-04-11T13:46:56.999Z</time></trkpt><trkpt lat="44.519039618288545" lon="10.412828997604691"><ele>637.3333333333334</ele><time>2026-04-11T13:46:58.999Z</time></trkpt><trkpt lat="44.51896745147631" lon="10.412893609079402"><ele>638.1666666666666</ele><time>2026-04-11T13:47:00.999Z</time></trkpt><trkpt lat="44.518890996422215" lon="10.412923371124803"><ele>639.0</ele><time>2026-04-11T13:47:02.999Z</time></trkpt><trkpt lat="44.51881626067777" lon="10.412909782573756"><ele>639.0</ele><time>2026-04-11T13:47:04.999Z</time></trkpt><trkpt lat="44.51873657589798" lon="10.412877434284294"><ele>639.0</ele><time>2026-04-11T13:47:06.999Z</time></trkpt><trkpt lat="44.51867444128922" lon="10.412803705791156"><ele>639.0</ele><time>2026-04-11T13:47:08.999Z</time></trkpt><trkpt lat="44.5185980349582" lon="10.41272863937609"><ele>639.0</ele><time>2026-04-11T13:47:11Z</time></trkpt><trkpt lat="44.51853684145464" lon="10.412640495430892"><ele>639.0</ele><time>2026-04-11T13:47:13Z</time></trkpt><trkpt lat="44.518471747759726" lon="10.41255436939858"><ele>639.0</ele><time>2026-04-11T13:47:15Z</time></trkpt><trkpt lat="44.51839787882291" lon="10.412501524370784"><ele>637.6</ele><time>2026-04-11T13:47:17Z</time></trkpt><trkpt lat="44.51832617315162" lon="10.412433737393847"><ele>636.2</ele><time>2026-04-11T13:47:19Z</time></trkpt><trkpt lat="44.51825863160792" lon="10.412332011544876"><ele>634.8000000000001</ele><time>2026-04-11T13:47:21Z</time></trkpt><trkpt lat="44.51816710926126" lon="10.412253679782339"><ele>633.4</ele><time>2026-04-11T13:47:23Z</time></trkpt><trkpt lat="44.518092488091135" lon="10.412131154756837"><ele>632.0</ele><time>2026-04-11T13:47:25Z</time></trkpt><trkpt lat="44.51805733095931" lon="10.412012864567487"><ele>632.0</ele><time>2026-04-11T13:47:27Z</time></trkpt><trkpt lat="44.518030433393314" lon="10.41188214748151"><ele>632.0</ele><time>2026-04-11T13:47:29Z</time></trkpt><trkpt lat="44.51798557664707" lon="10.411727654520137"><ele>632.0</ele><time>2026-04-11T13:47:31Z</time></trkpt><trkpt lat="44.517943409099516" lon="10.411617331141867"><ele>632.0</ele><time>2026-04-11T13:47:33Z</time></trkpt><trkpt lat="44.51791093974143" lon="10.411529030210026"><ele>632.0</ele><time>2026-04-11T13:47:35Z</time></trkpt><trkpt lat="44.5178999403016" lon="10.411410321341641"><ele>631.6</ele><time>2026-04-11T13:47:37Z</time></trkpt><trkpt lat="44.517893161390134" lon="10.41130131868052"><ele>631.2</ele><time>2026-04-11T13:47:39Z</time></trkpt><trkpt lat="44.51791254633006" lon="10.411113852198516"><ele>630.8</ele><time>2026-04-11T13:47:42Z</time></trkpt><trkpt lat="44.51793099192636" lon="10.410995639312263"><ele>630.4</ele><time>2026-04-11T13:47:44Z</time></trkpt><trkpt lat="44.51794721369498" lon="10.410882176474928"><ele>630.0</ele><time>2026-04-11T13:47:46Z</time></trkpt><trkpt lat="44.517990145823276" lon="10.410701624379668"><ele>630.0</ele><time>2026-04-11T13:47:48Z</time></trkpt><trkpt lat="44.517997441245356" lon="10.410552906389817"><ele>630.0</ele><time>2026-04-11T13:47:49Z</time></trkpt><trkpt lat="44.5179480822285" lon="10.41042867704631"><ele>630.0</ele><time>2026-04-11T13:47:50Z</time></trkpt><trkpt lat="44.517872256843894" lon="10.410311109092618"><ele>630.0</ele><time>2026-04-11T13:47:51Z</time></trkpt><trkpt lat="44.51781975874726" lon="10.41019620557869"><ele>630.0</ele><time>2026-04-11T13:47:52Z</time></trkpt><trkpt lat="44.517765236413254" lon="10.410068606025485"><ele>628.8333333333334</ele><time>2026-04-11T13:47:53Z</time></trkpt><trkpt lat="44.51770660833534" lon="10.409936373269238"><ele>627.6666666666666</ele><time>2026-04-11T13:47:54Z</time></trkpt><trkpt lat="44.51765923960939" lon="10.409819609872718"><ele>626.5</ele><time>2026-04-11T13:47:55Z</time></trkpt><trkpt lat="44.51761922505857" lon="10.409711930348259"><ele>625.3333333333333</ele><time>2026-04-11T13:47:56Z</time></trkpt><trkpt lat="44.51758482014604" lon="10.409621380589028"><ele>624.1666666666666</ele><time>2026-04-11T13:47:57Z</time></trkpt><trkpt lat="44.51755237846038" lon="10.409527968694356"><ele>623.0</ele><time>2026-04-11T13:47:58Z</time></trkpt><trkpt lat="44.51750932591036" lon="10.409359507767409"><ele>623.0</ele><time>2026-04-11T13:48:00Z</time></trkpt><trkpt lat="44.51748479036897" lon="10.409277099366859"><ele>623.0</ele><time>2026-04-11T13:48:01Z</time></trkpt><trkpt lat="44.51745757372925" lon="10.409195963132575"><ele>623.0</ele><time>2026-04-11T13:48:02Z</time></trkpt><trkpt lat="44.517359942573336" lon="10.409091217865164"><ele>623.0</ele><time>2026-04-11T13:48:04Z</time></trkpt><trkpt lat="44.51725575419303" lon="10.409065251304538"><ele>623.0</ele><time>2026-04-11T13:48:05Z</time></trkpt><trkpt lat="44.51715581286827" lon="10.409092881141667"><ele>623.0</ele><time>2026-04-11T13:48:06Z</time></trkpt><trkpt lat="44.51705299432446" lon="10.409142363699633"><ele>623.0</ele><time>2026-04-11T13:48:07Z</time></trkpt><trkpt lat="44.516940971249625" lon="10.409181144124293"><ele>623.0</ele><time>2026-04-11T13:48:08Z</time></trkpt><trkpt lat="44.516825206512664" lon="10.409219010175466"><ele>623.0</ele><time>2026-04-11T13:48:09Z</time></trkpt><trkpt lat="44.516701837908606" lon="10.409260752712019"><ele>623.0</ele><time>2026-04-11T13:48:10Z</time></trkpt><trkpt lat="44.51657983713733" lon="10.409308190470364"><ele>623.0</ele><time>2026-04-11T13:48:11Z</time></trkpt><trkpt lat="44.51646529827997" lon="10.409353145057276"><ele>623.0</ele><time>2026-04-11T13:48:12Z</time></trkpt><trkpt lat="44.516357164094785" lon="10.409385684136018"><ele>623.0</ele><time>2026-04-11T13:48:13Z</time></trkpt><trkpt lat="44.516250731473114" lon="10.40941729071122"><ele>623.4</ele><time>2026-04-11T13:48:14Z</time></trkpt><trkpt lat="44.5161454765138" lon="10.409446071777552"><ele>623.8</ele><time>2026-04-11T13:48:15Z</time></trkpt><trkpt lat="44.51604523773229" lon="10.40947104854449"><ele>624.2</ele><time>2026-04-11T13:48:16Z</time></trkpt><trkpt lat="44.51594852024669" lon="10.409474984004325"><ele>624.6</ele><time>2026-04-11T13:48:17Z</time></trkpt><trkpt lat="44.51585993071622" lon="10.409457688172381"><ele>625.0</ele><time>2026-04-11T13:48:18Z</time></trkpt><trkpt lat="44.515760930862335" lon="10.409433734860308"><ele>625.0</ele><time>2026-04-11T13:48:18.999Z</time></trkpt><trkpt lat="44.51566336307124" lon="10.40940295198714"><ele>625.0</ele><time>2026-04-11T13:48:19.999Z</time></trkpt><trkpt lat="44.51556196352272" lon="10.409366997036905"><ele>625.0</ele><time>2026-04-11T13:48:20.999Z</time></trkpt><trkpt lat="44.51545615261435" lon="10.409323805084815"><ele>625.0</ele><time>2026-04-11T13:48:21.999Z</time></trkpt><trkpt lat="44.51534995451467" lon="10.40927962990256"><ele>625.0</ele><time>2026-04-11T13:48:22.999Z</time></trkpt><trkpt lat="44.51525330917752" lon="10.409223584553116"><ele>623.8</ele><time>2026-04-11T13:48:23.999Z</time></trkpt><trkpt lat="44.515165740399844" lon="10.409167944883544"><ele>622.6</ele><time>2026-04-11T13:48:24.999Z</time></trkpt><trkpt lat="44.515081930545435" lon="10.409103913652265"><ele>621.4</ele><time>2026-04-11T13:48:25.999Z</time></trkpt><trkpt lat="44.5149957769441" lon="10.409036532812385"><ele>620.2</ele><time>2026-04-11T13:48:26.999Z</time></trkpt><trkpt lat="44.51490099715597" lon="10.408965213086361"><ele>619.0</ele><time>2026-04-11T13:48:27.999Z</time></trkpt><trkpt lat="44.51479959720462" lon="10.408903956338769"><ele>619.0</ele><time>2026-04-11T13:48:28.999Z</time></trkpt><trkpt lat="44.514701284088716" lon="10.408829185211651"><ele>619.0</ele><time>2026-04-11T13:48:29.999Z</time></trkpt><trkpt lat="44.51459956072573" lon="10.408758387544292"><ele>619.0</ele><time>2026-04-11T13:48:30.999Z</time></trkpt><trkpt lat="44.51449664269841" lon="10.40868097769333"><ele>619.0</ele><time>2026-04-11T13:48:31.999Z</time></trkpt><trkpt lat="44.514411347032" lon="10.408589079222835"><ele>617.2</ele><time>2026-04-11T13:48:32.999Z</time></trkpt><trkpt lat="44.51432804826835" lon="10.408501237983815"><ele>615.4</ele><time>2026-04-11T13:48:33.999Z</time></trkpt><trkpt lat="44.514239326749056" lon="10.408428049147465"><ele>613.6</ele><time>2026-04-11T13:48:34.999Z</time></trkpt><trkpt lat="44.51417486091918" lon="10.4083272647265"><ele>611.8</ele><time>2026-04-11T13:48:35.999Z</time></trkpt><trkpt lat="44.51410285766274" lon="10.408235689520215"><ele>610.0</ele><time>2026-04-11T13:48:36.999Z</time></trkpt><trkpt lat="44.514031730306044" lon="10.408154007733096"><ele>610.0</ele><time>2026-04-11T13:48:37.999Z</time></trkpt><trkpt lat="44.513955911508035" lon="10.408071185607737"><ele>610.0</ele><time>2026-04-11T13:48:38.999Z</time></trkpt><trkpt lat="44.51387888992746" lon="10.407987687226015"><ele>610.0</ele><time>2026-04-11T13:48:39.999Z</time></trkpt><trkpt lat="44.513802187444654" lon="10.40790105133853"><ele>610.0</ele><time>2026-04-11T13:48:40.999Z</time></trkpt><trkpt lat="44.51371722090604" lon="10.407823439307112"><ele>610.0</ele><time>2026-04-11T13:48:41.999Z</time></trkpt><trkpt lat="44.513631617943176" lon="10.407736761015062"><ele>608.4</ele><time>2026-04-11T13:48:42.999Z</time></trkpt><trkpt lat="44.513554773237445" lon="10.407634818428889"><ele>606.8</ele><time>2026-04-11T13:48:43.999Z</time></trkpt><trkpt lat="44.51350967876808" lon="10.407513244885294"><ele>605.2</ele><time>2026-04-11T13:48:44.999Z</time></trkpt><trkpt lat="44.513516936849165" lon="10.407354451424805"><ele>603.6</ele><time>2026-04-11T13:48:45.999Z</time></trkpt><trkpt lat="44.5134856386059" lon="10.407206789607667"><ele>602.0</ele><time>2026-04-11T13:48:46.999Z</time></trkpt><trkpt lat="44.51346888784135" lon="10.407058682313622"><ele>602.0</ele><time>2026-04-11T13:48:47.999Z</time></trkpt><trkpt lat="44.513446413409774" lon="10.406908794803448"><ele>602.0</ele><time>2026-04-11T13:48:48.999Z</time></trkpt><trkpt lat="44.513425808203976" lon="10.406754359427945"><ele>602.0</ele><time>2026-04-11T13:48:49.999Z</time></trkpt><trkpt lat="44.51341185142694" lon="10.406604564329557"><ele>602.0</ele><time>2026-04-11T13:48:50.999Z</time></trkpt><trkpt lat="44.51340200624984" lon="10.40646872386648"><ele>602.0</ele><time>2026-04-11T13:48:51.999Z</time></trkpt><trkpt lat="44.51339673277506" lon="10.406339514428636"><ele>600.6666666666666</ele><time>2026-04-11T13:48:52.999Z</time></trkpt><trkpt lat="44.51340522971145" lon="10.406213735146757"><ele>599.3333333333333</ele><time>2026-04-11T13:48:53.999Z</time></trkpt><trkpt lat="44.51344624655298" lon="10.406111253680953"><ele>598.0</ele><time>2026-04-11T13:48:54.999Z</time></trkpt><trkpt lat="44.513517835874076" lon="10.406044741460509"><ele>596.6666666666666</ele><time>2026-04-11T13:48:55.999Z</time></trkpt><trkpt lat="44.5135657199606" lon="10.405956957002994"><ele>595.3333333333334</ele><time>2026-04-11T13:48:56.999Z</time></trkpt><trkpt lat="44.51361403893778" lon="10.4058915414039"><ele>594.0</ele><time>2026-04-11T13:48:57.999Z</time></trkpt><trkpt lat="44.5135263118685" lon="10.405791705025727"><ele>594.0</ele><time>2026-04-11T13:49:00.999Z</time></trkpt><trkpt lat="44.513460223375986" lon="10.405820300151841"><ele>594.0</ele><time>2026-04-11T13:49:01.999Z</time></trkpt><trkpt lat="44.513385245957124" lon="10.405828582471713"><ele>594.0</ele><time>2026-04-11T13:49:02.999Z</time></trkpt><trkpt lat="44.51330391167862" lon="10.405839534371646"><ele>594.0</ele><time>2026-04-11T13:49:03.999Z</time></trkpt><trkpt lat="44.51322236129078" lon="10.405867746855717"><ele>594.0</ele><time>2026-04-11T13:49:04.999Z</time></trkpt><trkpt lat="44.513138440268015" lon="10.40587134776182"><ele>594.0</ele><time>2026-04-11T13:49:05.999Z</time></trkpt><trkpt lat="44.51306424214971" lon="10.40587261001354"><ele>594.0</ele><time>2026-04-11T13:49:06.999Z</time></trkpt><trkpt lat="44.512993146828606" lon="10.405864387044241"><ele>594.0</ele><time>2026-04-11T13:49:07.999Z</time></trkpt><trkpt lat="44.51292542453069" lon="10.4058569509975"><ele>594.0</ele><time>2026-04-11T13:49:08.999Z</time></trkpt><trkpt lat="44.512868374587924" lon="10.405810161976756"><ele>594.0</ele><time>2026-04-11T13:49:09.999Z</time></trkpt><trkpt lat="44.5128223737728" lon="10.405714463700388"><ele>594.0</ele><time>2026-04-11T13:49:10.999Z</time></trkpt><trkpt lat="44.51274735241436" lon="10.405659493029303"><ele>594.0</ele><time>2026-04-11T13:49:11.999Z</time></trkpt><trkpt lat="44.51269215988535" lon="10.405605730745805"><ele>594.0</ele><time>2026-04-11T13:49:12.999Z</time></trkpt><trkpt lat="44.512602885477854" lon="10.40566600303697"><ele>591.6</ele><time>2026-04-11T13:49:13.999Z</time></trkpt><trkpt lat="44.51253864681155" lon="10.40576186912523"><ele>589.2</ele><time>2026-04-11T13:49:14.999Z</time></trkpt><trkpt lat="44.51247913146293" lon="10.405883029695008"><ele>586.8000000000001</ele><time>2026-04-11T13:49:16Z</time></trkpt><trkpt lat="44.51241770512453" lon="10.405997385023964"><ele>584.4</ele><time>2026-04-11T13:49:17Z</time></trkpt><trkpt lat="44.51234855515333" lon="10.406102456118292"><ele>582.0</ele><time>2026-04-11T13:49:18Z</time></trkpt><trkpt lat="44.512270613379876" lon="10.406198765789034"><ele>582.0</ele><time>2026-04-11T13:49:19Z</time></trkpt><trkpt lat="44.5121939779459" lon="10.406312772497538"><ele>582.0</ele><time>2026-04-11T13:49:20Z</time></trkpt><trkpt lat="44.51213091282913" lon="10.406442326289316"><ele>582.0</ele><time>2026-04-11T13:49:21Z</time></trkpt><trkpt lat="44.512051909714764" lon="10.40655633151551"><ele>582.0</ele><time>2026-04-11T13:49:22Z</time></trkpt><trkpt lat="44.511983237498804" lon="10.406660454030526"><ele>582.0</ele><time>2026-04-11T13:49:23Z</time></trkpt><trkpt lat="44.511933064204065" lon="10.406767405617869"><ele>581.5</ele><time>2026-04-11T13:49:24Z</time></trkpt><trkpt lat="44.51188785410004" lon="10.406871115096802"><ele>581.0</ele><time>2026-04-11T13:49:25Z</time></trkpt><trkpt lat="44.51183164478486" lon="10.406936480900805"><ele>580.5</ele><time>2026-04-11T13:49:26Z</time></trkpt><trkpt lat="44.511781046934566" lon="10.40704232678832"><ele>580.0</ele><time>2026-04-11T13:49:28Z</time></trkpt><trkpt lat="44.51171658559535" lon="10.407076079976008"><ele>579.5</ele><time>2026-04-11T13:49:34Z</time></trkpt><trkpt lat="44.51166772155927" lon="10.407138757592227"><ele>579.0</ele><time>2026-04-11T13:49:39Z</time></trkpt><trkpt lat="44.511626548246475" lon="10.40721775748242"><ele>579.0</ele><time>2026-04-11T13:49:41Z</time></trkpt><trkpt lat="44.511566964341014" lon="10.407246805632761"><ele>579.0</ele><time>2026-04-11T13:49:43Z</time></trkpt><trkpt lat="44.511523379751964" lon="10.407314217488217"><ele>579.0</ele><time>2026-04-11T13:49:45Z</time></trkpt><trkpt lat="44.51162817963826" lon="10.407666221739445"><ele>579.0</ele><time>2026-04-11T13:49:47Z</time></trkpt><trkpt lat="44.511615992114706" lon="10.407800163295343"><ele>579.0</ele><time>2026-04-11T13:49:49Z</time></trkpt><trkpt lat="44.51162328361591" lon="10.407951458724686"><ele>579.0</ele><time>2026-04-11T13:49:51Z</time></trkpt><trkpt lat="44.511638734458856" lon="10.408094558927127"><ele>579.0</ele><time>2026-04-11T13:49:53Z</time></trkpt><trkpt lat="44.51165146883456" lon="10.408276860634604"><ele>579.0</ele><time>2026-04-11T13:49:55Z</time></trkpt><trkpt lat="44.51166390301322" lon="10.40836975582822"><ele>579.0</ele><time>2026-04-11T13:49:56Z</time></trkpt><trkpt lat="44.511691761071006" lon="10.408528118150004"><ele>577.8</ele><time>2026-04-11T13:49:58Z</time></trkpt><trkpt lat="44.511744831873344" lon="10.408708093387222"><ele>576.5999999999999</ele><time>2026-04-11T13:50:00Z</time></trkpt><trkpt lat="44.51177727215691" lon="10.408803589202897"><ele>575.4</ele><time>2026-04-11T13:50:01Z</time></trkpt><trkpt lat="44.51181781893229" lon="10.408918971067084"><ele>574.1999999999999</ele><time>2026-04-11T13:50:02Z</time></trkpt><trkpt lat="44.51186257399131" lon="10.40902815393899"><ele>573.0</ele><time>2026-04-11T13:50:03Z</time></trkpt><trkpt lat="44.51191296658322" lon="10.409150058307652"><ele>573.3333333333334</ele><time>2026-04-11T13:50:04Z</time></trkpt><trkpt lat="44.51194618947866" lon="10.40923601123037"><ele>573.6666666666666</ele><time>2026-04-11T13:50:05Z</time></trkpt><trkpt lat="44.5119874971091" lon="10.409339242804617"><ele>574.0</ele><time>2026-04-11T13:50:06Z</time></trkpt><trkpt lat="44.51203464270658" lon="10.409442726740345"><ele>574.3333333333333</ele><time>2026-04-11T13:50:07Z</time></trkpt><trkpt lat="44.512073449775556" lon="10.409535018156634"><ele>574.6666666666666</ele><time>2026-04-11T13:50:08Z</time></trkpt><trkpt lat="44.51210456299038" lon="10.409613701750812"><ele>575.0</ele><time>2026-04-11T13:50:09Z</time></trkpt><trkpt lat="44.51213406123447" lon="10.409738449656844"><ele>573.6</ele><time>2026-04-11T13:50:11Z</time></trkpt><trkpt lat="44.51207904241716" lon="10.409837545884765"><ele>572.2</ele><time>2026-04-11T13:50:13Z</time></trkpt><trkpt lat="44.51196801918842" lon="10.409943370975956"><ele>570.8</ele><time>2026-04-11T13:50:15Z</time></trkpt><trkpt lat="44.5118957186302" lon="10.410014277257444"><ele>569.4</ele><time>2026-04-11T13:50:16Z</time></trkpt><trkpt lat="44.511826968713294" lon="10.410077741644699"><ele>568.0</ele><time>2026-04-11T13:50:17Z</time></trkpt><trkpt lat="44.51177161139122" lon="10.410139352432434"><ele>566.1999999999999</ele><time>2026-04-11T13:50:18Z</time></trkpt><trkpt lat="44.511677314549814" lon="10.410242407656328"><ele>564.4</ele><time>2026-04-11T13:50:20Z</time></trkpt><trkpt lat="44.51165230763538" lon="10.410368870486295"><ele>562.5999999999999</ele><time>2026-04-11T13:50:23Z</time></trkpt><trkpt lat="44.5116912377816" lon="10.41052355592775"><ele>560.8</ele><time>2026-04-11T13:50:25Z</time></trkpt><trkpt lat="44.51173425615738" lon="10.410608050656055"><ele>559.0</ele><time>2026-04-11T13:50:26Z</time></trkpt><trkpt lat="44.51177662038779" lon="10.410702664481901"><ele>558.6</ele><time>2026-04-11T13:50:27Z</time></trkpt><trkpt lat="44.51176698830543" lon="10.410837117539884"><ele>558.2</ele><time>2026-04-11T13:50:28.999Z</time></trkpt><trkpt lat="44.511668855643" lon="10.410977331416895"><ele>557.8000000000001</ele><time>2026-04-11T13:50:30.999Z</time></trkpt><trkpt lat="44.51160570789306" lon="10.411056546487913"><ele>557.4</ele><time>2026-04-11T13:50:31.999Z</time></trkpt><trkpt lat="44.511549888526574" lon="10.41112655401789"><ele>557.0</ele><time>2026-04-11T13:50:32.999Z</time></trkpt><trkpt lat="44.511488544571584" lon="10.411208664142393"><ele>557.0</ele><time>2026-04-11T13:50:33.999Z</time></trkpt><trkpt lat="44.51141978738178" lon="10.411286695508927"><ele>557.0</ele><time>2026-04-11T13:50:34.999Z</time></trkpt><trkpt lat="44.51136922887476" lon="10.411347561826208"><ele>557.0</ele><time>2026-04-11T13:50:35.999Z</time></trkpt><trkpt lat="44.511306288740435" lon="10.411408714154748"><ele>557.0</ele><time>2026-04-11T13:50:36.999Z</time></trkpt><trkpt lat="44.511241635605856" lon="10.411502488519169"><ele>557.0</ele><time>2026-04-11T13:50:38.999Z</time></trkpt><trkpt lat="44.51125665525325" lon="10.411666465793271"><ele>557.0</ele><time>2026-04-11T13:50:40.999Z</time></trkpt><trkpt lat="44.51129917809698" lon="10.41174890615353"><ele>556.6666666666666</ele><time>2026-04-11T13:50:41.999Z</time></trkpt><trkpt lat="44.51134088918215" lon="10.41184189868227"><ele>556.3333333333333</ele><time>2026-04-11T13:50:42.999Z</time></trkpt><trkpt lat="44.51137077324184" lon="10.4119311959624"><ele>556.0</ele><time>2026-04-11T13:50:43.999Z</time></trkpt><trkpt lat="44.51139262244502" lon="10.41201522408955"><ele>555.6666666666666</ele><time>2026-04-11T13:50:44.999Z</time></trkpt><trkpt lat="44.51143119101715" lon="10.412167059864792"><ele>555.3333333333334</ele><time>2026-04-11T13:50:46.999Z</time></trkpt><trkpt lat="44.511456963329415" lon="10.412251244261977"><ele>555.0</ele><time>2026-04-11T13:50:48.999Z</time></trkpt><trkpt lat="44.51147077801997" lon="10.412343428287148"><ele>553.2</ele><time>2026-04-11T13:50:51.999Z</time></trkpt><trkpt lat="44.51150384406525" lon="10.412447053324508"><ele>551.4</ele><time>2026-04-11T13:51:07.999Z</time></trkpt><trkpt lat="44.511590995808476" lon="10.412548075346523"><ele>549.6</ele><time>2026-04-11T13:51:09.999Z</time></trkpt><trkpt lat="44.51167367424278" lon="10.412609234761788"><ele>547.8</ele><time>2026-04-11T13:51:10.999Z</time></trkpt><trkpt lat="44.511732627524026" lon="10.412662092749304"><ele>546.0</ele><time>2026-04-11T13:51:11.999Z</time></trkpt><trkpt lat="44.51179606416335" lon="10.41280322561226"><ele>546.0</ele><time>2026-04-11T13:51:13.999Z</time></trkpt><trkpt lat="44.511828628021036" lon="10.412900259659905"><ele>546.0</ele><time>2026-04-11T13:51:14.999Z</time></trkpt><trkpt lat="44.511869905798534" lon="10.41297383609174"><ele>546.0</ele><time>2026-04-11T13:51:15.999Z</time></trkpt><trkpt lat="44.51195164589463" lon="10.413029923052605"><ele>546.0</ele><time>2026-04-11T13:51:17.999Z</time></trkpt><trkpt lat="44.511987276881946" lon="10.413170374389495"><ele>546.0</ele><time>2026-04-11T13:51:20.999Z</time></trkpt><trkpt lat="44.51200619136115" lon="10.413325066322809"><ele>544.1666666666666</ele><time>2026-04-11T13:51:23Z</time></trkpt><trkpt lat="44.511998292046954" lon="10.413429702393449"><ele>542.3333333333334</ele><time>2026-04-11T13:51:24Z</time></trkpt><trkpt lat="44.51198934702178" lon="10.41351738731542"><ele>540.5</ele><time>2026-04-11T13:51:25Z</time></trkpt><trkpt lat="44.511951809382765" lon="10.41364656833684"><ele>538.6666666666667</ele><time>2026-04-11T13:51:27Z</time></trkpt><trkpt lat="44.511926316808236" lon="10.413757361159691"><ele>536.8333333333334</ele><time>2026-04-11T13:51:29Z</time></trkpt><trkpt lat="44.511933560085076" lon="10.413875936850323"><ele>535.0</ele><time>2026-04-11T13:51:31Z</time></trkpt><trkpt lat="44.51198452019709" lon="10.414045144468092"><ele>533.4285714285714</ele><time>2026-04-11T13:51:33Z</time></trkpt><trkpt lat="44.51200503241123" lon="10.414133844318265"><ele>531.8571428571429</ele><time>2026-04-11T13:51:34Z</time></trkpt><trkpt lat="44.512013521746404" lon="10.414234505266108"><ele>530.2857142857143</ele><time>2026-04-11T13:51:35Z</time></trkpt><trkpt lat="44.51201891685487" lon="10.414327991980896"><ele>528.7142857142858</ele><time>2026-04-11T13:51:36Z</time></trkpt><trkpt lat="44.51200866958297" lon="10.41442939044166"><ele>527.1428571428572</ele><time>2026-04-11T13:51:37Z</time></trkpt><trkpt lat="44.51199075929884" lon="10.414530655795932"><ele>525.5714285714286</ele><time>2026-04-11T13:51:38Z</time></trkpt><trkpt lat="44.51195570771394" lon="10.414619103002357"><ele>524.0</ele><time>2026-04-11T13:51:39Z</time></trkpt><trkpt lat="44.51190854925956" lon="10.414709457795615"><ele>522.4</ele><time>2026-04-11T13:51:40Z</time></trkpt><trkpt lat="44.51186391020476" lon="10.414780648534121"><ele>520.8</ele><time>2026-04-11T13:51:41Z</time></trkpt><trkpt lat="44.51181233543414" lon="10.414856529297596"><ele>519.2</ele><time>2026-04-11T13:51:42Z</time></trkpt><trkpt lat="44.51173595157622" lon="10.414950769636203"><ele>517.6</ele><time>2026-04-11T13:51:44Z</time></trkpt><trkpt lat="44.51167971391048" lon="10.415080668070004"><ele>516.0</ele><time>2026-04-11T13:51:46Z</time></trkpt><trkpt lat="44.51160837250975" lon="10.415213109247853"><ele>516.0</ele><time>2026-04-11T13:51:48Z</time></trkpt><trkpt lat="44.51149750294347" lon="10.415266980339878"><ele>516.0</ele><time>2026-04-11T13:51:50Z</time></trkpt><trkpt lat="44.51143285720247" lon="10.415264918796705"><ele>516.0</ele><time>2026-04-11T13:51:51Z</time></trkpt><trkpt lat="44.51136861880297" lon="10.415276426790403"><ele>516.0</ele><time>2026-04-11T13:51:52Z</time></trkpt><trkpt lat="44.51130467038146" lon="10.415321407254504"><ele>516.0</ele><time>2026-04-11T13:51:53Z</time></trkpt><trkpt lat="44.5112413116566" lon="10.415363459263094"><ele>516.0</ele><time>2026-04-11T13:51:54Z</time></trkpt><trkpt lat="44.51113640748777" lon="10.415372807893515"><ele>512.8</ele><time>2026-04-11T13:51:56Z</time></trkpt><trkpt lat="44.511025999440086" lon="10.415302676287057"><ele>509.6</ele><time>2026-04-11T13:51:58Z</time></trkpt><trkpt lat="44.510946172742415" lon="10.415259280085554"><ele>506.4</ele><time>2026-04-11T13:52:00Z</time></trkpt><trkpt lat="44.510856729501704" lon="10.415262232416172"><ele>503.2</ele><time>2026-04-11T13:52:02Z</time></trkpt><trkpt lat="44.51079411439857" lon="10.41533174512527"><ele>500.0</ele><time>2026-04-11T13:52:04Z</time></trkpt><trkpt lat="44.51070136475717" lon="10.415419327763315"><ele>498.0</ele><time>2026-04-11T13:52:06Z</time></trkpt><trkpt lat="44.510615862207196" lon="10.415519137503024"><ele>496.0</ele><time>2026-04-11T13:52:08Z</time></trkpt><trkpt lat="44.51057425366716" lon="10.415608328610535"><ele>494.0</ele><time>2026-04-11T13:52:10Z</time></trkpt><trkpt lat="44.510581311192155" lon="10.41575932298956"><ele>492.0</ele><time>2026-04-11T13:52:12Z</time></trkpt><trkpt lat="44.51059920342606" lon="10.415885156347892"><ele>490.0</ele><time>2026-04-11T13:52:14Z</time></trkpt><trkpt lat="44.51056452609091" lon="10.416002859549291"><ele>490.00000000000006</ele><time>2026-04-11T13:52:17Z</time></trkpt><trkpt lat="44.5104994925414" lon="10.416085976718804"><ele>490.0</ele><time>2026-04-11T13:52:19Z</time></trkpt><trkpt lat="44.51041949852658" lon="10.41611785701131"><ele>490.0</ele><time>2026-04-11T13:52:22Z</time></trkpt><trkpt lat="44.51034824430736" lon="10.416131747522675"><ele>490.0</ele><time>2026-04-11T13:52:24Z</time></trkpt><trkpt lat="44.51026682954095" lon="10.416091157300107"><ele>490.00000000000006</ele><time>2026-04-11T13:52:26Z</time></trkpt><trkpt lat="44.51015848822429" lon="10.416080020323676"><ele>490.0</ele><time>2026-04-11T13:52:28Z</time></trkpt><trkpt lat="44.510101652755" lon="10.416035936700174"><ele>486.50000000000006</ele><time>2026-04-11T13:52:29Z</time></trkpt><trkpt lat="44.51001378867796" lon="10.4159691462365"><ele>483.0</ele><time>2026-04-11T13:52:30.999Z</time></trkpt><trkpt lat="44.50992121028407" lon="10.415970511641813"><ele>479.5</ele><time>2026-04-11T13:52:33.999Z</time></trkpt><trkpt lat="44.50987556000155" lon="10.41604277878507"><ele>476.0</ele><time>2026-04-11T13:52:35.999Z</time></trkpt><trkpt lat="44.5098251371562" lon="10.416129600234038"><ele>472.50000000000006</ele><time>2026-04-11T13:52:37.999Z</time></trkpt><trkpt lat="44.50975681389454" lon="10.416182527513815"><ele>469.0</ele><time>2026-04-11T13:52:39.999Z</time></trkpt><trkpt lat="44.50967281080108" lon="10.416223801058667"><ele>469.00000000000006</ele><time>2026-04-11T13:52:41.999Z</time></trkpt><trkpt lat="44.5095968709659" lon="10.416262713943162"><ele>469.0</ele><time>2026-04-11T13:52:43.999Z</time></trkpt><trkpt lat="44.509571080117766" lon="10.416343980196975"><ele>469.0</ele><time>2026-04-11T13:52:45.999Z</time></trkpt><trkpt lat="44.50960007513464" lon="10.416431392219945"><ele>469.0</ele><time>2026-04-11T13:52:49.999Z</time></trkpt><trkpt lat="44.50965795411237" lon="10.416513163769"><ele>469.00000000000006</ele><time>2026-04-11T13:52:52.999Z</time></trkpt><trkpt lat="44.509710071368474" lon="10.41656279721791"><ele>469.0</ele><time>2026-04-11T13:52:54.999Z</time></trkpt><trkpt lat="44.50978036992836" lon="10.416664682519471"><ele>467.50000000000006</ele><time>2026-04-11T13:52:59.999Z</time></trkpt><trkpt lat="44.50980989717431" lon="10.416778729403319"><ele>466.0</ele><time>2026-04-11T13:53:01.999Z</time></trkpt><trkpt lat="44.509809731074974" lon="10.416880108831393"><ele>464.5</ele><time>2026-04-11T13:53:04.999Z</time></trkpt><trkpt lat="44.509804916356636" lon="10.416992134316352"><ele>463.0</ele><time>2026-04-11T13:53:07.999Z</time></trkpt><trkpt lat="44.509756750628554" lon="10.417094030452898"><ele>461.50000000000006</ele><time>2026-04-11T13:53:09.999Z</time></trkpt><trkpt lat="44.50971768998135" lon="10.417191842540895"><ele>460.0</ele><time>2026-04-11T13:53:12.999Z</time></trkpt><trkpt lat="44.509708040250246" lon="10.417329768374973"><ele>456.83333333333337</ele><time>2026-04-11T13:53:15.999Z</time></trkpt><trkpt lat="44.50963350573959" lon="10.417404684115269"><ele>453.6666666666667</ele><time>2026-04-11T13:53:17.999Z</time></trkpt><trkpt lat="44.50950180877317" lon="10.41741873376858"><ele>450.5</ele><time>2026-04-11T13:53:19.999Z</time></trkpt><trkpt lat="44.50942860070196" lon="10.417405608303941"><ele>447.33333333333337</ele><time>2026-04-11T13:53:20.999Z</time></trkpt><trkpt lat="44.50935557705348" lon="10.41740576844379"><ele>444.1666666666667</ele><time>2026-04-11T13:53:21.999Z</time></trkpt><trkpt lat="44.50929104008441" lon="10.417412998040454"><ele>441.0</ele><time>2026-04-11T13:53:22.999Z</time></trkpt><trkpt lat="44.50918771883396" lon="10.417418322324659"><ele>439.0</ele><time>2026-04-11T13:53:24.999Z</time></trkpt><trkpt lat="44.509099766885754" lon="10.41743175542371"><ele>437.0</ele><time>2026-04-11T13:53:26.999Z</time></trkpt><trkpt lat="44.509014257705054" lon="10.417448833133852"><ele>435.0</ele><time>2026-04-11T13:53:29Z</time></trkpt><trkpt lat="44.50891356153027" lon="10.417473722207989"><ele>433.0</ele><time>2026-04-11T13:53:31Z</time></trkpt><trkpt lat="44.50883839140299" lon="10.417485583711063"><ele>431.0</ele><time>2026-04-11T13:53:32Z</time></trkpt><trkpt lat="44.508726235388295" lon="10.41750627744836"><ele>428.20000000000005</ele><time>2026-04-11T13:53:34Z</time></trkpt><trkpt lat="44.508613803867036" lon="10.41754008666217"><ele>425.40000000000003</ele><time>2026-04-11T13:53:36Z</time></trkpt><trkpt lat="44.508506987809" lon="10.417546724894631"><ele>422.6</ele><time>2026-04-11T13:53:38Z</time></trkpt><trkpt lat="44.50844414521953" lon="10.41754097200431"><ele>419.8</ele><time>2026-04-11T13:53:40Z</time></trkpt><trkpt lat="44.508345605094064" lon="10.417545583612782"><ele>417.0</ele><time>2026-04-11T13:53:42Z</time></trkpt><trkpt lat="44.50826324014691" lon="10.4175845587222"><ele>417.0</ele><time>2026-04-11T13:53:44Z</time></trkpt><trkpt lat="44.5081841553659" lon="10.417633584830604"><ele>417.0</ele><time>2026-04-11T13:53:46Z</time></trkpt><trkpt lat="44.50811712368409" lon="10.417708153324224"><ele>417.0</ele><time>2026-04-11T13:53:48Z</time></trkpt><trkpt lat="44.50806532275029" lon="10.41779013026662"><ele>417.0</ele><time>2026-04-11T13:53:50Z</time></trkpt><trkpt lat="44.508015225827826" lon="10.417860381737926"><ele>417.0</ele><time>2026-04-11T13:53:52Z</time></trkpt><trkpt lat="44.50797057471789" lon="10.417929546254312"><ele>417.0</ele><time>2026-04-11T13:53:54Z</time></trkpt><trkpt lat="44.50792257036584" lon="10.418008970974405"><ele>413.6666666666667</ele><time>2026-04-11T13:53:56Z</time></trkpt><trkpt lat="44.50786421510653" lon="10.41812020465367"><ele>410.33333333333337</ele><time>2026-04-11T13:53:59Z</time></trkpt><trkpt lat="44.507827351133635" lon="10.41821857926434"><ele>407.0</ele><time>2026-04-11T13:54:01Z</time></trkpt><trkpt lat="44.50778774384546" lon="10.4183098045671"><ele>403.6666666666667</ele><time>2026-04-11T13:54:04Z</time></trkpt><trkpt lat="44.50771696257412" lon="10.418334256755662"><ele>400.33333333333337</ele><time>2026-04-11T13:54:06Z</time></trkpt><trkpt lat="44.507629124400644" lon="10.418239417277775"><ele>397.0</ele><time>2026-04-11T13:54:08Z</time></trkpt><trkpt lat="44.50753098535784" lon="10.418192640260138"><ele>397.0</ele><time>2026-04-11T13:54:10Z</time></trkpt><trkpt lat="44.507446245670366" lon="10.418274529734369"><ele>397.0</ele><time>2026-04-11T13:54:12Z</time></trkpt><trkpt lat="44.50738563252554" lon="10.418384041230402"><ele>397.0</ele><time>2026-04-11T13:54:14Z</time></trkpt><trkpt lat="44.50729129817234" lon="10.418465451871686"><ele>397.0</ele><time>2026-04-11T13:54:16Z</time></trkpt><trkpt lat="44.50719679225037" lon="10.418531023722666"><ele>397.0</ele><time>2026-04-11T13:54:18Z</time></trkpt><trkpt lat="44.50708759402178" lon="10.418522827937016"><ele>395.6</ele><time>2026-04-11T13:54:20Z</time></trkpt><trkpt lat="44.50698528531757" lon="10.418483708240736"><ele>394.20000000000005</ele><time>2026-04-11T13:54:22Z</time></trkpt><trkpt lat="44.50688614073718" lon="10.418440256998618"><ele>392.8</ele><time>2026-04-11T13:54:24Z</time></trkpt><trkpt lat="44.50681459489481" lon="10.418304837847634"><ele>391.4</ele><time>2026-04-11T13:54:26Z</time></trkpt><trkpt lat="44.506795498653055" lon="10.41821657096844"><ele>390.0</ele><time>2026-04-11T13:54:27Z</time></trkpt><trkpt lat="44.50675734978904" lon="10.418071186233654"><ele>390.0</ele><time>2026-04-11T13:54:29Z</time></trkpt><trkpt lat="44.50667388194571" lon="10.417983568034463"><ele>390.0</ele><time>2026-04-11T13:54:31Z</time></trkpt><trkpt lat="44.506577879519845" lon="10.417989422676156"><ele>390.0</ele><time>2026-04-11T13:54:33Z</time></trkpt><trkpt lat="44.50647394042876" lon="10.417975723461488"><ele>390.0</ele><time>2026-04-11T13:54:35Z</time></trkpt><trkpt lat="44.50641141348507" lon="10.41795633844239"><ele>390.0</ele><time>2026-04-11T13:54:36Z</time></trkpt><trkpt lat="44.50634459420195" lon="10.417938139805607"><ele>390.0</ele><time>2026-04-11T13:54:37Z</time></trkpt><trkpt lat="44.50623104933876" lon="10.417965793581715"><ele>388.0</ele><time>2026-04-11T13:54:39Z</time></trkpt><trkpt lat="44.50610906736351" lon="10.417983035183704"><ele>386.0</ele><time>2026-04-11T13:54:41Z</time></trkpt><trkpt lat="44.50604411655384" lon="10.41795207798281"><ele>384.0</ele><time>2026-04-11T13:54:42Z</time></trkpt><trkpt lat="44.50593833395717" lon="10.417893879808146"><ele>382.0</ele><time>2026-04-11T13:54:44Z</time></trkpt><trkpt lat="44.5058749734841" lon="10.417878787324074"><ele>380.0</ele><time>2026-04-11T13:54:45Z</time></trkpt><trkpt lat="44.5057582788825" lon="10.417836521372408"><ele>380.0</ele><time>2026-04-11T13:54:47Z</time></trkpt><trkpt lat="44.50569293993064" lon="10.417814813489015"><ele>380.0</ele><time>2026-04-11T13:54:48Z</time></trkpt><trkpt lat="44.505583038133004" lon="10.417746370306329"><ele>380.0</ele><time>2026-04-11T13:54:50Z</time></trkpt><trkpt lat="44.505526283291495" lon="10.417701255398987"><ele>380.0</ele><time>2026-04-11T13:54:51Z</time></trkpt><trkpt lat="44.50546651831892" lon="10.417661537495052"><ele>380.0</ele><time>2026-04-11T13:54:52Z</time></trkpt><trkpt lat="44.505399308350874" lon="10.417632713950699"><ele>380.0</ele><time>2026-04-11T13:54:53Z</time></trkpt><trkpt lat="44.50526830284389" lon="10.417611635318675"><ele>377.5</ele><time>2026-04-11T13:54:55Z</time></trkpt><trkpt lat="44.50519752496071" lon="10.417615362959824"><ele>375.0</ele><time>2026-04-11T13:54:56Z</time></trkpt><trkpt lat="44.50512691358643" lon="10.417629386949791"><ele>372.5</ele><time>2026-04-11T13:54:57Z</time></trkpt><trkpt lat="44.50500663417713" lon="10.417669349369389"><ele>370.0</ele><time>2026-04-11T13:54:59Z</time></trkpt><trkpt lat="44.504930775190346" lon="10.417688590328028"><ele>367.5</ele><time>2026-04-11T13:55:00Z</time></trkpt><trkpt lat="44.50485965921949" lon="10.417699606470437"><ele>365.0</ele><time>2026-04-11T13:55:01Z</time></trkpt><trkpt lat="44.50474465933873" lon="10.417731643232367"><ele>365.0</ele><time>2026-04-11T13:55:02.999Z</time></trkpt><trkpt lat="44.50464871731408" lon="10.41773934027639"><ele>365.0</ele><time>2026-04-11T13:55:04.999Z</time></trkpt><trkpt lat="44.5045936553622" lon="10.41761981175544"><ele>365.0</ele><time>2026-04-11T13:55:06.999Z</time></trkpt><trkpt lat="44.504618576439384" lon="10.417430224698768"><ele>365.0</ele><time>2026-04-11T13:55:08.999Z</time></trkpt><trkpt lat="44.50463899096657" lon="10.417312510394856"><ele>365.0</ele><time>2026-04-11T13:55:09.999Z</time></trkpt><trkpt lat="44.50462692122692" lon="10.417224965505731"><ele>364.83333333333337</ele><time>2026-04-11T13:55:10.999Z</time></trkpt><trkpt lat="44.50454103177576" lon="10.417141324475645"><ele>364.6666666666667</ele><time>2026-04-11T13:55:12.999Z</time></trkpt><trkpt lat="44.50445720204363" lon="10.417086518414225"><ele>364.5</ele><time>2026-04-11T13:55:14.999Z</time></trkpt><trkpt lat="44.50439537877133" lon="10.417019242318055"><ele>364.3333333333333</ele><time>2026-04-11T13:55:16.999Z</time></trkpt><trkpt lat="44.504331022139986" lon="10.41694206048143"><ele>364.16666666666663</ele><time>2026-04-11T13:55:18.999Z</time></trkpt><trkpt lat="44.50428042042056" lon="10.41687985018557"><ele>364.0</ele><time>2026-04-11T13:55:19.999Z</time></trkpt><trkpt lat="44.50422816405298" lon="10.416825009241018"><ele>364.0</ele><time>2026-04-11T13:55:20.999Z</time></trkpt><trkpt lat="44.50416583174772" lon="10.416780394840648"><ele>364.0</ele><time>2026-04-11T13:55:21.999Z</time></trkpt><trkpt lat="44.50410438239138" lon="10.416728015732344"><ele>364.0</ele><time>2026-04-11T13:55:22.999Z</time></trkpt><trkpt lat="44.5040132235522" lon="10.41661285520253"><ele>364.0</ele><time>2026-04-11T13:55:24.999Z</time></trkpt><trkpt lat="44.5039748812137" lon="10.41652760290206"><ele>364.0</ele><time>2026-04-11T13:55:25.999Z</time></trkpt><trkpt lat="44.5039351287485" lon="10.416421861863885"><ele>364.0</ele><time>2026-04-11T13:55:26.999Z</time></trkpt><trkpt lat="44.503918400581426" lon="10.416327608133338"><ele>364.5</ele><time>2026-04-11T13:55:27.999Z</time></trkpt><trkpt lat="44.50390587267435" lon="10.416172296970885"><ele>365.0</ele><time>2026-04-11T13:55:29.999Z</time></trkpt><trkpt lat="44.50389544572503" lon="10.41607064525222"><ele>365.5</ele><time>2026-04-11T13:55:30.999Z</time></trkpt><trkpt lat="44.50387900823921" lon="10.415980275382264"><ele>366.0</ele><time>2026-04-11T13:55:31.999Z</time></trkpt><trkpt lat="44.50381457782886" lon="10.415872106236137"><ele>366.5</ele><time>2026-04-11T13:55:34Z</time></trkpt><trkpt lat="44.50374196321912" lon="10.415846956330057"><ele>367.0</ele><time>2026-04-11T13:55:36Z</time></trkpt><trkpt lat="44.50364090059425" lon="10.415839084233248"><ele>365.8</ele><time>2026-04-11T13:55:51Z</time></trkpt><trkpt lat="44.50356180067424" lon="10.415844843101688"><ele>364.6</ele><time>2026-04-11T13:55:53Z</time></trkpt><trkpt lat="44.503486075779435" lon="10.415816813656086"><ele>363.40000000000003</ele><time>2026-04-11T13:55:55Z</time></trkpt><trkpt lat="44.503376478576726" lon="10.415740238103858"><ele>362.20000000000005</ele><time>2026-04-11T13:55:57Z</time></trkpt><trkpt lat="44.50332910814416" lon="10.415678046902267"><ele>361.0</ele><time>2026-04-11T13:55:58Z</time></trkpt><trkpt lat="44.5032412416857" lon="10.415584217700713"><ele>361.0</ele><time>2026-04-11T13:56:00Z</time></trkpt><trkpt lat="44.50313764995235" lon="10.41557034332514"><ele>361.0</ele><time>2026-04-11T13:56:02Z</time></trkpt><trkpt lat="44.50304903304878" lon="10.41556595670596"><ele>361.0</ele><time>2026-04-11T13:56:04Z</time></trkpt><trkpt lat="44.50294921759829" lon="10.41551589942601"><ele>361.0</ele><time>2026-04-11T13:56:06Z</time></trkpt><trkpt lat="44.502872079772374" lon="10.415435821191249"><ele>361.0</ele><time>2026-04-11T13:56:08Z</time></trkpt><trkpt lat="44.50278267489835" lon="10.415390898763418"><ele>360.6</ele><time>2026-04-11T13:56:10Z</time></trkpt><trkpt lat="44.50268010664789" lon="10.415354743523416"><ele>360.20000000000005</ele><time>2026-04-11T13:56:12Z</time></trkpt><trkpt lat="44.50258825466048" lon="10.415303314863692"><ele>359.79999999999995</ele><time>2026-04-11T13:56:14Z</time></trkpt><trkpt lat="44.50249100279399" lon="10.41526561837251"><ele>359.4</ele><time>2026-04-11T13:56:16Z</time></trkpt><trkpt lat="44.502401642921825" lon="10.415248183270903"><ele>359.0</ele><time>2026-04-11T13:56:18Z</time></trkpt><trkpt lat="44.502321109963646" lon="10.41524263859707"><ele>359.0</ele><time>2026-04-11T13:56:20Z</time></trkpt><trkpt lat="44.50223201519423" lon="10.415238407782477"><ele>359.0</ele><time>2026-04-11T13:56:22Z</time></trkpt><trkpt lat="44.50216067975815" lon="10.415236174429415"><ele>359.0</ele><time>2026-04-11T13:56:24Z</time></trkpt><trkpt lat="44.50206818534017" lon="10.415251101397208"><ele>359.0</ele><time>2026-04-11T13:56:27Z</time></trkpt><trkpt lat="44.50199968187088" lon="10.415271514192238"><ele>359.0</ele><time>2026-04-11T13:56:29Z</time></trkpt><trkpt lat="44.501922604170794" lon="10.415289446945355"><ele>359.0</ele><time>2026-04-11T13:56:31Z</time></trkpt><trkpt lat="44.50181579061099" lon="10.415292971605373"><ele>358.79999999999995</ele><time>2026-04-11T13:56:33Z</time></trkpt><trkpt lat="44.50174679371031" lon="10.415275261730294"><ele>358.59999999999997</ele><time>2026-04-11T13:56:35Z</time></trkpt><trkpt lat="44.501702998814416" lon="10.415188817513162"><ele>358.4</ele><time>2026-04-11T13:56:37Z</time></trkpt><trkpt lat="44.501643647358115" lon="10.415071394505512"><ele>358.2</ele><time>2026-04-11T13:56:39Z</time></trkpt><trkpt lat="44.50159168994272" lon="10.414923746156019"><ele>358.0</ele><time>2026-04-11T13:56:41Z</time></trkpt><trkpt lat="44.50153141490931" lon="10.414785498103173"><ele>358.0</ele><time>2026-04-11T13:56:43Z</time></trkpt><trkpt lat="44.50148803925237" lon="10.414721156147108"><ele>358.0</ele><time>2026-04-11T13:56:44Z</time></trkpt><trkpt lat="44.50139013404397" lon="10.414625990828345"><ele>358.0</ele><time>2026-04-11T13:56:46Z</time></trkpt><trkpt lat="44.5013041416782" lon="10.414538025761392"><ele>358.0</ele><time>2026-04-11T13:56:47.999Z</time></trkpt><trkpt lat="44.50124216470715" lon="10.414482213439134"><ele>358.0</ele><time>2026-04-11T13:56:48.999Z</time></trkpt><trkpt lat="44.50117273128987" lon="10.414431222984271"><ele>358.0</ele><time>2026-04-11T13:56:49.999Z</time></trkpt><trkpt lat="44.501114579175066" lon="10.414385425438947"><ele>357.3333333333333</ele><time>2026-04-11T13:56:50.999Z</time></trkpt><trkpt lat="44.5010028197778" lon="10.414310709099226"><ele>356.66666666666663</ele><time>2026-04-11T13:56:52.999Z</time></trkpt><trkpt lat="44.50094342414486" lon="10.414275926579355"><ele>356.0</ele><time>2026-04-11T13:56:53.999Z</time></trkpt><trkpt lat="44.50085276667769" lon="10.414249623684377"><ele>355.3333333333333</ele><time>2026-04-11T13:56:55.999Z</time></trkpt><trkpt lat="44.50077280337303" lon="10.414216628182862"><ele>354.6666666666667</ele><time>2026-04-11T13:56:57.999Z</time></trkpt><trkpt lat="44.500719674651855" lon="10.414132299627349"><ele>354.0</ele><time>2026-04-11T13:56:59.999Z</time></trkpt><trkpt lat="44.5006785006728" lon="10.414064559048143"><ele>354.0</ele><time>2026-04-11T13:57:00.999Z</time></trkpt><trkpt lat="44.500633570342934" lon="10.413995221552891"><ele>354.0</ele><time>2026-04-11T13:57:01.999Z</time></trkpt><trkpt lat="44.50058157370212" lon="10.41393779804399"><ele>354.0</ele><time>2026-04-11T13:57:02.999Z</time></trkpt><trkpt lat="44.50045455994854" lon="10.413901315152186"><ele>354.0</ele><time>2026-04-11T13:57:04.999Z</time></trkpt><trkpt lat="44.50038315480482" lon="10.413932082369188"><ele>354.0</ele><time>2026-04-11T13:57:05.999Z</time></trkpt><trkpt lat="44.50032718092616" lon="10.413985821061663"><ele>354.0</ele><time>2026-04-11T13:57:06.999Z</time></trkpt><trkpt lat="44.500274244030464" lon="10.414061255745429"><ele>354.2857142857143</ele><time>2026-04-11T13:57:07.999Z</time></trkpt><trkpt lat="44.50022310205089" lon="10.414138344192851"><ele>354.57142857142856</ele><time>2026-04-11T13:57:08.999Z</time></trkpt><trkpt lat="44.50018370473921" lon="10.414215383148179"><ele>354.85714285714283</ele><time>2026-04-11T13:57:09.999Z</time></trkpt><trkpt lat="44.5001307536239" lon="10.414286666546111"><ele>355.1428571428571</ele><time>2026-04-11T13:57:10.999Z</time></trkpt><trkpt lat="44.500064729621926" lon="10.414355263937281"><ele>355.42857142857144</ele><time>2026-04-11T13:57:11.999Z</time></trkpt><trkpt lat="44.499993345295586" lon="10.414403671943711"><ele>355.71428571428567</ele><time>2026-04-11T13:57:12.999Z</time></trkpt><trkpt lat="44.49992812887896" lon="10.414425442033922"><ele>356.0</ele><time>2026-04-11T13:57:13.999Z</time></trkpt><trkpt lat="44.499858038862456" lon="10.414445326375931"><ele>356.0</ele><time>2026-04-11T13:57:14.999Z</time></trkpt><trkpt lat="44.49978340074167" lon="10.414453643728578"><ele>356.0</ele><time>2026-04-11T13:57:15.999Z</time></trkpt><trkpt lat="44.499704145309096" lon="10.414455303412916"><ele>356.0</ele><time>2026-04-11T13:57:16.999Z</time></trkpt><trkpt lat="44.49961422085992" lon="10.414437964550704"><ele>356.0</ele><time>2026-04-11T13:57:17.999Z</time></trkpt><trkpt lat="44.499528655036876" lon="10.414406668133413"><ele>356.0</ele><time>2026-04-11T13:57:18.999Z</time></trkpt><trkpt lat="44.499445529424804" lon="10.414377152008319"><ele>356.0</ele><time>2026-04-11T13:57:19.999Z</time></trkpt><trkpt lat="44.499358316175716" lon="10.414357036918968"><ele>356.1666666666667</ele><time>2026-04-11T13:57:20.999Z</time></trkpt><trkpt lat="44.49926486146276" lon="10.414350156041433"><ele>356.33333333333337</ele><time>2026-04-11T13:57:21.999Z</time></trkpt><trkpt lat="44.499178931966746" lon="10.414360150472604"><ele>356.5</ele><time>2026-04-11T13:57:22.999Z</time></trkpt><trkpt lat="44.49909295801456" lon="10.414382033523157"><ele>356.6666666666667</ele><time>2026-04-11T13:57:23.999Z</time></trkpt><trkpt lat="44.499013793297955" lon="10.414414148760759"><ele>356.8333333333333</ele><time>2026-04-11T13:57:24.999Z</time></trkpt><trkpt lat="44.498944122321184" lon="10.414462148840267"><ele>357.0</ele><time>2026-04-11T13:57:25.999Z</time></trkpt><trkpt lat="44.49887836472839" lon="10.414523360819267"><ele>357.0</ele><time>2026-04-11T13:57:26.999Z</time></trkpt><trkpt lat="44.4988223607509" lon="10.414598563592342"><ele>357.0</ele><time>2026-04-11T13:57:27.999Z</time></trkpt><trkpt lat="44.498772994645726" lon="10.414691618996963"><ele>357.0</ele><time>2026-04-11T13:57:28.999Z</time></trkpt><trkpt lat="44.49872362273949" lon="10.414802564623626"><ele>357.0</ele><time>2026-04-11T13:57:29.999Z</time></trkpt><trkpt lat="44.49868642819393" lon="10.414925723184156"><ele>357.0</ele><time>2026-04-11T13:57:30.999Z</time></trkpt><trkpt lat="44.49865351706328" lon="10.415052358245909"><ele>357.0</ele><time>2026-04-11T13:57:31.999Z</time></trkpt><trkpt lat="44.49861076815138" lon="10.415196162458608"><ele>358.0</ele><time>2026-04-11T13:57:32.999Z</time></trkpt><trkpt lat="44.498562833706934" lon="10.415356720036002"><ele>359.0</ele><time>2026-04-11T13:57:33.999Z</time></trkpt><trkpt lat="44.498489638436766" lon="10.415527160509132"><ele>360.0</ele><time>2026-04-11T13:57:34.999Z</time></trkpt><trkpt lat="44.498390472403734" lon="10.415684046893713"><ele>361.0</ele><time>2026-04-11T13:57:35.999Z</time></trkpt><trkpt lat="44.49826918106927" lon="10.415838167209266"><ele>361.0</ele><time>2026-04-11T13:57:36.999Z</time></trkpt><trkpt lat="44.4981694021222" lon="10.415970584949905"><ele>361.0</ele><time>2026-04-11T13:57:37.999Z</time></trkpt><trkpt lat="44.498085025894376" lon="10.416109229488617"><ele>361.0</ele><time>2026-04-11T13:57:38.999Z</time></trkpt><trkpt lat="44.49800772736393" lon="10.4162306164101"><ele>361.0</ele><time>2026-04-11T13:57:40Z</time></trkpt><trkpt lat="44.49793410191103" lon="10.416339016762585"><ele>361.3333333333333</ele><time>2026-04-11T13:57:41Z</time></trkpt><trkpt lat="44.497876810447394" lon="10.41644338260963"><ele>361.66666666666663</ele><time>2026-04-11T13:57:42Z</time></trkpt><trkpt lat="44.49782375274217" lon="10.416538747744635"><ele>362.0</ele><time>2026-04-11T13:57:43Z</time></trkpt><trkpt lat="44.49777818961522" lon="10.416625386705583"><ele>362.3333333333333</ele><time>2026-04-11T13:57:44Z</time></trkpt><trkpt lat="44.49773238500977" lon="10.416702806107608"><ele>362.6666666666667</ele><time>2026-04-11T13:57:45Z</time></trkpt><trkpt lat="44.497687956661" lon="10.41677270817214"><ele>363.0</ele><time>2026-04-11T13:57:46Z</time></trkpt><trkpt lat="44.49764359033398" lon="10.416853317400484"><ele>363.0</ele><time>2026-04-11T13:57:47Z</time></trkpt><trkpt lat="44.49760013201674" lon="10.416974528356306"><ele>363.0</ele><time>2026-04-11T13:57:48Z</time></trkpt><trkpt lat="44.4975647627364" lon="10.417103540557758"><ele>363.0</ele><time>2026-04-11T13:57:49Z</time></trkpt><trkpt lat="44.49753679107304" lon="10.417212689014802"><ele>363.0</ele><time>2026-04-11T13:57:50Z</time></trkpt><trkpt lat="44.497503545161344" lon="10.417305728042864"><ele>363.0</ele><time>2026-04-11T13:57:51Z</time></trkpt><trkpt lat="44.4974592869166" lon="10.41739336615799"><ele>363.0</ele><time>2026-04-11T13:57:52Z</time></trkpt><trkpt lat="44.49739188526897" lon="10.41746470384611"><ele>362.4</ele><time>2026-04-11T13:57:53Z</time></trkpt><trkpt lat="44.49731038101233" lon="10.417551007138712"><ele>361.79999999999995</ele><time>2026-04-11T13:57:54Z</time></trkpt><trkpt lat="44.49724062390885" lon="10.417678782389869"><ele>361.2</ele><time>2026-04-11T13:57:55Z</time></trkpt><trkpt lat="44.49717401308394" lon="10.417820657964544"><ele>360.6</ele><time>2026-04-11T13:57:56Z</time></trkpt><trkpt lat="44.49711219915742" lon="10.417950314118215"><ele>360.0</ele><time>2026-04-11T13:57:57Z</time></trkpt><trkpt lat="44.497042812857956" lon="10.418082784118623"><ele>361.75</ele><time>2026-04-11T13:57:58Z</time></trkpt><trkpt lat="44.49697432256228" lon="10.418205295021085"><ele>363.5</ele><time>2026-04-11T13:57:59Z</time></trkpt><trkpt lat="44.496905016945966" lon="10.418338787805892"><ele>365.25</ele><time>2026-04-11T13:58:00Z</time></trkpt><trkpt lat="44.4968516125964" lon="10.418498230384179"><ele>367.0</ele><time>2026-04-11T13:58:01Z</time></trkpt><trkpt lat="44.496815224940136" lon="10.418675478291505"><ele>367.0</ele><time>2026-04-11T13:58:02Z</time></trkpt><trkpt lat="44.49677429251735" lon="10.418839718520541"><ele>367.0</ele><time>2026-04-11T13:58:03Z</time></trkpt><trkpt lat="44.496728360177016" lon="10.418999216617317"><ele>367.0</ele><time>2026-04-11T13:58:04Z</time></trkpt><trkpt lat="44.4966712594626" lon="10.419145221025328"><ele>367.0</ele><time>2026-04-11T13:58:05Z</time></trkpt><trkpt lat="44.49660883350117" lon="10.419282049037223"><ele>367.0</ele><time>2026-04-11T13:58:06Z</time></trkpt><trkpt lat="44.49655907002376" lon="10.419443231567215"><ele>367.0</ele><time>2026-04-11T13:58:07Z</time></trkpt><trkpt lat="44.49653389011792" lon="10.419618572676296"><ele>367.0</ele><time>2026-04-11T13:58:08Z</time></trkpt><trkpt lat="44.496507645720996" lon="10.419782165632487"><ele>367.0</ele><time>2026-04-11T13:58:09Z</time></trkpt><trkpt lat="44.49648353541829" lon="10.41992614177537"><ele>366.75</ele><time>2026-04-11T13:58:10Z</time></trkpt><trkpt lat="44.49644598216296" lon="10.420057149332184"><ele>366.5</ele><time>2026-04-11T13:58:11Z</time></trkpt><trkpt lat="44.49638431472459" lon="10.420192827726744"><ele>366.25</ele><time>2026-04-11T13:58:12Z</time></trkpt><trkpt lat="44.496310285579185" lon="10.420335154410258"><ele>366.0</ele><time>2026-04-11T13:58:13Z</time></trkpt><trkpt lat="44.49624680886501" lon="10.420495181702007"><ele>366.0</ele><time>2026-04-11T13:58:14Z</time></trkpt><trkpt lat="44.49617133556678" lon="10.420642987381767"><ele>366.0</ele><time>2026-04-11T13:58:15Z</time></trkpt><trkpt lat="44.49612548371162" lon="10.4207272946962"><ele>366.0</ele><time>2026-04-11T13:58:16Z</time></trkpt><trkpt lat="44.496028888900796" lon="10.420801676426429"><ele>366.0</ele><time>2026-04-11T13:58:17Z</time></trkpt><trkpt lat="44.495914052239264" lon="10.420876688857282"><ele>366.0</ele><time>2026-04-11T13:58:18Z</time></trkpt><trkpt lat="44.49578375579036" lon="10.420944768331886"><ele>366.0</ele><time>2026-04-11T13:58:19Z</time></trkpt><trkpt lat="44.49564604389233" lon="10.420999515676467"><ele>366.0</ele><time>2026-04-11T13:58:20Z</time></trkpt><trkpt lat="44.49551693957722" lon="10.421038110191795"><ele>366.0</ele><time>2026-04-11T13:58:21Z</time></trkpt><trkpt lat="44.49539286223532" lon="10.421071053680025"><ele>366.0</ele><time>2026-04-11T13:58:22Z</time></trkpt><trkpt lat="44.49527165513861" lon="10.421080337273283"><ele>367.0</ele><time>2026-04-11T13:58:23Z</time></trkpt><trkpt lat="44.49516039895223" lon="10.421078140256611"><ele>368.0</ele><time>2026-04-11T13:58:24Z</time></trkpt><trkpt lat="44.49505014106877" lon="10.421084464911752"><ele>369.0</ele><time>2026-04-11T13:58:25Z</time></trkpt><trkpt lat="44.49492664783794" lon="10.4210985396575"><ele>370.0</ele><time>2026-04-11T13:58:26Z</time></trkpt><trkpt lat="44.49479557944281" lon="10.421110499426817"><ele>370.0</ele><time>2026-04-11T13:58:27Z</time></trkpt><trkpt lat="44.49466102505676" lon="10.421084974033342"><ele>370.0</ele><time>2026-04-11T13:58:28Z</time></trkpt><trkpt lat="44.494528959272344" lon="10.421058107651062"><ele>370.0</ele><time>2026-04-11T13:58:29Z</time></trkpt><trkpt lat="44.49440301951063" lon="10.421028881403965"><ele>370.0</ele><time>2026-04-11T13:58:30Z</time></trkpt><trkpt lat="44.49428249195488" lon="10.421024041100335"><ele>370.5</ele><time>2026-04-11T13:58:31Z</time></trkpt><trkpt lat="44.494163268198" lon="10.421040242605292"><ele>371.0</ele><time>2026-04-11T13:58:32Z</time></trkpt><trkpt lat="44.49404707577336" lon="10.421054865840693"><ele>371.5</ele><time>2026-04-11T13:58:33Z</time></trkpt><trkpt lat="44.493935101202" lon="10.421094437431732"><ele>372.0</ele><time>2026-04-11T13:58:34Z</time></trkpt><trkpt lat="44.4938265296827" lon="10.421149636296686"><ele>372.0</ele><time>2026-04-11T13:58:35Z</time></trkpt><trkpt lat="44.49372424398235" lon="10.421194471248937"><ele>372.0</ele><time>2026-04-11T13:58:36Z</time></trkpt><trkpt lat="44.49361324334716" lon="10.421212970867465"><ele>372.0</ele><time>2026-04-11T13:58:37Z</time></trkpt><trkpt lat="44.493512452556466" lon="10.42120695441895"><ele>372.0</ele><time>2026-04-11T13:58:38Z</time></trkpt><trkpt lat="44.49344054019644" lon="10.421207224066208"><ele>372.0</ele><time>2026-04-11T13:58:39Z</time></trkpt><trkpt lat="44.493324939917215" lon="10.421179668381699"><ele>372.0</ele><time>2026-04-11T13:58:41Z</time></trkpt><trkpt lat="44.49326052757305" lon="10.421168909097148"><ele>372.0</ele><time>2026-04-11T13:58:42Z</time></trkpt><trkpt lat="44.493147506104556" lon="10.421149733197478"><ele>372.0</ele><time>2026-04-11T13:58:44Z</time></trkpt><trkpt lat="44.49300515576395" lon="10.421109478285338"><ele>372.0</ele><time>2026-04-11T13:58:46Z</time></trkpt><trkpt lat="44.49292119487146" lon="10.421084548723481"><ele>372.0</ele><time>2026-04-11T13:58:47Z</time></trkpt><trkpt lat="44.49282462074981" lon="10.421076732336925"><ele>372.0</ele><time>2026-04-11T13:58:48Z</time></trkpt><trkpt lat="44.492733898624294" lon="10.421050591320007"><ele>372.0</ele><time>2026-04-11T13:58:49Z</time></trkpt><trkpt lat="44.492629045398516" lon="10.421016989870958"><ele>372.0</ele><time>2026-04-11T13:58:50Z</time></trkpt><trkpt lat="44.4925172794321" lon="10.42098215272398"><ele>372.0</ele><time>2026-04-11T13:58:51Z</time></trkpt><trkpt lat="44.4923984622537" lon="10.420942018207937"><ele>372.0</ele><time>2026-04-11T13:58:52Z</time></trkpt><trkpt lat="44.49228154211662" lon="10.420906217252982"><ele>372.0</ele><time>2026-04-11T13:58:53Z</time></trkpt><trkpt lat="44.49216705432186" lon="10.420865737092155"><ele>372.0</ele><time>2026-04-11T13:58:54Z</time></trkpt><trkpt lat="44.49205302676854" lon="10.420802208987704"><ele>372.0</ele><time>2026-04-11T13:58:55Z</time></trkpt><trkpt lat="44.49196457453574" lon="10.420726283458787"><ele>372.0</ele><time>2026-04-11T13:58:56Z</time></trkpt><trkpt lat="44.491890845075936" lon="10.420656997541027"><ele>372.0</ele><time>2026-04-11T13:58:57Z</time></trkpt><trkpt lat="44.49182288348839" lon="10.420594166767865"><ele>373.0</ele><time>2026-04-11T13:58:58Z</time></trkpt><trkpt lat="44.49175915691358" lon="10.42053698059476"><ele>374.0</ele><time>2026-04-11T13:58:59Z</time></trkpt><trkpt lat="44.491690253872235" lon="10.420418213424412"><ele>375.0</ele><time>2026-04-11T13:59:01Z</time></trkpt><trkpt lat="44.4916540184689" lon="10.420306512675856"><ele>376.0</ele><time>2026-04-11T13:59:03Z</time></trkpt><trkpt lat="44.49159411072347" lon="10.420240437288054"><ele>377.0</ele><time>2026-04-11T13:59:05Z</time></trkpt><trkpt lat="44.49151012529625" lon="10.420149797004301"><ele>376.99999999999994</ele><time>2026-04-11T13:59:07Z</time></trkpt><trkpt lat="44.4914504349298" lon="10.42009867721002"><ele>377.0</ele><time>2026-04-11T13:59:07.999Z</time></trkpt><trkpt lat="44.49138940552501" lon="10.420043185479837"><ele>377.0</ele><time>2026-04-11T13:59:08.999Z</time></trkpt><trkpt lat="44.49132296951554" lon="10.419982206886267"><ele>377.0</ele><time>2026-04-11T13:59:09.999Z</time></trkpt><trkpt lat="44.49126624955214" lon="10.419914884295785"><ele>377.0</ele><time>2026-04-11T13:59:10.999Z</time></trkpt><trkpt lat="44.49121271428539" lon="10.41983956758699"><ele>376.99999999999994</ele><time>2026-04-11T13:59:11.999Z</time></trkpt><trkpt lat="44.49116696241468" lon="10.41975482871635"><ele>377.0</ele><time>2026-04-11T13:59:12.999Z</time></trkpt><trkpt lat="44.491127813584065" lon="10.41965554734744"><ele>377.0</ele><time>2026-04-11T13:59:13.999Z</time></trkpt><trkpt lat="44.49108512112123" lon="10.419541617731856"><ele>377.0</ele><time>2026-04-11T13:59:14.999Z</time></trkpt><trkpt lat="44.491045996532684" lon="10.419439120616058"><ele>377.0</ele><time>2026-04-11T13:59:15.999Z</time></trkpt><trkpt lat="44.491011642377735" lon="10.419341937628873"><ele>377.0</ele><time>2026-04-11T13:59:16.999Z</time></trkpt><trkpt lat="44.49099213823319" lon="10.419254002584978"><ele>377.0</ele><time>2026-04-11T13:59:17.999Z</time></trkpt><trkpt lat="44.490960001796374" lon="10.419173004177118"><ele>377.0</ele><time>2026-04-11T13:59:19.999Z</time></trkpt><trkpt lat="44.49091646208874" lon="10.419103772831487"><ele>377.0</ele><time>2026-04-11T13:59:21.999Z</time></trkpt><trkpt lat="44.4908565843552" lon="10.41899360973776"><ele>377.0</ele><time>2026-04-11T13:59:24.999Z</time></trkpt><trkpt lat="44.49080447570002" lon="10.418866067547423"><ele>377.0</ele><time>2026-04-11T13:59:26.999Z</time></trkpt><trkpt lat="44.490807521413224" lon="10.418762732055791"><ele>377.0</ele><time>2026-04-11T13:59:27.999Z</time></trkpt><trkpt lat="44.49081200222287" lon="10.418650681916208"><ele>377.0</ele><time>2026-04-11T13:59:28.999Z</time></trkpt><trkpt lat="44.49079988318373" lon="10.41855339127737"><ele>377.0</ele><time>2026-04-11T13:59:29.999Z</time></trkpt><trkpt lat="44.490769859390696" lon="10.418444982469444"><ele>377.20000000000005</ele><time>2026-04-11T13:59:30.999Z</time></trkpt><trkpt lat="44.49073667247845" lon="10.418337441160466"><ele>377.4</ele><time>2026-04-11T13:59:31.999Z</time></trkpt><trkpt lat="44.49070145386703" lon="10.418195964789657"><ele>377.6</ele><time>2026-04-11T13:59:32.999Z</time></trkpt><trkpt lat="44.4906785159045" lon="10.41805932655348"><ele>377.79999999999995</ele><time>2026-04-11T13:59:33.999Z</time></trkpt><trkpt lat="44.49064844887767" lon="10.417946104033462"><ele>378.0</ele><time>2026-04-11T13:59:34.999Z</time></trkpt><trkpt lat="44.490613076929925" lon="10.417834291261709"><ele>378.14285714285717</ele><time>2026-04-11T13:59:35.999Z</time></trkpt><trkpt lat="44.49058016469356" lon="10.417740059239419"><ele>378.2857142857143</ele><time>2026-04-11T13:59:36.999Z</time></trkpt><trkpt lat="44.49055019241656" lon="10.417640227042805"><ele>378.42857142857144</ele><time>2026-04-11T13:59:37.999Z</time></trkpt><trkpt lat="44.490514033145104" lon="10.417565660022573"><ele>378.57142857142856</ele><time>2026-04-11T13:59:38.999Z</time></trkpt><trkpt lat="44.49047882426822" lon="10.417469806596953"><ele>378.7142857142857</ele><time>2026-04-11T13:59:39.999Z</time></trkpt><trkpt lat="44.49044195112335" lon="10.417375777606843"><ele>378.8571428571429</ele><time>2026-04-11T13:59:40.999Z</time></trkpt><trkpt lat="44.49040499912647" lon="10.417298985463493"><ele>379.0</ele><time>2026-04-11T13:59:41.999Z</time></trkpt><trkpt lat="44.490356330939605" lon="10.417213916086492"><ele>380.0</ele><time>2026-04-11T13:59:42.999Z</time></trkpt><trkpt lat="44.49030685769213" lon="10.417146592906606"><ele>381.0</ele><time>2026-04-11T13:59:43.999Z</time></trkpt><trkpt lat="44.49025614503423" lon="10.417078861845194"><ele>382.0</ele><time>2026-04-11T13:59:45Z</time></trkpt><trkpt lat="44.49020455042896" lon="10.417008602247483"><ele>383.0</ele><time>2026-04-11T13:59:46Z</time></trkpt><trkpt lat="44.49016466667201" lon="10.416939202948749"><ele>384.00000000000006</ele><time>2026-04-11T13:59:47Z</time></trkpt><trkpt lat="44.49011476066783" lon="10.416823588430328"><ele>385.0</ele><time>2026-04-11T13:59:49Z</time></trkpt><trkpt lat="44.4900716739327" lon="10.416719537044147"><ele>385.00000000000006</ele><time>2026-04-11T13:59:57Z</time></trkpt><trkpt lat="44.49003341503878" lon="10.416610606395915"><ele>385.0</ele><time>2026-04-11T14:00:00Z</time></trkpt><trkpt lat="44.48999459234893" lon="10.416527254406525"><ele>385.0</ele><time>2026-04-11T14:00:01Z</time></trkpt><trkpt lat="44.48994208526839" lon="10.416442669005361"><ele>385.0</ele><time>2026-04-11T14:00:02Z</time></trkpt><trkpt lat="44.48986855030409" lon="10.416352347511667"><ele>385.00000000000006</ele><time>2026-04-11T14:00:03Z</time></trkpt><trkpt lat="44.48980001787563" lon="10.416263304623287"><ele>385.0</ele><time>2026-04-11T14:00:04Z</time></trkpt><trkpt lat="44.489752005481456" lon="10.416119883674128"><ele>385.2</ele><time>2026-04-11T14:00:05Z</time></trkpt><trkpt lat="44.4896913262897" lon="10.41594249290586"><ele>385.4</ele><time>2026-04-11T14:00:06Z</time></trkpt><trkpt lat="44.48962119141393" lon="10.415862185966116"><ele>385.6</ele><time>2026-04-11T14:00:07Z</time></trkpt><trkpt lat="44.48957867920892" lon="10.415741365356029"><ele>385.8</ele><time>2026-04-11T14:00:08Z</time></trkpt><trkpt lat="44.48953615387493" lon="10.415653344968609"><ele>386.0</ele><time>2026-04-11T14:00:09Z</time></trkpt><trkpt lat="44.48945311224847" lon="10.415580429187829"><ele>386.0</ele><time>2026-04-11T14:00:11Z</time></trkpt><trkpt lat="44.48937515893281" lon="10.415585682833441"><ele>386.0</ele><time>2026-04-11T14:00:13Z</time></trkpt><trkpt lat="44.489283199705426" lon="10.415517363964103"><ele>386.0</ele><time>2026-04-11T14:00:16Z</time></trkpt><trkpt lat="44.489203093593886" lon="10.41538992125762"><ele>386.0</ele><time>2026-04-11T14:00:18Z</time></trkpt><trkpt lat="44.48912287252882" lon="10.415216676010335"><ele>386.0</ele><time>2026-04-11T14:00:20Z</time></trkpt><trkpt lat="44.48908999051963" lon="10.415116878847867"><ele>386.0</ele><time>2026-04-11T14:00:21Z</time></trkpt><trkpt lat="44.4890408006677" lon="10.414979970655887"><ele>386.0</ele><time>2026-04-11T14:00:22Z</time></trkpt><trkpt lat="44.48897519891032" lon="10.414861304669103"><ele>386.0</ele><time>2026-04-11T14:00:23Z</time></trkpt><trkpt lat="44.48891701415999" lon="10.414731996736286"><ele>386.0</ele><time>2026-04-11T14:00:24Z</time></trkpt><trkpt lat="44.48886485836564" lon="10.41462405242176"><ele>386.3333333333333</ele><time>2026-04-11T14:00:25Z</time></trkpt><trkpt lat="44.48880227161867" lon="10.414524114825918"><ele>386.66666666666663</ele><time>2026-04-11T14:00:26Z</time></trkpt><trkpt lat="44.48874106183194" lon="10.414449041259852"><ele>387.0</ele><time>2026-04-11T14:00:27Z</time></trkpt><trkpt lat="44.488666101676834" lon="10.414365603783448"><ele>387.33333333333337</ele><time>2026-04-11T14:00:28Z</time></trkpt><trkpt lat="44.488599768264635" lon="10.414303027448344"><ele>387.6666666666667</ele><time>2026-04-11T14:00:29Z</time></trkpt><trkpt lat="44.48853779182299" lon="10.414243195715448"><ele>388.0</ele><time>2026-04-11T14:00:30Z</time></trkpt><trkpt lat="44.488465319636674" lon="10.414191895790252"><ele>388.0</ele><time>2026-04-11T14:00:31Z</time></trkpt><trkpt lat="44.488387437164285" lon="10.414118341955444"><ele>388.0</ele><time>2026-04-11T14:00:33Z</time></trkpt><trkpt lat="44.48831038616554" lon="10.414064174483016"><ele>388.0</ele><time>2026-04-11T14:00:35Z</time></trkpt><trkpt lat="44.488250625518845" lon="10.414031454933905"><ele>388.0</ele><time>2026-04-11T14:00:36Z</time></trkpt><trkpt lat="44.488169185953474" lon="10.414001462701185"><ele>388.0</ele><time>2026-04-11T14:00:38Z</time></trkpt><trkpt lat="44.48804906958041" lon="10.41394229645614"><ele>388.00000000000006</ele><time>2026-04-11T14:00:40Z</time></trkpt><trkpt lat="44.48795596215124" lon="10.413876633592666"><ele>388.0</ele><time>2026-04-11T14:00:42Z</time></trkpt><trkpt lat="44.4879103382055" lon="10.413768930611257"><ele>388.0</ele><time>2026-04-11T14:00:46Z</time></trkpt><trkpt lat="44.48785038838041" lon="10.413695790531914"><ele>388.0</ele><time>2026-04-11T14:00:48Z</time></trkpt><trkpt lat="44.48779399525688" lon="10.413637745348552"><ele>388.00000000000006</ele><time>2026-04-11T14:00:50Z</time></trkpt><trkpt lat="44.48774551763187" lon="10.413581260338812"><ele>388.0</ele><time>2026-04-11T14:00:52Z</time></trkpt><trkpt lat="44.48770391816683" lon="10.413509142115913"><ele>389.00000000000006</ele><time>2026-04-11T14:00:55Z</time></trkpt><trkpt lat="44.4876504589308" lon="10.413386659878821"><ele>390.0</ele><time>2026-04-11T14:00:59Z</time></trkpt><trkpt lat="44.487602611440145" lon="10.413218866252466"><ele>391.0</ele><time>2026-04-11T14:01:01Z</time></trkpt><trkpt lat="44.48755107639587" lon="10.413149785777405"><ele>392.0</ele><time>2026-04-11T14:01:02Z</time></trkpt><trkpt lat="44.48749334956544" lon="10.413092372187851"><ele>393.00000000000006</ele><time>2026-04-11T14:01:03Z</time></trkpt><trkpt lat="44.4874312006062" lon="10.413045102370127"><ele>394.0</ele><time>2026-04-11T14:01:04Z</time></trkpt><trkpt lat="44.48733672366217" lon="10.412977270852572"><ele>394.00000000000006</ele><time>2026-04-11T14:01:05Z</time></trkpt><trkpt lat="44.48725116680112" lon="10.412945370678573"><ele>394.0</ele><time>2026-04-11T14:01:06Z</time></trkpt><trkpt lat="44.48713105462974" lon="10.412924053725897"><ele>394.0</ele><time>2026-04-11T14:01:07.999Z</time></trkpt><trkpt lat="44.487051275958365" lon="10.412948271991272"><ele>394.0</ele><time>2026-04-11T14:01:08.999Z</time></trkpt><trkpt lat="44.48698140846406" lon="10.412978932642558"><ele>394.00000000000006</ele><time>2026-04-11T14:01:09.999Z</time></trkpt><trkpt lat="44.486924995481594" lon="10.413028286437163"><ele>394.0</ele><time>2026-04-11T14:01:10.999Z</time></trkpt><trkpt lat="44.48686748113621" lon="10.413084444611856"><ele>394.0</ele><time>2026-04-11T14:01:12.999Z</time></trkpt><trkpt lat="44.48677671371033" lon="10.413065748725716"><ele>394.0</ele><time>2026-04-11T14:01:15.999Z</time></trkpt><trkpt lat="44.48664923474713" lon="10.41301824639757"><ele>394.0</ele><time>2026-04-11T14:01:17.999Z</time></trkpt><trkpt lat="44.48656889761358" lon="10.413013715718838"><ele>394.0</ele><time>2026-04-11T14:01:18.999Z</time></trkpt><trkpt lat="44.48648884311489" lon="10.41299729665484"><ele>394.0</ele><time>2026-04-11T14:01:19.999Z</time></trkpt><trkpt lat="44.486408994449924" lon="10.412982033501605"><ele>394.2</ele><time>2026-04-11T14:01:20.999Z</time></trkpt><trkpt lat="44.48629112210601" lon="10.412980266826892"><ele>394.4</ele><time>2026-04-11T14:01:21.999Z</time></trkpt><trkpt lat="44.4861914356706" lon="10.41297628389155"><ele>394.6</ele><time>2026-04-11T14:01:22.999Z</time></trkpt><trkpt lat="44.4860927991301" lon="10.412946648824793"><ele>394.8</ele><time>2026-04-11T14:01:24.999Z</time></trkpt><trkpt lat="44.48603229551979" lon="10.41291385835794"><ele>395.0</ele><time>2026-04-11T14:01:25.999Z</time></trkpt><trkpt lat="44.48597804488625" lon="10.412851901293502"><ele>394.99999999999994</ele><time>2026-04-11T14:01:26.999Z</time></trkpt><trkpt lat="44.485927305908945" lon="10.412778645278584"><ele>395.0</ele><time>2026-04-11T14:01:27.999Z</time></trkpt><trkpt lat="44.485873460891405" lon="10.412725730249958"><ele>395.0</ele><time>2026-04-11T14:01:28.999Z</time></trkpt><trkpt lat="44.4858604755774" lon="10.412628893180372"><ele>395.0</ele><time>2026-04-11T14:01:29.999Z</time></trkpt><trkpt lat="44.48580063013897" lon="10.412531370417405"><ele>394.99999999999994</ele><time>2026-04-11T14:01:31.999Z</time></trkpt><trkpt lat="44.485716283496934" lon="10.412455170747737"><ele>395.0</ele><time>2026-04-11T14:01:33.999Z</time></trkpt><trkpt lat="44.48560593191041" lon="10.412367807993931"><ele>395.0</ele><time>2026-04-11T14:01:35.999Z</time></trkpt><trkpt lat="44.48550717512132" lon="10.412300477981582"><ele>395.0</ele><time>2026-04-11T14:01:37.999Z</time></trkpt><trkpt lat="44.48539291304988" lon="10.412260170634625"><ele>395.0</ele><time>2026-04-11T14:01:39.999Z</time></trkpt><trkpt lat="44.485284938034255" lon="10.412237868884647"><ele>395.0</ele><time>2026-04-11T14:01:41.999Z</time></trkpt><trkpt lat="44.48518119470719" lon="10.41217699668208"><ele>395.0</ele><time>2026-04-11T14:01:43.999Z</time></trkpt><trkpt lat="44.485140379465555" lon="10.412051440149044"><ele>395.3333333333333</ele><time>2026-04-11T14:01:45.999Z</time></trkpt><trkpt lat="44.48513633218573" lon="10.411950757505755"><ele>395.66666666666663</ele><time>2026-04-11T14:01:47.999Z</time></trkpt><trkpt lat="44.485090778817444" lon="10.411868904891076"><ele>396.0</ele><time>2026-04-11T14:01:49.999Z</time></trkpt><trkpt lat="44.48501154352192" lon="10.41175061615349"><ele>396.33333333333337</ele><time>2026-04-11T14:01:52Z</time></trkpt><trkpt lat="44.48495741964266" lon="10.411703784097572"><ele>396.6666666666667</ele><time>2026-04-11T14:01:53Z</time></trkpt><trkpt lat="44.48485850844178" lon="10.411649289972049"><ele>397.0</ele><time>2026-04-11T14:01:55Z</time></trkpt><trkpt lat="44.484760797499646" lon="10.411591343733653"><ele>397.0</ele><time>2026-04-11T14:01:57Z</time></trkpt><trkpt lat="44.4846717662855" lon="10.41158737555773"><ele>397.0</ele><time>2026-04-11T14:01:59Z</time></trkpt><trkpt lat="44.48456831307771" lon="10.411641798913498"><ele>397.0</ele><time>2026-04-11T14:02:01Z</time></trkpt><trkpt lat="44.4845132495357" lon="10.411695720685874"><ele>397.0</ele><time>2026-04-11T14:02:02Z</time></trkpt><trkpt lat="44.48446021609159" lon="10.411762144999821"><ele>397.0</ele><time>2026-04-11T14:02:03Z</time></trkpt><trkpt lat="44.48435896306083" lon="10.411846889128945"><ele>397.40000000000003</ele><time>2026-04-11T14:02:05Z</time></trkpt><trkpt lat="44.48427845161545" lon="10.411959643379873"><ele>397.8</ele><time>2026-04-11T14:02:07Z</time></trkpt><trkpt lat="44.484247117991686" lon="10.412039541202244"><ele>398.2</ele><time>2026-04-11T14:02:08Z</time></trkpt><trkpt lat="44.48417333259751" lon="10.412173099112543"><ele>398.6</ele><time>2026-04-11T14:02:10Z</time></trkpt><trkpt lat="44.48410304973671" lon="10.412242629544881"><ele>399.0</ele><time>2026-04-11T14:02:12Z</time></trkpt><trkpt lat="44.484061115015045" lon="10.412319442266318"><ele>399.0</ele><time>2026-04-11T14:02:14Z</time></trkpt><trkpt lat="44.48397612975096" lon="10.412410038003442"><ele>399.0</ele><time>2026-04-11T14:02:16Z</time></trkpt><trkpt lat="44.48391807267007" lon="10.412455135184748"><ele>399.0</ele><time>2026-04-11T14:02:17Z</time></trkpt><trkpt lat="44.48385015491639" lon="10.412503381919375"><ele>399.0</ele><time>2026-04-11T14:02:18Z</time></trkpt><trkpt lat="44.483781321843246" lon="10.41253834222757"><ele>399.0</ele><time>2026-04-11T14:02:19Z</time></trkpt><trkpt lat="44.48367849881539" lon="10.412578907375218"><ele>399.0</ele><time>2026-04-11T14:02:21Z</time></trkpt><trkpt lat="44.4835740983989" lon="10.412576897170013"><ele>399.0</ele><time>2026-04-11T14:02:23Z</time></trkpt><trkpt lat="44.48348007302311" lon="10.412576527639768"><ele>399.0</ele><time>2026-04-11T14:02:25Z</time></trkpt><trkpt lat="44.483387440835685" lon="10.41256048611383"><ele>399.0</ele><time>2026-04-11T14:02:27Z</time></trkpt><trkpt lat="44.483303328677934" lon="10.412480694298708"><ele>399.0</ele><time>2026-04-11T14:02:29Z</time></trkpt><trkpt lat="44.483238782838335" lon="10.412370438570234"><ele>399.0</ele><time>2026-04-11T14:02:31Z</time></trkpt><trkpt lat="44.48316525584991" lon="10.412254556529078"><ele>399.8333333333333</ele><time>2026-04-11T14:02:33Z</time></trkpt><trkpt lat="44.48310518712161" lon="10.412151764937695"><ele>400.66666666666663</ele><time>2026-04-11T14:02:35Z</time></trkpt><trkpt lat="44.48306047363057" lon="10.412073145051496"><ele>401.5</ele><time>2026-04-11T14:02:37Z</time></trkpt><trkpt lat="44.482993618567654" lon="10.41199421362937"><ele>402.3333333333333</ele><time>2026-04-11T14:02:40Z</time></trkpt><trkpt lat="44.48295211029227" lon="10.411892266669243"><ele>403.16666666666663</ele><time>2026-04-11T14:02:42Z</time></trkpt><trkpt lat="44.48289917972018" lon="10.41178190416967"><ele>404.0</ele><time>2026-04-11T14:02:44Z</time></trkpt><trkpt lat="44.482832194173646" lon="10.411737769280156"><ele>404.8333333333333</ele><time>2026-04-11T14:02:47Z</time></trkpt><trkpt lat="44.482748596593325" lon="10.411709265123509"><ele>405.66666666666663</ele><time>2026-04-11T14:02:51Z</time></trkpt><trkpt lat="44.48268269846227" lon="10.411707022877858"><ele>406.5</ele><time>2026-04-11T14:02:55Z</time></trkpt><trkpt lat="44.48259297896442" lon="10.411741938475021"><ele>407.33333333333337</ele><time>2026-04-11T14:02:58Z</time></trkpt><trkpt lat="44.48254110162873" lon="10.411818191541558"><ele>408.1666666666667</ele><time>2026-04-11T14:03:00Z</time></trkpt><trkpt lat="44.482458611270054" lon="10.411845977385275"><ele>409.0</ele><time>2026-04-11T14:03:02Z</time></trkpt><trkpt lat="44.48234457622077" lon="10.4117740052324"><ele>409.00000000000006</ele><time>2026-04-11T14:03:04Z</time></trkpt><trkpt lat="44.48228779080974" lon="10.41170483328589"><ele>409.0</ele><time>2026-04-11T14:03:05Z</time></trkpt><trkpt lat="44.48223190731669" lon="10.411627537925343"><ele>409.0</ele><time>2026-04-11T14:03:06Z</time></trkpt><trkpt lat="44.48214449538848" lon="10.411571495506735"><ele>409.0</ele><time>2026-04-11T14:03:08Z</time></trkpt><trkpt lat="44.48204332598603" lon="10.411599129837064"><ele>409.00000000000006</ele><time>2026-04-11T14:03:10Z</time></trkpt><trkpt lat="44.48197873507091" lon="10.411636143134217"><ele>409.0</ele><time>2026-04-11T14:03:12Z</time></trkpt><trkpt lat="44.48188554587232" lon="10.411690712414659"><ele>410.0</ele><time>2026-04-11T14:03:14Z</time></trkpt><trkpt lat="44.48180469677649" lon="10.411750094508722"><ele>411.0</ele><time>2026-04-11T14:03:16Z</time></trkpt><trkpt lat="44.481739072708514" lon="10.41185748293024"><ele>412.0</ele><time>2026-04-11T14:03:18Z</time></trkpt><trkpt lat="44.481697964005036" lon="10.411974873269402"><ele>413.0</ele><time>2026-04-11T14:03:20Z</time></trkpt><trkpt lat="44.481680635092275" lon="10.412113294545005"><ele>414.0</ele><time>2026-04-11T14:03:21.999Z</time></trkpt><trkpt lat="44.48166770369675" lon="10.412231103609669"><ele>414.0</ele><time>2026-04-11T14:03:23.999Z</time></trkpt><trkpt lat="44.481662678192315" lon="10.412326696015995"><ele>414.0</ele><time>2026-04-11T14:03:24.999Z</time></trkpt><trkpt lat="44.48165081573121" lon="10.412431087636849"><ele>414.0</ele><time>2026-04-11T14:03:25.999Z</time></trkpt><trkpt lat="44.48160073416234" lon="10.412524043886444"><ele>414.0</ele><time>2026-04-11T14:03:26.999Z</time></trkpt><trkpt lat="44.481502211431106" lon="10.41262575466779"><ele>414.0</ele><time>2026-04-11T14:03:28.999Z</time></trkpt><trkpt lat="44.48143715115772" lon="10.412668423493681"><ele>414.0</ele><time>2026-04-11T14:03:29.999Z</time></trkpt><trkpt lat="44.481366749397715" lon="10.412712385513492"><ele>414.0</ele><time>2026-04-11T14:03:30.999Z</time></trkpt><trkpt lat="44.481288620956626" lon="10.41276940310541"><ele>414.0</ele><time>2026-04-11T14:03:31.999Z</time></trkpt><trkpt lat="44.48122466119439" lon="10.412831483475724"><ele>414.0</ele><time>2026-04-11T14:03:32.999Z</time></trkpt><trkpt lat="44.48116587911089" lon="10.412875206649282"><ele>414.0</ele><time>2026-04-11T14:03:33.999Z</time></trkpt><trkpt lat="44.481077857627824" lon="10.412938221956852"><ele>414.0</ele><time>2026-04-11T14:03:35.999Z</time></trkpt><trkpt lat="44.48101136790883" lon="10.413009430618024"><ele>414.0</ele><time>2026-04-11T14:03:37.999Z</time></trkpt><trkpt lat="44.480981083330725" lon="10.4130957534514"><ele>415.2</ele><time>2026-04-11T14:03:40.999Z</time></trkpt><trkpt lat="44.48095093584422" lon="10.413201908435655"><ele>416.4</ele><time>2026-04-11T14:05:45.999Z</time></trkpt><trkpt lat="44.480911496791855" lon="10.413368119599149"><ele>417.6</ele><time>2026-04-11T14:05:47.999Z</time></trkpt><trkpt lat="44.480839851629845" lon="10.413496504042048"><ele>418.8</ele><time>2026-04-11T14:05:49.999Z</time></trkpt><trkpt lat="44.480735781931706" lon="10.413509643328664"><ele>420.0</ele><time>2026-04-11T14:05:51.999Z</time></trkpt><trkpt lat="44.48066012692523" lon="10.413488217208526"><ele>420.0</ele><time>2026-04-11T14:05:52.999Z</time></trkpt><trkpt lat="44.48059309935249" lon="10.41345923079474"><ele>420.0</ele><time>2026-04-11T14:05:54.999Z</time></trkpt><trkpt lat="44.4804977446393" lon="10.413451837621286"><ele>420.0</ele><time>2026-04-11T14:05:56.999Z</time></trkpt><trkpt lat="44.48041324849195" lon="10.413470193375895"><ele>420.0</ele><time>2026-04-11T14:05:58.999Z</time></trkpt><trkpt lat="44.48031881533508" lon="10.413523388378866"><ele>420.0</ele><time>2026-04-11T14:06:00.999Z</time></trkpt><trkpt lat="44.48022176351641" lon="10.41352746796077"><ele>421.8</ele><time>2026-04-11T14:06:03.001Z</time></trkpt><trkpt lat="44.48012477901742" lon="10.413549011467333"><ele>423.6</ele><time>2026-04-11T14:06:06.001Z</time></trkpt><trkpt lat="44.480054761013676" lon="10.413586116826883"><ele>425.4</ele><time>2026-04-11T14:06:08.001Z</time></trkpt><trkpt lat="44.47998724882744" lon="10.413635311384382"><ele>427.2</ele><time>2026-04-11T14:06:10.001Z</time></trkpt><trkpt lat="44.47988309481421" lon="10.413692674861949"><ele>429.0</ele><time>2026-04-11T14:06:12.001Z</time></trkpt><trkpt lat="44.479801050213894" lon="10.413743547009455"><ele>429.0</ele><time>2026-04-11T14:06:14.001Z</time></trkpt><trkpt lat="44.47972700368656" lon="10.413763183399691"><ele>429.0</ele><time>2026-04-11T14:06:16.001Z</time></trkpt><trkpt lat="44.47966213108101" lon="10.413782850883306"><ele>429.0</ele><time>2026-04-11T14:06:17.001Z</time></trkpt><trkpt lat="44.47958053954519" lon="10.413805589448323"><ele>429.0</ele><time>2026-04-11T14:06:18.001Z</time></trkpt><trkpt lat="44.47948259771376" lon="10.41380919715456"><ele>429.0</ele><time>2026-04-11T14:06:19.001Z</time></trkpt><trkpt lat="44.47938322048699" lon="10.413831290434514"><ele>429.0</ele><time>2026-04-11T14:06:20Z</time></trkpt><trkpt lat="44.47931574989549" lon="10.413861913076268"><ele>428.6666666666667</ele><time>2026-04-11T14:06:21Z</time></trkpt><trkpt lat="44.479251318997306" lon="10.413892305193977"><ele>428.33333333333337</ele><time>2026-04-11T14:06:22Z</time></trkpt><trkpt lat="44.47914844273305" lon="10.413916337140767"><ele>428.0</ele><time>2026-04-11T14:06:24Z</time></trkpt><trkpt lat="44.47904738371935" lon="10.413880796730025"><ele>427.6666666666667</ele><time>2026-04-11T14:06:26Z</time></trkpt><trkpt lat="44.47898561919941" lon="10.413843953691064"><ele>427.33333333333337</ele><time>2026-04-11T14:06:27Z</time></trkpt><trkpt lat="44.47890362157534" lon="10.413786265239372"><ele>427.0</ele><time>2026-04-11T14:06:28Z</time></trkpt><trkpt lat="44.47883190596555" lon="10.413721946025232"><ele>428.6666666666667</ele><time>2026-04-11T14:06:29Z</time></trkpt><trkpt lat="44.47875108200845" lon="10.413682090272589"><ele>430.33333333333337</ele><time>2026-04-11T14:06:30Z</time></trkpt><trkpt lat="44.47867006860671" lon="10.413656994600945"><ele>432.0</ele><time>2026-04-11T14:06:31Z</time></trkpt><trkpt lat="44.47860629925995" lon="10.413647616721002"><ele>433.66666666666663</ele><time>2026-04-11T14:06:32Z</time></trkpt><trkpt lat="44.47852775335251" lon="10.413606690058234"><ele>435.3333333333333</ele><time>2026-04-11T14:06:34Z</time></trkpt><trkpt lat="44.478546374139576" lon="10.413706530612258"><ele>437.0</ele><time>2026-04-11T14:06:38Z</time></trkpt><trkpt lat="44.47860745023133" lon="10.41383174776384"><ele>436.99999999999994</ele><time>2026-04-11T14:06:40Z</time></trkpt><trkpt lat="44.478601017483015" lon="10.413936277774487"><ele>437.0</ele><time>2026-04-11T14:06:46Z</time></trkpt><trkpt lat="44.478623752430444" lon="10.414036346833116"><ele>437.0</ele><time>2026-04-11T14:06:48Z</time></trkpt><trkpt lat="44.47863502235969" lon="10.414189038708225"><ele>437.0</ele><time>2026-04-11T14:06:51Z</time></trkpt><trkpt lat="44.478706380252255" lon="10.41427988841794"><ele>436.99999999999994</ele><time>2026-04-11T14:06:53Z</time></trkpt><trkpt lat="44.47875105615778" lon="10.414388885963634"><ele>437.0</ele><time>2026-04-11T14:06:55Z</time></trkpt><trkpt lat="44.47874351510533" lon="10.414503951699048"><ele>437.0</ele><time>2026-04-11T14:06:57Z</time></trkpt><trkpt lat="44.478725329997154" lon="10.414626488805073"><ele>437.00000000000006</ele><time>2026-04-11T14:06:59Z</time></trkpt><trkpt lat="44.47874137665561" lon="10.414771680393985"><ele>437.00000000000006</ele><time>2026-04-11T14:07:02Z</time></trkpt><trkpt lat="44.47869415804363" lon="10.414872870905208"><ele>437.0</ele><time>2026-04-11T14:07:04Z</time></trkpt><trkpt lat="44.478607832475085" lon="10.41495855682323"><ele>437.0</ele><time>2026-04-11T14:07:06Z</time></trkpt><trkpt lat="44.47850045070193" lon="10.414971280739802"><ele>436.99999999999994</ele><time>2026-04-11T14:07:08Z</time></trkpt><trkpt lat="44.47840834799652" lon="10.414885210262325"><ele>437.0</ele><time>2026-04-11T14:07:10Z</time></trkpt><trkpt lat="44.47835875132099" lon="10.414747972286547"><ele>437.0</ele><time>2026-04-11T14:07:12Z</time></trkpt><trkpt lat="44.47833765727671" lon="10.414641163142417"><ele>437.0</ele><time>2026-04-11T14:07:14Z</time></trkpt><trkpt lat="44.47829803637833" lon="10.414552437103115"><ele>436.99999999999994</ele><time>2026-04-11T14:07:16Z</time></trkpt><trkpt lat="44.4782635435058" lon="10.41446029868482"><ele>437.0</ele><time>2026-04-11T14:07:17Z</time></trkpt><trkpt lat="44.47823449050725" lon="10.41429637595023"><ele>436.99999999999994</ele><time>2026-04-11T14:07:19Z</time></trkpt><trkpt lat="44.47819458229457" lon="10.4141976583026"><ele>437.0</ele><time>2026-04-11T14:07:21Z</time></trkpt><trkpt lat="44.478153517473686" lon="10.414118852629784"><ele>437.0</ele><time>2026-04-11T14:07:22Z</time></trkpt><trkpt lat="44.478079722593826" lon="10.414036704302434"><ele>437.0</ele><time>2026-04-11T14:07:24Z</time></trkpt><trkpt lat="44.47799649553666" lon="10.414175240527278"><ele>436.99999999999994</ele><time>2026-04-11T14:07:26Z</time></trkpt><trkpt lat="44.47798451725615" lon="10.414273610474572"><ele>437.0</ele><time>2026-04-11T14:07:27Z</time></trkpt><trkpt lat="44.47794012144042" lon="10.414401194435227"><ele>442.40000000000003</ele><time>2026-04-11T14:07:29Z</time></trkpt><trkpt lat="44.477933698938685" lon="10.414521173110142"><ele>447.80000000000007</ele><time>2026-04-11T14:07:30.999Z</time></trkpt><trkpt lat="44.47783715354584" lon="10.414593374013746"><ele>453.2</ele><time>2026-04-11T14:07:32.999Z</time></trkpt><trkpt lat="44.4777749403068" lon="10.414631548273974"><ele>458.6</ele><time>2026-04-11T14:07:34.999Z</time></trkpt><trkpt lat="44.4776837825279" lon="10.414654195437183"><ele>464.0</ele><time>2026-04-11T14:07:37.999Z</time></trkpt><trkpt lat="44.47757235932425" lon="10.414609995765911"><ele>463.99999999999994</ele><time>2026-04-11T14:07:39.999Z</time></trkpt><trkpt lat="44.47750583578972" lon="10.41460026680411"><ele>464.0</ele><time>2026-04-11T14:07:40.999Z</time></trkpt><trkpt lat="44.47741524954378" lon="10.414573913308875"><ele>464.0</ele><time>2026-04-11T14:07:41.999Z</time></trkpt><trkpt lat="44.47732762081388" lon="10.414576910039408"><ele>464.0</ele><time>2026-04-11T14:07:42.999Z</time></trkpt><trkpt lat="44.477247456798686" lon="10.414575188074844"><ele>463.99999999999994</ele><time>2026-04-11T14:07:43.999Z</time></trkpt><trkpt lat="44.47717404915405" lon="10.41456503961331"><ele>464.0</ele><time>2026-04-11T14:07:44.999Z</time></trkpt><trkpt lat="44.4770734266234" lon="10.414588093925229"><ele>464.8333333333333</ele><time>2026-04-11T14:07:46.999Z</time></trkpt><trkpt lat="44.47697361684174" lon="10.414641475417817"><ele>465.66666666666663</ele><time>2026-04-11T14:07:48.999Z</time></trkpt><trkpt lat="44.476915251013466" lon="10.4146766432151"><ele>466.5</ele><time>2026-04-11T14:07:49.999Z</time></trkpt><trkpt lat="44.4767993078595" lon="10.414759004450964"><ele>467.33333333333337</ele><time>2026-04-11T14:07:51.999Z</time></trkpt><trkpt lat="44.47674691899911" lon="10.414830463519973"><ele>468.1666666666667</ele><time>2026-04-11T14:07:52.999Z</time></trkpt><trkpt lat="44.47669192776214" lon="10.414874176434655"><ele>469.0</ele><time>2026-04-11T14:07:53.999Z</time></trkpt><trkpt lat="44.4766259121023" lon="10.414970704061146"><ele>463.4</ele><time>2026-04-11T14:07:55.999Z</time></trkpt><trkpt lat="44.47657520549665" lon="10.41510660300389"><ele>457.79999999999995</ele><time>2026-04-11T14:07:57.999Z</time></trkpt><trkpt lat="44.476425581400974" lon="10.415149392983242"><ele>452.20000000000005</ele><time>2026-04-11T14:07:59.999Z</time></trkpt><trkpt lat="44.47634573693538" lon="10.415132000568162"><ele>446.6</ele><time>2026-04-11T14:08:00.999Z</time></trkpt><trkpt lat="44.476281854678824" lon="10.415121695234728"><ele>441.0</ele><time>2026-04-11T14:08:01.999Z</time></trkpt><trkpt lat="44.476217704099476" lon="10.415037149963688"><ele>440.6666666666667</ele><time>2026-04-11T14:08:03.999Z</time></trkpt><trkpt lat="44.47619288931554" lon="10.414909633472783"><ele>440.33333333333337</ele><time>2026-04-11T14:08:05.999Z</time></trkpt><trkpt lat="44.476166943492174" lon="10.414815890978831"><ele>440.0</ele><time>2026-04-11T14:08:06.999Z</time></trkpt><trkpt lat="44.47611266982383" lon="10.4147296752544"><ele>439.6666666666667</ele><time>2026-04-11T14:08:07.999Z</time></trkpt><trkpt lat="44.47605126638" lon="10.414679705306154"><ele>439.33333333333337</ele><time>2026-04-11T14:08:09Z</time></trkpt><trkpt lat="44.47593193034712" lon="10.414647500385373"><ele>439.0</ele><time>2026-04-11T14:08:11Z</time></trkpt><trkpt lat="44.47589757661579" lon="10.414780348248172"><ele>439.00000000000006</ele><time>2026-04-11T14:08:13Z</time></trkpt><trkpt lat="44.47589178118971" lon="10.414869585162242"><ele>439.0</ele><time>2026-04-11T14:08:14Z</time></trkpt><trkpt lat="44.47580933198179" lon="10.415009968102773"><ele>439.0</ele><time>2026-04-11T14:08:16Z</time></trkpt><trkpt lat="44.475752282593575" lon="10.415054088466295"><ele>439.0</ele><time>2026-04-11T14:08:17Z</time></trkpt><trkpt lat="44.47569368801132" lon="10.415092364337777"><ele>439.00000000000006</ele><time>2026-04-11T14:08:18Z</time></trkpt><trkpt lat="44.475624961057065" lon="10.41515005716482"><ele>439.0</ele><time>2026-04-11T14:08:20Z</time></trkpt><trkpt lat="44.47556138755273" lon="10.41520855997231"><ele>439.0</ele><time>2026-04-11T14:08:23Z</time></trkpt><trkpt lat="44.47545649502474" lon="10.415231126245097"><ele>439.0</ele><time>2026-04-11T14:08:25Z</time></trkpt><trkpt lat="44.47538223241919" lon="10.415321057451779"><ele>439.0</ele><time>2026-04-11T14:08:28Z</time></trkpt><trkpt lat="44.475362970729826" lon="10.415409142091436"><ele>439.0</ele><time>2026-04-11T14:08:30Z</time></trkpt><trkpt lat="44.47538344710617" lon="10.415565323894631"><ele>439.0</ele><time>2026-04-11T14:08:32Z</time></trkpt><trkpt lat="44.475393734563255" lon="10.4156933580983"><ele>437.83333333333337</ele><time>2026-04-11T14:08:34Z</time></trkpt><trkpt lat="44.47530802246471" lon="10.415763874466265"><ele>436.6666666666667</ele><time>2026-04-11T14:08:37Z</time></trkpt><trkpt lat="44.47524535307633" lon="10.415778882923949"><ele>435.5</ele><time>2026-04-11T14:08:38Z</time></trkpt><trkpt lat="44.475164534458166" lon="10.415787871821172"><ele>434.33333333333337</ele><time>2026-04-11T14:08:39Z</time></trkpt><trkpt lat="44.47509098418116" lon="10.415827627026848"><ele>433.1666666666667</ele><time>2026-04-11T14:08:40Z</time></trkpt><trkpt lat="44.47501912675014" lon="10.415874657498952"><ele>432.0</ele><time>2026-04-11T14:08:41Z</time></trkpt><trkpt lat="44.47496255758583" lon="10.4159229370303"><ele>432.0</ele><time>2026-04-11T14:08:42Z</time></trkpt><trkpt lat="44.47486112099449" lon="10.415968954298874"><ele>432.00000000000006</ele><time>2026-04-11T14:08:44Z</time></trkpt><trkpt lat="44.474775999442215" lon="10.416011201652442"><ele>432.00000000000006</ele><time>2026-04-11T14:08:46Z</time></trkpt><trkpt lat="44.47467339205055" lon="10.41605095665057"><ele>432.0</ele><time>2026-04-11T14:08:48Z</time></trkpt><trkpt lat="44.47457386021803" lon="10.416124318893324"><ele>432.0</ele><time>2026-04-11T14:08:50Z</time></trkpt><trkpt lat="44.47446937997579" lon="10.41614197894237"><ele>433.6666666666667</ele><time>2026-04-11T14:08:52Z</time></trkpt><trkpt lat="44.47440189515917" lon="10.41613303258128"><ele>435.33333333333337</ele><time>2026-04-11T14:08:53Z</time></trkpt><trkpt lat="44.47431910112115" lon="10.41610330551437"><ele>437.0</ele><time>2026-04-11T14:08:54Z</time></trkpt><trkpt lat="44.47424450034173" lon="10.416062738197919"><ele>438.6666666666667</ele><time>2026-04-11T14:08:55Z</time></trkpt><trkpt lat="44.47418094901793" lon="10.41598879267884"><ele>440.33333333333337</ele><time>2026-04-11T14:08:56Z</time></trkpt><trkpt lat="44.47410025992123" lon="10.415916681627946"><ele>442.0</ele><time>2026-04-11T14:08:57Z</time></trkpt><trkpt lat="44.474017398246254" lon="10.41584255417694"><ele>442.00000000000006</ele><time>2026-04-11T14:08:58Z</time></trkpt><trkpt lat="44.4739319362152" lon="10.415782061402487"><ele>442.0</ele><time>2026-04-11T14:08:59Z</time></trkpt><trkpt lat="44.47385932695587" lon="10.415729974887599"><ele>442.0</ele><time>2026-04-11T14:09:00Z</time></trkpt><trkpt lat="44.473788483626016" lon="10.41567532819175"><ele>442.0</ele><time>2026-04-11T14:09:01Z</time></trkpt><trkpt lat="44.47370371481909" lon="10.41562988357626"><ele>442.00000000000006</ele><time>2026-04-11T14:09:02Z</time></trkpt><trkpt lat="44.47361784699407" lon="10.415564294276523"><ele>442.0</ele><time>2026-04-11T14:09:03Z</time></trkpt><trkpt lat="44.473533135593485" lon="10.41547247262009"><ele>444.8</ele><time>2026-04-11T14:09:04Z</time></trkpt><trkpt lat="44.47345427054097" lon="10.415397398207594"><ele>447.6</ele><time>2026-04-11T14:09:05Z</time></trkpt><trkpt lat="44.473374946143686" lon="10.415343105297865"><ele>450.40000000000003</ele><time>2026-04-11T14:09:06Z</time></trkpt><trkpt lat="44.47328133768654" lon="10.415289528605676"><ele>453.20000000000005</ele><time>2026-04-11T14:09:07Z</time></trkpt><trkpt lat="44.473179687155074" lon="10.415246836359369"><ele>456.0</ele><time>2026-04-11T14:09:08Z</time></trkpt><trkpt lat="44.47307338126172" lon="10.41522673601206"><ele>456.0</ele><time>2026-04-11T14:09:09Z</time></trkpt><trkpt lat="44.472962262247975" lon="10.415210199573874"><ele>456.0</ele><time>2026-04-11T14:09:10Z</time></trkpt><trkpt lat="44.472844196242534" lon="10.415205417082412"><ele>456.0</ele><time>2026-04-11T14:09:10.999Z</time></trkpt><trkpt lat="44.47272835631293" lon="10.415218131148151"><ele>456.0</ele><time>2026-04-11T14:09:11.999Z</time></trkpt><trkpt lat="44.47261057761465" lon="10.415248715780177"><ele>455.8</ele><time>2026-04-11T14:09:12.999Z</time></trkpt><trkpt lat="44.47250462904582" lon="10.415256361209611"><ele>455.6</ele><time>2026-04-11T14:09:13.999Z</time></trkpt><trkpt lat="44.47238741354975" lon="10.41525841183829"><ele>455.4</ele><time>2026-04-11T14:09:14.999Z</time></trkpt><trkpt lat="44.47227491741065" lon="10.415267697349416"><ele>455.2</ele><time>2026-04-11T14:09:15.999Z</time></trkpt><trkpt lat="44.47216476368108" lon="10.415280860221719"><ele>455.0</ele><time>2026-04-11T14:09:16.999Z</time></trkpt><trkpt lat="44.472058032689844" lon="10.415294147643593"><ele>455.0</ele><time>2026-04-11T14:09:17.999Z</time></trkpt><trkpt lat="44.47195218012916" lon="10.415311982566713"><ele>455.0</ele><time>2026-04-11T14:09:18.999Z</time></trkpt><trkpt lat="44.47185498414637" lon="10.415319212114783"><ele>455.0</ele><time>2026-04-11T14:09:19.999Z</time></trkpt><trkpt lat="44.471763053847006" lon="10.4153239179981"><ele>455.0</ele><time>2026-04-11T14:09:20.999Z</time></trkpt><trkpt lat="44.471671209039464" lon="10.415316585838696"><ele>455.0</ele><time>2026-04-11T14:09:21.999Z</time></trkpt><trkpt lat="44.47157427681938" lon="10.415275789007806"><ele>455.0</ele><time>2026-04-11T14:09:22.999Z</time></trkpt><trkpt lat="44.47147346043994" lon="10.415209095436962"><ele>455.0</ele><time>2026-04-11T14:09:23.999Z</time></trkpt><trkpt lat="44.47136678935769" lon="10.415129534838885"><ele>455.0</ele><time>2026-04-11T14:09:24.999Z</time></trkpt><trkpt lat="44.47124433819805" lon="10.415067176530023"><ele>455.0</ele><time>2026-04-11T14:09:25.999Z</time></trkpt><trkpt lat="44.47111348261304" lon="10.415049108506288"><ele>453.5</ele><time>2026-04-11T14:09:26.999Z</time></trkpt><trkpt lat="44.47098052438608" lon="10.415044996828717"><ele>452.0</ele><time>2026-04-11T14:09:27.999Z</time></trkpt><trkpt lat="44.47084912481303" lon="10.41503617772392"><ele>450.5</ele><time>2026-04-11T14:09:28.999Z</time></trkpt><trkpt lat="44.47072689497247" lon="10.415022108674926"><ele>449.0</ele><time>2026-04-11T14:09:29.999Z</time></trkpt><trkpt lat="44.470622287145176" lon="10.415008344790207"><ele>448.99999999999994</ele><time>2026-04-11T14:09:30.999Z</time></trkpt><trkpt lat="44.47053152715173" lon="10.414997197272458"><ele>449.0</ele><time>2026-04-11T14:09:31.999Z</time></trkpt><trkpt lat="44.4704464584262" lon="10.41499006652972"><ele>449.0</ele><time>2026-04-11T14:09:32.999Z</time></trkpt><trkpt lat="44.47037094870629" lon="10.41498419904483"><ele>449.0</ele><time>2026-04-11T14:09:33.999Z</time></trkpt><trkpt lat="44.470305189372276" lon="10.414977378705371"><ele>448.99999999999994</ele><time>2026-04-11T14:09:34.999Z</time></trkpt><trkpt lat="44.47018799157999" lon="10.414970919797373"><ele>449.0</ele><time>2026-04-11T14:09:36.999Z</time></trkpt><trkpt lat="44.470086451909765" lon="10.414963232746071"><ele>448.4</ele><time>2026-04-11T14:09:38.999Z</time></trkpt><trkpt lat="44.469996292112974" lon="10.414958699811447"><ele>447.79999999999995</ele><time>2026-04-11T14:09:40.999Z</time></trkpt><trkpt lat="44.469922033912425" lon="10.414948373845165"><ele>447.20000000000005</ele><time>2026-04-11T14:09:42.999Z</time></trkpt><trkpt lat="44.46979757901818" lon="10.414945618398741"><ele>446.6</ele><time>2026-04-11T14:09:44.999Z</time></trkpt><trkpt lat="44.46971495315372" lon="10.414943965344461"><ele>446.0</ele><time>2026-04-11T14:09:45.999Z</time></trkpt><trkpt lat="44.46963228007833" lon="10.414939164559405"><ele>446.20000000000005</ele><time>2026-04-11T14:09:46.999Z</time></trkpt><trkpt lat="44.46956521743139" lon="10.414931125759809"><ele>446.40000000000003</ele><time>2026-04-11T14:09:47.999Z</time></trkpt><trkpt lat="44.46944807419949" lon="10.41492653151094"><ele>446.6</ele><time>2026-04-11T14:09:49.999Z</time></trkpt><trkpt lat="44.469342870954" lon="10.414903077443563"><ele>446.8</ele><time>2026-04-11T14:09:51.999Z</time></trkpt><trkpt lat="44.46922825436461" lon="10.414895782179517"><ele>447.0</ele><time>2026-04-11T14:09:53.999Z</time></trkpt><trkpt lat="44.46916165726718" lon="10.41489073500462"><ele>447.0</ele><time>2026-04-11T14:09:54.999Z</time></trkpt><trkpt lat="44.4690965854277" lon="10.414880532171788"><ele>447.0</ele><time>2026-04-11T14:09:55.999Z</time></trkpt><trkpt lat="44.469033288827745" lon="10.414869797478726"><ele>447.0</ele><time>2026-04-11T14:09:56.999Z</time></trkpt><trkpt lat="44.46892641806403" lon="10.414847986051456"><ele>447.0</ele><time>2026-04-11T14:09:58.999Z</time></trkpt><trkpt lat="44.468840349445216" lon="10.414809611018729"><ele>447.0</ele><time>2026-04-11T14:10:00.999Z</time></trkpt><trkpt lat="44.468738906452366" lon="10.414761804875782"><ele>447.0</ele><time>2026-04-11T14:10:02.999Z</time></trkpt><trkpt lat="44.4686606223022" lon="10.414712066444896"><ele>447.0</ele><time>2026-04-11T14:10:04.999Z</time></trkpt><trkpt lat="44.46859460329091" lon="10.414676914697019"><ele>447.0</ele><time>2026-04-11T14:10:06.999Z</time></trkpt><trkpt lat="44.46857112317863" lon="10.414786400086536"><ele>447.0</ele><time>2026-04-11T14:10:09.999Z</time></trkpt><trkpt lat="44.46863449063607" lon="10.414847649065766"><ele>447.0</ele><time>2026-04-11T14:10:11.999Z</time></trkpt><trkpt lat="44.46871267536958" lon="10.414898817803678"><ele>447.0</ele><time>2026-04-11T14:10:13.999Z</time></trkpt><trkpt lat="44.46877348090651" lon="10.414952410917998"><ele>447.0</ele><time>2026-04-11T14:10:16Z</time></trkpt><trkpt lat="44.46884983837122" lon="10.415025320099886"><ele>447.0</ele><time>2026-04-11T14:11:39.999Z</time></trkpt><trkpt lat="44.46891644556386" lon="10.415132798379862"><ele>447.00000000000006</ele><time>2026-04-11T14:11:41.999Z</time></trkpt><trkpt lat="44.469008324848446" lon="10.415236509912756"><ele>447.00000000000006</ele><time>2026-04-11T14:11:43.999Z</time></trkpt><trkpt lat="44.46905415125658" lon="10.415298833588208"><ele>447.0</ele><time>2026-04-11T14:11:44.999Z</time></trkpt><trkpt lat="44.46913203341937" lon="10.415403961028865"><ele>447.0</ele><time>2026-04-11T14:11:46.999Z</time></trkpt><trkpt lat="44.469219127561196" lon="10.41551296844134"><ele>448.0</ele><time>2026-04-11T14:11:48.999Z</time></trkpt><trkpt lat="44.46929896936536" lon="10.4156243863782"><ele>449.00000000000006</ele><time>2026-04-11T14:11:50.999Z</time></trkpt><trkpt lat="44.469386851327755" lon="10.415721212819122"><ele>450.00000000000006</ele><time>2026-04-11T14:11:52.999Z</time></trkpt><trkpt lat="44.46943666393399" lon="10.415783989893914"><ele>451.0</ele><time>2026-04-11T14:11:53.999Z</time></trkpt><trkpt lat="44.46953094786681" lon="10.415859158016971"><ele>452.0</ele><time>2026-04-11T14:11:55.999Z</time></trkpt><trkpt lat="44.46964719862539" lon="10.415893804410318"><ele>452.0</ele><time>2026-04-11T14:11:57.999Z</time></trkpt><trkpt lat="44.46978027289598" lon="10.415877919525517"><ele>452.00000000000006</ele><time>2026-04-11T14:11:59.999Z</time></trkpt><trkpt lat="44.469850530996666" lon="10.415877800647289"><ele>452.00000000000006</ele><time>2026-04-11T14:12:00.999Z</time></trkpt><trkpt lat="44.46992007922488" lon="10.41588114434347"><ele>452.0</ele><time>2026-04-11T14:12:01.999Z</time></trkpt><trkpt lat="44.47001952527092" lon="10.415916969551118"><ele>452.0</ele><time>2026-04-11T14:12:03.999Z</time></trkpt><trkpt lat="44.4701008669135" lon="10.416034116761402"><ele>452.0</ele><time>2026-04-11T14:12:05.999Z</time></trkpt><trkpt lat="44.4701523284457" lon="10.416128171261043"><ele>452.0</ele><time>2026-04-11T14:12:06.999Z</time></trkpt><trkpt lat="44.47019527722405" lon="10.416199222478705"><ele>452.0</ele><time>2026-04-11T14:12:07.999Z</time></trkpt><trkpt lat="44.47026604979811" lon="10.416248634724708"><ele>452.0</ele><time>2026-04-11T14:12:09.999Z</time></trkpt><trkpt lat="44.47033711339908" lon="10.416273153790193"><ele>452.0</ele><time>2026-04-11T14:12:11.999Z</time></trkpt><trkpt lat="44.47040273873684" lon="10.416258343712638"><ele>452.0</ele><time>2026-04-11T14:12:13.999Z</time></trkpt><trkpt lat="44.47046484298156" lon="10.416239867902298"><ele>452.0</ele><time>2026-04-11T14:12:51Z</time></trkpt><trkpt lat="44.47058354572442" lon="10.416213631786896"><ele>451.8571428571429</ele><time>2026-04-11T14:22:32.999Z</time></trkpt><trkpt lat="44.47066109417555" lon="10.41620638945521"><ele>451.71428571428567</ele><time>2026-04-11T14:22:33.999Z</time></trkpt><trkpt lat="44.47072496217836" lon="10.41622847067688"><ele>451.57142857142856</ele><time>2026-04-11T14:22:34.999Z</time></trkpt><trkpt lat="44.47079478575791" lon="10.416232258665728"><ele>451.42857142857144</ele><time>2026-04-11T14:22:35.999Z</time></trkpt><trkpt lat="44.470869549430006" lon="10.416238267344498"><ele>451.28571428571433</ele><time>2026-04-11T14:22:36.999Z</time></trkpt><trkpt lat="44.47094083435825" lon="10.416256331444313"><ele>451.1428571428571</ele><time>2026-04-11T14:22:37.999Z</time></trkpt><trkpt lat="44.47100799025618" lon="10.416275671944563"><ele>451.0</ele><time>2026-04-11T14:22:38.999Z</time></trkpt><trkpt lat="44.47108108357167" lon="10.416286095963818"><ele>451.00000000000006</ele><time>2026-04-11T14:22:39.999Z</time></trkpt><trkpt lat="44.47115325343843" lon="10.416293770088238"><ele>451.0</ele><time>2026-04-11T14:22:40.999Z</time></trkpt><trkpt lat="44.471218782400356" lon="10.41630451957731"><ele>451.0</ele><time>2026-04-11T14:22:41.999Z</time></trkpt><trkpt lat="44.471281860265975" lon="10.416335537726699"><ele>451.0</ele><time>2026-04-11T14:22:42.999Z</time></trkpt><trkpt lat="44.47135170641797" lon="10.416378370939075"><ele>451.00000000000006</ele><time>2026-04-11T14:22:43.999Z</time></trkpt><trkpt lat="44.471407537184646" lon="10.416441643141058"><ele>451.0</ele><time>2026-04-11T14:22:44.999Z</time></trkpt><trkpt lat="44.47149529714273" lon="10.416549695128932"><ele>454.33333333333337</ele><time>2026-04-11T14:22:46.999Z</time></trkpt><trkpt lat="44.47158951898487" lon="10.416645067471455"><ele>457.6666666666667</ele><time>2026-04-11T14:22:48.999Z</time></trkpt><trkpt lat="44.47164971089071" lon="10.416708838672037"><ele>461.0</ele><time>2026-04-11T14:22:49.999Z</time></trkpt><trkpt lat="44.471701500178696" lon="10.41676975390489"><ele>464.33333333333337</ele><time>2026-04-11T14:22:51Z</time></trkpt><trkpt lat="44.471754635736765" lon="10.41681995760362"><ele>467.6666666666667</ele><time>2026-04-11T14:22:52Z</time></trkpt><trkpt lat="44.471826611133395" lon="10.41685128539571"><ele>471.0</ele><time>2026-04-11T14:22:53Z</time></trkpt><trkpt lat="44.47190329011711" lon="10.416869481085532"><ele>471.0</ele><time>2026-04-11T14:22:54Z</time></trkpt><trkpt lat="44.47199090756784" lon="10.416890893083433"><ele>471.0</ele><time>2026-04-11T14:22:55Z</time></trkpt><trkpt lat="44.47205738530513" lon="10.416926123800785"><ele>471.0</ele><time>2026-04-11T14:22:56Z</time></trkpt><trkpt lat="44.47213082558923" lon="10.4169680532913"><ele>471.0</ele><time>2026-04-11T14:22:57Z</time></trkpt><trkpt lat="44.472196789440204" lon="10.4170132776992"><ele>471.0</ele><time>2026-04-11T14:22:58Z</time></trkpt><trkpt lat="44.472266597890034" lon="10.4170929280696"><ele>471.0</ele><time>2026-04-11T14:22:59Z</time></trkpt><trkpt lat="44.47234304419004" lon="10.417182868230235"><ele>473.3333333333333</ele><time>2026-04-11T14:23:00Z</time></trkpt><trkpt lat="44.47243785305577" lon="10.417253124919556"><ele>475.66666666666663</ele><time>2026-04-11T14:23:03Z</time></trkpt><trkpt lat="44.472487745776675" lon="10.417322912034582"><ele>478.0</ele><time>2026-04-11T14:23:04Z</time></trkpt><trkpt lat="44.472535439052926" lon="10.417406477766551"><ele>480.3333333333333</ele><time>2026-04-11T14:23:05Z</time></trkpt><trkpt lat="44.4725750809495" lon="10.41749163641987"><ele>482.66666666666663</ele><time>2026-04-11T14:23:06Z</time></trkpt><trkpt lat="44.47262273520145" lon="10.417573396380332"><ele>485.0</ele><time>2026-04-11T14:23:07Z</time></trkpt><trkpt lat="44.47266765301471" lon="10.417646705976116"><ele>484.99999999999994</ele><time>2026-04-11T14:23:08Z</time></trkpt><trkpt lat="44.47273756333047" lon="10.417773430666559"><ele>485.0</ele><time>2026-04-11T14:23:10Z</time></trkpt><trkpt lat="44.472782453156526" lon="10.417861230891122"><ele>485.0</ele><time>2026-04-11T14:23:12Z</time></trkpt><trkpt lat="44.47274306861588" lon="10.417931445432767"><ele>485.0</ele><time>2026-04-11T14:23:15Z</time></trkpt><trkpt lat="44.472657532202845" lon="10.417945367651061"><ele>484.99999999999994</ele><time>2026-04-11T14:23:28Z</time></trkpt><trkpt lat="44.47259113901455" lon="10.418008445273783"><ele>485.0</ele><time>2026-04-11T14:23:29Z</time></trkpt><trkpt lat="44.47252723431094" lon="10.418081862446881"><ele>484.99999999999994</ele><time>2026-04-11T14:23:30Z</time></trkpt><trkpt lat="44.47242894659598" lon="10.418124705539197"><ele>485.0</ele><time>2026-04-11T14:23:32Z</time></trkpt><trkpt lat="44.47235872596679" lon="10.418106689177408"><ele>485.0</ele><time>2026-04-11T14:23:38Z</time></trkpt><trkpt lat="44.472295896525274" lon="10.418066945914664"><ele>485.0</ele><time>2026-04-11T14:23:39Z</time></trkpt><trkpt lat="44.47217381587703" lon="10.418001764103318"><ele>484.99999999999994</ele><time>2026-04-11T14:23:41Z</time></trkpt><trkpt lat="44.47212580374897" lon="10.417944278089944"><ele>485.0</ele><time>2026-04-11T14:23:42Z</time></trkpt><trkpt lat="44.472051527910914" lon="10.41788089516674"><ele>493.8</ele><time>2026-04-11T14:23:44Z</time></trkpt><trkpt lat="44.47201119397424" lon="10.418015555122668"><ele>502.6</ele><time>2026-04-11T14:23:47Z</time></trkpt><trkpt lat="44.47202245257948" lon="10.418173834743776"><ele>511.4</ele><time>2026-04-11T14:23:48.999Z</time></trkpt><trkpt lat="44.472001821094466" lon="10.418316729390156"><ele>520.2</ele><time>2026-04-11T14:23:50.999Z</time></trkpt><trkpt lat="44.47200967615823" lon="10.418416862450915"><ele>529.0</ele><time>2026-04-11T14:23:53.999Z</time></trkpt><trkpt lat="44.472049060588475" lon="10.418534586850438"><ele>529.0</ele><time>2026-04-11T14:23:55.999Z</time></trkpt><trkpt lat="44.472074321084435" lon="10.418622767706982"><ele>529.0</ele><time>2026-04-11T14:23:56.999Z</time></trkpt><trkpt lat="44.47211296238706" lon="10.418751806110375"><ele>529.0</ele><time>2026-04-11T14:23:58.999Z</time></trkpt><trkpt lat="44.47203153050956" lon="10.41883355025765"><ele>529.0</ele><time>2026-04-11T14:24:00.999Z</time></trkpt><trkpt lat="44.47196205076605" lon="10.41884104922639"><ele>529.0</ele><time>2026-04-11T14:24:01.999Z</time></trkpt><trkpt lat="44.47185773935475" lon="10.418903025507477"><ele>531.2</ele><time>2026-04-11T14:24:03.999Z</time></trkpt><trkpt lat="44.47180030074165" lon="10.4189877533724"><ele>533.4</ele><time>2026-04-11T14:24:04.999Z</time></trkpt><trkpt lat="44.47169914303989" lon="10.419052057727324"><ele>535.6</ele><time>2026-04-11T14:24:06.999Z</time></trkpt><trkpt lat="44.4716223660524" lon="10.419145301201665"><ele>537.8</ele><time>2026-04-11T14:24:08.999Z</time></trkpt><trkpt lat="44.4715833094441" lon="10.41930359816475"><ele>540.0</ele><time>2026-04-11T14:24:10.999Z</time></trkpt><trkpt lat="44.47155517288993" lon="10.419389520819268"><ele>540.0</ele><time>2026-04-11T14:24:11.999Z</time></trkpt><trkpt lat="44.47150219113242" lon="10.41949419692118"><ele>540.0</ele><time>2026-04-11T14:24:13.999Z</time></trkpt><trkpt lat="44.471411942991885" lon="10.419594817921311"><ele>540.0</ele><time>2026-04-11T14:24:15.999Z</time></trkpt><trkpt lat="44.47131707566935" lon="10.41962042181763"><ele>540.0</ele><time>2026-04-11T14:24:17.999Z</time></trkpt><trkpt lat="44.471264054991316" lon="10.419680146478408"><ele>540.0</ele><time>2026-04-11T14:24:19.999Z</time></trkpt><trkpt lat="44.47118784474774" lon="10.419718869123878"><ele>542.2</ele><time>2026-04-11T14:24:24.999Z</time></trkpt><trkpt lat="44.47111029893274" lon="10.419776620933654"><ele>544.4</ele><time>2026-04-11T14:24:26.999Z</time></trkpt><trkpt lat="44.47103434011129" lon="10.419804704742704"><ele>546.6</ele><time>2026-04-11T14:24:28.999Z</time></trkpt><trkpt lat="44.470955039534104" lon="10.419832765812394"><ele>548.8</ele><time>2026-04-11T14:24:31.999Z</time></trkpt><trkpt lat="44.47084933329031" lon="10.419893323418695"><ele>551.0</ele><time>2026-04-11T14:24:33.999Z</time></trkpt><trkpt lat="44.47076285352315" lon="10.419991021861055"><ele>551.0</ele><time>2026-04-11T14:24:35.999Z</time></trkpt><trkpt lat="44.47069570869047" lon="10.420031466071183"><ele>551.0</ele><time>2026-04-11T14:24:36.999Z</time></trkpt><trkpt lat="44.47057458472824" lon="10.420044338578176"><ele>551.0</ele><time>2026-04-11T14:24:38.999Z</time></trkpt><trkpt lat="44.4704472491087" lon="10.42005168618274"><ele>551.0</ele><time>2026-04-11T14:24:40.999Z</time></trkpt><trkpt lat="44.47037714165275" lon="10.420048682123422"><ele>551.0</ele><time>2026-04-11T14:24:41.999Z</time></trkpt><trkpt lat="44.47031121697558" lon="10.420050421102609"><ele>553.4285714285713</ele><time>2026-04-11T14:24:42.999Z</time></trkpt><trkpt lat="44.470249515366866" lon="10.420072190666394"><ele>555.8571428571429</ele><time>2026-04-11T14:24:43.999Z</time></trkpt><trkpt lat="44.47018700497653" lon="10.420128617672418"><ele>558.2857142857142</ele><time>2026-04-11T14:24:44.999Z</time></trkpt><trkpt lat="44.470120206231684" lon="10.420173875322698"><ele>560.7142857142857</ele><time>2026-04-11T14:24:45.999Z</time></trkpt><trkpt lat="44.47005773271233" lon="10.42024495443841"><ele>563.1428571428571</ele><time>2026-04-11T14:24:46.999Z</time></trkpt><trkpt lat="44.47000223935196" lon="10.420303905934743"><ele>565.5714285714286</ele><time>2026-04-11T14:24:47.999Z</time></trkpt><trkpt lat="44.469946732429" lon="10.420366270175643"><ele>568.0</ele><time>2026-04-11T14:24:48.999Z</time></trkpt><trkpt lat="44.46988968205564" lon="10.42041498127474"><ele>568.0</ele><time>2026-04-11T14:24:49.999Z</time></trkpt><trkpt lat="44.469834772630094" lon="10.420478824308901"><ele>568.0</ele><time>2026-04-11T14:24:50.999Z</time></trkpt><trkpt lat="44.469738124973304" lon="10.420580155068492"><ele>568.0</ele><time>2026-04-11T14:24:52.999Z</time></trkpt><trkpt lat="44.469686334567555" lon="10.420633979405086"><ele>568.0</ele><time>2026-04-11T14:24:53.999Z</time></trkpt><trkpt lat="44.469619773700096" lon="10.420738765131127"><ele>568.0</ele><time>2026-04-11T14:24:55.999Z</time></trkpt><trkpt lat="44.46955977781492" lon="10.4208562891553"><ele>568.1999999999999</ele><time>2026-04-11T14:24:57.999Z</time></trkpt><trkpt lat="44.46952922816363" lon="10.42094360551432"><ele>568.4</ele><time>2026-04-11T14:24:58.999Z</time></trkpt><trkpt lat="44.46949294777476" lon="10.421036824805885"><ele>568.5999999999999</ele><time>2026-04-11T14:24:59.999Z</time></trkpt><trkpt lat="44.46942300622171" lon="10.421167511747528"><ele>568.8</ele><time>2026-04-11T14:25:01.999Z</time></trkpt><trkpt lat="44.46932704060434" lon="10.421282854942255"><ele>569.0</ele><time>2026-04-11T14:25:03.999Z</time></trkpt><trkpt lat="44.46927361168767" lon="10.421331886596343"><ele>569.0</ele><time>2026-04-11T14:25:04.999Z</time></trkpt><trkpt lat="44.46919314751171" lon="10.421456122558185"><ele>569.0</ele><time>2026-04-11T14:25:06.999Z</time></trkpt><trkpt lat="44.46914021294377" lon="10.421604809001703"><ele>569.0</ele><time>2026-04-11T14:25:08.999Z</time></trkpt><trkpt lat="44.469101049734924" lon="10.421727010152827"><ele>569.0</ele><time>2026-04-11T14:25:10.999Z</time></trkpt><trkpt lat="44.46902476701106" lon="10.421869051033083"><ele>569.0</ele><time>2026-04-11T14:25:12.999Z</time></trkpt><trkpt lat="44.468952548751524" lon="10.421994786578756"><ele>569.0</ele><time>2026-04-11T14:25:14.999Z</time></trkpt><trkpt lat="44.46892043012879" lon="10.422072266138692"><ele>569.0</ele><time>2026-04-11T14:25:15.999Z</time></trkpt><trkpt lat="44.46887889006626" lon="10.42219682796063"><ele>569.0</ele><time>2026-04-11T14:25:17.999Z</time></trkpt><trkpt lat="44.46882458813283" lon="10.422301219888217"><ele>569.0</ele><time>2026-04-11T14:25:19.999Z</time></trkpt><trkpt lat="44.46875881918408" lon="10.422364667982173"><ele>569.0</ele><time>2026-04-11T14:25:20.999Z</time></trkpt><trkpt lat="44.46867588469403" lon="10.422435458512176"><ele>568.2</ele><time>2026-04-11T14:25:21.999Z</time></trkpt><trkpt lat="44.468596772729946" lon="10.42251273388619"><ele>567.4</ele><time>2026-04-11T14:25:22.999Z</time></trkpt><trkpt lat="44.468518173410544" lon="10.422593893983734"><ele>566.6</ele><time>2026-04-11T14:25:23.999Z</time></trkpt><trkpt lat="44.46843242133503" lon="10.422676770591476"><ele>565.8</ele><time>2026-04-11T14:25:24.999Z</time></trkpt><trkpt lat="44.46834271053825" lon="10.422757354459408"><ele>565.0</ele><time>2026-04-11T14:25:25.999Z</time></trkpt><trkpt lat="44.46825509507418" lon="10.422834678521461"><ele>565.0</ele><time>2026-04-11T14:25:26.999Z</time></trkpt><trkpt lat="44.468178629987804" lon="10.422906957675668"><ele>565.0</ele><time>2026-04-11T14:25:27.999Z</time></trkpt><trkpt lat="44.468119172932205" lon="10.422965987233887"><ele>565.0</ele><time>2026-04-11T14:25:28.999Z</time></trkpt><trkpt lat="44.468019972476256" lon="10.423056593075847"><ele>565.0</ele><time>2026-04-11T14:25:30.999Z</time></trkpt><trkpt lat="44.46796639975575" lon="10.423113154782977"><ele>565.0</ele><time>2026-04-11T14:25:31.999Z</time></trkpt><trkpt lat="44.46791785451391" lon="10.423183708592083"><ele>565.0</ele><time>2026-04-11T14:25:32.999Z</time></trkpt><trkpt lat="44.467861225614975" lon="10.423270135276278"><ele>566.4</ele><time>2026-04-11T14:25:33.999Z</time></trkpt><trkpt lat="44.467800718603485" lon="10.423369049307547"><ele>567.8</ele><time>2026-04-11T14:25:34.999Z</time></trkpt><trkpt lat="44.46772875459304" lon="10.423472580426191"><ele>569.2</ele><time>2026-04-11T14:25:35.999Z</time></trkpt><trkpt lat="44.46766250155155" lon="10.42355455869205"><ele>570.6</ele><time>2026-04-11T14:25:36.999Z</time></trkpt><trkpt lat="44.46759181590161" lon="10.423633536462253"><ele>572.0</ele><time>2026-04-11T14:25:37.999Z</time></trkpt><trkpt lat="44.46751455493867" lon="10.423712199035554"><ele>572.0</ele><time>2026-04-11T14:25:38.999Z</time></trkpt><trkpt lat="44.46743394024268" lon="10.423795327312954"><ele>572.0</ele><time>2026-04-11T14:25:39.999Z</time></trkpt><trkpt lat="44.467352377963834" lon="10.42387675672909"><ele>572.0</ele><time>2026-04-11T14:25:40.999Z</time></trkpt><trkpt lat="44.46726624606534" lon="10.423956549555626"><ele>572.0</ele><time>2026-04-11T14:25:41.999Z</time></trkpt><trkpt lat="44.467181651778034" lon="10.424051745443366"><ele>572.0</ele><time>2026-04-11T14:25:42.999Z</time></trkpt><trkpt lat="44.46708624631285" lon="10.424148917065413"><ele>573.2</ele><time>2026-04-11T14:25:43.999Z</time></trkpt><trkpt lat="44.46701405090406" lon="10.424280260154944"><ele>574.4000000000001</ele><time>2026-04-11T14:25:44.999Z</time></trkpt><trkpt lat="44.466938561088696" lon="10.424385498569082"><ele>575.5999999999999</ele><time>2026-04-11T14:25:45.999Z</time></trkpt><trkpt lat="44.4668563767254" lon="10.424455116292732"><ele>576.8</ele><time>2026-04-11T14:25:46.999Z</time></trkpt><trkpt lat="44.466769042246604" lon="10.42450040152808"><ele>578.0</ele><time>2026-04-11T14:25:47.999Z</time></trkpt><trkpt lat="44.466686149604804" lon="10.424526112911824"><ele>578.0</ele><time>2026-04-11T14:25:48.999Z</time></trkpt><trkpt lat="44.46660798415842" lon="10.424563452037056"><ele>578.0</ele><time>2026-04-11T14:25:49.999Z</time></trkpt><trkpt lat="44.46652965049788" lon="10.424601764647782"><ele>578.0</ele><time>2026-04-11T14:25:50.999Z</time></trkpt><trkpt lat="44.4664541820229" lon="10.424638847441503"><ele>578.0</ele><time>2026-04-11T14:25:51.999Z</time></trkpt><trkpt lat="44.46638659577524" lon="10.424672813955159"><ele>578.0</ele><time>2026-04-11T14:25:52.999Z</time></trkpt><trkpt lat="44.46627405302518" lon="10.424726733597293"><ele>578.0</ele><time>2026-04-11T14:25:54.999Z</time></trkpt><trkpt lat="44.46615535283593" lon="10.42478051910763"><ele>578.6</ele><time>2026-04-11T14:25:56.999Z</time></trkpt><trkpt lat="44.466042133836986" lon="10.424830730777032"><ele>579.1999999999999</ele><time>2026-04-11T14:25:58.999Z</time></trkpt><trkpt lat="44.465941864987876" lon="10.424892188060316"><ele>579.8</ele><time>2026-04-11T14:26:00.999Z</time></trkpt><trkpt lat="44.46584733049172" lon="10.424948662748841"><ele>580.4</ele><time>2026-04-11T14:26:02.999Z</time></trkpt><trkpt lat="44.46576642272222" lon="10.425005165108834"><ele>581.0</ele><time>2026-04-11T14:26:04.999Z</time></trkpt><trkpt lat="44.46568795177613" lon="10.425065701084245"><ele>581.0</ele><time>2026-04-11T14:26:06.999Z</time></trkpt><trkpt lat="44.46558913521511" lon="10.425025900638074"><ele>581.0</ele><time>2026-04-11T14:26:08.999Z</time></trkpt><trkpt lat="44.46550876454167" lon="10.425068170575752"><ele>581.0</ele><time>2026-04-11T14:26:10.999Z</time></trkpt><trkpt lat="44.46545339693334" lon="10.425186389015115"><ele>581.0</ele><time>2026-04-11T14:26:12.999Z</time></trkpt><trkpt lat="44.465397213709274" lon="10.42523435043497"><ele>581.0</ele><time>2026-04-11T14:26:13.999Z</time></trkpt><trkpt lat="44.465322292584375" lon="10.4252601513175"><ele>581.0</ele><time>2026-04-11T14:26:14.999Z</time></trkpt><trkpt lat="44.46524115523816" lon="10.425288041350933"><ele>581.5</ele><time>2026-04-11T14:26:15.999Z</time></trkpt><trkpt lat="44.46514923815649" lon="10.425314386793302"><ele>582.0</ele><time>2026-04-11T14:26:16.999Z</time></trkpt><trkpt lat="44.465063079631534" lon="10.4253290212792"><ele>582.5</ele><time>2026-04-11T14:26:17.999Z</time></trkpt><trkpt lat="44.46498877533805" lon="10.425369282290571"><ele>583.0</ele><time>2026-04-11T14:26:18.999Z</time></trkpt><trkpt lat="44.46493214542322" lon="10.42543622355015"><ele>583.5</ele><time>2026-04-11T14:26:19.999Z</time></trkpt><trkpt lat="44.46488912659386" lon="10.425536314364466"><ele>584.0</ele><time>2026-04-11T14:26:20.999Z</time></trkpt><trkpt lat="44.464874149271424" lon="10.425662510410884"><ele>584.0</ele><time>2026-04-11T14:26:21.999Z</time></trkpt><trkpt lat="44.464868857099006" lon="10.425816369769564"><ele>584.0</ele><time>2026-04-11T14:26:22.999Z</time></trkpt><trkpt lat="44.46487710534003" lon="10.425969467258392"><ele>584.0</ele><time>2026-04-11T14:26:23.999Z</time></trkpt><trkpt lat="44.46489794697873" lon="10.426125422954831"><ele>584.0</ele><time>2026-04-11T14:26:24.999Z</time></trkpt><trkpt lat="44.464948036798596" lon="10.426305550479364"><ele>585.6</ele><time>2026-04-11T14:26:25.999Z</time></trkpt><trkpt lat="44.46500369750124" lon="10.426453127081208"><ele>587.2</ele><time>2026-04-11T14:26:26.999Z</time></trkpt><trkpt lat="44.465049471028614" lon="10.426560991567369"><ele>588.8000000000001</ele><time>2026-04-11T14:26:27.999Z</time></trkpt><trkpt lat="44.46508690091774" lon="10.426643726832504"><ele>590.4</ele><time>2026-04-11T14:26:28.999Z</time></trkpt><trkpt lat="44.46513310345697" lon="10.426829841885258"><ele>592.0</ele><time>2026-04-11T14:26:30.999Z</time></trkpt><trkpt lat="44.465136237383305" lon="10.42692258726675"><ele>592.0</ele><time>2026-04-11T14:26:31.999Z</time></trkpt><trkpt lat="44.465099853169434" lon="10.42700267139276"><ele>592.0</ele><time>2026-04-11T14:26:32.999Z</time></trkpt><trkpt lat="44.46503544813415" lon="10.427062562084267"><ele>592.0</ele><time>2026-04-11T14:26:33.999Z</time></trkpt><trkpt lat="44.46496856989826" lon="10.427139260436853"><ele>592.0</ele><time>2026-04-11T14:26:34.999Z</time></trkpt><trkpt lat="44.464905139448476" lon="10.427234852259824"><ele>592.0</ele><time>2026-04-11T14:26:35.999Z</time></trkpt><trkpt lat="44.46482786343484" lon="10.427332839354241"><ele>592.0</ele><time>2026-04-11T14:26:36.999Z</time></trkpt><trkpt lat="44.46474750013397" lon="10.427437974839364"><ele>592.3333333333334</ele><time>2026-04-11T14:26:37.999Z</time></trkpt><trkpt lat="44.46468568471779" lon="10.42752793846276"><ele>592.6666666666667</ele><time>2026-04-11T14:26:38.999Z</time></trkpt><trkpt lat="44.46461693842426" lon="10.427611880934071"><ele>593.0</ele><time>2026-04-11T14:26:39.999Z</time></trkpt><trkpt lat="44.46455291355107" lon="10.42770340430834"><ele>593.3333333333334</ele><time>2026-04-11T14:26:40.999Z</time></trkpt><trkpt lat="44.464492697115645" lon="10.427782135388153"><ele>593.6666666666666</ele><time>2026-04-11T14:26:41.999Z</time></trkpt><trkpt lat="44.464422821852075" lon="10.427820334515694"><ele>594.0</ele><time>2026-04-11T14:26:42.999Z</time></trkpt><trkpt lat="44.46433790477365" lon="10.427798410721532"><ele>597.8</ele><time>2026-04-11T14:26:43.999Z</time></trkpt><trkpt lat="44.4642511926834" lon="10.42772303494252"><ele>601.5999999999999</ele><time>2026-04-11T14:26:44.999Z</time></trkpt><trkpt lat="44.46416385694785" lon="10.42761973597379"><ele>605.4</ele><time>2026-04-11T14:26:45.999Z</time></trkpt><trkpt lat="44.46407155164991" lon="10.427550416748177"><ele>609.1999999999999</ele><time>2026-04-11T14:26:46.999Z</time></trkpt><trkpt lat="44.46397211965008" lon="10.427507026502287"><ele>613.0</ele><time>2026-04-11T14:26:47.999Z</time></trkpt><trkpt lat="44.463866683376445" lon="10.427494347291344"><ele>616.4</ele><time>2026-04-11T14:26:48.999Z</time></trkpt><trkpt lat="44.46376194861024" lon="10.427503840523135"><ele>619.8</ele><time>2026-04-11T14:26:49.999Z</time></trkpt><trkpt lat="44.463670500443165" lon="10.427507321542075"><ele>623.2</ele><time>2026-04-11T14:26:50.999Z</time></trkpt><trkpt lat="44.46359595175997" lon="10.427478245635339"><ele>626.6</ele><time>2026-04-11T14:26:51.999Z</time></trkpt><trkpt lat="44.463515859942646" lon="10.42740636418364"><ele>630.0</ele><time>2026-04-11T14:26:52.999Z</time></trkpt><trkpt lat="44.46343042494709" lon="10.427316077958084"><ele>630.0</ele><time>2026-04-11T14:26:53.999Z</time></trkpt><trkpt lat="44.46332558810906" lon="10.42719780180022"><ele>630.0</ele><time>2026-04-11T14:26:54.999Z</time></trkpt><trkpt lat="44.463224848874354" lon="10.427091197056699"><ele>630.0</ele><time>2026-04-11T14:26:55.999Z</time></trkpt><trkpt lat="44.46311135666052" lon="10.427007155002059"><ele>630.0</ele><time>2026-04-11T14:26:56.999Z</time></trkpt><trkpt lat="44.46301822620928" lon="10.426943411232118"><ele>627.4</ele><time>2026-04-11T14:26:57.999Z</time></trkpt><trkpt lat="44.462942898680105" lon="10.426895119881932"><ele>624.8</ele><time>2026-04-11T14:26:58.999Z</time></trkpt><trkpt lat="44.46283376360799" lon="10.42697428533969"><ele>622.2</ele><time>2026-04-11T14:27:00.999Z</time></trkpt><trkpt lat="44.46279748100048" lon="10.42707190759456"><ele>619.6</ele><time>2026-04-11T14:27:01.999Z</time></trkpt><trkpt lat="44.46279591278948" lon="10.427205801867462"><ele>617.0</ele><time>2026-04-11T14:27:02.999Z</time></trkpt><trkpt lat="44.46281198952618" lon="10.427360331873018"><ele>617.0</ele><time>2026-04-11T14:27:03.999Z</time></trkpt><trkpt lat="44.462808718837415" lon="10.427495258327424"><ele>617.0</ele><time>2026-04-11T14:27:04.999Z</time></trkpt><trkpt lat="44.46278016706263" lon="10.427640505242037"><ele>617.0</ele><time>2026-04-11T14:27:05.999Z</time></trkpt><trkpt lat="44.46272445345103" lon="10.427776894435096"><ele>617.0</ele><time>2026-04-11T14:27:06.999Z</time></trkpt><trkpt lat="44.46265598354331" lon="10.427905007448304"><ele>617.0</ele><time>2026-04-11T14:27:07.999Z</time></trkpt><trkpt lat="44.46259836670047" lon="10.42800695954611"><ele>620.6</ele><time>2026-04-11T14:27:08.999Z</time></trkpt><trkpt lat="44.46253745646835" lon="10.428076437999728"><ele>624.2</ele><time>2026-04-11T14:27:09.999Z</time></trkpt><trkpt lat="44.46246154676833" lon="10.428107181756117"><ele>627.8</ele><time>2026-04-11T14:27:10.999Z</time></trkpt><trkpt lat="44.462368955370444" lon="10.428121865739778"><ele>631.4</ele><time>2026-04-11T14:27:11.999Z</time></trkpt><trkpt lat="44.4622679709379" lon="10.428115645661384"><ele>635.0</ele><time>2026-04-11T14:27:12.999Z</time></trkpt><trkpt lat="44.46216697314" lon="10.428143203006623"><ele>632.0</ele><time>2026-04-11T14:27:13.999Z</time></trkpt><trkpt lat="44.46207166104362" lon="10.428191676836796"><ele>629.0</ele><time>2026-04-11T14:27:14.999Z</time></trkpt><trkpt lat="44.46199085679956" lon="10.428241646003164"><ele>626.0</ele><time>2026-04-11T14:27:15.999Z</time></trkpt><trkpt lat="44.46191697679467" lon="10.42829953578837"><ele>623.0</ele><time>2026-04-11T14:27:16.999Z</time></trkpt><trkpt lat="44.46184764654886" lon="10.428364978493336"><ele>620.0</ele><time>2026-04-11T14:27:17.999Z</time></trkpt><trkpt lat="44.46178991621351" lon="10.428453617683198"><ele>617.0</ele><time>2026-04-11T14:27:18.999Z</time></trkpt><trkpt lat="44.46174456814468" lon="10.428544211550966"><ele>617.0</ele><time>2026-04-11T14:27:19.999Z</time></trkpt><trkpt lat="44.46170273657235" lon="10.428641498023067"><ele>617.0</ele><time>2026-04-11T14:27:20.999Z</time></trkpt><trkpt lat="44.46166847359694" lon="10.428753992756437"><ele>617.0</ele><time>2026-04-11T14:27:21.999Z</time></trkpt><trkpt lat="44.46163957052424" lon="10.428887130344137"><ele>617.0</ele><time>2026-04-11T14:27:22.999Z</time></trkpt><trkpt lat="44.461617040533504" lon="10.42902930813602"><ele>617.0</ele><time>2026-04-11T14:27:23.999Z</time></trkpt><trkpt lat="44.46158963226802" lon="10.429171677787735"><ele>615.8333333333333</ele><time>2026-04-11T14:27:24.999Z</time></trkpt><trkpt lat="44.461548611858824" lon="10.429280589510725"><ele>614.6666666666666</ele><time>2026-04-11T14:27:25.999Z</time></trkpt><trkpt lat="44.461493022963545" lon="10.429361636270372"><ele>613.5</ele><time>2026-04-11T14:27:26.999Z</time></trkpt><trkpt lat="44.46143929291198" lon="10.429423014082221"><ele>612.3333333333334</ele><time>2026-04-11T14:27:27.999Z</time></trkpt><trkpt lat="44.461387080824544" lon="10.42948770194434"><ele>611.1666666666667</ele><time>2026-04-11T14:27:28.999Z</time></trkpt><trkpt lat="44.46132394666689" lon="10.429541326123847"><ele>610.0</ele><time>2026-04-11T14:27:29.999Z</time></trkpt><trkpt lat="44.46124220408281" lon="10.429589724415704"><ele>610.0</ele><time>2026-04-11T14:27:30.999Z</time></trkpt><trkpt lat="44.46115045576654" lon="10.429614619591517"><ele>610.0</ele><time>2026-04-11T14:27:31.999Z</time></trkpt><trkpt lat="44.46106423133645" lon="10.429618366626892"><ele>610.0</ele><time>2026-04-11T14:27:32.999Z</time></trkpt><trkpt lat="44.46097306895102" lon="10.429621846555099"><ele>610.0</ele><time>2026-04-11T14:27:33.999Z</time></trkpt><trkpt lat="44.460887070408184" lon="10.429629854988903"><ele>610.0</ele><time>2026-04-11T14:27:34.999Z</time></trkpt><trkpt lat="44.46079713652653" lon="10.429658815516914"><ele>610.0</ele><time>2026-04-11T14:27:35.999Z</time></trkpt><trkpt lat="44.4607072294891" lon="10.429712504943845"><ele>610.6</ele><time>2026-04-11T14:27:36.999Z</time></trkpt><trkpt lat="44.46062157041537" lon="10.429775520300177"><ele>611.2</ele><time>2026-04-11T14:27:37.999Z</time></trkpt><trkpt lat="44.46053998846936" lon="10.429849527789955"><ele>611.8</ele><time>2026-04-11T14:27:38.999Z</time></trkpt><trkpt lat="44.46045001552182" lon="10.429903307554133"><ele>612.4</ele><time>2026-04-11T14:27:39.999Z</time></trkpt><trkpt lat="44.4603508706377" lon="10.429946046912804"><ele>613.0</ele><time>2026-04-11T14:27:40.999Z</time></trkpt><trkpt lat="44.460264923438906" lon="10.429988083287919"><ele>615.0</ele><time>2026-04-11T14:27:41.999Z</time></trkpt><trkpt lat="44.460165707721806" lon="10.430028604829987"><ele>617.0</ele><time>2026-04-11T14:27:42.999Z</time></trkpt><trkpt lat="44.46006874641968" lon="10.430064181266207"><ele>619.0</ele><time>2026-04-11T14:27:43.999Z</time></trkpt><trkpt lat="44.45997065307063" lon="10.430089101582322"><ele>621.0</ele><time>2026-04-11T14:27:44.999Z</time></trkpt><trkpt lat="44.459877153997375" lon="10.430102096106491"><ele>623.0</ele><time>2026-04-11T14:27:45.999Z</time></trkpt><trkpt lat="44.45979578209613" lon="10.430104997910988"><ele>623.0</ele><time>2026-04-11T14:27:46.999Z</time></trkpt><trkpt lat="44.45970750256529" lon="10.430106639963169"><ele>623.0</ele><time>2026-04-11T14:27:47.999Z</time></trkpt><trkpt lat="44.45962305723104" lon="10.430118390548389"><ele>623.0</ele><time>2026-04-11T14:27:48.999Z</time></trkpt><trkpt lat="44.45953689937304" lon="10.430132400206825"><ele>623.0</ele><time>2026-04-11T14:27:49.999Z</time></trkpt><trkpt lat="44.459444394542345" lon="10.430141648185332"><ele>623.0</ele><time>2026-04-11T14:27:50.999Z</time></trkpt><trkpt lat="44.45934841365508" lon="10.430146753103418"><ele>623.0</ele><time>2026-04-11T14:27:51.999Z</time></trkpt><trkpt lat="44.45925538888543" lon="10.430156337987182"><ele>623.1999999999999</ele><time>2026-04-11T14:27:52.999Z</time></trkpt><trkpt lat="44.459153808036206" lon="10.430157339332055"><ele>623.4</ele><time>2026-04-11T14:27:53.999Z</time></trkpt><trkpt lat="44.45905466215569" lon="10.430142445451901"><ele>623.5999999999999</ele><time>2026-04-11T14:27:54.999Z</time></trkpt><trkpt lat="44.45895454844519" lon="10.430099688085015"><ele>623.8</ele><time>2026-04-11T14:27:55.999Z</time></trkpt><trkpt lat="44.45885863951926" lon="10.430043710688906"><ele>624.0</ele><time>2026-04-11T14:27:56.999Z</time></trkpt><trkpt lat="44.45876991955798" lon="10.429980927484277"><ele>623.6</ele><time>2026-04-11T14:27:57.999Z</time></trkpt><trkpt lat="44.45868651080575" lon="10.429908851018022"><ele>623.2</ele><time>2026-04-11T14:27:58.999Z</time></trkpt><trkpt lat="44.45860283463298" lon="10.429820579162985"><ele>622.8000000000001</ele><time>2026-04-11T14:27:59.999Z</time></trkpt><trkpt lat="44.45852208172905" lon="10.429719806342604"><ele>622.4</ele><time>2026-04-11T14:28:00.999Z</time></trkpt><trkpt lat="44.45844982937768" lon="10.429638632352162"><ele>622.0</ele><time>2026-04-11T14:28:01.999Z</time></trkpt><trkpt lat="44.45838204404147" lon="10.429585554129432"><ele>623.0</ele><time>2026-04-11T14:28:02.999Z</time></trkpt><trkpt lat="44.45831741034404" lon="10.429553018215135"><ele>624.0</ele><time>2026-04-11T14:28:03.999Z</time></trkpt><trkpt lat="44.45824305386305" lon="10.42954050773058"><ele>625.0</ele><time>2026-04-11T14:28:04.999Z</time></trkpt><trkpt lat="44.458152872699294" lon="10.429546498151668"><ele>626.0</ele><time>2026-04-11T14:28:05.999Z</time></trkpt><trkpt lat="44.458053201625354" lon="10.429555460649002"><ele>627.0</ele><time>2026-04-11T14:28:06.999Z</time></trkpt><trkpt lat="44.457957791356826" lon="10.42954859267307"><ele>628.0</ele><time>2026-04-11T14:28:07.999Z</time></trkpt><trkpt lat="44.4578607367195" lon="10.429546252005348"><ele>628.0</ele><time>2026-04-11T14:28:08.999Z</time></trkpt><trkpt lat="44.45776531008487" lon="10.429536947874825"><ele>628.0</ele><time>2026-04-11T14:28:09.999Z</time></trkpt><trkpt lat="44.457675344714126" lon="10.429514688883165"><ele>628.0</ele><time>2026-04-11T14:28:10.999Z</time></trkpt><trkpt lat="44.45758064260925" lon="10.429480741074197"><ele>628.0</ele><time>2026-04-11T14:28:11.999Z</time></trkpt><trkpt lat="44.4574952590055" lon="10.429443352372047"><ele>628.0</ele><time>2026-04-11T14:28:12.999Z</time></trkpt><trkpt lat="44.45741414385936" lon="10.429400138874717"><ele>628.0</ele><time>2026-04-11T14:28:13.999Z</time></trkpt><trkpt lat="44.4573324345257" lon="10.429358365397963"><ele>628.0</ele><time>2026-04-11T14:28:14.999Z</time></trkpt><trkpt lat="44.45725186214985" lon="10.429319645272056"><ele>628.0</ele><time>2026-04-11T14:28:15.999Z</time></trkpt><trkpt lat="44.457175833468945" lon="10.429281121677219"><ele>628.0</ele><time>2026-04-11T14:28:16.999Z</time></trkpt><trkpt lat="44.457109677596286" lon="10.42923806721014"><ele>628.0</ele><time>2026-04-11T14:28:17.999Z</time></trkpt><trkpt lat="44.45703804974955" lon="10.429193107967874"><ele>628.0</ele><time>2026-04-11T14:28:18.999Z</time></trkpt><trkpt lat="44.456957140187264" lon="10.429164435711224"><ele>627.0</ele><time>2026-04-11T14:28:19.999Z</time></trkpt><trkpt lat="44.456884448062745" lon="10.42915062962271"><ele>626.0</ele><time>2026-04-11T14:28:20.999Z</time></trkpt><trkpt lat="44.456771071960304" lon="10.429121371690405"><ele>625.0</ele><time>2026-04-11T14:28:22.999Z</time></trkpt><trkpt lat="44.456641421401876" lon="10.429075250608765"><ele>624.0</ele><time>2026-04-11T14:28:24.999Z</time></trkpt><trkpt lat="44.45656215634831" lon="10.429054635516337"><ele>623.0</ele><time>2026-04-11T14:28:25.999Z</time></trkpt><trkpt lat="44.456483839507825" lon="10.429034443064666"><ele>623.0</ele><time>2026-04-11T14:28:26.999Z</time></trkpt><trkpt lat="44.45640480875526" lon="10.429020966417816"><ele>623.0</ele><time>2026-04-11T14:28:27.999Z</time></trkpt><trkpt lat="44.45632619232324" lon="10.429007328068243"><ele>623.0</ele><time>2026-04-11T14:28:28.999Z</time></trkpt><trkpt lat="44.456244666455426" lon="10.428990448113098"><ele>623.0</ele><time>2026-04-11T14:28:29.999Z</time></trkpt><trkpt lat="44.45616533456376" lon="10.428970890361203"><ele>623.0</ele><time>2026-04-11T14:28:30.999Z</time></trkpt><trkpt lat="44.4560831329212" lon="10.428953784266836"><ele>623.0</ele><time>2026-04-11T14:28:31.999Z</time></trkpt><trkpt lat="44.45600285722012" lon="10.428926856002622"><ele>624.0</ele><time>2026-04-11T14:28:32.999Z</time></trkpt><trkpt lat="44.45591491643715" lon="10.428896812223956"><ele>625.0</ele><time>2026-04-11T14:28:33.999Z</time></trkpt><trkpt lat="44.45583398058964" lon="10.42886463343496"><ele>626.0</ele><time>2026-04-11T14:28:34.999Z</time></trkpt><trkpt lat="44.45576715570544" lon="10.428812381230395"><ele>627.0</ele><time>2026-04-11T14:28:35.999Z</time></trkpt><trkpt lat="44.45571459989387" lon="10.428732536014177"><ele>628.0</ele><time>2026-04-11T14:28:36.999Z</time></trkpt><trkpt lat="44.45567342104268" lon="10.42862510687959"><ele>629.0</ele><time>2026-04-11T14:28:37.999Z</time></trkpt><trkpt lat="44.455649765242406" lon="10.428495315702424"><ele>629.0</ele><time>2026-04-11T14:28:38.999Z</time></trkpt><trkpt lat="44.45562984231308" lon="10.428344022748368"><ele>629.0</ele><time>2026-04-11T14:28:39.999Z</time></trkpt><trkpt lat="44.45560836866367" lon="10.428208057226014"><ele>629.0</ele><time>2026-04-11T14:28:40.999Z</time></trkpt><trkpt lat="44.45557725900771" lon="10.428074531571001"><ele>629.0</ele><time>2026-04-11T14:28:41.999Z</time></trkpt><trkpt lat="44.455559544357826" lon="10.427945342241555"><ele>629.0</ele><time>2026-04-11T14:28:42.999Z</time></trkpt><trkpt lat="44.45551772639448" lon="10.427809851319141"><ele>628.0</ele><time>2026-04-11T14:28:43.999Z</time></trkpt><trkpt lat="44.45547751595866" lon="10.427666690964715"><ele>627.0</ele><time>2026-04-11T14:28:44.999Z</time></trkpt><trkpt lat="44.455443969182134" lon="10.427531992730682"><ele>626.0</ele><time>2026-04-11T14:28:45.999Z</time></trkpt><trkpt lat="44.45542416184314" lon="10.427425204941178"><ele>625.0</ele><time>2026-04-11T14:28:46.999Z</time></trkpt><trkpt lat="44.455421382664184" lon="10.427311573361482"><ele>624.0</ele><time>2026-04-11T14:28:47.999Z</time></trkpt><trkpt lat="44.45542406227573" lon="10.427174299245133"><ele>629.0</ele><time>2026-04-11T14:28:48.999Z</time></trkpt><trkpt lat="44.45542737255306" lon="10.427026165809124"><ele>634.0</ele><time>2026-04-11T14:28:49.999Z</time></trkpt><trkpt lat="44.455416553973585" lon="10.426898917218534"><ele>639.0</ele><time>2026-04-11T14:28:50.999Z</time></trkpt><trkpt lat="44.45538609985897" lon="10.426791890039857"><ele>644.0</ele><time>2026-04-11T14:28:51.999Z</time></trkpt><trkpt lat="44.45535083822251" lon="10.42670806772178"><ele>649.0</ele><time>2026-04-11T14:28:52.999Z</time></trkpt><trkpt lat="44.45529513600947" lon="10.426609507225008"><ele>654.0</ele><time>2026-04-11T14:28:53.999Z</time></trkpt><trkpt lat="44.455233840700494" lon="10.426529930268886"><ele>654.0</ele><time>2026-04-11T14:28:54.999Z</time></trkpt><trkpt lat="44.45516295354595" lon="10.426470185262591"><ele>654.0</ele><time>2026-04-11T14:28:55.999Z</time></trkpt><trkpt lat="44.455075797047975" lon="10.426433354812287"><ele>654.0</ele><time>2026-04-11T14:28:56.999Z</time></trkpt><trkpt lat="44.45498473226628" lon="10.42642124575657"><ele>654.0</ele><time>2026-04-11T14:28:57.999Z</time></trkpt><trkpt lat="44.45490455782285" lon="10.426399963708013"><ele>654.0</ele><time>2026-04-11T14:28:58.999Z</time></trkpt><trkpt lat="44.45481415186146" lon="10.426412153942518"><ele>654.0</ele><time>2026-04-11T14:28:59.999Z</time></trkpt><trkpt lat="44.45473120534292" lon="10.426451915982609"><ele>654.0</ele><time>2026-04-11T14:29:00.999Z</time></trkpt><trkpt lat="44.45466060032192" lon="10.426462016094721"><ele>654.0</ele><time>2026-04-11T14:29:01.999Z</time></trkpt><trkpt lat="44.45458911501789" lon="10.426485104264879"><ele>654.0</ele><time>2026-04-11T14:29:02.999Z</time></trkpt><trkpt lat="44.45451487769133" lon="10.426513574514884"><ele>654.0</ele><time>2026-04-11T14:29:05.999Z</time></trkpt><trkpt lat="44.454399757780834" lon="10.426593365920278"><ele>654.0</ele><time>2026-04-11T14:32:43Z</time></trkpt><trkpt lat="44.454327552458686" lon="10.426647481073068"><ele>654.0</ele><time>2026-04-11T14:32:44Z</time></trkpt><trkpt lat="44.45426778133868" lon="10.426700024999244"><ele>653.5714285714286</ele><time>2026-04-11T14:32:45Z</time></trkpt><trkpt lat="44.454213350186755" lon="10.426760340235655"><ele>653.1428571428571</ele><time>2026-04-11T14:32:46Z</time></trkpt><trkpt lat="44.45414447188175" lon="10.426795036422737"><ele>652.7142857142858</ele><time>2026-04-11T14:32:47Z</time></trkpt><trkpt lat="44.45408658184596" lon="10.426846420205734"><ele>652.2857142857142</ele><time>2026-04-11T14:32:48Z</time></trkpt><trkpt lat="44.454027835226064" lon="10.426914007035656"><ele>651.8571428571429</ele><time>2026-04-11T14:32:49Z</time></trkpt><trkpt lat="44.45396676996659" lon="10.426948996509243"><ele>651.4285714285714</ele><time>2026-04-11T14:32:50Z</time></trkpt><trkpt lat="44.453897443708726" lon="10.426987919741332"><ele>651.0</ele><time>2026-04-11T14:32:51Z</time></trkpt><trkpt lat="44.453826269505946" lon="10.427028775276142"><ele>649.3333333333334</ele><time>2026-04-11T14:32:52Z</time></trkpt><trkpt lat="44.453764300529556" lon="10.427074094315204"><ele>647.6666666666666</ele><time>2026-04-11T14:32:53Z</time></trkpt><trkpt lat="44.45369785909377" lon="10.427131043453011"><ele>646.0</ele><time>2026-04-11T14:32:54Z</time></trkpt><trkpt lat="44.45362399759921" lon="10.427201397467385"><ele>644.3333333333333</ele><time>2026-04-11T14:32:55Z</time></trkpt><trkpt lat="44.45354174066322" lon="10.42728055322569"><ele>642.6666666666666</ele><time>2026-04-11T14:32:56Z</time></trkpt><trkpt lat="44.45345404320788" lon="10.427352047694239"><ele>641.0</ele><time>2026-04-11T14:32:57Z</time></trkpt><trkpt lat="44.453350792170546" lon="10.427401141657484"><ele>645.1666666666666</ele><time>2026-04-11T14:32:58Z</time></trkpt><trkpt lat="44.45325917881053" lon="10.427426855084894"><ele>649.3333333333333</ele><time>2026-04-11T14:32:59Z</time></trkpt><trkpt lat="44.453167465597495" lon="10.427424579076048"><ele>653.5</ele><time>2026-04-11T14:33:00Z</time></trkpt><trkpt lat="44.453088464249646" lon="10.427438890286462"><ele>657.6666666666666</ele><time>2026-04-11T14:33:01Z</time></trkpt><trkpt lat="44.45300188631834" lon="10.427455629475414"><ele>661.8333333333334</ele><time>2026-04-11T14:33:02Z</time></trkpt><trkpt lat="44.45292257914816" lon="10.427476791691634"><ele>666.0</ele><time>2026-04-11T14:33:03Z</time></trkpt><trkpt lat="44.452844118972855" lon="10.427497843589595"><ele>666.0</ele><time>2026-04-11T14:33:04Z</time></trkpt><trkpt lat="44.45277216723206" lon="10.427533790300389"><ele>666.0</ele><time>2026-04-11T14:33:05Z</time></trkpt><trkpt lat="44.452693901899046" lon="10.427551733244083"><ele>666.0</ele><time>2026-04-11T14:33:06Z</time></trkpt><trkpt lat="44.45261648068825" lon="10.427567901657415"><ele>666.0</ele><time>2026-04-11T14:33:07Z</time></trkpt><trkpt lat="44.45254681491424" lon="10.427581791303037"><ele>666.0</ele><time>2026-04-11T14:33:08Z</time></trkpt><trkpt lat="44.45247541389755" lon="10.427597538011675"><ele>666.0</ele><time>2026-04-11T14:33:09Z</time></trkpt><trkpt lat="44.452398468094295" lon="10.427623285970768"><ele>666.0</ele><time>2026-04-11T14:33:10Z</time></trkpt><trkpt lat="44.45232382806017" lon="10.427644954262336"><ele>666.0</ele><time>2026-04-11T14:33:11Z</time></trkpt><trkpt lat="44.45224332526206" lon="10.427670805909667"><ele>666.0</ele><time>2026-04-11T14:33:12Z</time></trkpt><trkpt lat="44.4521600353398" lon="10.42767653160213"><ele>666.0</ele><time>2026-04-11T14:33:13Z</time></trkpt><trkpt lat="44.45208416942766" lon="10.427683956747906"><ele>666.0</ele><time>2026-04-11T14:33:14Z</time></trkpt><trkpt lat="44.45202418982706" lon="10.427645224533052"><ele>666.0</ele><time>2026-04-11T14:33:15Z</time></trkpt><trkpt lat="44.45195508124142" lon="10.427590005790302"><ele>667.3333333333334</ele><time>2026-04-11T14:33:16Z</time></trkpt><trkpt lat="44.45189093107873" lon="10.427517628280384"><ele>668.6666666666666</ele><time>2026-04-11T14:33:17Z</time></trkpt><trkpt lat="44.45182742394435" lon="10.427439788206057"><ele>670.0</ele><time>2026-04-11T14:33:18Z</time></trkpt><trkpt lat="44.45175862545352" lon="10.427361031503064"><ele>671.3333333333333</ele><time>2026-04-11T14:33:19Z</time></trkpt><trkpt lat="44.4516850093308" lon="10.427288842969864"><ele>672.6666666666666</ele><time>2026-04-11T14:33:20Z</time></trkpt><trkpt lat="44.45160220814156" lon="10.427232398310549"><ele>674.0</ele><time>2026-04-11T14:33:21.001Z</time></trkpt><trkpt lat="44.45151926579056" lon="10.427177128509202"><ele>674.0</ele><time>2026-04-11T14:33:22.001Z</time></trkpt><trkpt lat="44.4514354868374" lon="10.42711890912897"><ele>674.0</ele><time>2026-04-11T14:33:23.001Z</time></trkpt><trkpt lat="44.451350448274354" lon="10.427050804563738"><ele>674.0</ele><time>2026-04-11T14:33:24.001Z</time></trkpt><trkpt lat="44.45128134877308" lon="10.4270114308125"><ele>674.0</ele><time>2026-04-11T14:33:25.001Z</time></trkpt><trkpt lat="44.45123605950339" lon="10.426927775362266"><ele>674.0</ele><time>2026-04-11T14:33:26.001Z</time></trkpt><trkpt lat="44.451247739255194" lon="10.426807526949519"><ele>674.0</ele><time>2026-04-11T14:33:27.001Z</time></trkpt><trkpt lat="44.45126871288656" lon="10.426709880456249"><ele>674.0</ele><time>2026-04-11T14:33:28.001Z</time></trkpt><trkpt lat="44.45128886077028" lon="10.426600552612815"><ele>674.0</ele><time>2026-04-11T14:33:29.001Z</time></trkpt><trkpt lat="44.451305899843746" lon="10.42650850796128"><ele>674.0</ele><time>2026-04-11T14:33:30.001Z</time></trkpt><trkpt lat="44.451335384227995" lon="10.426374696419888"><ele>674.0</ele><time>2026-04-11T14:33:32.001Z</time></trkpt><trkpt lat="44.451327940243374" lon="10.426249820324522"><ele>674.0</ele><time>2026-04-11T14:33:34.001Z</time></trkpt><trkpt lat="44.45128870046443" lon="10.426107081611582"><ele>674.0</ele><time>2026-04-11T14:33:36.001Z</time></trkpt><trkpt lat="44.45118064121554" lon="10.426062589821372"><ele>673.4000000000001</ele><time>2026-04-11T14:33:38.001Z</time></trkpt><trkpt lat="44.45110011646159" lon="10.426081537923837"><ele>672.8</ele><time>2026-04-11T14:33:39.001Z</time></trkpt><trkpt lat="44.45099705655867" lon="10.42606352966726"><ele>672.2</ele><time>2026-04-11T14:33:40.001Z</time></trkpt><trkpt lat="44.450890104423095" lon="10.426061118674626"><ele>671.5999999999999</ele><time>2026-04-11T14:33:41Z</time></trkpt><trkpt lat="44.45079075574053" lon="10.426059101670088"><ele>671.0</ele><time>2026-04-11T14:33:42Z</time></trkpt><trkpt lat="44.45069395988262" lon="10.426058227389749"><ele>671.0</ele><time>2026-04-11T14:33:43Z</time></trkpt><trkpt lat="44.450615170840905" lon="10.426079108556076"><ele>671.0</ele><time>2026-04-11T14:33:44Z</time></trkpt><trkpt lat="44.450532892093946" lon="10.426070681278121"><ele>671.0</ele><time>2026-04-11T14:33:45Z</time></trkpt><trkpt lat="44.450447944131625" lon="10.426075786970173"><ele>671.0</ele><time>2026-04-11T14:33:46Z</time></trkpt><trkpt lat="44.45037126301911" lon="10.42607717398624"><ele>671.0</ele><time>2026-04-11T14:33:47Z</time></trkpt><trkpt lat="44.45030557373419" lon="10.426070928235637"><ele>671.0</ele><time>2026-04-11T14:33:48Z</time></trkpt><trkpt lat="44.45020383632774" lon="10.42606851737903"><ele>669.5</ele><time>2026-04-11T14:33:50Z</time></trkpt><trkpt lat="44.450101831294866" lon="10.426021217373046"><ele>668.0</ele><time>2026-04-11T14:33:52Z</time></trkpt><trkpt lat="44.45003200685743" lon="10.426057242066715"><ele>666.5</ele><time>2026-04-11T14:33:53Z</time></trkpt><trkpt lat="44.44996168678922" lon="10.426063607936863"><ele>665.0</ele><time>2026-04-11T14:33:54Z</time></trkpt><trkpt lat="44.449873150864796" lon="10.426067738746491"><ele>663.5</ele><time>2026-04-11T14:33:55Z</time></trkpt><trkpt lat="44.44978014985501" lon="10.426064667757384"><ele>662.0</ele><time>2026-04-11T14:33:56Z</time></trkpt><trkpt lat="44.449675749686875" lon="10.426066025383179"><ele>661.8</ele><time>2026-04-11T14:33:57Z</time></trkpt><trkpt lat="44.449567104503586" lon="10.426069578852083"><ele>661.6</ele><time>2026-04-11T14:33:58Z</time></trkpt><trkpt lat="44.449459383849835" lon="10.426067152123656"><ele>661.4</ele><time>2026-04-11T14:33:59Z</time></trkpt><trkpt lat="44.44935113775865" lon="10.426052744126812"><ele>661.1999999999999</ele><time>2026-04-11T14:34:00Z</time></trkpt><trkpt lat="44.44925835128741" lon="10.425994963767256"><ele>661.0</ele><time>2026-04-11T14:34:01Z</time></trkpt><trkpt lat="44.44915358105354" lon="10.42594312317541"><ele>661.0</ele><time>2026-04-11T14:34:02Z</time></trkpt><trkpt lat="44.44903577546835" lon="10.42589554815046"><ele>661.0</ele><time>2026-04-11T14:34:03Z</time></trkpt><trkpt lat="44.44892447537787" lon="10.42582807428819"><ele>661.0</ele><time>2026-04-11T14:34:04Z</time></trkpt><trkpt lat="44.448822631246614" lon="10.425774387229556"><ele>661.0</ele><time>2026-04-11T14:34:05Z</time></trkpt><trkpt lat="44.44872085453079" lon="10.425732880193953"><ele>662.8</ele><time>2026-04-11T14:34:06Z</time></trkpt><trkpt lat="44.44862350768629" lon="10.425714910102409"><ele>664.5999999999999</ele><time>2026-04-11T14:34:07Z</time></trkpt><trkpt lat="44.44853519914782" lon="10.425708545572533"><ele>666.4</ele><time>2026-04-11T14:34:08Z</time></trkpt><trkpt lat="44.4484411594666" lon="10.425717434024916"><ele>668.2</ele><time>2026-04-11T14:34:09Z</time></trkpt><trkpt lat="44.44834491726456" lon="10.425721555958736"><ele>670.0</ele><time>2026-04-11T14:34:10Z</time></trkpt><trkpt lat="44.448248140117386" lon="10.425741006943584"><ele>670.0</ele><time>2026-04-11T14:34:11Z</time></trkpt><trkpt lat="44.448156470515436" lon="10.42576885080402"><ele>670.0</ele><time>2026-04-11T14:34:12Z</time></trkpt><trkpt lat="44.44807876142974" lon="10.425801308419457"><ele>670.0</ele><time>2026-04-11T14:34:13Z</time></trkpt><trkpt lat="44.44800996929303" lon="10.425858062675603"><ele>670.0</ele><time>2026-04-11T14:34:14Z</time></trkpt><trkpt lat="44.44794108378828" lon="10.425936957198157"><ele>670.0</ele><time>2026-04-11T14:34:15Z</time></trkpt><trkpt lat="44.447869870431354" lon="10.42602828703396"><ele>670.0</ele><time>2026-04-11T14:34:16Z</time></trkpt><trkpt lat="44.44780278569035" lon="10.426096602726528"><ele>671.0</ele><time>2026-04-11T14:34:17Z</time></trkpt><trkpt lat="44.44771743814926" lon="10.426136203922539"><ele>672.0</ele><time>2026-04-11T14:34:18Z</time></trkpt><trkpt lat="44.447616233532415" lon="10.426193468198473"><ele>673.0</ele><time>2026-04-11T14:34:19Z</time></trkpt><trkpt lat="44.4475081561756" lon="10.426227758448748"><ele>674.0</ele><time>2026-04-11T14:34:20Z</time></trkpt><trkpt lat="44.44740091544686" lon="10.426291242743082"><ele>675.0</ele><time>2026-04-11T14:34:21Z</time></trkpt><trkpt lat="44.447282190027714" lon="10.42633015601904"><ele>675.0</ele><time>2026-04-11T14:34:22Z</time></trkpt><trkpt lat="44.447162047208224" lon="10.426374096401423"><ele>675.0</ele><time>2026-04-11T14:34:23Z</time></trkpt><trkpt lat="44.44704544538942" lon="10.426424653250335"><ele>675.0</ele><time>2026-04-11T14:34:24Z</time></trkpt><trkpt lat="44.446933909869486" lon="10.426485658312872"><ele>675.0</ele><time>2026-04-11T14:34:25Z</time></trkpt><trkpt lat="44.446836008738785" lon="10.42654503836292"><ele>672.4</ele><time>2026-04-11T14:34:26Z</time></trkpt><trkpt lat="44.44673306827246" lon="10.426591753722484"><ele>669.8</ele><time>2026-04-11T14:34:27Z</time></trkpt><trkpt lat="44.446640096442025" lon="10.42664628838445"><ele>667.2</ele><time>2026-04-11T14:34:28Z</time></trkpt><trkpt lat="44.44655108344837" lon="10.426683385671538"><ele>664.6</ele><time>2026-04-11T14:34:29Z</time></trkpt><trkpt lat="44.44647007530036" lon="10.426722021482524"><ele>662.0</ele><time>2026-04-11T14:34:30Z</time></trkpt><trkpt lat="44.44639225902152" lon="10.426758893718574"><ele>662.0</ele><time>2026-04-11T14:34:31Z</time></trkpt><trkpt lat="44.44632360389457" lon="10.426791182392343"><ele>662.0</ele><time>2026-04-11T14:34:32Z</time></trkpt><trkpt lat="44.44624174024628" lon="10.42683591803162"><ele>662.0</ele><time>2026-04-11T14:34:33Z</time></trkpt><trkpt lat="44.44616289971229" lon="10.426885456121912"><ele>662.0</ele><time>2026-04-11T14:34:34Z</time></trkpt><trkpt lat="44.44608194827131" lon="10.426938263945434"><ele>662.0</ele><time>2026-04-11T14:34:35Z</time></trkpt><trkpt lat="44.446005715935456" lon="10.426997411995535"><ele>662.0</ele><time>2026-04-11T14:34:36Z</time></trkpt><trkpt lat="44.445927806391836" lon="10.427061070748051"><ele>662.1666666666666</ele><time>2026-04-11T14:34:37Z</time></trkpt><trkpt lat="44.44585246687392" lon="10.427117452448554"><ele>662.3333333333333</ele><time>2026-04-11T14:34:38Z</time></trkpt><trkpt lat="44.44576993461931" lon="10.427155083680603"><ele>662.5</ele><time>2026-04-11T14:34:39Z</time></trkpt><trkpt lat="44.445688419138" lon="10.427186539781246"><ele>662.6666666666666</ele><time>2026-04-11T14:34:40Z</time></trkpt><trkpt lat="44.445601931066335" lon="10.427184570782968"><ele>662.8333333333334</ele><time>2026-04-11T14:34:41Z</time></trkpt><trkpt lat="44.44550761038931" lon="10.427168390914622"><ele>663.0</ele><time>2026-04-11T14:34:42Z</time></trkpt><trkpt lat="44.44541292480341" lon="10.427132715873645"><ele>663.0</ele><time>2026-04-11T14:34:43Z</time></trkpt><trkpt lat="44.44532735761134" lon="10.427078853809236"><ele>663.0</ele><time>2026-04-11T14:34:44Z</time></trkpt><trkpt lat="44.445239802724664" lon="10.42703922626895"><ele>663.0</ele><time>2026-04-11T14:34:45Z</time></trkpt><trkpt lat="44.44516033870352" lon="10.427010863253754"><ele>663.0</ele><time>2026-04-11T14:34:46Z</time></trkpt><trkpt lat="44.44505770586951" lon="10.427008222293328"><ele>663.0</ele><time>2026-04-11T14:34:47Z</time></trkpt><trkpt lat="44.44494414589741" lon="10.427033712860577"><ele>665.75</ele><time>2026-04-11T14:34:48Z</time></trkpt><trkpt lat="44.44485765993137" lon="10.427172862756318"><ele>668.5</ele><time>2026-04-11T14:34:49Z</time></trkpt><trkpt lat="44.444777499350806" lon="10.427283313278762"><ele>671.25</ele><time>2026-04-11T14:34:50Z</time></trkpt><trkpt lat="44.44468592763688" lon="10.427374474645486"><ele>674.0</ele><time>2026-04-11T14:34:51Z</time></trkpt><trkpt lat="44.444604218167896" lon="10.427477070601734"><ele>674.0</ele><time>2026-04-11T14:34:52Z</time></trkpt><trkpt lat="44.444523161096534" lon="10.427579021846263"><ele>674.0</ele><time>2026-04-11T14:34:53Z</time></trkpt><trkpt lat="44.444452536184436" lon="10.427663610075374"><ele>674.0</ele><time>2026-04-11T14:34:54Z</time></trkpt><trkpt lat="44.44437048706936" lon="10.427743097535068"><ele>674.0</ele><time>2026-04-11T14:34:55Z</time></trkpt><trkpt lat="44.44427846306321" lon="10.427824458296216"><ele>674.0</ele><time>2026-04-11T14:34:56Z</time></trkpt><trkpt lat="44.4441939784995" lon="10.427902034286712"><ele>674.0</ele><time>2026-04-11T14:34:57Z</time></trkpt><trkpt lat="44.4441224900512" lon="10.42797531591649"><ele>674.0</ele><time>2026-04-11T14:34:58Z</time></trkpt><trkpt lat="44.44407933854566" lon="10.428070721625518"><ele>674.0</ele><time>2026-04-11T14:34:59Z</time></trkpt><trkpt lat="44.444005092699534" lon="10.42815610658439"><ele>674.0</ele><time>2026-04-11T14:35:00Z</time></trkpt><trkpt lat="44.443932264176574" lon="10.428289455356108"><ele>674.0</ele><time>2026-04-11T14:35:01Z</time></trkpt><trkpt lat="44.443864757495774" lon="10.428429647349045"><ele>673.25</ele><time>2026-04-11T14:35:02Z</time></trkpt><trkpt lat="44.443800308988834" lon="10.428581699409479"><ele>672.5</ele><time>2026-04-11T14:35:03Z</time></trkpt><trkpt lat="44.443749362446255" lon="10.428713602239142"><ele>671.75</ele><time>2026-04-11T14:35:04Z</time></trkpt><trkpt lat="44.44368929025901" lon="10.428871910159371"><ele>671.0</ele><time>2026-04-11T14:35:05Z</time></trkpt><trkpt lat="44.443625686843404" lon="10.429016748086072"><ele>671.0</ele><time>2026-04-11T14:35:06Z</time></trkpt><trkpt lat="44.44356721845024" lon="10.429154803563929"><ele>671.0</ele><time>2026-04-11T14:35:07Z</time></trkpt><trkpt lat="44.44350361870898" lon="10.429298511543552"><ele>671.0</ele><time>2026-04-11T14:35:08Z</time></trkpt><trkpt lat="44.443438172690755" lon="10.429454439550337"><ele>671.0</ele><time>2026-04-11T14:35:09Z</time></trkpt><trkpt lat="44.44337077244919" lon="10.429598415923502"><ele>672.0</ele><time>2026-04-11T14:35:10Z</time></trkpt><trkpt lat="44.44330962028317" lon="10.429726473466161"><ele>673.0</ele><time>2026-04-11T14:35:11Z</time></trkpt><trkpt lat="44.44324612475856" lon="10.429867801958645"><ele>674.0</ele><time>2026-04-11T14:35:12Z</time></trkpt><trkpt lat="44.44318681433955" lon="10.43001708751832"><ele>675.0</ele><time>2026-04-11T14:35:13Z</time></trkpt><trkpt lat="44.443126544082524" lon="10.43016739895203"><ele>675.0</ele><time>2026-04-11T14:35:14Z</time></trkpt><trkpt lat="44.44306192040856" lon="10.430302299660694"><ele>675.0</ele><time>2026-04-11T14:35:15Z</time></trkpt><trkpt lat="44.44299489426959" lon="10.430444445789778"><ele>675.0</ele><time>2026-04-11T14:35:16Z</time></trkpt><trkpt lat="44.44293082878969" lon="10.430583842016175"><ele>675.0</ele><time>2026-04-11T14:35:17Z</time></trkpt><trkpt lat="44.44285544252055" lon="10.430712416918254"><ele>673.0</ele><time>2026-04-11T14:35:18Z</time></trkpt><trkpt lat="44.44278185560473" lon="10.430839536207877"><ele>671.0</ele><time>2026-04-11T14:35:19Z</time></trkpt><trkpt lat="44.442701185310064" lon="10.430975737143264"><ele>669.0</ele><time>2026-04-11T14:35:20Z</time></trkpt><trkpt lat="44.44262309533545" lon="10.431101375138105"><ele>667.0</ele><time>2026-04-11T14:35:21Z</time></trkpt><trkpt lat="44.44254493741974" lon="10.43122160002835"><ele>667.0</ele><time>2026-04-11T14:35:22Z</time></trkpt><trkpt lat="44.442435511235665" lon="10.43130049470374"><ele>667.0</ele><time>2026-04-11T14:35:22.999Z</time></trkpt><trkpt lat="44.44231601129769" lon="10.43139020049314"><ele>667.0</ele><time>2026-04-11T14:35:23.999Z</time></trkpt><trkpt lat="44.442204088367404" lon="10.43148906870009"><ele>667.0</ele><time>2026-04-11T14:35:24.999Z</time></trkpt><trkpt lat="44.44210552850871" lon="10.43156755256406"><ele>668.6</ele><time>2026-04-11T14:35:25.999Z</time></trkpt><trkpt lat="44.44200177358355" lon="10.431628343386103"><ele>670.2</ele><time>2026-04-11T14:35:27Z</time></trkpt><trkpt lat="44.44189827036348" lon="10.431678725115928"><ele>671.8</ele><time>2026-04-11T14:35:28Z</time></trkpt><trkpt lat="44.441801374220255" lon="10.43172286051804"><ele>673.4</ele><time>2026-04-11T14:35:29Z</time></trkpt><trkpt lat="44.44168972311436" lon="10.431745155447594"><ele>675.0</ele><time>2026-04-11T14:35:30Z</time></trkpt><trkpt lat="44.4415665897212" lon="10.431701683783748"><ele>675.0</ele><time>2026-04-11T14:35:31Z</time></trkpt><trkpt lat="44.441447670058736" lon="10.431612982512455"><ele>675.0</ele><time>2026-04-11T14:35:32Z</time></trkpt><trkpt lat="44.44136707250259" lon="10.431489524006889"><ele>675.0</ele><time>2026-04-11T14:35:33Z</time></trkpt><trkpt lat="44.441271747826576" lon="10.431410762101653"><ele>675.0</ele><time>2026-04-11T14:35:34Z</time></trkpt><trkpt lat="44.44115893619244" lon="10.431360880837456"><ele>676.25</ele><time>2026-04-11T14:35:35Z</time></trkpt><trkpt lat="44.44104057360328" lon="10.431343855526547"><ele>677.5</ele><time>2026-04-11T14:35:36Z</time></trkpt><trkpt lat="44.44091227662406" lon="10.431350794560345"><ele>678.75</ele><time>2026-04-11T14:35:37Z</time></trkpt><trkpt lat="44.44078676134552" lon="10.431361921188687"><ele>680.0</ele><time>2026-04-11T14:35:38Z</time></trkpt><trkpt lat="44.44067721704195" lon="10.43136896919655"><ele>680.0</ele><time>2026-04-11T14:35:39Z</time></trkpt><trkpt lat="44.44057717482821" lon="10.431372290036942"><ele>680.0</ele><time>2026-04-11T14:35:40Z</time></trkpt><trkpt lat="44.44049154663104" lon="10.431374106611432"><ele>680.0</ele><time>2026-04-11T14:35:41Z</time></trkpt><trkpt lat="44.44042202497558" lon="10.431355436707843"><ele>680.0</ele><time>2026-04-11T14:35:42Z</time></trkpt><trkpt lat="44.44033155518095" lon="10.431336149469402"><ele>680.0</ele><time>2026-04-11T14:35:43Z</time></trkpt><trkpt lat="44.44022217184612" lon="10.43133023776098"><ele>679.75</ele><time>2026-04-11T14:35:44Z</time></trkpt><trkpt lat="44.4400947025621" lon="10.431328442719392"><ele>679.5</ele><time>2026-04-11T14:35:45Z</time></trkpt><trkpt lat="44.439958455248515" lon="10.431322916533867"><ele>679.25</ele><time>2026-04-11T14:35:46Z</time></trkpt><trkpt lat="44.43981931503675" lon="10.431317240793677"><ele>679.0</ele><time>2026-04-11T14:35:47Z</time></trkpt><trkpt lat="44.439675117053774" lon="10.431313036910295"><ele>678.5</ele><time>2026-04-11T14:35:48Z</time></trkpt><trkpt lat="44.439532480133224" lon="10.43130894881693"><ele>678.0</ele><time>2026-04-11T14:35:49Z</time></trkpt><trkpt lat="44.439403264293794" lon="10.431302725390427"><ele>677.5</ele><time>2026-04-11T14:35:50Z</time></trkpt><trkpt lat="44.43928496140989" lon="10.431296493072448"><ele>677.0</ele><time>2026-04-11T14:35:51Z</time></trkpt><trkpt lat="44.43916475924784" lon="10.43129205162095"><ele>675.0</ele><time>2026-04-11T14:35:52Z</time></trkpt><trkpt lat="44.43904227868721" lon="10.431296151098765"><ele>673.0</ele><time>2026-04-11T14:35:53Z</time></trkpt><trkpt lat="44.43890983487528" lon="10.431292395485041"><ele>671.0</ele><time>2026-04-11T14:35:54Z</time></trkpt><trkpt lat="44.438769808174484" lon="10.43128147780261"><ele>669.0</ele><time>2026-04-11T14:35:55Z</time></trkpt><trkpt lat="44.438632464183385" lon="10.431280064843708"><ele>669.0</ele><time>2026-04-11T14:35:56Z</time></trkpt><trkpt lat="44.43850484351385" lon="10.43127729624941"><ele>669.0</ele><time>2026-04-11T14:35:57Z</time></trkpt><trkpt lat="44.43838061622999" lon="10.43124731348979"><ele>669.0</ele><time>2026-04-11T14:35:58Z</time></trkpt><trkpt lat="44.43826253641729" lon="10.431182558746393"><ele>669.0</ele><time>2026-04-11T14:35:59Z</time></trkpt><trkpt lat="44.43814772015669" lon="10.43110718732199"><ele>669.0</ele><time>2026-04-11T14:36:00Z</time></trkpt><trkpt lat="44.438028554426964" lon="10.431036187088967"><ele>669.0</ele><time>2026-04-11T14:36:01Z</time></trkpt><trkpt lat="44.437915768623995" lon="10.430966623613172"><ele>669.0</ele><time>2026-04-11T14:36:02Z</time></trkpt><trkpt lat="44.437805110253144" lon="10.430897755045365"><ele>669.0</ele><time>2026-04-11T14:36:03Z</time></trkpt><trkpt lat="44.43770171176186" lon="10.4308366497841"><ele>669.8333333333334</ele><time>2026-04-11T14:36:04Z</time></trkpt><trkpt lat="44.43761315028102" lon="10.430786478750147"><ele>670.6666666666666</ele><time>2026-04-11T14:36:05Z</time></trkpt><trkpt lat="44.4375412480827" lon="10.430751115427674"><ele>671.5</ele><time>2026-04-11T14:36:06Z</time></trkpt><trkpt lat="44.43747601492692" lon="10.430727558475441"><ele>672.3333333333333</ele><time>2026-04-11T14:36:07Z</time></trkpt><trkpt lat="44.437414209431495" lon="10.430695377232082"><ele>673.1666666666666</ele><time>2026-04-11T14:36:08Z</time></trkpt><trkpt lat="44.437355987731884" lon="10.430634029795232"><ele>674.0</ele><time>2026-04-11T14:36:09Z</time></trkpt><trkpt lat="44.43732549115073" lon="10.430518255328044"><ele>673.2</ele><time>2026-04-11T14:36:10Z</time></trkpt><trkpt lat="44.437292732549416" lon="10.43041336624715"><ele>672.4000000000001</ele><time>2026-04-11T14:36:11Z</time></trkpt><trkpt lat="44.43725696421013" lon="10.430307740578119"><ele>671.6</ele><time>2026-04-11T14:36:12Z</time></trkpt><trkpt lat="44.437210112868" lon="10.43018190743963"><ele>670.8</ele><time>2026-04-11T14:36:13Z</time></trkpt><trkpt lat="44.4371413029762" lon="10.430062668311345"><ele>670.0</ele><time>2026-04-11T14:36:14Z</time></trkpt><trkpt lat="44.437090043530766" lon="10.429929559839922"><ele>669.8</ele><time>2026-04-11T14:36:15Z</time></trkpt><trkpt lat="44.43703296509483" lon="10.429804778725503"><ele>669.6</ele><time>2026-04-11T14:36:16Z</time></trkpt><trkpt lat="44.43698369501368" lon="10.42967548353551"><ele>669.4000000000001</ele><time>2026-04-11T14:36:17Z</time></trkpt><trkpt lat="44.43694081865592" lon="10.429552709024598"><ele>669.2</ele><time>2026-04-11T14:36:18Z</time></trkpt><trkpt lat="44.43692418332923" lon="10.4294107167883"><ele>669.0</ele><time>2026-04-11T14:36:19Z</time></trkpt><trkpt lat="44.436908596876144" lon="10.429265478747357"><ele>669.0</ele><time>2026-04-11T14:36:20Z</time></trkpt><trkpt lat="44.43689695325878" lon="10.429106121831405"><ele>669.0</ele><time>2026-04-11T14:36:21Z</time></trkpt><trkpt lat="44.436896106128735" lon="10.428899063722765"><ele>669.0</ele><time>2026-04-11T14:36:23Z</time></trkpt><trkpt lat="44.436895359974955" lon="10.428729794482459"><ele>669.0</ele><time>2026-04-11T14:36:24Z</time></trkpt><trkpt lat="44.436894494492506" lon="10.428556379409667"><ele>669.0</ele><time>2026-04-11T14:36:25Z</time></trkpt><trkpt lat="44.436893248252886" lon="10.42840105976393"><ele>669.0</ele><time>2026-04-11T14:36:26Z</time></trkpt><trkpt lat="44.43687296761231" lon="10.428250999959463"><ele>669.0</ele><time>2026-04-11T14:36:27Z</time></trkpt><trkpt lat="44.43686304049846" lon="10.42810225564318"><ele>669.0</ele><time>2026-04-11T14:36:28Z</time></trkpt><trkpt lat="44.43686467379934" lon="10.42794448265552"><ele>669.0</ele><time>2026-04-11T14:36:29Z</time></trkpt><trkpt lat="44.436847684523705" lon="10.427781711677305"><ele>668.25</ele><time>2026-04-11T14:36:30Z</time></trkpt><trkpt lat="44.43681372367098" lon="10.427630759195893"><ele>667.5</ele><time>2026-04-11T14:36:31Z</time></trkpt><trkpt lat="44.43679417144555" lon="10.427467774341967"><ele>666.75</ele><time>2026-04-11T14:36:32Z</time></trkpt><trkpt lat="44.436773674311844" lon="10.427304900354928"><ele>666.0</ele><time>2026-04-11T14:36:33Z</time></trkpt><trkpt lat="44.43674101077355" lon="10.427161731458844"><ele>665.1999999999999</ele><time>2026-04-11T14:36:34Z</time></trkpt><trkpt lat="44.43670622672132" lon="10.427022965363443"><ele>664.4</ele><time>2026-04-11T14:36:35Z</time></trkpt><trkpt lat="44.43667233672019" lon="10.426895008865081"><ele>663.6</ele><time>2026-04-11T14:36:36Z</time></trkpt><trkpt lat="44.43663650717839" lon="10.426769569194649"><ele>662.8</ele><time>2026-04-11T14:36:37Z</time></trkpt><trkpt lat="44.43660148435071" lon="10.426651001941261"><ele>662.0</ele><time>2026-04-11T14:36:38Z</time></trkpt><trkpt lat="44.43657518615281" lon="10.426531964026873"><ele>662.0</ele><time>2026-04-11T14:36:39Z</time></trkpt><trkpt lat="44.436543828894685" lon="10.426418821665086"><ele>662.0</ele><time>2026-04-11T14:36:40Z</time></trkpt><trkpt lat="44.43651338293605" lon="10.426303764065858"><ele>662.0</ele><time>2026-04-11T14:36:41Z</time></trkpt><trkpt lat="44.43647964100291" lon="10.42619266584748"><ele>662.0</ele><time>2026-04-11T14:36:41.999Z</time></trkpt><trkpt lat="44.43642643737209" lon="10.426101247975822"><ele>662.0</ele><time>2026-04-11T14:36:42.999Z</time></trkpt><trkpt lat="44.43635835469795" lon="10.426031585997574"><ele>662.0</ele><time>2026-04-11T14:36:43.999Z</time></trkpt><trkpt lat="44.436259302091386" lon="10.426030223573829"><ele>661.6</ele><time>2026-04-11T14:36:44.999Z</time></trkpt><trkpt lat="44.43618861080132" lon="10.425983760682442"><ele>661.2</ele><time>2026-04-11T14:36:45.999Z</time></trkpt><trkpt lat="44.43606158207812" lon="10.425945504964444"><ele>660.8</ele><time>2026-04-11T14:36:47.999Z</time></trkpt><trkpt lat="44.43596418926853" lon="10.425908971075536"><ele>660.4</ele><time>2026-04-11T14:36:49.999Z</time></trkpt><trkpt lat="44.43586835806626" lon="10.425893568078934"><ele>660.0</ele><time>2026-04-11T14:36:51.999Z</time></trkpt><trkpt lat="44.435806081564" lon="10.42593438541661"><ele>660.0</ele><time>2026-04-11T14:36:53.999Z</time></trkpt><trkpt lat="44.435708473952246" lon="10.42574158089236"><ele>660.0</ele><time>2026-04-11T14:36:55.999Z</time></trkpt><trkpt lat="44.435634598899874" lon="10.425658417144492"><ele>660.0</ele><time>2026-04-11T14:36:56.999Z</time></trkpt><trkpt lat="44.4355777599156" lon="10.425583450357813"><ele>660.0</ele><time>2026-04-11T14:36:57.999Z</time></trkpt><trkpt lat="44.43550528880224" lon="10.425466910794377"><ele>661.2</ele><time>2026-04-11T14:37:00.999Z</time></trkpt><trkpt lat="44.435459969330665" lon="10.425367058291995"><ele>662.4</ele><time>2026-04-11T14:37:01.999Z</time></trkpt><trkpt lat="44.435445264986086" lon="10.425274668426633"><ele>663.5999999999999</ele><time>2026-04-11T14:37:02.999Z</time></trkpt><trkpt lat="44.435442972457906" lon="10.425183407926504"><ele>664.8</ele><time>2026-04-11T14:37:03.999Z</time></trkpt><trkpt lat="44.435464451066615" lon="10.42501784726416"><ele>666.0</ele><time>2026-04-11T14:37:05.999Z</time></trkpt><trkpt lat="44.43536575438973" lon="10.424904939952148"><ele>666.0</ele><time>2026-04-11T14:37:07.999Z</time></trkpt><trkpt lat="44.4352823614392" lon="10.424874848070553"><ele>666.0</ele><time>2026-04-11T14:37:08.999Z</time></trkpt><trkpt lat="44.435208633958595" lon="10.424786381742447"><ele>666.0</ele><time>2026-04-11T14:37:09.999Z</time></trkpt><trkpt lat="44.43517857945585" lon="10.424663698899867"><ele>666.0</ele><time>2026-04-11T14:37:10.999Z</time></trkpt><trkpt lat="44.43520360571669" lon="10.424528102687407"><ele>666.0</ele><time>2026-04-11T14:37:11.999Z</time></trkpt><trkpt lat="44.43526186973487" lon="10.424388786136813"><ele>668.0</ele><time>2026-04-11T14:37:12.999Z</time></trkpt><trkpt lat="44.43527245230262" lon="10.424217936001735"><ele>670.0</ele><time>2026-04-11T14:37:13.999Z</time></trkpt><trkpt lat="44.4352406492735" lon="10.4240173964963"><ele>672.0</ele><time>2026-04-11T14:37:14.999Z</time></trkpt><trkpt lat="44.43518180782087" lon="10.423827874818583"><ele>674.0</ele><time>2026-04-11T14:37:15.999Z</time></trkpt><trkpt lat="44.43512440296856" lon="10.423659129273448"><ele>674.0</ele><time>2026-04-11T14:37:16.999Z</time></trkpt><trkpt lat="44.43507370511188" lon="10.42347749561776"><ele>674.0</ele><time>2026-04-11T14:37:17.999Z</time></trkpt><trkpt lat="44.435017489468734" lon="10.42329675980934"><ele>674.0</ele><time>2026-04-11T14:37:18.999Z</time></trkpt><trkpt lat="44.434963694765905" lon="10.423126976903482"><ele>674.0</ele><time>2026-04-11T14:37:19.999Z</time></trkpt><trkpt lat="44.434920752369294" lon="10.422965560818863"><ele>673.0</ele><time>2026-04-11T14:37:20.999Z</time></trkpt><trkpt lat="44.43486906195763" lon="10.422821822186386"><ele>672.0</ele><time>2026-04-11T14:37:21.999Z</time></trkpt><trkpt lat="44.4347936038956" lon="10.422692807238922"><ele>671.0</ele><time>2026-04-11T14:37:22.999Z</time></trkpt><trkpt lat="44.43469972471555" lon="10.422576821851516"><ele>670.0</ele><time>2026-04-11T14:37:23.999Z</time></trkpt><trkpt lat="44.43458549704694" lon="10.42248762613767"><ele>673.5</ele><time>2026-04-11T14:37:24.999Z</time></trkpt><trkpt lat="44.43446651092982" lon="10.42239634048618"><ele>677.0</ele><time>2026-04-11T14:37:25.999Z</time></trkpt><trkpt lat="44.43435079699583" lon="10.422303943606305"><ele>680.5</ele><time>2026-04-11T14:37:26.999Z</time></trkpt><trkpt lat="44.43425135924445" lon="10.422228026286513"><ele>684.0</ele><time>2026-04-11T14:37:27.999Z</time></trkpt><trkpt lat="44.43417015273699" lon="10.422158912947303"><ele>684.0</ele><time>2026-04-11T14:37:28.999Z</time></trkpt><trkpt lat="44.434098001055" lon="10.422082002932376"><ele>684.0</ele><time>2026-04-11T14:37:30.999Z</time></trkpt><trkpt lat="44.43405619975673" lon="10.422227235314676"><ele>684.0</ele><time>2026-04-11T14:37:35Z</time></trkpt><trkpt lat="44.434114141580395" lon="10.422307249588172"><ele>684.0</ele><time>2026-04-11T14:37:36Z</time></trkpt><trkpt lat="44.43418299561604" lon="10.422398211026593"><ele>684.0</ele><time>2026-04-11T14:37:37Z</time></trkpt><trkpt lat="44.43424710243126" lon="10.422509786648572"><ele>684.0</ele><time>2026-04-11T14:37:38Z</time></trkpt><trkpt lat="44.43430044273143" lon="10.422630875768911"><ele>684.0</ele><time>2026-04-11T14:37:39Z</time></trkpt><trkpt lat="44.43435098993461" lon="10.422760331997948"><ele>684.0</ele><time>2026-04-11T14:37:40Z</time></trkpt><trkpt lat="44.434387719773284" lon="10.4229069900462"><ele>684.0</ele><time>2026-04-11T14:37:41Z</time></trkpt><trkpt lat="44.434410227632966" lon="10.423065486354666"><ele>684.0</ele><time>2026-04-11T14:37:42Z</time></trkpt><trkpt lat="44.4344164539456" lon="10.423226826038778"><ele>684.8000000000001</ele><time>2026-04-11T14:37:43Z</time></trkpt><trkpt lat="44.43442282785674" lon="10.423391055401831"><ele>685.6</ele><time>2026-04-11T14:37:44Z</time></trkpt><trkpt lat="44.434434862669775" lon="10.42355610539175"><ele>686.4</ele><time>2026-04-11T14:37:45Z</time></trkpt><trkpt lat="44.434440651653674" lon="10.423706931883682"><ele>687.2</ele><time>2026-04-11T14:37:46Z</time></trkpt><trkpt lat="44.434431290558315" lon="10.423840233675397"><ele>688.0</ele><time>2026-04-11T14:37:47Z</time></trkpt><trkpt lat="44.43439909279762" lon="10.42394094341057"><ele>688.0</ele><time>2026-04-11T14:37:48Z</time></trkpt><trkpt lat="44.43434699663777" lon="10.424033251045989"><ele>688.0</ele><time>2026-04-11T14:37:49Z</time></trkpt><trkpt lat="44.434266693955465" lon="10.42412182037408"><ele>688.0</ele><time>2026-04-11T14:37:50Z</time></trkpt><trkpt lat="44.43416962368695" lon="10.424221132215827"><ele>688.0</ele><time>2026-04-11T14:37:51Z</time></trkpt><trkpt lat="44.43406123645704" lon="10.424320423881452"><ele>688.0</ele><time>2026-04-11T14:37:52Z</time></trkpt><trkpt lat="44.43394584373234" lon="10.424425864737097"><ele>688.0</ele><time>2026-04-11T14:37:53Z</time></trkpt><trkpt lat="44.43381997081009" lon="10.42454565059745"><ele>688.0</ele><time>2026-04-11T14:37:54Z</time></trkpt><trkpt lat="44.43368490769933" lon="10.424666321210717"><ele>688.0</ele><time>2026-04-11T14:37:55Z</time></trkpt><trkpt lat="44.43354555025449" lon="10.424799201883417"><ele>689.5</ele><time>2026-04-11T14:37:56Z</time></trkpt><trkpt lat="44.433417572663565" lon="10.424922691959367"><ele>691.0</ele><time>2026-04-11T14:37:57Z</time></trkpt><trkpt lat="44.43333423981555" lon="10.425065047367042"><ele>692.5</ele><time>2026-04-11T14:37:58Z</time></trkpt><trkpt lat="44.43326932527206" lon="10.42523449935721"><ele>694.0</ele><time>2026-04-11T14:37:59Z</time></trkpt><trkpt lat="44.433248666674345" lon="10.425443743478445"><ele>694.0</ele><time>2026-04-11T14:38:00Z</time></trkpt><trkpt lat="44.433235794351056" lon="10.425658847910741"><ele>694.0</ele><time>2026-04-11T14:38:01Z</time></trkpt><trkpt lat="44.43321631643882" lon="10.425882615522362"><ele>694.0</ele><time>2026-04-11T14:38:02Z</time></trkpt><trkpt lat="44.43319192153397" lon="10.426089113170816"><ele>694.0</ele><time>2026-04-11T14:38:03Z</time></trkpt><trkpt lat="44.433170444638556" lon="10.426283081422925"><ele>694.0</ele><time>2026-04-11T14:38:04Z</time></trkpt><trkpt lat="44.4331592347097" lon="10.42647132345245"><ele>694.0</ele><time>2026-04-11T14:38:05Z</time></trkpt><trkpt lat="44.43313459109233" lon="10.42665154112172"><ele>694.0</ele><time>2026-04-11T14:38:06Z</time></trkpt><trkpt lat="44.43308758324715" lon="10.426818321717535"><ele>694.0</ele><time>2026-04-11T14:38:07Z</time></trkpt><trkpt lat="44.43298784015883" lon="10.42693289521178"><ele>694.0</ele><time>2026-04-11T14:38:08Z</time></trkpt><trkpt lat="44.43287537520758" lon="10.427040638299937"><ele>694.0</ele><time>2026-04-11T14:38:09Z</time></trkpt><trkpt lat="44.43278467288949" lon="10.427190986548473"><ele>694.0</ele><time>2026-04-11T14:38:10Z</time></trkpt><trkpt lat="44.432719305487986" lon="10.427385919229728"><ele>698.3333333333334</ele><time>2026-04-11T14:38:11Z</time></trkpt><trkpt lat="44.432676865332674" lon="10.427596244335616"><ele>702.6666666666666</ele><time>2026-04-11T14:38:12Z</time></trkpt><trkpt lat="44.432656378855306" lon="10.427818672202815"><ele>707.0</ele><time>2026-04-11T14:38:13Z</time></trkpt><trkpt lat="44.43264104323693" lon="10.428032072065948"><ele>707.0</ele><time>2026-04-11T14:38:14Z</time></trkpt><trkpt lat="44.432633606154404" lon="10.42821743007759"><ele>707.0</ele><time>2026-04-11T14:38:15Z</time></trkpt><trkpt lat="44.43262192000404" lon="10.428401389799648"><ele>707.0</ele><time>2026-04-11T14:38:16Z</time></trkpt><trkpt lat="44.432601755417274" lon="10.42856085481742"><ele>707.0</ele><time>2026-04-11T14:38:17Z</time></trkpt><trkpt lat="44.43258607839336" lon="10.42869101462365"><ele>707.0</ele><time>2026-04-11T14:38:18Z</time></trkpt><trkpt lat="44.43259780053091" lon="10.428792656832053"><ele>707.0</ele><time>2026-04-11T14:38:19Z</time></trkpt><trkpt lat="44.432636084800016" lon="10.428902547630553"><ele>707.0</ele><time>2026-04-11T14:38:20Z</time></trkpt><trkpt lat="44.432673419066205" lon="10.429012868357232"><ele>707.0</ele><time>2026-04-11T14:38:21Z</time></trkpt><trkpt lat="44.43269482112146" lon="10.429124457190118"><ele>707.0</ele><time>2026-04-11T14:38:22Z</time></trkpt><trkpt lat="44.43268599097667" lon="10.429232697437802"><ele>707.0</ele><time>2026-04-11T14:38:23Z</time></trkpt><trkpt lat="44.432630832794246" lon="10.42931843242841"><ele>707.6</ele><time>2026-04-11T14:38:24Z</time></trkpt><trkpt lat="44.43254775719275" lon="10.42936180925668"><ele>708.2</ele><time>2026-04-11T14:38:25Z</time></trkpt><trkpt lat="44.43244935591071" lon="10.429332187899533"><ele>708.8</ele><time>2026-04-11T14:38:26Z</time></trkpt><trkpt lat="44.43235725629198" lon="10.429225879485962"><ele>709.4</ele><time>2026-04-11T14:38:27Z</time></trkpt><trkpt lat="44.432261871389876" lon="10.429150619215818"><ele>710.0</ele><time>2026-04-11T14:38:28Z</time></trkpt><trkpt lat="44.432160823720366" lon="10.429072608381752"><ele>709.5</ele><time>2026-04-11T14:38:29Z</time></trkpt><trkpt lat="44.432052176517345" lon="10.429002591053461"><ele>709.0</ele><time>2026-04-11T14:38:30Z</time></trkpt><trkpt lat="44.43194566734142" lon="10.428894904843746"><ele>708.5</ele><time>2026-04-11T14:38:31Z</time></trkpt><trkpt lat="44.43185646565695" lon="10.428754378512656"><ele>708.0</ele><time>2026-04-11T14:38:31.999Z</time></trkpt><trkpt lat="44.43175712675953" lon="10.42865966145618"><ele>711.25</ele><time>2026-04-11T14:38:32.999Z</time></trkpt><trkpt lat="44.4316467067406" lon="10.428562798313859"><ele>714.5</ele><time>2026-04-11T14:38:33.999Z</time></trkpt><trkpt lat="44.43152761303609" lon="10.428508983607445"><ele>717.75</ele><time>2026-04-11T14:38:34.999Z</time></trkpt><trkpt lat="44.43142188771224" lon="10.428483527638745"><ele>721.0</ele><time>2026-04-11T14:38:35.999Z</time></trkpt><trkpt lat="44.43133270028148" lon="10.428468087234732"><ele>722.0</ele><time>2026-04-11T14:38:36.999Z</time></trkpt><trkpt lat="44.43125819198444" lon="10.428459651801347"><ele>723.0</ele><time>2026-04-11T14:38:37.999Z</time></trkpt><trkpt lat="44.43119439150379" lon="10.428450704047087"><ele>724.0</ele><time>2026-04-11T14:38:38.999Z</time></trkpt><trkpt lat="44.43112993366874" lon="10.428409285756437"><ele>725.0</ele><time>2026-04-11T14:38:40.999Z</time></trkpt><trkpt lat="44.43104725903266" lon="10.428370203884164"><ele>726.0</ele><time>2026-04-11T14:38:42.999Z</time></trkpt><trkpt lat="44.43092612270209" lon="10.428442558088834"><ele>727.0</ele><time>2026-04-11T14:38:43.999Z</time></trkpt><trkpt lat="44.430820436072196" lon="10.42850761599154"><ele>727.0</ele><time>2026-04-11T14:38:44.999Z</time></trkpt><trkpt lat="44.43070904066854" lon="10.428542897188185"><ele>727.0</ele><time>2026-04-11T14:38:45.999Z</time></trkpt><trkpt lat="44.4305976787411" lon="10.428568104656877"><ele>727.0</ele><time>2026-04-11T14:38:46.999Z</time></trkpt><trkpt lat="44.43048533630703" lon="10.42859399533584"><ele>727.0</ele><time>2026-04-11T14:38:47.999Z</time></trkpt><trkpt lat="44.43038374303629" lon="10.428610923239921"><ele>727.0</ele><time>2026-04-11T14:38:48.999Z</time></trkpt><trkpt lat="44.43028850216273" lon="10.428617710169151"><ele>726.6</ele><time>2026-04-11T14:38:49.999Z</time></trkpt><trkpt lat="44.430190861355136" lon="10.428629287399726"><ele>726.2</ele><time>2026-04-11T14:38:50.999Z</time></trkpt><trkpt lat="44.43008990211638" lon="10.428629172710773"><ele>725.8</ele><time>2026-04-11T14:38:51.999Z</time></trkpt><trkpt lat="44.429997302866525" lon="10.42855528586106"><ele>725.4</ele><time>2026-04-11T14:38:52.999Z</time></trkpt><trkpt lat="44.429913473708154" lon="10.428467639831638"><ele>725.0</ele><time>2026-04-11T14:38:53.999Z</time></trkpt><trkpt lat="44.429827707701605" lon="10.42836140755092"><ele>725.0</ele><time>2026-04-11T14:38:54.999Z</time></trkpt><trkpt lat="44.42975700422586" lon="10.42828029867443"><ele>725.0</ele><time>2026-04-11T14:38:55.999Z</time></trkpt><trkpt lat="44.42968679238935" lon="10.428215650887196"><ele>725.0</ele><time>2026-04-11T14:38:56.999Z</time></trkpt><trkpt lat="44.42960818147524" lon="10.428193032995623"><ele>725.0</ele><time>2026-04-11T14:38:57.999Z</time></trkpt><trkpt lat="44.42952321891423" lon="10.42818085475024"><ele>725.0</ele><time>2026-04-11T14:38:58.999Z</time></trkpt><trkpt lat="44.429439223354585" lon="10.428172068167738"><ele>725.0</ele><time>2026-04-11T14:38:59.999Z</time></trkpt><trkpt lat="44.42935136890537" lon="10.42819181398106"><ele>725.4</ele><time>2026-04-11T14:39:00.999Z</time></trkpt><trkpt lat="44.42927162531783" lon="10.428239199845212"><ele>725.8</ele><time>2026-04-11T14:39:01.999Z</time></trkpt><trkpt lat="44.42919887887565" lon="10.42830905796899"><ele>726.2</ele><time>2026-04-11T14:39:02.999Z</time></trkpt><trkpt lat="44.42914826724306" lon="10.428415170634104"><ele>726.6</ele><time>2026-04-11T14:39:03.999Z</time></trkpt><trkpt lat="44.429122842419424" lon="10.428547531746279"><ele>727.0</ele><time>2026-04-11T14:39:04.999Z</time></trkpt><trkpt lat="44.42909975411702" lon="10.428684979453042"><ele>727.0</ele><time>2026-04-11T14:39:05.999Z</time></trkpt><trkpt lat="44.429074076708964" lon="10.428803639686087"><ele>727.0</ele><time>2026-04-11T14:39:06.999Z</time></trkpt><trkpt lat="44.42904937217483" lon="10.428912442073608"><ele>727.0</ele><time>2026-04-11T14:39:07.999Z</time></trkpt><trkpt lat="44.429022676036105" lon="10.429014836875018"><ele>727.0</ele><time>2026-04-11T14:39:08.999Z</time></trkpt><trkpt lat="44.428996621394354" lon="10.42911801012252"><ele>727.0</ele><time>2026-04-11T14:39:09.999Z</time></trkpt><trkpt lat="44.42897498500232" lon="10.429233659835887"><ele>727.0</ele><time>2026-04-11T14:39:10.999Z</time></trkpt><trkpt lat="44.428951396155796" lon="10.429333845946177"><ele>725.8</ele><time>2026-04-11T14:39:11.999Z</time></trkpt><trkpt lat="44.42890566215754" lon="10.4294020825602"><ele>724.6</ele><time>2026-04-11T14:39:19.999Z</time></trkpt><trkpt lat="44.428887944287176" lon="10.42922008289419"><ele>723.4</ele><time>2026-04-11T14:39:23.999Z</time></trkpt><trkpt lat="44.428881697842904" lon="10.4290883360945"><ele>722.1999999999999</ele><time>2026-04-11T14:39:24.999Z</time></trkpt><trkpt lat="44.42889109469599" lon="10.42891429977405"><ele>721.0</ele><time>2026-04-11T14:39:26.999Z</time></trkpt><trkpt lat="44.42889823760711" lon="10.428818603096975"><ele>722.0</ele><time>2026-04-11T14:39:27.999Z</time></trkpt><trkpt lat="44.42890163507642" lon="10.428711912168206"><ele>723.0</ele><time>2026-04-11T14:39:28.999Z</time></trkpt><trkpt lat="44.42890363349001" lon="10.42860976966273"><ele>724.0</ele><time>2026-04-11T14:39:29.999Z</time></trkpt><trkpt lat="44.42890096120824" lon="10.428453467798397"><ele>725.0</ele><time>2026-04-11T14:39:31.999Z</time></trkpt><trkpt lat="44.42887765365036" lon="10.42835760883938"><ele>726.0</ele><time>2026-04-11T14:39:34.999Z</time></trkpt><trkpt lat="44.42887692542597" lon="10.428210874417875"><ele>727.0</ele><time>2026-04-11T14:39:45.999Z</time></trkpt><trkpt lat="44.428858948332824" lon="10.428075564738174"><ele>729.4000000000001</ele><time>2026-04-11T14:39:47.999Z</time></trkpt><trkpt lat="44.428947163944926" lon="10.427958853049354"><ele>731.8000000000001</ele><time>2026-04-11T14:39:48.999Z</time></trkpt><trkpt lat="44.42893472570147" lon="10.427860750404342"><ele>734.2</ele><time>2026-04-11T14:39:49.999Z</time></trkpt><trkpt lat="44.42892375990029" lon="10.427766718232952"><ele>736.6</ele><time>2026-04-11T14:39:50.999Z</time></trkpt><trkpt lat="44.42894053374165" lon="10.427605201398784"><ele>739.0</ele><time>2026-04-11T14:39:53Z</time></trkpt><trkpt lat="44.428928113576006" lon="10.427498887387571"><ele>739.0</ele><time>2026-04-11T14:39:54Z</time></trkpt><trkpt lat="44.428892553389645" lon="10.427393748410257"><ele>739.0</ele><time>2026-04-11T14:39:55Z</time></trkpt><trkpt lat="44.42885298207771" lon="10.427277000423754"><ele>739.0</ele><time>2026-04-11T14:39:56Z</time></trkpt><trkpt lat="44.42881261393884" lon="10.427160451133211"><ele>739.0</ele><time>2026-04-11T14:39:57Z</time></trkpt><trkpt lat="44.428802097561636" lon="10.427010277165344"><ele>739.0</ele><time>2026-04-11T14:39:59Z</time></trkpt><trkpt lat="44.42877731379096" lon="10.426909660144297"><ele>741.5</ele><time>2026-04-11T14:40:00Z</time></trkpt><trkpt lat="44.42874819066753" lon="10.426826526487892"><ele>744.0</ele><time>2026-04-11T14:40:01Z</time></trkpt><trkpt lat="44.42872850748236" lon="10.42674171501328"><ele>746.5</ele><time>2026-04-11T14:40:02Z</time></trkpt><trkpt lat="44.42873175244146" lon="10.426577928731716"><ele>749.0</ele><time>2026-04-11T14:40:04Z</time></trkpt><trkpt lat="44.42877910230619" lon="10.426507639751724"><ele>751.5</ele><time>2026-04-11T14:40:07Z</time></trkpt><trkpt lat="44.42878947232685" lon="10.426405090284353"><ele>754.0</ele><time>2026-04-11T14:40:11Z</time></trkpt><trkpt lat="44.42875374750573" lon="10.426251342869902"><ele>756.0</ele><time>2026-04-11T14:40:13Z</time></trkpt><trkpt lat="44.42871839738714" lon="10.426136489056992"><ele>758.0</ele><time>2026-04-11T14:40:15Z</time></trkpt><trkpt lat="44.42868487209682" lon="10.42597316569027"><ele>760.0</ele><time>2026-04-11T14:40:17Z</time></trkpt><trkpt lat="44.428668706443126" lon="10.425882635013224"><ele>762.0</ele><time>2026-04-11T14:40:18Z</time></trkpt><trkpt lat="44.42866092508741" lon="10.42579306239091"><ele>764.0</ele><time>2026-04-11T14:40:19Z</time></trkpt><trkpt lat="44.42865305515618" lon="10.425660814874371"><ele>766.0</ele><time>2026-04-11T14:40:21Z</time></trkpt><trkpt lat="44.42859228901455" lon="10.425551885535608"><ele>768.0</ele><time>2026-04-11T14:40:23Z</time></trkpt><trkpt lat="44.42849759090215" lon="10.425477262778745"><ele>770.0</ele><time>2026-04-11T14:40:25Z</time></trkpt><trkpt lat="44.428435401693015" lon="10.425454669917666"><ele>772.0</ele><time>2026-04-11T14:40:26Z</time></trkpt><trkpt lat="44.4283174571118" lon="10.425402319409718"><ele>774.0</ele><time>2026-04-11T14:40:28Z</time></trkpt><trkpt lat="44.42820989988558" lon="10.425343810350585"><ele>776.0</ele><time>2026-04-11T14:40:30Z</time></trkpt><trkpt lat="44.42810199198349" lon="10.425278508954262"><ele>776.0</ele><time>2026-04-11T14:40:32Z</time></trkpt><trkpt lat="44.42800420129116" lon="10.425203888345933"><ele>776.0</ele><time>2026-04-11T14:40:34Z</time></trkpt><trkpt lat="44.427956508793365" lon="10.425138841226156"><ele>776.0</ele><time>2026-04-11T14:40:35Z</time></trkpt><trkpt lat="44.42786349620489" lon="10.425030983765883"><ele>776.0</ele><time>2026-04-11T14:40:37Z</time></trkpt><trkpt lat="44.427825295058966" lon="10.424906060661954"><ele>776.0</ele><time>2026-04-11T14:40:39Z</time></trkpt><trkpt lat="44.427797422788444" lon="10.424754074504783"><ele>778.8</ele><time>2026-04-11T14:40:40.999Z</time></trkpt><trkpt lat="44.42778707368549" lon="10.424606810604022"><ele>781.5999999999999</ele><time>2026-04-11T14:40:42.999Z</time></trkpt><trkpt lat="44.427767493286275" lon="10.424453619291667"><ele>784.4</ele><time>2026-04-11T14:40:44.999Z</time></trkpt><trkpt lat="44.427763374932105" lon="10.424332878935836"><ele>787.2</ele><time>2026-04-11T14:40:46.999Z</time></trkpt><trkpt lat="44.427754054209544" lon="10.424201956877805"><ele>790.0</ele><time>2026-04-11T14:40:48.999Z</time></trkpt><trkpt lat="44.42772595794498" lon="10.424080314599145"><ele>790.0</ele><time>2026-04-11T14:40:50.999Z</time></trkpt><trkpt lat="44.42768004545129" lon="10.423933699176382"><ele>790.0</ele><time>2026-04-11T14:40:52.999Z</time></trkpt><trkpt lat="44.427664487728165" lon="10.423773004763486"><ele>790.0</ele><time>2026-04-11T14:40:54.999Z</time></trkpt><trkpt lat="44.42764727241004" lon="10.42368527857027"><ele>790.0</ele><time>2026-04-11T14:40:55.999Z</time></trkpt><trkpt lat="44.42761347738523" lon="10.423523133851228"><ele>790.0</ele><time>2026-04-11T14:40:57.999Z</time></trkpt><trkpt lat="44.42756005712197" lon="10.423436601479725"><ele>791.6</ele><time>2026-04-11T14:40:59.999Z</time></trkpt><trkpt lat="44.427455637057044" lon="10.423366806868673"><ele>793.2</ele><time>2026-04-11T14:41:01.999Z</time></trkpt><trkpt lat="44.42736565276538" lon="10.423313181590835"><ele>794.8</ele><time>2026-04-11T14:41:03.999Z</time></trkpt><trkpt lat="44.42730741064969" lon="10.423270270728802"><ele>796.4</ele><time>2026-04-11T14:41:04.999Z</time></trkpt><trkpt lat="44.42722348725323" lon="10.423171306561162"><ele>798.0</ele><time>2026-04-11T14:41:06.999Z</time></trkpt><trkpt lat="44.42717399206417" lon="10.423091793908583"><ele>799.0</ele><time>2026-04-11T14:41:07.999Z</time></trkpt><trkpt lat="44.42706850693664" lon="10.422992011659302"><ele>800.0</ele><time>2026-04-11T14:41:09.999Z</time></trkpt><trkpt lat="44.42700018934083" lon="10.422954002902745"><ele>801.0</ele><time>2026-04-11T14:41:10.999Z</time></trkpt><trkpt lat="44.426922463308685" lon="10.422898974146301"><ele>802.0</ele><time>2026-04-11T14:41:11.999Z</time></trkpt><trkpt lat="44.42686292788898" lon="10.422816375292788"><ele>803.0</ele><time>2026-04-11T14:41:12.999Z</time></trkpt><trkpt lat="44.426787710829565" lon="10.422728976371102"><ele>804.1666666666667</ele><time>2026-04-11T14:41:13.999Z</time></trkpt><trkpt lat="44.426736544476555" lon="10.422664880424508"><ele>805.3333333333334</ele><time>2026-04-11T14:41:14.999Z</time></trkpt><trkpt lat="44.42667738479226" lon="10.422600211859331"><ele>806.5</ele><time>2026-04-11T14:41:15.999Z</time></trkpt><trkpt lat="44.42660105720388" lon="10.42252576313605"><ele>807.6666666666667</ele><time>2026-04-11T14:41:16.999Z</time></trkpt><trkpt lat="44.4265209386804" lon="10.42246421838278"><ele>808.8333333333334</ele><time>2026-04-11T14:41:17.999Z</time></trkpt><trkpt lat="44.42645013652715" lon="10.422416572287183"><ele>810.0</ele><time>2026-04-11T14:41:18.999Z</time></trkpt><trkpt lat="44.42638090307095" lon="10.422362066816696"><ele>811.0</ele><time>2026-04-11T14:41:19.999Z</time></trkpt><trkpt lat="44.42627527455636" lon="10.42226337021983"><ele>812.0</ele><time>2026-04-11T14:41:21.999Z</time></trkpt><trkpt lat="44.42621031596526" lon="10.422202823604733"><ele>813.0</ele><time>2026-04-11T14:44:01.001Z</time></trkpt><trkpt lat="44.42614049889442" lon="10.422132924769155"><ele>814.0</ele><time>2026-04-11T14:44:03.001Z</time></trkpt><trkpt lat="44.426075541116774" lon="10.422077270568868"><ele>815.0</ele><time>2026-04-11T14:44:04.001Z</time></trkpt><trkpt lat="44.426009775860976" lon="10.42203463073942"><ele>816.0</ele><time>2026-04-11T14:44:05.001Z</time></trkpt><trkpt lat="44.42591192877885" lon="10.421953347795325"><ele>816.0</ele><time>2026-04-11T14:44:07.001Z</time></trkpt><trkpt lat="44.42581166478033" lon="10.42185972877279"><ele>816.0</ele><time>2026-04-11T14:44:09.001Z</time></trkpt><trkpt lat="44.425758433333066" lon="10.42180604914647"><ele>816.0</ele><time>2026-04-11T14:44:11.001Z</time></trkpt><trkpt lat="44.42570511110239" lon="10.421875094865582"><ele>816.0</ele><time>2026-04-11T14:44:26Z</time></trkpt><trkpt lat="44.425710549147176" lon="10.42197219261059"><ele>816.0</ele><time>2026-04-11T14:44:28Z</time></trkpt><trkpt lat="44.42571822591227" lon="10.422070353737618"><ele>816.0</ele><time>2026-04-11T14:44:30Z</time></trkpt><trkpt lat="44.425715056781314" lon="10.422172514374243"><ele>816.0</ele><time>2026-04-11T14:44:32Z</time></trkpt><trkpt lat="44.425710053037754" lon="10.42233235249599"><ele>816.0</ele><time>2026-04-11T14:44:34Z</time></trkpt><trkpt lat="44.42569707626221" lon="10.422497367821649"><ele>816.0</ele><time>2026-04-11T14:44:36Z</time></trkpt><trkpt lat="44.4256858430395" lon="10.422588720137675"><ele>816.0</ele><time>2026-04-11T14:44:37Z</time></trkpt><trkpt lat="44.425674611246706" lon="10.422676250938213"><ele>816.0</ele><time>2026-04-11T14:44:38Z</time></trkpt><trkpt lat="44.425651251977825" lon="10.422816473413839"><ele>816.0</ele><time>2026-04-11T14:44:40Z</time></trkpt><trkpt lat="44.425639391912696" lon="10.422970620780177"><ele>816.0</ele><time>2026-04-11T14:44:42Z</time></trkpt><trkpt lat="44.42562722509605" lon="10.42309416355292"><ele>816.0</ele><time>2026-04-11T14:44:44Z</time></trkpt><trkpt lat="44.42560571842994" lon="10.423220587819303"><ele>816.0</ele><time>2026-04-11T14:44:46Z</time></trkpt><trkpt lat="44.425597468766156" lon="10.423334561859969"><ele>816.0</ele><time>2026-04-11T14:44:48Z</time></trkpt><trkpt lat="44.42558026204548" lon="10.423451046545551"><ele>814.2857142857143</ele><time>2026-04-11T14:44:50Z</time></trkpt><trkpt lat="44.425554857533385" lon="10.423565614997557"><ele>812.5714285714287</ele><time>2026-04-11T14:44:52Z</time></trkpt><trkpt lat="44.425515806377305" lon="10.423650381026793"><ele>810.8571428571429</ele><time>2026-04-11T14:44:54Z</time></trkpt><trkpt lat="44.4254802233134" lon="10.4237368965938"><ele>809.1428571428571</ele><time>2026-04-11T14:44:56Z</time></trkpt><trkpt lat="44.425440835684846" lon="10.423824573830597"><ele>807.4285714285714</ele><time>2026-04-11T14:44:58Z</time></trkpt><trkpt lat="44.425396684940345" lon="10.423906606511373"><ele>805.7142857142857</ele><time>2026-04-11T14:45:00Z</time></trkpt><trkpt lat="44.425342435781445" lon="10.42397470259884"><ele>804.0</ele><time>2026-04-11T14:45:02Z</time></trkpt><trkpt lat="44.425290614829755" lon="10.424069906644272"><ele>801.6666666666666</ele><time>2026-04-11T14:45:04Z</time></trkpt><trkpt lat="44.42523622281188" lon="10.424164467158764"><ele>799.3333333333333</ele><time>2026-04-11T14:45:06Z</time></trkpt><trkpt lat="44.425179052167366" lon="10.424253333767638"><ele>797.0</ele><time>2026-04-11T14:45:08Z</time></trkpt><trkpt lat="44.42512601638459" lon="10.424345608525664"><ele>794.6666666666666</ele><time>2026-04-11T14:45:10Z</time></trkpt><trkpt lat="44.425051465906854" lon="10.424430712611464"><ele>792.3333333333333</ele><time>2026-04-11T14:45:12Z</time></trkpt><trkpt lat="44.424983174918346" lon="10.424503075172346"><ele>790.0</ele><time>2026-04-11T14:45:14Z</time></trkpt><trkpt lat="44.42492118294925" lon="10.424597820420288"><ele>788.2</ele><time>2026-04-11T14:45:16Z</time></trkpt><trkpt lat="44.42490746200187" lon="10.42469356665585"><ele>786.4</ele><time>2026-04-11T14:45:18Z</time></trkpt><trkpt lat="44.424919163011154" lon="10.42481595088529"><ele>784.5999999999999</ele><time>2026-04-11T14:45:20Z</time></trkpt><trkpt lat="44.42492612197047" lon="10.424969764559195"><ele>782.8</ele><time>2026-04-11T14:45:22Z</time></trkpt><trkpt lat="44.42492067373626" lon="10.425065061590985"><ele>781.0</ele><time>2026-04-11T14:45:23Z</time></trkpt><trkpt lat="44.424905283621584" lon="10.425226826001976"><ele>781.0</ele><time>2026-04-11T14:45:25Z</time></trkpt><trkpt lat="44.42489711126497" lon="10.425394058110388"><ele>781.0</ele><time>2026-04-11T14:45:27Z</time></trkpt><trkpt lat="44.424881378274925" lon="10.42552157346413"><ele>781.0</ele><time>2026-04-11T14:45:29Z</time></trkpt><trkpt lat="44.42481312069391" lon="10.425612166816405"><ele>781.0</ele><time>2026-04-11T14:45:31Z</time></trkpt><trkpt lat="44.42473727376533" lon="10.425697816468688"><ele>781.0</ele><time>2026-04-11T14:45:33Z</time></trkpt><trkpt lat="44.424666414056524" lon="10.425825229449726"><ele>776.5999999999999</ele><time>2026-04-11T14:45:35Z</time></trkpt><trkpt lat="44.42462697286053" lon="10.425989913754085"><ele>772.2</ele><time>2026-04-11T14:45:37Z</time></trkpt><trkpt lat="44.424571808866055" lon="10.426127682252453"><ele>767.8</ele><time>2026-04-11T14:45:39Z</time></trkpt><trkpt lat="44.42448551723283" lon="10.426223158524827"><ele>763.4000000000001</ele><time>2026-04-11T14:45:41Z</time></trkpt><trkpt lat="44.424404990442596" lon="10.426303859556766"><ele>759.0</ele><time>2026-04-11T14:45:43Z</time></trkpt><trkpt lat="44.42431838693892" lon="10.426400013408072"><ele>757.5</ele><time>2026-04-11T14:45:45Z</time></trkpt><trkpt lat="44.42426532847242" lon="10.426453775317356"><ele>756.0</ele><time>2026-04-11T14:45:46Z</time></trkpt><trkpt lat="44.42420665449091" lon="10.426502879515276"><ele>754.5</ele><time>2026-04-11T14:45:47Z</time></trkpt><trkpt lat="44.42413258104298" lon="10.426567943273378"><ele>753.0</ele><time>2026-04-11T14:45:49Z</time></trkpt><trkpt lat="44.42404582048883" lon="10.426611554773759"><ele>751.5</ele><time>2026-04-11T14:45:51Z</time></trkpt><trkpt lat="44.42394946765691" lon="10.426682994762167"><ele>750.0</ele><time>2026-04-11T14:45:52.999Z</time></trkpt><trkpt lat="44.42389438965503" lon="10.426727677605683"><ele>746.6</ele><time>2026-04-11T14:45:53.999Z</time></trkpt><trkpt lat="44.42377735925476" lon="10.426764121418968"><ele>743.2</ele><time>2026-04-11T14:45:55.999Z</time></trkpt><trkpt lat="44.423664363914234" lon="10.42678268373598"><ele>739.8</ele><time>2026-04-11T14:45:58.001Z</time></trkpt><trkpt lat="44.42359840392966" lon="10.426801333123697"><ele>736.4</ele><time>2026-04-11T14:46:00.001Z</time></trkpt><trkpt lat="44.42351000462089" lon="10.426810785138935"><ele>733.0</ele><time>2026-04-11T14:46:02.001Z</time></trkpt><trkpt lat="44.42344876088914" lon="10.426787032200997"><ele>733.0</ele><time>2026-04-11T14:46:04Z</time></trkpt><trkpt lat="44.42337501017022" lon="10.426742199873118"><ele>733.0</ele><time>2026-04-11T14:46:06Z</time></trkpt><trkpt lat="44.42332107395111" lon="10.426844832656197"><ele>733.0</ele><time>2026-04-11T14:46:08Z</time></trkpt><trkpt lat="44.42329105293081" lon="10.426927845729473"><ele>733.0</ele><time>2026-04-11T14:46:09Z</time></trkpt><trkpt lat="44.42325147172577" lon="10.42702099906347"><ele>733.0</ele><time>2026-04-11T14:46:11Z</time></trkpt><trkpt lat="44.42317891253596" lon="10.42707004809385"><ele>733.0</ele><time>2026-04-11T14:46:13Z</time></trkpt><trkpt lat="44.42311574341608" lon="10.427094669964116"><ele>730.8</ele><time>2026-04-11T14:46:16Z</time></trkpt><trkpt lat="44.42304076137183" lon="10.427144990318503"><ele>728.5999999999999</ele><time>2026-04-11T14:46:18Z</time></trkpt><trkpt lat="44.422973069226096" lon="10.427162499545402"><ele>726.4000000000001</ele><time>2026-04-11T14:46:20Z</time></trkpt><trkpt lat="44.42287925239426" lon="10.427124342542909"><ele>724.2</ele><time>2026-04-11T14:46:22Z</time></trkpt><trkpt lat="44.422778304418095" lon="10.427054781668636"><ele>722.0</ele><time>2026-04-11T14:46:24Z</time></trkpt><trkpt lat="44.42269885607034" lon="10.4269763033195"><ele>722.0</ele><time>2026-04-11T14:46:26Z</time></trkpt><trkpt lat="44.422634969518896" lon="10.426893138838947"><ele>722.0</ele><time>2026-04-11T14:46:28Z</time></trkpt><trkpt lat="44.42253863763049" lon="10.426810354951098"><ele>722.0</ele><time>2026-04-11T14:46:30Z</time></trkpt><trkpt lat="44.422450500017625" lon="10.426748851613723"><ele>722.0</ele><time>2026-04-11T14:46:32Z</time></trkpt><trkpt lat="44.42236134703011" lon="10.426665513897529"><ele>722.0</ele><time>2026-04-11T14:46:34Z</time></trkpt><trkpt lat="44.422302960301415" lon="10.426543093690627"><ele>722.0</ele><time>2026-04-11T14:46:36Z</time></trkpt><trkpt lat="44.42226163180418" lon="10.426474598714002"><ele>722.0</ele><time>2026-04-11T14:46:37Z</time></trkpt><trkpt lat="44.42217566534491" lon="10.426424355618387"><ele>722.0</ele><time>2026-04-11T14:46:39Z</time></trkpt><trkpt lat="44.422071913832966" lon="10.426434392093233"><ele>722.0</ele><time>2026-04-11T14:46:41Z</time></trkpt><trkpt lat="44.42200904416428" lon="10.426402062632244"><ele>722.0</ele><time>2026-04-11T14:46:42Z</time></trkpt><trkpt lat="44.421931874921256" lon="10.42635694259854"><ele>722.0</ele><time>2026-04-11T14:46:43Z</time></trkpt><trkpt lat="44.42184027514527" lon="10.426300651114603"><ele>723.0</ele><time>2026-04-11T14:46:44Z</time></trkpt><trkpt lat="44.42174380795016" lon="10.426233750727148"><ele>724.0</ele><time>2026-04-11T14:46:45Z</time></trkpt><trkpt lat="44.42164323503024" lon="10.426161346736468"><ele>725.0</ele><time>2026-04-11T14:46:46Z</time></trkpt><trkpt lat="44.42153765437271" lon="10.426110176015705"><ele>726.0</ele><time>2026-04-11T14:46:47Z</time></trkpt><trkpt lat="44.421453314532414" lon="10.426092816704301"><ele>727.0</ele><time>2026-04-11T14:46:48Z</time></trkpt><trkpt lat="44.42135326025802" lon="10.426060342361087"><ele>727.0</ele><time>2026-04-11T14:46:50Z</time></trkpt><trkpt lat="44.421291940280064" lon="10.425976843353752"><ele>727.0</ele><time>2026-04-11T14:46:52Z</time></trkpt><trkpt lat="44.42129438402221" lon="10.425803971859294"><ele>727.0</ele><time>2026-04-11T14:46:54Z</time></trkpt><trkpt lat="44.42130935939324" lon="10.425702298760033"><ele>727.0</ele><time>2026-04-11T14:46:55Z</time></trkpt><trkpt lat="44.42131999797015" lon="10.425591391557669"><ele>727.0</ele><time>2026-04-11T14:46:56Z</time></trkpt><trkpt lat="44.42133499857384" lon="10.425477863077411"><ele>727.0</ele><time>2026-04-11T14:46:57Z</time></trkpt><trkpt lat="44.42134236667195" lon="10.425367520312797"><ele>728.4000000000001</ele><time>2026-04-11T14:46:58Z</time></trkpt><trkpt lat="44.42133568528185" lon="10.425268889957062"><ele>729.8000000000001</ele><time>2026-04-11T14:46:59Z</time></trkpt><trkpt lat="44.421315162758496" lon="10.425167124878444"><ele>731.2</ele><time>2026-04-11T14:47:00Z</time></trkpt><trkpt lat="44.421298772579455" lon="10.425063900002248"><ele>732.6</ele><time>2026-04-11T14:47:01Z</time></trkpt><trkpt lat="44.42129204097997" lon="10.424946217602402"><ele>734.0</ele><time>2026-04-11T14:47:02Z</time></trkpt><trkpt lat="44.42127799962503" lon="10.424745891522589"><ele>736.6</ele><time>2026-04-11T14:47:04Z</time></trkpt><trkpt lat="44.421228280538806" lon="10.424632544751017"><ele>739.2</ele><time>2026-04-11T14:47:05Z</time></trkpt><trkpt lat="44.421159413410905" lon="10.42452103604148"><ele>741.8000000000001</ele><time>2026-04-11T14:47:06Z</time></trkpt><trkpt lat="44.42108495613712" lon="10.424419977564012"><ele>744.4000000000001</ele><time>2026-04-11T14:47:07Z</time></trkpt><trkpt lat="44.4210258578919" lon="10.424303951350286"><ele>747.0</ele><time>2026-04-11T14:47:08Z</time></trkpt><trkpt lat="44.42099769908946" lon="10.424173934781422"><ele>747.0</ele><time>2026-04-11T14:47:09Z</time></trkpt><trkpt lat="44.4209888241795" lon="10.424043348705808"><ele>747.0</ele><time>2026-04-11T14:47:10Z</time></trkpt><trkpt lat="44.42097136193413" lon="10.42391895798838"><ele>747.0</ele><time>2026-04-11T14:47:11Z</time></trkpt><trkpt lat="44.42094556195148" lon="10.423787570971035"><ele>747.0</ele><time>2026-04-11T14:47:12Z</time></trkpt><trkpt lat="44.42091791302131" lon="10.423649794050782"><ele>747.0</ele><time>2026-04-11T14:47:13Z</time></trkpt><trkpt lat="44.42089334521531" lon="10.42350521488532"><ele>748.3333333333334</ele><time>2026-04-11T14:47:13.999Z</time></trkpt><trkpt lat="44.42087031280899" lon="10.423370900684663"><ele>749.6666666666666</ele><time>2026-04-11T14:47:14.999Z</time></trkpt><trkpt lat="44.4208358530064" lon="10.423270827611004"><ele>751.0</ele><time>2026-04-11T14:47:15.999Z</time></trkpt><trkpt lat="44.42082710444294" lon="10.423170673240628"><ele>752.3333333333333</ele><time>2026-04-11T14:47:16.999Z</time></trkpt><trkpt lat="44.420833740054434" lon="10.423081288408788"><ele>753.6666666666666</ele><time>2026-04-11T14:47:17.999Z</time></trkpt><trkpt lat="44.42085557925655" lon="10.422976716609291"><ele>755.0</ele><time>2026-04-11T14:47:18.999Z</time></trkpt><trkpt lat="44.420900287882844" lon="10.422880648223563"><ele>757.6</ele><time>2026-04-11T14:47:19.999Z</time></trkpt><trkpt lat="44.420904210766786" lon="10.422669636192914"><ele>760.2</ele><time>2026-04-11T14:47:21.999Z</time></trkpt><trkpt lat="44.42086375907788" lon="10.4225343780519"><ele>762.8</ele><time>2026-04-11T14:47:22.999Z</time></trkpt><trkpt lat="44.42082528959945" lon="10.422407427050533"><ele>765.4</ele><time>2026-04-11T14:47:23.999Z</time></trkpt><trkpt lat="44.42079822304631" lon="10.422285784348215"><ele>768.0</ele><time>2026-04-11T14:47:24.999Z</time></trkpt><trkpt lat="44.42079565899108" lon="10.422175877089837"><ele>770.2</ele><time>2026-04-11T14:47:25.999Z</time></trkpt><trkpt lat="44.420817663506924" lon="10.42206319489144"><ele>772.4</ele><time>2026-04-11T14:47:26.999Z</time></trkpt><trkpt lat="44.420849798923506" lon="10.42195869575358"><ele>774.6</ele><time>2026-04-11T14:47:27.999Z</time></trkpt><trkpt lat="44.42089986133554" lon="10.421869415989365"><ele>776.8000000000001</ele><time>2026-04-11T14:47:28.999Z</time></trkpt><trkpt lat="44.420972503320804" lon="10.42177077067616"><ele>779.0</ele><time>2026-04-11T14:47:29.999Z</time></trkpt><trkpt lat="44.421030804141736" lon="10.421639200764563"><ele>779.0</ele><time>2026-04-11T14:47:30.999Z</time></trkpt><trkpt lat="44.42109559063118" lon="10.421479122743296"><ele>779.0</ele><time>2026-04-11T14:47:31.999Z</time></trkpt><trkpt lat="44.42115546721029" lon="10.42135500816035"><ele>779.0</ele><time>2026-04-11T14:47:32.999Z</time></trkpt><trkpt lat="44.42120877351776" lon="10.421266193684442"><ele>779.0</ele><time>2026-04-11T14:47:33.999Z</time></trkpt><trkpt lat="44.42127749696672" lon="10.42119048186319"><ele>779.0</ele><time>2026-04-11T14:47:34.999Z</time></trkpt><trkpt lat="44.42135330791467" lon="10.421129696941216"><ele>781.6666666666667</ele><time>2026-04-11T14:47:35.999Z</time></trkpt><trkpt lat="44.421424240192955" lon="10.42106705915506"><ele>784.3333333333334</ele><time>2026-04-11T14:47:36.999Z</time></trkpt><trkpt lat="44.42147388274373" lon="10.421010839534931"><ele>787.0</ele><time>2026-04-11T14:47:37.999Z</time></trkpt><trkpt lat="44.421557343572175" lon="10.420886860296825"><ele>789.6666666666667</ele><time>2026-04-11T14:47:39.999Z</time></trkpt><trkpt lat="44.42157597198426" lon="10.420787231329896"><ele>792.3333333333334</ele><time>2026-04-11T14:47:40.999Z</time></trkpt><trkpt lat="44.421578089399425" lon="10.420693465892755"><ele>795.0</ele><time>2026-04-11T14:47:41.999Z</time></trkpt><trkpt lat="44.42150702938202" lon="10.420570436767534"><ele>795.0</ele><time>2026-04-11T14:47:43.999Z</time></trkpt><trkpt lat="44.42146111413484" lon="10.42049271408782"><ele>795.0</ele><time>2026-04-11T14:47:44.999Z</time></trkpt><trkpt lat="44.421396572485705" lon="10.420372716388233"><ele>795.0</ele><time>2026-04-11T14:47:46.999Z</time></trkpt><trkpt lat="44.42132967024667" lon="10.420254462768282"><ele>795.0</ele><time>2026-04-11T14:47:48.999Z</time></trkpt><trkpt lat="44.42126201990433" lon="10.420158166365935"><ele>795.0</ele><time>2026-04-11T14:47:50.999Z</time></trkpt><trkpt lat="44.42117977737299" lon="10.420093720386399"><ele>795.0</ele><time>2026-04-11T14:47:53.999Z</time></trkpt><trkpt lat="44.42106989668068" lon="10.41998527559152"><ele>795.0</ele><time>2026-04-11T14:47:55.999Z</time></trkpt><trkpt lat="44.421019592592515" lon="10.41989670903096"><ele>795.0</ele><time>2026-04-11T14:47:56.999Z</time></trkpt><trkpt lat="44.4209692597611" lon="10.419814847686563"><ele>795.0</ele><time>2026-04-11T14:47:57.999Z</time></trkpt><trkpt lat="44.42091650266957" lon="10.419727324539327"><ele>795.0</ele><time>2026-04-11T14:47:58.999Z</time></trkpt><trkpt lat="44.42087370089975" lon="10.419654578471452"><ele>795.0</ele><time>2026-04-11T14:47:59.999Z</time></trkpt><trkpt lat="44.420816346517114" lon="10.419577841527536"><ele>794.6666666666666</ele><time>2026-04-11T14:48:00.999Z</time></trkpt><trkpt lat="44.4207728392555" lon="10.419488232850295"><ele>794.3333333333333</ele><time>2026-04-11T14:48:01.999Z</time></trkpt><trkpt lat="44.42071413552066" lon="10.419393759394545"><ele>794.0</ele><time>2026-04-11T14:48:03Z</time></trkpt><trkpt lat="44.42065167487609" lon="10.419330959923332"><ele>793.6666666666666</ele><time>2026-04-11T14:48:04Z</time></trkpt><trkpt lat="44.4205885525683" lon="10.419254454847664"><ele>793.3333333333333</ele><time>2026-04-11T14:48:05Z</time></trkpt><trkpt lat="44.420518009392886" lon="10.419151551328161"><ele>793.0</ele><time>2026-04-11T14:48:07Z</time></trkpt><trkpt lat="44.42045432130813" lon="10.419091861319348"><ele>792.9999999999999</ele><time>2026-04-11T14:48:09Z</time></trkpt><trkpt lat="44.420393872520535" lon="10.419041888123884"><ele>793.0</ele><time>2026-04-11T14:48:10Z</time></trkpt><trkpt lat="44.42031673535835" lon="10.418992774003907"><ele>793.0</ele><time>2026-04-11T14:48:11Z</time></trkpt><trkpt lat="44.420230357854344" lon="10.418934681664451"><ele>793.0</ele><time>2026-04-11T14:48:13Z</time></trkpt><trkpt lat="44.42012044924546" lon="10.418940007532104"><ele>792.9999999999999</ele><time>2026-04-11T14:48:15Z</time></trkpt><trkpt lat="44.42005441379169" lon="10.418989908367367"><ele>793.0</ele><time>2026-04-11T14:48:17Z</time></trkpt><trkpt lat="44.41998283303597" lon="10.41903344843242"><ele>792.9999999999999</ele><time>2026-04-11T14:48:19Z</time></trkpt><trkpt lat="44.419912026114424" lon="10.419067038989995"><ele>793.0</ele><time>2026-04-11T14:48:22Z</time></trkpt><trkpt lat="44.41985678067897" lon="10.419121752916217"><ele>793.0</ele><time>2026-04-11T14:48:25Z</time></trkpt><trkpt lat="44.419764473826525" lon="10.419145756583985"><ele>793.0</ele><time>2026-04-11T14:48:28Z</time></trkpt><trkpt lat="44.41969981639543" lon="10.419099348805043"><ele>792.9999999999999</ele><time>2026-04-11T14:48:29Z</time></trkpt><trkpt lat="44.41962176021017" lon="10.418990323916972"><ele>793.0</ele><time>2026-04-11T14:48:31Z</time></trkpt><trkpt lat="44.419580590726625" lon="10.41891157128507"><ele>792.6666666666666</ele><time>2026-04-11T14:48:33Z</time></trkpt><trkpt lat="44.41948715739283" lon="10.418915073621509"><ele>792.3333333333333</ele><time>2026-04-11T14:48:35Z</time></trkpt><trkpt lat="44.4194102983422" lon="10.418959819460293"><ele>792.0</ele><time>2026-04-11T14:48:37Z</time></trkpt><trkpt lat="44.41935298788353" lon="10.41890908991012"><ele>791.6666666666667</ele><time>2026-04-11T14:48:39Z</time></trkpt><trkpt lat="44.419295836225736" lon="10.418865244335992"><ele>791.3333333333334</ele><time>2026-04-11T14:48:40Z</time></trkpt><trkpt lat="44.419202474657304" lon="10.418787763974812"><ele>791.0</ele><time>2026-04-11T14:48:42Z</time></trkpt><trkpt lat="44.41910322841371" lon="10.418735886548877"><ele>791.0</ele><time>2026-04-11T14:48:44Z</time></trkpt><trkpt lat="44.419013401886055" lon="10.418747058796868"><ele>791.0</ele><time>2026-04-11T14:48:46Z</time></trkpt><trkpt lat="44.41890582530501" lon="10.418855381520052"><ele>791.0</ele><time>2026-04-11T14:48:48Z</time></trkpt><trkpt lat="44.41883867101424" lon="10.418904711084297"><ele>791.0</ele><time>2026-04-11T14:48:49Z</time></trkpt><trkpt lat="44.41873291427146" lon="10.418973202322853"><ele>791.0</ele><time>2026-04-11T14:48:51Z</time></trkpt><trkpt lat="44.418661590113274" lon="10.418993623038812"><ele>790.6666666666667</ele><time>2026-04-11T14:48:52Z</time></trkpt><trkpt lat="44.41855911916626" lon="10.418945656320682"><ele>790.3333333333334</ele><time>2026-04-11T14:48:54Z</time></trkpt><trkpt lat="44.41846896248877" lon="10.418831194426392"><ele>790.0</ele><time>2026-04-11T14:48:56Z</time></trkpt><trkpt lat="44.418421759993436" lon="10.418755799251683"><ele>789.6666666666667</ele><time>2026-04-11T14:48:57Z</time></trkpt><trkpt lat="44.418383699786176" lon="10.418683367790038"><ele>789.3333333333334</ele><time>2026-04-11T14:48:58Z</time></trkpt><trkpt lat="44.418335001270506" lon="10.41858958762667"><ele>789.0</ele><time>2026-04-11T14:48:59Z</time></trkpt><trkpt lat="44.4182884351836" lon="10.418523413801283"><ele>790.1666666666666</ele><time>2026-04-11T14:49:00Z</time></trkpt><trkpt lat="44.41820353192043" lon="10.418462308726472"><ele>791.3333333333333</ele><time>2026-04-11T14:49:02Z</time></trkpt><trkpt lat="44.41815429634833" lon="10.418377196874312"><ele>792.5</ele><time>2026-04-11T14:49:05Z</time></trkpt><trkpt lat="44.41809533781426" lon="10.418344556126177"><ele>793.6666666666666</ele><time>2026-04-11T14:49:05.999Z</time></trkpt><trkpt lat="44.41801931806328" lon="10.41830917404773"><ele>794.8333333333333</ele><time>2026-04-11T14:49:06.999Z</time></trkpt><trkpt lat="44.41796119403885" lon="10.418259848740504"><ele>796.0</ele><time>2026-04-11T14:49:07.999Z</time></trkpt><trkpt lat="44.41789281608787" lon="10.418217179156775"><ele>795.9999999999999</ele><time>2026-04-11T14:49:08.999Z</time></trkpt><trkpt lat="44.41782602664718" lon="10.418192890502036"><ele>796.0</ele><time>2026-04-11T14:49:09.999Z</time></trkpt><trkpt lat="44.41775739673822" lon="10.418162221712658"><ele>796.0</ele><time>2026-04-11T14:49:10.999Z</time></trkpt><trkpt lat="44.41769097339165" lon="10.418122284365687"><ele>796.0</ele><time>2026-04-11T14:49:11.999Z</time></trkpt><trkpt lat="44.41762685815195" lon="10.418083968281653"><ele>795.9999999999999</ele><time>2026-04-11T14:49:12.999Z</time></trkpt><trkpt lat="44.41751837488573" lon="10.418044080968142"><ele>796.0</ele><time>2026-04-11T14:49:14.999Z</time></trkpt><trkpt lat="44.41739143842291" lon="10.417997117749037"><ele>795.8333333333333</ele><time>2026-04-11T14:49:16.999Z</time></trkpt><trkpt lat="44.41732880160245" lon="10.417965898484441"><ele>795.6666666666666</ele><time>2026-04-11T14:49:17.999Z</time></trkpt><trkpt lat="44.41723432991432" lon="10.417920955060646"><ele>795.5</ele><time>2026-04-11T14:49:19.999Z</time></trkpt><trkpt lat="44.41714657493582" lon="10.417949699506705"><ele>795.3333333333333</ele><time>2026-04-11T14:49:21.999Z</time></trkpt><trkpt lat="44.41706471133562" lon="10.418029579010874"><ele>795.1666666666666</ele><time>2026-04-11T14:49:23.999Z</time></trkpt><trkpt lat="44.41700803564769" lon="10.418116252916718"><ele>795.0</ele><time>2026-04-11T14:49:24.999Z</time></trkpt><trkpt lat="44.41696859023825" lon="10.41820996703839"><ele>794.0</ele><time>2026-04-11T14:49:25.999Z</time></trkpt><trkpt lat="44.41692423576903" lon="10.418279496867306"><ele>793.0</ele><time>2026-04-11T14:49:26.999Z</time></trkpt><trkpt lat="44.41685394714118" lon="10.418404721104624"><ele>792.0</ele><time>2026-04-11T14:49:28.999Z</time></trkpt><trkpt lat="44.41681994834524" lon="10.41849087515633"><ele>791.0</ele><time>2026-04-11T14:49:29.999Z</time></trkpt><trkpt lat="44.41679845831842" lon="10.418593190515518"><ele>790.0</ele><time>2026-04-11T14:49:30.999Z</time></trkpt><trkpt lat="44.416783488960874" lon="10.41869942934286"><ele>789.0</ele><time>2026-04-11T14:49:31.999Z</time></trkpt><trkpt lat="44.41672299616099" lon="10.418870766812182"><ele>787.5</ele><time>2026-04-11T14:49:33.999Z</time></trkpt><trkpt lat="44.416673268823736" lon="10.418956916646529"><ele>786.0</ele><time>2026-04-11T14:49:34.999Z</time></trkpt><trkpt lat="44.41663645653116" lon="10.419071158805966"><ele>784.5</ele><time>2026-04-11T14:49:35.999Z</time></trkpt><trkpt lat="44.416622755573336" lon="10.419165815476203"><ele>783.0</ele><time>2026-04-11T14:49:36.999Z</time></trkpt><trkpt lat="44.41658794529903" lon="10.419304786465663"><ele>781.5</ele><time>2026-04-11T14:49:38.999Z</time></trkpt><trkpt lat="44.41659751251439" lon="10.419451971191203"><ele>780.0</ele><time>2026-04-11T14:49:40.999Z</time></trkpt><trkpt lat="44.416622382777824" lon="10.4195623795048"><ele>779.3333333333334</ele><time>2026-04-11T14:49:41.999Z</time></trkpt><trkpt lat="44.41661834868106" lon="10.41966239695475"><ele>778.6666666666667</ele><time>2026-04-11T14:49:42.999Z</time></trkpt><trkpt lat="44.4166153387388" lon="10.419842522461526"><ele>778.0</ele><time>2026-04-11T14:49:44.999Z</time></trkpt><trkpt lat="44.41663776621645" lon="10.419928555427552"><ele>777.3333333333334</ele><time>2026-04-11T14:49:45.999Z</time></trkpt><trkpt lat="44.41665540762999" lon="10.42002730149694"><ele>776.6666666666667</ele><time>2026-04-11T14:49:46.999Z</time></trkpt><trkpt lat="44.41668014646469" lon="10.42014233292177"><ele>776.0</ele><time>2026-04-11T14:49:47.999Z</time></trkpt><trkpt lat="44.416697980383645" lon="10.420246907559333"><ele>776.0000000000001</ele><time>2026-04-11T14:49:48.999Z</time></trkpt><trkpt lat="44.41670123844221" lon="10.420342167561653"><ele>776.0</ele><time>2026-04-11T14:49:49.999Z</time></trkpt><trkpt lat="44.41670913812936" lon="10.420433752084552"><ele>776.0</ele><time>2026-04-11T14:49:50.999Z</time></trkpt><trkpt lat="44.41672359244252" lon="10.420520165028922"><ele>776.0</ele><time>2026-04-11T14:49:51.999Z</time></trkpt><trkpt lat="44.41673372559943" lon="10.420626133333462"><ele>776.0000000000001</ele><time>2026-04-11T14:49:52.999Z</time></trkpt><trkpt lat="44.41673804517139" lon="10.42071667160129"><ele>776.0</ele><time>2026-04-11T14:49:53.999Z</time></trkpt><trkpt lat="44.41674053267902" lon="10.420875803770954"><ele>774.8</ele><time>2026-04-11T14:49:55.999Z</time></trkpt><trkpt lat="44.41672484869989" lon="10.420996260627003"><ele>773.5999999999999</ele><time>2026-04-11T14:49:57.999Z</time></trkpt><trkpt lat="44.41669559998767" lon="10.421116388604675"><ele>772.4</ele><time>2026-04-11T14:49:59.999Z</time></trkpt><trkpt lat="44.41672031257901" lon="10.421272195764043"><ele>771.2</ele><time>2026-04-11T14:50:01.999Z</time></trkpt><trkpt lat="44.41674958994368" lon="10.421420344931086"><ele>770.0</ele><time>2026-04-11T14:50:03.999Z</time></trkpt><trkpt lat="44.416791638211855" lon="10.42154146467778"><ele>768.3333333333334</ele><time>2026-04-11T14:50:05.999Z</time></trkpt><trkpt lat="44.41682382531933" lon="10.421675884085062"><ele>766.6666666666667</ele><time>2026-04-11T14:50:07.999Z</time></trkpt><trkpt lat="44.41681526164291" lon="10.421810246591113"><ele>765.0</ele><time>2026-04-11T14:50:10Z</time></trkpt><trkpt lat="44.41677672141894" lon="10.42190444297388"><ele>763.3333333333334</ele><time>2026-04-11T14:50:13Z</time></trkpt><trkpt lat="44.41674785029222" lon="10.421990419633618"><ele>761.6666666666667</ele><time>2026-04-11T14:50:15Z</time></trkpt><trkpt lat="44.41670487338327" lon="10.422081294557286"><ele>760.0</ele><time>2026-04-11T14:50:17Z</time></trkpt><trkpt lat="44.41663401318529" lon="10.422146340428979"><ele>759.0</ele><time>2026-04-11T14:50:19Z</time></trkpt><trkpt lat="44.41654771257541" lon="10.422211242420351"><ele>758.0</ele><time>2026-04-11T14:50:21Z</time></trkpt><trkpt lat="44.416492345796016" lon="10.42227960514775"><ele>757.0</ele><time>2026-04-11T14:50:23Z</time></trkpt><trkpt lat="44.41647680154548" lon="10.422379134073722"><ele>756.0</ele><time>2026-04-11T14:50:25Z</time></trkpt><trkpt lat="44.416462297008195" lon="10.422483834914157"><ele>755.0</ele><time>2026-04-11T14:50:27Z</time></trkpt><trkpt lat="44.4163497691347" lon="10.422549801452762"><ele>754.0</ele><time>2026-04-11T14:50:28Z</time></trkpt><trkpt lat="44.41630505468742" lon="10.422412258572791"><ele>754.0</ele><time>2026-04-11T14:50:35Z</time></trkpt><trkpt lat="44.416230951661646" lon="10.422305724005785"><ele>754.0</ele><time>2026-04-11T14:50:37Z</time></trkpt><trkpt lat="44.41618012118947" lon="10.422239283585247"><ele>754.0</ele><time>2026-04-11T14:50:38Z</time></trkpt><trkpt lat="44.416115539974165" lon="10.4221010065125"><ele>754.0</ele><time>2026-04-11T14:50:40Z</time></trkpt><trkpt lat="44.41610210478828" lon="10.421999526588811"><ele>754.0</ele><time>2026-04-11T14:50:41Z</time></trkpt><trkpt lat="44.416023390955665" lon="10.421980010336085"><ele>754.0</ele><time>2026-04-11T14:50:42Z</time></trkpt><trkpt lat="44.41610726672489" lon="10.421787836040052"><ele>754.8000000000001</ele><time>2026-04-11T14:50:43Z</time></trkpt><trkpt lat="44.41608583789141" lon="10.421625224445737"><ele>755.6</ele><time>2026-04-11T14:50:45Z</time></trkpt><trkpt lat="44.4159993683899" lon="10.42150324590325"><ele>756.4</ele><time>2026-04-11T14:50:47Z</time></trkpt><trkpt lat="44.415964952132576" lon="10.421418423132568"><ele>757.2</ele><time>2026-04-11T14:50:48Z</time></trkpt><trkpt lat="44.41591806715255" lon="10.42133153940386"><ele>758.0</ele><time>2026-04-11T14:50:49Z</time></trkpt><trkpt lat="44.41586090293247" lon="10.421241905080276"><ele>758.8333333333333</ele><time>2026-04-11T14:50:50Z</time></trkpt><trkpt lat="44.41580656483211" lon="10.42116065871505"><ele>759.6666666666666</ele><time>2026-04-11T14:50:51Z</time></trkpt><trkpt lat="44.415747927326485" lon="10.421080739461225"><ele>760.5</ele><time>2026-04-11T14:50:52Z</time></trkpt><trkpt lat="44.41567527709579" lon="10.42101333816675"><ele>761.3333333333334</ele><time>2026-04-11T14:50:53Z</time></trkpt><trkpt lat="44.41559726158098" lon="10.420970651346394"><ele>762.1666666666667</ele><time>2026-04-11T14:50:54Z</time></trkpt><trkpt lat="44.41552101821335" lon="10.42095208846281"><ele>763.0</ele><time>2026-04-11T14:50:55Z</time></trkpt><trkpt lat="44.41545918387214" lon="10.420934675797376"><ele>763.3333333333334</ele><time>2026-04-11T14:50:56Z</time></trkpt><trkpt lat="44.41536641579927" lon="10.420932236005827"><ele>763.6666666666667</ele><time>2026-04-11T14:50:57.999Z</time></trkpt><trkpt lat="44.415289060665614" lon="10.420926287522796"><ele>764.0</ele><time>2026-04-11T14:51:00.999Z</time></trkpt><trkpt lat="44.41522587588439" lon="10.420913853390369"><ele>764.3333333333334</ele><time>2026-04-11T14:51:04.999Z</time></trkpt><trkpt lat="44.41516084818086" lon="10.420906920356494"><ele>764.6666666666666</ele><time>2026-04-11T14:51:06.999Z</time></trkpt><trkpt lat="44.41503340392174" lon="10.420866021065637"><ele>765.0</ele><time>2026-04-11T14:51:08.999Z</time></trkpt><trkpt lat="44.41497996028727" lon="10.420769652478588"><ele>765.0</ele><time>2026-04-11T14:51:09.999Z</time></trkpt><trkpt lat="44.41491255589599" lon="10.420714457828183"><ele>765.0</ele><time>2026-04-11T14:51:10.999Z</time></trkpt><trkpt lat="44.41483882742661" lon="10.420680149908899"><ele>765.0</ele><time>2026-04-11T14:51:11.999Z</time></trkpt><trkpt lat="44.414770851319346" lon="10.420625287093351"><ele>765.0</ele><time>2026-04-11T14:51:12.999Z</time></trkpt><trkpt lat="44.414699424808255" lon="10.420584849411044"><ele>765.0</ele><time>2026-04-11T14:51:13.999Z</time></trkpt><trkpt lat="44.41462205549861" lon="10.420540099743903"><ele>765.0</ele><time>2026-04-11T14:51:14.999Z</time></trkpt><trkpt lat="44.41454021334756" lon="10.420479443048718"><ele>767.0</ele><time>2026-04-11T14:51:15.999Z</time></trkpt><trkpt lat="44.41446162143514" lon="10.420469616066425"><ele>769.0</ele><time>2026-04-11T14:51:16.999Z</time></trkpt><trkpt lat="44.414395867995836" lon="10.420461864749123"><ele>771.0</ele><time>2026-04-11T14:51:17.999Z</time></trkpt><trkpt lat="44.41431973752566" lon="10.420469435328636"><ele>773.0</ele><time>2026-04-11T14:51:18.999Z</time></trkpt><trkpt lat="44.41425492062867" lon="10.420447455449104"><ele>775.0</ele><time>2026-04-11T14:51:19.999Z</time></trkpt><trkpt lat="44.41416904087914" lon="10.4204573682025"><ele>777.0</ele><time>2026-04-11T14:51:21.999Z</time></trkpt><trkpt lat="44.41413131371609" lon="10.420645864290043"><ele>777.0</ele><time>2026-04-11T14:51:24.999Z</time></trkpt><trkpt lat="44.41415282272981" lon="10.420762820468669"><ele>777.0</ele><time>2026-04-11T14:51:26.999Z</time></trkpt><trkpt lat="44.414155784710054" lon="10.420891454365997"><ele>777.0</ele><time>2026-04-11T14:51:27.999Z</time></trkpt><trkpt lat="44.41412117890677" lon="10.421036906022563"><ele>777.0</ele><time>2026-04-11T14:51:28.999Z</time></trkpt><trkpt lat="44.41410937357624" lon="10.421188566294344"><ele>777.0</ele><time>2026-04-11T14:51:29.999Z</time></trkpt><trkpt lat="44.41407790304095" lon="10.421343524449801"><ele>775.8</ele><time>2026-04-11T14:51:30.999Z</time></trkpt><trkpt lat="44.414053524785295" lon="10.421493672727108"><ele>774.6</ele><time>2026-04-11T14:51:31.999Z</time></trkpt><trkpt lat="44.414042384387145" lon="10.421610253356986"><ele>773.4</ele><time>2026-04-11T14:51:32.999Z</time></trkpt><trkpt lat="44.41401167266667" lon="10.421745677151787"><ele>772.1999999999999</ele><time>2026-04-11T14:51:34.999Z</time></trkpt><trkpt lat="44.41390135291965" lon="10.42175963323492"><ele>771.0</ele><time>2026-04-11T14:51:37.999Z</time></trkpt><trkpt lat="44.41379949383309" lon="10.421740143195777"><ele>771.0</ele><time>2026-04-11T14:51:39.999Z</time></trkpt><trkpt lat="44.41373489246675" lon="10.421773951150179"><ele>771.0</ele><time>2026-04-11T14:51:40.999Z</time></trkpt><trkpt lat="44.41366281257114" lon="10.421784066140331"><ele>771.0</ele><time>2026-04-11T14:51:41.999Z</time></trkpt><trkpt lat="44.41354380793906" lon="10.421516914191349"><ele>771.0</ele><time>2026-04-11T14:51:42.999Z</time></trkpt><trkpt lat="44.41346336020994" lon="10.42145793925046"><ele>771.0</ele><time>2026-04-11T14:51:43.999Z</time></trkpt><trkpt lat="44.41340434130652" lon="10.421410337665849"><ele>771.0</ele><time>2026-04-11T14:51:44.999Z</time></trkpt><trkpt lat="44.413335163117026" lon="10.421376252909287"><ele>771.0</ele><time>2026-04-11T14:51:46.999Z</time></trkpt><trkpt lat="44.41325552959592" lon="10.421322761713496"><ele>771.0</ele><time>2026-04-11T14:52:28Z</time></trkpt><trkpt lat="44.41315027375448" lon="10.421252310995168"><ele>771.0</ele><time>2026-04-11T14:52:30Z</time></trkpt><trkpt lat="44.413053265405175" lon="10.421194192475788"><ele>770.1999999999999</ele><time>2026-04-11T14:52:32Z</time></trkpt><trkpt lat="44.41297166792543" lon="10.421143979107084"><ele>769.4</ele><time>2026-04-11T14:52:34Z</time></trkpt><trkpt lat="44.412859810664706" lon="10.421070712443912"><ele>768.6</ele><time>2026-04-11T14:52:36Z</time></trkpt><trkpt lat="44.41277031990576" lon="10.42101258511581"><ele>767.8</ele><time>2026-04-11T14:52:38Z</time></trkpt><trkpt lat="44.41268424058641" lon="10.420944176221571"><ele>767.0</ele><time>2026-04-11T14:52:40Z</time></trkpt><trkpt lat="44.41259906065509" lon="10.42085349354035"><ele>767.0</ele><time>2026-04-11T14:52:42Z</time></trkpt><trkpt lat="44.41253834288532" lon="10.420782812691881"><ele>767.0</ele><time>2026-04-11T14:52:44Z</time></trkpt><trkpt lat="44.412487864755605" lon="10.420724737272119"><ele>767.0</ele><time>2026-04-11T14:52:48Z</time></trkpt><trkpt lat="44.412395105209164" lon="10.420715712956529"><ele>767.0</ele><time>2026-04-11T14:52:54Z</time></trkpt><trkpt lat="44.412330641523866" lon="10.420753076723063"><ele>767.0</ele><time>2026-04-11T14:52:56Z</time></trkpt><trkpt lat="44.41228984770674" lon="10.420878012901971"><ele>767.0</ele><time>2026-04-11T14:52:58Z</time></trkpt><trkpt lat="44.412254823537076" lon="10.421006040179961"><ele>767.0</ele><time>2026-04-11T14:53:00Z</time></trkpt><trkpt lat="44.41218211749018" lon="10.421119101964026"><ele>767.0</ele><time>2026-04-11T14:53:02Z</time></trkpt><trkpt lat="44.4120978359262" lon="10.421200552877208"><ele>767.0</ele><time>2026-04-11T14:53:04Z</time></trkpt><trkpt lat="44.411962910575646" lon="10.421227897623206"><ele>767.0</ele><time>2026-04-11T14:53:06Z</time></trkpt><trkpt lat="44.41182904618225" lon="10.421259060923793"><ele>766.5</ele><time>2026-04-11T14:53:08Z</time></trkpt><trkpt lat="44.411754424083234" lon="10.4212784418846"><ele>766.0</ele><time>2026-04-11T14:53:09Z</time></trkpt><trkpt lat="44.41168130145893" lon="10.421315302617147"><ele>765.5</ele><time>2026-04-11T14:53:10Z</time></trkpt><trkpt lat="44.411613852341134" lon="10.421348266377619"><ele>765.0</ele><time>2026-04-11T14:53:11Z</time></trkpt><trkpt lat="44.411504248236035" lon="10.421398599208654"><ele>764.5</ele><time>2026-04-11T14:53:13Z</time></trkpt><trkpt lat="44.41143776492545" lon="10.421482881237747"><ele>764.0</ele><time>2026-04-11T14:53:15Z</time></trkpt><trkpt lat="44.41142013929797" lon="10.421573559662857"><ele>764.8000000000001</ele><time>2026-04-11T14:53:15.999Z</time></trkpt><trkpt lat="44.41138916669698" lon="10.421671014792176"><ele>765.6</ele><time>2026-04-11T14:53:16.999Z</time></trkpt><trkpt lat="44.411344716230616" lon="10.42176458897242"><ele>766.4</ele><time>2026-04-11T14:53:17.999Z</time></trkpt><trkpt lat="44.41128530862477" lon="10.421845055700414"><ele>767.2</ele><time>2026-04-11T14:53:18.999Z</time></trkpt><trkpt lat="44.41117429749254" lon="10.422010588661486"><ele>768.0</ele><time>2026-04-11T14:53:20.999Z</time></trkpt><trkpt lat="44.41112472631319" lon="10.422111543729548"><ele>769.4</ele><time>2026-04-11T14:53:21.999Z</time></trkpt><trkpt lat="44.4110801860597" lon="10.422221426239727"><ele>770.8</ele><time>2026-04-11T14:53:22.999Z</time></trkpt><trkpt lat="44.41103301756743" lon="10.422335432064932"><ele>772.2</ele><time>2026-04-11T14:53:23.999Z</time></trkpt><trkpt lat="44.41098007769747" lon="10.422453858733897"><ele>773.6</ele><time>2026-04-11T14:53:24.999Z</time></trkpt><trkpt lat="44.41090867648294" lon="10.422579846278882"><ele>775.0</ele><time>2026-04-11T14:53:26.999Z</time></trkpt><trkpt lat="44.410846417089125" lon="10.422674037156387"><ele>774.9999999999999</ele><time>2026-04-11T14:53:28.999Z</time></trkpt><trkpt lat="44.41079951807105" lon="10.422801146820776"><ele>775.0</ele><time>2026-04-11T14:53:33.999Z</time></trkpt><trkpt lat="44.41070677305097" lon="10.422820392485827"><ele>775.0</ele><time>2026-04-11T14:53:35.999Z</time></trkpt><trkpt lat="44.41064980322894" lon="10.422776829929035"><ele>775.0</ele><time>2026-04-11T14:53:37.999Z</time></trkpt><trkpt lat="44.41056192168221" lon="10.422811363661923"><ele>774.9999999999999</ele><time>2026-04-11T14:53:39.999Z</time></trkpt><trkpt lat="44.410469552910506" lon="10.422848644214227"><ele>775.0</ele><time>2026-04-11T14:53:41.999Z</time></trkpt><trkpt lat="44.4103809922401" lon="10.422904964351504"><ele>776.3333333333333</ele><time>2026-04-11T14:53:43.999Z</time></trkpt><trkpt lat="44.41031737011565" lon="10.422984106724662"><ele>777.6666666666666</ele><time>2026-04-11T14:53:45.999Z</time></trkpt><trkpt lat="44.410287644731035" lon="10.423109836092348"><ele>779.0</ele><time>2026-04-11T14:53:47.999Z</time></trkpt><trkpt lat="44.41026870905506" lon="10.42320073385363"><ele>780.3333333333333</ele><time>2026-04-11T14:53:48.999Z</time></trkpt><trkpt lat="44.410233361902506" lon="10.423325758753503"><ele>781.6666666666666</ele><time>2026-04-11T14:53:50.999Z</time></trkpt><trkpt lat="44.410217312536446" lon="10.42341795383517"><ele>783.0</ele><time>2026-04-11T14:53:52.999Z</time></trkpt><trkpt lat="44.41020844594127" lon="10.423511256462191"><ele>783.0</ele><time>2026-04-11T14:53:54.999Z</time></trkpt><trkpt lat="44.41021152376669" lon="10.423615596151953"><ele>783.0</ele><time>2026-04-11T14:53:56.999Z</time></trkpt><trkpt lat="44.41020813112131" lon="10.423732071466617"><ele>783.0</ele><time>2026-04-11T14:53:58.999Z</time></trkpt><trkpt lat="44.41020654970698" lon="10.423822505116192"><ele>783.0</ele><time>2026-04-11T14:54:00.999Z</time></trkpt><trkpt lat="44.410207186614755" lon="10.42392080235801"><ele>783.0</ele><time>2026-04-11T14:54:02.999Z</time></trkpt><trkpt lat="44.410227010084014" lon="10.4240525329568"><ele>783.0</ele><time>2026-04-11T14:54:05.999Z</time></trkpt><trkpt lat="44.41026626225421" lon="10.424141321316567"><ele>782.8</ele><time>2026-04-11T14:54:07.999Z</time></trkpt><trkpt lat="44.410293236982504" lon="10.424279101122101"><ele>782.5999999999999</ele><time>2026-04-11T14:54:09.999Z</time></trkpt><trkpt lat="44.410312367063135" lon="10.424409456852395"><ele>782.4000000000001</ele><time>2026-04-11T14:54:11.999Z</time></trkpt><trkpt lat="44.41031505562067" lon="10.424521808976932"><ele>782.2</ele><time>2026-04-11T14:54:13.999Z</time></trkpt><trkpt lat="44.41033043474497" lon="10.424663471852837"><ele>782.0</ele><time>2026-04-11T14:54:15.999Z</time></trkpt><trkpt lat="44.410366231076466" lon="10.424747998638706"><ele>782.0000000000001</ele><time>2026-04-11T14:54:17.999Z</time></trkpt><trkpt lat="44.410324996654296" lon="10.424819653673495"><ele>782.0</ele><time>2026-04-11T14:54:18.999Z</time></trkpt><trkpt lat="44.410278139579795" lon="10.424925347589829"><ele>782.0</ele><time>2026-04-11T14:54:21Z</time></trkpt><trkpt lat="44.41033581062137" lon="10.42506097923408"><ele>782.0</ele><time>2026-04-11T14:54:23Z</time></trkpt><trkpt lat="44.41032622765311" lon="10.425214713180727"><ele>782.0000000000001</ele><time>2026-04-11T14:54:25Z</time></trkpt><trkpt lat="44.41028853293525" lon="10.425298726931082"><ele>782.0</ele><time>2026-04-11T14:54:26Z</time></trkpt><trkpt lat="44.410242404721366" lon="10.425383441163829"><ele>781.5000000000001</ele><time>2026-04-11T14:54:28Z</time></trkpt><trkpt lat="44.41017900223306" lon="10.425496880867806"><ele>781.0</ele><time>2026-04-11T14:54:30Z</time></trkpt><trkpt lat="44.41012265054682" lon="10.425589409583894"><ele>780.5</ele><time>2026-04-11T14:54:32Z</time></trkpt><trkpt lat="44.41005383804957" lon="10.425609387371384"><ele>780.0</ele><time>2026-04-11T14:54:34Z</time></trkpt><trkpt lat="44.409990236357416" lon="10.425656276087642"><ele>779.5000000000001</ele><time>2026-04-11T14:54:36Z</time></trkpt><trkpt lat="44.41003935646279" lon="10.425738766598725"><ele>779.0</ele><time>2026-04-11T14:54:39Z</time></trkpt><trkpt lat="44.41006731173745" lon="10.425845271850807"><ele>779.0</ele><time>2026-04-11T14:54:41Z</time></trkpt><trkpt lat="44.41005669722785" lon="10.425994574196187"><ele>779.0</ele><time>2026-04-11T14:54:43Z</time></trkpt><trkpt lat="44.41004465391097" lon="10.426093263990836"><ele>779.0</ele><time>2026-04-11T14:54:44Z</time></trkpt><trkpt lat="44.410049565952065" lon="10.426204399206181"><ele>779.0</ele><time>2026-04-11T14:54:46Z</time></trkpt><trkpt lat="44.4100936626522" lon="10.42634648133308"><ele>779.0</ele><time>2026-04-11T14:54:48Z</time></trkpt><trkpt lat="44.410108778574866" lon="10.426470260894424"><ele>779.1666666666667</ele><time>2026-04-11T14:54:49Z</time></trkpt><trkpt lat="44.41010138703699" lon="10.426572053978287"><ele>779.3333333333334</ele><time>2026-04-11T14:54:50Z</time></trkpt><trkpt lat="44.41008760643092" lon="10.426677080561403"><ele>779.5</ele><time>2026-04-11T14:54:51Z</time></trkpt><trkpt lat="44.410095151927095" lon="10.426807529437268"><ele>779.6666666666667</ele><time>2026-04-11T14:54:52Z</time></trkpt><trkpt lat="44.410115644248094" lon="10.426914773301576"><ele>779.8333333333334</ele><time>2026-04-11T14:54:53Z</time></trkpt><trkpt lat="44.41013916230111" lon="10.427008621987584"><ele>780.0</ele><time>2026-04-11T14:54:54Z</time></trkpt><trkpt lat="44.41015112228051" lon="10.427196602696286"><ele>780.0</ele><time>2026-04-11T14:54:56Z</time></trkpt><trkpt lat="44.410147678429986" lon="10.42730982300879"><ele>780.0</ele><time>2026-04-11T14:54:57Z</time></trkpt><trkpt lat="44.41013905765121" lon="10.427419743605933"><ele>780.0</ele><time>2026-04-11T14:54:58Z</time></trkpt><trkpt lat="44.41013464724644" lon="10.427533866717932"><ele>780.0</ele><time>2026-04-11T14:54:59Z</time></trkpt><trkpt lat="44.410129378897636" lon="10.42763723848515"><ele>780.0</ele><time>2026-04-11T14:55:00Z</time></trkpt><trkpt lat="44.41010718810107" lon="10.427797638600827"><ele>780.0</ele><time>2026-04-11T14:55:02Z</time></trkpt><trkpt lat="44.41008614493517" lon="10.42789381852992"><ele>779.1666666666666</ele><time>2026-04-11T14:55:04Z</time></trkpt><trkpt lat="44.410071962030685" lon="10.427984460563499"><ele>778.3333333333333</ele><time>2026-04-11T14:55:06Z</time></trkpt><trkpt lat="44.41007192429624" lon="10.42812952239841"><ele>777.5</ele><time>2026-04-11T14:55:08Z</time></trkpt><trkpt lat="44.410085044679086" lon="10.428224650344704"><ele>776.6666666666666</ele><time>2026-04-11T14:55:09Z</time></trkpt><trkpt lat="44.410099868967" lon="10.428339143631442"><ele>775.8333333333333</ele><time>2026-04-11T14:55:10Z</time></trkpt><trkpt lat="44.41010856433392" lon="10.428439149533164"><ele>775.0</ele><time>2026-04-11T14:55:11Z</time></trkpt><trkpt lat="44.41012790595475" lon="10.428548998108992"><ele>774.9999999999999</ele><time>2026-04-11T14:55:12Z</time></trkpt><trkpt lat="44.41014298750619" lon="10.428663290331263"><ele>775.0</ele><time>2026-04-11T14:55:13Z</time></trkpt><trkpt lat="44.41016573979343" lon="10.428779506130537"><ele>775.0</ele><time>2026-04-11T14:55:14Z</time></trkpt><trkpt lat="44.41018467677511" lon="10.428895227307216"><ele>775.0</ele><time>2026-04-11T14:55:15Z</time></trkpt><trkpt lat="44.41020360072343" lon="10.428995202620046"><ele>774.9999999999999</ele><time>2026-04-11T14:55:16Z</time></trkpt><trkpt lat="44.410215481592935" lon="10.429083356711713"><ele>775.0</ele><time>2026-04-11T14:55:17Z</time></trkpt><trkpt lat="44.41024618081614" lon="10.429267454229246"><ele>776.0</ele><time>2026-04-11T14:55:19Z</time></trkpt><trkpt lat="44.41026782453659" lon="10.429351878207619"><ele>777.0</ele><time>2026-04-11T14:55:20Z</time></trkpt><trkpt lat="44.41029696618982" lon="10.429443724203065"><ele>778.0</ele><time>2026-04-11T14:55:21Z</time></trkpt><trkpt lat="44.41034582923615" lon="10.42959066585458"><ele>779.0</ele><time>2026-04-11T14:55:23Z</time></trkpt><trkpt lat="44.4104067250323" lon="10.429744337263731"><ele>780.0</ele><time>2026-04-11T14:55:25Z</time></trkpt><trkpt lat="44.41045196421369" lon="10.429834987289631"><ele>782.0</ele><time>2026-04-11T14:55:26Z</time></trkpt><trkpt lat="44.41048485818949" lon="10.429931196247901"><ele>784.0</ele><time>2026-04-11T14:55:27Z</time></trkpt><trkpt lat="44.41051061868601" lon="10.430026336517637"><ele>786.0</ele><time>2026-04-11T14:55:28Z</time></trkpt><trkpt lat="44.410567305807646" lon="10.43018692553748"><ele>788.0</ele><time>2026-04-11T14:55:30Z</time></trkpt><trkpt lat="44.41059412862514" lon="10.430361887288846"><ele>790.0</ele><time>2026-04-11T14:55:32Z</time></trkpt><trkpt lat="44.41059201163927" lon="10.430500505845332"><ele>785.8</ele><time>2026-04-11T14:55:34Z</time></trkpt><trkpt lat="44.41063327578787" lon="10.430615725680878"><ele>781.6</ele><time>2026-04-11T14:55:36Z</time></trkpt><trkpt lat="44.41067387183604" lon="10.43074269571973"><ele>777.4000000000001</ele><time>2026-04-11T14:55:38Z</time></trkpt><trkpt lat="44.41066182000942" lon="10.43089956976492"><ele>773.2</ele><time>2026-04-11T14:55:40.999Z</time></trkpt><trkpt lat="44.410615008201816" lon="10.431072955654876"><ele>769.0</ele><time>2026-04-11T14:55:42.999Z</time></trkpt><trkpt lat="44.41058370929877" lon="10.431170874066677"><ele>768.9999999999999</ele><time>2026-04-11T14:55:43.999Z</time></trkpt><trkpt lat="44.4105304499307" lon="10.431300551407926"><ele>769.0</ele><time>2026-04-11T14:55:45.999Z</time></trkpt><trkpt lat="44.410492542489045" lon="10.43137311444561"><ele>769.0</ele><time>2026-04-11T14:55:46.999Z</time></trkpt><trkpt lat="44.410419404478674" lon="10.431473373440731"><ele>769.0</ele><time>2026-04-11T14:55:49.999Z</time></trkpt><trkpt lat="44.410357872227124" lon="10.431512623908535"><ele>768.9999999999999</ele><time>2026-04-11T14:55:50.999Z</time></trkpt><trkpt lat="44.41029870925464" lon="10.431552242744985"><ele>769.0</ele><time>2026-04-11T14:55:51.999Z</time></trkpt><trkpt lat="44.41020683157453" lon="10.431574722329609"><ele>771.6666666666666</ele><time>2026-04-11T14:55:53.999Z</time></trkpt><trkpt lat="44.41010750341099" lon="10.431575412224888"><ele>774.3333333333333</ele><time>2026-04-11T14:55:55.999Z</time></trkpt><trkpt lat="44.41003663999492" lon="10.431586122232217"><ele>777.0</ele><time>2026-04-11T14:55:56.999Z</time></trkpt><trkpt lat="44.409952683496904" lon="10.43159370724787"><ele>779.6666666666667</ele><time>2026-04-11T14:55:57.999Z</time></trkpt><trkpt lat="44.40986031274405" lon="10.431596373154932"><ele>782.3333333333334</ele><time>2026-04-11T14:55:58.999Z</time></trkpt><trkpt lat="44.40979335196749" lon="10.431620471497908"><ele>785.0</ele><time>2026-04-11T14:55:59.999Z</time></trkpt><trkpt lat="44.40966276168241" lon="10.431630373753716"><ele>787.0000000000001</ele><time>2026-04-11T14:56:01.999Z</time></trkpt><trkpt lat="44.409590352944065" lon="10.43165069409265"><ele>789.0</ele><time>2026-04-11T14:56:02.999Z</time></trkpt><trkpt lat="44.40951870448703" lon="10.431681086539077"><ele>791.0</ele><time>2026-04-11T14:56:03.999Z</time></trkpt><trkpt lat="44.40944870374983" lon="10.431726564827636"><ele>793.0</ele><time>2026-04-11T14:56:04.999Z</time></trkpt><trkpt lat="44.40938997258146" lon="10.431772682979819"><ele>795.0000000000001</ele><time>2026-04-11T14:56:05.999Z</time></trkpt><trkpt lat="44.40931824621033" lon="10.431797963850064"><ele>797.0</ele><time>2026-04-11T14:56:06.999Z</time></trkpt><trkpt lat="44.4092151199764" lon="10.431843633741478"><ele>797.0</ele><time>2026-04-11T14:56:08.999Z</time></trkpt><trkpt lat="44.40913850076041" lon="10.431983891089695"><ele>797.0</ele><time>2026-04-11T14:56:10.999Z</time></trkpt><trkpt lat="44.409096522842034" lon="10.432076791189829"><ele>797.0</ele><time>2026-04-11T14:56:12.999Z</time></trkpt><trkpt lat="44.4090489555527" lon="10.432174933659525"><ele>797.0</ele><time>2026-04-11T14:56:15.999Z</time></trkpt><trkpt lat="44.40904320175104" lon="10.432291217657896"><ele>797.0</ele><time>2026-04-11T14:56:21.999Z</time></trkpt><trkpt lat="44.40907268060785" lon="10.432423673534323"><ele>795.1666666666667</ele><time>2026-04-11T14:56:23.999Z</time></trkpt><trkpt lat="44.40907107804942" lon="10.432551186366316"><ele>793.3333333333334</ele><time>2026-04-11T14:56:26Z</time></trkpt><trkpt lat="44.40911309107191" lon="10.432622444243743"><ele>791.5</ele><time>2026-04-11T14:56:29Z</time></trkpt><trkpt lat="44.409122217437734" lon="10.43248495225223"><ele>789.6666666666667</ele><time>2026-04-11T14:56:33Z</time></trkpt><trkpt lat="44.40908290427294" lon="10.432407519040474"><ele>787.8333333333334</ele><time>2026-04-11T14:56:34Z</time></trkpt><trkpt lat="44.40904569718764" lon="10.432306486311996"><ele>786.0</ele><time>2026-04-11T14:56:35Z</time></trkpt><trkpt lat="44.40902586230548" lon="10.432193982803577"><ele>786.1999999999999</ele><time>2026-04-11T14:56:36Z</time></trkpt><trkpt lat="44.40902200193347" lon="10.432085940322638"><ele>786.4</ele><time>2026-04-11T14:56:37Z</time></trkpt><trkpt lat="44.409016221821105" lon="10.431979002965798"><ele>786.6</ele><time>2026-04-11T14:56:38Z</time></trkpt><trkpt lat="44.40896226316878" lon="10.43184992073257"><ele>786.8</ele><time>2026-04-11T14:56:40Z</time></trkpt><trkpt lat="44.408854058736495" lon="10.431781688478724"><ele>787.0</ele><time>2026-04-11T14:56:42Z</time></trkpt><trkpt lat="44.408751319023224" lon="10.431707418130781"><ele>787.0</ele><time>2026-04-11T14:56:44Z</time></trkpt><trkpt lat="44.408672380234904" lon="10.431608116165407"><ele>787.0</ele><time>2026-04-11T14:56:46Z</time></trkpt><trkpt lat="44.408643594065474" lon="10.431465511175151"><ele>787.0</ele><time>2026-04-11T14:56:48Z</time></trkpt><trkpt lat="44.408644648641186" lon="10.431377021516948"><ele>787.0</ele><time>2026-04-11T14:56:49Z</time></trkpt><trkpt lat="44.40856422778845" lon="10.431269874369647"><ele>787.0</ele><time>2026-04-11T14:56:51Z</time></trkpt><trkpt lat="44.40850238141237" lon="10.431223420589845"><ele>789.8</ele><time>2026-04-11T14:56:52Z</time></trkpt><trkpt lat="44.40839966982011" lon="10.431148806091686"><ele>792.6</ele><time>2026-04-11T14:56:54Z</time></trkpt><trkpt lat="44.40829738772804" lon="10.43101779322221"><ele>795.4</ele><time>2026-04-11T14:56:56Z</time></trkpt><trkpt lat="44.40821614590308" lon="10.430947515538543"><ele>798.1999999999999</ele><time>2026-04-11T14:56:57Z</time></trkpt><trkpt lat="44.40813919641049" lon="10.430900020305556"><ele>801.0</ele><time>2026-04-11T14:56:58Z</time></trkpt><trkpt lat="44.40806987865717" lon="10.430913675175152"><ele>801.0</ele><time>2026-04-11T14:56:59Z</time></trkpt><trkpt lat="44.408004327894034" lon="10.430879191391346"><ele>801.0</ele><time>2026-04-11T14:57:00Z</time></trkpt><trkpt lat="44.407936761176806" lon="10.430830508998955"><ele>801.0</ele><time>2026-04-11T14:57:01Z</time></trkpt><trkpt lat="44.4078937171559" lon="10.430753809817219"><ele>801.0</ele><time>2026-04-11T14:57:02Z</time></trkpt><trkpt lat="44.407810195559236" lon="10.43063448067495"><ele>801.0</ele><time>2026-04-11T14:57:04Z</time></trkpt><trkpt lat="44.40774715113545" lon="10.430565300300985"><ele>801.0</ele><time>2026-04-11T14:57:05Z</time></trkpt><trkpt lat="44.40769517401966" lon="10.430513375180775"><ele>802.1666666666666</ele><time>2026-04-11T14:57:06Z</time></trkpt><trkpt lat="44.40762209441784" lon="10.430401894111585"><ele>803.3333333333333</ele><time>2026-04-11T14:57:08Z</time></trkpt><trkpt lat="44.40759528217723" lon="10.430312723894158"><ele>804.5</ele><time>2026-04-11T14:57:09Z</time></trkpt><trkpt lat="44.4075722298281" lon="10.430214448796637"><ele>805.6666666666666</ele><time>2026-04-11T14:57:10Z</time></trkpt><trkpt lat="44.40753890353602" lon="10.430124223041574"><ele>806.8333333333333</ele><time>2026-04-11T14:57:11Z</time></trkpt><trkpt lat="44.40749968550337" lon="10.430031165249488"><ele>808.0</ele><time>2026-04-11T14:57:12Z</time></trkpt><trkpt lat="44.40745098824198" lon="10.429974003322526"><ele>807.9999999999999</ele><time>2026-04-11T14:57:13Z</time></trkpt><trkpt lat="44.40737142724241" lon="10.429913948083042"><ele>808.0</ele><time>2026-04-11T14:57:14Z</time></trkpt><trkpt lat="44.40729864106543" lon="10.429874430363444"><ele>808.0</ele><time>2026-04-11T14:57:15Z</time></trkpt><trkpt lat="44.40723054074072" lon="10.429856057151026"><ele>808.0</ele><time>2026-04-11T14:57:16Z</time></trkpt><trkpt lat="44.407145468993306" lon="10.429824091474838"><ele>807.9999999999999</ele><time>2026-04-11T14:57:17Z</time></trkpt><trkpt lat="44.40707718335376" lon="10.429780428325703"><ele>808.0</ele><time>2026-04-11T14:57:18Z</time></trkpt><trkpt lat="44.40701886149659" lon="10.429738677251375"><ele>807.8</ele><time>2026-04-11T14:57:19Z</time></trkpt><trkpt lat="44.40695806389827" lon="10.429611495668988"><ele>807.5999999999999</ele><time>2026-04-11T14:57:21Z</time></trkpt><trkpt lat="44.406875130314454" lon="10.429518142212093"><ele>807.4000000000001</ele><time>2026-04-11T14:57:23Z</time></trkpt><trkpt lat="44.40681347542993" lon="10.429432968462704"><ele>807.2</ele><time>2026-04-11T14:57:25Z</time></trkpt><trkpt lat="44.40678360070101" lon="10.429329671590004"><ele>807.0</ele><time>2026-04-11T14:57:27Z</time></trkpt><trkpt lat="44.40670113056098" lon="10.429210148136015"><ele>807.0</ele><time>2026-04-11T14:57:29Z</time></trkpt><trkpt lat="44.406623975560436" lon="10.429145836170457"><ele>807.0</ele><time>2026-04-11T14:57:31Z</time></trkpt><trkpt lat="44.406553087050966" lon="10.429106284758864"><ele>807.0</ele><time>2026-04-11T14:57:33Z</time></trkpt><trkpt lat="44.40645128609446" lon="10.429113669403826"><ele>807.0</ele><time>2026-04-11T14:57:35Z</time></trkpt><trkpt lat="44.40635694632562" lon="10.429152390304115"><ele>807.0</ele><time>2026-04-11T14:57:37Z</time></trkpt><trkpt lat="44.40629826666856" lon="10.429188825898258"><ele>807.0</ele><time>2026-04-11T14:57:38Z</time></trkpt><trkpt lat="44.40619028133173" lon="10.429227412181964"><ele>804.5</ele><time>2026-04-11T14:57:40Z</time></trkpt><trkpt lat="44.40613165563597" lon="10.429268209064901"><ele>802.0</ele><time>2026-04-11T14:57:42Z</time></trkpt><trkpt lat="44.406034440387465" lon="10.429270881587241"><ele>799.5</ele><time>2026-04-11T14:57:44Z</time></trkpt><trkpt lat="44.40597419575483" lon="10.42923785282956"><ele>797.0</ele><time>2026-04-11T14:57:45Z</time></trkpt><trkpt lat="44.405919855183924" lon="10.429098811915315"><ele>794.5</ele><time>2026-04-11T14:57:46.999Z</time></trkpt><trkpt lat="44.4058744919865" lon="10.429013144786715"><ele>792.0</ele><time>2026-04-11T14:57:48.999Z</time></trkpt><trkpt lat="44.40577399051275" lon="10.428956751940449"><ele>792.0</ele><time>2026-04-11T14:57:51.999Z</time></trkpt><trkpt lat="44.40567942407259" lon="10.428917870284934"><ele>792.0</ele><time>2026-04-11T14:57:53.999Z</time></trkpt><trkpt lat="44.405608508585686" lon="10.428918408752603"><ele>792.0</ele><time>2026-04-11T14:57:55.999Z</time></trkpt><trkpt lat="44.405514503022275" lon="10.428881761452203"><ele>792.0</ele><time>2026-04-11T14:57:57.999Z</time></trkpt><trkpt lat="44.40542125712969" lon="10.428873172853786"><ele>792.0</ele><time>2026-04-11T14:57:59.999Z</time></trkpt><trkpt lat="44.405355022787155" lon="10.428883084168813"><ele>792.0</ele><time>2026-04-11T14:58:00.999Z</time></trkpt><trkpt lat="44.405280917982104" lon="10.428914200699658"><ele>790.2</ele><time>2026-04-11T14:58:01.999Z</time></trkpt><trkpt lat="44.40519404350291" lon="10.428958656392622"><ele>788.4000000000001</ele><time>2026-04-11T14:58:02.999Z</time></trkpt><trkpt lat="44.40509792920421" lon="10.429011627428835"><ele>786.5999999999999</ele><time>2026-04-11T14:58:03.999Z</time></trkpt><trkpt lat="44.40502666975983" lon="10.429039732244862"><ele>784.8</ele><time>2026-04-11T14:58:04.999Z</time></trkpt><trkpt lat="44.40491926493333" lon="10.429053660403877"><ele>783.0</ele><time>2026-04-11T14:58:06.999Z</time></trkpt><trkpt lat="44.40483423741357" lon="10.428985924566948"><ele>783.0</ele><time>2026-04-11T14:58:08.999Z</time></trkpt><trkpt lat="44.40477985819498" lon="10.428927926395943"><ele>783.0</ele><time>2026-04-11T14:58:09.999Z</time></trkpt><trkpt lat="44.40471165375226" lon="10.428892067992678"><ele>783.0</ele><time>2026-04-11T14:58:10.999Z</time></trkpt><trkpt lat="44.40463203113148" lon="10.428876877483201"><ele>783.0</ele><time>2026-04-11T14:58:11.999Z</time></trkpt><trkpt lat="44.404549973266846" lon="10.428864865708972"><ele>783.0</ele><time>2026-04-11T14:58:12.999Z</time></trkpt><trkpt lat="44.4044415923274" lon="10.428841451759057"><ele>783.0</ele><time>2026-04-11T14:58:14.999Z</time></trkpt><trkpt lat="44.40433095103181" lon="10.428840692387777"><ele>783.0</ele><time>2026-04-11T14:58:16.999Z</time></trkpt><trkpt lat="44.40425334342803" lon="10.42877147797097"><ele>783.0</ele><time>2026-04-11T14:58:18.999Z</time></trkpt><trkpt lat="44.40418472739287" lon="10.42873213813851"><ele>783.0</ele><time>2026-04-11T14:58:20.999Z</time></trkpt><trkpt lat="44.4040982733655" lon="10.428734690574776"><ele>783.0</ele><time>2026-04-11T14:58:22.999Z</time></trkpt><trkpt lat="44.40398198418892" lon="10.428727565584751"><ele>783.0</ele><time>2026-04-11T14:58:24.999Z</time></trkpt><trkpt lat="44.40385490706506" lon="10.42862176834212"><ele>785.0</ele><time>2026-04-11T14:58:26.999Z</time></trkpt><trkpt lat="44.40378536943786" lon="10.428549925073101"><ele>787.0</ele><time>2026-04-11T14:58:27.999Z</time></trkpt><trkpt lat="44.40371623344439" lon="10.428493343119342"><ele>789.0</ele><time>2026-04-11T14:58:28.999Z</time></trkpt><trkpt lat="44.40364286649168" lon="10.428433359435033"><ele>791.0</ele><time>2026-04-11T14:58:29.999Z</time></trkpt><trkpt lat="44.4035643613503" lon="10.428377804462599"><ele>793.0</ele><time>2026-04-11T14:58:31Z</time></trkpt><trkpt lat="44.403507429341246" lon="10.428318872713172"><ele>795.0</ele><time>2026-04-11T14:58:32Z</time></trkpt><trkpt lat="44.403442677590164" lon="10.428264087278023"><ele>795.0</ele><time>2026-04-11T14:58:33Z</time></trkpt><trkpt lat="44.403385408513614" lon="10.428214545139506"><ele>795.0</ele><time>2026-04-11T14:58:34Z</time></trkpt><trkpt lat="44.403306860044964" lon="10.428163339279012"><ele>795.0</ele><time>2026-04-11T14:58:35Z</time></trkpt><trkpt lat="44.40322993244096" lon="10.428101926000352"><ele>795.0</ele><time>2026-04-11T14:58:36Z</time></trkpt><trkpt lat="44.40315186943114" lon="10.428058822765994"><ele>795.0</ele><time>2026-04-11T14:58:37Z</time></trkpt><trkpt lat="44.403070416807424" lon="10.428020162628137"><ele>795.0</ele><time>2026-04-11T14:58:38Z</time></trkpt><trkpt lat="44.40297957266325" lon="10.42797749714598"><ele>794.3333333333334</ele><time>2026-04-11T14:58:39Z</time></trkpt><trkpt lat="44.40290125198172" lon="10.427960639986471"><ele>793.6666666666667</ele><time>2026-04-11T14:58:40Z</time></trkpt><trkpt lat="44.402817996332566" lon="10.427945911018787"><ele>793.0</ele><time>2026-04-11T14:58:41Z</time></trkpt><trkpt lat="44.40274150413251" lon="10.427931608217415"><ele>792.3333333333334</ele><time>2026-04-11T14:58:42Z</time></trkpt><trkpt lat="44.402659347398256" lon="10.427915557931058"><ele>791.6666666666667</ele><time>2026-04-11T14:58:43Z</time></trkpt><trkpt lat="44.4025837855123" lon="10.42789674081322"><ele>791.0</ele><time>2026-04-11T14:58:44Z</time></trkpt><trkpt lat="44.40248344611844" lon="10.42784845427374"><ele>791.0</ele><time>2026-04-11T14:58:46Z</time></trkpt><trkpt lat="44.40242194485184" lon="10.427789770310158"><ele>791.0</ele><time>2026-04-11T14:58:48Z</time></trkpt><trkpt lat="44.40234413169916" lon="10.427716341076316"><ele>791.0</ele><time>2026-04-11T14:58:50Z</time></trkpt><trkpt lat="44.402258978102914" lon="10.427633408262873"><ele>791.0</ele><time>2026-04-11T14:58:52Z</time></trkpt><trkpt lat="44.40217188429192" lon="10.42757611895396"><ele>791.0</ele><time>2026-04-11T14:58:54Z</time></trkpt><trkpt lat="44.40208235332108" lon="10.42755247030197"><ele>789.1999999999999</ele><time>2026-04-11T14:58:56Z</time></trkpt><trkpt lat="44.40200426502485" lon="10.427530683290898"><ele>787.4</ele><time>2026-04-11T14:58:58Z</time></trkpt><trkpt lat="44.401927467462954" lon="10.427500961774536"><ele>785.6</ele><time>2026-04-11T14:59:00Z</time></trkpt><trkpt lat="44.40183240031558" lon="10.427439443791354"><ele>783.8</ele><time>2026-04-11T14:59:02Z</time></trkpt><trkpt lat="44.40174145214724" lon="10.427386033355594"><ele>782.0</ele><time>2026-04-11T14:59:04Z</time></trkpt><trkpt lat="44.40165424505561" lon="10.427324876387996"><ele>782.0</ele><time>2026-04-11T14:59:06Z</time></trkpt><trkpt lat="44.40155716481675" lon="10.42723804593062"><ele>782.0</ele><time>2026-04-11T14:59:08Z</time></trkpt><trkpt lat="44.401466497002936" lon="10.427157592736165"><ele>782.0</ele><time>2026-04-11T14:59:10Z</time></trkpt><trkpt lat="44.40137358594126" lon="10.427070148893536"><ele>782.0</ele><time>2026-04-11T14:59:12Z</time></trkpt><trkpt lat="44.40128151778315" lon="10.42700868271498"><ele>782.0</ele><time>2026-04-11T14:59:14Z</time></trkpt><trkpt lat="44.401188986075844" lon="10.42697402981924"><ele>780.5000000000001</ele><time>2026-04-11T14:59:16Z</time></trkpt><trkpt lat="44.40112556190989" lon="10.426975259259748"><ele>779.0</ele><time>2026-04-11T14:59:17Z</time></trkpt><trkpt lat="44.40103917985595" lon="10.42699184038169"><ele>777.5</ele><time>2026-04-11T14:59:18Z</time></trkpt><trkpt lat="44.40095994826259" lon="10.427003409297127"><ele>776.0</ele><time>2026-04-11T14:59:19Z</time></trkpt><trkpt lat="44.40088965630068" lon="10.426992777329568"><ele>774.5000000000001</ele><time>2026-04-11T14:59:20Z</time></trkpt><trkpt lat="44.400773020947376" lon="10.426953975143205"><ele>773.0</ele><time>2026-04-11T14:59:23Z</time></trkpt><trkpt lat="44.40067134451429" lon="10.426925296693796"><ele>773.0</ele><time>2026-04-11T14:59:25Z</time></trkpt><trkpt lat="44.40061018073101" lon="10.42688837223805"><ele>773.0</ele><time>2026-04-11T14:59:26Z</time></trkpt><trkpt lat="44.40051205736039" lon="10.426840916084695"><ele>773.0</ele><time>2026-04-11T14:59:28Z</time></trkpt><trkpt lat="44.400434906456915" lon="10.426764343527479"><ele>773.0</ele><time>2026-04-11T14:59:30Z</time></trkpt><trkpt lat="44.400346764890635" lon="10.42667797133503"><ele>773.0</ele><time>2026-04-11T14:59:32Z</time></trkpt><trkpt lat="44.400241802255735" lon="10.426617254353175"><ele>772.4</ele><time>2026-04-11T14:59:34Z</time></trkpt><trkpt lat="44.40015014622964" lon="10.426611164420734"><ele>771.8</ele><time>2026-04-11T14:59:36Z</time></trkpt><trkpt lat="44.40004373804516" lon="10.426600941925"><ele>771.2</ele><time>2026-04-11T14:59:38Z</time></trkpt><trkpt lat="44.39994500550237" lon="10.426606167229405"><ele>770.6</ele><time>2026-04-11T14:59:40Z</time></trkpt><trkpt lat="44.39984196075413" lon="10.426607092482003"><ele>770.0</ele><time>2026-04-11T14:59:42Z</time></trkpt><trkpt lat="44.399734054220446" lon="10.426578504107706"><ele>767.4</ele><time>2026-04-11T14:59:44Z</time></trkpt><trkpt lat="44.399631119180796" lon="10.426587450898875"><ele>764.8</ele><time>2026-04-11T14:59:46Z</time></trkpt><trkpt lat="44.39952321852429" lon="10.426544086231791"><ele>762.2</ele><time>2026-04-11T14:59:47.999Z</time></trkpt><trkpt lat="44.39943065619192" lon="10.426485611212827"><ele>759.6</ele><time>2026-04-11T14:59:49.999Z</time></trkpt><trkpt lat="44.39934660954905" lon="10.426459147158553"><ele>757.0</ele><time>2026-04-11T14:59:52.999Z</time></trkpt><trkpt lat="44.39928599036356" lon="10.426373225256063"><ele>756.8</ele><time>2026-04-11T14:59:55.999Z</time></trkpt><trkpt lat="44.39930467185299" lon="10.426214698000198"><ele>756.6</ele><time>2026-04-11T14:59:57.999Z</time></trkpt><trkpt lat="44.39922838351832" lon="10.426090864588842"><ele>756.4</ele><time>2026-04-11T14:59:59.999Z</time></trkpt><trkpt lat="44.39916417751682" lon="10.426006967986371"><ele>756.1999999999999</ele><time>2026-04-11T15:00:01.999Z</time></trkpt><trkpt lat="44.399163455335284" lon="10.425917959897077"><ele>756.0</ele><time>2026-04-11T15:00:02.999Z</time></trkpt><trkpt lat="44.39917702080625" lon="10.4257877828181"><ele>756.0</ele><time>2026-04-11T15:00:04.999Z</time></trkpt><trkpt lat="44.39918703402392" lon="10.42561939600043"><ele>756.0</ele><time>2026-04-11T15:00:06.999Z</time></trkpt><trkpt lat="44.39916429355665" lon="10.425524674939046"><ele>756.0</ele><time>2026-04-11T15:00:08.999Z</time></trkpt><trkpt lat="44.39909046337195" lon="10.425416535875046"><ele>756.0</ele><time>2026-04-11T15:00:10.999Z</time></trkpt><trkpt lat="44.399034997208126" lon="10.42531508345265"><ele>756.0</ele><time>2026-04-11T15:00:12.999Z</time></trkpt><trkpt lat="44.398994627498226" lon="10.425155087315124"><ele>754.1999999999999</ele><time>2026-04-11T15:00:14.999Z</time></trkpt><trkpt lat="44.39895559436814" lon="10.4250170360354"><ele>752.4</ele><time>2026-04-11T15:00:17.999Z</time></trkpt><trkpt lat="44.39893275469176" lon="10.424911621362934"><ele>750.6</ele><time>2026-04-11T15:00:19.999Z</time></trkpt><trkpt lat="44.39890049772559" lon="10.42476966454515"><ele>748.8</ele><time>2026-04-11T15:00:21.999Z</time></trkpt><trkpt lat="44.3988552519148" lon="10.424668692601102"><ele>747.0</ele><time>2026-04-11T15:00:23.999Z</time></trkpt><trkpt lat="44.398771417984854" lon="10.424564894105442"><ele>744.6</ele><time>2026-04-11T15:00:25.999Z</time></trkpt><trkpt lat="44.39867159278621" lon="10.424449305599708"><ele>742.2</ele><time>2026-04-11T15:00:27.999Z</time></trkpt><trkpt lat="44.39859716036215" lon="10.424408726841833"><ele>739.8</ele><time>2026-04-11T15:00:29.999Z</time></trkpt><trkpt lat="44.39854012048756" lon="10.42430787449273"><ele>737.4</ele><time>2026-04-11T15:00:31.999Z</time></trkpt><trkpt lat="44.398523923845815" lon="10.424192474776266"><ele>735.0</ele><time>2026-04-11T15:00:33.999Z</time></trkpt><trkpt lat="44.39848322854035" lon="10.424104727354186"><ele>735.0</ele><time>2026-04-11T15:00:35.999Z</time></trkpt><trkpt lat="44.39843668659954" lon="10.424028606023018"><ele>735.0</ele><time>2026-04-11T15:00:38Z</time></trkpt><trkpt lat="44.39837978920997" lon="10.42398696658146"><ele>735.0</ele><time>2026-04-11T15:00:40Z</time></trkpt><trkpt lat="44.39830390814146" lon="10.423945677627186"><ele>735.0</ele><time>2026-04-11T15:00:47Z</time></trkpt><trkpt lat="44.39823229191543" lon="10.423936302640529"><ele>735.0</ele><time>2026-04-11T15:00:49Z</time></trkpt><trkpt lat="44.39816327504334" lon="10.423943951752365"><ele>735.0</ele><time>2026-04-11T15:00:51Z</time></trkpt><trkpt lat="44.39809256640796" lon="10.423874525147744"><ele>735.0</ele><time>2026-04-11T15:00:54Z</time></trkpt><trkpt lat="44.39802201828602" lon="10.423844521858657"><ele>730.6</ele><time>2026-04-11T15:00:58Z</time></trkpt><trkpt lat="44.39796125265715" lon="10.423817946202313"><ele>726.2</ele><time>2026-04-11T15:01:01Z</time></trkpt><trkpt lat="44.397872827911534" lon="10.423781488917006"><ele>721.8</ele><time>2026-04-11T15:01:05Z</time></trkpt><trkpt lat="44.397787036500134" lon="10.42364895904077"><ele>717.4</ele><time>2026-04-11T15:01:07Z</time></trkpt><trkpt lat="44.39770099755699" lon="10.42357041608169"><ele>713.0</ele><time>2026-04-11T15:01:09Z</time></trkpt><trkpt lat="44.397638304607874" lon="10.423417374393381"><ele>713.0</ele><time>2026-04-11T15:01:11Z</time></trkpt><trkpt lat="44.397610436723554" lon="10.423336407370451"><ele>713.0</ele><time>2026-04-11T15:01:12Z</time></trkpt><trkpt lat="44.397568127199676" lon="10.423194741977724"><ele>713.0</ele><time>2026-04-11T15:01:14Z</time></trkpt><trkpt lat="44.39753686066627" lon="10.423027819766478"><ele>713.0</ele><time>2026-04-11T15:01:16Z</time></trkpt><trkpt lat="44.3975082689999" lon="10.422882822808758"><ele>713.0</ele><time>2026-04-11T15:01:18Z</time></trkpt><trkpt lat="44.39742098556778" lon="10.422797858905012"><ele>712.8333333333333</ele><time>2026-04-11T15:01:20Z</time></trkpt><trkpt lat="44.39735900222733" lon="10.422746742242152"><ele>712.6666666666666</ele><time>2026-04-11T15:01:21Z</time></trkpt><trkpt lat="44.39730810525657" lon="10.42269279225257"><ele>712.5</ele><time>2026-04-11T15:01:22Z</time></trkpt><trkpt lat="44.39723087134959" lon="10.422573331031915"><ele>712.3333333333334</ele><time>2026-04-11T15:01:24Z</time></trkpt><trkpt lat="44.397180477816434" lon="10.422465935038792"><ele>712.1666666666667</ele><time>2026-04-11T15:01:26Z</time></trkpt><trkpt lat="44.39717012701037" lon="10.422370258941529"><ele>712.0</ele><time>2026-04-11T15:01:27Z</time></trkpt><trkpt lat="44.3971235204011" lon="10.422285999787643"><ele>709.6</ele><time>2026-04-11T15:01:30Z</time></trkpt><trkpt lat="44.397042677823976" lon="10.422196413044874"><ele>707.2</ele><time>2026-04-11T15:01:32Z</time></trkpt><trkpt lat="44.396926948978596" lon="10.422194311506518"><ele>704.8</ele><time>2026-04-11T15:01:34Z</time></trkpt><trkpt lat="44.39682397628764" lon="10.422205138690314"><ele>702.4</ele><time>2026-04-11T15:01:36Z</time></trkpt><trkpt lat="44.396738449950576" lon="10.422185402101153"><ele>700.0</ele><time>2026-04-11T15:01:38Z</time></trkpt><trkpt lat="44.39670893357715" lon="10.422037438963198"><ele>699.8</ele><time>2026-04-11T15:01:40Z</time></trkpt><trkpt lat="44.39664203263633" lon="10.42190037498398"><ele>699.6</ele><time>2026-04-11T15:01:42Z</time></trkpt><trkpt lat="44.39655517295138" lon="10.421792162075755"><ele>699.4000000000001</ele><time>2026-04-11T15:01:44Z</time></trkpt><trkpt lat="44.39649259196423" lon="10.42175073927717"><ele>699.2</ele><time>2026-04-11T15:01:45Z</time></trkpt><trkpt lat="44.3963791055542" lon="10.421719256607005"><ele>699.0</ele><time>2026-04-11T15:01:47Z</time></trkpt><trkpt lat="44.396300107078616" lon="10.421698162130015"><ele>697.5</ele><time>2026-04-11T15:01:49Z</time></trkpt><trkpt lat="44.39622030577809" lon="10.421634493598319"><ele>696.0</ele><time>2026-04-11T15:01:54Z</time></trkpt><trkpt lat="44.39615438050717" lon="10.421578705459977"><ele>694.5</ele><time>2026-04-11T15:01:57Z</time></trkpt><trkpt lat="44.3961343468386" lon="10.421456389425224"><ele>693.0</ele><time>2026-04-11T15:01:58.999Z</time></trkpt><trkpt lat="44.39610478990304" lon="10.421378212419073"><ele>691.5</ele><time>2026-04-11T15:01:59.999Z</time></trkpt><trkpt lat="44.396072818030156" lon="10.421292953082123"><ele>690.0</ele><time>2026-04-11T15:02:00.999Z</time></trkpt><trkpt lat="44.39604233008243" lon="10.421205655648965"><ele>690.0</ele><time>2026-04-11T15:02:01.999Z</time></trkpt><trkpt lat="44.39601170100865" lon="10.421116075721553"><ele>690.0</ele><time>2026-04-11T15:02:02.999Z</time></trkpt><trkpt lat="44.39598081948516" lon="10.421024908098296"><ele>690.0</ele><time>2026-04-11T15:02:03.999Z</time></trkpt><trkpt lat="44.39595027426601" lon="10.42093302234828"><ele>690.0</ele><time>2026-04-11T15:02:04.999Z</time></trkpt><trkpt lat="44.39592154594056" lon="10.420846602122355"><ele>690.0</ele><time>2026-04-11T15:02:05.999Z</time></trkpt><trkpt lat="44.39589381523712" lon="10.420760666301863"><ele>690.0</ele><time>2026-04-11T15:02:06.999Z</time></trkpt><trkpt lat="44.395843060015935" lon="10.420585952705528"><ele>690.2</ele><time>2026-04-11T15:02:08.999Z</time></trkpt><trkpt lat="44.39580856481514" lon="10.420474363052078"><ele>690.4</ele><time>2026-04-11T15:02:10.999Z</time></trkpt><trkpt lat="44.39577346245351" lon="10.42033872497184"><ele>690.5999999999999</ele><time>2026-04-11T15:02:12.999Z</time></trkpt><trkpt lat="44.395751627109" lon="10.420252828382273"><ele>690.8</ele><time>2026-04-11T15:02:13.999Z</time></trkpt><trkpt lat="44.39572659543912" lon="10.420154357966364"><ele>691.0</ele><time>2026-04-11T15:02:14.999Z</time></trkpt><trkpt lat="44.39569323602593" lon="10.419990224368313"><ele>682.0</ele><time>2026-04-11T15:02:16.999Z</time></trkpt><trkpt lat="44.39612365052987" lon="10.419564438924777"><ele>682.0</ele><time>2026-04-11T15:02:18.999Z</time></trkpt><trkpt lat="44.39615058368992" lon="10.419442637028492"><ele>682.0</ele><time>2026-04-11T15:02:19.999Z</time></trkpt><trkpt lat="44.39617180951652" lon="10.419329071997476"><ele>682.0</ele><time>2026-04-11T15:02:20.999Z</time></trkpt><trkpt lat="44.396198185772924" lon="10.419209677650194"><ele>682.0</ele><time>2026-04-11T15:02:21.999Z</time></trkpt><trkpt lat="44.396231223447835" lon="10.419096194163902"><ele>682.0</ele><time>2026-04-11T15:02:22.999Z</time></trkpt><trkpt lat="44.39627594922361" lon="10.41898526722043"><ele>682.0</ele><time>2026-04-11T15:02:23.999Z</time></trkpt><trkpt lat="44.39632246971079" lon="10.418899431790383"><ele>679.1428571428571</ele><time>2026-04-11T15:02:24.999Z</time></trkpt><trkpt lat="44.39637070806427" lon="10.418815459658575"><ele>676.2857142857143</ele><time>2026-04-11T15:02:25.999Z</time></trkpt><trkpt lat="44.396410417777865" lon="10.41872829521493"><ele>673.4285714285714</ele><time>2026-04-11T15:02:26.999Z</time></trkpt><trkpt lat="44.39645500400909" lon="10.418653718865158"><ele>670.5714285714286</ele><time>2026-04-11T15:02:27.999Z</time></trkpt><trkpt lat="44.39649597514807" lon="10.418585422788489"><ele>667.7142857142857</ele><time>2026-04-11T15:02:28.999Z</time></trkpt><trkpt lat="44.39653977091287" lon="10.418504104737307"><ele>664.8571428571429</ele><time>2026-04-11T15:02:29.999Z</time></trkpt><trkpt lat="44.39657398422869" lon="10.418417981908467"><ele>662.0</ele><time>2026-04-11T15:02:30.999Z</time></trkpt><trkpt lat="44.39659804448587" lon="10.41831996113629"><ele>662.0</ele><time>2026-04-11T15:02:31.999Z</time></trkpt><trkpt lat="44.396617036007214" lon="10.418226665562583"><ele>662.0</ele><time>2026-04-11T15:02:32.999Z</time></trkpt><trkpt lat="44.39664546564942" lon="10.418146799041661"><ele>662.0</ele><time>2026-04-11T15:02:33.999Z</time></trkpt><trkpt lat="44.396671427146536" lon="10.41806228705039"><ele>662.0</ele><time>2026-04-11T15:02:34.999Z</time></trkpt><trkpt lat="44.396726557184614" lon="10.417923224149142"><ele>662.0</ele><time>2026-04-11T15:02:36.999Z</time></trkpt><trkpt lat="44.39681299573935" lon="10.417801164476726"><ele>662.0</ele><time>2026-04-11T15:02:38.999Z</time></trkpt><trkpt lat="44.39694019770261" lon="10.41775469905974"><ele>659.3333333333333</ele><time>2026-04-11T15:02:40.999Z</time></trkpt><trkpt lat="44.397011795513095" lon="10.417725518768275"><ele>656.6666666666666</ele><time>2026-04-11T15:02:41.999Z</time></trkpt><trkpt lat="44.39708169678175" lon="10.417707308099903"><ele>654.0</ele><time>2026-04-11T15:02:43Z</time></trkpt><trkpt lat="44.3971622268194" lon="10.417676638130226"><ele>651.3333333333334</ele><time>2026-04-11T15:02:45Z</time></trkpt><trkpt lat="44.39723289700321" lon="10.41761247873488"><ele>648.6666666666667</ele><time>2026-04-11T15:02:47Z</time></trkpt><trkpt lat="44.39729107129289" lon="10.417469224924808"><ele>646.0</ele><time>2026-04-11T15:02:49Z</time></trkpt><trkpt lat="44.39734326208875" lon="10.417382048674462"><ele>645.8333333333334</ele><time>2026-04-11T15:02:51Z</time></trkpt><trkpt lat="44.39739278466983" lon="10.417288335642382"><ele>645.6666666666667</ele><time>2026-04-11T15:02:53Z</time></trkpt><trkpt lat="44.39744946627119" lon="10.417148484607443"><ele>645.5</ele><time>2026-04-11T15:02:55Z</time></trkpt><trkpt lat="44.39746271398252" lon="10.417019173821432"><ele>645.3333333333334</ele><time>2026-04-11T15:02:57Z</time></trkpt><trkpt lat="44.397473735421315" lon="10.416908422462383"><ele>645.1666666666666</ele><time>2026-04-11T15:02:59Z</time></trkpt><trkpt lat="44.39752969065921" lon="10.416840959890854"><ele>645.0</ele><time>2026-04-11T15:03:01Z</time></trkpt><trkpt lat="44.397618905954175" lon="10.41684499048632"><ele>642.6666666666666</ele><time>2026-04-11T15:03:03Z</time></trkpt><trkpt lat="44.39769881191518" lon="10.416891558880097"><ele>640.3333333333334</ele><time>2026-04-11T15:03:05Z</time></trkpt><trkpt lat="44.39777596459094" lon="10.416971129924569"><ele>638.0</ele><time>2026-04-11T15:03:07Z</time></trkpt><trkpt lat="44.39782487494554" lon="10.4170384243524"><ele>635.6666666666667</ele><time>2026-04-11T15:03:09Z</time></trkpt><trkpt lat="44.39788957948571" lon="10.416977951592225"><ele>633.3333333333334</ele><time>2026-04-11T15:03:11Z</time></trkpt><trkpt lat="44.39793168445927" lon="10.416855704533507"><ele>631.0</ele><time>2026-04-11T15:03:13Z</time></trkpt><trkpt lat="44.397901172140905" lon="10.416730499492973"><ele>631.0</ele><time>2026-04-11T15:03:15Z</time></trkpt><trkpt lat="44.397895425028096" lon="10.416601655518372"><ele>631.0</ele><time>2026-04-11T15:03:17Z</time></trkpt><trkpt lat="44.3979099511651" lon="10.416514773507581"><ele>631.0</ele><time>2026-04-11T15:03:19Z</time></trkpt><trkpt lat="44.39793278717423" lon="10.41636799479173"><ele>631.0</ele><time>2026-04-11T15:03:21Z</time></trkpt><trkpt lat="44.397968693351565" lon="10.416208192107174"><ele>631.0</ele><time>2026-04-11T15:03:23Z</time></trkpt><trkpt lat="44.397992941713035" lon="10.416039280798056"><ele>626.2</ele><time>2026-04-11T15:03:25Z</time></trkpt><trkpt lat="44.39800200469085" lon="10.415890777114567"><ele>621.4000000000001</ele><time>2026-04-11T15:03:27Z</time></trkpt><trkpt lat="44.39800521605297" lon="10.415773993242933"><ele>616.6</ele><time>2026-04-11T15:03:29Z</time></trkpt><trkpt lat="44.39796145849451" lon="10.415655428043914"><ele>611.8000000000001</ele><time>2026-04-11T15:03:31Z</time></trkpt><trkpt lat="44.39793125594382" lon="10.415543578316381"><ele>607.0</ele><time>2026-04-11T15:03:33Z</time></trkpt><trkpt lat="44.397908230988314" lon="10.415390115557656"><ele>604.0</ele><time>2026-04-11T15:03:35Z</time></trkpt><trkpt lat="44.397946678093675" lon="10.41522186859687"><ele>601.0</ele><time>2026-04-11T15:03:37Z</time></trkpt><trkpt lat="44.39798086401101" lon="10.41510304247208"><ele>598.0</ele><time>2026-04-11T15:03:39Z</time></trkpt><trkpt lat="44.39799093029735" lon="10.415012148051325"><ele>595.0</ele><time>2026-04-11T15:03:41Z</time></trkpt><trkpt lat="44.39798881670036" lon="10.414903961028454"><ele>592.0</ele><time>2026-04-11T15:03:44Z</time></trkpt><trkpt lat="44.39797424138991" lon="10.4148174240515"><ele>589.0</ele><time>2026-04-11T15:03:46Z</time></trkpt><trkpt lat="44.39795738669199" lon="10.414716627030211"><ele>589.0</ele><time>2026-04-11T15:03:47.999Z</time></trkpt><trkpt lat="44.39789876336708" lon="10.414671253149104"><ele>589.0</ele><time>2026-04-11T15:03:49.999Z</time></trkpt><trkpt lat="44.39789190823253" lon="10.414546204805418"><ele>589.0</ele><time>2026-04-11T15:03:51.999Z</time></trkpt><trkpt lat="44.39789587411168" lon="10.414451567452845"><ele>589.0</ele><time>2026-04-11T15:03:54.999Z</time></trkpt><trkpt lat="44.39792647463658" lon="10.41436447291685"><ele>589.0</ele><time>2026-04-11T15:03:56.999Z</time></trkpt><trkpt lat="44.39801753328484" lon="10.41432006272084"><ele>589.0</ele><time>2026-04-11T15:03:59.999Z</time></trkpt><trkpt lat="44.39808997920218" lon="10.414336926071893"><ele>585.5</ele><time>2026-04-11T15:04:02.999Z</time></trkpt><trkpt lat="44.398161452092964" lon="10.414355894702696"><ele>582.0</ele><time>2026-04-11T15:04:04.999Z</time></trkpt><trkpt lat="44.398232516723496" lon="10.414374387952046"><ele>578.5</ele><time>2026-04-11T15:04:06.999Z</time></trkpt><trkpt lat="44.39831401234813" lon="10.41438181360906"><ele>575.0</ele><time>2026-04-11T15:04:08.999Z</time></trkpt><trkpt lat="44.39835607328176" lon="10.41430333788288"><ele>571.5</ele><time>2026-04-11T15:04:10.999Z</time></trkpt><trkpt lat="44.39839193357004" lon="10.41417226520577"><ele>568.0</ele><time>2026-04-11T15:04:12.999Z</time></trkpt><trkpt lat="44.398446258120764" lon="10.414091311241679"><ele>568.0</ele><time>2026-04-11T15:04:14.999Z</time></trkpt><trkpt lat="44.39850528658197" lon="10.414014687991454"><ele>568.0</ele><time>2026-04-11T15:04:16.999Z</time></trkpt><trkpt lat="44.39854778236043" lon="10.41394927003656"><ele>568.0</ele><time>2026-04-11T15:04:18.999Z</time></trkpt><trkpt lat="44.39854801049108" lon="10.41384741355977"><ele>568.0</ele><time>2026-04-11T15:04:22.999Z</time></trkpt><trkpt lat="44.39849967906695" lon="10.4137450307228"><ele>568.0</ele><time>2026-04-11T15:04:26.999Z</time></trkpt><trkpt lat="44.39842971525094" lon="10.413694489561722"><ele>568.0</ele><time>2026-04-11T15:04:28.999Z</time></trkpt><trkpt lat="44.39837807367723" lon="10.413618190478449"><ele>566.8333333333334</ele><time>2026-04-11T15:04:30.999Z</time></trkpt><trkpt lat="44.398321298592265" lon="10.413533013841896"><ele>565.6666666666667</ele><time>2026-04-11T15:04:32.999Z</time></trkpt><trkpt lat="44.39824358262944" lon="10.413451115269831"><ele>564.5</ele><time>2026-04-11T15:04:35.999Z</time></trkpt><trkpt lat="44.39819881554312" lon="10.41338667142789"><ele>563.3333333333334</ele><time>2026-04-11T15:04:38.999Z</time></trkpt><trkpt lat="44.39813052691334" lon="10.41330393119987"><ele>562.1666666666666</ele><time>2026-04-11T15:04:54Z</time></trkpt><trkpt lat="44.39810774864513" lon="10.413185782922099"><ele>561.0</ele><time>2026-04-11T15:04:57Z</time></trkpt><trkpt lat="44.39813673615722" lon="10.413105992130951"><ele>561.0</ele><time>2026-04-11T15:04:59Z</time></trkpt><trkpt lat="44.398148900560415" lon="10.413018138584881"><ele>561.0</ele><time>2026-04-11T15:05:01Z</time></trkpt><trkpt lat="44.398108544846906" lon="10.412907077479884"><ele>561.0</ele><time>2026-04-11T15:05:04Z</time></trkpt><trkpt lat="44.39805820010922" lon="10.412847879542108"><ele>561.0</ele><time>2026-04-11T15:05:06Z</time></trkpt><trkpt lat="44.39802783396846" lon="10.41274182943873"><ele>561.0</ele><time>2026-04-11T15:05:08Z</time></trkpt><trkpt lat="44.397985927484186" lon="10.412657787031684"><ele>561.0</ele><time>2026-04-11T15:05:10Z</time></trkpt><trkpt lat="44.397995671152856" lon="10.412551418169535"><ele>559.0</ele><time>2026-04-11T15:05:12Z</time></trkpt><trkpt lat="44.39795183061032" lon="10.4124661061496"><ele>557.0</ele><time>2026-04-11T15:05:15Z</time></trkpt><trkpt lat="44.39787043483277" lon="10.41249006970969"><ele>555.0</ele><time>2026-04-11T15:05:17Z</time></trkpt><trkpt lat="44.39780709058888" lon="10.41250563135278"><ele>553.0</ele><time>2026-04-11T15:05:22Z</time></trkpt><trkpt lat="44.39774502326544" lon="10.412553886195912"><ele>551.0</ele><time>2026-04-11T15:05:28Z</time></trkpt><trkpt lat="44.397661964254105" lon="10.412538178888445"><ele>549.0</ele><time>2026-04-11T15:05:30Z</time></trkpt><trkpt lat="44.397592771512066" lon="10.412456450543722"><ele>549.0</ele><time>2026-04-11T15:05:32Z</time></trkpt><trkpt lat="44.39754636419477" lon="10.412377975070989"><ele>549.0</ele><time>2026-04-11T15:05:34Z</time></trkpt><trkpt lat="44.397510526522716" lon="10.412272877259378"><ele>549.0</ele><time>2026-04-11T15:05:36Z</time></trkpt><trkpt lat="44.39742561484113" lon="10.412214651092446"><ele>549.0</ele><time>2026-04-11T15:05:39Z</time></trkpt><trkpt lat="44.397394028306614" lon="10.412135177928437"><ele>549.0</ele><time>2026-04-11T15:05:41Z</time></trkpt><trkpt lat="44.397360353611084" lon="10.412029445893586"><ele>549.0</ele><time>2026-04-11T15:05:43Z</time></trkpt><trkpt lat="44.39734315750578" lon="10.41190092927351"><ele>550.6</ele><time>2026-04-11T15:05:45Z</time></trkpt><trkpt lat="44.39729705987755" lon="10.411827501687478"><ele>552.2</ele><time>2026-04-11T15:05:46Z</time></trkpt><trkpt lat="44.39720310619473" lon="10.41174483846551"><ele>553.8000000000001</ele><time>2026-04-11T15:05:48Z</time></trkpt><trkpt lat="44.39711338716831" lon="10.411630418430551"><ele>555.4</ele><time>2026-04-11T15:05:49.999Z</time></trkpt><trkpt lat="44.39702045723125" lon="10.411575271306704"><ele>557.0</ele><time>2026-04-11T15:05:51.999Z</time></trkpt><trkpt lat="44.396937990666345" lon="10.41153487184091"><ele>557.0</ele><time>2026-04-11T15:05:53.999Z</time></trkpt><trkpt lat="44.39686096978525" lon="10.411538442196159"><ele>557.0</ele><time>2026-04-11T15:05:54.999Z</time></trkpt><trkpt lat="44.396788741796726" lon="10.411554499907137"><ele>557.0</ele><time>2026-04-11T15:05:55.999Z</time></trkpt><trkpt lat="44.39666150211436" lon="10.411540087716231"><ele>557.0</ele><time>2026-04-11T15:05:57.999Z</time></trkpt><trkpt lat="44.396574003235756" lon="10.41151946047532"><ele>557.0</ele><time>2026-04-11T15:05:58.999Z</time></trkpt><trkpt lat="44.39650059992253" lon="10.411487361013094"><ele>557.0</ele><time>2026-04-11T15:05:59.999Z</time></trkpt><trkpt lat="44.396437622142294" lon="10.41145542803251"><ele>557.0</ele><time>2026-04-11T15:06:00.999Z</time></trkpt><trkpt lat="44.39635473351362" lon="10.4114311637167"><ele>557.0</ele><time>2026-04-11T15:06:02.999Z</time></trkpt><trkpt lat="44.396251878220816" lon="10.411353967578583"><ele>557.0</ele><time>2026-04-11T15:06:04.999Z</time></trkpt><trkpt lat="44.396192990481325" lon="10.411307862068451"><ele>557.0</ele><time>2026-04-11T15:06:05.999Z</time></trkpt><trkpt lat="44.396131289489794" lon="10.411245797583431"><ele>557.0</ele><time>2026-04-11T15:06:06.999Z</time></trkpt><trkpt lat="44.39607664799701" lon="10.411198850228551"><ele>557.0</ele><time>2026-04-11T15:06:07.999Z</time></trkpt><trkpt lat="44.395974328593546" lon="10.411140835912336"><ele>560.4</ele><time>2026-04-11T15:06:09.999Z</time></trkpt><trkpt lat="44.39589204017938" lon="10.411099930375073"><ele>563.8000000000001</ele><time>2026-04-11T15:06:11.999Z</time></trkpt><trkpt lat="44.395833973510356" lon="10.411007257027032"><ele>567.2</ele><time>2026-04-11T15:06:57Z</time></trkpt><trkpt lat="44.39573917957208" lon="10.41091769094808"><ele>570.6</ele><time>2026-04-11T15:06:59Z</time></trkpt><trkpt lat="44.39567349384862" lon="10.410844298259061"><ele>574.0</ele><time>2026-04-11T15:07:02Z</time></trkpt><trkpt lat="44.39560409830531" lon="10.410795711187216"><ele>574.0</ele><time>2026-04-11T15:07:04Z</time></trkpt><trkpt lat="44.39557273645106" lon="10.410880144060279"><ele>574.0</ele><time>2026-04-11T15:07:05Z</time></trkpt><trkpt lat="44.39551660705452" lon="10.41095425324839"><ele>574.0</ele><time>2026-04-11T15:07:07Z</time></trkpt><trkpt lat="44.39545903418555" lon="10.41100602556137"><ele>574.0</ele><time>2026-04-11T15:07:09Z</time></trkpt><trkpt lat="44.39541220127444" lon="10.411071935802797"><ele>574.0</ele><time>2026-04-11T15:07:11Z</time></trkpt><trkpt lat="44.39534777335758" lon="10.41116497808319"><ele>574.0</ele><time>2026-04-11T15:07:13Z</time></trkpt><trkpt lat="44.39527936020508" lon="10.411275250313858"><ele>569.0</ele><time>2026-04-11T15:07:15Z</time></trkpt><trkpt lat="44.39521177955688" lon="10.411377996381471"><ele>564.0</ele><time>2026-04-11T15:07:17Z</time></trkpt><trkpt lat="44.39516848531188" lon="10.411491750977635"><ele>559.0</ele><time>2026-04-11T15:07:19Z</time></trkpt><trkpt lat="44.39511861712341" lon="10.411554590109843"><ele>554.0</ele><time>2026-04-11T15:07:21Z</time></trkpt><trkpt lat="44.39506723557956" lon="10.41160626512868"><ele>549.0</ele><time>2026-04-11T15:07:23Z</time></trkpt><trkpt lat="44.3950007477746" lon="10.41161455189763"><ele>544.0</ele><time>2026-04-11T15:07:25Z</time></trkpt><trkpt lat="44.394908315601576" lon="10.411584764181228"><ele>544.0</ele><time>2026-04-11T15:07:27Z</time></trkpt><trkpt lat="44.394832773163564" lon="10.411554387544312"><ele>544.0</ele><time>2026-04-11T15:07:29Z</time></trkpt><trkpt lat="44.39475080685208" lon="10.411519321789307"><ele>544.0</ele><time>2026-04-11T15:07:31Z</time></trkpt><trkpt lat="44.394688375228654" lon="10.411477943943478"><ele>544.0</ele><time>2026-04-11T15:07:33Z</time></trkpt><trkpt lat="44.39460378737877" lon="10.411534552933771"><ele>544.0</ele><time>2026-04-11T15:07:36Z</time></trkpt><trkpt lat="44.39452871448216" lon="10.411613337006727"><ele>544.0</ele><time>2026-04-11T15:07:38Z</time></trkpt><trkpt lat="44.39445588398159" lon="10.411687424318679"><ele>541.0</ele><time>2026-04-11T15:07:40Z</time></trkpt><trkpt lat="44.394373764537455" lon="10.411757548403717"><ele>538.0</ele><time>2026-04-11T15:07:42Z</time></trkpt><trkpt lat="44.39429211001036" lon="10.411807842929008"><ele>535.0</ele><time>2026-04-11T15:07:44Z</time></trkpt><trkpt lat="44.39420332424963" lon="10.411860359157671"><ele>532.0</ele><time>2026-04-11T15:07:47Z</time></trkpt><trkpt lat="44.39411832833407" lon="10.411915450191357"><ele>529.0</ele><time>2026-04-11T15:07:49Z</time></trkpt><trkpt lat="44.39404144766193" lon="10.411963509676356"><ele>529.0</ele><time>2026-04-11T15:07:51Z</time></trkpt><trkpt lat="44.39397429769202" lon="10.41201581444505"><ele>529.0</ele><time>2026-04-11T15:07:52.999Z</time></trkpt><trkpt lat="44.39390753125081" lon="10.412079656153804"><ele>529.0</ele><time>2026-04-11T15:07:54.999Z</time></trkpt><trkpt lat="44.393823823705155" lon="10.41211044361789"><ele>529.0</ele><time>2026-04-11T15:07:57.999Z</time></trkpt><trkpt lat="44.39371935353399" lon="10.412169370056416"><ele>529.0</ele><time>2026-04-11T15:07:59.999Z</time></trkpt><trkpt lat="44.393644636009086" lon="10.412200981239982"><ele>529.0</ele><time>2026-04-11T15:08:01.999Z</time></trkpt><trkpt lat="44.393524563629114" lon="10.41219579731658"><ele>527.1428571428571</ele><time>2026-04-11T15:08:03.999Z</time></trkpt><trkpt lat="44.39345059154673" lon="10.412203177293648"><ele>525.2857142857142</ele><time>2026-04-11T15:08:05.999Z</time></trkpt><trkpt lat="44.39337252253532" lon="10.412252068449787"><ele>523.4285714285713</ele><time>2026-04-11T15:08:07.999Z</time></trkpt><trkpt lat="44.39330251286605" lon="10.412276267235917"><ele>521.5714285714286</ele><time>2026-04-11T15:08:09.999Z</time></trkpt><trkpt lat="44.39326563347602" lon="10.412355843552366"><ele>519.7142857142857</ele><time>2026-04-11T15:08:12.999Z</time></trkpt><trkpt lat="44.393243011636216" lon="10.412446553711211"><ele>517.8571428571428</ele><time>2026-04-11T15:08:14.999Z</time></trkpt><trkpt lat="44.39320144292034" lon="10.412516108256845"><ele>516.0</ele><time>2026-04-11T15:08:29.999Z</time></trkpt><trkpt lat="44.39322321210162" lon="10.412633162443143"><ele>516.0</ele><time>2026-04-11T15:08:39.999Z</time></trkpt><trkpt lat="44.39329694583764" lon="10.412719237077738"><ele>516.0</ele><time>2026-04-11T15:08:42.999Z</time></trkpt><trkpt lat="44.39327457971975" lon="10.412839333559576"><ele>516.0</ele><time>2026-04-11T15:08:45.999Z</time></trkpt><trkpt lat="44.393330924323166" lon="10.412884606525056"><ele>516.0</ele><time>2026-04-11T15:08:49.999Z</time></trkpt><trkpt lat="44.39339802124634" lon="10.412891363441718"><ele>516.0</ele><time>2026-04-11T15:08:52.999Z</time></trkpt><trkpt lat="44.39344000210112" lon="10.412993345052133"><ele>516.0</ele><time>2026-04-11T15:08:55.999Z</time></trkpt><trkpt lat="44.393406315108166" lon="10.413093168422517"><ele>513.3333333333334</ele><time>2026-04-11T15:08:57.999Z</time></trkpt><trkpt lat="44.393439794874155" lon="10.413207527875002"><ele>510.66666666666663</ele><time>2026-04-11T15:09:02Z</time></trkpt><trkpt lat="44.393443530853446" lon="10.41330272156391"><ele>508.0</ele><time>2026-04-11T15:09:04Z</time></trkpt><trkpt lat="44.393389323061214" lon="10.413393478442451"><ele>505.3333333333333</ele><time>2026-04-11T15:09:07Z</time></trkpt><trkpt lat="44.39338690531459" lon="10.413489080573036"><ele>502.66666666666663</ele><time>2026-04-11T15:09:10Z</time></trkpt><trkpt lat="44.39340960294858" lon="10.413572793734028"><ele>500.0</ele><time>2026-04-11T15:09:13Z</time></trkpt><trkpt lat="44.39339954859454" lon="10.41368490495117"><ele>499.99999999999994</ele><time>2026-04-11T15:09:16Z</time></trkpt><trkpt lat="44.39335610948284" lon="10.413754800606164"><ele>500.0</ele><time>2026-04-11T15:09:18Z</time></trkpt><trkpt lat="44.393283861910994" lon="10.413748596307613"><ele>500.0</ele><time>2026-04-11T15:09:20Z</time></trkpt><trkpt lat="44.39326264308428" lon="10.413644553680271"><ele>500.0</ele><time>2026-04-11T15:09:22Z</time></trkpt><trkpt lat="44.39321851523679" lon="10.413544532907782"><ele>499.99999999999994</ele><time>2026-04-11T15:09:24Z</time></trkpt><trkpt lat="44.39313334428839" lon="10.413562140228144"><ele>500.0</ele><time>2026-04-11T15:09:26Z</time></trkpt><trkpt lat="44.39306548707852" lon="10.413594825278132"><ele>497.66666666666663</ele><time>2026-04-11T15:10:00.999Z</time></trkpt><trkpt lat="44.39300335896096" lon="10.413624622761018"><ele>495.3333333333333</ele><time>2026-04-11T15:10:02.999Z</time></trkpt><trkpt lat="44.39291920455458" lon="10.413694096745942"><ele>493.0</ele><time>2026-04-11T15:10:05.999Z</time></trkpt><trkpt lat="44.392840654264326" lon="10.413732341775662"><ele>490.66666666666663</ele><time>2026-04-11T15:10:07.999Z</time></trkpt><trkpt lat="44.39275619839733" lon="10.4137073278876"><ele>488.3333333333333</ele><time>2026-04-11T15:10:09.999Z</time></trkpt><trkpt lat="44.39269537859623" lon="10.41363481831954"><ele>486.0</ele><time>2026-04-11T15:10:11.999Z</time></trkpt><trkpt lat="44.39262144711669" lon="10.413598944551923"><ele>486.0</ele><time>2026-04-11T15:10:13.999Z</time></trkpt><trkpt lat="44.39253086769762" lon="10.413568820950713"><ele>486.0</ele><time>2026-04-11T15:10:15.999Z</time></trkpt><trkpt lat="44.392457731111094" lon="10.413515765798985"><ele>486.0</ele><time>2026-04-11T15:10:17.999Z</time></trkpt><trkpt lat="44.39242771793615" lon="10.413416555061968"><ele>486.0</ele><time>2026-04-11T15:10:19.999Z</time></trkpt><trkpt lat="44.39236189467366" lon="10.413370541326215"><ele>486.0</ele><time>2026-04-11T15:10:22.999Z</time></trkpt><trkpt lat="44.39229739831567" lon="10.413338199120505"><ele>486.0</ele><time>2026-04-11T15:10:24.999Z</time></trkpt><trkpt lat="44.392199506894244" lon="10.413377385506799"><ele>484.0</ele><time>2026-04-11T15:10:26.999Z</time></trkpt><trkpt lat="44.392108277904455" lon="10.413382097654317"><ele>482.0</ele><time>2026-04-11T15:10:28.999Z</time></trkpt><trkpt lat="44.39203459412917" lon="10.41336248902101"><ele>480.0</ele><time>2026-04-11T15:10:30.999Z</time></trkpt><trkpt lat="44.39193443935177" lon="10.413345388165993"><ele>478.0</ele><time>2026-04-11T15:10:33.999Z</time></trkpt><trkpt lat="44.39183314102714" lon="10.413337641728823"><ele>476.0</ele><time>2026-04-11T15:10:35.999Z</time></trkpt><trkpt lat="44.391769200892426" lon="10.413394080056351"><ele>474.0</ele><time>2026-04-11T15:10:37.999Z</time></trkpt><trkpt lat="44.39167150803892" lon="10.413422405452977"><ele>474.0</ele><time>2026-04-11T15:10:39.999Z</time></trkpt><trkpt lat="44.391572668091875" lon="10.41341560107081"><ele>474.0</ele><time>2026-04-11T15:10:41.999Z</time></trkpt><trkpt lat="44.39148432196078" lon="10.413411298343782"><ele>474.0</ele><time>2026-04-11T15:10:43.999Z</time></trkpt><trkpt lat="44.39140696996977" lon="10.413371602945341"><ele>474.0</ele><time>2026-04-11T15:10:45.999Z</time></trkpt><trkpt lat="44.39131924199752" lon="10.413318715078985"><ele>474.0</ele><time>2026-04-11T15:10:47.999Z</time></trkpt><trkpt lat="44.391248692341726" lon="10.413333738273316"><ele>474.0</ele><time>2026-04-11T15:10:49.999Z</time></trkpt><trkpt lat="44.39119391355757" lon="10.413418260044406"><ele>473.8333333333333</ele><time>2026-04-11T15:10:51.999Z</time></trkpt><trkpt lat="44.39113126836293" lon="10.413492365374807"><ele>473.66666666666663</ele><time>2026-04-11T15:10:54.999Z</time></trkpt><trkpt lat="44.39107187374772" lon="10.413588385807298"><ele>473.5</ele><time>2026-04-11T15:10:57.999Z</time></trkpt><trkpt lat="44.39102691266971" lon="10.413661682615144"><ele>473.3333333333333</ele><time>2026-04-11T15:10:59.999Z</time></trkpt><trkpt lat="44.39095782754068" lon="10.413719850479897"><ele>473.16666666666663</ele><time>2026-04-11T15:11:01.999Z</time></trkpt><trkpt lat="44.39087035605397" lon="10.413756022834347"><ele>473.0</ele><time>2026-04-11T15:11:03.999Z</time></trkpt><trkpt lat="44.39076714542452" lon="10.413809568503977"><ele>472.99999999999994</ele><time>2026-04-11T15:11:05.999Z</time></trkpt><trkpt lat="44.39067963657726" lon="10.413818584176324"><ele>473.0</ele><time>2026-04-11T15:11:08Z</time></trkpt><trkpt lat="44.390596087112606" lon="10.413815357425133"><ele>473.0</ele><time>2026-04-11T15:11:10Z</time></trkpt><trkpt lat="44.39051618211124" lon="10.413853487872847"><ele>473.0</ele><time>2026-04-11T15:11:12Z</time></trkpt><trkpt lat="44.390432828804684" lon="10.41390374896883"><ele>472.99999999999994</ele><time>2026-04-11T15:11:14Z</time></trkpt><trkpt lat="44.39033698290653" lon="10.413948664903863"><ele>473.0</ele><time>2026-04-11T15:11:16Z</time></trkpt><trkpt lat="44.390229578707725" lon="10.413993330003663"><ele>469.79999999999995</ele><time>2026-04-11T15:11:18Z</time></trkpt><trkpt lat="44.39014838078516" lon="10.41402734956475"><ele>466.59999999999997</ele><time>2026-04-11T15:11:20Z</time></trkpt><trkpt lat="44.39006663975641" lon="10.414047999294839"><ele>463.40000000000003</ele><time>2026-04-11T15:11:22Z</time></trkpt><trkpt lat="44.38996810620645" lon="10.414088726424357"><ele>460.20000000000005</ele><time>2026-04-11T15:11:24Z</time></trkpt><trkpt lat="44.38988999072438" lon="10.414163151359004"><ele>457.0</ele><time>2026-04-11T15:11:26Z</time></trkpt><trkpt lat="44.389809706779936" lon="10.414235432622476"><ele>457.0</ele><time>2026-04-11T15:11:28Z</time></trkpt><trkpt lat="44.38970336968709" lon="10.414295610138364"><ele>457.00000000000006</ele><time>2026-04-11T15:11:30Z</time></trkpt><trkpt lat="44.3896055185556" lon="10.414371164553211"><ele>457.00000000000006</ele><time>2026-04-11T15:11:32Z</time></trkpt><trkpt lat="44.38950874306165" lon="10.41445478820101"><ele>457.0</ele><time>2026-04-11T15:11:34Z</time></trkpt><trkpt lat="44.389428055855355" lon="10.414519906943353"><ele>457.0</ele><time>2026-04-11T15:11:36Z</time></trkpt><trkpt lat="44.38937861124212" lon="10.414578057711006"><ele>456.33333333333337</ele><time>2026-04-11T15:11:38Z</time></trkpt><trkpt lat="44.38932033197984" lon="10.414643162527538"><ele>455.6666666666667</ele><time>2026-04-11T15:11:42Z</time></trkpt><trkpt lat="44.389255886511684" lon="10.414688014736647"><ele>455.0</ele><time>2026-04-11T15:11:44Z</time></trkpt><trkpt lat="44.38918805147661" lon="10.414725908067355"><ele>454.33333333333337</ele><time>2026-04-11T15:11:46Z</time></trkpt><trkpt lat="44.3891276274824" lon="10.414759297448674"><ele>453.6666666666667</ele><time>2026-04-11T15:11:48Z</time></trkpt><trkpt lat="44.38903948194598" lon="10.414817138614847"><ele>453.0</ele><time>2026-04-11T15:11:50Z</time></trkpt><trkpt lat="44.38894630658865" lon="10.414864033019409"><ele>453.0</ele><time>2026-04-11T15:11:53Z</time></trkpt><trkpt lat="44.38888100337279" lon="10.414902025998947"><ele>452.99999999999994</ele><time>2026-04-11T15:11:55Z</time></trkpt><trkpt lat="44.38886477398602" lon="10.414699235048504"><ele>452.99999999999994</ele><time>2026-04-11T15:12:00Z</time></trkpt><trkpt lat="44.38885528949763" lon="10.414549747213359"><ele>453.0</ele><time>2026-04-11T15:12:01.999Z</time></trkpt><trkpt lat="44.388844960763116" lon="10.414405212280306"><ele>453.0</ele><time>2026-04-11T15:12:03.999Z</time></trkpt><trkpt lat="44.38883977561516" lon="10.414285221165308"><ele>451.0</ele><time>2026-04-11T15:12:05.999Z</time></trkpt><trkpt lat="44.38883153292383" lon="10.41415637661306"><ele>449.0</ele><time>2026-04-11T15:12:07.999Z</time></trkpt><trkpt lat="44.388774173404904" lon="10.414020793884225"><ele>447.0</ele><time>2026-04-11T15:12:09.999Z</time></trkpt><trkpt lat="44.388749299582365" lon="10.413933609041093"><ele>445.0</ele><time>2026-04-11T15:12:10.999Z</time></trkpt><trkpt lat="44.38873790839001" lon="10.413841130956312"><ele>443.0</ele><time>2026-04-11T15:12:11.999Z</time></trkpt><trkpt lat="44.38871269170894" lon="10.413757339222256"><ele>441.0</ele><time>2026-04-11T15:12:12.999Z</time></trkpt><trkpt lat="44.388671643037554" lon="10.413684532441476"><ele>441.0</ele><time>2026-04-11T15:12:13.999Z</time></trkpt><trkpt lat="44.38865102935813" lon="10.413583965486863"><ele>441.0</ele><time>2026-04-11T15:12:14.999Z</time></trkpt><trkpt lat="44.388607901353055" lon="10.413446757781127"><ele>441.0</ele><time>2026-04-11T15:12:16.999Z</time></trkpt><trkpt lat="44.38856236499519" lon="10.413302814679808"><ele>441.0</ele><time>2026-04-11T15:12:18.999Z</time></trkpt><trkpt lat="44.38853643880974" lon="10.413152386193703"><ele>441.0</ele><time>2026-04-11T15:12:20.999Z</time></trkpt><trkpt lat="44.388531394605536" lon="10.4130531177708"><ele>441.5</ele><time>2026-04-11T15:12:21.999Z</time></trkpt><trkpt lat="44.38853793078603" lon="10.412871367538882"><ele>442.0</ele><time>2026-04-11T15:12:23.999Z</time></trkpt><trkpt lat="44.38852260491827" lon="10.41276866781754"><ele>442.5</ele><time>2026-04-11T15:12:24.999Z</time></trkpt><trkpt lat="44.388521514972695" lon="10.412665215535174"><ele>443.0</ele><time>2026-04-11T15:12:25.999Z</time></trkpt><trkpt lat="44.388535795853244" lon="10.412569664432128"><ele>443.5</ele><time>2026-04-11T15:12:26.999Z</time></trkpt><trkpt lat="44.38853330756045" lon="10.412459934518251"><ele>444.0</ele><time>2026-04-11T15:12:27.999Z</time></trkpt><trkpt lat="44.38851150928808" lon="10.412350742825979"><ele>444.0</ele><time>2026-04-11T15:12:28.999Z</time></trkpt><trkpt lat="44.38850601477837" lon="10.412239278690922"><ele>444.0</ele><time>2026-04-11T15:12:29.999Z</time></trkpt><trkpt lat="44.388494705465206" lon="10.412133565358626"><ele>444.0</ele><time>2026-04-11T15:12:30.999Z</time></trkpt><trkpt lat="44.388471976568184" lon="10.412031928585376"><ele>444.0</ele><time>2026-04-11T15:12:31.999Z</time></trkpt><trkpt lat="44.38844012879736" lon="10.411924567603462"><ele>444.0</ele><time>2026-04-11T15:12:32.999Z</time></trkpt><trkpt lat="44.388433542497914" lon="10.411806633361754"><ele>444.0</ele><time>2026-04-11T15:12:33.999Z</time></trkpt><trkpt lat="44.38841562400432" lon="10.411707969105633"><ele>444.6</ele><time>2026-04-11T15:12:34.999Z</time></trkpt><trkpt lat="44.388394900696746" lon="10.41152555470015"><ele>445.2</ele><time>2026-04-11T15:12:36.999Z</time></trkpt><trkpt lat="44.38838786314207" lon="10.41140202435641"><ele>445.80000000000007</ele><time>2026-04-11T15:12:37.999Z</time></trkpt><trkpt lat="44.38838290239928" lon="10.411274467882624"><ele>446.40000000000003</ele><time>2026-04-11T15:12:38.999Z</time></trkpt><trkpt lat="44.388381683730636" lon="10.411157109746247"><ele>447.0</ele><time>2026-04-11T15:12:39.999Z</time></trkpt><trkpt lat="44.388368516073875" lon="10.411038128620854"><ele>445.6</ele><time>2026-04-11T15:12:40.999Z</time></trkpt><trkpt lat="44.38838970672045" lon="10.410916917105295"><ele>444.20000000000005</ele><time>2026-04-11T15:12:41.999Z</time></trkpt><trkpt lat="44.388395906890345" lon="10.410792432339758"><ele>442.8</ele><time>2026-04-11T15:12:42.999Z</time></trkpt><trkpt lat="44.388388633025585" lon="10.410635092407757"><ele>441.4</ele><time>2026-04-11T15:12:43.999Z</time></trkpt><trkpt lat="44.38840466091866" lon="10.410470724494202"><ele>440.0</ele><time>2026-04-11T15:12:44.999Z</time></trkpt><trkpt lat="44.38841864182599" lon="10.410278520056078"><ele>440.0</ele><time>2026-04-11T15:12:45.999Z</time></trkpt><trkpt lat="44.38843506867529" lon="10.410025501002954"><ele>440.0</ele><time>2026-04-11T15:12:46.999Z</time></trkpt><trkpt lat="44.388460865077555" lon="10.409701923269763"><ele>440.0</ele><time>2026-04-11T15:12:47.999Z</time></trkpt><trkpt lat="44.388478930736284" lon="10.409435084387463"><ele>439.3333333333333</ele><time>2026-04-11T15:12:48.999Z</time></trkpt><trkpt lat="44.38849169418188" lon="10.409202305973297"><ele>438.66666666666663</ele><time>2026-04-11T15:12:49.999Z</time></trkpt><trkpt lat="44.38850406659059" lon="10.408986565316644"><ele>438.0</ele><time>2026-04-11T15:12:50.999Z</time></trkpt><trkpt lat="44.3885329760713" lon="10.408773957224183"><ele>437.75</ele><time>2026-04-11T15:12:51.999Z</time></trkpt><trkpt lat="44.388544971006496" lon="10.40855388146179"><ele>437.5</ele><time>2026-04-11T15:12:52.999Z</time></trkpt><trkpt lat="44.38855144848243" lon="10.408372630541034"><ele>437.25</ele><time>2026-04-11T15:12:53.999Z</time></trkpt><trkpt lat="44.38856174334947" lon="10.408183118417192"><ele>437.0</ele><time>2026-04-11T15:12:54.999Z</time></trkpt><trkpt lat="44.38855841370701" lon="10.408057737466764"><ele>436.99999999999994</ele><time>2026-04-11T15:12:55.999Z</time></trkpt><trkpt lat="44.38855456551431" lon="10.40796870296215"><ele>437.0</ele><time>2026-04-11T15:12:56.999Z</time></trkpt><trkpt lat="44.388545023109614" lon="10.407835291011235"><ele>437.0</ele><time>2026-04-11T15:12:58.999Z</time></trkpt><trkpt lat="44.3885358242103" lon="10.407676734363292"><ele>437.0</ele><time>2026-04-11T15:13:00.999Z</time></trkpt><trkpt lat="44.388531133905325" lon="10.407588628510691"><ele>436.99999999999994</ele><time>2026-04-11T15:13:01.999Z</time></trkpt><trkpt lat="44.38853653865477" lon="10.407499680090513"><ele>437.0</ele><time>2026-04-11T15:13:02.999Z</time></trkpt><trkpt lat="44.38853172900099" lon="10.407404021110334"><ele>437.0</ele><time>2026-04-11T15:13:03.999Z</time></trkpt><trkpt lat="44.38852885367228" lon="10.407264853674235"><ele>437.00000000000006</ele><time>2026-04-11T15:13:04.999Z</time></trkpt><trkpt lat="44.388525076376375" lon="10.407136022601529"><ele>437.00000000000006</ele><time>2026-04-11T15:13:05.999Z</time></trkpt><trkpt lat="44.38854605550705" lon="10.407036816224966"><ele>437.0</ele><time>2026-04-11T15:13:06.999Z</time></trkpt><trkpt lat="44.388573021781305" lon="10.406868598968067"><ele>437.0</ele><time>2026-04-11T15:13:08.999Z</time></trkpt><trkpt lat="44.3885939887865" lon="10.406774910111299"><ele>437.0</ele><time>2026-04-11T15:13:09.999Z</time></trkpt><trkpt lat="44.38864124972821" lon="10.406624559171897"><ele>437.0</ele><time>2026-04-11T15:13:12Z</time></trkpt><trkpt lat="44.38872107202355" lon="10.406523386029734"><ele>437.0</ele><time>2026-04-11T15:13:14Z</time></trkpt><trkpt lat="44.38884742033723" lon="10.406505299281505"><ele>437.0</ele><time>2026-04-11T15:13:16Z</time></trkpt><trkpt lat="44.38894516423842" lon="10.406468364169985"><ele>438.6</ele><time>2026-04-11T15:13:17Z</time></trkpt><trkpt lat="44.3890379159474" lon="10.406415310340476"><ele>440.20000000000005</ele><time>2026-04-11T15:13:18Z</time></trkpt><trkpt lat="44.389131914654136" lon="10.406389964160054"><ele>441.8</ele><time>2026-04-11T15:13:19Z</time></trkpt><trkpt lat="44.38922681205934" lon="10.406350125126332"><ele>443.4</ele><time>2026-04-11T15:13:20Z</time></trkpt><trkpt lat="44.38929907105233" lon="10.406301171911519"><ele>445.0</ele><time>2026-04-11T15:13:21Z</time></trkpt><trkpt lat="44.38940554562925" lon="10.406244684812288"><ele>445.00000000000006</ele><time>2026-04-11T15:13:23Z</time></trkpt><trkpt lat="44.389434507137125" lon="10.406152892242796"><ele>445.0</ele><time>2026-04-11T15:13:25Z</time></trkpt><trkpt lat="44.389414465329565" lon="10.406067064293431"><ele>445.0</ele><time>2026-04-11T15:13:28Z</time></trkpt><trkpt lat="44.389271565249864" lon="10.406151953565546"><ele>445.0</ele><time>2026-04-11T15:13:29Z</time></trkpt><trkpt lat="44.38920909300139" lon="10.40619716199049"><ele>445.00000000000006</ele><time>2026-04-11T15:13:30Z</time></trkpt><trkpt lat="44.38914193284656" lon="10.406230129282015"><ele>445.0</ele><time>2026-04-11T15:13:31Z</time></trkpt><trkpt lat="44.38905949250812" lon="10.406258588351966"><ele>445.0</ele><time>2026-04-11T15:13:32Z</time></trkpt><trkpt lat="44.38898621751158" lon="10.40627596728067"><ele>445.0</ele><time>2026-04-11T15:13:33Z</time></trkpt><trkpt lat="44.38890215600622" lon="10.406300083084465"><ele>445.0</ele><time>2026-04-11T15:13:34Z</time></trkpt><trkpt lat="44.388805845779345" lon="10.406317724568597"><ele>445.0</ele><time>2026-04-11T15:13:35Z</time></trkpt><trkpt lat="44.38870677867186" lon="10.406327654327002"><ele>445.0</ele><time>2026-04-11T15:13:36Z</time></trkpt><trkpt lat="44.38860531054647" lon="10.40632821314048"><ele>443.6</ele><time>2026-04-11T15:13:37Z</time></trkpt><trkpt lat="44.38850442366287" lon="10.406325569488718"><ele>442.2</ele><time>2026-04-11T15:13:38Z</time></trkpt><trkpt lat="44.388398842240385" lon="10.406309659059044"><ele>440.79999999999995</ele><time>2026-04-11T15:13:39Z</time></trkpt><trkpt lat="44.38829323138534" lon="10.406287730812844"><ele>439.4</ele><time>2026-04-11T15:13:40Z</time></trkpt><trkpt lat="44.388187445274056" lon="10.406264678320838"><ele>438.0</ele><time>2026-04-11T15:13:41Z</time></trkpt><trkpt lat="44.38807403315725" lon="10.406245255742464"><ele>437.75</ele><time>2026-04-11T15:13:42Z</time></trkpt><trkpt lat="44.38796054778688" lon="10.406229457249804"><ele>437.5</ele><time>2026-04-11T15:13:43Z</time></trkpt><trkpt lat="44.387850118191324" lon="10.406210828116789"><ele>437.25</ele><time>2026-04-11T15:13:44Z</time></trkpt><trkpt lat="44.38773772363832" lon="10.406193390827749"><ele>437.0</ele><time>2026-04-11T15:13:45Z</time></trkpt><trkpt lat="44.38762195577268" lon="10.406178689725644"><ele>437.0</ele><time>2026-04-11T15:13:46Z</time></trkpt><trkpt lat="44.38750092522171" lon="10.40615799260395"><ele>437.0</ele><time>2026-04-11T15:13:47Z</time></trkpt><trkpt lat="44.38737878681846" lon="10.406140222566234"><ele>437.0</ele><time>2026-04-11T15:13:48Z</time></trkpt><trkpt lat="44.3872560783183" lon="10.406118343170585"><ele>437.0</ele><time>2026-04-11T15:13:49Z</time></trkpt><trkpt lat="44.38712731929079" lon="10.40609448047045"><ele>437.0</ele><time>2026-04-11T15:13:50Z</time></trkpt><trkpt lat="44.38698762466503" lon="10.406072260383887"><ele>437.0</ele><time>2026-04-11T15:13:51Z</time></trkpt><trkpt lat="44.38684524482938" lon="10.406043358581654"><ele>437.0</ele><time>2026-04-11T15:13:52Z</time></trkpt><trkpt lat="44.38671516771783" lon="10.406016381619251"><ele>437.0</ele><time>2026-04-11T15:13:52.999Z</time></trkpt><trkpt lat="44.386592857809866" lon="10.405998343133936"><ele>437.0</ele><time>2026-04-11T15:13:53.999Z</time></trkpt><trkpt lat="44.38648246965736" lon="10.405987018363534"><ele>437.00000000000006</ele><time>2026-04-11T15:13:54.999Z</time></trkpt><trkpt lat="44.38638108166325" lon="10.405971184288521"><ele>437.00000000000006</ele><time>2026-04-11T15:13:55.999Z</time></trkpt><trkpt lat="44.38627461620099" lon="10.405948482823636"><ele>437.0</ele><time>2026-04-11T15:13:56.999Z</time></trkpt><trkpt lat="44.38616375461356" lon="10.40592966366276"><ele>437.0</ele><time>2026-04-11T15:13:57.999Z</time></trkpt><trkpt lat="44.38604934607557" lon="10.405912275883166"><ele>436.8</ele><time>2026-04-11T15:13:58.999Z</time></trkpt><trkpt lat="44.38593444556932" lon="10.405889058731534"><ele>436.6</ele><time>2026-04-11T15:13:59.999Z</time></trkpt><trkpt lat="44.38581692257196" lon="10.40586908938104"><ele>436.40000000000003</ele><time>2026-04-11T15:14:00.999Z</time></trkpt><trkpt lat="44.38570775823447" lon="10.405854428607064"><ele>436.20000000000005</ele><time>2026-04-11T15:14:01.999Z</time></trkpt><trkpt lat="44.38560987834031" lon="10.405836077693108"><ele>436.0</ele><time>2026-04-11T15:14:02.999Z</time></trkpt><trkpt lat="44.38551646588121" lon="10.405818200102658"><ele>437.50000000000006</ele><time>2026-04-11T15:14:03.999Z</time></trkpt><trkpt lat="44.38543051798931" lon="10.405800585801567"><ele>439.0</ele><time>2026-04-11T15:14:04.999Z</time></trkpt><trkpt lat="44.38534817361743" lon="10.405778862640862"><ele>440.5</ele><time>2026-04-11T15:14:05.999Z</time></trkpt><trkpt lat="44.385272325028374" lon="10.405743749350751"><ele>442.0</ele><time>2026-04-11T15:14:06.999Z</time></trkpt><trkpt lat="44.3852030686897" lon="10.405689425258181"><ele>443.50000000000006</ele><time>2026-04-11T15:14:07.999Z</time></trkpt><trkpt lat="44.3851389970404" lon="10.405617010696995"><ele>445.0</ele><time>2026-04-11T15:14:08.999Z</time></trkpt><trkpt lat="44.38507892979651" lon="10.405528163270013"><ele>445.8</ele><time>2026-04-11T15:14:09.999Z</time></trkpt><trkpt lat="44.38503023738285" lon="10.405423931215797"><ele>446.6</ele><time>2026-04-11T15:14:10.999Z</time></trkpt><trkpt lat="44.38499766032775" lon="10.405301237422064"><ele>447.4</ele><time>2026-04-11T15:14:11.999Z</time></trkpt><trkpt lat="44.384982103660036" lon="10.405158666624327"><ele>448.2</ele><time>2026-04-11T15:14:12.999Z</time></trkpt><trkpt lat="44.38498819048495" lon="10.404998120144926"><ele>449.0</ele><time>2026-04-11T15:14:13.999Z</time></trkpt><trkpt lat="44.38501144487169" lon="10.404832213425957"><ele>450.25</ele><time>2026-04-11T15:14:14.999Z</time></trkpt><trkpt lat="44.38503396134521" lon="10.404662134136423"><ele>451.5</ele><time>2026-04-11T15:14:15.999Z</time></trkpt><trkpt lat="44.385054955118136" lon="10.404478072655577"><ele>452.75</ele><time>2026-04-11T15:14:16.999Z</time></trkpt><trkpt lat="44.385072763724715" lon="10.404305884779644"><ele>454.0</ele><time>2026-04-11T15:14:17.999Z</time></trkpt><trkpt lat="44.38508714983346" lon="10.404124602346206"><ele>454.0</ele><time>2026-04-11T15:14:18.999Z</time></trkpt><trkpt lat="44.3851034598329" lon="10.403939980865777"><ele>454.0</ele><time>2026-04-11T15:14:19.999Z</time></trkpt><trkpt lat="44.38511683213278" lon="10.403752085251579"><ele>454.0</ele><time>2026-04-11T15:14:20.999Z</time></trkpt><trkpt lat="44.3851309980402" lon="10.403560738105117"><ele>454.0</ele><time>2026-04-11T15:14:21.999Z</time></trkpt><trkpt lat="44.385135126782416" lon="10.403367083349444"><ele>454.5</ele><time>2026-04-11T15:14:22.999Z</time></trkpt><trkpt lat="44.385135808749276" lon="10.403176874436497"><ele>455.0</ele><time>2026-04-11T15:14:23.999Z</time></trkpt><trkpt lat="44.385144641026386" lon="10.402982717849392"><ele>455.5</ele><time>2026-04-11T15:14:24.999Z</time></trkpt><trkpt lat="44.38514777066671" lon="10.402791648484621"><ele>456.0</ele><time>2026-04-11T15:14:25.999Z</time></trkpt><trkpt lat="44.38515100472795" lon="10.402594470270149"><ele>456.66666666666663</ele><time>2026-04-11T15:14:26.999Z</time></trkpt><trkpt lat="44.38515652514993" lon="10.402386977119718"><ele>457.3333333333333</ele><time>2026-04-11T15:14:27.999Z</time></trkpt><trkpt lat="44.385167312967155" lon="10.402184065292635"><ele>458.0</ele><time>2026-04-11T15:14:28.999Z</time></trkpt><trkpt lat="44.385185568546184" lon="10.40195750742454"><ele>458.3333333333333</ele><time>2026-04-11T15:14:29.999Z</time></trkpt><trkpt lat="44.38518344999311" lon="10.401756956681265"><ele>458.66666666666663</ele><time>2026-04-11T15:14:30.999Z</time></trkpt><trkpt lat="44.385184545489096" lon="10.401540317999812"><ele>459.0</ele><time>2026-04-11T15:14:31.999Z</time></trkpt><trkpt lat="44.3851877242051" lon="10.40132373726992"><ele>459.25</ele><time>2026-04-11T15:14:32.999Z</time></trkpt><trkpt lat="44.385196867791194" lon="10.401120746989378"><ele>459.5</ele><time>2026-04-11T15:14:33.999Z</time></trkpt><trkpt lat="44.38520193119829" lon="10.400912860423222"><ele>459.75</ele><time>2026-04-11T15:14:34.999Z</time></trkpt><trkpt lat="44.38520692472269" lon="10.400711286766905"><ele>460.0</ele><time>2026-04-11T15:14:35.999Z</time></trkpt><trkpt lat="44.385213803619465" lon="10.400513473447813"><ele>460.5</ele><time>2026-04-11T15:14:36.999Z</time></trkpt><trkpt lat="44.38522005846206" lon="10.400316646038476"><ele>461.0</ele><time>2026-04-11T15:14:37.999Z</time></trkpt><trkpt lat="44.385226725463525" lon="10.400119642122345"><ele>461.5</ele><time>2026-04-11T15:14:38.999Z</time></trkpt><trkpt lat="44.385233366228285" lon="10.399935969422328"><ele>462.0</ele><time>2026-04-11T15:14:39.999Z</time></trkpt><trkpt lat="44.385233860632184" lon="10.39975276322262"><ele>461.75</ele><time>2026-04-11T15:14:40.999Z</time></trkpt><trkpt lat="44.38523718208698" lon="10.399570697374811"><ele>461.5</ele><time>2026-04-11T15:14:41.999Z</time></trkpt><trkpt lat="44.385247122015684" lon="10.399388994043875"><ele>461.25</ele><time>2026-04-11T15:14:42.999Z</time></trkpt><trkpt lat="44.385259562733616" lon="10.39920845066086"><ele>461.0</ele><time>2026-04-11T15:14:43.999Z</time></trkpt><trkpt lat="44.38526616706116" lon="10.399041139003096"><ele>461.0</ele><time>2026-04-11T15:14:44.999Z</time></trkpt><trkpt lat="44.38526639636097" lon="10.398875146157613"><ele>461.0</ele><time>2026-04-11T15:14:45.999Z</time></trkpt><trkpt lat="44.38525319502562" lon="10.39870789576963"><ele>461.0</ele><time>2026-04-11T15:14:46.999Z</time></trkpt><trkpt lat="44.38520929877684" lon="10.39854055006945"><ele>461.0</ele><time>2026-04-11T15:14:47.999Z</time></trkpt><trkpt lat="44.38513147813778" lon="10.398388568697225"><ele>462.25</ele><time>2026-04-11T15:14:48.999Z</time></trkpt><trkpt lat="44.385027325525556" lon="10.398264566472454"><ele>463.5</ele><time>2026-04-11T15:14:49.999Z</time></trkpt><trkpt lat="44.38490114597734" lon="10.39817032849683"><ele>464.75</ele><time>2026-04-11T15:14:50.999Z</time></trkpt><trkpt lat="44.3847635029615" lon="10.39810841279175"><ele>466.0</ele><time>2026-04-11T15:14:51.999Z</time></trkpt><trkpt lat="44.38462461426232" lon="10.398043453377584"><ele>464.20000000000005</ele><time>2026-04-11T15:14:52.999Z</time></trkpt><trkpt lat="44.38449982361808" lon="10.39797283779047"><ele>462.40000000000003</ele><time>2026-04-11T15:14:53.999Z</time></trkpt><trkpt lat="44.38439540291428" lon="10.397910379639333"><ele>460.6</ele><time>2026-04-11T15:14:54.999Z</time></trkpt><trkpt lat="44.38431370419963" lon="10.397862345844715"><ele>458.8</ele><time>2026-04-11T15:14:55.999Z</time></trkpt><trkpt lat="44.3842240935547" lon="10.3978090523049"><ele>457.0</ele><time>2026-04-11T15:14:57.999Z</time></trkpt><trkpt lat="44.384143390857695" lon="10.397764142326741"><ele>457.00000000000006</ele><time>2026-04-11T15:14:59.999Z</time></trkpt><trkpt lat="44.38421536450545" lon="10.3977949144009"><ele>457.0</ele><time>2026-04-11T15:15:07.999Z</time></trkpt><trkpt lat="44.38426511392514" lon="10.397850713623392"><ele>457.0</ele><time>2026-04-11T15:15:08.999Z</time></trkpt><trkpt lat="44.384325565699434" lon="10.397883665832273"><ele>457.0</ele><time>2026-04-11T15:15:09.999Z</time></trkpt><trkpt lat="44.38443157740967" lon="10.397949018728"><ele>457.00000000000006</ele><time>2026-04-11T15:15:11.999Z</time></trkpt><trkpt lat="44.38451862949858" lon="10.397969326591383"><ele>457.0</ele><time>2026-04-11T15:15:13.998Z</time></trkpt><trkpt lat="44.38454916893173" lon="10.397873032653276"><ele>457.00000000000006</ele><time>2026-04-11T15:15:15.998Z</time></trkpt><trkpt lat="44.384541453895736" lon="10.397738156429831"><ele>457.0</ele><time>2026-04-11T15:15:18Z</time></trkpt><trkpt lat="44.38451058238379" lon="10.397589625889474"><ele>457.0</ele><time>2026-04-11T15:15:20Z</time></trkpt><trkpt lat="44.38450521186056" lon="10.397478602619524"><ele>457.0</ele><time>2026-04-11T15:15:22Z</time></trkpt><trkpt lat="44.384532832164155" lon="10.39738340632554"><ele>457.00000000000006</ele><time>2026-04-11T15:15:24Z</time></trkpt><trkpt lat="44.384541658464386" lon="10.397282276843828"><ele>457.0</ele><time>2026-04-11T15:15:27Z</time></trkpt><trkpt lat="44.384530068657824" lon="10.397192641139442"><ele>456.8</ele><time>2026-04-11T15:15:29Z</time></trkpt><trkpt lat="44.38452334953839" lon="10.397075714774763"><ele>456.6</ele><time>2026-04-11T15:15:31Z</time></trkpt><trkpt lat="44.384542543208966" lon="10.396952585899538"><ele>456.40000000000003</ele><time>2026-04-11T15:15:33Z</time></trkpt><trkpt lat="44.38459958353446" lon="10.396869687648612"><ele>456.20000000000005</ele><time>2026-04-11T15:15:35Z</time></trkpt><trkpt lat="44.38463184156948" lon="10.396742566596046"><ele>456.0</ele><time>2026-04-11T15:15:37Z</time></trkpt><trkpt lat="44.38465005553331" lon="10.396606480334862"><ele>455.20000000000005</ele><time>2026-04-11T15:15:39Z</time></trkpt><trkpt lat="44.38470733777566" lon="10.396484973549857"><ele>454.40000000000003</ele><time>2026-04-11T15:15:41Z</time></trkpt><trkpt lat="44.384766458181666" lon="10.39639344652074"><ele>453.6</ele><time>2026-04-11T15:15:43Z</time></trkpt><trkpt lat="44.38482654781119" lon="10.39627114299599"><ele>452.8</ele><time>2026-04-11T15:15:45Z</time></trkpt><trkpt lat="44.38484779707679" lon="10.396173195772185"><ele>452.0</ele><time>2026-04-11T15:15:48Z</time></trkpt><trkpt lat="44.38495730000505" lon="10.395962500756786"><ele>454.5</ele><time>2026-04-11T15:15:51Z</time></trkpt><trkpt lat="44.384589838050616" lon="10.39611346152761"><ele>457.0</ele><time>2026-04-11T15:15:52Z</time></trkpt><trkpt lat="44.38451828896035" lon="10.396119539684014"><ele>457.00000000000006</ele><time>2026-04-11T15:15:53Z</time></trkpt><trkpt lat="44.38444922529554" lon="10.396115099225682"><ele>457.0</ele><time>2026-04-11T15:15:54Z</time></trkpt><trkpt lat="44.384371697472325" lon="10.396099699130438"><ele>457.0</ele><time>2026-04-11T15:15:55Z</time></trkpt><trkpt lat="44.38428919846151" lon="10.396070413266994"><ele>457.0</ele><time>2026-04-11T15:15:56Z</time></trkpt><trkpt lat="44.38420661443143" lon="10.396030326604127"><ele>457.00000000000006</ele><time>2026-04-11T15:15:56.999Z</time></trkpt><trkpt lat="44.38412353102621" lon="10.395979005877878"><ele>457.0</ele><time>2026-04-11T15:15:57.999Z</time></trkpt><trkpt lat="44.38404519825008" lon="10.395931363604369"><ele>457.00000000000006</ele><time>2026-04-11T15:15:58.999Z</time></trkpt><trkpt lat="44.38396625302994" lon="10.395899615336516"><ele>457.0</ele><time>2026-04-11T15:15:59.999Z</time></trkpt><trkpt lat="44.383881981282755" lon="10.395884764791298"><ele>457.0</ele><time>2026-04-11T15:16:00.999Z</time></trkpt><trkpt lat="44.38379358227006" lon="10.395865915936405"><ele>457.0</ele><time>2026-04-11T15:16:01.999Z</time></trkpt><trkpt lat="44.38371052778153" lon="10.395828819996357"><ele>457.00000000000006</ele><time>2026-04-11T15:16:02.999Z</time></trkpt><trkpt lat="44.383632893254074" lon="10.395781204817093"><ele>457.0</ele><time>2026-04-11T15:16:03.999Z</time></trkpt><trkpt lat="44.38356987109068" lon="10.395728218329406"><ele>457.8</ele><time>2026-04-11T15:16:04.999Z</time></trkpt><trkpt lat="44.38342808338661" lon="10.395684519429455"><ele>458.6</ele><time>2026-04-11T15:16:06.999Z</time></trkpt><trkpt lat="44.38334674586542" lon="10.3956639582006"><ele>459.40000000000003</ele><time>2026-04-11T15:16:07.999Z</time></trkpt><trkpt lat="44.38327767805452" lon="10.395642063226324"><ele>460.20000000000005</ele><time>2026-04-11T15:16:08.999Z</time></trkpt><trkpt lat="44.3831716240595" lon="10.395531964782084"><ele>461.0</ele><time>2026-04-11T15:16:10.999Z</time></trkpt><trkpt lat="44.38311302011256" lon="10.39544168187088"><ele>462.99999999999994</ele><time>2026-04-11T15:16:11.999Z</time></trkpt><trkpt lat="44.38306174690191" lon="10.395365017826904"><ele>465.0</ele><time>2026-04-11T15:16:12.999Z</time></trkpt><trkpt lat="44.38300179568717" lon="10.395328513241077"><ele>467.0</ele><time>2026-04-11T15:16:13.999Z</time></trkpt><trkpt lat="44.38292092350045" lon="10.39529334203503"><ele>469.0</ele><time>2026-04-11T15:16:14.999Z</time></trkpt><trkpt lat="44.38283264582728" lon="10.395292714411983"><ele>470.99999999999994</ele><time>2026-04-11T15:16:15.999Z</time></trkpt><trkpt lat="44.38274239280858" lon="10.395293372593118"><ele>473.0</ele><time>2026-04-11T15:16:16.999Z</time></trkpt><trkpt lat="44.382652062793746" lon="10.395292021372779"><ele>473.16666666666663</ele><time>2026-04-11T15:16:17.999Z</time></trkpt><trkpt lat="44.38256891013398" lon="10.395299507501802"><ele>473.3333333333333</ele><time>2026-04-11T15:16:18.999Z</time></trkpt><trkpt lat="44.38249707704627" lon="10.395285001762344"><ele>473.5</ele><time>2026-04-11T15:16:19.999Z</time></trkpt><trkpt lat="44.3824282138757" lon="10.395258830653765"><ele>473.66666666666663</ele><time>2026-04-11T15:16:20.999Z</time></trkpt><trkpt lat="44.38235839162782" lon="10.395226664767216"><ele>473.8333333333333</ele><time>2026-04-11T15:16:21.999Z</time></trkpt><trkpt lat="44.38229883603011" lon="10.395166126910468"><ele>474.0</ele><time>2026-04-11T15:16:22.999Z</time></trkpt><trkpt lat="44.382217321311536" lon="10.395160125273694"><ele>472.6666666666667</ele><time>2026-04-11T15:16:23.999Z</time></trkpt><trkpt lat="44.3821428522859" lon="10.395163286263472"><ele>471.33333333333337</ele><time>2026-04-11T15:16:24.999Z</time></trkpt><trkpt lat="44.382080482894224" lon="10.395180299542547"><ele>470.0</ele><time>2026-04-11T15:16:25.999Z</time></trkpt><trkpt lat="44.38197551520123" lon="10.395182328149538"><ele>468.6666666666667</ele><time>2026-04-11T15:16:27.999Z</time></trkpt><trkpt lat="44.38191277033638" lon="10.395135481431653"><ele>467.33333333333337</ele><time>2026-04-11T15:16:28.999Z</time></trkpt><trkpt lat="44.38186075962901" lon="10.39506997719284"><ele>466.0</ele><time>2026-04-11T15:16:29.999Z</time></trkpt><trkpt lat="44.38178708215515" lon="10.395012072071747"><ele>466.00000000000006</ele><time>2026-04-11T15:16:30.999Z</time></trkpt><trkpt lat="44.38170665884385" lon="10.394959263166118"><ele>466.0</ele><time>2026-04-11T15:16:31.999Z</time></trkpt><trkpt lat="44.3816355282628" lon="10.39489918764564"><ele>466.0</ele><time>2026-04-11T15:16:32.999Z</time></trkpt><trkpt lat="44.38155111710445" lon="10.394845945136952"><ele>466.0</ele><time>2026-04-11T15:16:33.999Z</time></trkpt><trkpt lat="44.381479691500864" lon="10.394798640799348"><ele>466.00000000000006</ele><time>2026-04-11T15:16:34.999Z</time></trkpt><trkpt lat="44.3813974085367" lon="10.394753265869388"><ele>466.0</ele><time>2026-04-11T15:16:35.999Z</time></trkpt><trkpt lat="44.381310160643054" lon="10.394702274054564"><ele>468.20000000000005</ele><time>2026-04-11T15:16:36.999Z</time></trkpt><trkpt lat="44.38122673251136" lon="10.394644611483292"><ele>470.40000000000003</ele><time>2026-04-11T15:16:37.999Z</time></trkpt><trkpt lat="44.38113845150335" lon="10.394579129009792"><ele>472.6</ele><time>2026-04-11T15:16:38.999Z</time></trkpt><trkpt lat="44.381062705170805" lon="10.3945219475847"><ele>474.8</ele><time>2026-04-11T15:16:39.999Z</time></trkpt><trkpt lat="44.38099125679866" lon="10.394465482385236"><ele>477.0</ele><time>2026-04-11T15:16:40.999Z</time></trkpt><trkpt lat="44.38091568521613" lon="10.394388929603942"><ele>477.0</ele><time>2026-04-11T15:16:41.999Z</time></trkpt><trkpt lat="44.38085215295364" lon="10.394311935037624"><ele>477.00000000000006</ele><time>2026-04-11T15:16:42.999Z</time></trkpt><trkpt lat="44.380770591740735" lon="10.394256610231732"><ele>477.00000000000006</ele><time>2026-04-11T15:16:43.999Z</time></trkpt><trkpt lat="44.38068062164953" lon="10.394189666104023"><ele>477.0</ele><time>2026-04-11T15:16:44.999Z</time></trkpt><trkpt lat="44.38059799592868" lon="10.394119072406824"><ele>477.0</ele><time>2026-04-11T15:16:45.999Z</time></trkpt><trkpt lat="44.38051727402168" lon="10.39405789463671"><ele>476.3333333333333</ele><time>2026-04-11T15:16:46.999Z</time></trkpt><trkpt lat="44.3804424895823" lon="10.3940007912175"><ele>475.66666666666663</ele><time>2026-04-11T15:16:47.999Z</time></trkpt><trkpt lat="44.38037740928287" lon="10.393946024126553"><ele>475.0</ele><time>2026-04-11T15:16:48.999Z</time></trkpt><trkpt lat="44.38030211240163" lon="10.39385801472244"><ele>474.3333333333333</ele><time>2026-04-11T15:16:49.999Z</time></trkpt><trkpt lat="44.38023909282186" lon="10.393763799046273"><ele>473.66666666666663</ele><time>2026-04-11T15:16:50.999Z</time></trkpt><trkpt lat="44.38018154459268" lon="10.393694035416354"><ele>473.0</ele><time>2026-04-11T15:16:51.999Z</time></trkpt><trkpt lat="44.380125995775906" lon="10.393633183479118"><ele>475.8333333333333</ele><time>2026-04-11T15:16:52.999Z</time></trkpt><trkpt lat="44.380061095362464" lon="10.393573581117026"><ele>478.66666666666663</ele><time>2026-04-11T15:16:53.999Z</time></trkpt><trkpt lat="44.38000377962519" lon="10.393525837085615"><ele>481.5</ele><time>2026-04-11T15:16:54.999Z</time></trkpt><trkpt lat="44.379935368644055" lon="10.393493380365305"><ele>484.33333333333337</ele><time>2026-04-11T15:16:55.999Z</time></trkpt><trkpt lat="44.37984533107278" lon="10.393454747672658"><ele>487.1666666666667</ele><time>2026-04-11T15:16:56.999Z</time></trkpt><trkpt lat="44.37976345991048" lon="10.393419621724357"><ele>490.0</ele><time>2026-04-11T15:16:57.999Z</time></trkpt><trkpt lat="44.37968664650731" lon="10.393386665565501"><ele>487.6</ele><time>2026-04-11T15:16:58.999Z</time></trkpt><trkpt lat="44.37963718131978" lon="10.393234803541233"><ele>485.2</ele><time>2026-04-11T15:16:59.999Z</time></trkpt><trkpt lat="44.37955606549703" lon="10.393163214417775"><ele>482.79999999999995</ele><time>2026-04-11T15:17:00.999Z</time></trkpt><trkpt lat="44.37947466360808" lon="10.393102709006486"><ele>480.4</ele><time>2026-04-11T15:17:01.999Z</time></trkpt><trkpt lat="44.37939704543317" lon="10.393054323350853"><ele>478.0</ele><time>2026-04-11T15:17:02.999Z</time></trkpt><trkpt lat="44.3793314326451" lon="10.393042547546218"><ele>483.4</ele><time>2026-04-11T15:17:03.999Z</time></trkpt><trkpt lat="44.3792483107624" lon="10.392991564611448"><ele>488.79999999999995</ele><time>2026-04-11T15:17:04.999Z</time></trkpt><trkpt lat="44.37914876330534" lon="10.393004799938467"><ele>494.2</ele><time>2026-04-11T15:17:05.999Z</time></trkpt><trkpt lat="44.37904360583093" lon="10.392973446037663"><ele>499.6</ele><time>2026-04-11T15:17:06.999Z</time></trkpt><trkpt lat="44.378956614234646" lon="10.392888569063931"><ele>505.0</ele><time>2026-04-11T15:17:07.999Z</time></trkpt><trkpt lat="44.378860882744554" lon="10.39281099023608"><ele>500.8</ele><time>2026-04-11T15:17:08.999Z</time></trkpt><trkpt lat="44.378754783094365" lon="10.392743111246357"><ele>496.6</ele><time>2026-04-11T15:17:09.999Z</time></trkpt><trkpt lat="44.37866141615389" lon="10.39265709670726"><ele>492.4</ele><time>2026-04-11T15:17:10.999Z</time></trkpt><trkpt lat="44.378561552638764" lon="10.392587871820844"><ele>488.2</ele><time>2026-04-11T15:17:11.999Z</time></trkpt><trkpt lat="44.37847188961713" lon="10.392522782260126"><ele>484.0</ele><time>2026-04-11T15:17:12.999Z</time></trkpt><trkpt lat="44.3783823145135" lon="10.392476522261683"><ele>484.0</ele><time>2026-04-11T15:17:13.999Z</time></trkpt><trkpt lat="44.378310822170874" lon="10.392435084873249"><ele>484.0</ele><time>2026-04-11T15:17:14.999Z</time></trkpt><trkpt lat="44.37820226309829" lon="10.39237689735085"><ele>484.0</ele><time>2026-04-11T15:17:16.999Z</time></trkpt><trkpt lat="44.37810161414226" lon="10.39235545355911"><ele>484.0</ele><time>2026-04-11T15:17:18.999Z</time></trkpt><trkpt lat="44.37803271480466" lon="10.392335389673805"><ele>484.0</ele><time>2026-04-11T15:17:19.999Z</time></trkpt><trkpt lat="44.37795350564534" lon="10.392268326507095"><ele>484.0</ele><time>2026-04-11T15:17:20.999Z</time></trkpt><trkpt lat="44.37787157608825" lon="10.392188924549094"><ele>484.0</ele><time>2026-04-11T15:17:21.999Z</time></trkpt><trkpt lat="44.377778190860724" lon="10.392109187245852"><ele>484.0</ele><time>2026-04-11T15:17:23Z</time></trkpt><trkpt lat="44.377678123718695" lon="10.392036798042689"><ele>484.0</ele><time>2026-04-11T15:17:24Z</time></trkpt><trkpt lat="44.37758050762215" lon="10.391965348919557"><ele>484.0</ele><time>2026-04-11T15:17:25Z</time></trkpt><trkpt lat="44.377494967759475" lon="10.391895501905127"><ele>485.2</ele><time>2026-04-11T15:17:26Z</time></trkpt><trkpt lat="44.37741175636377" lon="10.391831734912143"><ele>486.4</ele><time>2026-04-11T15:17:27Z</time></trkpt><trkpt lat="44.377318866305856" lon="10.391760194689864"><ele>487.6</ele><time>2026-04-11T15:17:28Z</time></trkpt><trkpt lat="44.37721948951334" lon="10.391686252367947"><ele>488.8</ele><time>2026-04-11T15:17:29Z</time></trkpt><trkpt lat="44.37712540654817" lon="10.391605959803432"><ele>490.0</ele><time>2026-04-11T15:17:30Z</time></trkpt><trkpt lat="44.37703775835149" lon="10.391527961567823"><ele>490.0</ele><time>2026-04-11T15:17:31Z</time></trkpt><trkpt lat="44.376945940490636" lon="10.391451014782046"><ele>490.0</ele><time>2026-04-11T15:17:32Z</time></trkpt><trkpt lat="44.37685327727788" lon="10.391376346664492"><ele>490.0</ele><time>2026-04-11T15:17:33Z</time></trkpt><trkpt lat="44.37676449751624" lon="10.39130485979633"><ele>490.0</ele><time>2026-04-11T15:17:34Z</time></trkpt><trkpt lat="44.376672002141945" lon="10.391229940812536"><ele>490.0</ele><time>2026-04-11T15:17:35Z</time></trkpt><trkpt lat="44.37658134742696" lon="10.391158208690385"><ele>491.2</ele><time>2026-04-11T15:17:36Z</time></trkpt><trkpt lat="44.37649244298846" lon="10.391088625288985"><ele>492.4</ele><time>2026-04-11T15:17:37Z</time></trkpt><trkpt lat="44.376403158825454" lon="10.391019599854518"><ele>493.6</ele><time>2026-04-11T15:17:38Z</time></trkpt><trkpt lat="44.3763146569351" lon="10.390945628345488"><ele>494.8</ele><time>2026-04-11T15:17:39Z</time></trkpt><trkpt lat="44.37622424138534" lon="10.390871686625298"><ele>496.0</ele><time>2026-04-11T15:17:40Z</time></trkpt><trkpt lat="44.37613149984496" lon="10.390802890721886"><ele>496.0</ele><time>2026-04-11T15:17:41Z</time></trkpt><trkpt lat="44.3760401001459" lon="10.390730911987319"><ele>496.0</ele><time>2026-04-11T15:17:42Z</time></trkpt><trkpt lat="44.375944468975966" lon="10.390654978435023"><ele>496.0</ele><time>2026-04-11T15:17:43Z</time></trkpt><trkpt lat="44.375850295547835" lon="10.3905832978557"><ele>496.0</ele><time>2026-04-11T15:17:44Z</time></trkpt><trkpt lat="44.37575499011729" lon="10.390510636048031"><ele>496.0</ele><time>2026-04-11T15:17:45Z</time></trkpt><trkpt lat="44.37565724386548" lon="10.390436083948133"><ele>496.8</ele><time>2026-04-11T15:17:46Z</time></trkpt><trkpt lat="44.37555929118562" lon="10.390357823016117"><ele>497.6</ele><time>2026-04-11T15:17:47Z</time></trkpt><trkpt lat="44.375460948458354" lon="10.390282097656765"><ele>498.4</ele><time>2026-04-11T15:17:48Z</time></trkpt><trkpt lat="44.375363824965916" lon="10.390205281513357"><ele>499.2</ele><time>2026-04-11T15:17:49Z</time></trkpt><trkpt lat="44.375267550785345" lon="10.390127870052124"><ele>500.0</ele><time>2026-04-11T15:17:50Z</time></trkpt><trkpt lat="44.37516813116181" lon="10.390052891342544"><ele>500.0</ele><time>2026-04-11T15:17:51Z</time></trkpt><trkpt lat="44.375072914586035" lon="10.389976735304186"><ele>500.0</ele><time>2026-04-11T15:17:52Z</time></trkpt><trkpt lat="44.37498046192104" lon="10.389896360328395"><ele>500.0</ele><time>2026-04-11T15:17:53Z</time></trkpt><trkpt lat="44.37488352481481" lon="10.389820195093277"><ele>500.0</ele><time>2026-04-11T15:17:54Z</time></trkpt><trkpt lat="44.37478525527049" lon="10.389748450302111"><ele>500.0</ele><time>2026-04-11T15:17:55Z</time></trkpt><trkpt lat="44.37468814420763" lon="10.389672704271629"><ele>501.2</ele><time>2026-04-11T15:17:56Z</time></trkpt><trkpt lat="44.37459252053573" lon="10.389595457830582"><ele>502.4</ele><time>2026-04-11T15:17:57Z</time></trkpt><trkpt lat="44.3744970849018" lon="10.389522200530099"><ele>503.6</ele><time>2026-04-11T15:17:58Z</time></trkpt><trkpt lat="44.374409574253185" lon="10.3894478191966"><ele>504.8</ele><time>2026-04-11T15:17:59Z</time></trkpt><trkpt lat="44.37433445428323" lon="10.389383614049109"><ele>506.0</ele><time>2026-04-11T15:18:00Z</time></trkpt><trkpt lat="44.374269616277736" lon="10.389335584466501"><ele>505.99999999999994</ele><time>2026-04-11T15:18:01Z</time></trkpt><trkpt lat="44.374213144891975" lon="10.38929154801028"><ele>506.0</ele><time>2026-04-11T15:18:02Z</time></trkpt><trkpt lat="44.37415659430265" lon="10.38925004200823"><ele>506.0</ele><time>2026-04-11T15:18:03Z</time></trkpt><trkpt lat="44.37404613074515" lon="10.389157625698868"><ele>506.0</ele><time>2026-04-11T15:18:05Z</time></trkpt><trkpt lat="44.373982347755174" lon="10.389101719206973"><ele>505.99999999999994</ele><time>2026-04-11T15:18:06Z</time></trkpt><trkpt lat="44.37391248581238" lon="10.389054294243266"><ele>506.0</ele><time>2026-04-11T15:18:07Z</time></trkpt><trkpt lat="44.37384249649937" lon="10.389010620408527"><ele>506.16666666666663</ele><time>2026-04-11T15:18:07.999Z</time></trkpt><trkpt lat="44.37377003147169" lon="10.388962364633414"><ele>506.3333333333333</ele><time>2026-04-11T15:18:08.999Z</time></trkpt><trkpt lat="44.37370198746828" lon="10.388899048608772"><ele>506.5</ele><time>2026-04-11T15:18:09.999Z</time></trkpt><trkpt lat="44.37363206839124" lon="10.388836101236945"><ele>506.66666666666663</ele><time>2026-04-11T15:18:10.999Z</time></trkpt><trkpt lat="44.37356656567968" lon="10.38878578319074"><ele>506.8333333333333</ele><time>2026-04-11T15:18:11.999Z</time></trkpt><trkpt lat="44.37350451179972" lon="10.388741906474875"><ele>507.0</ele><time>2026-04-11T15:18:12.999Z</time></trkpt><trkpt lat="44.373444313008854" lon="10.388695485429079"><ele>508.1666666666667</ele><time>2026-04-11T15:18:13.999Z</time></trkpt><trkpt lat="44.37338354603308" lon="10.388643621211312"><ele>509.33333333333337</ele><time>2026-04-11T15:18:14.999Z</time></trkpt><trkpt lat="44.37332298169381" lon="10.388589441051971"><ele>510.5</ele><time>2026-04-11T15:18:15.999Z</time></trkpt><trkpt lat="44.37325739253072" lon="10.388534780102663"><ele>511.6666666666667</ele><time>2026-04-11T15:18:16.999Z</time></trkpt><trkpt lat="44.37318519737105" lon="10.388482601050027"><ele>512.8333333333334</ele><time>2026-04-11T15:18:17.999Z</time></trkpt><trkpt lat="44.37311165642799" lon="10.388429181151507"><ele>514.0</ele><time>2026-04-11T15:18:18.999Z</time></trkpt><trkpt lat="44.37304322388252" lon="10.388368262288097"><ele>514.1666666666667</ele><time>2026-04-11T15:18:19.999Z</time></trkpt><trkpt lat="44.372983477779954" lon="10.388311668315284"><ele>514.3333333333334</ele><time>2026-04-11T15:18:20.999Z</time></trkpt><trkpt lat="44.37292449744512" lon="10.388261182466607"><ele>514.5</ele><time>2026-04-11T15:18:21.999Z</time></trkpt><trkpt lat="44.37286467029047" lon="10.388208900842153"><ele>514.6666666666666</ele><time>2026-04-11T15:18:22.999Z</time></trkpt><trkpt lat="44.37280733006816" lon="10.38815812775432"><ele>514.8333333333333</ele><time>2026-04-11T15:18:23.999Z</time></trkpt><trkpt lat="44.37272112836715" lon="10.3880692380928"><ele>515.0</ele><time>2026-04-11T15:18:25.999Z</time></trkpt><trkpt lat="44.372668386617136" lon="10.388002256296938"><ele>515.0</ele><time>2026-04-11T15:18:27.999Z</time></trkpt><trkpt lat="44.37260479933213" lon="10.387975807787301"><ele>515.0</ele><time>2026-04-11T15:18:29.999Z</time></trkpt><trkpt lat="44.372530571030715" lon="10.388035331567574"><ele>515.0</ele><time>2026-04-11T15:18:40.999Z</time></trkpt><trkpt lat="44.37246864026962" lon="10.388056878937688"><ele>515.0</ele><time>2026-04-11T15:18:42.999Z</time></trkpt><trkpt lat="44.372432275145094" lon="10.388302497321705"><ele>515.0</ele><time>2026-04-11T15:18:44.999Z</time></trkpt><trkpt lat="44.37239201737555" lon="10.388464003814123"><ele>515.0</ele><time>2026-04-11T15:18:46.999Z</time></trkpt><trkpt lat="44.37237739003778" lon="10.388551097636054"><ele>515.0</ele><time>2026-04-11T15:18:47.999Z</time></trkpt><trkpt lat="44.37233230586969" lon="10.388653708564279"><ele>515.0</ele><time>2026-04-11T15:18:49.999Z</time></trkpt><trkpt lat="44.37224569265977" lon="10.388642241203508"><ele>515.0</ele><time>2026-04-11T15:18:51.999Z</time></trkpt><trkpt lat="44.372162522733035" lon="10.38854793418711"><ele>515.0</ele><time>2026-04-11T15:18:53.999Z</time></trkpt><trkpt lat="44.37206808020373" lon="10.388479381327224"><ele>516.4</ele><time>2026-04-11T15:18:55.999Z</time></trkpt><trkpt lat="44.3719380861754" lon="10.388495641861676"><ele>517.8</ele><time>2026-04-11T15:18:57.999Z</time></trkpt><trkpt lat="44.37186677885425" lon="10.388511300482874"><ele>519.2</ele><time>2026-04-11T15:18:58.999Z</time></trkpt><trkpt lat="44.371747697702524" lon="10.388499522001796"><ele>520.6</ele><time>2026-04-11T15:19:00.999Z</time></trkpt><trkpt lat="44.37162953231068" lon="10.38852994654654"><ele>522.0</ele><time>2026-04-11T15:19:02.999Z</time></trkpt><trkpt lat="44.37157015936067" lon="10.388567714784632"><ele>522.0</ele><time>2026-04-11T15:19:03.999Z</time></trkpt><trkpt lat="44.3715050847476" lon="10.388607208177312"><ele>522.0</ele><time>2026-04-11T15:19:04.999Z</time></trkpt><trkpt lat="44.37138824170422" lon="10.38861058325007"><ele>522.0</ele><time>2026-04-11T15:19:06.999Z</time></trkpt><trkpt lat="44.371315644899354" lon="10.38859668557271"><ele>522.0</ele><time>2026-04-11T15:19:07.999Z</time></trkpt><trkpt lat="44.37124176560666" lon="10.388576190978121"><ele>522.0</ele><time>2026-04-11T15:19:08.999Z</time></trkpt><trkpt lat="44.37117560697011" lon="10.388572735969142"><ele>522.0</ele><time>2026-04-11T15:19:09.999Z</time></trkpt><trkpt lat="44.371086141626876" lon="10.388485350218128"><ele>522.0</ele><time>2026-04-11T15:19:11.999Z</time></trkpt><trkpt lat="44.371019795680574" lon="10.388414143971726"><ele>522.0</ele><time>2026-04-11T15:19:12.999Z</time></trkpt><trkpt lat="44.370943932625714" lon="10.38837360482214"><ele>522.0</ele><time>2026-04-11T15:19:13.999Z</time></trkpt><trkpt lat="44.37083807614066" lon="10.388327477762362"><ele>522.0</ele><time>2026-04-11T15:19:15.999Z</time></trkpt><trkpt lat="44.37076758617943" lon="10.388269014044242"><ele>522.0</ele><time>2026-04-11T15:19:16.999Z</time></trkpt><trkpt lat="44.37067422687638" lon="10.388187898129985"><ele>522.0</ele><time>2026-04-11T15:19:17.999Z</time></trkpt><trkpt lat="44.37061218085185" lon="10.388147264875881"><ele>522.0</ele><time>2026-04-11T15:19:18.999Z</time></trkpt><trkpt lat="44.370496660209234" lon="10.388074374165985"><ele>522.0</ele><time>2026-04-11T15:19:20.999Z</time></trkpt><trkpt lat="44.370414505636454" lon="10.388046834003118"><ele>522.0</ele><time>2026-04-11T15:19:21.999Z</time></trkpt><trkpt lat="44.370332966201694" lon="10.38803008894911"><ele>522.0</ele><time>2026-04-11T15:19:22.999Z</time></trkpt><trkpt lat="44.37026542702845" lon="10.387994875637073"><ele>522.0</ele><time>2026-04-11T15:19:23.999Z</time></trkpt><trkpt lat="44.37019817648457" lon="10.38795910965849"><ele>523.5</ele><time>2026-04-11T15:19:24.999Z</time></trkpt><trkpt lat="44.37012501775712" lon="10.387914966429003"><ele>525.0</ele><time>2026-04-11T15:19:25.999Z</time></trkpt><trkpt lat="44.370064992426684" lon="10.387873160194152"><ele>526.5</ele><time>2026-04-11T15:19:26.999Z</time></trkpt><trkpt lat="44.36997518335813" lon="10.387824535595716"><ele>528.0</ele><time>2026-04-11T15:19:29Z</time></trkpt><trkpt lat="44.36989137902638" lon="10.387767602790394"><ele>529.5</ele><time>2026-04-11T15:19:31Z</time></trkpt><trkpt lat="44.36980052203847" lon="10.387686492615424"><ele>531.0</ele><time>2026-04-11T15:19:33Z</time></trkpt><trkpt lat="44.369714990178004" lon="10.387585822859473"><ele>531.3333333333334</ele><time>2026-04-11T15:19:35Z</time></trkpt><trkpt lat="44.36965747737791" lon="10.387500280775972"><ele>531.6666666666666</ele><time>2026-04-11T15:19:37Z</time></trkpt><trkpt lat="44.36955022604495" lon="10.387442899750313"><ele>532.0</ele><time>2026-04-11T15:19:39Z</time></trkpt><trkpt lat="44.36947813960091" lon="10.387456835421135"><ele>532.3333333333333</ele><time>2026-04-11T15:19:44Z</time></trkpt><trkpt lat="44.36940490112046" lon="10.387520206270107"><ele>532.6666666666666</ele><time>2026-04-11T15:19:47Z</time></trkpt><trkpt lat="44.369350646986824" lon="10.387610472485026"><ele>533.0</ele><time>2026-04-11T15:19:49Z</time></trkpt><trkpt lat="44.369285888060226" lon="10.387646641593895"><ele>533.0</ele><time>2026-04-11T15:19:52Z</time></trkpt><trkpt lat="44.36927622201962" lon="10.387754667458118"><ele>533.0</ele><time>2026-04-11T15:19:55Z</time></trkpt><trkpt lat="44.36925558774241" lon="10.387856415384903"><ele>533.0</ele><time>2026-04-11T15:20:12Z</time></trkpt><trkpt lat="44.3691840356241" lon="10.387853268763168"><ele>533.0</ele><time>2026-04-11T15:20:14Z</time></trkpt><trkpt lat="44.36910674056704" lon="10.387862393695936"><ele>533.0</ele><time>2026-04-11T15:20:16Z</time></trkpt><trkpt lat="44.36899408005846" lon="10.387812243908316"><ele>533.0</ele><time>2026-04-11T15:20:18Z</time></trkpt><trkpt lat="44.368936770914" lon="10.387754893977833"><ele>534.5</ele><time>2026-04-11T15:20:19.999Z</time></trkpt><trkpt lat="44.36884475874184" lon="10.3876999833861"><ele>536.0</ele><time>2026-04-11T15:20:22.999Z</time></trkpt><trkpt lat="44.368784114610705" lon="10.387645361676297"><ele>537.5</ele><time>2026-04-11T15:20:24.999Z</time></trkpt><trkpt lat="44.36870111640263" lon="10.387597583330788"><ele>539.0</ele><time>2026-04-11T15:22:49Z</time></trkpt><trkpt lat="44.368638795110584" lon="10.387578417223457"><ele>540.5</ele><time>2026-04-11T15:22:51Z</time></trkpt><trkpt lat="44.36855776097276" lon="10.387511898093958"><ele>542.0</ele><time>2026-04-11T15:22:53Z</time></trkpt><trkpt lat="44.36846598739047" lon="10.387463466179456"><ele>542.0</ele><time>2026-04-11T15:22:54.999Z</time></trkpt><trkpt lat="44.36841994422288" lon="10.38739151961347"><ele>542.0</ele><time>2026-04-11T15:22:56.999Z</time></trkpt><trkpt lat="44.36835658893028" lon="10.387280337028448"><ele>542.0</ele><time>2026-04-11T15:22:58.999Z</time></trkpt><trkpt lat="44.36827997511979" lon="10.38719676686935"><ele>542.0</ele><time>2026-04-11T15:23:00.999Z</time></trkpt><trkpt lat="44.36820191028035" lon="10.38713521389155"><ele>542.0</ele><time>2026-04-11T15:23:02.999Z</time></trkpt><trkpt lat="44.36812438852593" lon="10.387103771268258"><ele>542.0</ele><time>2026-04-11T15:23:04.999Z</time></trkpt><trkpt lat="44.368032505332266" lon="10.387111105417311"><ele>543.2</ele><time>2026-04-11T15:23:06.999Z</time></trkpt><trkpt lat="44.36792346047192" lon="10.387092666868844"><ele>544.4000000000001</ele><time>2026-04-11T15:23:08.999Z</time></trkpt><trkpt lat="44.36781420733136" lon="10.38705468120065"><ele>545.5999999999999</ele><time>2026-04-11T15:23:10.999Z</time></trkpt><trkpt lat="44.36773502168458" lon="10.387012620659311"><ele>546.8</ele><time>2026-04-11T15:23:12.999Z</time></trkpt><trkpt lat="44.367638001051596" lon="10.387004723404873"><ele>548.0</ele><time>2026-04-11T15:23:14.999Z</time></trkpt><trkpt lat="44.367534899850384" lon="10.38700297725665"><ele>548.0</ele><time>2026-04-11T15:23:16.999Z</time></trkpt><trkpt lat="44.36744824737077" lon="10.386945221930722"><ele>548.0</ele><time>2026-04-11T15:23:18.999Z</time></trkpt><trkpt lat="44.36736494283231" lon="10.386855055040037"><ele>548.0</ele><time>2026-04-11T15:23:20.999Z</time></trkpt><trkpt lat="44.367296286605104" lon="10.386759539594387"><ele>548.0</ele><time>2026-04-11T15:23:22.999Z</time></trkpt><trkpt lat="44.367250499627666" lon="10.386694022502942"><ele>548.0</ele><time>2026-04-11T15:23:23.999Z</time></trkpt><trkpt lat="44.36721194789122" lon="10.386620829941162"><ele>548.0</ele><time>2026-04-11T15:23:24.999Z</time></trkpt><trkpt lat="44.36717096695181" lon="10.386547340061073"><ele>549.4</ele><time>2026-04-11T15:23:25.999Z</time></trkpt><trkpt lat="44.36708253585177" lon="10.386433145079748"><ele>550.8</ele><time>2026-04-11T15:23:27.999Z</time></trkpt><trkpt lat="44.36701256934037" lon="10.386351054248976"><ele>552.2</ele><time>2026-04-11T15:23:29.999Z</time></trkpt><trkpt lat="44.366936100754295" lon="10.386307921677536"><ele>553.6</ele><time>2026-04-11T15:23:31.999Z</time></trkpt><trkpt lat="44.3668308394606" lon="10.386288767062643"><ele>555.0</ele><time>2026-04-11T15:23:33.999Z</time></trkpt><trkpt lat="44.36674852870582" lon="10.386263279529043"><ele>555.0</ele><time>2026-04-11T15:23:35.999Z</time></trkpt><trkpt lat="44.36665689073716" lon="10.386265297133908"><ele>555.0</ele><time>2026-04-11T15:23:37.999Z</time></trkpt><trkpt lat="44.366562263133076" lon="10.38623351208404"><ele>555.0</ele><time>2026-04-11T15:23:39.999Z</time></trkpt><trkpt lat="44.36649184765605" lon="10.386254490757013"><ele>555.0</ele><time>2026-04-11T15:23:42.001Z</time></trkpt><trkpt lat="44.36642294266778" lon="10.386295560565406"><ele>555.0</ele><time>2026-04-11T15:23:44.001Z</time></trkpt><trkpt lat="44.3663234553133" lon="10.386287272188891"><ele>555.0</ele><time>2026-04-11T15:23:46.001Z</time></trkpt><trkpt lat="44.36627114793395" lon="10.386364326760093"><ele>557.1428571428572</ele><time>2026-04-11T15:23:49.001Z</time></trkpt><trkpt lat="44.36622400270645" lon="10.38643736213823"><ele>559.2857142857143</ele><time>2026-04-11T15:23:51.001Z</time></trkpt><trkpt lat="44.36614064209432" lon="10.386475373059458"><ele>561.4285714285714</ele><time>2026-04-11T15:23:53.001Z</time></trkpt><trkpt lat="44.36606865251758" lon="10.3864774592397"><ele>563.5714285714287</ele><time>2026-04-11T15:23:55.001Z</time></trkpt><trkpt lat="44.36602066314917" lon="10.386554576960918"><ele>565.7142857142858</ele><time>2026-04-11T15:24:06Z</time></trkpt><trkpt lat="44.36603065276053" lon="10.38664554603571"><ele>567.8571428571429</ele><time>2026-04-11T15:24:08Z</time></trkpt><trkpt lat="44.366051237098965" lon="10.386740972483354"><ele>570.0</ele><time>2026-04-11T15:24:10Z</time></trkpt><trkpt lat="44.366074164608925" lon="10.386839498760088"><ele>570.0</ele><time>2026-04-11T15:24:12Z</time></trkpt><trkpt lat="44.36606446003831" lon="10.386929480302667"><ele>570.0</ele><time>2026-04-11T15:24:21Z</time></trkpt><trkpt lat="44.36599379831132" lon="10.38701103776388"><ele>570.0</ele><time>2026-04-11T15:26:26Z</time></trkpt><trkpt lat="44.365925189611815" lon="10.387066095759117"><ele>570.0</ele><time>2026-04-11T15:26:38Z</time></trkpt><trkpt lat="44.36582761013162" lon="10.387072885744763"><ele>570.0</ele><time>2026-04-11T15:26:42Z</time></trkpt><trkpt lat="44.36573278939752" lon="10.387072757796314"><ele>570.0</ele><time>2026-04-11T15:26:44Z</time></trkpt><trkpt lat="44.365618753791146" lon="10.387031559633382"><ele>572.2</ele><time>2026-04-11T15:26:46Z</time></trkpt><trkpt lat="44.36551849172045" lon="10.386974735483635"><ele>574.4</ele><time>2026-04-11T15:26:48Z</time></trkpt><trkpt lat="44.36541279117129" lon="10.38693222185862"><ele>576.6</ele><time>2026-04-11T15:26:50Z</time></trkpt><trkpt lat="44.36531559418518" lon="10.386895369613793"><ele>578.8</ele><time>2026-04-11T15:26:51.999Z</time></trkpt><trkpt lat="44.36523245419726" lon="10.386891707762116"><ele>581.0</ele><time>2026-04-11T15:32:27Z</time></trkpt><trkpt lat="44.365174410142515" lon="10.386856986739256"><ele>581.0</ele><time>2026-04-11T15:32:28Z</time></trkpt><trkpt lat="44.36508156730653" lon="10.3868319276817"><ele>581.0</ele><time>2026-04-11T15:32:30Z</time></trkpt><trkpt lat="44.364979316277655" lon="10.386907222520446"><ele>581.0</ele><time>2026-04-11T15:32:32Z</time></trkpt><trkpt lat="44.364919266687146" lon="10.386935419711621"><ele>581.0</ele><time>2026-04-11T15:32:33Z</time></trkpt><trkpt lat="44.36483052539561" lon="10.386967023360638"><ele>581.0</ele><time>2026-04-11T15:32:35Z</time></trkpt><trkpt lat="44.36476398419306" lon="10.387005719525503"><ele>581.0</ele><time>2026-04-11T15:32:38Z</time></trkpt><trkpt lat="44.36466960159739" lon="10.387076266163355"><ele>583.2</ele><time>2026-04-11T15:32:40Z</time></trkpt><trkpt lat="44.36460275591063" lon="10.387139541889638"><ele>585.4000000000001</ele><time>2026-04-11T15:32:42Z</time></trkpt><trkpt lat="44.36455274084607" lon="10.387198265910706"><ele>587.6</ele><time>2026-04-11T15:32:43Z</time></trkpt><trkpt lat="44.36444882191546" lon="10.387281633925216"><ele>589.8000000000001</ele><time>2026-04-11T15:32:45Z</time></trkpt><trkpt lat="44.364362438352885" lon="10.387376362372159"><ele>592.0</ele><time>2026-04-11T15:32:47Z</time></trkpt><trkpt lat="44.36427787064686" lon="10.387450971149756"><ele>593.8333333333334</ele><time>2026-04-11T15:32:49Z</time></trkpt><trkpt lat="44.36424233314125" lon="10.387542770959275"><ele>595.6666666666667</ele><time>2026-04-11T15:32:51Z</time></trkpt><trkpt lat="44.36428460183457" lon="10.387613015228355"><ele>597.5</ele><time>2026-04-11T15:33:02.999Z</time></trkpt><trkpt lat="44.36424905420187" lon="10.387755958585574"><ele>599.3333333333334</ele><time>2026-04-11T15:33:04.999Z</time></trkpt><trkpt lat="44.36422834616415" lon="10.387863299224792"><ele>601.1666666666666</ele><time>2026-04-11T15:33:06.999Z</time></trkpt><trkpt lat="44.364161960946944" lon="10.387982704736611"><ele>603.0</ele><time>2026-04-11T15:33:08.999Z</time></trkpt><trkpt lat="44.36411597445582" lon="10.388070969043765"><ele>605.5</ele><time>2026-04-11T15:33:11.999Z</time></trkpt><trkpt lat="44.364052907948036" lon="10.38812758652623"><ele>608.0</ele><time>2026-04-11T15:33:17.999Z</time></trkpt><trkpt lat="44.364001624256666" lon="10.388206089716299"><ele>610.5</ele><time>2026-04-11T15:35:37.999Z</time></trkpt><trkpt lat="44.36393440316183" lon="10.3882698193566"><ele>613.0</ele><time>2026-04-11T15:35:39.999Z</time></trkpt><trkpt lat="44.36389516678103" lon="10.388345396592301"><ele>615.5</ele><time>2026-04-11T15:35:40.999Z</time></trkpt><trkpt lat="44.36381282739307" lon="10.388404410889446"><ele>618.0</ele><time>2026-04-11T15:35:43.999Z</time></trkpt><trkpt lat="44.36374069280166" lon="10.388472652028165"><ele>620.8</ele><time>2026-04-11T15:35:45.998Z</time></trkpt><trkpt lat="44.363668661407154" lon="10.388522379241623"><ele>623.5999999999999</ele><time>2026-04-11T15:35:47.998Z</time></trkpt><trkpt lat="44.36358384984795" lon="10.38859450766992"><ele>626.4000000000001</ele><time>2026-04-11T15:35:49.998Z</time></trkpt><trkpt lat="44.363487298583465" lon="10.388696359752416"><ele>629.2</ele><time>2026-04-11T15:35:51.998Z</time></trkpt><trkpt lat="44.36342765355597" lon="10.388735338080231"><ele>632.0</ele><time>2026-04-11T15:35:52.998Z</time></trkpt><trkpt lat="44.36332312577598" lon="10.388801328829654"><ele>634.0</ele><time>2026-04-11T15:35:54.998Z</time></trkpt><trkpt lat="44.363228694626564" lon="10.388868793719526"><ele>636.0</ele><time>2026-04-11T15:35:56.998Z</time></trkpt><trkpt lat="44.363140091641576" lon="10.388908856475908"><ele>638.0</ele><time>2026-04-11T15:35:58.998Z</time></trkpt><trkpt lat="44.36309347521245" lon="10.388979578695462"><ele>640.0</ele><time>2026-04-11T15:35:59.998Z</time></trkpt><trkpt lat="44.36302918201428" lon="10.389081557287627"><ele>642.0</ele><time>2026-04-11T15:36:01.998Z</time></trkpt><trkpt lat="44.36301012929869" lon="10.389167941112985"><ele>644.0</ele><time>2026-04-11T15:36:03.998Z</time></trkpt><trkpt lat="44.36298732513841" lon="10.389280093887637"><ele>645.4000000000001</ele><time>2026-04-11T15:36:05.998Z</time></trkpt><trkpt lat="44.36299319894431" lon="10.389421715934533"><ele>646.8</ele><time>2026-04-11T15:36:07.998Z</time></trkpt><trkpt lat="44.36299084131703" lon="10.389577798455475"><ele>648.2</ele><time>2026-04-11T15:36:09.998Z</time></trkpt><trkpt lat="44.36297117421138" lon="10.389714941457532"><ele>649.5999999999999</ele><time>2026-04-11T15:36:11.998Z</time></trkpt><trkpt lat="44.362877938725816" lon="10.38975757154721"><ele>651.0</ele><time>2026-04-11T15:36:13.998Z</time></trkpt><trkpt lat="44.36282020494413" lon="10.389795796090972"><ele>654.6666666666666</ele><time>2026-04-11T15:36:15.998Z</time></trkpt><trkpt lat="44.36279937076275" lon="10.389895918608584"><ele>658.3333333333334</ele><time>2026-04-11T15:36:18Z</time></trkpt><trkpt lat="44.36282417201826" lon="10.39000228666434"><ele>662.0</ele><time>2026-04-11T15:36:20Z</time></trkpt><trkpt lat="44.36287506830308" lon="10.390143047526205"><ele>665.6666666666667</ele><time>2026-04-11T15:36:22Z</time></trkpt><trkpt lat="44.36284865670762" lon="10.39025216463005"><ele>669.3333333333334</ele><time>2026-04-11T15:36:24Z</time></trkpt><trkpt lat="44.36287857536201" lon="10.39038361749284"><ele>673.0</ele><time>2026-04-11T15:36:27Z</time></trkpt><trkpt lat="44.36285269259509" lon="10.390529103098652"><ele>673.0</ele><time>2026-04-11T15:36:29Z</time></trkpt><trkpt lat="44.362854333362485" lon="10.39041193630263"><ele>673.0</ele><time>2026-04-11T15:49:17Z</time></trkpt><trkpt lat="44.36284539960581" lon="10.390289418436344"><ele>673.0</ele><time>2026-04-11T15:49:20Z</time></trkpt><trkpt lat="44.36284673321112" lon="10.390190032474681"><ele>673.0</ele><time>2026-04-11T15:49:23Z</time></trkpt><trkpt lat="44.36282547651254" lon="10.39010319797469"><ele>673.0</ele><time>2026-04-11T15:49:26.999Z</time></trkpt><trkpt lat="44.362820631058675" lon="10.390008361883877"><ele>673.0</ele><time>2026-04-11T15:49:30.999Z</time></trkpt><trkpt lat="44.36280071528211" lon="10.389901614007918"><ele>673.0</ele><time>2026-04-11T15:49:35.999Z</time></trkpt><trkpt lat="44.36277841839116" lon="10.389813479543148"><ele>673.0</ele><time>2026-04-11T15:49:54.999Z</time></trkpt><trkpt lat="44.362857231729315" lon="10.389738690199218"><ele>673.0</ele><time>2026-04-11T15:49:57.999Z</time></trkpt><trkpt lat="44.3629367285514" lon="10.389702037327444"><ele>673.0</ele><time>2026-04-11T15:50:01.999Z</time></trkpt><trkpt lat="44.36298034498874" lon="10.389618841885836"><ele>673.0</ele><time>2026-04-11T15:50:05.999Z</time></trkpt><trkpt lat="44.362993706642456" lon="10.389503201370541"><ele>673.0</ele><time>2026-04-11T15:50:09.999Z</time></trkpt><trkpt lat="44.362990366209495" lon="10.389395034781204"><ele>669.3333333333334</ele><time>2026-04-11T15:50:12.999Z</time></trkpt><trkpt lat="44.36298697559472" lon="10.38928982850405"><ele>665.6666666666667</ele><time>2026-04-11T15:50:15.999Z</time></trkpt><trkpt lat="44.36299944221218" lon="10.389183426439505"><ele>662.0</ele><time>2026-04-11T15:50:18.999Z</time></trkpt><trkpt lat="44.36300857308065" lon="10.389081355404889"><ele>658.3333333333334</ele><time>2026-04-11T15:50:21.998Z</time></trkpt><trkpt lat="44.36305737616858" lon="10.38897077305073"><ele>654.6666666666666</ele><time>2026-04-11T15:50:24.998Z</time></trkpt><trkpt lat="44.363129280967044" lon="10.388948947324836"><ele>651.0</ele><time>2026-04-11T15:50:26.998Z</time></trkpt><trkpt lat="44.36318191597717" lon="10.38888453865248"><ele>647.8333333333334</ele><time>2026-04-11T15:50:28.998Z</time></trkpt><trkpt lat="44.36324625872541" lon="10.38882910213098"><ele>644.6666666666666</ele><time>2026-04-11T15:50:30.998Z</time></trkpt><trkpt lat="44.363326955548445" lon="10.388774853816447"><ele>641.5</ele><time>2026-04-11T15:50:32.998Z</time></trkpt><trkpt lat="44.36341814048848" lon="10.388728110724324"><ele>638.3333333333333</ele><time>2026-04-11T15:50:34.998Z</time></trkpt><trkpt lat="44.36349288932645" lon="10.388644632151419"><ele>635.1666666666666</ele><time>2026-04-11T15:50:36.998Z</time></trkpt><trkpt lat="44.36356548172801" lon="10.38857113613075"><ele>632.0</ele><time>2026-04-11T15:50:38.998Z</time></trkpt><trkpt lat="44.363637099603594" lon="10.388484161171023"><ele>632.0</ele><time>2026-04-11T15:50:40.998Z</time></trkpt><trkpt lat="44.363713169774684" lon="10.388423789621529"><ele>632.0</ele><time>2026-04-11T15:50:42.998Z</time></trkpt><trkpt lat="44.36379724377169" lon="10.388363094608142"><ele>632.0</ele><time>2026-04-11T15:50:45.998Z</time></trkpt><trkpt lat="44.36385711326262" lon="10.388320090811252"><ele>632.0</ele><time>2026-04-11T15:50:48.998Z</time></trkpt><trkpt lat="44.363934044246314" lon="10.388256939494946"><ele>632.0</ele><time>2026-04-11T15:50:50.998Z</time></trkpt><trkpt lat="44.36398308679724" lon="10.388178151988965"><ele>632.0</ele><time>2026-04-11T15:50:52.998Z</time></trkpt><trkpt lat="44.36405039652501" lon="10.388117959462166"><ele>629.6666666666666</ele><time>2026-04-11T15:50:54.998Z</time></trkpt><trkpt lat="44.36410554334999" lon="10.388038402290018"><ele>627.3333333333333</ele><time>2026-04-11T15:50:57.998Z</time></trkpt><trkpt lat="44.364154898138615" lon="10.387966661643167"><ele>625.0</ele><time>2026-04-11T15:51:00.999Z</time></trkpt><trkpt lat="44.36421049805747" lon="10.387892918497458"><ele>622.6666666666666</ele><time>2026-04-11T15:51:03.999Z</time></trkpt><trkpt lat="44.36423707350562" lon="10.387797700790726"><ele>620.3333333333334</ele><time>2026-04-11T15:51:06.999Z</time></trkpt><trkpt lat="44.364240210558656" lon="10.387669434025733"><ele>618.0</ele><time>2026-04-11T15:51:09.999Z</time></trkpt><trkpt lat="44.36425391701488" lon="10.387565761713894"><ele>615.5</ele><time>2026-04-11T15:51:12.999Z</time></trkpt><trkpt lat="44.36427658978249" lon="10.38747394916542"><ele>613.0</ele><time>2026-04-11T15:51:14.999Z</time></trkpt><trkpt lat="44.3643293817307" lon="10.387408627896846"><ele>610.5</ele><time>2026-04-11T15:51:16.999Z</time></trkpt><trkpt lat="44.364391845913644" lon="10.387356104766477"><ele>608.0</ele><time>2026-04-11T15:51:18.999Z</time></trkpt><trkpt lat="44.364459141127945" lon="10.387290184537505"><ele>605.5</ele><time>2026-04-11T15:51:20.999Z</time></trkpt><trkpt lat="44.36451946286013" lon="10.387217113086587"><ele>603.0</ele><time>2026-04-11T15:51:22.999Z</time></trkpt><trkpt lat="44.364585579681055" lon="10.387163543924064"><ele>601.1666666666666</ele><time>2026-04-11T15:51:24.999Z</time></trkpt><trkpt lat="44.36464906499019" lon="10.387099614546"><ele>599.3333333333334</ele><time>2026-04-11T15:51:26.999Z</time></trkpt><trkpt lat="44.364700415448304" lon="10.38702330308301"><ele>597.5</ele><time>2026-04-11T15:51:28.999Z</time></trkpt><trkpt lat="44.364768740599736" lon="10.386973923431395"><ele>595.6666666666667</ele><time>2026-04-11T15:51:30.999Z</time></trkpt><trkpt lat="44.36483507079368" lon="10.386953384010976"><ele>593.8333333333334</ele><time>2026-04-11T15:51:32.999Z</time></trkpt><trkpt lat="44.36489864480464" lon="10.386929440961897"><ele>592.0</ele><time>2026-04-11T15:51:34.999Z</time></trkpt><trkpt lat="44.36498376566622" lon="10.386873969224366"><ele>589.8000000000001</ele><time>2026-04-11T15:51:37.999Z</time></trkpt><trkpt lat="44.365059034912264" lon="10.38685093952656"><ele>587.6</ele><time>2026-04-11T15:51:39.999Z</time></trkpt><trkpt lat="44.36515714083661" lon="10.386840077331124"><ele>585.4000000000001</ele><time>2026-04-11T15:51:41.999Z</time></trkpt><trkpt lat="44.36524150301347" lon="10.38688184278917"><ele>583.2</ele><time>2026-04-11T15:51:43.999Z</time></trkpt><trkpt lat="44.365337134510334" lon="10.38689503811628"><ele>581.0</ele><time>2026-04-11T15:51:45.999Z</time></trkpt><trkpt lat="44.365425506578" lon="10.38692672254233"><ele>581.0</ele><time>2026-04-11T15:51:47.999Z</time></trkpt><trkpt lat="44.36550722759982" lon="10.386961229031085"><ele>581.0</ele><time>2026-04-11T15:51:49.999Z</time></trkpt><trkpt lat="44.365579640847805" lon="10.387006015828275"><ele>581.0</ele><time>2026-04-11T15:51:52.999Z</time></trkpt><trkpt lat="44.36565099569406" lon="10.387048223644852"><ele>581.0</ele><time>2026-04-11T15:51:55.999Z</time></trkpt><trkpt lat="44.36571486459802" lon="10.387054195687252"><ele>581.0</ele><time>2026-04-11T15:51:57.999Z</time></trkpt><trkpt lat="44.3658139173912" lon="10.387081452925983"><ele>581.0</ele><time>2026-04-11T15:52:01.999Z</time></trkpt><trkpt lat="44.36587699796467" lon="10.387061896865825"><ele>579.1666666666666</ele><time>2026-04-11T15:52:04.999Z</time></trkpt><trkpt lat="44.36595809391168" lon="10.387009107874839"><ele>577.3333333333333</ele><time>2026-04-11T15:52:08.999Z</time></trkpt><trkpt lat="44.366012843209994" lon="10.386948220844339"><ele>575.5</ele><time>2026-04-11T15:52:11.999Z</time></trkpt><trkpt lat="44.36605014193489" lon="10.386863670982493"><ele>573.6666666666666</ele><time>2026-04-11T15:52:29.998Z</time></trkpt><trkpt lat="44.366032679730594" lon="10.386770299554877"><ele>571.8333333333334</ele><time>2026-04-11T15:52:32.998Z</time></trkpt><trkpt lat="44.36600430399331" lon="10.386646610791756"><ele>570.0</ele><time>2026-04-11T15:52:35.998Z</time></trkpt><trkpt lat="44.36599495909841" lon="10.386541414395198"><ele>570.0</ele><time>2026-04-11T15:52:38.998Z</time></trkpt><trkpt lat="44.3660423639119" lon="10.386479903394257"><ele>570.0</ele><time>2026-04-11T15:52:40.998Z</time></trkpt><trkpt lat="44.36614124921315" lon="10.386460166573249"><ele>570.0</ele><time>2026-04-11T15:52:43.998Z</time></trkpt><trkpt lat="44.36620786772699" lon="10.386437788057382"><ele>570.0</ele><time>2026-04-11T15:52:45.998Z</time></trkpt><trkpt lat="44.36625029309028" lon="10.386337100709202"><ele>570.0</ele><time>2026-04-11T15:52:47.998Z</time></trkpt><trkpt lat="44.3662947162768" lon="10.38627420746028"><ele>570.0</ele><time>2026-04-11T15:52:49.998Z</time></trkpt><trkpt lat="44.36635769096926" lon="10.38625286708951"><ele>570.0</ele><time>2026-04-11T15:52:51.998Z</time></trkpt><trkpt lat="44.36644046605244" lon="10.386251136730705"><ele>567.5</ele><time>2026-04-11T15:52:53.998Z</time></trkpt><trkpt lat="44.36653032547685" lon="10.38622486304275"><ele>565.0</ele><time>2026-04-11T15:52:56.998Z</time></trkpt><trkpt lat="44.36659689989942" lon="10.386227293844167"><ele>562.5</ele><time>2026-04-11T15:52:58.998Z</time></trkpt><trkpt lat="44.366687868598845" lon="10.386255087083029"><ele>560.0</ele><time>2026-04-11T15:53:01.998Z</time></trkpt><trkpt lat="44.366779933547406" lon="10.3862540603468"><ele>557.5</ele><time>2026-04-11T15:53:03.998Z</time></trkpt><trkpt lat="44.36686847958758" lon="10.386267383626157"><ele>555.0</ele><time>2026-04-11T15:53:05.999Z</time></trkpt><trkpt lat="44.36695138850432" lon="10.386308358009476"><ele>555.2</ele><time>2026-04-11T15:53:07.999Z</time></trkpt><trkpt lat="44.36703549291112" lon="10.386348445406632"><ele>555.4</ele><time>2026-04-11T15:53:09.999Z</time></trkpt><trkpt lat="44.367098899570706" lon="10.386458512296604"><ele>555.6</ele><time>2026-04-11T15:53:11.999Z</time></trkpt><trkpt lat="44.3671930078885" lon="10.386588320716887"><ele>555.8</ele><time>2026-04-11T15:53:13.999Z</time></trkpt><trkpt lat="44.367238348518846" lon="10.386675782557884"><ele>556.0</ele><time>2026-04-11T15:53:14.999Z</time></trkpt><trkpt lat="44.367292147326495" lon="10.386758905397262"><ele>554.6666666666667</ele><time>2026-04-11T15:53:15.999Z</time></trkpt><trkpt lat="44.367341387194735" lon="10.386831013011964"><ele>553.3333333333334</ele><time>2026-04-11T15:53:16.999Z</time></trkpt><trkpt lat="44.36739279548701" lon="10.386888724235673"><ele>552.0</ele><time>2026-04-11T15:53:17.999Z</time></trkpt><trkpt lat="44.367451579297985" lon="10.386948236725301"><ele>550.6666666666666</ele><time>2026-04-11T15:53:18.999Z</time></trkpt><trkpt lat="44.36750812005302" lon="10.386987528656627"><ele>549.3333333333333</ele><time>2026-04-11T15:53:19.999Z</time></trkpt><trkpt lat="44.367623139783184" lon="10.38701943824914"><ele>548.0</ele><time>2026-04-11T15:53:21.999Z</time></trkpt><trkpt lat="44.367724103499704" lon="10.387014880750318"><ele>548.0</ele><time>2026-04-11T15:53:23.999Z</time></trkpt><trkpt lat="44.36778797823719" lon="10.387025855598356"><ele>548.0</ele><time>2026-04-11T15:53:24.999Z</time></trkpt><trkpt lat="44.36787311108318" lon="10.387070263330022"><ele>548.0</ele><time>2026-04-11T15:53:26.999Z</time></trkpt><trkpt lat="44.367969045272936" lon="10.387102092597715"><ele>548.0</ele><time>2026-04-11T15:53:28.999Z</time></trkpt><trkpt lat="44.36805936078361" lon="10.387087447248762"><ele>548.0</ele><time>2026-04-11T15:53:30.999Z</time></trkpt><trkpt lat="44.36814818950371" lon="10.387103993631735"><ele>548.0</ele><time>2026-04-11T15:53:32.999Z</time></trkpt><trkpt lat="44.36826067602855" lon="10.38716943363619"><ele>546.8</ele><time>2026-04-11T15:53:34.999Z</time></trkpt><trkpt lat="44.36832670709289" lon="10.387251979527827"><ele>545.5999999999999</ele><time>2026-04-11T15:53:36.999Z</time></trkpt><trkpt lat="44.368407486374025" lon="10.387358273674682"><ele>544.4000000000001</ele><time>2026-04-11T15:53:38.999Z</time></trkpt><trkpt lat="44.36844937807574" lon="10.387453381343446"><ele>543.2</ele><time>2026-04-11T15:53:40.999Z</time></trkpt><trkpt lat="44.368522805684336" lon="10.387494882516565"><ele>542.0</ele><time>2026-04-11T15:53:42.999Z</time></trkpt><trkpt lat="44.36864065547862" lon="10.387570269541202"><ele>542.0</ele><time>2026-04-11T15:53:44.999Z</time></trkpt><trkpt lat="44.368709925436754" lon="10.387600766524507"><ele>542.0</ele><time>2026-04-11T15:53:45.999Z</time></trkpt><trkpt lat="44.36876098665472" lon="10.387655797004104"><ele>542.0</ele><time>2026-04-11T15:53:47.999Z</time></trkpt><trkpt lat="44.36881768361653" lon="10.387700826981026"><ele>542.0</ele><time>2026-04-11T15:53:49.999Z</time></trkpt><trkpt lat="44.36889420024529" lon="10.38774562658122"><ele>542.0</ele><time>2026-04-11T15:53:52.999Z</time></trkpt><trkpt lat="44.368944570315136" lon="10.387798798377776"><ele>542.0</ele><time>2026-04-11T15:53:54.999Z</time></trkpt><trkpt lat="44.3690462459349" lon="10.387856241478099"><ele>540.5</ele><time>2026-04-11T15:53:57.999Z</time></trkpt><trkpt lat="44.369132437670004" lon="10.387847441209525"><ele>539.0</ele><time>2026-04-11T15:53:59.999Z</time></trkpt><trkpt lat="44.36920210446559" lon="10.387813808807882"><ele>537.5</ele><time>2026-04-11T15:54:01.999Z</time></trkpt><trkpt lat="44.36925285635222" lon="10.387713918829954"><ele>536.0</ele><time>2026-04-11T15:54:04.999Z</time></trkpt><trkpt lat="44.36926718275397" lon="10.387621594086003"><ele>534.5</ele><time>2026-04-11T15:54:06.999Z</time></trkpt><trkpt lat="44.369342224702024" lon="10.387598261665593"><ele>533.0</ele><time>2026-04-11T15:55:08.998Z</time></trkpt><trkpt lat="44.36938767037384" lon="10.387533402219425"><ele>533.0</ele><time>2026-04-11T15:58:26.999Z</time></trkpt><trkpt lat="44.36944104213982" lon="10.387475205921724"><ele>533.0</ele><time>2026-04-11T15:58:28.999Z</time></trkpt><trkpt lat="44.369513519813204" lon="10.387426464497182"><ele>533.0</ele><time>2026-04-11T15:58:31.999Z</time></trkpt><trkpt lat="44.369577742273094" lon="10.387434895222542"><ele>533.0</ele><time>2026-04-11T15:58:32.999Z</time></trkpt><trkpt lat="44.36966394677178" lon="10.387531710852246"><ele>533.0</ele><time>2026-04-11T15:58:34.999Z</time></trkpt><trkpt lat="44.369723023058555" lon="10.387601899458051"><ele>533.0</ele><time>2026-04-11T15:58:35.999Z</time></trkpt><trkpt lat="44.36978126140235" lon="10.387676159139692"><ele>532.6</ele><time>2026-04-11T15:58:36.999Z</time></trkpt><trkpt lat="44.3698640248648" lon="10.387766309843162"><ele>532.1999999999999</ele><time>2026-04-11T15:58:37.999Z</time></trkpt><trkpt lat="44.36994159838372" lon="10.387835669029752"><ele>531.8</ele><time>2026-04-11T15:58:38.999Z</time></trkpt><trkpt lat="44.37001968934586" lon="10.387881435716046"><ele>531.4</ele><time>2026-04-11T15:58:39.999Z</time></trkpt><trkpt lat="44.37013279872287" lon="10.387935510522288"><ele>531.0</ele><time>2026-04-11T15:58:40.999Z</time></trkpt><trkpt lat="44.370215937260404" lon="10.387980633039051"><ele>529.6666666666666</ele><time>2026-04-11T15:58:41.999Z</time></trkpt><trkpt lat="44.37027968965902" lon="10.388030215394226"><ele>528.3333333333334</ele><time>2026-04-11T15:58:42.999Z</time></trkpt><trkpt lat="44.370351470650306" lon="10.388065544185807"><ele>527.0</ele><time>2026-04-11T15:58:43.999Z</time></trkpt><trkpt lat="44.370426724287505" lon="10.388095481796631"><ele>525.6666666666667</ele><time>2026-04-11T15:58:44.999Z</time></trkpt><trkpt lat="44.37049768799764" lon="10.388108696977165"><ele>524.3333333333334</ele><time>2026-04-11T15:58:45.999Z</time></trkpt><trkpt lat="44.370566937877676" lon="10.388131938785538"><ele>523.0</ele><time>2026-04-11T15:58:46.999Z</time></trkpt><trkpt lat="44.37066255934121" lon="10.38819716745398"><ele>522.8333333333334</ele><time>2026-04-11T15:58:48.999Z</time></trkpt><trkpt lat="44.370748196973466" lon="10.388275551606204"><ele>522.6666666666667</ele><time>2026-04-11T15:58:50.999Z</time></trkpt><trkpt lat="44.37079209265414" lon="10.388342823016982"><ele>522.5</ele><time>2026-04-11T15:58:52.999Z</time></trkpt><trkpt lat="44.37085885242824" lon="10.38839812654301"><ele>522.3333333333334</ele><time>2026-04-11T15:58:55.999Z</time></trkpt><trkpt lat="44.37098439483453" lon="10.388426191752666"><ele>522.1666666666666</ele><time>2026-04-11T15:59:11.999Z</time></trkpt><trkpt lat="44.37105373449927" lon="10.388462398354578"><ele>522.0</ele><time>2026-04-11T15:59:12.999Z</time></trkpt><trkpt lat="44.37111812700998" lon="10.388518772822934"><ele>522.0</ele><time>2026-04-11T15:59:13.999Z</time></trkpt><trkpt lat="44.37121243311789" lon="10.388592774931924"><ele>522.0</ele><time>2026-04-11T15:59:15.999Z</time></trkpt><trkpt lat="44.37132405786869" lon="10.38861378709716"><ele>522.0</ele><time>2026-04-11T15:59:17.999Z</time></trkpt><trkpt lat="44.37139596729146" lon="10.388613897971299"><ele>522.0</ele><time>2026-04-11T15:59:18.999Z</time></trkpt><trkpt lat="44.371507065223746" lon="10.388609029483856"><ele>522.0</ele><time>2026-04-11T15:59:20.999Z</time></trkpt><trkpt lat="44.37156978035989" lon="10.388578713686032"><ele>522.0</ele><time>2026-04-11T15:59:22Z</time></trkpt><trkpt lat="44.371652562472036" lon="10.388529100088828"><ele>522.0</ele><time>2026-04-11T15:59:23Z</time></trkpt><trkpt lat="44.37173102645972" lon="10.388497782497106"><ele>522.0</ele><time>2026-04-11T15:59:24Z</time></trkpt><trkpt lat="44.371796829876395" lon="10.388485447371593"><ele>522.0</ele><time>2026-04-11T15:59:25Z</time></trkpt><trkpt lat="44.371918796024424" lon="10.3885109276763"><ele>522.0</ele><time>2026-04-11T15:59:27Z</time></trkpt><trkpt lat="44.37198550661186" lon="10.388503127337454"><ele>522.0</ele><time>2026-04-11T15:59:28Z</time></trkpt><trkpt lat="44.37205246462669" lon="10.388484190914212"><ele>522.0</ele><time>2026-04-11T15:59:29Z</time></trkpt><trkpt lat="44.372169745782266" lon="10.388523167718152"><ele>522.0</ele><time>2026-04-11T15:59:31Z</time></trkpt><trkpt lat="44.37221595481899" lon="10.38860394114899"><ele>522.0</ele><time>2026-04-11T15:59:32Z</time></trkpt><trkpt lat="44.37229832137219" lon="10.388657680588906"><ele>522.0</ele><time>2026-04-11T15:59:34Z</time></trkpt><trkpt lat="44.37236337706588" lon="10.38857938403318"><ele>522.0</ele><time>2026-04-11T15:59:36Z</time></trkpt><trkpt lat="44.372388531673124" lon="10.388397710030649"><ele>520.8333333333334</ele><time>2026-04-11T15:59:38Z</time></trkpt><trkpt lat="44.37241622087427" lon="10.388289964755009"><ele>519.6666666666666</ele><time>2026-04-11T15:59:39Z</time></trkpt><trkpt lat="44.372464628678465" lon="10.388144539515363"><ele>518.5</ele><time>2026-04-11T15:59:41Z</time></trkpt><trkpt lat="44.37251902918113" lon="10.3880647646749"><ele>517.3333333333333</ele><time>2026-04-11T15:59:43Z</time></trkpt><trkpt lat="44.37259421500753" lon="10.388038795486638"><ele>516.1666666666666</ele><time>2026-04-11T15:59:45Z</time></trkpt><trkpt lat="44.37259506487267" lon="10.387924170753992"><ele>515.0</ele><time>2026-04-11T15:59:47Z</time></trkpt><trkpt lat="44.372547245458584" lon="10.387861164777565"><ele>517.2857142857143</ele><time>2026-04-11T15:59:48Z</time></trkpt><trkpt lat="44.37250208796874" lon="10.387793413163608"><ele>519.5714285714286</ele><time>2026-04-11T15:59:49Z</time></trkpt><trkpt lat="44.37246482553856" lon="10.387721138720869"><ele>521.8571428571429</ele><time>2026-04-11T15:59:50Z</time></trkpt><trkpt lat="44.3724401229287" lon="10.387621954461913"><ele>524.1428571428571</ele><time>2026-04-11T15:59:51Z</time></trkpt><trkpt lat="44.37240145077225" lon="10.387551872040092"><ele>526.4285714285714</ele><time>2026-04-11T15:59:52Z</time></trkpt><trkpt lat="44.37235290189149" lon="10.387470863429847"><ele>528.7142857142858</ele><time>2026-04-11T15:59:53Z</time></trkpt><trkpt lat="44.37228790862447" lon="10.387395813128924"><ele>531.0</ele><time>2026-04-11T15:59:54Z</time></trkpt><trkpt lat="44.372225887609105" lon="10.387316769504697"><ele>531.0</ele><time>2026-04-11T15:59:55Z</time></trkpt><trkpt lat="44.37216504649897" lon="10.387267031485207"><ele>531.0</ele><time>2026-04-11T15:59:56Z</time></trkpt><trkpt lat="44.37208659778991" lon="10.387213660308053"><ele>531.0</ele><time>2026-04-11T15:59:58Z</time></trkpt><trkpt lat="44.372172418422146" lon="10.387263458917761"><ele>531.0</ele><time>2026-04-11T16:00:15Z</time></trkpt><trkpt lat="44.37223304513249" lon="10.387370448828394"><ele>531.0</ele><time>2026-04-11T16:00:17Z</time></trkpt><trkpt lat="44.372304608940425" lon="10.38747243429192"><ele>531.0</ele><time>2026-04-11T16:00:19Z</time></trkpt><trkpt lat="44.37235444885162" lon="10.387568897653251"><ele>531.0</ele><time>2026-04-11T16:00:20.999Z</time></trkpt><trkpt lat="44.37239327761391" lon="10.387669407736114"><ele>531.0</ele><time>2026-04-11T16:01:05.999Z</time></trkpt><trkpt lat="44.37244724864308" lon="10.387764280570423"><ele>531.0</ele><time>2026-04-11T16:01:08.999Z</time></trkpt><trkpt lat="44.37249467789704" lon="10.387848484110103"><ele>531.0</ele><time>2026-04-11T16:01:10.999Z</time></trkpt><trkpt lat="44.37254741160718" lon="10.387944297769959"><ele>531.0</ele><time>2026-04-11T16:01:12.999Z</time></trkpt><trkpt lat="44.37261937271458" lon="10.388052104491306"><ele>527.8</ele><time>2026-04-11T16:01:14.999Z</time></trkpt><trkpt lat="44.37271683160849" lon="10.388139040677004"><ele>524.6</ele><time>2026-04-11T16:01:16.999Z</time></trkpt><trkpt lat="44.37282050701218" lon="10.38824664092026"><ele>521.4</ele><time>2026-04-11T16:01:18.999Z</time></trkpt><trkpt lat="44.37287884289013" lon="10.388297965764538"><ele>518.2</ele><time>2026-04-11T16:01:19.999Z</time></trkpt><trkpt lat="44.372942464579666" lon="10.388352467697779"><ele>515.0</ele><time>2026-04-11T16:01:20.999Z</time></trkpt><trkpt lat="44.37300608820937" lon="10.388405524273143"><ele>514.8333333333333</ele><time>2026-04-11T16:01:21.999Z</time></trkpt><trkpt lat="44.373073172821805" lon="10.388458068397942"><ele>514.6666666666666</ele><time>2026-04-11T16:01:22.999Z</time></trkpt><trkpt lat="44.37314149840987" lon="10.388512299019109"><ele>514.5</ele><time>2026-04-11T16:01:23.999Z</time></trkpt><trkpt lat="44.373214512516505" lon="10.388569330734583"><ele>514.3333333333334</ele><time>2026-04-11T16:01:24.999Z</time></trkpt><trkpt lat="44.3732825844616" lon="10.388623843618346"><ele>514.1666666666667</ele><time>2026-04-11T16:01:25.999Z</time></trkpt><trkpt lat="44.373354152280754" lon="10.388679605832595"><ele>514.0</ele><time>2026-04-11T16:01:26.999Z</time></trkpt><trkpt lat="44.37342490079991" lon="10.388736074385406"><ele>514.0</ele><time>2026-04-11T16:01:28Z</time></trkpt><trkpt lat="44.37349829028025" lon="10.388792729217222"><ele>514.0</ele><time>2026-04-11T16:01:29Z</time></trkpt><trkpt lat="44.37357057597698" lon="10.388850304834905"><ele>514.0</ele><time>2026-04-11T16:01:30Z</time></trkpt><trkpt lat="44.37364113581552" lon="10.38890735500667"><ele>514.0</ele><time>2026-04-11T16:01:31Z</time></trkpt><trkpt lat="44.373716601360506" lon="10.38896735036525"><ele>514.0</ele><time>2026-04-11T16:01:32Z</time></trkpt><trkpt lat="44.37379178818828" lon="10.389027999588405"><ele>514.0</ele><time>2026-04-11T16:01:33Z</time></trkpt><trkpt lat="44.37386608604883" lon="10.389085581596289"><ele>512.4</ele><time>2026-04-11T16:01:34Z</time></trkpt><trkpt lat="44.37394805583723" lon="10.389148144366798"><ele>510.79999999999995</ele><time>2026-04-11T16:01:35Z</time></trkpt><trkpt lat="44.37402621725855" lon="10.389208051272487"><ele>509.20000000000005</ele><time>2026-04-11T16:01:36Z</time></trkpt><trkpt lat="44.3741017204494" lon="10.38926555416977"><ele>507.6</ele><time>2026-04-11T16:01:37Z</time></trkpt><trkpt lat="44.374183426029084" lon="10.389327639205142"><ele>506.0</ele><time>2026-04-11T16:01:38Z</time></trkpt><trkpt lat="44.37426092435166" lon="10.389391582853067"><ele>506.0</ele><time>2026-04-11T16:01:39Z</time></trkpt><trkpt lat="44.374339986869664" lon="10.38945488474448"><ele>506.0</ele><time>2026-04-11T16:01:40Z</time></trkpt><trkpt lat="44.374420701667944" lon="10.389513416443254"><ele>506.0</ele><time>2026-04-11T16:01:41Z</time></trkpt><trkpt lat="44.37450099170777" lon="10.389573962876147"><ele>506.0</ele><time>2026-04-11T16:01:42Z</time></trkpt><trkpt lat="44.37458129049197" lon="10.389642247014708"><ele>506.0</ele><time>2026-04-11T16:01:43Z</time></trkpt><trkpt lat="44.37466017060221" lon="10.389709987407166"><ele>504.8</ele><time>2026-04-11T16:01:44Z</time></trkpt><trkpt lat="44.374741170326786" lon="10.389771601954033"><ele>503.6</ele><time>2026-04-11T16:01:45Z</time></trkpt><trkpt lat="44.374822759770986" lon="10.389832841740262"><ele>502.4</ele><time>2026-04-11T16:01:46Z</time></trkpt><trkpt lat="44.3749061354377" lon="10.389893915735739"><ele>501.2</ele><time>2026-04-11T16:01:47Z</time></trkpt><trkpt lat="44.374988853975" lon="10.389955885039035"><ele>500.0</ele><time>2026-04-11T16:01:48Z</time></trkpt><trkpt lat="44.37507169367837" lon="10.39002136568694"><ele>500.0</ele><time>2026-04-11T16:01:49Z</time></trkpt><trkpt lat="44.37515157842474" lon="10.390091483223443"><ele>500.0</ele><time>2026-04-11T16:01:50Z</time></trkpt><trkpt lat="44.37523455055287" lon="10.390159367530085"><ele>500.0</ele><time>2026-04-11T16:01:51Z</time></trkpt><trkpt lat="44.375317598820345" lon="10.39022395662751"><ele>500.0</ele><time>2026-04-11T16:01:52Z</time></trkpt><trkpt lat="44.375401348988696" lon="10.390286783932243"><ele>500.0</ele><time>2026-04-11T16:01:53Z</time></trkpt><trkpt lat="44.37547701853171" lon="10.390343945798728"><ele>499.3333333333333</ele><time>2026-04-11T16:01:54Z</time></trkpt><trkpt lat="44.37554275712606" lon="10.390401388308437"><ele>498.66666666666663</ele><time>2026-04-11T16:01:55Z</time></trkpt><trkpt lat="44.375599272384726" lon="10.39045269922461"><ele>498.0</ele><time>2026-04-11T16:01:56Z</time></trkpt><trkpt lat="44.375691492424046" lon="10.390527197698562"><ele>497.33333333333337</ele><time>2026-04-11T16:01:58Z</time></trkpt><trkpt lat="44.37576090271293" lon="10.390587604027054"><ele>496.6666666666667</ele><time>2026-04-11T16:02:00Z</time></trkpt><trkpt lat="44.37581995346163" lon="10.390630655664928"><ele>496.0</ele><time>2026-04-11T16:02:03Z</time></trkpt><trkpt lat="44.375906583802" lon="10.390678870197982"><ele>496.0</ele><time>2026-04-11T16:04:28Z</time></trkpt><trkpt lat="44.37580442946403" lon="10.390601943854895"><ele>496.0</ele><time>2026-04-11T16:04:30.999Z</time></trkpt><trkpt lat="44.37572661019007" lon="10.390538262687253"><ele>496.0</ele><time>2026-04-11T16:04:31.999Z</time></trkpt><trkpt lat="44.37562644018015" lon="10.390457068215419"><ele>496.0</ele><time>2026-04-11T16:04:32.999Z</time></trkpt><trkpt lat="44.37554371882641" lon="10.390344627741095"><ele>496.0</ele><time>2026-04-11T16:04:33.999Z</time></trkpt><trkpt lat="44.37542156293483" lon="10.390248531297924"><ele>497.33333333333337</ele><time>2026-04-11T16:04:34.999Z</time></trkpt><trkpt lat="44.375280076126835" lon="10.390137227784235"><ele>498.66666666666663</ele><time>2026-04-11T16:04:35.999Z</time></trkpt><trkpt lat="44.375123093537105" lon="10.390013402951887"><ele>500.0</ele><time>2026-04-11T16:04:36.999Z</time></trkpt><trkpt lat="44.37498589512097" lon="10.38990511227513"><ele>500.0</ele><time>2026-04-11T16:04:37.999Z</time></trkpt><trkpt lat="44.37484971975409" lon="10.389797629092369"><ele>500.0</ele><time>2026-04-11T16:04:38.999Z</time></trkpt><trkpt lat="44.374699300326995" lon="10.389678903074735"><ele>500.0</ele><time>2026-04-11T16:04:39.999Z</time></trkpt><trkpt lat="44.374540013370755" lon="10.389552953305387"><ele>502.0</ele><time>2026-04-11T16:04:40.999Z</time></trkpt><trkpt lat="44.374374971430306" lon="10.38942142412501"><ele>504.0</ele><time>2026-04-11T16:04:41.999Z</time></trkpt><trkpt lat="44.37420524967678" lon="10.389286165395905"><ele>506.0</ele><time>2026-04-11T16:04:42.999Z</time></trkpt><trkpt lat="44.374030203921656" lon="10.38914666369461"><ele>506.0</ele><time>2026-04-11T16:04:43.999Z</time></trkpt><trkpt lat="44.37386896018084" lon="10.389018161465069"><ele>506.0</ele><time>2026-04-11T16:04:44.999Z</time></trkpt><trkpt lat="44.37370395324493" lon="10.388886660223593"><ele>506.0</ele><time>2026-04-11T16:04:45.999Z</time></trkpt><trkpt lat="44.37353170667205" lon="10.388750086789619"><ele>508.66666666666663</ele><time>2026-04-11T16:04:46.999Z</time></trkpt><trkpt lat="44.373359518566794" lon="10.388613903116388"><ele>511.33333333333337</ele><time>2026-04-11T16:04:47.999Z</time></trkpt><trkpt lat="44.37318978845903" lon="10.388478604254962"><ele>514.0</ele><time>2026-04-11T16:04:48.999Z</time></trkpt><trkpt lat="44.373023995003216" lon="10.388345196967586"><ele>514.3333333333334</ele><time>2026-04-11T16:04:49.999Z</time></trkpt><trkpt lat="44.37286386034853" lon="10.388211450206242"><ele>514.6666666666666</ele><time>2026-04-11T16:04:50.999Z</time></trkpt><trkpt lat="44.37271823184979" lon="10.388074622870816"><ele>515.0</ele><time>2026-04-11T16:04:51.999Z</time></trkpt><trkpt lat="44.37258711078807" lon="10.38792548521379"><ele>520.3333333333333</ele><time>2026-04-11T16:04:52.999Z</time></trkpt><trkpt lat="44.37250303885295" lon="10.38774212064873"><ele>525.6666666666666</ele><time>2026-04-11T16:04:53.999Z</time></trkpt><trkpt lat="44.37240713832339" lon="10.387562158257657"><ele>531.0</ele><time>2026-04-11T16:04:54.999Z</time></trkpt><trkpt lat="44.37230187876868" lon="10.38739387209817"><ele>530.0</ele><time>2026-04-11T16:04:55.999Z</time></trkpt><trkpt lat="44.37218102377542" lon="10.387274757451573"><ele>529.0</ele><time>2026-04-11T16:04:56.999Z</time></trkpt><trkpt lat="44.372023365299206" lon="10.38715770359662"><ele>528.0</ele><time>2026-04-11T16:04:57.999Z</time></trkpt><trkpt lat="44.371876259299206" lon="10.387052901264815"><ele>532.0</ele><time>2026-04-11T16:04:58.999Z</time></trkpt><trkpt lat="44.37176676111672" lon="10.386984597189048"><ele>536.0</ele><time>2026-04-11T16:04:59.999Z</time></trkpt><trkpt lat="44.371665216428404" lon="10.386938355071372"><ele>540.0</ele><time>2026-04-11T16:05:00.999Z</time></trkpt><trkpt lat="44.371564346659945" lon="10.386947241742757"><ele>544.0</ele><time>2026-04-11T16:05:01.999Z</time></trkpt><trkpt lat="44.37147331324524" lon="10.386996613265561"><ele>548.0</ele><time>2026-04-11T16:05:02.999Z</time></trkpt><trkpt lat="44.37137202073824" lon="10.38711853343237"><ele>544.0</ele><time>2026-04-11T16:05:03.999Z</time></trkpt><trkpt lat="44.37127329943885" lon="10.387240239234822"><ele>540.0</ele><time>2026-04-11T16:05:04.999Z</time></trkpt><trkpt lat="44.37115357981326" lon="10.387304203799875"><ele>536.0</ele><time>2026-04-11T16:05:05.999Z</time></trkpt><trkpt lat="44.37102205552631" lon="10.387254240559185"><ele>532.0</ele><time>2026-04-11T16:05:06.999Z</time></trkpt><trkpt lat="44.37085891778792" lon="10.387202536891603"><ele>537.0</ele><time>2026-04-11T16:05:07.999Z</time></trkpt><trkpt lat="44.37067808144166" lon="10.387159276305066"><ele>542.0</ele><time>2026-04-11T16:05:08.999Z</time></trkpt><trkpt lat="44.370505159331614" lon="10.387112682877998"><ele>547.0</ele><time>2026-04-11T16:05:09.999Z</time></trkpt><trkpt lat="44.37033546954902" lon="10.387068884327046"><ele>547.0</ele><time>2026-04-11T16:05:10.999Z</time></trkpt><trkpt lat="44.37018055899729" lon="10.387023357379489"><ele>547.0</ele><time>2026-04-11T16:05:11.999Z</time></trkpt><trkpt lat="44.37003234430016" lon="10.386990163019306"><ele>547.0</ele><time>2026-04-11T16:05:12.999Z</time></trkpt><trkpt lat="44.36990397700043" lon="10.3869613672649"><ele>547.0</ele><time>2026-04-11T16:05:13.999Z</time></trkpt><trkpt lat="44.36981561665626" lon="10.386914878223605"><ele>547.0</ele><time>2026-04-11T16:05:14.999Z</time></trkpt><trkpt lat="44.36974424617933" lon="10.386882936982873"><ele>547.0</ele><time>2026-04-11T16:05:15.999Z</time></trkpt><trkpt lat="44.36967750886179" lon="10.38684563639335"><ele>547.0</ele><time>2026-04-11T16:05:16.999Z</time></trkpt><trkpt lat="44.369663116684436" lon="10.386712206569376"><ele>547.0</ele><time>2026-04-11T16:05:17.999Z</time></trkpt><trkpt lat="44.3696713908819" lon="10.386618438308984"><ele>547.0</ele><time>2026-04-11T16:05:18.999Z</time></trkpt><trkpt lat="44.369752696366135" lon="10.386533838582842"><ele>547.0</ele><time>2026-04-11T16:05:19.999Z</time></trkpt><trkpt lat="44.36988125600823" lon="10.386534714353104"><ele>547.0</ele><time>2026-04-11T16:05:20.999Z</time></trkpt><trkpt lat="44.37002786098474" lon="10.386498369644828"><ele>547.0</ele><time>2026-04-11T16:05:21.999Z</time></trkpt><trkpt lat="44.37018782887636" lon="10.386460526701963"><ele>547.0</ele><time>2026-04-11T16:05:22.999Z</time></trkpt><trkpt lat="44.37035527850947" lon="10.386410408114351"><ele>547.0</ele><time>2026-04-11T16:05:23.999Z</time></trkpt><trkpt lat="44.37049705916104" lon="10.386372119729302"><ele>547.0</ele><time>2026-04-11T16:05:24.999Z</time></trkpt><trkpt lat="44.37060735494491" lon="10.386348689945752"><ele>547.0</ele><time>2026-04-11T16:05:25.999Z</time></trkpt><trkpt lat="44.37069066081427" lon="10.386329146776161"><ele>547.0</ele><time>2026-04-11T16:05:26.999Z</time></trkpt><trkpt lat="44.370757618477064" lon="10.386284030533144"><ele>547.0</ele><time>2026-04-11T16:05:27.999Z</time></trkpt><trkpt lat="44.370814591713476" lon="10.386216543087635"><ele>549.6</ele><time>2026-04-11T16:05:28.999Z</time></trkpt><trkpt lat="44.370835805296366" lon="10.386088191348751"><ele>552.2</ele><time>2026-04-11T16:05:29.999Z</time></trkpt><trkpt lat="44.37077282335817" lon="10.385957087270391"><ele>554.8</ele><time>2026-04-11T16:05:30.999Z</time></trkpt><trkpt lat="44.370695310910854" lon="10.385873753775918"><ele>557.4</ele><time>2026-04-11T16:05:31.999Z</time></trkpt><trkpt lat="44.37058484197346" lon="10.385890073403115"><ele>560.0</ele><time>2026-04-11T16:05:32.999Z</time></trkpt><trkpt lat="44.37047445132616" lon="10.385930204154874"><ele>560.0</ele><time>2026-04-11T16:05:33.999Z</time></trkpt><trkpt lat="44.37038152134449" lon="10.385982317705894"><ele>560.0</ele><time>2026-04-11T16:05:34.999Z</time></trkpt><trkpt lat="44.370286577077586" lon="10.386020137706163"><ele>560.0</ele><time>2026-04-11T16:05:35.999Z</time></trkpt><trkpt lat="44.370193056731" lon="10.386023562783093"><ele>560.0</ele><time>2026-04-11T16:05:36.999Z</time></trkpt><trkpt lat="44.370096016977676" lon="10.385980951581752"><ele>560.0</ele><time>2026-04-11T16:05:37.999Z</time></trkpt><trkpt lat="44.370004113558" lon="10.385935391279864"><ele>560.0</ele><time>2026-04-11T16:05:38.999Z</time></trkpt><trkpt lat="44.369925624665875" lon="10.385862992503773"><ele>560.0</ele><time>2026-04-11T16:05:40Z</time></trkpt><trkpt lat="44.36986574437222" lon="10.385767806142034"><ele>560.0</ele><time>2026-04-11T16:05:41Z</time></trkpt><trkpt lat="44.36981985741497" lon="10.385668119056774"><ele>560.0</ele><time>2026-04-11T16:05:42Z</time></trkpt><trkpt lat="44.369786402869515" lon="10.385548434235087"><ele>560.0</ele><time>2026-04-11T16:05:43Z</time></trkpt><trkpt lat="44.369765416543665" lon="10.385421469670261"><ele>561.4</ele><time>2026-04-11T16:05:44Z</time></trkpt><trkpt lat="44.36974553655843" lon="10.385293298135256"><ele>562.8</ele><time>2026-04-11T16:05:45Z</time></trkpt><trkpt lat="44.36972679268406" lon="10.385162056102164"><ele>564.2</ele><time>2026-04-11T16:05:46Z</time></trkpt><trkpt lat="44.36971016792813" lon="10.385032797501962"><ele>565.6</ele><time>2026-04-11T16:05:47Z</time></trkpt><trkpt lat="44.3696938607648" lon="10.384905601307374"><ele>567.0</ele><time>2026-04-11T16:05:48Z</time></trkpt><trkpt lat="44.36965294082072" lon="10.384786387074845"><ele>569.8333333333334</ele><time>2026-04-11T16:05:49Z</time></trkpt><trkpt lat="44.36962995179429" lon="10.38465705061778"><ele>572.6666666666666</ele><time>2026-04-11T16:05:50Z</time></trkpt><trkpt lat="44.36955945628585" lon="10.384571639489518"><ele>575.5</ele><time>2026-04-11T16:05:51Z</time></trkpt><trkpt lat="44.36949289841878" lon="10.38451413848251"><ele>578.3333333333333</ele><time>2026-04-11T16:05:52Z</time></trkpt><trkpt lat="44.36940435913308" lon="10.38450654794421"><ele>581.1666666666666</ele><time>2026-04-11T16:05:53Z</time></trkpt><trkpt lat="44.369322282165776" lon="10.38451148473923"><ele>584.0</ele><time>2026-04-11T16:05:54Z</time></trkpt><trkpt lat="44.3692370399535" lon="10.384524290557689"><ele>584.0</ele><time>2026-04-11T16:05:55Z</time></trkpt><trkpt lat="44.36915243938846" lon="10.384532839612078"><ele>584.0</ele><time>2026-04-11T16:05:56Z</time></trkpt><trkpt lat="44.36906838528613" lon="10.384533456856252"><ele>584.0</ele><time>2026-04-11T16:05:57Z</time></trkpt><trkpt lat="44.36897545448381" lon="10.384539251472065"><ele>584.0</ele><time>2026-04-11T16:05:58Z</time></trkpt><trkpt lat="44.36888539432366" lon="10.38455238243233"><ele>584.0</ele><time>2026-04-11T16:05:59Z</time></trkpt><trkpt lat="44.368796743582095" lon="10.384554699793176"><ele>584.0</ele><time>2026-04-11T16:06:00Z</time></trkpt><trkpt lat="44.36870822881423" lon="10.384555383423315"><ele>584.0</ele><time>2026-04-11T16:06:01Z</time></trkpt><trkpt lat="44.36861920382806" lon="10.384519458878199"><ele>584.0</ele><time>2026-04-11T16:06:02Z</time></trkpt><trkpt lat="44.36852578781302" lon="10.384478911651058"><ele>584.0</ele><time>2026-04-11T16:06:03Z</time></trkpt><trkpt lat="44.3684476812258" lon="10.384420253413262"><ele>584.0</ele><time>2026-04-11T16:06:04Z</time></trkpt><trkpt lat="44.36836669913589" lon="10.384350069353085"><ele>584.0</ele><time>2026-04-11T16:06:05Z</time></trkpt><trkpt lat="44.36828430209045" lon="10.384278646778043"><ele>584.0</ele><time>2026-04-11T16:06:06Z</time></trkpt><trkpt lat="44.368199588325744" lon="10.38421103871942"><ele>584.0</ele><time>2026-04-11T16:06:07Z</time></trkpt><trkpt lat="44.36811985092637" lon="10.384149847400632"><ele>584.0</ele><time>2026-04-11T16:06:08Z</time></trkpt><trkpt lat="44.36803807850998" lon="10.38408065911179"><ele>584.0</ele><time>2026-04-11T16:06:09Z</time></trkpt><trkpt lat="44.36795082374852" lon="10.384014265266742"><ele>584.0</ele><time>2026-04-11T16:06:10Z</time></trkpt><trkpt lat="44.36786265694213" lon="10.383942470287181"><ele>583.0</ele><time>2026-04-11T16:06:11Z</time></trkpt><trkpt lat="44.36779615311735" lon="10.383879180070805"><ele>582.0</ele><time>2026-04-11T16:06:12Z</time></trkpt><trkpt lat="44.36777532711476" lon="10.383725089007577"><ele>581.0</ele><time>2026-04-11T16:06:14Z</time></trkpt><trkpt lat="44.367881262822" lon="10.383624128207083"><ele>580.0</ele><time>2026-04-11T16:06:16Z</time></trkpt><trkpt lat="44.367962861406895" lon="10.383651876517767"><ele>579.0</ele><time>2026-04-11T16:06:17Z</time></trkpt><trkpt lat="44.36803770866753" lon="10.38371436143928"><ele>580.0</ele><time>2026-04-11T16:06:18Z</time></trkpt><trkpt lat="44.368136953828895" lon="10.383767471363564"><ele>581.0</ele><time>2026-04-11T16:06:19Z</time></trkpt><trkpt lat="44.3682327864942" lon="10.383831324424168"><ele>582.0</ele><time>2026-04-11T16:06:20Z</time></trkpt><trkpt lat="44.368329421393945" lon="10.383894030069827"><ele>583.0</ele><time>2026-04-11T16:06:21Z</time></trkpt><trkpt lat="44.36842340501824" lon="10.383951352874762"><ele>584.0</ele><time>2026-04-11T16:06:22Z</time></trkpt><trkpt lat="44.368513147264196" lon="10.383959066626652"><ele>584.0</ele><time>2026-04-11T16:06:22.999Z</time></trkpt><trkpt lat="44.36860774001879" lon="10.383934303401585"><ele>584.0</ele><time>2026-04-11T16:06:23.999Z</time></trkpt><trkpt lat="44.36870096148513" lon="10.383900542964584"><ele>584.0</ele><time>2026-04-11T16:06:24.999Z</time></trkpt><trkpt lat="44.368801428401" lon="10.38386145807184"><ele>584.0</ele><time>2026-04-11T16:06:25.999Z</time></trkpt><trkpt lat="44.36889909717356" lon="10.383837823571923"><ele>584.0</ele><time>2026-04-11T16:06:26.999Z</time></trkpt><trkpt lat="44.3689846899388" lon="10.383794846031368"><ele>586.4</ele><time>2026-04-11T16:06:27.999Z</time></trkpt><trkpt lat="44.36904894181341" lon="10.383728543802135"><ele>588.8</ele><time>2026-04-11T16:06:28.999Z</time></trkpt><trkpt lat="44.36907582266659" lon="10.3836211383427"><ele>591.2</ele><time>2026-04-11T16:06:29.999Z</time></trkpt><trkpt lat="44.36904227818563" lon="10.383491749138306"><ele>593.6</ele><time>2026-04-11T16:06:30.999Z</time></trkpt><trkpt lat="44.3689630620551" lon="10.383396356026045"><ele>596.0</ele><time>2026-04-11T16:06:31.999Z</time></trkpt><trkpt lat="44.36887192466843" lon="10.383312720752066"><ele>596.0</ele><time>2026-04-11T16:06:32.999Z</time></trkpt><trkpt lat="44.368778462824494" lon="10.383249182955353"><ele>596.0</ele><time>2026-04-11T16:06:33.999Z</time></trkpt><trkpt lat="44.368691655727474" lon="10.383172248512706"><ele>596.0</ele><time>2026-04-11T16:06:34.999Z</time></trkpt><trkpt lat="44.36860956625794" lon="10.383076006710434"><ele>596.0</ele><time>2026-04-11T16:06:35.999Z</time></trkpt><trkpt lat="44.36851625034463" lon="10.383007580443419"><ele>596.0</ele><time>2026-04-11T16:06:36.999Z</time></trkpt><trkpt lat="44.368429527768704" lon="10.382923976759079"><ele>597.4</ele><time>2026-04-11T16:06:37.999Z</time></trkpt><trkpt lat="44.36834438199736" lon="10.382841985065085"><ele>598.8</ele><time>2026-04-11T16:06:38.999Z</time></trkpt><trkpt lat="44.36826077053927" lon="10.382757302541174"><ele>600.1999999999999</ele><time>2026-04-11T16:06:39.999Z</time></trkpt><trkpt lat="44.36817530900695" lon="10.382668694704046"><ele>601.6</ele><time>2026-04-11T16:06:40.999Z</time></trkpt><trkpt lat="44.368088641239105" lon="10.382576854221417"><ele>603.0</ele><time>2026-04-11T16:06:41.999Z</time></trkpt><trkpt lat="44.36800939594236" lon="10.382486492391793"><ele>603.0</ele><time>2026-04-11T16:06:42.999Z</time></trkpt><trkpt lat="44.367929888264285" lon="10.382387387863846"><ele>603.0</ele><time>2026-04-11T16:06:43.999Z</time></trkpt><trkpt lat="44.36785000409559" lon="10.382283697324583"><ele>603.0</ele><time>2026-04-11T16:06:44.999Z</time></trkpt><trkpt lat="44.36776912673339" lon="10.38218071482129"><ele>603.0</ele><time>2026-04-11T16:06:45.999Z</time></trkpt><trkpt lat="44.36769499072583" lon="10.382069155677888"><ele>603.0</ele><time>2026-04-11T16:06:46.999Z</time></trkpt><trkpt lat="44.36763628384958" lon="10.381941787288826"><ele>605.1999999999999</ele><time>2026-04-11T16:06:47.999Z</time></trkpt><trkpt lat="44.36758979764354" lon="10.381815390377348"><ele>607.4</ele><time>2026-04-11T16:06:48.999Z</time></trkpt><trkpt lat="44.36755069925689" lon="10.381679106335996"><ele>609.5999999999999</ele><time>2026-04-11T16:06:49.999Z</time></trkpt><trkpt lat="44.36751354012037" lon="10.381540207642836"><ele>611.8</ele><time>2026-04-11T16:06:50.999Z</time></trkpt><trkpt lat="44.36747099316394" lon="10.381405931352646"><ele>614.0</ele><time>2026-04-11T16:06:51.999Z</time></trkpt><trkpt lat="44.367443377659164" lon="10.381264830531077"><ele>615.0</ele><time>2026-04-11T16:06:52.999Z</time></trkpt><trkpt lat="44.36744369649638" lon="10.38111777917709"><ele>616.0</ele><time>2026-04-11T16:06:53.999Z</time></trkpt><trkpt lat="44.36741245528902" lon="10.380976305779491"><ele>617.0</ele><time>2026-04-11T16:06:54.999Z</time></trkpt><trkpt lat="44.36738569284162" lon="10.380841649325149"><ele>618.0</ele><time>2026-04-11T16:06:55.999Z</time></trkpt><trkpt lat="44.36732783619624" lon="10.380730058945403"><ele>619.0</ele><time>2026-04-11T16:06:56.999Z</time></trkpt><trkpt lat="44.36725459709319" lon="10.380641554563102"><ele>618.6666666666667</ele><time>2026-04-11T16:06:57.999Z</time></trkpt><trkpt lat="44.367170883115676" lon="10.380574207774906"><ele>618.3333333333334</ele><time>2026-04-11T16:06:58.999Z</time></trkpt><trkpt lat="44.36708948155823" lon="10.380514801722729"><ele>618.0</ele><time>2026-04-11T16:06:59.999Z</time></trkpt><trkpt lat="44.36705664387859" lon="10.380437886832201"><ele>617.6666666666666</ele><time>2026-04-11T16:07:00.999Z</time></trkpt><trkpt lat="44.36704289673623" lon="10.380290328018786"><ele>617.3333333333333</ele><time>2026-04-11T16:07:02.999Z</time></trkpt><trkpt lat="44.36709525101405" lon="10.380218966480397"><ele>617.0</ele><time>2026-04-11T16:07:03.999Z</time></trkpt><trkpt lat="44.36716830502622" lon="10.38018662341096"><ele>619.2</ele><time>2026-04-11T16:07:04.999Z</time></trkpt><trkpt lat="44.367255781798804" lon="10.380186012961978"><ele>621.4000000000001</ele><time>2026-04-11T16:07:05.999Z</time></trkpt><trkpt lat="44.36736061370641" lon="10.380165582591074"><ele>623.5999999999999</ele><time>2026-04-11T16:07:06.999Z</time></trkpt><trkpt lat="44.367464644292774" lon="10.380169503098912"><ele>625.8</ele><time>2026-04-11T16:07:07.999Z</time></trkpt><trkpt lat="44.36756518638893" lon="10.380171674066753"><ele>628.0</ele><time>2026-04-11T16:07:08.999Z</time></trkpt><trkpt lat="44.36766622392039" lon="10.380174336385021"><ele>628.0</ele><time>2026-04-11T16:07:09.999Z</time></trkpt><trkpt lat="44.36776600359871" lon="10.380169454047504"><ele>628.0</ele><time>2026-04-11T16:07:10.999Z</time></trkpt><trkpt lat="44.36786595354142" lon="10.38018345056485"><ele>628.0</ele><time>2026-04-11T16:07:11.999Z</time></trkpt><trkpt lat="44.36795230156269" lon="10.380160079850723"><ele>628.0</ele><time>2026-04-11T16:07:12.999Z</time></trkpt><trkpt lat="44.36803164558196" lon="10.380168290986209"><ele>628.0</ele><time>2026-04-11T16:07:13.999Z</time></trkpt><trkpt lat="44.3680972967859" lon="10.380175560188206"><ele>628.0</ele><time>2026-04-11T16:07:14.999Z</time></trkpt><trkpt lat="44.36816403654206" lon="10.38018857508967"><ele>628.0</ele><time>2026-04-11T16:07:15.999Z</time></trkpt><trkpt lat="44.36823464831823" lon="10.380220887462006"><ele>628.0</ele><time>2026-04-11T16:07:16.999Z</time></trkpt><trkpt lat="44.36830232428974" lon="10.380289324755854"><ele>628.0</ele><time>2026-04-11T16:07:17.999Z</time></trkpt><trkpt lat="44.368357991636465" lon="10.380381400152617"><ele>628.0</ele><time>2026-04-11T16:07:18.999Z</time></trkpt><trkpt lat="44.36840138680206" lon="10.380474786556983"><ele>628.0</ele><time>2026-04-11T16:07:19.999Z</time></trkpt><trkpt lat="44.36844362752914" lon="10.380544639936303"><ele>628.0</ele><time>2026-04-11T16:07:20.999Z</time></trkpt><trkpt lat="44.36850548210707" lon="10.380574521815275"><ele>628.0</ele><time>2026-04-11T16:07:21.999Z</time></trkpt><trkpt lat="44.3685691869655" lon="10.380597896098122"><ele>628.0</ele><time>2026-04-11T16:07:22.999Z</time></trkpt><trkpt lat="44.36864088968663" lon="10.380551902634993"><ele>628.0</ele><time>2026-04-11T16:07:23.999Z</time></trkpt><trkpt lat="44.36865335991136" lon="10.380390092905104"><ele>628.0</ele><time>2026-04-11T16:07:24.999Z</time></trkpt><trkpt lat="44.36864146625737" lon="10.380171240889482"><ele>628.0</ele><time>2026-04-11T16:07:26.999Z</time></trkpt><trkpt lat="44.368604831450405" lon="10.380035396057288"><ele>629.4</ele><time>2026-04-11T16:07:27.999Z</time></trkpt><trkpt lat="44.36855628462683" lon="10.379905225167112"><ele>630.8</ele><time>2026-04-11T16:07:28.999Z</time></trkpt><trkpt lat="44.368480295848535" lon="10.379796890248583"><ele>632.2</ele><time>2026-04-11T16:07:29.999Z</time></trkpt><trkpt lat="44.36839284917802" lon="10.37970450961208"><ele>633.6</ele><time>2026-04-11T16:07:30.999Z</time></trkpt><trkpt lat="44.368304660775415" lon="10.379616934723558"><ele>635.0</ele><time>2026-04-11T16:07:31.999Z</time></trkpt><trkpt lat="44.3682299883737" lon="10.379512498366756"><ele>636.0</ele><time>2026-04-11T16:07:32.999Z</time></trkpt><trkpt lat="44.3681798329469" lon="10.379379627049994"><ele>637.0</ele><time>2026-04-11T16:07:33.998Z</time></trkpt><trkpt lat="44.36811230488349" lon="10.379292727335615"><ele>638.0</ele><time>2026-04-11T16:07:34.998Z</time></trkpt><trkpt lat="44.36802879745692" lon="10.379260462901852"><ele>639.0</ele><time>2026-04-11T16:07:35.998Z</time></trkpt><trkpt lat="44.36795390333106" lon="10.37923170501741"><ele>640.0</ele><time>2026-04-11T16:07:36.998Z</time></trkpt><trkpt lat="44.36788026966428" lon="10.379215375266941"><ele>641.0</ele><time>2026-04-11T16:07:37.998Z</time></trkpt><trkpt lat="44.36781108546633" lon="10.379188881499989"><ele>641.0</ele><time>2026-04-11T16:07:38.998Z</time></trkpt><trkpt lat="44.36773190043234" lon="10.379147358254992"><ele>641.0</ele><time>2026-04-11T16:07:39.998Z</time></trkpt><trkpt lat="44.36764621492915" lon="10.379105253074949"><ele>641.0</ele><time>2026-04-11T16:07:40.998Z</time></trkpt><trkpt lat="44.36756014898568" lon="10.379058733218944"><ele>641.0</ele><time>2026-04-11T16:07:41.998Z</time></trkpt><trkpt lat="44.36751615110812" lon="10.378985128617"><ele>641.0</ele><time>2026-04-11T16:07:42.998Z</time></trkpt><trkpt lat="44.367433509027926" lon="10.378825693707451"><ele>642.75</ele><time>2026-04-11T16:07:44.998Z</time></trkpt><trkpt lat="44.36737617502803" lon="10.378707135044442"><ele>644.5</ele><time>2026-04-11T16:07:46Z</time></trkpt><trkpt lat="44.36731373438907" lon="10.378575811552658"><ele>646.25</ele><time>2026-04-11T16:07:47Z</time></trkpt><trkpt lat="44.36723462410824" lon="10.378446083022403"><ele>648.0</ele><time>2026-04-11T16:07:48Z</time></trkpt><trkpt lat="44.367131186380654" lon="10.378349397577965"><ele>648.0</ele><time>2026-04-11T16:07:49Z</time></trkpt><trkpt lat="44.36702083269693" lon="10.378258960866166"><ele>648.0</ele><time>2026-04-11T16:07:50Z</time></trkpt><trkpt lat="44.3669080035925" lon="10.378192481456644"><ele>648.0</ele><time>2026-04-11T16:07:51Z</time></trkpt><trkpt lat="44.36680838375649" lon="10.378125220566803"><ele>648.0</ele><time>2026-04-11T16:07:52Z</time></trkpt><trkpt lat="44.36672576084397" lon="10.378054080399846"><ele>649.5999999999999</ele><time>2026-04-11T16:07:53Z</time></trkpt><trkpt lat="44.36665009646333" lon="10.377969952879132"><ele>651.1999999999999</ele><time>2026-04-11T16:07:54Z</time></trkpt><trkpt lat="44.36658470489112" lon="10.377851153020135"><ele>652.8</ele><time>2026-04-11T16:07:55Z</time></trkpt><trkpt lat="44.36649341739538" lon="10.377771164004015"><ele>654.4</ele><time>2026-04-11T16:07:56Z</time></trkpt><trkpt lat="44.36639029408639" lon="10.377687397783943"><ele>656.0</ele><time>2026-04-11T16:07:57Z</time></trkpt><trkpt lat="44.36628200320516" lon="10.377613508246146"><ele>656.0</ele><time>2026-04-11T16:07:58Z</time></trkpt><trkpt lat="44.36618529512116" lon="10.377540566982962"><ele>656.0</ele><time>2026-04-11T16:07:59Z</time></trkpt><trkpt lat="44.36609781849807" lon="10.377492022135197"><ele>656.0</ele><time>2026-04-11T16:08:00Z</time></trkpt><trkpt lat="44.36601845167068" lon="10.377440613085053"><ele>656.0</ele><time>2026-04-11T16:08:01Z</time></trkpt><trkpt lat="44.36593777577365" lon="10.377409877964881"><ele>656.0</ele><time>2026-04-11T16:08:02Z</time></trkpt><trkpt lat="44.36585005901055" lon="10.377373851649443"><ele>656.0</ele><time>2026-04-11T16:08:03Z</time></trkpt><trkpt lat="44.36575661056762" lon="10.377400557997847"><ele>656.0</ele><time>2026-04-11T16:08:04Z</time></trkpt><trkpt lat="44.36565905705558" lon="10.377407341644638"><ele>656.0</ele><time>2026-04-11T16:08:05Z</time></trkpt><trkpt lat="44.365553367634625" lon="10.377415415692811"><ele>656.0</ele><time>2026-04-11T16:08:06Z</time></trkpt><trkpt lat="44.36545566313432" lon="10.377415218991096"><ele>656.0</ele><time>2026-04-11T16:08:07Z</time></trkpt><trkpt lat="44.36535682241239" lon="10.377389374004784"><ele>656.1999999999999</ele><time>2026-04-11T16:08:08Z</time></trkpt><trkpt lat="44.36526976939226" lon="10.377336662316898"><ele>656.4</ele><time>2026-04-11T16:08:09Z</time></trkpt><trkpt lat="44.3651852852512" lon="10.377273849440334"><ele>656.6</ele><time>2026-04-11T16:08:10Z</time></trkpt><trkpt lat="44.365097306877935" lon="10.377211166935819"><ele>656.8</ele><time>2026-04-11T16:08:11Z</time></trkpt><trkpt lat="44.36500516730455" lon="10.377160236059428"><ele>657.0</ele><time>2026-04-11T16:08:12Z</time></trkpt><trkpt lat="44.36490886252346" lon="10.377137912655149"><ele>657.0</ele><time>2026-04-11T16:08:13Z</time></trkpt><trkpt lat="44.364808499009854" lon="10.377147064069332"><ele>657.0</ele><time>2026-04-11T16:08:14Z</time></trkpt><trkpt lat="44.364711277539016" lon="10.377191004292566"><ele>657.0</ele><time>2026-04-11T16:08:15Z</time></trkpt><trkpt lat="44.36462092573437" lon="10.37725133647625"><ele>657.0</ele><time>2026-04-11T16:08:16Z</time></trkpt><trkpt lat="44.364533231438664" lon="10.377312235495918"><ele>657.0</ele><time>2026-04-11T16:08:17Z</time></trkpt><trkpt lat="44.3644433150271" lon="10.377355578397063"><ele>658.8</ele><time>2026-04-11T16:08:18Z</time></trkpt><trkpt lat="44.3643432079835" lon="10.37735780673814"><ele>660.6</ele><time>2026-04-11T16:08:19Z</time></trkpt><trkpt lat="44.364246463935025" lon="10.377321810779762"><ele>662.4</ele><time>2026-04-11T16:08:20Z</time></trkpt><trkpt lat="44.364150942093985" lon="10.377283853235754"><ele>664.1999999999999</ele><time>2026-04-11T16:08:21Z</time></trkpt><trkpt lat="44.36406560112273" lon="10.37726629772171"><ele>666.0</ele><time>2026-04-11T16:08:22Z</time></trkpt><trkpt lat="44.363972392836715" lon="10.377281431936282"><ele>666.0</ele><time>2026-04-11T16:08:23Z</time></trkpt><trkpt lat="44.36388566593975" lon="10.377318680884354"><ele>666.0</ele><time>2026-04-11T16:08:24Z</time></trkpt><trkpt lat="44.363811561749884" lon="10.37734723890478"><ele>666.0</ele><time>2026-04-11T16:08:25Z</time></trkpt><trkpt lat="44.36371895284938" lon="10.377309604223129"><ele>666.0</ele><time>2026-04-11T16:08:27Z</time></trkpt><trkpt lat="44.36366732829846" lon="10.377159709049591"><ele>666.0</ele><time>2026-04-11T16:08:29Z</time></trkpt><trkpt lat="44.3636379603983" lon="10.37706635879237"><ele>667.4</ele><time>2026-04-11T16:08:30Z</time></trkpt><trkpt lat="44.36359174776232" lon="10.376962721802514"><ele>668.8</ele><time>2026-04-11T16:08:31Z</time></trkpt><trkpt lat="44.36353242406116" lon="10.376850777805325"><ele>670.1999999999999</ele><time>2026-04-11T16:08:32Z</time></trkpt><trkpt lat="44.363452312129155" lon="10.376750199957709"><ele>671.5999999999999</ele><time>2026-04-11T16:08:33Z</time></trkpt><trkpt lat="44.36337787800724" lon="10.376675763384341"><ele>673.0</ele><time>2026-04-11T16:08:34Z</time></trkpt><trkpt lat="44.36329406353495" lon="10.376612930522457"><ele>673.0</ele><time>2026-04-11T16:08:35Z</time></trkpt><trkpt lat="44.363205676232525" lon="10.376554100534417"><ele>673.0</ele><time>2026-04-11T16:08:36Z</time></trkpt><trkpt lat="44.36313166393604" lon="10.376468542336083"><ele>673.0</ele><time>2026-04-11T16:08:37Z</time></trkpt><trkpt lat="44.3630462570578" lon="10.376407736067593"><ele>673.0</ele><time>2026-04-11T16:08:38Z</time></trkpt><trkpt lat="44.36297293052625" lon="10.37633081137085"><ele>673.0</ele><time>2026-04-11T16:08:39Z</time></trkpt><trkpt lat="44.36289539200368" lon="10.376265282886006"><ele>674.4</ele><time>2026-04-11T16:08:39.999Z</time></trkpt><trkpt lat="44.36281332509675" lon="10.376199486054519"><ele>675.8</ele><time>2026-04-11T16:08:40.999Z</time></trkpt><trkpt lat="44.362732988116775" lon="10.376140805538824"><ele>677.2</ele><time>2026-04-11T16:08:41.999Z</time></trkpt><trkpt lat="44.362654348523584" lon="10.376092468974418"><ele>678.6</ele><time>2026-04-11T16:08:42.999Z</time></trkpt><trkpt lat="44.362571069032796" lon="10.376049403601478"><ele>680.0</ele><time>2026-04-11T16:08:43.999Z</time></trkpt><trkpt lat="44.36248444450234" lon="10.376016319337106"><ele>680.0</ele><time>2026-04-11T16:08:44.999Z</time></trkpt><trkpt lat="44.36239942420102" lon="10.375976499790642"><ele>680.0</ele><time>2026-04-11T16:08:45.999Z</time></trkpt><trkpt lat="44.36232010508449" lon="10.375944369673562"><ele>680.0</ele><time>2026-04-11T16:08:46.999Z</time></trkpt><trkpt lat="44.36224091044897" lon="10.375912179064443"><ele>680.0</ele><time>2026-04-11T16:08:47.999Z</time></trkpt><trkpt lat="44.36215727460074" lon="10.375872282253036"><ele>680.0</ele><time>2026-04-11T16:08:48.999Z</time></trkpt><trkpt lat="44.362077629887665" lon="10.37583555834139"><ele>680.0</ele><time>2026-04-11T16:08:49.999Z</time></trkpt><trkpt lat="44.361993297142924" lon="10.375800238797584"><ele>679.1666666666666</ele><time>2026-04-11T16:08:50.999Z</time></trkpt><trkpt lat="44.36190173390227" lon="10.375763382777365"><ele>678.3333333333333</ele><time>2026-04-11T16:08:51.999Z</time></trkpt><trkpt lat="44.361817685467194" lon="10.375726616061387"><ele>677.5</ele><time>2026-04-11T16:08:52.999Z</time></trkpt><trkpt lat="44.36174757398332" lon="10.375694238973253"><ele>676.6666666666666</ele><time>2026-04-11T16:08:53.999Z</time></trkpt><trkpt lat="44.361685538830365" lon="10.375672937477152"><ele>675.8333333333334</ele><time>2026-04-11T16:08:54.999Z</time></trkpt><trkpt lat="44.361622802161556" lon="10.375663067295465"><ele>675.0</ele><time>2026-04-11T16:08:55.999Z</time></trkpt><trkpt lat="44.3615398179439" lon="10.375689561050207"><ele>675.0</ele><time>2026-04-11T16:08:56.999Z</time></trkpt><trkpt lat="44.36146073654752" lon="10.375775366302538"><ele>675.0</ele><time>2026-04-11T16:08:57.999Z</time></trkpt><trkpt lat="44.36141352940702" lon="10.375918646305081"><ele>675.0</ele><time>2026-04-11T16:08:58.999Z</time></trkpt><trkpt lat="44.36140276679095" lon="10.376074816304723"><ele>675.0</ele><time>2026-04-11T16:08:59.999Z</time></trkpt><trkpt lat="44.361304834668566" lon="10.376111850592922"><ele>675.0</ele><time>2026-04-11T16:09:00.999Z</time></trkpt><trkpt lat="44.36124038889882" lon="10.376100747564614"><ele>672.5</ele><time>2026-04-11T16:09:01.999Z</time></trkpt><trkpt lat="44.3614121114386" lon="10.37653169190213"><ele>670.0</ele><time>2026-04-11T16:09:02.999Z</time></trkpt><trkpt lat="44.36140570340661" lon="10.376690685170033"><ele>670.0</ele><time>2026-04-11T16:09:03.999Z</time></trkpt><trkpt lat="44.36139664382879" lon="10.376853342522713"><ele>670.0</ele><time>2026-04-11T16:09:04.999Z</time></trkpt><trkpt lat="44.36138170790968" lon="10.37702200930812"><ele>670.0</ele><time>2026-04-11T16:09:05.999Z</time></trkpt><trkpt lat="44.361370328382336" lon="10.37718245358421"><ele>670.0</ele><time>2026-04-11T16:09:06.999Z</time></trkpt><trkpt lat="44.36135510042538" lon="10.377313683263832"><ele>670.0</ele><time>2026-04-11T16:09:07.999Z</time></trkpt><trkpt lat="44.36134923751775" lon="10.377413143379789"><ele>672.1428571428571</ele><time>2026-04-11T16:09:08.999Z</time></trkpt><trkpt lat="44.36134333386821" lon="10.377504760586268"><ele>674.2857142857142</ele><time>2026-04-11T16:09:09.999Z</time></trkpt><trkpt lat="44.36133612541631" lon="10.377616352383203"><ele>676.4285714285713</ele><time>2026-04-11T16:09:10.999Z</time></trkpt><trkpt lat="44.36132508060622" lon="10.377723011914055"><ele>678.5714285714286</ele><time>2026-04-11T16:09:11.999Z</time></trkpt><trkpt lat="44.36131785106824" lon="10.3778346349918"><ele>680.7142857142858</ele><time>2026-04-11T16:09:12.999Z</time></trkpt><trkpt lat="44.36131275623178" lon="10.377930459303052"><ele>682.8571428571428</ele><time>2026-04-11T16:09:13.999Z</time></trkpt><trkpt lat="44.361300825649955" lon="10.378024098038818"><ele>685.0</ele><time>2026-04-11T16:09:14.999Z</time></trkpt><trkpt lat="44.36128393303877" lon="10.378130873749788"><ele>685.0</ele><time>2026-04-11T16:09:15.999Z</time></trkpt><trkpt lat="44.36125556506581" lon="10.378233415559299"><ele>685.0</ele><time>2026-04-11T16:09:16.999Z</time></trkpt><trkpt lat="44.36119852884331" lon="10.378309989489646"><ele>685.0</ele><time>2026-04-11T16:09:17.999Z</time></trkpt><trkpt lat="44.36112420514587" lon="10.378361631539477"><ele>685.0</ele><time>2026-04-11T16:09:18.999Z</time></trkpt><trkpt lat="44.36104118718958" lon="10.378370492495849"><ele>685.0</ele><time>2026-04-11T16:09:19.999Z</time></trkpt><trkpt lat="44.36095731264414" lon="10.378325121361849"><ele>685.0</ele><time>2026-04-11T16:09:20.999Z</time></trkpt><trkpt lat="44.360884729913764" lon="10.378260920253702"><ele>685.0</ele><time>2026-04-11T16:09:21.999Z</time></trkpt><trkpt lat="44.360808697318745" lon="10.37822077650474"><ele>685.0</ele><time>2026-04-11T16:09:22.999Z</time></trkpt><trkpt lat="44.360734297194725" lon="10.378151614422356"><ele>685.0</ele><time>2026-04-11T16:09:23.999Z</time></trkpt><trkpt lat="44.360660091636895" lon="10.378082549470014"><ele>685.0</ele><time>2026-04-11T16:09:24.999Z</time></trkpt><trkpt lat="44.36057863314471" lon="10.378021198959647"><ele>685.0</ele><time>2026-04-11T16:09:25.999Z</time></trkpt><trkpt lat="44.360498460146516" lon="10.377969769607182"><ele>685.0</ele><time>2026-04-11T16:09:26.999Z</time></trkpt><trkpt lat="44.360432689600046" lon="10.377929062229303"><ele>686.4285714285714</ele><time>2026-04-11T16:09:27.999Z</time></trkpt><trkpt lat="44.36037091219277" lon="10.377907171651678"><ele>687.8571428571429</ele><time>2026-04-11T16:09:28.999Z</time></trkpt><trkpt lat="44.36030174769642" lon="10.377915067858137"><ele>689.2857142857143</ele><time>2026-04-11T16:09:29.999Z</time></trkpt><trkpt lat="44.36023072300365" lon="10.37794452025789"><ele>690.7142857142858</ele><time>2026-04-11T16:09:30.999Z</time></trkpt><trkpt lat="44.360162953107995" lon="10.377990187230752"><ele>692.1428571428571</ele><time>2026-04-11T16:09:31.999Z</time></trkpt><trkpt lat="44.360096834266436" lon="10.378055080638953"><ele>693.5714285714287</ele><time>2026-04-11T16:09:32.999Z</time></trkpt><trkpt lat="44.360034131272826" lon="10.37812561539102"><ele>695.0</ele><time>2026-04-11T16:09:33.999Z</time></trkpt><trkpt lat="44.35997341275354" lon="10.378203258341621"><ele>695.0</ele><time>2026-04-11T16:09:34.999Z</time></trkpt><trkpt lat="44.359909921819494" lon="10.378262323345584"><ele>695.0</ele><time>2026-04-11T16:09:35.999Z</time></trkpt><trkpt lat="44.35982889510907" lon="10.37833177722449"><ele>695.0</ele><time>2026-04-11T16:09:36.999Z</time></trkpt><trkpt lat="44.35976472449642" lon="10.378404800479638"><ele>695.0</ele><time>2026-04-11T16:09:37.999Z</time></trkpt><trkpt lat="44.35969590048672" lon="10.378477166216037"><ele>695.0</ele><time>2026-04-11T16:09:38.999Z</time></trkpt><trkpt lat="44.359628426623544" lon="10.378553616108329"><ele>695.0</ele><time>2026-04-11T16:09:39.999Z</time></trkpt><trkpt lat="44.35956062907103" lon="10.378635316349998"><ele>696.0</ele><time>2026-04-11T16:09:40.999Z</time></trkpt><trkpt lat="44.35949211158023" lon="10.378707145107784"><ele>697.0</ele><time>2026-04-11T16:09:41.999Z</time></trkpt><trkpt lat="44.35941524844791" lon="10.378768436209025"><ele>698.0</ele><time>2026-04-11T16:09:42.999Z</time></trkpt><trkpt lat="44.35933251897289" lon="10.3788229684661"><ele>699.0</ele><time>2026-04-11T16:09:43.999Z</time></trkpt><trkpt lat="44.35924628073339" lon="10.3788669284161"><ele>700.0</ele><time>2026-04-11T16:09:44.999Z</time></trkpt><trkpt lat="44.359148568047495" lon="10.37889887091866"><ele>700.0</ele><time>2026-04-11T16:09:45.999Z</time></trkpt><trkpt lat="44.359049432781056" lon="10.378932035250672"><ele>700.0</ele><time>2026-04-11T16:09:46.998Z</time></trkpt><trkpt lat="44.358942782725805" lon="10.378974108765599"><ele>700.0</ele><time>2026-04-11T16:09:47.998Z</time></trkpt><trkpt lat="44.3588351846494" lon="10.379021898912455"><ele>700.0</ele><time>2026-04-11T16:09:48.998Z</time></trkpt><trkpt lat="44.3587318179074" lon="10.379066625224398"><ele>700.0</ele><time>2026-04-11T16:09:49.998Z</time></trkpt><trkpt lat="44.35861980681545" lon="10.379112114635243"><ele>702.25</ele><time>2026-04-11T16:09:50.998Z</time></trkpt><trkpt lat="44.35850135735578" lon="10.37916607602075"><ele>704.5</ele><time>2026-04-11T16:09:52Z</time></trkpt><trkpt lat="44.35838552954622" lon="10.379218840481572"><ele>706.75</ele><time>2026-04-11T16:09:53Z</time></trkpt><trkpt lat="44.35825964408452" lon="10.379250363058802"><ele>709.0</ele><time>2026-04-11T16:09:54Z</time></trkpt><trkpt lat="44.35812882150703" lon="10.379199750981785"><ele>709.75</ele><time>2026-04-11T16:09:55Z</time></trkpt><trkpt lat="44.35799419789452" lon="10.379138308851447"><ele>710.5</ele><time>2026-04-11T16:09:56Z</time></trkpt><trkpt lat="44.357843186117385" lon="10.379064452049485"><ele>711.25</ele><time>2026-04-11T16:09:57Z</time></trkpt><trkpt lat="44.357708137045854" lon="10.37900641993216"><ele>712.0</ele><time>2026-04-11T16:09:58Z</time></trkpt><trkpt lat="44.35759656243305" lon="10.378944777861578"><ele>712.0</ele><time>2026-04-11T16:09:59Z</time></trkpt><trkpt lat="44.35749023024514" lon="10.378897903683582"><ele>712.0</ele><time>2026-04-11T16:10:00Z</time></trkpt><trkpt lat="44.35738144102207" lon="10.3788919725742"><ele>712.0</ele><time>2026-04-11T16:10:01Z</time></trkpt><trkpt lat="44.357277253932295" lon="10.378931739304555"><ele>712.0</ele><time>2026-04-11T16:10:02Z</time></trkpt><trkpt lat="44.357202832953526" lon="10.379038024356888"><ele>712.0</ele><time>2026-04-11T16:10:03Z</time></trkpt><trkpt lat="44.357177161643556" lon="10.379181833951394"><ele>712.0</ele><time>2026-04-11T16:10:04Z</time></trkpt><trkpt lat="44.35720360436906" lon="10.37934878213413"><ele>712.0</ele><time>2026-04-11T16:10:05Z</time></trkpt><trkpt lat="44.357310072661306" lon="10.379512286661175"><ele>712.0</ele><time>2026-04-11T16:10:06Z</time></trkpt><trkpt lat="44.35739407084165" lon="10.379636875416418"><ele>712.0</ele><time>2026-04-11T16:10:07Z</time></trkpt><trkpt lat="44.3574410881904" lon="10.379769425123591"><ele>712.0</ele><time>2026-04-11T16:10:08Z</time></trkpt><trkpt lat="44.357422709573676" lon="10.379886657794621"><ele>712.0</ele><time>2026-04-11T16:10:09Z</time></trkpt><trkpt lat="44.35736405648577" lon="10.38002505726539"><ele>712.0</ele><time>2026-04-11T16:10:10Z</time></trkpt><trkpt lat="44.35726710803026" lon="10.380130022169363"><ele>712.0</ele><time>2026-04-11T16:10:11Z</time></trkpt><trkpt lat="44.35714774127157" lon="10.380231083172397"><ele>714.5</ele><time>2026-04-11T16:10:12Z</time></trkpt><trkpt lat="44.35703470915968" lon="10.380337380606614"><ele>717.0</ele><time>2026-04-11T16:10:13Z</time></trkpt><trkpt lat="44.356936113959854" lon="10.380452457092563"><ele>719.5</ele><time>2026-04-11T16:10:14Z</time></trkpt><trkpt lat="44.356844660087454" lon="10.380591788142695"><ele>722.0</ele><time>2026-04-11T16:10:15Z</time></trkpt><trkpt lat="44.356768651633104" lon="10.380756654651885"><ele>722.0</ele><time>2026-04-11T16:10:16Z</time></trkpt><trkpt lat="44.35669367737529" lon="10.3809302736675"><ele>722.0</ele><time>2026-04-11T16:10:17Z</time></trkpt><trkpt lat="44.35660990093209" lon="10.381106660303958"><ele>722.0</ele><time>2026-04-11T16:10:18Z</time></trkpt><trkpt lat="44.35653689666057" lon="10.381304842976704"><ele>722.0</ele><time>2026-04-11T16:10:19Z</time></trkpt><trkpt lat="44.35648546319901" lon="10.381519271257055"><ele>722.0</ele><time>2026-04-11T16:10:20Z</time></trkpt><trkpt lat="44.356450651706176" lon="10.381709159770514"><ele>722.0</ele><time>2026-04-11T16:10:21Z</time></trkpt><trkpt lat="44.35640840492632" lon="10.381862510308055"><ele>722.0</ele><time>2026-04-11T16:10:22Z</time></trkpt><trkpt lat="44.35640315883012" lon="10.382024642694743"><ele>722.0</ele><time>2026-04-11T16:10:23Z</time></trkpt><trkpt lat="44.35640061416613" lon="10.382176413060488"><ele>722.0</ele><time>2026-04-11T16:10:24Z</time></trkpt><trkpt lat="44.35640040808294" lon="10.382333822633752"><ele>722.0</ele><time>2026-04-11T16:10:25Z</time></trkpt><trkpt lat="44.356415006794634" lon="10.382483139904675"><ele>722.0</ele><time>2026-04-11T16:10:26Z</time></trkpt><trkpt lat="44.35641671934775" lon="10.38260287133741"><ele>722.0</ele><time>2026-04-11T16:10:27Z</time></trkpt><trkpt lat="44.35638814828868" lon="10.382694180357548"><ele>723.0</ele><time>2026-04-11T16:10:28Z</time></trkpt><trkpt lat="44.3562829489103" lon="10.382754955255571"><ele>724.0</ele><time>2026-04-11T16:10:30Z</time></trkpt><trkpt lat="44.35619426972532" lon="10.382796305557543"><ele>725.0</ele><time>2026-04-11T16:10:31Z</time></trkpt><trkpt lat="44.35619660966584" lon="10.382920882084644"><ele>726.0</ele><time>2026-04-11T16:10:32Z</time></trkpt><trkpt lat="44.35614418302923" lon="10.383058457629367"><ele>727.0</ele><time>2026-04-11T16:10:33Z</time></trkpt><trkpt lat="44.35611079225581" lon="10.38319757583455"><ele>727.0</ele><time>2026-04-11T16:10:34Z</time></trkpt><trkpt lat="44.35607394248275" lon="10.383345249464657"><ele>727.0</ele><time>2026-04-11T16:10:35Z</time></trkpt><trkpt lat="44.35603451629542" lon="10.383483836203416"><ele>727.0</ele><time>2026-04-11T16:10:36Z</time></trkpt><trkpt lat="44.35598309740267" lon="10.383608223242351"><ele>727.0</ele><time>2026-04-11T16:10:37Z</time></trkpt><trkpt lat="44.35591580391345" lon="10.383712661598787"><ele>727.0</ele><time>2026-04-11T16:10:38Z</time></trkpt><trkpt lat="44.35583738149286" lon="10.383804796799891"><ele>726.4000000000001</ele><time>2026-04-11T16:10:39Z</time></trkpt><trkpt lat="44.355743592457216" lon="10.383858094065971"><ele>725.8000000000001</ele><time>2026-04-11T16:10:40Z</time></trkpt><trkpt lat="44.35565833170965" lon="10.383940045725154"><ele>725.2</ele><time>2026-04-11T16:10:41Z</time></trkpt><trkpt lat="44.355563987164714" lon="10.383996812351771"><ele>724.6</ele><time>2026-04-11T16:10:42Z</time></trkpt><trkpt lat="44.35545806619752" lon="10.384054423917233"><ele>724.0</ele><time>2026-04-11T16:10:43Z</time></trkpt><trkpt lat="44.35534438185951" lon="10.384093382020914"><ele>724.0</ele><time>2026-04-11T16:10:43.999Z</time></trkpt><trkpt lat="44.35522193096025" lon="10.384100356858703"><ele>724.0</ele><time>2026-04-11T16:10:44.999Z</time></trkpt><trkpt lat="44.35513437119732" lon="10.384115998113755"><ele>724.0</ele><time>2026-04-11T16:10:45.999Z</time></trkpt><trkpt lat="44.35505795865211" lon="10.384156072738257"><ele>724.0</ele><time>2026-04-11T16:10:46.999Z</time></trkpt><trkpt lat="44.35499235788697" lon="10.384221856993182"><ele>724.0</ele><time>2026-04-11T16:10:47.999Z</time></trkpt><trkpt lat="44.35494699313341" lon="10.384315382162262"><ele>724.0</ele><time>2026-04-11T16:10:48.999Z</time></trkpt><trkpt lat="44.35493983891684" lon="10.384417989911457"><ele>724.0</ele><time>2026-04-11T16:10:49.999Z</time></trkpt><trkpt lat="44.35496678626738" lon="10.384547848168426"><ele>724.0</ele><time>2026-04-11T16:10:50.999Z</time></trkpt><trkpt lat="44.35504048588547" lon="10.384681288059705"><ele>724.0</ele><time>2026-04-11T16:10:51.999Z</time></trkpt><trkpt lat="44.35515960306307" lon="10.384780026249013"><ele>724.0</ele><time>2026-04-11T16:10:52.999Z</time></trkpt><trkpt lat="44.35529285776924" lon="10.384868343813729"><ele>728.3333333333334</ele><time>2026-04-11T16:10:53.999Z</time></trkpt><trkpt lat="44.35542881702886" lon="10.38499074606236"><ele>732.6666666666666</ele><time>2026-04-11T16:10:54.999Z</time></trkpt><trkpt lat="44.355563622417016" lon="10.385133625667255"><ele>737.0</ele><time>2026-04-11T16:10:55.999Z</time></trkpt><trkpt lat="44.35569529036504" lon="10.385328218126034"><ele>737.3333333333333</ele><time>2026-04-11T16:10:56.999Z</time></trkpt><trkpt lat="44.3558456754683" lon="10.38550775412344"><ele>737.6666666666666</ele><time>2026-04-11T16:10:57.999Z</time></trkpt><trkpt lat="44.35598218311296" lon="10.38567366059433"><ele>738.0</ele><time>2026-04-11T16:10:58.999Z</time></trkpt><trkpt lat="44.35614734772675" lon="10.385799241935905"><ele>738.0</ele><time>2026-04-11T16:10:59.999Z</time></trkpt><trkpt lat="44.35635471999446" lon="10.385907432167686"><ele>738.0</ele><time>2026-04-11T16:11:00.999Z</time></trkpt><trkpt lat="44.35658682860184" lon="10.386005647420534"><ele>727.0</ele><time>2026-04-11T16:11:01.999Z</time></trkpt><trkpt lat="44.35680793154306" lon="10.3861200893208"><ele>716.0</ele><time>2026-04-11T16:11:02.999Z</time></trkpt><trkpt lat="44.35703094182112" lon="10.38625205724979"><ele>721.6666666666666</ele><time>2026-04-11T16:11:03.999Z</time></trkpt><trkpt lat="44.35723279798617" lon="10.386364657626766"><ele>727.3333333333334</ele><time>2026-04-11T16:11:04.999Z</time></trkpt><trkpt lat="44.35742107613924" lon="10.386459524688858"><ele>733.0</ele><time>2026-04-11T16:11:05.999Z</time></trkpt><trkpt lat="44.35759801980116" lon="10.386551870634605"><ele>733.0</ele><time>2026-04-11T16:11:06.999Z</time></trkpt><trkpt lat="44.357762675700464" lon="10.38664037605244"><ele>733.0</ele><time>2026-04-11T16:11:07.999Z</time></trkpt><trkpt lat="44.357913874008645" lon="10.386723938394864"><ele>733.0</ele><time>2026-04-11T16:11:08.999Z</time></trkpt><trkpt lat="44.35805281412881" lon="10.386795775040886"><ele>732.5</ele><time>2026-04-11T16:11:09.999Z</time></trkpt><trkpt lat="44.35815393684805" lon="10.38689019072975"><ele>732.0</ele><time>2026-04-11T16:11:10.999Z</time></trkpt><trkpt lat="44.35823319761932" lon="10.387000661225755"><ele>731.5</ele><time>2026-04-11T16:11:11.999Z</time></trkpt><trkpt lat="44.358275112001536" lon="10.38713504218687"><ele>731.0</ele><time>2026-04-11T16:11:12.999Z</time></trkpt><trkpt lat="44.35832773896204" lon="10.387286216276303"><ele>731.0</ele><time>2026-04-11T16:11:13.999Z</time></trkpt><trkpt lat="44.35836322033645" lon="10.38749428300097"><ele>731.0</ele><time>2026-04-11T16:11:14.999Z</time></trkpt><trkpt lat="44.35840260482746" lon="10.387718874868078"><ele>731.0</ele><time>2026-04-11T16:11:15.999Z</time></trkpt><trkpt lat="44.358461351512595" lon="10.387933083220767"><ele>737.3333333333333</ele><time>2026-04-11T16:11:16.999Z</time></trkpt><trkpt lat="44.35856043767347" lon="10.388125517520573"><ele>743.6666666666666</ele><time>2026-04-11T16:11:17.999Z</time></trkpt><trkpt lat="44.35868711336731" lon="10.38828394869893"><ele>750.0</ele><time>2026-04-11T16:11:18.999Z</time></trkpt><trkpt lat="44.35884689866124" lon="10.388407237605064"><ele>740.3333333333334</ele><time>2026-04-11T16:11:19.999Z</time></trkpt><trkpt lat="44.35915149913691" lon="10.388541047916757"><ele>730.6666666666667</ele><time>2026-04-11T16:11:21.999Z</time></trkpt><trkpt lat="44.359247869461925" lon="10.388639901590098"><ele>721.0</ele><time>2026-04-11T16:11:22.999Z</time></trkpt><trkpt lat="44.359354364758076" lon="10.38874954451432"><ele>728.0</ele><time>2026-04-11T16:11:23.999Z</time></trkpt><trkpt lat="44.359417008053036" lon="10.38895071417345"><ele>735.0</ele><time>2026-04-11T16:11:24.999Z</time></trkpt><trkpt lat="44.35950575356836" lon="10.389172229641064"><ele>742.0</ele><time>2026-04-11T16:11:25.999Z</time></trkpt><trkpt lat="44.35957675128" lon="10.389418029023627"><ele>742.0</ele><time>2026-04-11T16:11:26.999Z</time></trkpt><trkpt lat="44.35963999081752" lon="10.38964274549628"><ele>742.0</ele><time>2026-04-11T16:11:27.999Z</time></trkpt><trkpt lat="44.35968712290924" lon="10.389834130112085"><ele>742.0</ele><time>2026-04-11T16:11:28.999Z</time></trkpt><trkpt lat="44.359726413097036" lon="10.389999627174033"><ele>742.0</ele><time>2026-04-11T16:11:29.999Z</time></trkpt><trkpt lat="44.35978369688897" lon="10.39015404025296"><ele>737.0</ele><time>2026-04-11T16:11:30.999Z</time></trkpt><trkpt lat="44.35987404577855" lon="10.390309812256689"><ele>732.0</ele><time>2026-04-11T16:11:31.999Z</time></trkpt><trkpt lat="44.36001463082595" lon="10.390454484023666"><ele>727.0</ele><time>2026-04-11T16:11:32.999Z</time></trkpt><trkpt lat="44.36017221113779" lon="10.3905769202409"><ele>731.0</ele><time>2026-04-11T16:11:33.999Z</time></trkpt><trkpt lat="44.36031185600879" lon="10.390679027445138"><ele>735.0</ele><time>2026-04-11T16:11:34.999Z</time></trkpt><trkpt lat="44.36045249275903" lon="10.390755817429824"><ele>739.0</ele><time>2026-04-11T16:11:35.999Z</time></trkpt><trkpt lat="44.360622672407686" lon="10.390784856630171"><ele>739.0</ele><time>2026-04-11T16:11:36.999Z</time></trkpt><trkpt lat="44.36081200601206" lon="10.39077483880257"><ele>739.0</ele><time>2026-04-11T16:11:37.999Z</time></trkpt><trkpt lat="44.36098985710733" lon="10.390761882187206"><ele>739.0</ele><time>2026-04-11T16:11:38.999Z</time></trkpt><trkpt lat="44.361150031101566" lon="10.390751849206502"><ele>739.0</ele><time>2026-04-11T16:11:39.999Z</time></trkpt><trkpt lat="44.36127952551172" lon="10.390744444198774"><ele>739.0</ele><time>2026-04-11T16:11:40.999Z</time></trkpt><trkpt lat="44.36139297646568" lon="10.39074938439247"><ele>739.0</ele><time>2026-04-11T16:11:41.999Z</time></trkpt><trkpt lat="44.36148908109402" lon="10.390774875094714"><ele>739.0</ele><time>2026-04-11T16:11:42.999Z</time></trkpt><trkpt lat="44.36157778679886" lon="10.390829761040386"><ele>739.0</ele><time>2026-04-11T16:11:43.999Z</time></trkpt><trkpt lat="44.36167864399661" lon="10.390912062608542"><ele>736.5</ele><time>2026-04-11T16:11:44.998Z</time></trkpt><trkpt lat="44.3617900689558" lon="10.391023315228788"><ele>734.0</ele><time>2026-04-11T16:11:45.998Z</time></trkpt><trkpt lat="44.36189984783153" lon="10.391149748354227"><ele>731.5</ele><time>2026-04-11T16:11:46.998Z</time></trkpt><trkpt lat="44.36203361297216" lon="10.391258073539259"><ele>729.0</ele><time>2026-04-11T16:11:47.998Z</time></trkpt><trkpt lat="44.362207000381" lon="10.391306013305652"><ele>732.75</ele><time>2026-04-11T16:11:48.998Z</time></trkpt><trkpt lat="44.36236257079953" lon="10.391343661442647"><ele>736.5</ele><time>2026-04-11T16:11:49.998Z</time></trkpt><trkpt lat="44.362466372679194" lon="10.39138452042052"><ele>740.25</ele><time>2026-04-11T16:11:50.998Z</time></trkpt><trkpt lat="44.362553082889086" lon="10.39146732079107"><ele>744.0</ele><time>2026-04-11T16:11:51.998Z</time></trkpt><trkpt lat="44.36262555474652" lon="10.391608987215706"><ele>744.0</ele><time>2026-04-11T16:11:52.998Z</time></trkpt><trkpt lat="44.36270270377611" lon="10.391744057347186"><ele>744.0</ele><time>2026-04-11T16:11:53.998Z</time></trkpt><trkpt lat="44.362822589822954" lon="10.39182061655008"><ele>744.0</ele><time>2026-04-11T16:11:54.998Z</time></trkpt><trkpt lat="44.36296695449464" lon="10.391841197754037"><ele>744.0</ele><time>2026-04-11T16:11:55.998Z</time></trkpt><trkpt lat="44.36310043536076" lon="10.39182254356554"><ele>736.5</ele><time>2026-04-11T16:11:56.998Z</time></trkpt><trkpt lat="44.36320477976734" lon="10.391869962197708"><ele>729.0</ele><time>2026-04-11T16:11:58Z</time></trkpt><trkpt lat="44.363316881962156" lon="10.391958387523555"><ele>721.5</ele><time>2026-04-11T16:11:59Z</time></trkpt><trkpt lat="44.36342872951059" lon="10.392069353026395"><ele>714.0</ele><time>2026-04-11T16:12:00Z</time></trkpt><trkpt lat="44.363536038509714" lon="10.392159720129685"><ele>718.5</ele><time>2026-04-11T16:12:01Z</time></trkpt><trkpt lat="44.36362220357273" lon="10.392222170583581"><ele>723.0</ele><time>2026-04-11T16:12:02Z</time></trkpt><trkpt lat="44.36371132978855" lon="10.392326469992504"><ele>727.5</ele><time>2026-04-11T16:12:04Z</time></trkpt><trkpt lat="44.36375084067817" lon="10.392419692400368"><ele>732.0</ele><time>2026-04-11T16:12:06Z</time></trkpt><trkpt lat="44.36374299745555" lon="10.392514209965315"><ele>736.5</ele><time>2026-04-11T16:12:08Z</time></trkpt><trkpt lat="44.36368771334285" lon="10.392577201456124"><ele>741.0</ele><time>2026-04-11T16:12:10Z</time></trkpt><trkpt lat="44.363621869501465" lon="10.392627254601337"><ele>741.0</ele><time>2026-04-11T16:12:13Z</time></trkpt><trkpt lat="44.36358847367984" lon="10.392546214654189"><ele>741.0</ele><time>2026-04-11T16:16:38Z</time></trkpt></trkseg></trk></gpx>